<?xml version="1.0" encoding="UTF-8" standalone="no" ?>
<gpx xmlns="http://www.topografix.com/GPX/1/1" xmlns:xsi="http://www.w3.org/2001/XMLSchema-instance" xsi:schemaLocation="http://www.topografix.com/GPX/1/1 http://www.topografix.com/GPX/1/1/gpx.xsd" version="1.1" creator="VisuGPX - https://www.visugpx.com">
  <metadata>
    <name>Pyrénées J8 Luchon - Brodo 2018-08-11</name>
    <desc><![CDATA[Voyage en Pyrénnées depuis Grenoble en moto par les petites routes virolantes]]></desc>
  </metadata>
  <wpt lat="42.7841" lon="0.59635">
    <ele>646.27</ele>
    <name><![CDATA[0000211]]></name>
    <type><![CDATA[Point de départ]]></type>
  </wpt>
  <wpt lat="42.60392" lon="-0.12144">
    <ele>910.92</ele>
    <name><![CDATA[0000212]]></name>
    <desc><![CDATA[<p><br /><h3>Nom: Segment: 1</h3><br />Heure de départ: 08/11/2018 12:23<br/>Heure d'arrivée: 08/11/2018 17:07<br/>Distance: 155,9km (04:43)<br/>Temps déplacement: 03:09<br/>Vitesse moyenne: 33,03 km/h<br/>Vitesse moyenne mouv.: 48,78 km/h<br/>Vitesse Max.: 107,89 km/h<br/>Altitude minimale: 612 m<br/>Altitude maximale: 1821 m<br/>Vitesse de montée: 1723,2 m/h<br/>Vitesse de descente: -1788,7 m/h<br/>Gain d'altitude: 4198 m<br/>Perte d'altitude: -3933 m<br/>Temps de montée: 02:26<br/>Temps de descente: 02:11<br/></p>]]></desc>
    <type><![CDATA[Point d'arrivée]]></type>
  </wpt>
  <trk>
    <name><![CDATA[2018-08-11 12:23]]></name>
    <desc><![CDATA[<p>Heure de départ: 08/11/2018 12:23<br/>Heure d'arrivée: 08/11/2018 17:07<br/>Distance: 155,9 km (04:43)<br/>Temps déplacement: 03:09<br/>Vitesse moyenne: 33,03 km/h<br/>Vitesse moyenne mouv.: 49,26 km/h<br/>Vitesse Max.: 107,89 km/h<br/>Altitude minimale: 612 m<br/>Altitude maximale: 1821 m<br/>Vitesse de montée: 2058,1 m/h<br/>Vitesse de descente: -1354,6 m/h<br/>Gain d'altitude: 3826 m<br/>Perte d'altitude: -3571 m<br/>Temps de montée: 01:51<br/>Temps de descente: 02:38<br/></p><hr align="center" width="480" style="height: 2px; width: 517px"/>]]></desc>
    <trkseg>
      <trkpt lat="42.7841" lon="0.59635">
        <ele>646.27</ele>
        <time>2018-08-11T10:23:59Z</time>
      </trkpt>
      <trkpt lat="42.78417" lon="0.5961">
        <ele>659.82</ele>
        <time>2018-08-11T10:34:39Z</time>
      </trkpt>
      <trkpt lat="42.78437" lon="0.59595">
        <ele>652.82</ele>
        <time>2018-08-11T10:34:43Z</time>
      </trkpt>
      <trkpt lat="42.78454" lon="0.59582">
        <ele>650.67</ele>
        <time>2018-08-11T10:34:46Z</time>
      </trkpt>
      <trkpt lat="42.78472" lon="0.59572">
        <ele>648.67</ele>
        <time>2018-08-11T10:34:49Z</time>
      </trkpt>
      <trkpt lat="42.78491" lon="0.59562">
        <ele>647.37</ele>
        <time>2018-08-11T10:34:52Z</time>
      </trkpt>
      <trkpt lat="42.7851" lon="0.59552">
        <ele>647.27</ele>
        <time>2018-08-11T10:34:55Z</time>
      </trkpt>
      <trkpt lat="42.78528" lon="0.59544">
        <ele>646.36</ele>
        <time>2018-08-11T10:34:58Z</time>
      </trkpt>
      <trkpt lat="42.78547" lon="0.59545">
        <ele>644.38</ele>
        <time>2018-08-11T10:35:02Z</time>
      </trkpt>
      <trkpt lat="42.78558" lon="0.59573">
        <ele>644.33</ele>
        <time>2018-08-11T10:35:05Z</time>
      </trkpt>
      <trkpt lat="42.78566" lon="0.59604">
        <ele>640.48</ele>
        <time>2018-08-11T10:35:09Z</time>
      </trkpt>
      <trkpt lat="42.78573" lon="0.59627">
        <ele>641.25</ele>
        <time>2018-08-11T10:35:12Z</time>
      </trkpt>
      <trkpt lat="42.78581" lon="0.59652">
        <ele>640.36</ele>
        <time>2018-08-11T10:35:15Z</time>
      </trkpt>
      <trkpt lat="42.78588" lon="0.59675">
        <ele>640.21</ele>
        <time>2018-08-11T10:35:18Z</time>
      </trkpt>
      <trkpt lat="42.78596" lon="0.59702">
        <ele>640.06</ele>
        <time>2018-08-11T10:35:22Z</time>
      </trkpt>
      <trkpt lat="42.78604" lon="0.59728">
        <ele>639.08</ele>
        <time>2018-08-11T10:35:26Z</time>
      </trkpt>
      <trkpt lat="42.78611" lon="0.59751">
        <ele>636.66</ele>
        <time>2018-08-11T10:35:30Z</time>
      </trkpt>
      <trkpt lat="42.78619" lon="0.59778">
        <ele>635.3</ele>
        <time>2018-08-11T10:35:34Z</time>
      </trkpt>
      <trkpt lat="42.78629" lon="0.59804">
        <ele>638.86</ele>
        <time>2018-08-11T10:35:38Z</time>
      </trkpt>
      <trkpt lat="42.7865" lon="0.59802">
        <ele>638.29</ele>
        <time>2018-08-11T10:35:42Z</time>
      </trkpt>
      <trkpt lat="42.78668" lon="0.59791">
        <ele>638.06</ele>
        <time>2018-08-11T10:35:45Z</time>
      </trkpt>
      <trkpt lat="42.78685" lon="0.59781">
        <ele>639.11</ele>
        <time>2018-08-11T10:35:48Z</time>
      </trkpt>
      <trkpt lat="42.78706" lon="0.59772">
        <ele>639.54</ele>
        <time>2018-08-11T10:35:51Z</time>
      </trkpt>
      <trkpt lat="42.78726" lon="0.59761">
        <ele>638.36</ele>
        <time>2018-08-11T10:35:54Z</time>
      </trkpt>
      <trkpt lat="42.78745" lon="0.59751">
        <ele>639.39</ele>
        <time>2018-08-11T10:35:57Z</time>
      </trkpt>
      <trkpt lat="42.78765" lon="0.59742">
        <ele>639.27</ele>
        <time>2018-08-11T10:36:00Z</time>
      </trkpt>
      <trkpt lat="42.78783" lon="0.59734">
        <ele>638.78</ele>
        <time>2018-08-11T10:36:03Z</time>
      </trkpt>
      <trkpt lat="42.78804" lon="0.5973">
        <ele>638.28</ele>
        <time>2018-08-11T10:36:06Z</time>
      </trkpt>
      <trkpt lat="42.78823" lon="0.59725">
        <ele>636.32</ele>
        <time>2018-08-11T10:36:09Z</time>
      </trkpt>
      <trkpt lat="42.78845" lon="0.59724">
        <ele>635.23</ele>
        <time>2018-08-11T10:36:12Z</time>
      </trkpt>
      <trkpt lat="42.78869" lon="0.59727">
        <ele>636.18</ele>
        <time>2018-08-11T10:36:15Z</time>
      </trkpt>
      <trkpt lat="42.78892" lon="0.5973">
        <ele>636.26</ele>
        <time>2018-08-11T10:36:18Z</time>
      </trkpt>
      <trkpt lat="42.78915" lon="0.59733">
        <ele>635.29</ele>
        <time>2018-08-11T10:36:21Z</time>
      </trkpt>
      <trkpt lat="42.78938" lon="0.59736">
        <ele>636.18</ele>
        <time>2018-08-11T10:36:24Z</time>
      </trkpt>
      <trkpt lat="42.78964" lon="0.5974">
        <ele>636.26</ele>
        <time>2018-08-11T10:36:27Z</time>
      </trkpt>
      <trkpt lat="42.78989" lon="0.59745">
        <ele>639.55</ele>
        <time>2018-08-11T10:36:30Z</time>
      </trkpt>
      <trkpt lat="42.79013" lon="0.59751">
        <ele>639.06</ele>
        <time>2018-08-11T10:36:33Z</time>
      </trkpt>
      <trkpt lat="42.79037" lon="0.59757">
        <ele>637.32</ele>
        <time>2018-08-11T10:36:36Z</time>
      </trkpt>
      <trkpt lat="42.7906" lon="0.59765">
        <ele>636.09</ele>
        <time>2018-08-11T10:36:39Z</time>
      </trkpt>
      <trkpt lat="42.79083" lon="0.5977">
        <ele>633.81</ele>
        <time>2018-08-11T10:36:42Z</time>
      </trkpt>
      <trkpt lat="42.79103" lon="0.59773">
        <ele>635.86</ele>
        <time>2018-08-11T10:36:45Z</time>
      </trkpt>
      <trkpt lat="42.79123" lon="0.59776">
        <ele>636.89</ele>
        <time>2018-08-11T10:36:48Z</time>
      </trkpt>
      <trkpt lat="42.79147" lon="0.59778">
        <ele>637.05</ele>
        <time>2018-08-11T10:36:51Z</time>
      </trkpt>
      <trkpt lat="42.79167" lon="0.59779">
        <ele>639.56</ele>
        <time>2018-08-11T10:36:53Z</time>
      </trkpt>
      <trkpt lat="42.79191" lon="0.5978">
        <ele>638.51</ele>
        <time>2018-08-11T10:36:56Z</time>
      </trkpt>
      <trkpt lat="42.79215" lon="0.59782">
        <ele>638.21</ele>
        <time>2018-08-11T10:36:59Z</time>
      </trkpt>
      <trkpt lat="42.79233" lon="0.59782">
        <ele>638.26</ele>
        <time>2018-08-11T10:37:01Z</time>
      </trkpt>
      <trkpt lat="42.79257" lon="0.59778">
        <ele>635.68</ele>
        <time>2018-08-11T10:37:04Z</time>
      </trkpt>
      <trkpt lat="42.7928" lon="0.59772">
        <ele>635.22</ele>
        <time>2018-08-11T10:37:07Z</time>
      </trkpt>
      <trkpt lat="42.79299" lon="0.59759">
        <ele>635.27</ele>
        <time>2018-08-11T10:37:11Z</time>
      </trkpt>
      <trkpt lat="42.7932" lon="0.59742">
        <ele>637.72</ele>
        <time>2018-08-11T10:37:15Z</time>
      </trkpt>
      <trkpt lat="42.79342" lon="0.59724">
        <ele>638.95</ele>
        <time>2018-08-11T10:37:18Z</time>
      </trkpt>
      <trkpt lat="42.79366" lon="0.59706">
        <ele>639.96</ele>
        <time>2018-08-11T10:37:21Z</time>
      </trkpt>
      <trkpt lat="42.79383" lon="0.59691">
        <ele>639.33</ele>
        <time>2018-08-11T10:37:23Z</time>
      </trkpt>
      <trkpt lat="42.79401" lon="0.59678">
        <ele>640.88</ele>
        <time>2018-08-11T10:37:25Z</time>
      </trkpt>
      <trkpt lat="42.79419" lon="0.59669">
        <ele>639.41</ele>
        <time>2018-08-11T10:37:27Z</time>
      </trkpt>
      <trkpt lat="42.79438" lon="0.59661">
        <ele>639.28</ele>
        <time>2018-08-11T10:37:29Z</time>
      </trkpt>
      <trkpt lat="42.79456" lon="0.59654">
        <ele>637.66</ele>
        <time>2018-08-11T10:37:31Z</time>
      </trkpt>
      <trkpt lat="42.79474" lon="0.59645">
        <ele>637.51</ele>
        <time>2018-08-11T10:37:33Z</time>
      </trkpt>
      <trkpt lat="42.79497" lon="0.59634">
        <ele>636.36</ele>
        <time>2018-08-11T10:37:36Z</time>
      </trkpt>
      <trkpt lat="42.79516" lon="0.59623">
        <ele>636.24</ele>
        <time>2018-08-11T10:37:43Z</time>
      </trkpt>
      <trkpt lat="42.79539" lon="0.5961">
        <ele>637.18</ele>
        <time>2018-08-11T10:37:48Z</time>
      </trkpt>
      <trkpt lat="42.79564" lon="0.59595">
        <ele>638.24</ele>
        <time>2018-08-11T10:37:51Z</time>
      </trkpt>
      <trkpt lat="42.79584" lon="0.59587">
        <ele>638.05</ele>
        <time>2018-08-11T10:37:53Z</time>
      </trkpt>
      <trkpt lat="42.79605" lon="0.59581">
        <ele>637.34</ele>
        <time>2018-08-11T10:37:55Z</time>
      </trkpt>
      <trkpt lat="42.79627" lon="0.59581">
        <ele>636.36</ele>
        <time>2018-08-11T10:37:57Z</time>
      </trkpt>
      <trkpt lat="42.79646" lon="0.59583">
        <ele>636.28</ele>
        <time>2018-08-11T10:37:59Z</time>
      </trkpt>
      <trkpt lat="42.79666" lon="0.59581">
        <ele>636.54</ele>
        <time>2018-08-11T10:38:03Z</time>
      </trkpt>
      <trkpt lat="42.79685" lon="0.59587">
        <ele>632.78</ele>
        <time>2018-08-11T10:38:09Z</time>
      </trkpt>
      <trkpt lat="42.79707" lon="0.5959">
        <ele>633.22</ele>
        <time>2018-08-11T10:38:11Z</time>
      </trkpt>
      <trkpt lat="42.79729" lon="0.59592">
        <ele>633.26</ele>
        <time>2018-08-11T10:38:13Z</time>
      </trkpt>
      <trkpt lat="42.79755" lon="0.59596">
        <ele>633.97</ele>
        <time>2018-08-11T10:38:15Z</time>
      </trkpt>
      <trkpt lat="42.79779" lon="0.59596">
        <ele>634.94</ele>
        <time>2018-08-11T10:38:17Z</time>
      </trkpt>
      <trkpt lat="42.79805" lon="0.59602">
        <ele>635.94</ele>
        <time>2018-08-11T10:38:19Z</time>
      </trkpt>
      <trkpt lat="42.79833" lon="0.59604">
        <ele>637.15</ele>
        <time>2018-08-11T10:38:21Z</time>
      </trkpt>
      <trkpt lat="42.79858" lon="0.59608">
        <ele>632.92</ele>
        <time>2018-08-11T10:38:23Z</time>
      </trkpt>
      <trkpt lat="42.79884" lon="0.59613">
        <ele>631.63</ele>
        <time>2018-08-11T10:38:25Z</time>
      </trkpt>
      <trkpt lat="42.79911" lon="0.59617">
        <ele>631.51</ele>
        <time>2018-08-11T10:38:27Z</time>
      </trkpt>
      <trkpt lat="42.79941" lon="0.59619">
        <ele>633.6</ele>
        <time>2018-08-11T10:38:29Z</time>
      </trkpt>
      <trkpt lat="42.79969" lon="0.59622">
        <ele>635.82</ele>
        <time>2018-08-11T10:38:31Z</time>
      </trkpt>
      <trkpt lat="42.79998" lon="0.59626">
        <ele>636.44</ele>
        <time>2018-08-11T10:38:33Z</time>
      </trkpt>
      <trkpt lat="42.80025" lon="0.5963">
        <ele>633.06</ele>
        <time>2018-08-11T10:38:35Z</time>
      </trkpt>
      <trkpt lat="42.80053" lon="0.59634">
        <ele>633.25</ele>
        <time>2018-08-11T10:38:37Z</time>
      </trkpt>
      <trkpt lat="42.80082" lon="0.59639">
        <ele>633.97</ele>
        <time>2018-08-11T10:38:39Z</time>
      </trkpt>
      <trkpt lat="42.80108" lon="0.59642">
        <ele>636.76</ele>
        <time>2018-08-11T10:38:41Z</time>
      </trkpt>
      <trkpt lat="42.80135" lon="0.59646">
        <ele>638.62</ele>
        <time>2018-08-11T10:38:43Z</time>
      </trkpt>
      <trkpt lat="42.8016" lon="0.59651">
        <ele>636.48</ele>
        <time>2018-08-11T10:38:45Z</time>
      </trkpt>
      <trkpt lat="42.80185" lon="0.59655">
        <ele>636.99</ele>
        <time>2018-08-11T10:38:47Z</time>
      </trkpt>
      <trkpt lat="42.80212" lon="0.5966">
        <ele>635.63</ele>
        <time>2018-08-11T10:38:49Z</time>
      </trkpt>
      <trkpt lat="42.80238" lon="0.59665">
        <ele>633.9</ele>
        <time>2018-08-11T10:38:51Z</time>
      </trkpt>
      <trkpt lat="42.80266" lon="0.5967">
        <ele>633.11</ele>
        <time>2018-08-11T10:38:53Z</time>
      </trkpt>
      <trkpt lat="42.80293" lon="0.59682">
        <ele>633.95</ele>
        <time>2018-08-11T10:38:55Z</time>
      </trkpt>
      <trkpt lat="42.80318" lon="0.59699">
        <ele>634.94</ele>
        <time>2018-08-11T10:38:57Z</time>
      </trkpt>
      <trkpt lat="42.80344" lon="0.5972">
        <ele>636.15</ele>
        <time>2018-08-11T10:38:59Z</time>
      </trkpt>
      <trkpt lat="42.8037" lon="0.5974">
        <ele>636.26</ele>
        <time>2018-08-11T10:39:01Z</time>
      </trkpt>
      <trkpt lat="42.80393" lon="0.59761">
        <ele>636.27</ele>
        <time>2018-08-11T10:39:03Z</time>
      </trkpt>
      <trkpt lat="42.80417" lon="0.59776">
        <ele>635.36</ele>
        <time>2018-08-11T10:39:05Z</time>
      </trkpt>
      <trkpt lat="42.8044" lon="0.59796">
        <ele>635.28</ele>
        <time>2018-08-11T10:39:07Z</time>
      </trkpt>
      <trkpt lat="42.80465" lon="0.59815">
        <ele>635.27</ele>
        <time>2018-08-11T10:39:09Z</time>
      </trkpt>
      <trkpt lat="42.80491" lon="0.59825">
        <ele>635.27</ele>
        <time>2018-08-11T10:39:11Z</time>
      </trkpt>
      <trkpt lat="42.80515" lon="0.5982">
        <ele>627.08</ele>
        <time>2018-08-11T10:39:13Z</time>
      </trkpt>
      <trkpt lat="42.80544" lon="0.59809">
        <ele>628.86</ele>
        <time>2018-08-11T10:39:15Z</time>
      </trkpt>
      <trkpt lat="42.8057" lon="0.59792">
        <ele>627.41</ele>
        <time>2018-08-11T10:39:17Z</time>
      </trkpt>
      <trkpt lat="42.80593" lon="0.59767">
        <ele>626.37</ele>
        <time>2018-08-11T10:39:19Z</time>
      </trkpt>
      <trkpt lat="42.80619" lon="0.59744">
        <ele>627.19</ele>
        <time>2018-08-11T10:39:21Z</time>
      </trkpt>
      <trkpt lat="42.80643" lon="0.59721">
        <ele>626.14</ele>
        <time>2018-08-11T10:39:23Z</time>
      </trkpt>
      <trkpt lat="42.8067" lon="0.597">
        <ele>626.26</ele>
        <time>2018-08-11T10:39:25Z</time>
      </trkpt>
      <trkpt lat="42.80698" lon="0.59687">
        <ele>627.18</ele>
        <time>2018-08-11T10:39:27Z</time>
      </trkpt>
      <trkpt lat="42.80726" lon="0.59678">
        <ele>627.26</ele>
        <time>2018-08-11T10:39:29Z</time>
      </trkpt>
      <trkpt lat="42.80748" lon="0.59668">
        <ele>627.27</ele>
        <time>2018-08-11T10:39:31Z</time>
      </trkpt>
      <trkpt lat="42.80769" lon="0.5966">
        <ele>627.06</ele>
        <time>2018-08-11T10:39:33Z</time>
      </trkpt>
      <trkpt lat="42.80793" lon="0.59655">
        <ele>625.65</ele>
        <time>2018-08-11T10:39:36Z</time>
      </trkpt>
      <trkpt lat="42.80806" lon="0.59673">
        <ele>624.58</ele>
        <time>2018-08-11T10:39:39Z</time>
      </trkpt>
      <trkpt lat="42.80809" lon="0.59702">
        <ele>622.39</ele>
        <time>2018-08-11T10:39:42Z</time>
      </trkpt>
      <trkpt lat="42.80812" lon="0.59727">
        <ele>622.28</ele>
        <time>2018-08-11T10:39:44Z</time>
      </trkpt>
      <trkpt lat="42.80814" lon="0.59753">
        <ele>622.27</ele>
        <time>2018-08-11T10:39:46Z</time>
      </trkpt>
      <trkpt lat="42.80819" lon="0.59777">
        <ele>622.27</ele>
        <time>2018-08-11T10:39:48Z</time>
      </trkpt>
      <trkpt lat="42.80828" lon="0.59808">
        <ele>621.99</ele>
        <time>2018-08-11T10:39:51Z</time>
      </trkpt>
      <trkpt lat="42.80834" lon="0.59836">
        <ele>622.26</ele>
        <time>2018-08-11T10:39:54Z</time>
      </trkpt>
      <trkpt lat="42.80831" lon="0.59863">
        <ele>622.48</ele>
        <time>2018-08-11T10:39:58Z</time>
      </trkpt>
      <trkpt lat="42.80824" lon="0.59836">
        <ele>624.26</ele>
        <time>2018-08-11T10:40:05Z</time>
      </trkpt>
      <trkpt lat="42.80817" lon="0.59814">
        <ele>628.26</ele>
        <time>2018-08-11T10:44:16Z</time>
      </trkpt>
      <trkpt lat="42.80823" lon="0.59787">
        <ele>622.26</ele>
        <time>2018-08-11T10:45:20Z</time>
      </trkpt>
      <trkpt lat="42.80818" lon="0.59763">
        <ele>621.29</ele>
        <time>2018-08-11T10:45:23Z</time>
      </trkpt>
      <trkpt lat="42.80813" lon="0.59733">
        <ele>620.36</ele>
        <time>2018-08-11T10:45:26Z</time>
      </trkpt>
      <trkpt lat="42.80809" lon="0.59701">
        <ele>621.24</ele>
        <time>2018-08-11T10:45:29Z</time>
      </trkpt>
      <trkpt lat="42.80807" lon="0.59673">
        <ele>619.38</ele>
        <time>2018-08-11T10:45:32Z</time>
      </trkpt>
      <trkpt lat="42.80801" lon="0.59648">
        <ele>620.64</ele>
        <time>2018-08-11T10:45:50Z</time>
      </trkpt>
      <trkpt lat="42.80779" lon="0.59648">
        <ele>619.57</ele>
        <time>2018-08-11T10:45:54Z</time>
      </trkpt>
      <trkpt lat="42.80758" lon="0.59655">
        <ele>617.19</ele>
        <time>2018-08-11T10:45:56Z</time>
      </trkpt>
      <trkpt lat="42.80737" lon="0.59663">
        <ele>616.35</ele>
        <time>2018-08-11T10:45:58Z</time>
      </trkpt>
      <trkpt lat="42.80718" lon="0.59673">
        <ele>615.15</ele>
        <time>2018-08-11T10:46:00Z</time>
      </trkpt>
      <trkpt lat="42.80695" lon="0.59682">
        <ele>615.05</ele>
        <time>2018-08-11T10:46:02Z</time>
      </trkpt>
      <trkpt lat="42.80669" lon="0.59693">
        <ele>613.43</ele>
        <time>2018-08-11T10:46:04Z</time>
      </trkpt>
      <trkpt lat="42.80647" lon="0.59708">
        <ele>615.8</ele>
        <time>2018-08-11T10:46:06Z</time>
      </trkpt>
      <trkpt lat="42.80625" lon="0.59727">
        <ele>615.32</ele>
        <time>2018-08-11T10:46:08Z</time>
      </trkpt>
      <trkpt lat="42.80603" lon="0.5975">
        <ele>615.27</ele>
        <time>2018-08-11T10:46:10Z</time>
      </trkpt>
      <trkpt lat="42.80585" lon="0.59774">
        <ele>615.97</ele>
        <time>2018-08-11T10:46:12Z</time>
      </trkpt>
      <trkpt lat="42.80565" lon="0.59794">
        <ele>615.33</ele>
        <time>2018-08-11T10:46:14Z</time>
      </trkpt>
      <trkpt lat="42.80542" lon="0.59813">
        <ele>615.27</ele>
        <time>2018-08-11T10:46:16Z</time>
      </trkpt>
      <trkpt lat="42.80516" lon="0.59823">
        <ele>616.88</ele>
        <time>2018-08-11T10:46:18Z</time>
      </trkpt>
      <trkpt lat="42.80489" lon="0.59827">
        <ele>617.3</ele>
        <time>2018-08-11T10:46:20Z</time>
      </trkpt>
      <trkpt lat="42.80464" lon="0.5982">
        <ele>619.09</ele>
        <time>2018-08-11T10:46:22Z</time>
      </trkpt>
      <trkpt lat="42.8044" lon="0.59803">
        <ele>620.65</ele>
        <time>2018-08-11T10:46:24Z</time>
      </trkpt>
      <trkpt lat="42.80416" lon="0.59783">
        <ele>622.12</ele>
        <time>2018-08-11T10:46:26Z</time>
      </trkpt>
      <trkpt lat="42.80392" lon="0.59763">
        <ele>623.86</ele>
        <time>2018-08-11T10:46:28Z</time>
      </trkpt>
      <trkpt lat="42.80371" lon="0.59745">
        <ele>623.04</ele>
        <time>2018-08-11T10:46:30Z</time>
      </trkpt>
      <trkpt lat="42.80348" lon="0.59725">
        <ele>623.04</ele>
        <time>2018-08-11T10:46:32Z</time>
      </trkpt>
      <trkpt lat="42.80325" lon="0.59704">
        <ele>624.65</ele>
        <time>2018-08-11T10:46:34Z</time>
      </trkpt>
      <trkpt lat="42.80302" lon="0.59685">
        <ele>626.61</ele>
        <time>2018-08-11T10:46:36Z</time>
      </trkpt>
      <trkpt lat="42.80277" lon="0.59671">
        <ele>627.21</ele>
        <time>2018-08-11T10:46:38Z</time>
      </trkpt>
      <trkpt lat="42.8025" lon="0.59662">
        <ele>625.65</ele>
        <time>2018-08-11T10:46:40Z</time>
      </trkpt>
      <trkpt lat="42.80222" lon="0.59658">
        <ele>625.3</ele>
        <time>2018-08-11T10:46:42Z</time>
      </trkpt>
      <trkpt lat="42.80194" lon="0.59655">
        <ele>626.88</ele>
        <time>2018-08-11T10:46:44Z</time>
      </trkpt>
      <trkpt lat="42.80166" lon="0.59651">
        <ele>628.84</ele>
        <time>2018-08-11T10:46:46Z</time>
      </trkpt>
      <trkpt lat="42.80136" lon="0.59648">
        <ele>627.34</ele>
        <time>2018-08-11T10:46:48Z</time>
      </trkpt>
      <trkpt lat="42.80109" lon="0.59644">
        <ele>625.17</ele>
        <time>2018-08-11T10:46:50Z</time>
      </trkpt>
      <trkpt lat="42.80081" lon="0.59638">
        <ele>624.84</ele>
        <time>2018-08-11T10:46:52Z</time>
      </trkpt>
      <trkpt lat="42.80056" lon="0.59631">
        <ele>626.14</ele>
        <time>2018-08-11T10:46:54Z</time>
      </trkpt>
      <trkpt lat="42.80027" lon="0.59626">
        <ele>627.87</ele>
        <time>2018-08-11T10:46:56Z</time>
      </trkpt>
      <trkpt lat="42.79999" lon="0.59624">
        <ele>629.84</ele>
        <time>2018-08-11T10:46:58Z</time>
      </trkpt>
      <trkpt lat="42.79972" lon="0.5962">
        <ele>630.93</ele>
        <time>2018-08-11T10:47:00Z</time>
      </trkpt>
      <trkpt lat="42.79944" lon="0.59616">
        <ele>631.45</ele>
        <time>2018-08-11T10:47:02Z</time>
      </trkpt>
      <trkpt lat="42.79915" lon="0.59614">
        <ele>631.49</ele>
        <time>2018-08-11T10:47:04Z</time>
      </trkpt>
      <trkpt lat="42.79887" lon="0.59612">
        <ele>632.2</ele>
        <time>2018-08-11T10:47:06Z</time>
      </trkpt>
      <trkpt lat="42.79859" lon="0.59609">
        <ele>633.66</ele>
        <time>2018-08-11T10:47:08Z</time>
      </trkpt>
      <trkpt lat="42.79831" lon="0.59603">
        <ele>632.81</ele>
        <time>2018-08-11T10:47:10Z</time>
      </trkpt>
      <trkpt lat="42.79803" lon="0.59598">
        <ele>631.62</ele>
        <time>2018-08-11T10:47:12Z</time>
      </trkpt>
      <trkpt lat="42.79774" lon="0.59595">
        <ele>631.3</ele>
        <time>2018-08-11T10:47:14Z</time>
      </trkpt>
      <trkpt lat="42.79746" lon="0.59592">
        <ele>630.36</ele>
        <time>2018-08-11T10:47:16Z</time>
      </trkpt>
      <trkpt lat="42.79725" lon="0.59592">
        <ele>632.1</ele>
        <time>2018-08-11T10:47:18Z</time>
      </trkpt>
      <trkpt lat="42.79702" lon="0.59589">
        <ele>633.65</ele>
        <time>2018-08-11T10:47:20Z</time>
      </trkpt>
      <trkpt lat="42.79677" lon="0.59584">
        <ele>635.33</ele>
        <time>2018-08-11T10:47:22Z</time>
      </trkpt>
      <trkpt lat="42.79654" lon="0.59575">
        <ele>635.97</ele>
        <time>2018-08-11T10:47:24Z</time>
      </trkpt>
      <trkpt lat="42.79636" lon="0.59559">
        <ele>639.25</ele>
        <time>2018-08-11T10:47:26Z</time>
      </trkpt>
      <trkpt lat="42.79619" lon="0.5954">
        <ele>638.36</ele>
        <time>2018-08-11T10:47:28Z</time>
      </trkpt>
      <trkpt lat="42.79602" lon="0.59525">
        <ele>638.97</ele>
        <time>2018-08-11T10:47:30Z</time>
      </trkpt>
      <trkpt lat="42.79583" lon="0.59506">
        <ele>638.56</ele>
        <time>2018-08-11T10:47:33Z</time>
      </trkpt>
      <trkpt lat="42.79563" lon="0.59489">
        <ele>634.23</ele>
        <time>2018-08-11T10:47:37Z</time>
      </trkpt>
      <trkpt lat="42.79549" lon="0.59473">
        <ele>633.93</ele>
        <time>2018-08-11T10:47:40Z</time>
      </trkpt>
      <trkpt lat="42.79532" lon="0.59455">
        <ele>635.01</ele>
        <time>2018-08-11T10:47:44Z</time>
      </trkpt>
      <trkpt lat="42.79518" lon="0.59437">
        <ele>638.96</ele>
        <time>2018-08-11T10:47:50Z</time>
      </trkpt>
      <trkpt lat="42.79505" lon="0.59412">
        <ele>639.33</ele>
        <time>2018-08-11T10:47:54Z</time>
      </trkpt>
      <trkpt lat="42.79497" lon="0.59379">
        <ele>643.1</ele>
        <time>2018-08-11T10:47:58Z</time>
      </trkpt>
      <trkpt lat="42.79486" lon="0.59355">
        <ele>643.95</ele>
        <time>2018-08-11T10:48:00Z</time>
      </trkpt>
      <trkpt lat="42.79473" lon="0.59329">
        <ele>646.97</ele>
        <time>2018-08-11T10:48:02Z</time>
      </trkpt>
      <trkpt lat="42.7946" lon="0.59302">
        <ele>647.94</ele>
        <time>2018-08-11T10:48:04Z</time>
      </trkpt>
      <trkpt lat="42.79444" lon="0.59277">
        <ele>648.94</ele>
        <time>2018-08-11T10:48:06Z</time>
      </trkpt>
      <trkpt lat="42.79429" lon="0.59252">
        <ele>649.94</ele>
        <time>2018-08-11T10:48:08Z</time>
      </trkpt>
      <trkpt lat="42.79414" lon="0.59225">
        <ele>650.94</ele>
        <time>2018-08-11T10:48:10Z</time>
      </trkpt>
      <trkpt lat="42.79399" lon="0.59196">
        <ele>648.93</ele>
        <time>2018-08-11T10:48:12Z</time>
      </trkpt>
      <trkpt lat="42.79386" lon="0.59168">
        <ele>647.21</ele>
        <time>2018-08-11T10:48:14Z</time>
      </trkpt>
      <trkpt lat="42.79379" lon="0.59135">
        <ele>645.86</ele>
        <time>2018-08-11T10:48:16Z</time>
      </trkpt>
      <trkpt lat="42.79379" lon="0.59097">
        <ele>644.83</ele>
        <time>2018-08-11T10:48:18Z</time>
      </trkpt>
      <trkpt lat="42.79384" lon="0.59059">
        <ele>645.02</ele>
        <time>2018-08-11T10:48:20Z</time>
      </trkpt>
      <trkpt lat="42.79385" lon="0.59021">
        <ele>646.15</ele>
        <time>2018-08-11T10:48:22Z</time>
      </trkpt>
      <trkpt lat="42.7938" lon="0.58984">
        <ele>646.26</ele>
        <time>2018-08-11T10:48:24Z</time>
      </trkpt>
      <trkpt lat="42.79375" lon="0.58947">
        <ele>646.27</ele>
        <time>2018-08-11T10:48:26Z</time>
      </trkpt>
      <trkpt lat="42.79368" lon="0.5891">
        <ele>645.78</ele>
        <time>2018-08-11T10:48:28Z</time>
      </trkpt>
      <trkpt lat="42.79363" lon="0.58873">
        <ele>645.31</ele>
        <time>2018-08-11T10:48:30Z</time>
      </trkpt>
      <trkpt lat="42.79358" lon="0.58835">
        <ele>645.97</ele>
        <time>2018-08-11T10:48:32Z</time>
      </trkpt>
      <trkpt lat="42.79355" lon="0.58797">
        <ele>646.24</ele>
        <time>2018-08-11T10:48:34Z</time>
      </trkpt>
      <trkpt lat="42.7935" lon="0.5876">
        <ele>647.17</ele>
        <time>2018-08-11T10:48:36Z</time>
      </trkpt>
      <trkpt lat="42.79346" lon="0.58722">
        <ele>647.96</ele>
        <time>2018-08-11T10:48:38Z</time>
      </trkpt>
      <trkpt lat="42.79343" lon="0.58684">
        <ele>649.15</ele>
        <time>2018-08-11T10:48:40Z</time>
      </trkpt>
      <trkpt lat="42.79344" lon="0.58646">
        <ele>649.47</ele>
        <time>2018-08-11T10:48:42Z</time>
      </trkpt>
      <trkpt lat="42.79346" lon="0.58607">
        <ele>649.98</ele>
        <time>2018-08-11T10:48:44Z</time>
      </trkpt>
      <trkpt lat="42.79357" lon="0.58581">
        <ele>648.78</ele>
        <time>2018-08-11T10:48:45Z</time>
      </trkpt>
      <trkpt lat="42.79368" lon="0.58555">
        <ele>649.82</ele>
        <time>2018-08-11T10:48:46Z</time>
      </trkpt>
      <trkpt lat="42.7938" lon="0.58527">
        <ele>651.53</ele>
        <time>2018-08-11T10:48:47Z</time>
      </trkpt>
      <trkpt lat="42.79389" lon="0.58495">
        <ele>652.05</ele>
        <time>2018-08-11T10:48:48Z</time>
      </trkpt>
      <trkpt lat="42.79396" lon="0.58462">
        <ele>652.9</ele>
        <time>2018-08-11T10:48:49Z</time>
      </trkpt>
      <trkpt lat="42.794" lon="0.58428">
        <ele>655.26</ele>
        <time>2018-08-11T10:48:50Z</time>
      </trkpt>
      <trkpt lat="42.79404" lon="0.58395">
        <ele>658.76</ele>
        <time>2018-08-11T10:48:51Z</time>
      </trkpt>
      <trkpt lat="42.79408" lon="0.58362">
        <ele>660.52</ele>
        <time>2018-08-11T10:48:52Z</time>
      </trkpt>
      <trkpt lat="42.79415" lon="0.58329">
        <ele>661.74</ele>
        <time>2018-08-11T10:48:53Z</time>
      </trkpt>
      <trkpt lat="42.79423" lon="0.58298">
        <ele>663.51</ele>
        <time>2018-08-11T10:48:54Z</time>
      </trkpt>
      <trkpt lat="42.79429" lon="0.58268">
        <ele>666.14</ele>
        <time>2018-08-11T10:48:55Z</time>
      </trkpt>
      <trkpt lat="42.79434" lon="0.58238">
        <ele>666.93</ele>
        <time>2018-08-11T10:48:56Z</time>
      </trkpt>
      <trkpt lat="42.79431" lon="0.58204">
        <ele>668.57</ele>
        <time>2018-08-11T10:48:57Z</time>
      </trkpt>
      <trkpt lat="42.79431" lon="0.58173">
        <ele>669.06</ele>
        <time>2018-08-11T10:48:58Z</time>
      </trkpt>
      <trkpt lat="42.79429" lon="0.58141">
        <ele>669.2</ele>
        <time>2018-08-11T10:48:59Z</time>
      </trkpt>
      <trkpt lat="42.79428" lon="0.5811">
        <ele>670.65</ele>
        <time>2018-08-11T10:49:00Z</time>
      </trkpt>
      <trkpt lat="42.7943" lon="0.58079">
        <ele>671.78</ele>
        <time>2018-08-11T10:49:01Z</time>
      </trkpt>
      <trkpt lat="42.79434" lon="0.58046">
        <ele>674.22</ele>
        <time>2018-08-11T10:49:02Z</time>
      </trkpt>
      <trkpt lat="42.79439" lon="0.58016">
        <ele>676.35</ele>
        <time>2018-08-11T10:49:03Z</time>
      </trkpt>
      <trkpt lat="42.79445" lon="0.57985">
        <ele>676.29</ele>
        <time>2018-08-11T10:49:04Z</time>
      </trkpt>
      <trkpt lat="42.79452" lon="0.57957">
        <ele>676.97</ele>
        <time>2018-08-11T10:49:05Z</time>
      </trkpt>
      <trkpt lat="42.79459" lon="0.57929">
        <ele>677.18</ele>
        <time>2018-08-11T10:49:06Z</time>
      </trkpt>
      <trkpt lat="42.79485" lon="0.57894">
        <ele>680.69</ele>
        <time>2018-08-11T10:49:08Z</time>
      </trkpt>
      <trkpt lat="42.795" lon="0.57873">
        <ele>683.19</ele>
        <time>2018-08-11T10:49:09Z</time>
      </trkpt>
      <trkpt lat="42.79516" lon="0.57851">
        <ele>684.65</ele>
        <time>2018-08-11T10:49:10Z</time>
      </trkpt>
      <trkpt lat="42.79528" lon="0.57827">
        <ele>687.18</ele>
        <time>2018-08-11T10:49:11Z</time>
      </trkpt>
      <trkpt lat="42.79541" lon="0.57802">
        <ele>690.74</ele>
        <time>2018-08-11T10:49:12Z</time>
      </trkpt>
      <trkpt lat="42.79554" lon="0.57777">
        <ele>691.81</ele>
        <time>2018-08-11T10:49:13Z</time>
      </trkpt>
      <trkpt lat="42.79566" lon="0.57754">
        <ele>692.83</ele>
        <time>2018-08-11T10:49:14Z</time>
      </trkpt>
      <trkpt lat="42.79577" lon="0.57729">
        <ele>695.24</ele>
        <time>2018-08-11T10:49:15Z</time>
      </trkpt>
      <trkpt lat="42.79585" lon="0.57706">
        <ele>695.96</ele>
        <time>2018-08-11T10:49:16Z</time>
      </trkpt>
      <trkpt lat="42.79594" lon="0.57683">
        <ele>696.87</ele>
        <time>2018-08-11T10:49:17Z</time>
      </trkpt>
      <trkpt lat="42.79599" lon="0.5766">
        <ele>698.55</ele>
        <time>2018-08-11T10:49:18Z</time>
      </trkpt>
      <trkpt lat="42.79596" lon="0.57612">
        <ele>700.11</ele>
        <time>2018-08-11T10:49:20Z</time>
      </trkpt>
      <trkpt lat="42.79591" lon="0.57573">
        <ele>701.16</ele>
        <time>2018-08-11T10:49:22Z</time>
      </trkpt>
      <trkpt lat="42.79595" lon="0.57535">
        <ele>702.87</ele>
        <time>2018-08-11T10:49:24Z</time>
      </trkpt>
      <trkpt lat="42.79605" lon="0.57493">
        <ele>706.66</ele>
        <time>2018-08-11T10:49:26Z</time>
      </trkpt>
      <trkpt lat="42.79614" lon="0.57454">
        <ele>710.43</ele>
        <time>2018-08-11T10:49:28Z</time>
      </trkpt>
      <trkpt lat="42.79622" lon="0.57423">
        <ele>713.71</ele>
        <time>2018-08-11T10:49:30Z</time>
      </trkpt>
      <trkpt lat="42.79632" lon="0.5739">
        <ele>717.23</ele>
        <time>2018-08-11T10:49:32Z</time>
      </trkpt>
      <trkpt lat="42.79642" lon="0.57345">
        <ele>721.39</ele>
        <time>2018-08-11T10:49:34Z</time>
      </trkpt>
      <trkpt lat="42.7965" lon="0.57302">
        <ele>725.41</ele>
        <time>2018-08-11T10:49:36Z</time>
      </trkpt>
      <trkpt lat="42.79655" lon="0.57265">
        <ele>728.71</ele>
        <time>2018-08-11T10:49:38Z</time>
      </trkpt>
      <trkpt lat="42.7966" lon="0.57221">
        <ele>731.74</ele>
        <time>2018-08-11T10:49:40Z</time>
      </trkpt>
      <trkpt lat="42.79656" lon="0.5717">
        <ele>734.74</ele>
        <time>2018-08-11T10:49:42Z</time>
      </trkpt>
      <trkpt lat="42.7965" lon="0.57144">
        <ele>736.51</ele>
        <time>2018-08-11T10:49:43Z</time>
      </trkpt>
      <trkpt lat="42.79643" lon="0.57115">
        <ele>737.74</ele>
        <time>2018-08-11T10:49:44Z</time>
      </trkpt>
      <trkpt lat="42.79636" lon="0.57088">
        <ele>738.81</ele>
        <time>2018-08-11T10:49:45Z</time>
      </trkpt>
      <trkpt lat="42.79629" lon="0.57062">
        <ele>739.83</ele>
        <time>2018-08-11T10:49:46Z</time>
      </trkpt>
      <trkpt lat="42.79625" lon="0.57022">
        <ele>741.84</ele>
        <time>2018-08-11T10:49:48Z</time>
      </trkpt>
      <trkpt lat="42.79637" lon="0.56984">
        <ele>742.44</ele>
        <time>2018-08-11T10:49:50Z</time>
      </trkpt>
      <trkpt lat="42.79649" lon="0.56942">
        <ele>741.37</ele>
        <time>2018-08-11T10:49:52Z</time>
      </trkpt>
      <trkpt lat="42.79663" lon="0.56899">
        <ele>740.37</ele>
        <time>2018-08-11T10:49:54Z</time>
      </trkpt>
      <trkpt lat="42.79679" lon="0.56856">
        <ele>741.19</ele>
        <time>2018-08-11T10:49:56Z</time>
      </trkpt>
      <trkpt lat="42.79689" lon="0.56835">
        <ele>741.94</ele>
        <time>2018-08-11T10:49:57Z</time>
      </trkpt>
      <trkpt lat="42.797" lon="0.56815">
        <ele>742.87</ele>
        <time>2018-08-11T10:49:58Z</time>
      </trkpt>
      <trkpt lat="42.79722" lon="0.56778">
        <ele>744.84</ele>
        <time>2018-08-11T10:50:00Z</time>
      </trkpt>
      <trkpt lat="42.79738" lon="0.5674">
        <ele>745.23</ele>
        <time>2018-08-11T10:50:02Z</time>
      </trkpt>
      <trkpt lat="42.79749" lon="0.56704">
        <ele>746.17</ele>
        <time>2018-08-11T10:50:04Z</time>
      </trkpt>
      <trkpt lat="42.79763" lon="0.56677">
        <ele>748.08</ele>
        <time>2018-08-11T10:50:06Z</time>
      </trkpt>
      <trkpt lat="42.79786" lon="0.56655">
        <ele>749.86</ele>
        <time>2018-08-11T10:50:08Z</time>
      </trkpt>
      <trkpt lat="42.79812" lon="0.56652">
        <ele>751.63</ele>
        <time>2018-08-11T10:50:10Z</time>
      </trkpt>
      <trkpt lat="42.7985" lon="0.56661">
        <ele>752</ele>
        <time>2018-08-11T10:50:12Z</time>
      </trkpt>
      <trkpt lat="42.79868" lon="0.5666">
        <ele>752.89</ele>
        <time>2018-08-11T10:50:13Z</time>
      </trkpt>
      <trkpt lat="42.7989" lon="0.56663">
        <ele>753.15</ele>
        <time>2018-08-11T10:50:14Z</time>
      </trkpt>
      <trkpt lat="42.7991" lon="0.56661">
        <ele>753.23</ele>
        <time>2018-08-11T10:50:15Z</time>
      </trkpt>
      <trkpt lat="42.7993" lon="0.56657">
        <ele>753.26</ele>
        <time>2018-08-11T10:50:16Z</time>
      </trkpt>
      <trkpt lat="42.79948" lon="0.56644">
        <ele>755.36</ele>
        <time>2018-08-11T10:50:17Z</time>
      </trkpt>
      <trkpt lat="42.79962" lon="0.56621">
        <ele>756.7</ele>
        <time>2018-08-11T10:50:18Z</time>
      </trkpt>
      <trkpt lat="42.79982" lon="0.56606">
        <ele>756.4</ele>
        <time>2018-08-11T10:50:19Z</time>
      </trkpt>
      <trkpt lat="42.80001" lon="0.5659">
        <ele>756.31</ele>
        <time>2018-08-11T10:50:20Z</time>
      </trkpt>
      <trkpt lat="42.8002" lon="0.5657">
        <ele>756.28</ele>
        <time>2018-08-11T10:50:21Z</time>
      </trkpt>
      <trkpt lat="42.80039" lon="0.56553">
        <ele>756.27</ele>
        <time>2018-08-11T10:50:22Z</time>
      </trkpt>
      <trkpt lat="42.80061" lon="0.56543">
        <ele>755.57</ele>
        <time>2018-08-11T10:50:23Z</time>
      </trkpt>
      <trkpt lat="42.80082" lon="0.56528">
        <ele>753.96</ele>
        <time>2018-08-11T10:50:24Z</time>
      </trkpt>
      <trkpt lat="42.80103" lon="0.56517">
        <ele>752.77</ele>
        <time>2018-08-11T10:50:25Z</time>
      </trkpt>
      <trkpt lat="42.80122" lon="0.565">
        <ele>752.42</ele>
        <time>2018-08-11T10:50:26Z</time>
      </trkpt>
      <trkpt lat="42.80142" lon="0.56484">
        <ele>753.71</ele>
        <time>2018-08-11T10:50:27Z</time>
      </trkpt>
      <trkpt lat="42.8016" lon="0.56465">
        <ele>754.1</ele>
        <time>2018-08-11T10:50:28Z</time>
      </trkpt>
      <trkpt lat="42.80177" lon="0.56445">
        <ele>754.22</ele>
        <time>2018-08-11T10:50:29Z</time>
      </trkpt>
      <trkpt lat="42.80191" lon="0.56422">
        <ele>754.95</ele>
        <time>2018-08-11T10:50:30Z</time>
      </trkpt>
      <trkpt lat="42.80207" lon="0.56399">
        <ele>754.47</ele>
        <time>2018-08-11T10:50:31Z</time>
      </trkpt>
      <trkpt lat="42.80223" lon="0.56377">
        <ele>755.03</ele>
        <time>2018-08-11T10:50:32Z</time>
      </trkpt>
      <trkpt lat="42.8024" lon="0.56355">
        <ele>755.2</ele>
        <time>2018-08-11T10:50:33Z</time>
      </trkpt>
      <trkpt lat="42.80256" lon="0.56333">
        <ele>755.25</ele>
        <time>2018-08-11T10:50:34Z</time>
      </trkpt>
      <trkpt lat="42.80271" lon="0.56309">
        <ele>755.96</ele>
        <time>2018-08-11T10:50:35Z</time>
      </trkpt>
      <trkpt lat="42.80285" lon="0.56288">
        <ele>756.18</ele>
        <time>2018-08-11T10:50:36Z</time>
      </trkpt>
      <trkpt lat="42.803" lon="0.56268">
        <ele>756.24</ele>
        <time>2018-08-11T10:50:37Z</time>
      </trkpt>
      <trkpt lat="42.80308" lon="0.56242">
        <ele>756.96</ele>
        <time>2018-08-11T10:50:38Z</time>
      </trkpt>
      <trkpt lat="42.80319" lon="0.5622">
        <ele>758.57</ele>
        <time>2018-08-11T10:50:39Z</time>
      </trkpt>
      <trkpt lat="42.80331" lon="0.56199">
        <ele>759.06</ele>
        <time>2018-08-11T10:50:40Z</time>
      </trkpt>
      <trkpt lat="42.8035" lon="0.56164">
        <ele>761.07</ele>
        <time>2018-08-11T10:50:42Z</time>
      </trkpt>
      <trkpt lat="42.80379" lon="0.56176">
        <ele>761.21</ele>
        <time>2018-08-11T10:50:43Z</time>
      </trkpt>
      <trkpt lat="42.80399" lon="0.56173">
        <ele>761.95</ele>
        <time>2018-08-11T10:50:44Z</time>
      </trkpt>
      <trkpt lat="42.80435" lon="0.56161">
        <ele>762.24</ele>
        <time>2018-08-11T10:50:46Z</time>
      </trkpt>
      <trkpt lat="42.80455" lon="0.56151">
        <ele>763.66</ele>
        <time>2018-08-11T10:50:47Z</time>
      </trkpt>
      <trkpt lat="42.80476" lon="0.56145">
        <ele>765.48</ele>
        <time>2018-08-11T10:50:48Z</time>
      </trkpt>
      <trkpt lat="42.80494" lon="0.56132">
        <ele>767.43</ele>
        <time>2018-08-11T10:50:49Z</time>
      </trkpt>
      <trkpt lat="42.80512" lon="0.56122">
        <ele>770.12</ele>
        <time>2018-08-11T10:50:50Z</time>
      </trkpt>
      <trkpt lat="42.80532" lon="0.56114">
        <ele>772.32</ele>
        <time>2018-08-11T10:50:51Z</time>
      </trkpt>
      <trkpt lat="42.8055" lon="0.56105">
        <ele>774.38</ele>
        <time>2018-08-11T10:50:52Z</time>
      </trkpt>
      <trkpt lat="42.80568" lon="0.56099">
        <ele>777.8</ele>
        <time>2018-08-11T10:50:53Z</time>
      </trkpt>
      <trkpt lat="42.80586" lon="0.56095">
        <ele>779.53</ele>
        <time>2018-08-11T10:50:54Z</time>
      </trkpt>
      <trkpt lat="42.80607" lon="0.56097">
        <ele>785.52</ele>
        <time>2018-08-11T10:50:56Z</time>
      </trkpt>
      <trkpt lat="42.8063" lon="0.56089">
        <ele>791.69</ele>
        <time>2018-08-11T10:50:59Z</time>
      </trkpt>
      <trkpt lat="42.80636" lon="0.56054">
        <ele>793.92</ele>
        <time>2018-08-11T10:51:02Z</time>
      </trkpt>
      <trkpt lat="42.80625" lon="0.5603">
        <ele>794.24</ele>
        <time>2018-08-11T10:51:04Z</time>
      </trkpt>
      <trkpt lat="42.80595" lon="0.56015">
        <ele>796.57</ele>
        <time>2018-08-11T10:51:06Z</time>
      </trkpt>
      <trkpt lat="42.80559" lon="0.56004">
        <ele>799.51</ele>
        <time>2018-08-11T10:51:08Z</time>
      </trkpt>
      <trkpt lat="42.80527" lon="0.55998">
        <ele>800.41</ele>
        <time>2018-08-11T10:51:10Z</time>
      </trkpt>
      <trkpt lat="42.80499" lon="0.56004">
        <ele>801.89</ele>
        <time>2018-08-11T10:51:12Z</time>
      </trkpt>
      <trkpt lat="42.80482" lon="0.56018">
        <ele>807.06</ele>
        <time>2018-08-11T10:51:14Z</time>
      </trkpt>
      <trkpt lat="42.80462" lon="0.56014">
        <ele>810.61</ele>
        <time>2018-08-11T10:51:17Z</time>
      </trkpt>
      <trkpt lat="42.80474" lon="0.55989">
        <ele>813.77</ele>
        <time>2018-08-11T10:51:20Z</time>
      </trkpt>
      <trkpt lat="42.805" lon="0.55984">
        <ele>816.53</ele>
        <time>2018-08-11T10:51:22Z</time>
      </trkpt>
      <trkpt lat="42.80528" lon="0.55969">
        <ele>818.81</ele>
        <time>2018-08-11T10:51:24Z</time>
      </trkpt>
      <trkpt lat="42.80557" lon="0.55956">
        <ele>821.05</ele>
        <time>2018-08-11T10:51:26Z</time>
      </trkpt>
      <trkpt lat="42.80577" lon="0.55961">
        <ele>822.6</ele>
        <time>2018-08-11T10:51:27Z</time>
      </trkpt>
      <trkpt lat="42.80609" lon="0.55961">
        <ele>823.21</ele>
        <time>2018-08-11T10:51:29Z</time>
      </trkpt>
      <trkpt lat="42.80634" lon="0.55972">
        <ele>824.66</ele>
        <time>2018-08-11T10:51:31Z</time>
      </trkpt>
      <trkpt lat="42.80654" lon="0.55986">
        <ele>828.43</ele>
        <time>2018-08-11T10:51:33Z</time>
      </trkpt>
      <trkpt lat="42.80674" lon="0.55984">
        <ele>828.49</ele>
        <time>2018-08-11T10:51:35Z</time>
      </trkpt>
      <trkpt lat="42.80683" lon="0.5596">
        <ele>829.18</ele>
        <time>2018-08-11T10:51:38Z</time>
      </trkpt>
      <trkpt lat="42.80655" lon="0.55941">
        <ele>829.96</ele>
        <time>2018-08-11T10:51:40Z</time>
      </trkpt>
      <trkpt lat="42.80625" lon="0.55935">
        <ele>830.87</ele>
        <time>2018-08-11T10:51:41Z</time>
      </trkpt>
      <trkpt lat="42.80608" lon="0.55921">
        <ele>830.45</ele>
        <time>2018-08-11T10:51:42Z</time>
      </trkpt>
      <trkpt lat="42.80588" lon="0.55924">
        <ele>832.42</ele>
        <time>2018-08-11T10:51:43Z</time>
      </trkpt>
      <trkpt lat="42.80564" lon="0.55901">
        <ele>834.1</ele>
        <time>2018-08-11T10:51:45Z</time>
      </trkpt>
      <trkpt lat="42.80561" lon="0.55876">
        <ele>836.32</ele>
        <time>2018-08-11T10:51:46Z</time>
      </trkpt>
      <trkpt lat="42.80561" lon="0.55834">
        <ele>840.61</ele>
        <time>2018-08-11T10:51:48Z</time>
      </trkpt>
      <trkpt lat="42.80573" lon="0.55789">
        <ele>844.64</ele>
        <time>2018-08-11T10:51:50Z</time>
      </trkpt>
      <trkpt lat="42.8058" lon="0.55765">
        <ele>846.48</ele>
        <time>2018-08-11T10:51:51Z</time>
      </trkpt>
      <trkpt lat="42.80586" lon="0.55742">
        <ele>849.13</ele>
        <time>2018-08-11T10:51:52Z</time>
      </trkpt>
      <trkpt lat="42.80593" lon="0.55718">
        <ele>851.33</ele>
        <time>2018-08-11T10:51:53Z</time>
      </trkpt>
      <trkpt lat="42.80598" lon="0.55694">
        <ele>853.38</ele>
        <time>2018-08-11T10:51:54Z</time>
      </trkpt>
      <trkpt lat="42.80604" lon="0.55647">
        <ele>858.11</ele>
        <time>2018-08-11T10:51:56Z</time>
      </trkpt>
      <trkpt lat="42.80611" lon="0.55599">
        <ele>863.08</ele>
        <time>2018-08-11T10:51:58Z</time>
      </trkpt>
      <trkpt lat="42.80615" lon="0.55575">
        <ele>865.31</ele>
        <time>2018-08-11T10:51:59Z</time>
      </trkpt>
      <trkpt lat="42.80617" lon="0.55549">
        <ele>866.68</ele>
        <time>2018-08-11T10:52:00Z</time>
      </trkpt>
      <trkpt lat="42.80617" lon="0.55522">
        <ele>869.19</ele>
        <time>2018-08-11T10:52:01Z</time>
      </trkpt>
      <trkpt lat="42.80616" lon="0.55495">
        <ele>868.54</ele>
        <time>2018-08-11T10:52:02Z</time>
      </trkpt>
      <trkpt lat="42.80616" lon="0.55468">
        <ele>869.05</ele>
        <time>2018-08-11T10:52:03Z</time>
      </trkpt>
      <trkpt lat="42.80614" lon="0.55441">
        <ele>869.9</ele>
        <time>2018-08-11T10:52:04Z</time>
      </trkpt>
      <trkpt lat="42.80613" lon="0.55413">
        <ele>871.56</ele>
        <time>2018-08-11T10:52:05Z</time>
      </trkpt>
      <trkpt lat="42.80609" lon="0.55385">
        <ele>872.05</ele>
        <time>2018-08-11T10:52:06Z</time>
      </trkpt>
      <trkpt lat="42.80606" lon="0.55357">
        <ele>872.2</ele>
        <time>2018-08-11T10:52:07Z</time>
      </trkpt>
      <trkpt lat="42.80602" lon="0.55328">
        <ele>873.65</ele>
        <time>2018-08-11T10:52:08Z</time>
      </trkpt>
      <trkpt lat="42.806" lon="0.55301">
        <ele>875.48</ele>
        <time>2018-08-11T10:52:09Z</time>
      </trkpt>
      <trkpt lat="42.806" lon="0.55274">
        <ele>877.43</ele>
        <time>2018-08-11T10:52:10Z</time>
      </trkpt>
      <trkpt lat="42.80601" lon="0.55249">
        <ele>879.42</ele>
        <time>2018-08-11T10:52:11Z</time>
      </trkpt>
      <trkpt lat="42.80602" lon="0.55225">
        <ele>882.11</ele>
        <time>2018-08-11T10:52:12Z</time>
      </trkpt>
      <trkpt lat="42.80608" lon="0.55183">
        <ele>885.26</ele>
        <time>2018-08-11T10:52:14Z</time>
      </trkpt>
      <trkpt lat="42.80615" lon="0.55142">
        <ele>888</ele>
        <time>2018-08-11T10:52:16Z</time>
      </trkpt>
      <trkpt lat="42.8062" lon="0.551">
        <ele>890.55</ele>
        <time>2018-08-11T10:52:18Z</time>
      </trkpt>
      <trkpt lat="42.80623" lon="0.55062">
        <ele>892.81</ele>
        <time>2018-08-11T10:52:20Z</time>
      </trkpt>
      <trkpt lat="42.80628" lon="0.55029">
        <ele>894.63</ele>
        <time>2018-08-11T10:52:22Z</time>
      </trkpt>
      <trkpt lat="42.80634" lon="0.55001">
        <ele>898.64</ele>
        <time>2018-08-11T10:52:24Z</time>
      </trkpt>
      <trkpt lat="42.80636" lon="0.5497">
        <ele>900.82</ele>
        <time>2018-08-11T10:52:26Z</time>
      </trkpt>
      <trkpt lat="42.80636" lon="0.54936">
        <ele>903.54</ele>
        <time>2018-08-11T10:52:28Z</time>
      </trkpt>
      <trkpt lat="42.80634" lon="0.54903">
        <ele>904.9</ele>
        <time>2018-08-11T10:52:30Z</time>
      </trkpt>
      <trkpt lat="42.80635" lon="0.5487">
        <ele>908.66</ele>
        <time>2018-08-11T10:52:32Z</time>
      </trkpt>
      <trkpt lat="42.80638" lon="0.54835">
        <ele>912.43</ele>
        <time>2018-08-11T10:52:34Z</time>
      </trkpt>
      <trkpt lat="42.80648" lon="0.54804">
        <ele>915.71</ele>
        <time>2018-08-11T10:52:36Z</time>
      </trkpt>
      <trkpt lat="42.80655" lon="0.54772">
        <ele>918.53</ele>
        <time>2018-08-11T10:52:38Z</time>
      </trkpt>
      <trkpt lat="42.8066" lon="0.5474">
        <ele>921.72</ele>
        <time>2018-08-11T10:52:40Z</time>
      </trkpt>
      <trkpt lat="42.80666" lon="0.54707">
        <ele>922.92</ele>
        <time>2018-08-11T10:52:42Z</time>
      </trkpt>
      <trkpt lat="42.80665" lon="0.54672">
        <ele>925.34</ele>
        <time>2018-08-11T10:52:44Z</time>
      </trkpt>
      <trkpt lat="42.8066" lon="0.54641">
        <ele>930.31</ele>
        <time>2018-08-11T10:52:46Z</time>
      </trkpt>
      <trkpt lat="42.80658" lon="0.5461">
        <ele>930.27</ele>
        <time>2018-08-11T10:52:48Z</time>
      </trkpt>
      <trkpt lat="42.80653" lon="0.54575">
        <ele>930.06</ele>
        <time>2018-08-11T10:52:50Z</time>
      </trkpt>
      <trkpt lat="42.8065" lon="0.54538">
        <ele>932.77</ele>
        <time>2018-08-11T10:52:52Z</time>
      </trkpt>
      <trkpt lat="42.80651" lon="0.545">
        <ele>935.53</ele>
        <time>2018-08-11T10:52:54Z</time>
      </trkpt>
      <trkpt lat="42.80653" lon="0.54462">
        <ele>938.51</ele>
        <time>2018-08-11T10:52:56Z</time>
      </trkpt>
      <trkpt lat="42.8065" lon="0.54422">
        <ele>939.9</ele>
        <time>2018-08-11T10:52:58Z</time>
      </trkpt>
      <trkpt lat="42.80641" lon="0.54385">
        <ele>941.63</ele>
        <time>2018-08-11T10:53:00Z</time>
      </trkpt>
      <trkpt lat="42.80633" lon="0.54345">
        <ele>940.6</ele>
        <time>2018-08-11T10:53:02Z</time>
      </trkpt>
      <trkpt lat="42.80625" lon="0.543">
        <ele>941</ele>
        <time>2018-08-11T10:53:04Z</time>
      </trkpt>
      <trkpt lat="42.80624" lon="0.54253">
        <ele>943.76</ele>
        <time>2018-08-11T10:53:06Z</time>
      </trkpt>
      <trkpt lat="42.80624" lon="0.54226">
        <ele>944.12</ele>
        <time>2018-08-11T10:53:07Z</time>
      </trkpt>
      <trkpt lat="42.80624" lon="0.54199">
        <ele>944.92</ele>
        <time>2018-08-11T10:53:08Z</time>
      </trkpt>
      <trkpt lat="42.80623" lon="0.54172">
        <ele>943.76</ele>
        <time>2018-08-11T10:53:09Z</time>
      </trkpt>
      <trkpt lat="42.80624" lon="0.54143">
        <ele>944.12</ele>
        <time>2018-08-11T10:53:10Z</time>
      </trkpt>
      <trkpt lat="42.80624" lon="0.54113">
        <ele>945.62</ele>
        <time>2018-08-11T10:53:11Z</time>
      </trkpt>
      <trkpt lat="42.80626" lon="0.54084">
        <ele>947.47</ele>
        <time>2018-08-11T10:53:12Z</time>
      </trkpt>
      <trkpt lat="42.80629" lon="0.54053">
        <ele>950.13</ele>
        <time>2018-08-11T10:53:13Z</time>
      </trkpt>
      <trkpt lat="42.80633" lon="0.54022">
        <ele>952.33</ele>
        <time>2018-08-11T10:53:14Z</time>
      </trkpt>
      <trkpt lat="42.80636" lon="0.53991">
        <ele>952.98</ele>
        <time>2018-08-11T10:53:15Z</time>
      </trkpt>
      <trkpt lat="42.8064" lon="0.5396">
        <ele>953.18</ele>
        <time>2018-08-11T10:53:16Z</time>
      </trkpt>
      <trkpt lat="42.80644" lon="0.53929">
        <ele>954.64</ele>
        <time>2018-08-11T10:53:17Z</time>
      </trkpt>
      <trkpt lat="42.80648" lon="0.53897">
        <ele>955.08</ele>
        <time>2018-08-11T10:53:18Z</time>
      </trkpt>
      <trkpt lat="42.80652" lon="0.53868">
        <ele>955.91</ele>
        <time>2018-08-11T10:53:19Z</time>
      </trkpt>
      <trkpt lat="42.80656" lon="0.53838">
        <ele>955.46</ele>
        <time>2018-08-11T10:53:20Z</time>
      </trkpt>
      <trkpt lat="42.8066" lon="0.53809">
        <ele>956.02</ele>
        <time>2018-08-11T10:53:21Z</time>
      </trkpt>
      <trkpt lat="42.80663" lon="0.53781">
        <ele>956.89</ele>
        <time>2018-08-11T10:53:22Z</time>
      </trkpt>
      <trkpt lat="42.80665" lon="0.53752">
        <ele>958.56</ele>
        <time>2018-08-11T10:53:23Z</time>
      </trkpt>
      <trkpt lat="42.80666" lon="0.53724">
        <ele>960.45</ele>
        <time>2018-08-11T10:53:24Z</time>
      </trkpt>
      <trkpt lat="42.80666" lon="0.53696">
        <ele>962.42</ele>
        <time>2018-08-11T10:53:25Z</time>
      </trkpt>
      <trkpt lat="42.80665" lon="0.53669">
        <ele>963.01</ele>
        <time>2018-08-11T10:53:26Z</time>
      </trkpt>
      <trkpt lat="42.80663" lon="0.53641">
        <ele>963.89</ele>
        <time>2018-08-11T10:53:27Z</time>
      </trkpt>
      <trkpt lat="42.80663" lon="0.53614">
        <ele>963.45</ele>
        <time>2018-08-11T10:53:28Z</time>
      </trkpt>
      <trkpt lat="42.80664" lon="0.53588">
        <ele>964.02</ele>
        <time>2018-08-11T10:53:29Z</time>
      </trkpt>
      <trkpt lat="42.80667" lon="0.53563">
        <ele>964.89</ele>
        <time>2018-08-11T10:53:30Z</time>
      </trkpt>
      <trkpt lat="42.80676" lon="0.53517">
        <ele>967.54</ele>
        <time>2018-08-11T10:53:32Z</time>
      </trkpt>
      <trkpt lat="42.80685" lon="0.53473">
        <ele>968.9</ele>
        <time>2018-08-11T10:53:34Z</time>
      </trkpt>
      <trkpt lat="42.80691" lon="0.53428">
        <ele>970.14</ele>
        <time>2018-08-11T10:53:36Z</time>
      </trkpt>
      <trkpt lat="42.80687" lon="0.53391">
        <ele>972.08</ele>
        <time>2018-08-11T10:53:38Z</time>
      </trkpt>
      <trkpt lat="42.80684" lon="0.53355">
        <ele>975.68</ele>
        <time>2018-08-11T10:53:40Z</time>
      </trkpt>
      <trkpt lat="42.80683" lon="0.5332">
        <ele>978.52</ele>
        <time>2018-08-11T10:53:42Z</time>
      </trkpt>
      <trkpt lat="42.80689" lon="0.53286">
        <ele>978.99</ele>
        <time>2018-08-11T10:53:44Z</time>
      </trkpt>
      <trkpt lat="42.80699" lon="0.53251">
        <ele>981.06</ele>
        <time>2018-08-11T10:53:46Z</time>
      </trkpt>
      <trkpt lat="42.80708" lon="0.53205">
        <ele>984.47</ele>
        <time>2018-08-11T10:53:48Z</time>
      </trkpt>
      <trkpt lat="42.80712" lon="0.5318">
        <ele>985.03</ele>
        <time>2018-08-11T10:53:49Z</time>
      </trkpt>
      <trkpt lat="42.80718" lon="0.53154">
        <ele>986.6</ele>
        <time>2018-08-11T10:53:50Z</time>
      </trkpt>
      <trkpt lat="42.80729" lon="0.53113">
        <ele>989.52</ele>
        <time>2018-08-11T10:53:52Z</time>
      </trkpt>
      <trkpt lat="42.80737" lon="0.53079">
        <ele>992.51</ele>
        <time>2018-08-11T10:53:54Z</time>
      </trkpt>
      <trkpt lat="42.80741" lon="0.53041">
        <ele>995.93</ele>
        <time>2018-08-11T10:53:56Z</time>
      </trkpt>
      <trkpt lat="42.80742" lon="0.52998">
        <ele>997.85</ele>
        <time>2018-08-11T10:53:58Z</time>
      </trkpt>
      <trkpt lat="42.80738" lon="0.52971">
        <ele>1000.24</ele>
        <time>2018-08-11T10:53:59Z</time>
      </trkpt>
      <trkpt lat="42.80733" lon="0.52944">
        <ele>1001.66</ele>
        <time>2018-08-11T10:54:00Z</time>
      </trkpt>
      <trkpt lat="42.80727" lon="0.52917">
        <ele>1002.08</ele>
        <time>2018-08-11T10:54:01Z</time>
      </trkpt>
      <trkpt lat="42.8072" lon="0.52893">
        <ele>1002.91</ele>
        <time>2018-08-11T10:54:02Z</time>
      </trkpt>
      <trkpt lat="42.8071" lon="0.52868">
        <ele>1004.56</ele>
        <time>2018-08-11T10:54:03Z</time>
      </trkpt>
      <trkpt lat="42.807" lon="0.52844">
        <ele>1006.46</ele>
        <time>2018-08-11T10:54:04Z</time>
      </trkpt>
      <trkpt lat="42.80691" lon="0.52821">
        <ele>1009.82</ele>
        <time>2018-08-11T10:54:05Z</time>
      </trkpt>
      <trkpt lat="42.80681" lon="0.52796">
        <ele>1012.23</ele>
        <time>2018-08-11T10:54:06Z</time>
      </trkpt>
      <trkpt lat="42.80672" lon="0.52771">
        <ele>1014.36</ele>
        <time>2018-08-11T10:54:07Z</time>
      </trkpt>
      <trkpt lat="42.80663" lon="0.52745">
        <ele>1014.99</ele>
        <time>2018-08-11T10:54:08Z</time>
      </trkpt>
      <trkpt lat="42.80656" lon="0.52719">
        <ele>1017.99</ele>
        <time>2018-08-11T10:54:09Z</time>
      </trkpt>
      <trkpt lat="42.80649" lon="0.52693">
        <ele>1018.88</ele>
        <time>2018-08-11T10:54:10Z</time>
      </trkpt>
      <trkpt lat="42.80642" lon="0.52664">
        <ele>1019.15</ele>
        <time>2018-08-11T10:54:11Z</time>
      </trkpt>
      <trkpt lat="42.80637" lon="0.52636">
        <ele>1020.63</ele>
        <time>2018-08-11T10:54:12Z</time>
      </trkpt>
      <trkpt lat="42.80631" lon="0.5261">
        <ele>1021.78</ele>
        <time>2018-08-11T10:54:13Z</time>
      </trkpt>
      <trkpt lat="42.80625" lon="0.52582">
        <ele>1022.82</ele>
        <time>2018-08-11T10:54:14Z</time>
      </trkpt>
      <trkpt lat="42.8062" lon="0.52555">
        <ele>1024.53</ele>
        <time>2018-08-11T10:54:15Z</time>
      </trkpt>
      <trkpt lat="42.80615" lon="0.52529">
        <ele>1025.75</ele>
        <time>2018-08-11T10:54:16Z</time>
      </trkpt>
      <trkpt lat="42.80609" lon="0.525">
        <ele>1026.81</ele>
        <time>2018-08-11T10:54:17Z</time>
      </trkpt>
      <trkpt lat="42.80606" lon="0.5247">
        <ele>1027.83</ele>
        <time>2018-08-11T10:54:18Z</time>
      </trkpt>
      <trkpt lat="42.80605" lon="0.5244">
        <ele>1028.84</ele>
        <time>2018-08-11T10:54:19Z</time>
      </trkpt>
      <trkpt lat="42.80606" lon="0.5241">
        <ele>1031.94</ele>
        <time>2018-08-11T10:54:20Z</time>
      </trkpt>
      <trkpt lat="42.80605" lon="0.52378">
        <ele>1034.27</ele>
        <time>2018-08-11T10:54:21Z</time>
      </trkpt>
      <trkpt lat="42.80605" lon="0.52347">
        <ele>1035.67</ele>
        <time>2018-08-11T10:54:22Z</time>
      </trkpt>
      <trkpt lat="42.80604" lon="0.52316">
        <ele>1036.79</ele>
        <time>2018-08-11T10:54:23Z</time>
      </trkpt>
      <trkpt lat="42.80601" lon="0.52284">
        <ele>1037.82</ele>
        <time>2018-08-11T10:54:24Z</time>
      </trkpt>
      <trkpt lat="42.80598" lon="0.52255">
        <ele>1039.53</ele>
        <time>2018-08-11T10:54:25Z</time>
      </trkpt>
      <trkpt lat="42.80596" lon="0.52225">
        <ele>1041.45</ele>
        <time>2018-08-11T10:54:26Z</time>
      </trkpt>
      <trkpt lat="42.80595" lon="0.52195">
        <ele>1042.72</ele>
        <time>2018-08-11T10:54:27Z</time>
      </trkpt>
      <trkpt lat="42.80597" lon="0.52166">
        <ele>1043.8</ele>
        <time>2018-08-11T10:54:28Z</time>
      </trkpt>
      <trkpt lat="42.80603" lon="0.52141">
        <ele>1044.83</ele>
        <time>2018-08-11T10:54:29Z</time>
      </trkpt>
      <trkpt lat="42.80617" lon="0.52118">
        <ele>1046.54</ele>
        <time>2018-08-11T10:54:30Z</time>
      </trkpt>
      <trkpt lat="42.8063" lon="0.52094">
        <ele>1050.55</ele>
        <time>2018-08-11T10:54:31Z</time>
      </trkpt>
      <trkpt lat="42.80639" lon="0.52067">
        <ele>1055.25</ele>
        <time>2018-08-11T10:54:32Z</time>
      </trkpt>
      <trkpt lat="42.80647" lon="0.5204">
        <ele>1058.76</ele>
        <time>2018-08-11T10:54:33Z</time>
      </trkpt>
      <trkpt lat="42.80656" lon="0.52014">
        <ele>1061.22</ele>
        <time>2018-08-11T10:54:34Z</time>
      </trkpt>
      <trkpt lat="42.80668" lon="0.51994">
        <ele>1063.35</ele>
        <time>2018-08-11T10:54:35Z</time>
      </trkpt>
      <trkpt lat="42.80682" lon="0.51976">
        <ele>1066.79</ele>
        <time>2018-08-11T10:54:36Z</time>
      </trkpt>
      <trkpt lat="42.80698" lon="0.51963">
        <ele>1069.22</ele>
        <time>2018-08-11T10:54:37Z</time>
      </trkpt>
      <trkpt lat="42.80715" lon="0.51955">
        <ele>1071.35</ele>
        <time>2018-08-11T10:54:38Z</time>
      </trkpt>
      <trkpt lat="42.80734" lon="0.5195">
        <ele>1073.39</ele>
        <time>2018-08-11T10:54:39Z</time>
      </trkpt>
      <trkpt lat="42.80754" lon="0.51946">
        <ele>1074</ele>
        <time>2018-08-11T10:54:40Z</time>
      </trkpt>
      <trkpt lat="42.80772" lon="0.51944">
        <ele>1074.19</ele>
        <time>2018-08-11T10:54:41Z</time>
      </trkpt>
      <trkpt lat="42.80791" lon="0.51945">
        <ele>1074.94</ele>
        <time>2018-08-11T10:54:42Z</time>
      </trkpt>
      <trkpt lat="42.80824" lon="0.51943">
        <ele>1076.85</ele>
        <time>2018-08-11T10:54:44Z</time>
      </trkpt>
      <trkpt lat="42.80855" lon="0.51929">
        <ele>1074.92</ele>
        <time>2018-08-11T10:54:46Z</time>
      </trkpt>
      <trkpt lat="42.80864" lon="0.51901">
        <ele>1077.34</ele>
        <time>2018-08-11T10:54:48Z</time>
      </trkpt>
      <trkpt lat="42.80874" lon="0.51878">
        <ele>1077.69</ele>
        <time>2018-08-11T10:54:50Z</time>
      </trkpt>
      <trkpt lat="42.80882" lon="0.5185">
        <ele>1080.53</ele>
        <time>2018-08-11T10:54:52Z</time>
      </trkpt>
      <trkpt lat="42.80885" lon="0.51814">
        <ele>1084.42</ele>
        <time>2018-08-11T10:54:54Z</time>
      </trkpt>
      <trkpt lat="42.80889" lon="0.51776">
        <ele>1086.8</ele>
        <time>2018-08-11T10:54:56Z</time>
      </trkpt>
      <trkpt lat="42.8089" lon="0.51737">
        <ele>1092.06</ele>
        <time>2018-08-11T10:54:58Z</time>
      </trkpt>
      <trkpt lat="42.80888" lon="0.51697">
        <ele>1095.68</ele>
        <time>2018-08-11T10:55:00Z</time>
      </trkpt>
      <trkpt lat="42.80883" lon="0.51655">
        <ele>1099.43</ele>
        <time>2018-08-11T10:55:02Z</time>
      </trkpt>
      <trkpt lat="42.80878" lon="0.51612">
        <ele>1102.5</ele>
        <time>2018-08-11T10:55:04Z</time>
      </trkpt>
      <trkpt lat="42.80875" lon="0.51569">
        <ele>1103.2</ele>
        <time>2018-08-11T10:55:06Z</time>
      </trkpt>
      <trkpt lat="42.80871" lon="0.51531">
        <ele>1104.17</ele>
        <time>2018-08-11T10:55:08Z</time>
      </trkpt>
      <trkpt lat="42.80863" lon="0.51503">
        <ele>1102.65</ele>
        <time>2018-08-11T10:55:10Z</time>
      </trkpt>
      <trkpt lat="42.80838" lon="0.51493">
        <ele>1104.61</ele>
        <time>2018-08-11T10:55:12Z</time>
      </trkpt>
      <trkpt lat="42.80813" lon="0.51473">
        <ele>1105.91</ele>
        <time>2018-08-11T10:55:14Z</time>
      </trkpt>
      <trkpt lat="42.80804" lon="0.51438">
        <ele>1110.36</ele>
        <time>2018-08-11T10:55:16Z</time>
      </trkpt>
      <trkpt lat="42.80811" lon="0.51409">
        <ele>1112.4</ele>
        <time>2018-08-11T10:55:17Z</time>
      </trkpt>
      <trkpt lat="42.80813" lon="0.51384">
        <ele>1113.71</ele>
        <time>2018-08-11T10:55:18Z</time>
      </trkpt>
      <trkpt lat="42.80814" lon="0.51359">
        <ele>1116.2</ele>
        <time>2018-08-11T10:55:19Z</time>
      </trkpt>
      <trkpt lat="42.80817" lon="0.51332">
        <ele>1118.35</ele>
        <time>2018-08-11T10:55:20Z</time>
      </trkpt>
      <trkpt lat="42.8082" lon="0.51306">
        <ele>1121.09</ele>
        <time>2018-08-11T10:55:21Z</time>
      </trkpt>
      <trkpt lat="42.80823" lon="0.5128">
        <ele>1123.31</ele>
        <time>2018-08-11T10:55:22Z</time>
      </trkpt>
      <trkpt lat="42.80825" lon="0.51255">
        <ele>1126.08</ele>
        <time>2018-08-11T10:55:23Z</time>
      </trkpt>
      <trkpt lat="42.80826" lon="0.5123">
        <ele>1127.61</ele>
        <time>2018-08-11T10:55:24Z</time>
      </trkpt>
      <trkpt lat="42.80825" lon="0.51204">
        <ele>1129.47</ele>
        <time>2018-08-11T10:55:25Z</time>
      </trkpt>
      <trkpt lat="42.8082" lon="0.51178">
        <ele>1131.43</ele>
        <time>2018-08-11T10:55:26Z</time>
      </trkpt>
      <trkpt lat="42.80815" lon="0.51153">
        <ele>1134.12</ele>
        <time>2018-08-11T10:55:27Z</time>
      </trkpt>
      <trkpt lat="42.80811" lon="0.51126">
        <ele>1136.32</ele>
        <time>2018-08-11T10:55:28Z</time>
      </trkpt>
      <trkpt lat="42.80807" lon="0.51098">
        <ele>1137.68</ele>
        <time>2018-08-11T10:55:29Z</time>
      </trkpt>
      <trkpt lat="42.80803" lon="0.51072">
        <ele>1140.19</ele>
        <time>2018-08-11T10:55:30Z</time>
      </trkpt>
      <trkpt lat="42.80797" lon="0.51046">
        <ele>1142.34</ele>
        <time>2018-08-11T10:55:31Z</time>
      </trkpt>
      <trkpt lat="42.8079" lon="0.51019">
        <ele>1144.39</ele>
        <time>2018-08-11T10:55:32Z</time>
      </trkpt>
      <trkpt lat="42.80783" lon="0.50992">
        <ele>1146.4</ele>
        <time>2018-08-11T10:55:33Z</time>
      </trkpt>
      <trkpt lat="42.80775" lon="0.50965">
        <ele>1148.41</ele>
        <time>2018-08-11T10:55:34Z</time>
      </trkpt>
      <trkpt lat="42.80768" lon="0.50938">
        <ele>1150.41</ele>
        <time>2018-08-11T10:55:35Z</time>
      </trkpt>
      <trkpt lat="42.80761" lon="0.50911">
        <ele>1151.71</ele>
        <time>2018-08-11T10:55:36Z</time>
      </trkpt>
      <trkpt lat="42.80755" lon="0.50885">
        <ele>1154.2</ele>
        <time>2018-08-11T10:55:37Z</time>
      </trkpt>
      <trkpt lat="42.80748" lon="0.50859">
        <ele>1155.65</ele>
        <time>2018-08-11T10:55:38Z</time>
      </trkpt>
      <trkpt lat="42.80741" lon="0.50833">
        <ele>1157.48</ele>
        <time>2018-08-11T10:55:39Z</time>
      </trkpt>
      <trkpt lat="42.80735" lon="0.50807">
        <ele>1159.43</ele>
        <time>2018-08-11T10:55:40Z</time>
      </trkpt>
      <trkpt lat="42.80729" lon="0.50781">
        <ele>1160.02</ele>
        <time>2018-08-11T10:55:41Z</time>
      </trkpt>
      <trkpt lat="42.80722" lon="0.50753">
        <ele>1162.29</ele>
        <time>2018-08-11T10:55:42Z</time>
      </trkpt>
      <trkpt lat="42.80716" lon="0.50726">
        <ele>1163.67</ele>
        <time>2018-08-11T10:55:43Z</time>
      </trkpt>
      <trkpt lat="42.80712" lon="0.50697">
        <ele>1164.79</ele>
        <time>2018-08-11T10:55:44Z</time>
      </trkpt>
      <trkpt lat="42.80708" lon="0.50666">
        <ele>1167.22</ele>
        <time>2018-08-11T10:55:45Z</time>
      </trkpt>
      <trkpt lat="42.80704" lon="0.50636">
        <ele>1168.65</ele>
        <time>2018-08-11T10:55:46Z</time>
      </trkpt>
      <trkpt lat="42.80701" lon="0.50606">
        <ele>1169.78</ele>
        <time>2018-08-11T10:55:47Z</time>
      </trkpt>
      <trkpt lat="42.80698" lon="0.50577">
        <ele>1170.82</ele>
        <time>2018-08-11T10:55:48Z</time>
      </trkpt>
      <trkpt lat="42.80694" lon="0.50551">
        <ele>1172.53</ele>
        <time>2018-08-11T10:55:49Z</time>
      </trkpt>
      <trkpt lat="42.8069" lon="0.50526">
        <ele>1175.15</ele>
        <time>2018-08-11T10:55:50Z</time>
      </trkpt>
      <trkpt lat="42.80678" lon="0.50483">
        <ele>1176.87</ele>
        <time>2018-08-11T10:55:52Z</time>
      </trkpt>
      <trkpt lat="42.80679" lon="0.50442">
        <ele>1178.63</ele>
        <time>2018-08-11T10:55:54Z</time>
      </trkpt>
      <trkpt lat="42.80675" lon="0.50397">
        <ele>1182.22</ele>
        <time>2018-08-11T10:55:56Z</time>
      </trkpt>
      <trkpt lat="42.80657" lon="0.50355">
        <ele>1185.27</ele>
        <time>2018-08-11T10:55:58Z</time>
      </trkpt>
      <trkpt lat="42.80633" lon="0.50319">
        <ele>1187.79</ele>
        <time>2018-08-11T10:56:00Z</time>
      </trkpt>
      <trkpt lat="42.80617" lon="0.50302">
        <ele>1188.82</ele>
        <time>2018-08-11T10:56:01Z</time>
      </trkpt>
      <trkpt lat="42.80602" lon="0.50287">
        <ele>1190.53</ele>
        <time>2018-08-11T10:56:02Z</time>
      </trkpt>
      <trkpt lat="42.80584" lon="0.5027">
        <ele>1191.05</ele>
        <time>2018-08-11T10:56:03Z</time>
      </trkpt>
      <trkpt lat="42.80569" lon="0.50256">
        <ele>1191.9</ele>
        <time>2018-08-11T10:56:04Z</time>
      </trkpt>
      <trkpt lat="42.80542" lon="0.5023">
        <ele>1193.84</ele>
        <time>2018-08-11T10:56:06Z</time>
      </trkpt>
      <trkpt lat="42.80537" lon="0.50182">
        <ele>1197.45</ele>
        <time>2018-08-11T10:56:08Z</time>
      </trkpt>
      <trkpt lat="42.80559" lon="0.50135">
        <ele>1199.1</ele>
        <time>2018-08-11T10:56:10Z</time>
      </trkpt>
      <trkpt lat="42.80575" lon="0.50112">
        <ele>1200.62</ele>
        <time>2018-08-11T10:56:11Z</time>
      </trkpt>
      <trkpt lat="42.80586" lon="0.50088">
        <ele>1202.47</ele>
        <time>2018-08-11T10:56:12Z</time>
      </trkpt>
      <trkpt lat="42.80598" lon="0.50063">
        <ele>1203.73</ele>
        <time>2018-08-11T10:56:13Z</time>
      </trkpt>
      <trkpt lat="42.80608" lon="0.50038">
        <ele>1204.81</ele>
        <time>2018-08-11T10:56:14Z</time>
      </trkpt>
      <trkpt lat="42.8062" lon="0.50014">
        <ele>1206.53</ele>
        <time>2018-08-11T10:56:15Z</time>
      </trkpt>
      <trkpt lat="42.8063" lon="0.49991">
        <ele>1208.45</ele>
        <time>2018-08-11T10:56:16Z</time>
      </trkpt>
      <trkpt lat="42.80641" lon="0.49969">
        <ele>1210.42</ele>
        <time>2018-08-11T10:56:17Z</time>
      </trkpt>
      <trkpt lat="42.80657" lon="0.49933">
        <ele>1213.71</ele>
        <time>2018-08-11T10:56:19Z</time>
      </trkpt>
      <trkpt lat="42.80666" lon="0.49891">
        <ele>1218.14</ele>
        <time>2018-08-11T10:56:21Z</time>
      </trkpt>
      <trkpt lat="42.80666" lon="0.49866">
        <ele>1220.33</ele>
        <time>2018-08-11T10:56:22Z</time>
      </trkpt>
      <trkpt lat="42.80666" lon="0.49841">
        <ele>1222.39</ele>
        <time>2018-08-11T10:56:23Z</time>
      </trkpt>
      <trkpt lat="42.80667" lon="0.49816">
        <ele>1225.1</ele>
        <time>2018-08-11T10:56:24Z</time>
      </trkpt>
      <trkpt lat="42.8066" lon="0.49771">
        <ele>1229.17</ele>
        <time>2018-08-11T10:56:26Z</time>
      </trkpt>
      <trkpt lat="42.80651" lon="0.49749">
        <ele>1230.64</ele>
        <time>2018-08-11T10:56:27Z</time>
      </trkpt>
      <trkpt lat="42.80641" lon="0.49727">
        <ele>1232.48</ele>
        <time>2018-08-11T10:56:28Z</time>
      </trkpt>
      <trkpt lat="42.8063" lon="0.49681">
        <ele>1237.33</ele>
        <time>2018-08-11T10:56:30Z</time>
      </trkpt>
      <trkpt lat="42.80627" lon="0.49656">
        <ele>1239.38</ele>
        <time>2018-08-11T10:56:31Z</time>
      </trkpt>
      <trkpt lat="42.80631" lon="0.49628">
        <ele>1241.4</ele>
        <time>2018-08-11T10:56:32Z</time>
      </trkpt>
      <trkpt lat="42.80634" lon="0.49599">
        <ele>1243.41</ele>
        <time>2018-08-11T10:56:33Z</time>
      </trkpt>
      <trkpt lat="42.80636" lon="0.49569">
        <ele>1245.41</ele>
        <time>2018-08-11T10:56:34Z</time>
      </trkpt>
      <trkpt lat="42.80638" lon="0.49538">
        <ele>1247.41</ele>
        <time>2018-08-11T10:56:35Z</time>
      </trkpt>
      <trkpt lat="42.80642" lon="0.49506">
        <ele>1249.41</ele>
        <time>2018-08-11T10:56:36Z</time>
      </trkpt>
      <trkpt lat="42.80649" lon="0.49473">
        <ele>1252.11</ele>
        <time>2018-08-11T10:56:37Z</time>
      </trkpt>
      <trkpt lat="42.80657" lon="0.49439">
        <ele>1255.02</ele>
        <time>2018-08-11T10:56:38Z</time>
      </trkpt>
      <trkpt lat="42.80663" lon="0.49402">
        <ele>1257.99</ele>
        <time>2018-08-11T10:56:39Z</time>
      </trkpt>
      <trkpt lat="42.80669" lon="0.49364">
        <ele>1260.28</ele>
        <time>2018-08-11T10:56:40Z</time>
      </trkpt>
      <trkpt lat="42.80675" lon="0.49326">
        <ele>1263.77</ele>
        <time>2018-08-11T10:56:41Z</time>
      </trkpt>
      <trkpt lat="42.80681" lon="0.49288">
        <ele>1268.32</ele>
        <time>2018-08-11T10:56:42Z</time>
      </trkpt>
      <trkpt lat="42.80687" lon="0.49249">
        <ele>1271.78</ele>
        <time>2018-08-11T10:56:43Z</time>
      </trkpt>
      <trkpt lat="42.80692" lon="0.4921">
        <ele>1273.52</ele>
        <time>2018-08-11T10:56:44Z</time>
      </trkpt>
      <trkpt lat="42.80697" lon="0.49171">
        <ele>1275.44</ele>
        <time>2018-08-11T10:56:45Z</time>
      </trkpt>
      <trkpt lat="42.80703" lon="0.49134">
        <ele>1277.42</ele>
        <time>2018-08-11T10:56:46Z</time>
      </trkpt>
      <trkpt lat="42.80709" lon="0.49099">
        <ele>1280.11</ele>
        <time>2018-08-11T10:56:47Z</time>
      </trkpt>
      <trkpt lat="42.80715" lon="0.49062">
        <ele>1281.62</ele>
        <time>2018-08-11T10:56:48Z</time>
      </trkpt>
      <trkpt lat="42.80722" lon="0.4903">
        <ele>1282.77</ele>
        <time>2018-08-11T10:56:49Z</time>
      </trkpt>
      <trkpt lat="42.8073" lon="0.49001">
        <ele>1284.52</ele>
        <time>2018-08-11T10:56:50Z</time>
      </trkpt>
      <trkpt lat="42.80738" lon="0.4897">
        <ele>1285.74</ele>
        <time>2018-08-11T10:56:51Z</time>
      </trkpt>
      <trkpt lat="42.80743" lon="0.48939">
        <ele>1286.11</ele>
        <time>2018-08-11T10:56:52Z</time>
      </trkpt>
      <trkpt lat="42.80748" lon="0.48908">
        <ele>1288.32</ele>
        <time>2018-08-11T10:56:53Z</time>
      </trkpt>
      <trkpt lat="42.80751" lon="0.48875">
        <ele>1290.38</ele>
        <time>2018-08-11T10:56:54Z</time>
      </trkpt>
      <trkpt lat="42.80756" lon="0.48844">
        <ele>1292.4</ele>
        <time>2018-08-11T10:56:55Z</time>
      </trkpt>
      <trkpt lat="42.80761" lon="0.48813">
        <ele>1293.71</ele>
        <time>2018-08-11T10:56:56Z</time>
      </trkpt>
      <trkpt lat="42.80764" lon="0.48779">
        <ele>1295.5</ele>
        <time>2018-08-11T10:56:57Z</time>
      </trkpt>
      <trkpt lat="42.80766" lon="0.48746">
        <ele>1296.74</ele>
        <time>2018-08-11T10:56:58Z</time>
      </trkpt>
      <trkpt lat="42.80765" lon="0.48711">
        <ele>1298.51</ele>
        <time>2018-08-11T10:56:59Z</time>
      </trkpt>
      <trkpt lat="42.80764" lon="0.48675">
        <ele>1299.74</ele>
        <time>2018-08-11T10:57:00Z</time>
      </trkpt>
      <trkpt lat="42.80763" lon="0.48637">
        <ele>1302.21</ele>
        <time>2018-08-11T10:57:01Z</time>
      </trkpt>
      <trkpt lat="42.80765" lon="0.48603">
        <ele>1303.65</ele>
        <time>2018-08-11T10:57:02Z</time>
      </trkpt>
      <trkpt lat="42.80766" lon="0.48568">
        <ele>1304.78</ele>
        <time>2018-08-11T10:57:03Z</time>
      </trkpt>
      <trkpt lat="42.80768" lon="0.48539">
        <ele>1307.92</ele>
        <time>2018-08-11T10:57:04Z</time>
      </trkpt>
      <trkpt lat="42.80767" lon="0.48507">
        <ele>1308.16</ele>
        <time>2018-08-11T10:57:05Z</time>
      </trkpt>
      <trkpt lat="42.80767" lon="0.48476">
        <ele>1309.64</ele>
        <time>2018-08-11T10:57:06Z</time>
      </trkpt>
      <trkpt lat="42.80765" lon="0.48445">
        <ele>1311.48</ele>
        <time>2018-08-11T10:57:07Z</time>
      </trkpt>
      <trkpt lat="42.80763" lon="0.48414">
        <ele>1314.13</ele>
        <time>2018-08-11T10:57:08Z</time>
      </trkpt>
      <trkpt lat="42.80757" lon="0.48381">
        <ele>1314.93</ele>
        <time>2018-08-11T10:57:09Z</time>
      </trkpt>
      <trkpt lat="42.80749" lon="0.4835">
        <ele>1315.86</ele>
        <time>2018-08-11T10:57:10Z</time>
      </trkpt>
      <trkpt lat="42.80739" lon="0.48321">
        <ele>1316.85</ele>
        <time>2018-08-11T10:57:11Z</time>
      </trkpt>
      <trkpt lat="42.80728" lon="0.48291">
        <ele>1317.14</ele>
        <time>2018-08-11T10:57:12Z</time>
      </trkpt>
      <trkpt lat="42.80711" lon="0.48269">
        <ele>1320.03</ele>
        <time>2018-08-11T10:57:13Z</time>
      </trkpt>
      <trkpt lat="42.80695" lon="0.48245">
        <ele>1322.3</ele>
        <time>2018-08-11T10:57:14Z</time>
      </trkpt>
      <trkpt lat="42.80679" lon="0.48221">
        <ele>1323.68</ele>
        <time>2018-08-11T10:57:15Z</time>
      </trkpt>
      <trkpt lat="42.80662" lon="0.48198">
        <ele>1325.49</ele>
        <time>2018-08-11T10:57:16Z</time>
      </trkpt>
      <trkpt lat="42.80646" lon="0.48175">
        <ele>1327.43</ele>
        <time>2018-08-11T10:57:17Z</time>
      </trkpt>
      <trkpt lat="42.80629" lon="0.48153">
        <ele>1328.72</ele>
        <time>2018-08-11T10:57:18Z</time>
      </trkpt>
      <trkpt lat="42.80611" lon="0.4813">
        <ele>1329.1</ele>
        <time>2018-08-11T10:57:19Z</time>
      </trkpt>
      <trkpt lat="42.80594" lon="0.48105">
        <ele>1332.02</ele>
        <time>2018-08-11T10:57:20Z</time>
      </trkpt>
      <trkpt lat="42.80578" lon="0.48082">
        <ele>1334.99</ele>
        <time>2018-08-11T10:57:21Z</time>
      </trkpt>
      <trkpt lat="42.80562" lon="0.48059">
        <ele>1337.28</ele>
        <time>2018-08-11T10:57:22Z</time>
      </trkpt>
      <trkpt lat="42.80546" lon="0.48038">
        <ele>1338.67</ele>
        <time>2018-08-11T10:57:23Z</time>
      </trkpt>
      <trkpt lat="42.8053" lon="0.48016">
        <ele>1339.79</ele>
        <time>2018-08-11T10:57:24Z</time>
      </trkpt>
      <trkpt lat="42.80516" lon="0.47992">
        <ele>1340.12</ele>
        <time>2018-08-11T10:57:25Z</time>
      </trkpt>
      <trkpt lat="42.80506" lon="0.47964">
        <ele>1339.52</ele>
        <time>2018-08-11T10:57:26Z</time>
      </trkpt>
      <trkpt lat="42.80499" lon="0.47933">
        <ele>1340.74</ele>
        <time>2018-08-11T10:57:27Z</time>
      </trkpt>
      <trkpt lat="42.8049" lon="0.47907">
        <ele>1341.11</ele>
        <time>2018-08-11T10:57:28Z</time>
      </trkpt>
      <trkpt lat="42.80481" lon="0.47874">
        <ele>1340.52</ele>
        <time>2018-08-11T10:57:29Z</time>
      </trkpt>
      <trkpt lat="42.80472" lon="0.47845">
        <ele>1341.74</ele>
        <time>2018-08-11T10:57:30Z</time>
      </trkpt>
      <trkpt lat="42.80467" lon="0.47814">
        <ele>1344.91</ele>
        <time>2018-08-11T10:57:31Z</time>
      </trkpt>
      <trkpt lat="42.80462" lon="0.47785">
        <ele>1347.96</ele>
        <time>2018-08-11T10:57:32Z</time>
      </trkpt>
      <trkpt lat="42.80455" lon="0.47757">
        <ele>1350.97</ele>
        <time>2018-08-11T10:57:33Z</time>
      </trkpt>
      <trkpt lat="42.80446" lon="0.47728">
        <ele>1355.38</ele>
        <time>2018-08-11T10:57:34Z</time>
      </trkpt>
      <trkpt lat="42.80436" lon="0.47699">
        <ele>1359.5</ele>
        <time>2018-08-11T10:57:35Z</time>
      </trkpt>
      <trkpt lat="42.80424" lon="0.47671">
        <ele>1363.54</ele>
        <time>2018-08-11T10:57:36Z</time>
      </trkpt>
      <trkpt lat="42.80413" lon="0.47643">
        <ele>1367.55</ele>
        <time>2018-08-11T10:57:37Z</time>
      </trkpt>
      <trkpt lat="42.80403" lon="0.47616">
        <ele>1372.95</ele>
        <time>2018-08-11T10:57:38Z</time>
      </trkpt>
      <trkpt lat="42.80392" lon="0.47589">
        <ele>1375.97</ele>
        <time>2018-08-11T10:57:39Z</time>
      </trkpt>
      <trkpt lat="42.80377" lon="0.47567">
        <ele>1379.68</ele>
        <time>2018-08-11T10:57:40Z</time>
      </trkpt>
      <trkpt lat="42.80363" lon="0.47543">
        <ele>1382.19</ele>
        <time>2018-08-11T10:57:41Z</time>
      </trkpt>
      <trkpt lat="42.80345" lon="0.47523">
        <ele>1382.94</ele>
        <time>2018-08-11T10:57:42Z</time>
      </trkpt>
      <trkpt lat="42.80327" lon="0.47505">
        <ele>1383.87</ele>
        <time>2018-08-11T10:57:43Z</time>
      </trkpt>
      <trkpt lat="42.80308" lon="0.47486">
        <ele>1385.55</ele>
        <time>2018-08-11T10:57:44Z</time>
      </trkpt>
      <trkpt lat="42.8029" lon="0.47464">
        <ele>1386.75</ele>
        <time>2018-08-11T10:57:45Z</time>
      </trkpt>
      <trkpt lat="42.80273" lon="0.47442">
        <ele>1388.51</ele>
        <time>2018-08-11T10:57:46Z</time>
      </trkpt>
      <trkpt lat="42.80257" lon="0.47419">
        <ele>1389.04</ele>
        <time>2018-08-11T10:57:47Z</time>
      </trkpt>
      <trkpt lat="42.80243" lon="0.47397">
        <ele>1389.2</ele>
        <time>2018-08-11T10:57:48Z</time>
      </trkpt>
      <trkpt lat="42.80233" lon="0.47372">
        <ele>1390.65</ele>
        <time>2018-08-11T10:57:49Z</time>
      </trkpt>
      <trkpt lat="42.80225" lon="0.47346">
        <ele>1391.78</ele>
        <time>2018-08-11T10:57:50Z</time>
      </trkpt>
      <trkpt lat="42.80211" lon="0.47304">
        <ele>1397.05</ele>
        <time>2018-08-11T10:57:52Z</time>
      </trkpt>
      <trkpt lat="42.80186" lon="0.47266">
        <ele>1399.77</ele>
        <time>2018-08-11T10:57:54Z</time>
      </trkpt>
      <trkpt lat="42.80174" lon="0.47248">
        <ele>1400.12</ele>
        <time>2018-08-11T10:57:55Z</time>
      </trkpt>
      <trkpt lat="42.80158" lon="0.47231">
        <ele>1400.92</ele>
        <time>2018-08-11T10:57:56Z</time>
      </trkpt>
      <trkpt lat="42.80156" lon="0.47206">
        <ele>1402.56</ele>
        <time>2018-08-11T10:57:57Z</time>
      </trkpt>
      <trkpt lat="42.8015" lon="0.47182">
        <ele>1403.76</ele>
        <time>2018-08-11T10:57:58Z</time>
      </trkpt>
      <trkpt lat="42.80146" lon="0.47156">
        <ele>1405.51</ele>
        <time>2018-08-11T10:57:59Z</time>
      </trkpt>
      <trkpt lat="42.80148" lon="0.4713">
        <ele>1407.44</ele>
        <time>2018-08-11T10:58:00Z</time>
      </trkpt>
      <trkpt lat="42.80152" lon="0.47103">
        <ele>1411.52</ele>
        <time>2018-08-11T10:58:01Z</time>
      </trkpt>
      <trkpt lat="42.80159" lon="0.47075">
        <ele>1414.14</ele>
        <time>2018-08-11T10:58:02Z</time>
      </trkpt>
      <trkpt lat="42.80165" lon="0.47046">
        <ele>1417.03</ele>
        <time>2018-08-11T10:58:03Z</time>
      </trkpt>
      <trkpt lat="42.80171" lon="0.47019">
        <ele>1419.3</ele>
        <time>2018-08-11T10:58:04Z</time>
      </trkpt>
      <trkpt lat="42.80174" lon="0.46993">
        <ele>1421.38</ele>
        <time>2018-08-11T10:58:05Z</time>
      </trkpt>
      <trkpt lat="42.80175" lon="0.46968">
        <ele>1424.1</ele>
        <time>2018-08-11T10:58:06Z</time>
      </trkpt>
      <trkpt lat="42.80182" lon="0.46922">
        <ele>1426.07</ele>
        <time>2018-08-11T10:58:08Z</time>
      </trkpt>
      <trkpt lat="42.80193" lon="0.46883">
        <ele>1428.56</ele>
        <time>2018-08-11T10:58:10Z</time>
      </trkpt>
      <trkpt lat="42.80232" lon="0.46877">
        <ele>1432.21</ele>
        <time>2018-08-11T10:58:12Z</time>
      </trkpt>
      <trkpt lat="42.80253" lon="0.46874">
        <ele>1433.65</ele>
        <time>2018-08-11T10:58:13Z</time>
      </trkpt>
      <trkpt lat="42.80272" lon="0.46877">
        <ele>1434.78</ele>
        <time>2018-08-11T10:58:14Z</time>
      </trkpt>
      <trkpt lat="42.80292" lon="0.46879">
        <ele>1435.12</ele>
        <time>2018-08-11T10:58:15Z</time>
      </trkpt>
      <trkpt lat="42.80311" lon="0.46884">
        <ele>1436.62</ele>
        <time>2018-08-11T10:58:16Z</time>
      </trkpt>
      <trkpt lat="42.8033" lon="0.4689">
        <ele>1438.47</ele>
        <time>2018-08-11T10:58:17Z</time>
      </trkpt>
      <trkpt lat="42.80357" lon="0.46912">
        <ele>1439.9</ele>
        <time>2018-08-11T10:58:19Z</time>
      </trkpt>
      <trkpt lat="42.80377" lon="0.4694">
        <ele>1441.14</ele>
        <time>2018-08-11T10:58:21Z</time>
      </trkpt>
      <trkpt lat="42.80392" lon="0.46958">
        <ele>1443.78</ele>
        <time>2018-08-11T10:58:23Z</time>
      </trkpt>
      <trkpt lat="42.80411" lon="0.46953">
        <ele>1444.25</ele>
        <time>2018-08-11T10:58:26Z</time>
      </trkpt>
      <trkpt lat="42.80387" lon="0.46931">
        <ele>1447.76</ele>
        <time>2018-08-11T10:58:27Z</time>
      </trkpt>
      <trkpt lat="42.80361" lon="0.46904">
        <ele>1453.26</ele>
        <time>2018-08-11T10:58:29Z</time>
      </trkpt>
      <trkpt lat="42.80333" lon="0.46868">
        <ele>1459.22</ele>
        <time>2018-08-11T10:58:31Z</time>
      </trkpt>
      <trkpt lat="42.80317" lon="0.4685">
        <ele>1460.65</ele>
        <time>2018-08-11T10:58:32Z</time>
      </trkpt>
      <trkpt lat="42.80302" lon="0.46831">
        <ele>1462.48</ele>
        <time>2018-08-11T10:58:33Z</time>
      </trkpt>
      <trkpt lat="42.80286" lon="0.46811">
        <ele>1463.73</ele>
        <time>2018-08-11T10:58:34Z</time>
      </trkpt>
      <trkpt lat="42.80271" lon="0.4679">
        <ele>1464.81</ele>
        <time>2018-08-11T10:58:35Z</time>
      </trkpt>
      <trkpt lat="42.80256" lon="0.46771">
        <ele>1465.83</ele>
        <time>2018-08-11T10:58:36Z</time>
      </trkpt>
      <trkpt lat="42.80241" lon="0.46753">
        <ele>1466.84</ele>
        <time>2018-08-11T10:58:37Z</time>
      </trkpt>
      <trkpt lat="42.80226" lon="0.46739">
        <ele>1469.94</ele>
        <time>2018-08-11T10:58:38Z</time>
      </trkpt>
      <trkpt lat="42.80196" lon="0.46717">
        <ele>1473.67</ele>
        <time>2018-08-11T10:58:40Z</time>
      </trkpt>
      <trkpt lat="42.80177" lon="0.4672">
        <ele>1474.91</ele>
        <time>2018-08-11T10:58:42Z</time>
      </trkpt>
      <trkpt lat="42.80174" lon="0.46695">
        <ele>1480.62</ele>
        <time>2018-08-11T10:58:47Z</time>
      </trkpt>
      <trkpt lat="42.80199" lon="0.46698">
        <ele>1483.56</ele>
        <time>2018-08-11T10:58:50Z</time>
      </trkpt>
      <trkpt lat="42.80226" lon="0.46707">
        <ele>1485.81</ele>
        <time>2018-08-11T10:58:52Z</time>
      </trkpt>
      <trkpt lat="42.8026" lon="0.46721">
        <ele>1488.54</ele>
        <time>2018-08-11T10:58:54Z</time>
      </trkpt>
      <trkpt lat="42.80277" lon="0.46732">
        <ele>1489.75</ele>
        <time>2018-08-11T10:58:55Z</time>
      </trkpt>
      <trkpt lat="42.80296" lon="0.46744">
        <ele>1490.81</ele>
        <time>2018-08-11T10:58:56Z</time>
      </trkpt>
      <trkpt lat="42.80315" lon="0.46757">
        <ele>1492.53</ele>
        <time>2018-08-11T10:58:57Z</time>
      </trkpt>
      <trkpt lat="42.80334" lon="0.46771">
        <ele>1493.05</ele>
        <time>2018-08-11T10:58:58Z</time>
      </trkpt>
      <trkpt lat="42.80353" lon="0.46784">
        <ele>1493.9</ele>
        <time>2018-08-11T10:58:59Z</time>
      </trkpt>
      <trkpt lat="42.80372" lon="0.46796">
        <ele>1495.56</ele>
        <time>2018-08-11T10:59:00Z</time>
      </trkpt>
      <trkpt lat="42.80389" lon="0.46809">
        <ele>1496.75</ele>
        <time>2018-08-11T10:59:01Z</time>
      </trkpt>
      <trkpt lat="42.80418" lon="0.46835">
        <ele>1499.91</ele>
        <time>2018-08-11T10:59:03Z</time>
      </trkpt>
      <trkpt lat="42.80444" lon="0.46858">
        <ele>1504.37</ele>
        <time>2018-08-11T10:59:05Z</time>
      </trkpt>
      <trkpt lat="42.80462" lon="0.46873">
        <ele>1503.09</ele>
        <time>2018-08-11T10:59:07Z</time>
      </trkpt>
      <trkpt lat="42.80484" lon="0.46878">
        <ele>1503.41</ele>
        <time>2018-08-11T10:59:10Z</time>
      </trkpt>
      <trkpt lat="42.80468" lon="0.46845">
        <ele>1506.48</ele>
        <time>2018-08-11T10:59:15Z</time>
      </trkpt>
      <trkpt lat="42.8044" lon="0.46818">
        <ele>1509.51</ele>
        <time>2018-08-11T10:59:17Z</time>
      </trkpt>
      <trkpt lat="42.80426" lon="0.46801">
        <ele>1511.44</ele>
        <time>2018-08-11T10:59:18Z</time>
      </trkpt>
      <trkpt lat="42.80412" lon="0.46783">
        <ele>1512.02</ele>
        <time>2018-08-11T10:59:19Z</time>
      </trkpt>
      <trkpt lat="42.80398" lon="0.46765">
        <ele>1513.59</ele>
        <time>2018-08-11T10:59:20Z</time>
      </trkpt>
      <trkpt lat="42.80383" lon="0.46746">
        <ele>1515.46</ele>
        <time>2018-08-11T10:59:21Z</time>
      </trkpt>
      <trkpt lat="42.80368" lon="0.46726">
        <ele>1517.43</ele>
        <time>2018-08-11T10:59:22Z</time>
      </trkpt>
      <trkpt lat="42.80354" lon="0.46707">
        <ele>1521.51</ele>
        <time>2018-08-11T10:59:23Z</time>
      </trkpt>
      <trkpt lat="42.80339" lon="0.46688">
        <ele>1524.84</ele>
        <time>2018-08-11T10:59:24Z</time>
      </trkpt>
      <trkpt lat="42.80325" lon="0.46668">
        <ele>1527.24</ele>
        <time>2018-08-11T10:59:25Z</time>
      </trkpt>
      <trkpt lat="42.80313" lon="0.46647">
        <ele>1529.36</ele>
        <time>2018-08-11T10:59:26Z</time>
      </trkpt>
      <trkpt lat="42.80305" lon="0.46624">
        <ele>1531.39</ele>
        <time>2018-08-11T10:59:27Z</time>
      </trkpt>
      <trkpt lat="42.80298" lon="0.466">
        <ele>1534.81</ele>
        <time>2018-08-11T10:59:28Z</time>
      </trkpt>
      <trkpt lat="42.80291" lon="0.46575">
        <ele>1537.93</ele>
        <time>2018-08-11T10:59:29Z</time>
      </trkpt>
      <trkpt lat="42.80285" lon="0.4655">
        <ele>1540.27</ele>
        <time>2018-08-11T10:59:30Z</time>
      </trkpt>
      <trkpt lat="42.80278" lon="0.46527">
        <ele>1543.07</ele>
        <time>2018-08-11T10:59:31Z</time>
      </trkpt>
      <trkpt lat="42.80271" lon="0.46502">
        <ele>1544.61</ele>
        <time>2018-08-11T10:59:32Z</time>
      </trkpt>
      <trkpt lat="42.80265" lon="0.46477">
        <ele>1546.47</ele>
        <time>2018-08-11T10:59:33Z</time>
      </trkpt>
      <trkpt lat="42.8026" lon="0.46451">
        <ele>1549.83</ele>
        <time>2018-08-11T10:59:34Z</time>
      </trkpt>
      <trkpt lat="42.80254" lon="0.46425">
        <ele>1553.64</ele>
        <time>2018-08-11T10:59:35Z</time>
      </trkpt>
      <trkpt lat="42.80248" lon="0.46402">
        <ele>1556.18</ele>
        <time>2018-08-11T10:59:36Z</time>
      </trkpt>
      <trkpt lat="42.80236" lon="0.46362">
        <ele>1559.69</ele>
        <time>2018-08-11T10:59:38Z</time>
      </trkpt>
      <trkpt lat="42.80234" lon="0.46328">
        <ele>1563.22</ele>
        <time>2018-08-11T10:59:40Z</time>
      </trkpt>
      <trkpt lat="42.80232" lon="0.46299">
        <ele>1564.38</ele>
        <time>2018-08-11T10:59:42Z</time>
      </trkpt>
      <trkpt lat="42.80231" lon="0.46273">
        <ele>1565.19</ele>
        <time>2018-08-11T10:59:44Z</time>
      </trkpt>
      <trkpt lat="42.80229" lon="0.46241">
        <ele>1564.5</ele>
        <time>2018-08-11T10:59:47Z</time>
      </trkpt>
      <trkpt lat="42.80226" lon="0.4621">
        <ele>1565.74</ele>
        <time>2018-08-11T10:59:51Z</time>
      </trkpt>
      <trkpt lat="42.80224" lon="0.46184">
        <ele>1570.13</ele>
        <time>2018-08-11T10:59:56Z</time>
      </trkpt>
      <trkpt lat="42.80219" lon="0.46155">
        <ele>1570.01</ele>
        <time>2018-08-11T11:00:00Z</time>
      </trkpt>
      <trkpt lat="42.80214" lon="0.46116">
        <ele>1571.38</ele>
        <time>2018-08-11T11:00:03Z</time>
      </trkpt>
      <trkpt lat="42.8021" lon="0.46084">
        <ele>1570.37</ele>
        <time>2018-08-11T11:00:05Z</time>
      </trkpt>
      <trkpt lat="42.80206" lon="0.46048">
        <ele>1571.89</ele>
        <time>2018-08-11T11:00:07Z</time>
      </trkpt>
      <trkpt lat="42.80201" lon="0.46007">
        <ele>1574.05</ele>
        <time>2018-08-11T11:00:09Z</time>
      </trkpt>
      <trkpt lat="42.80196" lon="0.45962">
        <ele>1573.55</ele>
        <time>2018-08-11T11:00:11Z</time>
      </trkpt>
      <trkpt lat="42.80192" lon="0.45918">
        <ele>1570.77</ele>
        <time>2018-08-11T11:00:13Z</time>
      </trkpt>
      <trkpt lat="42.80188" lon="0.45874">
        <ele>1568.7</ele>
        <time>2018-08-11T11:00:15Z</time>
      </trkpt>
      <trkpt lat="42.80185" lon="0.45831">
        <ele>1566.7</ele>
        <time>2018-08-11T11:00:17Z</time>
      </trkpt>
      <trkpt lat="42.80183" lon="0.45788">
        <ele>1564.49</ele>
        <time>2018-08-11T11:00:19Z</time>
      </trkpt>
      <trkpt lat="42.80177" lon="0.45747">
        <ele>1561.77</ele>
        <time>2018-08-11T11:00:21Z</time>
      </trkpt>
      <trkpt lat="42.80173" lon="0.45703">
        <ele>1561.52</ele>
        <time>2018-08-11T11:00:23Z</time>
      </trkpt>
      <trkpt lat="42.80177" lon="0.45659">
        <ele>1562.2</ele>
        <time>2018-08-11T11:00:25Z</time>
      </trkpt>
      <trkpt lat="42.80184" lon="0.45611">
        <ele>1561.35</ele>
        <time>2018-08-11T11:00:27Z</time>
      </trkpt>
      <trkpt lat="42.80187" lon="0.45586">
        <ele>1559.19</ele>
        <time>2018-08-11T11:00:28Z</time>
      </trkpt>
      <trkpt lat="42.8019" lon="0.45541">
        <ele>1555.83</ele>
        <time>2018-08-11T11:00:30Z</time>
      </trkpt>
      <trkpt lat="42.80192" lon="0.45516">
        <ele>1554.74</ele>
        <time>2018-08-11T11:00:31Z</time>
      </trkpt>
      <trkpt lat="42.80195" lon="0.45492">
        <ele>1553.71</ele>
        <time>2018-08-11T11:00:32Z</time>
      </trkpt>
      <trkpt lat="42.80199" lon="0.45468">
        <ele>1552.7</ele>
        <time>2018-08-11T11:00:33Z</time>
      </trkpt>
      <trkpt lat="42.80203" lon="0.45443">
        <ele>1551</ele>
        <time>2018-08-11T11:00:34Z</time>
      </trkpt>
      <trkpt lat="42.80203" lon="0.45416">
        <ele>1550.49</ele>
        <time>2018-08-11T11:00:35Z</time>
      </trkpt>
      <trkpt lat="42.80205" lon="0.45389">
        <ele>1550.33</ele>
        <time>2018-08-11T11:00:36Z</time>
      </trkpt>
      <trkpt lat="42.80207" lon="0.45362">
        <ele>1548.89</ele>
        <time>2018-08-11T11:00:37Z</time>
      </trkpt>
      <trkpt lat="42.80209" lon="0.45336">
        <ele>1547.05</ele>
        <time>2018-08-11T11:00:38Z</time>
      </trkpt>
      <trkpt lat="42.80215" lon="0.45311">
        <ele>1547.2</ele>
        <time>2018-08-11T11:00:39Z</time>
      </trkpt>
      <trkpt lat="42.8023" lon="0.45285">
        <ele>1546.35</ele>
        <time>2018-08-11T11:00:41Z</time>
      </trkpt>
      <trkpt lat="42.80234" lon="0.45247">
        <ele>1544.66</ele>
        <time>2018-08-11T11:00:43Z</time>
      </trkpt>
      <trkpt lat="42.80232" lon="0.45205">
        <ele>1542.69</ele>
        <time>2018-08-11T11:00:45Z</time>
      </trkpt>
      <trkpt lat="42.80232" lon="0.45158">
        <ele>1539.3</ele>
        <time>2018-08-11T11:00:47Z</time>
      </trkpt>
      <trkpt lat="42.80229" lon="0.45131">
        <ele>1537.88</ele>
        <time>2018-08-11T11:00:48Z</time>
      </trkpt>
      <trkpt lat="42.80225" lon="0.45105">
        <ele>1536.05</ele>
        <time>2018-08-11T11:00:49Z</time>
      </trkpt>
      <trkpt lat="42.80223" lon="0.45079">
        <ele>1536.2</ele>
        <time>2018-08-11T11:00:50Z</time>
      </trkpt>
      <trkpt lat="42.80216" lon="0.45055">
        <ele>1536.25</ele>
        <time>2018-08-11T11:00:51Z</time>
      </trkpt>
      <trkpt lat="42.8021" lon="0.45029">
        <ele>1534.86</ele>
        <time>2018-08-11T11:00:52Z</time>
      </trkpt>
      <trkpt lat="42.80202" lon="0.45006">
        <ele>1533.75</ele>
        <time>2018-08-11T11:00:53Z</time>
      </trkpt>
      <trkpt lat="42.80195" lon="0.44979">
        <ele>1532.71</ele>
        <time>2018-08-11T11:00:54Z</time>
      </trkpt>
      <trkpt lat="42.80188" lon="0.44954">
        <ele>1532.4</ele>
        <time>2018-08-11T11:00:55Z</time>
      </trkpt>
      <trkpt lat="42.80181" lon="0.44928">
        <ele>1531.61</ele>
        <time>2018-08-11T11:00:56Z</time>
      </trkpt>
      <trkpt lat="42.80179" lon="0.44904">
        <ele>1531.37</ele>
        <time>2018-08-11T11:00:57Z</time>
      </trkpt>
      <trkpt lat="42.80178" lon="0.44879">
        <ele>1531.3</ele>
        <time>2018-08-11T11:00:58Z</time>
      </trkpt>
      <trkpt lat="42.80181" lon="0.44852">
        <ele>1530.58</ele>
        <time>2018-08-11T11:00:59Z</time>
      </trkpt>
      <trkpt lat="42.80185" lon="0.44823">
        <ele>1529.66</ele>
        <time>2018-08-11T11:01:00Z</time>
      </trkpt>
      <trkpt lat="42.80187" lon="0.44795">
        <ele>1527.98</ele>
        <time>2018-08-11T11:01:01Z</time>
      </trkpt>
      <trkpt lat="42.80189" lon="0.44766">
        <ele>1527.48</ele>
        <time>2018-08-11T11:01:02Z</time>
      </trkpt>
      <trkpt lat="42.80192" lon="0.44737">
        <ele>1526.63</ele>
        <time>2018-08-11T11:01:03Z</time>
      </trkpt>
      <trkpt lat="42.80193" lon="0.44707">
        <ele>1524.98</ele>
        <time>2018-08-11T11:01:04Z</time>
      </trkpt>
      <trkpt lat="42.80196" lon="0.44675">
        <ele>1522.38</ele>
        <time>2018-08-11T11:01:05Z</time>
      </trkpt>
      <trkpt lat="42.80197" lon="0.44646">
        <ele>1521.6</ele>
        <time>2018-08-11T11:01:06Z</time>
      </trkpt>
      <trkpt lat="42.80198" lon="0.44617">
        <ele>1519.27</ele>
        <time>2018-08-11T11:01:07Z</time>
      </trkpt>
      <trkpt lat="42.802" lon="0.44588">
        <ele>1516.47</ele>
        <time>2018-08-11T11:01:08Z</time>
      </trkpt>
      <trkpt lat="42.80202" lon="0.4456">
        <ele>1514.23</ele>
        <time>2018-08-11T11:01:09Z</time>
      </trkpt>
      <trkpt lat="42.80203" lon="0.44533">
        <ele>1512.85</ele>
        <time>2018-08-11T11:01:10Z</time>
      </trkpt>
      <trkpt lat="42.80204" lon="0.44507">
        <ele>1511.74</ele>
        <time>2018-08-11T11:01:11Z</time>
      </trkpt>
      <trkpt lat="42.80206" lon="0.4446">
        <ele>1510.4</ele>
        <time>2018-08-11T11:01:13Z</time>
      </trkpt>
      <trkpt lat="42.80211" lon="0.44428">
        <ele>1507.76</ele>
        <time>2018-08-11T11:01:15Z</time>
      </trkpt>
      <trkpt lat="42.80209" lon="0.44396">
        <ele>1506.4</ele>
        <time>2018-08-11T11:01:17Z</time>
      </trkpt>
      <trkpt lat="42.80202" lon="0.44354">
        <ele>1503.27</ele>
        <time>2018-08-11T11:01:19Z</time>
      </trkpt>
      <trkpt lat="42.80185" lon="0.44327">
        <ele>1499.77</ele>
        <time>2018-08-11T11:01:20Z</time>
      </trkpt>
      <trkpt lat="42.80171" lon="0.44304">
        <ele>1497.32</ele>
        <time>2018-08-11T11:01:21Z</time>
      </trkpt>
      <trkpt lat="42.80166" lon="0.44279">
        <ele>1494.48</ele>
        <time>2018-08-11T11:01:22Z</time>
      </trkpt>
      <trkpt lat="42.80161" lon="0.44254">
        <ele>1492.23</ele>
        <time>2018-08-11T11:01:23Z</time>
      </trkpt>
      <trkpt lat="42.80157" lon="0.4423">
        <ele>1490.16</ele>
        <time>2018-08-11T11:01:24Z</time>
      </trkpt>
      <trkpt lat="42.80152" lon="0.44206">
        <ele>1487.43</ele>
        <time>2018-08-11T11:01:25Z</time>
      </trkpt>
      <trkpt lat="42.80145" lon="0.44183">
        <ele>1484.52</ele>
        <time>2018-08-11T11:01:26Z</time>
      </trkpt>
      <trkpt lat="42.80136" lon="0.44162">
        <ele>1480.84</ele>
        <time>2018-08-11T11:01:27Z</time>
      </trkpt>
      <trkpt lat="42.80116" lon="0.44124">
        <ele>1476.19</ele>
        <time>2018-08-11T11:01:29Z</time>
      </trkpt>
      <trkpt lat="42.80112" lon="0.4408">
        <ele>1471.22</ele>
        <time>2018-08-11T11:01:31Z</time>
      </trkpt>
      <trkpt lat="42.80111" lon="0.44055">
        <ele>1469.15</ele>
        <time>2018-08-11T11:01:32Z</time>
      </trkpt>
      <trkpt lat="42.8011" lon="0.4403">
        <ele>1465.73</ele>
        <time>2018-08-11T11:01:33Z</time>
      </trkpt>
      <trkpt lat="42.80108" lon="0.44004">
        <ele>1461.91</ele>
        <time>2018-08-11T11:01:34Z</time>
      </trkpt>
      <trkpt lat="42.80104" lon="0.43979">
        <ele>1459.36</ele>
        <time>2018-08-11T11:01:35Z</time>
      </trkpt>
      <trkpt lat="42.801" lon="0.43954">
        <ele>1459.29</ele>
        <time>2018-08-11T11:01:36Z</time>
      </trkpt>
      <trkpt lat="42.80096" lon="0.43929">
        <ele>1459.28</ele>
        <time>2018-08-11T11:01:37Z</time>
      </trkpt>
      <trkpt lat="42.80094" lon="0.43903">
        <ele>1457.17</ele>
        <time>2018-08-11T11:01:38Z</time>
      </trkpt>
      <trkpt lat="42.80093" lon="0.43878">
        <ele>1455.84</ele>
        <time>2018-08-11T11:01:39Z</time>
      </trkpt>
      <trkpt lat="42.80092" lon="0.43852">
        <ele>1455.44</ele>
        <time>2018-08-11T11:01:40Z</time>
      </trkpt>
      <trkpt lat="42.80091" lon="0.43826">
        <ele>1454.62</ele>
        <time>2018-08-11T11:01:41Z</time>
      </trkpt>
      <trkpt lat="42.8009" lon="0.43801">
        <ele>1454.37</ele>
        <time>2018-08-11T11:01:42Z</time>
      </trkpt>
      <trkpt lat="42.8009" lon="0.43774">
        <ele>1450.8</ele>
        <time>2018-08-11T11:01:43Z</time>
      </trkpt>
      <trkpt lat="42.8009" lon="0.43748">
        <ele>1448.33</ele>
        <time>2018-08-11T11:01:44Z</time>
      </trkpt>
      <trkpt lat="42.80089" lon="0.43721">
        <ele>1446.18</ele>
        <time>2018-08-11T11:01:45Z</time>
      </trkpt>
      <trkpt lat="42.80087" lon="0.43694">
        <ele>1444.14</ele>
        <time>2018-08-11T11:01:46Z</time>
      </trkpt>
      <trkpt lat="42.80086" lon="0.43666">
        <ele>1441.43</ele>
        <time>2018-08-11T11:01:47Z</time>
      </trkpt>
      <trkpt lat="42.80087" lon="0.43639">
        <ele>1439.22</ele>
        <time>2018-08-11T11:01:48Z</time>
      </trkpt>
      <trkpt lat="42.80089" lon="0.43612">
        <ele>1438.55</ele>
        <time>2018-08-11T11:01:49Z</time>
      </trkpt>
      <trkpt lat="42.80094" lon="0.43586">
        <ele>1437.65</ele>
        <time>2018-08-11T11:01:50Z</time>
      </trkpt>
      <trkpt lat="42.80098" lon="0.43558">
        <ele>1437.38</ele>
        <time>2018-08-11T11:01:51Z</time>
      </trkpt>
      <trkpt lat="42.80103" lon="0.43529">
        <ele>1435.9</ele>
        <time>2018-08-11T11:01:52Z</time>
      </trkpt>
      <trkpt lat="42.80109" lon="0.43502">
        <ele>1434.06</ele>
        <time>2018-08-11T11:01:53Z</time>
      </trkpt>
      <trkpt lat="42.80113" lon="0.43474">
        <ele>1432.1</ele>
        <time>2018-08-11T11:01:54Z</time>
      </trkpt>
      <trkpt lat="42.80117" lon="0.43446">
        <ele>1430.82</ele>
        <time>2018-08-11T11:01:55Z</time>
      </trkpt>
      <trkpt lat="42.80123" lon="0.43416">
        <ele>1429.73</ele>
        <time>2018-08-11T11:01:56Z</time>
      </trkpt>
      <trkpt lat="42.80127" lon="0.43388">
        <ele>1429.41</ele>
        <time>2018-08-11T11:01:57Z</time>
      </trkpt>
      <trkpt lat="42.80131" lon="0.43359">
        <ele>1428.61</ele>
        <time>2018-08-11T11:01:58Z</time>
      </trkpt>
      <trkpt lat="42.80136" lon="0.43329">
        <ele>1426.27</ele>
        <time>2018-08-11T11:01:59Z</time>
      </trkpt>
      <trkpt lat="42.80138" lon="0.433">
        <ele>1425.57</ele>
        <time>2018-08-11T11:02:00Z</time>
      </trkpt>
      <trkpt lat="42.8014" lon="0.43272">
        <ele>1424.66</ele>
        <time>2018-08-11T11:02:01Z</time>
      </trkpt>
      <trkpt lat="42.80141" lon="0.43245">
        <ele>1423.68</ele>
        <time>2018-08-11T11:02:02Z</time>
      </trkpt>
      <trkpt lat="42.80142" lon="0.43217">
        <ele>1423.39</ele>
        <time>2018-08-11T11:02:03Z</time>
      </trkpt>
      <trkpt lat="42.80143" lon="0.4319">
        <ele>1421.9</ele>
        <time>2018-08-11T11:02:04Z</time>
      </trkpt>
      <trkpt lat="42.80144" lon="0.43164">
        <ele>1419.36</ele>
        <time>2018-08-11T11:02:05Z</time>
      </trkpt>
      <trkpt lat="42.8015" lon="0.43137">
        <ele>1415.79</ele>
        <time>2018-08-11T11:02:06Z</time>
      </trkpt>
      <trkpt lat="42.80157" lon="0.4311">
        <ele>1411.93</ele>
        <time>2018-08-11T11:02:07Z</time>
      </trkpt>
      <trkpt lat="42.80165" lon="0.43085">
        <ele>1408.66</ele>
        <time>2018-08-11T11:02:08Z</time>
      </trkpt>
      <trkpt lat="42.80173" lon="0.43061">
        <ele>1405.59</ele>
        <time>2018-08-11T11:02:09Z</time>
      </trkpt>
      <trkpt lat="42.80179" lon="0.43037">
        <ele>1403.96</ele>
        <time>2018-08-11T11:02:10Z</time>
      </trkpt>
      <trkpt lat="42.80184" lon="0.42989">
        <ele>1401.51</ele>
        <time>2018-08-11T11:02:12Z</time>
      </trkpt>
      <trkpt lat="42.80183" lon="0.42963">
        <ele>1399.94</ele>
        <time>2018-08-11T11:02:13Z</time>
      </trkpt>
      <trkpt lat="42.80182" lon="0.42938">
        <ele>1398.77</ele>
        <time>2018-08-11T11:02:14Z</time>
      </trkpt>
      <trkpt lat="42.80188" lon="0.4289">
        <ele>1396</ele>
        <time>2018-08-11T11:02:16Z</time>
      </trkpt>
      <trkpt lat="42.80195" lon="0.42842">
        <ele>1394.63</ele>
        <time>2018-08-11T11:02:18Z</time>
      </trkpt>
      <trkpt lat="42.80206" lon="0.42799">
        <ele>1393.6</ele>
        <time>2018-08-11T11:02:20Z</time>
      </trkpt>
      <trkpt lat="42.80211" lon="0.42774">
        <ele>1391.97</ele>
        <time>2018-08-11T11:02:21Z</time>
      </trkpt>
      <trkpt lat="42.80216" lon="0.4275">
        <ele>1390.78</ele>
        <time>2018-08-11T11:02:22Z</time>
      </trkpt>
      <trkpt lat="42.80218" lon="0.42723">
        <ele>1390.42</ele>
        <time>2018-08-11T11:02:23Z</time>
      </trkpt>
      <trkpt lat="42.80222" lon="0.42698">
        <ele>1390.31</ele>
        <time>2018-08-11T11:02:24Z</time>
      </trkpt>
      <trkpt lat="42.80228" lon="0.42675">
        <ele>1390.98</ele>
        <time>2018-08-11T11:02:25Z</time>
      </trkpt>
      <trkpt lat="42.80235" lon="0.42653">
        <ele>1391.18</ele>
        <time>2018-08-11T11:02:26Z</time>
      </trkpt>
      <trkpt lat="42.80243" lon="0.42629">
        <ele>1390.54</ele>
        <time>2018-08-11T11:02:27Z</time>
      </trkpt>
      <trkpt lat="42.8025" lon="0.42606">
        <ele>1391.05</ele>
        <time>2018-08-11T11:02:28Z</time>
      </trkpt>
      <trkpt lat="42.80263" lon="0.42563">
        <ele>1387.54</ele>
        <time>2018-08-11T11:02:30Z</time>
      </trkpt>
      <trkpt lat="42.80287" lon="0.42536">
        <ele>1382.25</ele>
        <time>2018-08-11T11:02:32Z</time>
      </trkpt>
      <trkpt lat="42.80303" lon="0.42525">
        <ele>1381.56</ele>
        <time>2018-08-11T11:02:33Z</time>
      </trkpt>
      <trkpt lat="42.80319" lon="0.42512">
        <ele>1378.56</ele>
        <time>2018-08-11T11:02:34Z</time>
      </trkpt>
      <trkpt lat="42.80335" lon="0.42499">
        <ele>1374.15</ele>
        <time>2018-08-11T11:02:35Z</time>
      </trkpt>
      <trkpt lat="42.80351" lon="0.42486">
        <ele>1370.03</ele>
        <time>2018-08-11T11:02:36Z</time>
      </trkpt>
      <trkpt lat="42.80368" lon="0.42474">
        <ele>1366.7</ele>
        <time>2018-08-11T11:02:37Z</time>
      </trkpt>
      <trkpt lat="42.80385" lon="0.42465">
        <ele>1363.6</ele>
        <time>2018-08-11T11:02:38Z</time>
      </trkpt>
      <trkpt lat="42.80404" lon="0.42457">
        <ele>1360.57</ele>
        <time>2018-08-11T11:02:39Z</time>
      </trkpt>
      <trkpt lat="42.80441" lon="0.42454">
        <ele>1356.86</ele>
        <time>2018-08-11T11:02:41Z</time>
      </trkpt>
      <trkpt lat="42.8046" lon="0.42455">
        <ele>1356.45</ele>
        <time>2018-08-11T11:02:42Z</time>
      </trkpt>
      <trkpt lat="42.80484" lon="0.42459">
        <ele>1354.22</ele>
        <time>2018-08-11T11:02:43Z</time>
      </trkpt>
      <trkpt lat="42.80505" lon="0.42463">
        <ele>1353.55</ele>
        <time>2018-08-11T11:02:44Z</time>
      </trkpt>
      <trkpt lat="42.80526" lon="0.42465">
        <ele>1352.65</ele>
        <time>2018-08-11T11:02:45Z</time>
      </trkpt>
      <trkpt lat="42.80546" lon="0.42468">
        <ele>1350.28</ele>
        <time>2018-08-11T11:02:46Z</time>
      </trkpt>
      <trkpt lat="42.80565" lon="0.42471">
        <ele>1347.47</ele>
        <time>2018-08-11T11:02:47Z</time>
      </trkpt>
      <trkpt lat="42.80585" lon="0.42473">
        <ele>1346.63</ele>
        <time>2018-08-11T11:02:48Z</time>
      </trkpt>
      <trkpt lat="42.80604" lon="0.42476">
        <ele>1344.98</ele>
        <time>2018-08-11T11:02:49Z</time>
      </trkpt>
      <trkpt lat="42.80624" lon="0.42479">
        <ele>1343.08</ele>
        <time>2018-08-11T11:02:50Z</time>
      </trkpt>
      <trkpt lat="42.80643" lon="0.42483">
        <ele>1340.41</ele>
        <time>2018-08-11T11:02:51Z</time>
      </trkpt>
      <trkpt lat="42.80662" lon="0.42486">
        <ele>1338.21</ele>
        <time>2018-08-11T11:02:52Z</time>
      </trkpt>
      <trkpt lat="42.80681" lon="0.4249">
        <ele>1335.45</ele>
        <time>2018-08-11T11:02:53Z</time>
      </trkpt>
      <trkpt lat="42.807" lon="0.42494">
        <ele>1332.52</ele>
        <time>2018-08-11T11:02:54Z</time>
      </trkpt>
      <trkpt lat="42.8072" lon="0.425">
        <ele>1329.54</ele>
        <time>2018-08-11T11:02:55Z</time>
      </trkpt>
      <trkpt lat="42.8074" lon="0.42507">
        <ele>1327.25</ele>
        <time>2018-08-11T11:02:56Z</time>
      </trkpt>
      <trkpt lat="42.8076" lon="0.42514">
        <ele>1325.16</ele>
        <time>2018-08-11T11:02:57Z</time>
      </trkpt>
      <trkpt lat="42.8078" lon="0.42522">
        <ele>1322.44</ele>
        <time>2018-08-11T11:02:58Z</time>
      </trkpt>
      <trkpt lat="42.808" lon="0.42529">
        <ele>1319.52</ele>
        <time>2018-08-11T11:02:59Z</time>
      </trkpt>
      <trkpt lat="42.80821" lon="0.42538">
        <ele>1317.24</ele>
        <time>2018-08-11T11:03:00Z</time>
      </trkpt>
      <trkpt lat="42.8084" lon="0.42546">
        <ele>1313.76</ele>
        <time>2018-08-11T11:03:01Z</time>
      </trkpt>
      <trkpt lat="42.80859" lon="0.42556">
        <ele>1309.91</ele>
        <time>2018-08-11T11:03:02Z</time>
      </trkpt>
      <trkpt lat="42.80877" lon="0.42569">
        <ele>1308.06</ele>
        <time>2018-08-11T11:03:03Z</time>
      </trkpt>
      <trkpt lat="42.80893" lon="0.42586">
        <ele>1306.81</ele>
        <time>2018-08-11T11:03:04Z</time>
      </trkpt>
      <trkpt lat="42.80907" lon="0.42608">
        <ele>1306.43</ele>
        <time>2018-08-11T11:03:05Z</time>
      </trkpt>
      <trkpt lat="42.80922" lon="0.42627">
        <ele>1306.32</ele>
        <time>2018-08-11T11:03:06Z</time>
      </trkpt>
      <trkpt lat="42.80949" lon="0.42656">
        <ele>1301.23</ele>
        <time>2018-08-11T11:03:08Z</time>
      </trkpt>
      <trkpt lat="42.80967" lon="0.42671">
        <ele>1300.56</ele>
        <time>2018-08-11T11:03:09Z</time>
      </trkpt>
      <trkpt lat="42.80987" lon="0.42679">
        <ele>1299.65</ele>
        <time>2018-08-11T11:03:10Z</time>
      </trkpt>
      <trkpt lat="42.81004" lon="0.42691">
        <ele>1299.38</ele>
        <time>2018-08-11T11:03:11Z</time>
      </trkpt>
      <trkpt lat="42.81022" lon="0.42704">
        <ele>1294.4</ele>
        <time>2018-08-11T11:03:12Z</time>
      </trkpt>
      <trkpt lat="42.81038" lon="0.42717">
        <ele>1292.91</ele>
        <time>2018-08-11T11:03:13Z</time>
      </trkpt>
      <trkpt lat="42.81056" lon="0.42728">
        <ele>1292.46</ele>
        <time>2018-08-11T11:03:14Z</time>
      </trkpt>
      <trkpt lat="42.81074" lon="0.42736">
        <ele>1293.02</ele>
        <time>2018-08-11T11:03:15Z</time>
      </trkpt>
      <trkpt lat="42.81093" lon="0.42742">
        <ele>1293.19</ele>
        <time>2018-08-11T11:03:16Z</time>
      </trkpt>
      <trkpt lat="42.81109" lon="0.42755">
        <ele>1293.25</ele>
        <time>2018-08-11T11:03:17Z</time>
      </trkpt>
      <trkpt lat="42.81125" lon="0.42766">
        <ele>1293.26</ele>
        <time>2018-08-11T11:03:18Z</time>
      </trkpt>
      <trkpt lat="42.81158" lon="0.42793">
        <ele>1292.57</ele>
        <time>2018-08-11T11:03:20Z</time>
      </trkpt>
      <trkpt lat="42.81176" lon="0.42805">
        <ele>1288.86</ele>
        <time>2018-08-11T11:03:21Z</time>
      </trkpt>
      <trkpt lat="42.81194" lon="0.42817">
        <ele>1287.74</ele>
        <time>2018-08-11T11:03:22Z</time>
      </trkpt>
      <trkpt lat="42.81212" lon="0.42827">
        <ele>1286.71</ele>
        <time>2018-08-11T11:03:23Z</time>
      </trkpt>
      <trkpt lat="42.8123" lon="0.42837">
        <ele>1284.3</ele>
        <time>2018-08-11T11:03:24Z</time>
      </trkpt>
      <trkpt lat="42.81248" lon="0.42844">
        <ele>1281.48</ele>
        <time>2018-08-11T11:03:25Z</time>
      </trkpt>
      <trkpt lat="42.81281" lon="0.42852">
        <ele>1277.86</ele>
        <time>2018-08-11T11:03:27Z</time>
      </trkpt>
      <trkpt lat="42.8131" lon="0.42855">
        <ele>1272.98</ele>
        <time>2018-08-11T11:03:29Z</time>
      </trkpt>
      <trkpt lat="42.81311" lon="0.42815">
        <ele>1267.39</ele>
        <time>2018-08-11T11:03:32Z</time>
      </trkpt>
      <trkpt lat="42.81294" lon="0.42794">
        <ele>1262.03</ele>
        <time>2018-08-11T11:03:34Z</time>
      </trkpt>
      <trkpt lat="42.81269" lon="0.42788">
        <ele>1259.73</ele>
        <time>2018-08-11T11:03:36Z</time>
      </trkpt>
      <trkpt lat="42.81243" lon="0.4277">
        <ele>1257.7</ele>
        <time>2018-08-11T11:03:38Z</time>
      </trkpt>
      <trkpt lat="42.81221" lon="0.42738">
        <ele>1250.87</ele>
        <time>2018-08-11T11:03:40Z</time>
      </trkpt>
      <trkpt lat="42.81201" lon="0.42702">
        <ele>1245.28</ele>
        <time>2018-08-11T11:03:42Z</time>
      </trkpt>
      <trkpt lat="42.81191" lon="0.42681">
        <ele>1241.77</ele>
        <time>2018-08-11T11:03:43Z</time>
      </trkpt>
      <trkpt lat="42.81183" lon="0.42657">
        <ele>1238.62</ele>
        <time>2018-08-11T11:03:44Z</time>
      </trkpt>
      <trkpt lat="42.81181" lon="0.42632">
        <ele>1235.57</ele>
        <time>2018-08-11T11:03:45Z</time>
      </trkpt>
      <trkpt lat="42.81175" lon="0.42607">
        <ele>1233.26</ele>
        <time>2018-08-11T11:03:46Z</time>
      </trkpt>
      <trkpt lat="42.81169" lon="0.42584">
        <ele>1229.76</ele>
        <time>2018-08-11T11:03:47Z</time>
      </trkpt>
      <trkpt lat="42.8115" lon="0.42544">
        <ele>1225.39</ele>
        <time>2018-08-11T11:03:49Z</time>
      </trkpt>
      <trkpt lat="42.81124" lon="0.42515">
        <ele>1221.85</ele>
        <time>2018-08-11T11:03:51Z</time>
      </trkpt>
      <trkpt lat="42.81095" lon="0.42497">
        <ele>1220.41</ele>
        <time>2018-08-11T11:03:53Z</time>
      </trkpt>
      <trkpt lat="42.81076" lon="0.42481">
        <ele>1219.58</ele>
        <time>2018-08-11T11:03:55Z</time>
      </trkpt>
      <trkpt lat="42.81057" lon="0.42458">
        <ele>1218.39</ele>
        <time>2018-08-11T11:03:57Z</time>
      </trkpt>
      <trkpt lat="42.81056" lon="0.42419">
        <ele>1215.48</ele>
        <time>2018-08-11T11:03:59Z</time>
      </trkpt>
      <trkpt lat="42.8104" lon="0.42381">
        <ele>1212.56</ele>
        <time>2018-08-11T11:04:01Z</time>
      </trkpt>
      <trkpt lat="42.8103" lon="0.42359">
        <ele>1209.55</ele>
        <time>2018-08-11T11:04:02Z</time>
      </trkpt>
      <trkpt lat="42.81019" lon="0.42337">
        <ele>1205.85</ele>
        <time>2018-08-11T11:04:03Z</time>
      </trkpt>
      <trkpt lat="42.81009" lon="0.42314">
        <ele>1203.34</ele>
        <time>2018-08-11T11:04:04Z</time>
      </trkpt>
      <trkpt lat="42.81" lon="0.42292">
        <ele>1200.49</ele>
        <time>2018-08-11T11:04:05Z</time>
      </trkpt>
      <trkpt lat="42.8099" lon="0.4227">
        <ele>1198.93</ele>
        <time>2018-08-11T11:04:06Z</time>
      </trkpt>
      <trkpt lat="42.80981" lon="0.42247">
        <ele>1197.77</ele>
        <time>2018-08-11T11:04:07Z</time>
      </trkpt>
      <trkpt lat="42.80966" lon="0.42233">
        <ele>1197.42</ele>
        <time>2018-08-11T11:04:08Z</time>
      </trkpt>
      <trkpt lat="42.80937" lon="0.42215">
        <ele>1195.18</ele>
        <time>2018-08-11T11:04:10Z</time>
      </trkpt>
      <trkpt lat="42.80912" lon="0.42191">
        <ele>1195.26</ele>
        <time>2018-08-11T11:04:12Z</time>
      </trkpt>
      <trkpt lat="42.80892" lon="0.42167">
        <ele>1194.78</ele>
        <time>2018-08-11T11:04:14Z</time>
      </trkpt>
      <trkpt lat="42.80882" lon="0.42145">
        <ele>1194.1</ele>
        <time>2018-08-11T11:04:16Z</time>
      </trkpt>
      <trkpt lat="42.80903" lon="0.4214">
        <ele>1190.75</ele>
        <time>2018-08-11T11:04:20Z</time>
      </trkpt>
      <trkpt lat="42.80914" lon="0.42161">
        <ele>1190.31</ele>
        <time>2018-08-11T11:04:22Z</time>
      </trkpt>
      <trkpt lat="42.80932" lon="0.42179">
        <ele>1188.87</ele>
        <time>2018-08-11T11:04:24Z</time>
      </trkpt>
      <trkpt lat="42.80965" lon="0.4218">
        <ele>1189.93</ele>
        <time>2018-08-11T11:04:26Z</time>
      </trkpt>
      <trkpt lat="42.80998" lon="0.42184">
        <ele>1189.33</ele>
        <time>2018-08-11T11:04:28Z</time>
      </trkpt>
      <trkpt lat="42.81032" lon="0.42198">
        <ele>1189.76</ele>
        <time>2018-08-11T11:04:30Z</time>
      </trkpt>
      <trkpt lat="42.81063" lon="0.42225">
        <ele>1188.12</ele>
        <time>2018-08-11T11:04:32Z</time>
      </trkpt>
      <trkpt lat="42.81079" lon="0.42239">
        <ele>1186.82</ele>
        <time>2018-08-11T11:04:33Z</time>
      </trkpt>
      <trkpt lat="42.81095" lon="0.42253">
        <ele>1185.73</ele>
        <time>2018-08-11T11:04:34Z</time>
      </trkpt>
      <trkpt lat="42.81112" lon="0.42266">
        <ele>1184.01</ele>
        <time>2018-08-11T11:04:35Z</time>
      </trkpt>
      <trkpt lat="42.81147" lon="0.42285">
        <ele>1178.29</ele>
        <time>2018-08-11T11:04:37Z</time>
      </trkpt>
      <trkpt lat="42.81165" lon="0.42295">
        <ele>1176.88</ele>
        <time>2018-08-11T11:04:38Z</time>
      </trkpt>
      <trkpt lat="42.81194" lon="0.42308">
        <ele>1174.92</ele>
        <time>2018-08-11T11:04:40Z</time>
      </trkpt>
      <trkpt lat="42.81223" lon="0.42322">
        <ele>1174.33</ele>
        <time>2018-08-11T11:04:42Z</time>
      </trkpt>
      <trkpt lat="42.81252" lon="0.42335">
        <ele>1170.84</ele>
        <time>2018-08-11T11:04:44Z</time>
      </trkpt>
      <trkpt lat="42.81279" lon="0.4235">
        <ele>1168.71</ele>
        <time>2018-08-11T11:04:46Z</time>
      </trkpt>
      <trkpt lat="42.81306" lon="0.42362">
        <ele>1165.58</ele>
        <time>2018-08-11T11:04:48Z</time>
      </trkpt>
      <trkpt lat="42.81329" lon="0.42362">
        <ele>1162.98</ele>
        <time>2018-08-11T11:04:50Z</time>
      </trkpt>
      <trkpt lat="42.81352" lon="0.42349">
        <ele>1159.81</ele>
        <time>2018-08-11T11:04:52Z</time>
      </trkpt>
      <trkpt lat="42.81376" lon="0.42314">
        <ele>1154.98</ele>
        <time>2018-08-11T11:04:54Z</time>
      </trkpt>
      <trkpt lat="42.81385" lon="0.42283">
        <ele>1150.98</ele>
        <time>2018-08-11T11:04:55Z</time>
      </trkpt>
      <trkpt lat="42.81396" lon="0.42259">
        <ele>1146.98</ele>
        <time>2018-08-11T11:04:56Z</time>
      </trkpt>
      <trkpt lat="42.81406" lon="0.42236">
        <ele>1145.78</ele>
        <time>2018-08-11T11:04:57Z</time>
      </trkpt>
      <trkpt lat="42.81417" lon="0.42213">
        <ele>1144.72</ele>
        <time>2018-08-11T11:04:58Z</time>
      </trkpt>
      <trkpt lat="42.81442" lon="0.42176">
        <ele>1138.78</ele>
        <time>2018-08-11T11:05:00Z</time>
      </trkpt>
      <trkpt lat="42.81471" lon="0.42148">
        <ele>1130.05</ele>
        <time>2018-08-11T11:05:02Z</time>
      </trkpt>
      <trkpt lat="42.81488" lon="0.42137">
        <ele>1126.7</ele>
        <time>2018-08-11T11:05:03Z</time>
      </trkpt>
      <trkpt lat="42.81506" lon="0.42126">
        <ele>1125</ele>
        <time>2018-08-11T11:05:04Z</time>
      </trkpt>
      <trkpt lat="42.81523" lon="0.42116">
        <ele>1124.49</ele>
        <time>2018-08-11T11:05:05Z</time>
      </trkpt>
      <trkpt lat="42.81542" lon="0.42109">
        <ele>1124.33</ele>
        <time>2018-08-11T11:05:06Z</time>
      </trkpt>
      <trkpt lat="42.81561" lon="0.42101">
        <ele>1124.29</ele>
        <time>2018-08-11T11:05:07Z</time>
      </trkpt>
      <trkpt lat="42.81595" lon="0.42091">
        <ele>1124.27</ele>
        <time>2018-08-11T11:05:09Z</time>
      </trkpt>
      <trkpt lat="42.81611" lon="0.42078">
        <ele>1122.87</ele>
        <time>2018-08-11T11:05:10Z</time>
      </trkpt>
      <trkpt lat="42.81627" lon="0.42063">
        <ele>1119.65</ele>
        <time>2018-08-11T11:05:11Z</time>
      </trkpt>
      <trkpt lat="42.81642" lon="0.42045">
        <ele>1117.28</ele>
        <time>2018-08-11T11:05:12Z</time>
      </trkpt>
      <trkpt lat="42.81658" lon="0.42029">
        <ele>1115.87</ele>
        <time>2018-08-11T11:05:13Z</time>
      </trkpt>
      <trkpt lat="42.81674" lon="0.42013">
        <ele>1115.45</ele>
        <time>2018-08-11T11:05:14Z</time>
      </trkpt>
      <trkpt lat="42.81689" lon="0.41999">
        <ele>1112.52</ele>
        <time>2018-08-11T11:05:15Z</time>
      </trkpt>
      <trkpt lat="42.81706" lon="0.41985">
        <ele>1107.44</ele>
        <time>2018-08-11T11:05:16Z</time>
      </trkpt>
      <trkpt lat="42.81724" lon="0.41975">
        <ele>1103.12</ele>
        <time>2018-08-11T11:05:17Z</time>
      </trkpt>
      <trkpt lat="42.81741" lon="0.41964">
        <ele>1101.12</ele>
        <time>2018-08-11T11:05:18Z</time>
      </trkpt>
      <trkpt lat="42.81759" lon="0.41957">
        <ele>1099.82</ele>
        <time>2018-08-11T11:05:19Z</time>
      </trkpt>
      <trkpt lat="42.81777" lon="0.41949">
        <ele>1099.43</ele>
        <time>2018-08-11T11:05:20Z</time>
      </trkpt>
      <trkpt lat="42.81794" lon="0.41942">
        <ele>1098.62</ele>
        <time>2018-08-11T11:05:21Z</time>
      </trkpt>
      <trkpt lat="42.81812" lon="0.41933">
        <ele>1096.97</ele>
        <time>2018-08-11T11:05:22Z</time>
      </trkpt>
      <trkpt lat="42.81831" lon="0.41925">
        <ele>1095.78</ele>
        <time>2018-08-11T11:05:23Z</time>
      </trkpt>
      <trkpt lat="42.81849" lon="0.41917">
        <ele>1095.42</ele>
        <time>2018-08-11T11:05:24Z</time>
      </trkpt>
      <trkpt lat="42.81868" lon="0.41908">
        <ele>1094.61</ele>
        <time>2018-08-11T11:05:25Z</time>
      </trkpt>
      <trkpt lat="42.81885" lon="0.41897">
        <ele>1093.67</ele>
        <time>2018-08-11T11:05:26Z</time>
      </trkpt>
      <trkpt lat="42.81902" lon="0.41886">
        <ele>1091.99</ele>
        <time>2018-08-11T11:05:27Z</time>
      </trkpt>
      <trkpt lat="42.8193" lon="0.41857">
        <ele>1087.9</ele>
        <time>2018-08-11T11:05:29Z</time>
      </trkpt>
      <trkpt lat="42.8196" lon="0.4183">
        <ele>1077.87</ele>
        <time>2018-08-11T11:05:31Z</time>
      </trkpt>
      <trkpt lat="42.81992" lon="0.41809">
        <ele>1072.98</ele>
        <time>2018-08-11T11:05:33Z</time>
      </trkpt>
      <trkpt lat="42.8201" lon="0.41797">
        <ele>1068.28</ele>
        <time>2018-08-11T11:05:34Z</time>
      </trkpt>
      <trkpt lat="42.82026" lon="0.41783">
        <ele>1064.07</ele>
        <time>2018-08-11T11:05:35Z</time>
      </trkpt>
      <trkpt lat="42.82041" lon="0.41769">
        <ele>1060.71</ele>
        <time>2018-08-11T11:05:36Z</time>
      </trkpt>
      <trkpt lat="42.82074" lon="0.41749">
        <ele>1056.18</ele>
        <time>2018-08-11T11:05:38Z</time>
      </trkpt>
      <trkpt lat="42.82091" lon="0.4174">
        <ele>1054.14</ele>
        <time>2018-08-11T11:05:39Z</time>
      </trkpt>
      <trkpt lat="42.82124" lon="0.41721">
        <ele>1051.74</ele>
        <time>2018-08-11T11:05:41Z</time>
      </trkpt>
      <trkpt lat="42.82158" lon="0.41701">
        <ele>1048.3</ele>
        <time>2018-08-11T11:05:43Z</time>
      </trkpt>
      <trkpt lat="42.82174" lon="0.41687">
        <ele>1046.18</ele>
        <time>2018-08-11T11:05:44Z</time>
      </trkpt>
      <trkpt lat="42.82193" lon="0.41674">
        <ele>1043.44</ele>
        <time>2018-08-11T11:05:45Z</time>
      </trkpt>
      <trkpt lat="42.82225" lon="0.41652">
        <ele>1040.06</ele>
        <time>2018-08-11T11:05:47Z</time>
      </trkpt>
      <trkpt lat="42.82242" lon="0.41643">
        <ele>1039.51</ele>
        <time>2018-08-11T11:05:48Z</time>
      </trkpt>
      <trkpt lat="42.82258" lon="0.4163">
        <ele>1038.64</ele>
        <time>2018-08-11T11:05:49Z</time>
      </trkpt>
      <trkpt lat="42.82289" lon="0.41608">
        <ele>1037.6</ele>
        <time>2018-08-11T11:05:51Z</time>
      </trkpt>
      <trkpt lat="42.82316" lon="0.41593">
        <ele>1038</ele>
        <time>2018-08-11T11:05:53Z</time>
      </trkpt>
      <trkpt lat="42.82336" lon="0.41576">
        <ele>1035.93</ele>
        <time>2018-08-11T11:05:55Z</time>
      </trkpt>
      <trkpt lat="42.82352" lon="0.41552">
        <ele>1033.72</ele>
        <time>2018-08-11T11:05:57Z</time>
      </trkpt>
      <trkpt lat="42.82366" lon="0.41526">
        <ele>1031</ele>
        <time>2018-08-11T11:05:59Z</time>
      </trkpt>
      <trkpt lat="42.82377" lon="0.41507">
        <ele>1028.72</ele>
        <time>2018-08-11T11:06:01Z</time>
      </trkpt>
      <trkpt lat="42.82395" lon="0.41486">
        <ele>1027.31</ele>
        <time>2018-08-11T11:06:04Z</time>
      </trkpt>
      <trkpt lat="42.82412" lon="0.41474">
        <ele>1022.99</ele>
        <time>2018-08-11T11:06:07Z</time>
      </trkpt>
      <trkpt lat="42.82396" lon="0.41455">
        <ele>1015.61</ele>
        <time>2018-08-11T11:06:12Z</time>
      </trkpt>
      <trkpt lat="42.82379" lon="0.41471">
        <ele>1016.21</ele>
        <time>2018-08-11T11:06:14Z</time>
      </trkpt>
      <trkpt lat="42.82357" lon="0.41494">
        <ele>1021.37</ele>
        <time>2018-08-11T11:06:16Z</time>
      </trkpt>
      <trkpt lat="42.82333" lon="0.41514">
        <ele>1022.19</ele>
        <time>2018-08-11T11:06:18Z</time>
      </trkpt>
      <trkpt lat="42.82302" lon="0.41532">
        <ele>1023.45</ele>
        <time>2018-08-11T11:06:20Z</time>
      </trkpt>
      <trkpt lat="42.8227" lon="0.41552">
        <ele>1022.58</ele>
        <time>2018-08-11T11:06:22Z</time>
      </trkpt>
      <trkpt lat="42.82253" lon="0.41562">
        <ele>1023.06</ele>
        <time>2018-08-11T11:06:23Z</time>
      </trkpt>
      <trkpt lat="42.82221" lon="0.41581">
        <ele>1023.25</ele>
        <time>2018-08-11T11:06:25Z</time>
      </trkpt>
      <trkpt lat="42.82193" lon="0.41596">
        <ele>1022.57</ele>
        <time>2018-08-11T11:06:27Z</time>
      </trkpt>
      <trkpt lat="42.82167" lon="0.41596">
        <ele>1022.29</ele>
        <time>2018-08-11T11:06:29Z</time>
      </trkpt>
      <trkpt lat="42.82144" lon="0.41588">
        <ele>1020.45</ele>
        <time>2018-08-11T11:06:31Z</time>
      </trkpt>
      <trkpt lat="42.82126" lon="0.4158">
        <ele>1020.28</ele>
        <time>2018-08-11T11:06:33Z</time>
      </trkpt>
      <trkpt lat="42.82107" lon="0.41569">
        <ele>1021.39</ele>
        <time>2018-08-11T11:06:35Z</time>
      </trkpt>
      <trkpt lat="42.82091" lon="0.41553">
        <ele>1021.49</ele>
        <time>2018-08-11T11:06:37Z</time>
      </trkpt>
      <trkpt lat="42.82071" lon="0.41541">
        <ele>1018.77</ele>
        <time>2018-08-11T11:06:39Z</time>
      </trkpt>
      <trkpt lat="42.82047" lon="0.41536">
        <ele>1017.4</ele>
        <time>2018-08-11T11:06:41Z</time>
      </trkpt>
      <trkpt lat="42.82024" lon="0.41534">
        <ele>1015.46</ele>
        <time>2018-08-11T11:06:43Z</time>
      </trkpt>
      <trkpt lat="42.82006" lon="0.41535">
        <ele>1015.49</ele>
        <time>2018-08-11T11:06:45Z</time>
      </trkpt>
      <trkpt lat="42.81985" lon="0.41537">
        <ele>979.24</ele>
        <time>2018-08-11T11:08:03Z</time>
      </trkpt>
      <trkpt lat="42.81965" lon="0.41544">
        <ele>983.73</ele>
        <time>2018-08-11T11:08:06Z</time>
      </trkpt>
      <trkpt lat="42.81941" lon="0.41549">
        <ele>983.49</ele>
        <time>2018-08-11T11:08:09Z</time>
      </trkpt>
      <trkpt lat="42.81915" lon="0.41554">
        <ele>982.64</ele>
        <time>2018-08-11T11:08:12Z</time>
      </trkpt>
      <trkpt lat="42.81887" lon="0.41549">
        <ele>980.6</ele>
        <time>2018-08-11T11:08:15Z</time>
      </trkpt>
      <trkpt lat="42.81868" lon="0.41527">
        <ele>980.09</ele>
        <time>2018-08-11T11:08:17Z</time>
      </trkpt>
      <trkpt lat="42.81872" lon="0.41491">
        <ele>982.07</ele>
        <time>2018-08-11T11:08:19Z</time>
      </trkpt>
      <trkpt lat="42.81854" lon="0.41469">
        <ele>981.35</ele>
        <time>2018-08-11T11:08:22Z</time>
      </trkpt>
      <trkpt lat="42.81832" lon="0.41475">
        <ele>981.27</ele>
        <time>2018-08-11T11:08:24Z</time>
      </trkpt>
      <trkpt lat="42.8181" lon="0.41489">
        <ele>981.48</ele>
        <time>2018-08-11T11:08:26Z</time>
      </trkpt>
      <trkpt lat="42.81782" lon="0.41499">
        <ele>981.99</ele>
        <time>2018-08-11T11:08:28Z</time>
      </trkpt>
      <trkpt lat="42.81755" lon="0.41514">
        <ele>981.54</ele>
        <time>2018-08-11T11:08:30Z</time>
      </trkpt>
      <trkpt lat="42.81734" lon="0.41514">
        <ele>979.47</ele>
        <time>2018-08-11T11:08:32Z</time>
      </trkpt>
      <trkpt lat="42.81714" lon="0.41494">
        <ele>979.97</ele>
        <time>2018-08-11T11:08:35Z</time>
      </trkpt>
      <trkpt lat="42.81714" lon="0.41454">
        <ele>982.55</ele>
        <time>2018-08-11T11:08:37Z</time>
      </trkpt>
      <trkpt lat="42.81719" lon="0.41425">
        <ele>982.35</ele>
        <time>2018-08-11T11:08:38Z</time>
      </trkpt>
      <trkpt lat="42.8172" lon="0.41389">
        <ele>979.05</ele>
        <time>2018-08-11T11:08:40Z</time>
      </trkpt>
      <trkpt lat="42.81716" lon="0.41361">
        <ele>976.73</ele>
        <time>2018-08-11T11:08:42Z</time>
      </trkpt>
      <trkpt lat="42.81685" lon="0.41369">
        <ele>972.63</ele>
        <time>2018-08-11T11:08:45Z</time>
      </trkpt>
      <trkpt lat="42.81663" lon="0.41375">
        <ele>968.66</ele>
        <time>2018-08-11T11:08:47Z</time>
      </trkpt>
      <trkpt lat="42.81644" lon="0.41361">
        <ele>966.69</ele>
        <time>2018-08-11T11:08:49Z</time>
      </trkpt>
      <trkpt lat="42.81639" lon="0.41337">
        <ele>964.67</ele>
        <time>2018-08-11T11:08:52Z</time>
      </trkpt>
      <trkpt lat="42.81625" lon="0.41318">
        <ele>952.89</ele>
        <time>2018-08-11T11:08:59Z</time>
      </trkpt>
      <trkpt lat="42.81605" lon="0.41317">
        <ele>939.18</ele>
        <time>2018-08-11T11:09:58Z</time>
      </trkpt>
      <trkpt lat="42.81581" lon="0.41319">
        <ele>943.52</ele>
        <time>2018-08-11T11:10:22Z</time>
      </trkpt>
      <trkpt lat="42.81563" lon="0.41323">
        <ele>944.2</ele>
        <time>2018-08-11T11:10:24Z</time>
      </trkpt>
      <trkpt lat="42.81541" lon="0.41341">
        <ele>941.89</ele>
        <time>2018-08-11T11:10:27Z</time>
      </trkpt>
      <trkpt lat="42.81524" lon="0.41361">
        <ele>943.14</ele>
        <time>2018-08-11T11:10:29Z</time>
      </trkpt>
      <trkpt lat="42.81506" lon="0.41379">
        <ele>945.57</ele>
        <time>2018-08-11T11:10:31Z</time>
      </trkpt>
      <trkpt lat="42.81485" lon="0.41393">
        <ele>946.41</ele>
        <time>2018-08-11T11:10:33Z</time>
      </trkpt>
      <trkpt lat="42.8146" lon="0.41396">
        <ele>946.28</ele>
        <time>2018-08-11T11:10:35Z</time>
      </trkpt>
      <trkpt lat="42.81436" lon="0.41395">
        <ele>945.78</ele>
        <time>2018-08-11T11:10:37Z</time>
      </trkpt>
      <trkpt lat="42.8141" lon="0.41393">
        <ele>943.7</ele>
        <time>2018-08-11T11:10:39Z</time>
      </trkpt>
      <trkpt lat="42.81386" lon="0.41387">
        <ele>944.22</ele>
        <time>2018-08-11T11:10:41Z</time>
      </trkpt>
      <trkpt lat="42.81361" lon="0.41366">
        <ele>943.35</ele>
        <time>2018-08-11T11:10:43Z</time>
      </trkpt>
      <trkpt lat="42.81342" lon="0.4134">
        <ele>943.97</ele>
        <time>2018-08-11T11:10:45Z</time>
      </trkpt>
      <trkpt lat="42.81344" lon="0.41303">
        <ele>946.55</ele>
        <time>2018-08-11T11:10:47Z</time>
      </trkpt>
      <trkpt lat="42.81343" lon="0.41256">
        <ele>946.29</ele>
        <time>2018-08-11T11:10:49Z</time>
      </trkpt>
      <trkpt lat="42.8134" lon="0.41209">
        <ele>947.88</ele>
        <time>2018-08-11T11:10:51Z</time>
      </trkpt>
      <trkpt lat="42.81336" lon="0.41184">
        <ele>948.15</ele>
        <time>2018-08-11T11:10:52Z</time>
      </trkpt>
      <trkpt lat="42.81332" lon="0.41158">
        <ele>947.53</ele>
        <time>2018-08-11T11:10:53Z</time>
      </trkpt>
      <trkpt lat="42.81331" lon="0.41133">
        <ele>947.35</ele>
        <time>2018-08-11T11:10:54Z</time>
      </trkpt>
      <trkpt lat="42.81329" lon="0.41106">
        <ele>946.59</ele>
        <time>2018-08-11T11:10:55Z</time>
      </trkpt>
      <trkpt lat="42.81326" lon="0.4108">
        <ele>945.66</ele>
        <time>2018-08-11T11:10:56Z</time>
      </trkpt>
      <trkpt lat="42.81322" lon="0.41036">
        <ele>946.21</ele>
        <time>2018-08-11T11:10:58Z</time>
      </trkpt>
      <trkpt lat="42.81316" lon="0.40993">
        <ele>945.84</ele>
        <time>2018-08-11T11:11:00Z</time>
      </trkpt>
      <trkpt lat="42.81308" lon="0.40961">
        <ele>947.84</ele>
        <time>2018-08-11T11:11:02Z</time>
      </trkpt>
      <trkpt lat="42.81285" lon="0.40947">
        <ele>948.23</ele>
        <time>2018-08-11T11:11:04Z</time>
      </trkpt>
      <trkpt lat="42.81256" lon="0.40937">
        <ele>949.17</ele>
        <time>2018-08-11T11:11:06Z</time>
      </trkpt>
      <trkpt lat="42.81227" lon="0.40922">
        <ele>948.14</ele>
        <time>2018-08-11T11:11:08Z</time>
      </trkpt>
      <trkpt lat="42.81201" lon="0.40906">
        <ele>949.87</ele>
        <time>2018-08-11T11:11:10Z</time>
      </trkpt>
      <trkpt lat="42.8118" lon="0.40895">
        <ele>951.63</ele>
        <time>2018-08-11T11:11:12Z</time>
      </trkpt>
      <trkpt lat="42.81172" lon="0.40927">
        <ele>954.99</ele>
        <time>2018-08-11T11:11:18Z</time>
      </trkpt>
      <trkpt lat="42.81161" lon="0.40952">
        <ele>956.15</ele>
        <time>2018-08-11T11:11:20Z</time>
      </trkpt>
      <trkpt lat="42.81145" lon="0.40975">
        <ele>955.07</ele>
        <time>2018-08-11T11:11:22Z</time>
      </trkpt>
      <trkpt lat="42.81129" lon="0.41007">
        <ele>954.34</ele>
        <time>2018-08-11T11:11:24Z</time>
      </trkpt>
      <trkpt lat="42.81111" lon="0.41042">
        <ele>952.45</ele>
        <time>2018-08-11T11:11:26Z</time>
      </trkpt>
      <trkpt lat="42.81093" lon="0.41078">
        <ele>954.59</ele>
        <time>2018-08-11T11:11:28Z</time>
      </trkpt>
      <trkpt lat="42.8108" lon="0.41107">
        <ele>958.43</ele>
        <time>2018-08-11T11:11:30Z</time>
      </trkpt>
      <trkpt lat="42.81061" lon="0.41102">
        <ele>959.33</ele>
        <time>2018-08-11T11:11:34Z</time>
      </trkpt>
      <trkpt lat="42.81083" lon="0.41068">
        <ele>961.91</ele>
        <time>2018-08-11T11:11:37Z</time>
      </trkpt>
      <trkpt lat="42.81098" lon="0.41037">
        <ele>961.54</ele>
        <time>2018-08-11T11:11:39Z</time>
      </trkpt>
      <trkpt lat="42.81111" lon="0.41003">
        <ele>961.78</ele>
        <time>2018-08-11T11:11:41Z</time>
      </trkpt>
      <trkpt lat="42.81123" lon="0.40971">
        <ele>963.41</ele>
        <time>2018-08-11T11:11:43Z</time>
      </trkpt>
      <trkpt lat="42.81124" lon="0.40944">
        <ele>964.89</ele>
        <time>2018-08-11T11:11:45Z</time>
      </trkpt>
      <trkpt lat="42.81111" lon="0.40927">
        <ele>967.33</ele>
        <time>2018-08-11T11:11:47Z</time>
      </trkpt>
      <trkpt lat="42.81081" lon="0.40926">
        <ele>968.18</ele>
        <time>2018-08-11T11:11:49Z</time>
      </trkpt>
      <trkpt lat="42.81053" lon="0.40927">
        <ele>970.57</ele>
        <time>2018-08-11T11:11:51Z</time>
      </trkpt>
      <trkpt lat="42.81027" lon="0.40927">
        <ele>969.59</ele>
        <time>2018-08-11T11:11:53Z</time>
      </trkpt>
      <trkpt lat="42.81004" lon="0.40934">
        <ele>969.09</ele>
        <time>2018-08-11T11:11:55Z</time>
      </trkpt>
      <trkpt lat="42.80986" lon="0.40941">
        <ele>968.55</ele>
        <time>2018-08-11T11:11:57Z</time>
      </trkpt>
      <trkpt lat="42.80975" lon="0.40961">
        <ele>974.84</ele>
        <time>2018-08-11T11:12:24Z</time>
      </trkpt>
      <trkpt lat="42.80954" lon="0.40979">
        <ele>977.71</ele>
        <time>2018-08-11T11:12:27Z</time>
      </trkpt>
      <trkpt lat="42.80934" lon="0.40992">
        <ele>980.53</ele>
        <time>2018-08-11T11:12:29Z</time>
      </trkpt>
      <trkpt lat="42.80911" lon="0.41006">
        <ele>979.59</ele>
        <time>2018-08-11T11:12:31Z</time>
      </trkpt>
      <trkpt lat="42.80883" lon="0.41018">
        <ele>980.21</ele>
        <time>2018-08-11T11:12:33Z</time>
      </trkpt>
      <trkpt lat="42.80854" lon="0.41033">
        <ele>980.96</ele>
        <time>2018-08-11T11:12:35Z</time>
      </trkpt>
      <trkpt lat="42.80827" lon="0.41053">
        <ele>981.94</ele>
        <time>2018-08-11T11:12:37Z</time>
      </trkpt>
      <trkpt lat="42.80804" lon="0.41077">
        <ele>983.15</ele>
        <time>2018-08-11T11:12:39Z</time>
      </trkpt>
      <trkpt lat="42.80777" lon="0.41099">
        <ele>984.38</ele>
        <time>2018-08-11T11:12:41Z</time>
      </trkpt>
      <trkpt lat="42.80748" lon="0.41117">
        <ele>985.89</ele>
        <time>2018-08-11T11:12:43Z</time>
      </trkpt>
      <trkpt lat="42.80721" lon="0.41138">
        <ele>987.14</ele>
        <time>2018-08-11T11:12:45Z</time>
      </trkpt>
      <trkpt lat="42.80692" lon="0.41159">
        <ele>988.38</ele>
        <time>2018-08-11T11:12:47Z</time>
      </trkpt>
      <trkpt lat="42.80665" lon="0.41182">
        <ele>985.76</ele>
        <time>2018-08-11T11:12:49Z</time>
      </trkpt>
      <trkpt lat="42.80643" lon="0.41207">
        <ele>982.09</ele>
        <time>2018-08-11T11:12:51Z</time>
      </trkpt>
      <trkpt lat="42.80624" lon="0.41229">
        <ele>978.82</ele>
        <time>2018-08-11T11:12:53Z</time>
      </trkpt>
      <trkpt lat="42.80603" lon="0.41234">
        <ele>978.11</ele>
        <time>2018-08-11T11:12:55Z</time>
      </trkpt>
      <trkpt lat="42.80583" lon="0.41225">
        <ele>978.04</ele>
        <time>2018-08-11T11:12:57Z</time>
      </trkpt>
      <trkpt lat="42.80564" lon="0.41219">
        <ele>978.25</ele>
        <time>2018-08-11T11:12:59Z</time>
      </trkpt>
      <trkpt lat="42.80545" lon="0.41215">
        <ele>978.97</ele>
        <time>2018-08-11T11:13:01Z</time>
      </trkpt>
      <trkpt lat="42.80524" lon="0.41209">
        <ele>977.14</ele>
        <time>2018-08-11T11:13:03Z</time>
      </trkpt>
      <trkpt lat="42.80503" lon="0.41206">
        <ele>977.96</ele>
        <time>2018-08-11T11:13:05Z</time>
      </trkpt>
      <trkpt lat="42.80482" lon="0.41196">
        <ele>976.42</ele>
        <time>2018-08-11T11:13:07Z</time>
      </trkpt>
      <trkpt lat="42.80462" lon="0.41179">
        <ele>975.37</ele>
        <time>2018-08-11T11:13:09Z</time>
      </trkpt>
      <trkpt lat="42.8044" lon="0.41164">
        <ele>974.79</ele>
        <time>2018-08-11T11:13:11Z</time>
      </trkpt>
      <trkpt lat="42.80416" lon="0.41162">
        <ele>973.61</ele>
        <time>2018-08-11T11:13:13Z</time>
      </trkpt>
      <trkpt lat="42.8039" lon="0.41165">
        <ele>970.78</ele>
        <time>2018-08-11T11:13:15Z</time>
      </trkpt>
      <trkpt lat="42.80363" lon="0.41163">
        <ele>969.4</ele>
        <time>2018-08-11T11:13:17Z</time>
      </trkpt>
      <trkpt lat="42.8034" lon="0.41149">
        <ele>967.18</ele>
        <time>2018-08-11T11:13:19Z</time>
      </trkpt>
      <trkpt lat="42.80318" lon="0.41134">
        <ele>963.83</ele>
        <time>2018-08-11T11:13:21Z</time>
      </trkpt>
      <trkpt lat="42.80294" lon="0.41116">
        <ele>962.41</ele>
        <time>2018-08-11T11:13:23Z</time>
      </trkpt>
      <trkpt lat="42.80266" lon="0.41104">
        <ele>962.07</ele>
        <time>2018-08-11T11:13:25Z</time>
      </trkpt>
      <trkpt lat="42.80239" lon="0.41094">
        <ele>959.94</ele>
        <time>2018-08-11T11:13:27Z</time>
      </trkpt>
      <trkpt lat="42.8021" lon="0.41092">
        <ele>960.24</ele>
        <time>2018-08-11T11:13:29Z</time>
      </trkpt>
      <trkpt lat="42.80182" lon="0.41095">
        <ele>960.96</ele>
        <time>2018-08-11T11:13:31Z</time>
      </trkpt>
      <trkpt lat="42.80156" lon="0.41101">
        <ele>960.05</ele>
        <time>2018-08-11T11:13:33Z</time>
      </trkpt>
      <trkpt lat="42.80128" lon="0.4111">
        <ele>960.25</ele>
        <time>2018-08-11T11:13:35Z</time>
      </trkpt>
      <trkpt lat="42.80101" lon="0.4112">
        <ele>961.18</ele>
        <time>2018-08-11T11:13:37Z</time>
      </trkpt>
      <trkpt lat="42.80075" lon="0.4113">
        <ele>962.17</ele>
        <time>2018-08-11T11:13:39Z</time>
      </trkpt>
      <trkpt lat="42.80041" lon="0.41127">
        <ele>960.86</ele>
        <time>2018-08-11T11:13:41Z</time>
      </trkpt>
      <trkpt lat="42.80023" lon="0.41123">
        <ele>959.04</ele>
        <time>2018-08-11T11:13:42Z</time>
      </trkpt>
      <trkpt lat="42.80005" lon="0.41117">
        <ele>958.5</ele>
        <time>2018-08-11T11:13:43Z</time>
      </trkpt>
      <trkpt lat="42.79972" lon="0.41102">
        <ele>960.11</ele>
        <time>2018-08-11T11:13:45Z</time>
      </trkpt>
      <trkpt lat="42.79946" lon="0.41094">
        <ele>960.95</ele>
        <time>2018-08-11T11:13:47Z</time>
      </trkpt>
      <trkpt lat="42.79935" lon="0.41068">
        <ele>960.92</ele>
        <time>2018-08-11T11:13:50Z</time>
      </trkpt>
      <trkpt lat="42.79934" lon="0.41044">
        <ele>960.54</ele>
        <time>2018-08-11T11:13:52Z</time>
      </trkpt>
      <trkpt lat="42.79921" lon="0.4102">
        <ele>960.29</ele>
        <time>2018-08-11T11:13:54Z</time>
      </trkpt>
      <trkpt lat="42.799" lon="0.41005">
        <ele>963.91</ele>
        <time>2018-08-11T11:13:56Z</time>
      </trkpt>
      <trkpt lat="42.79878" lon="0.40992">
        <ele>964.44</ele>
        <time>2018-08-11T11:13:58Z</time>
      </trkpt>
      <trkpt lat="42.79855" lon="0.40981">
        <ele>963.79</ele>
        <time>2018-08-11T11:14:00Z</time>
      </trkpt>
      <trkpt lat="42.79832" lon="0.4097">
        <ele>963.52</ele>
        <time>2018-08-11T11:14:02Z</time>
      </trkpt>
      <trkpt lat="42.7981" lon="0.40959">
        <ele>963.08</ele>
        <time>2018-08-11T11:14:04Z</time>
      </trkpt>
      <trkpt lat="42.79789" lon="0.4095">
        <ele>963.95</ele>
        <time>2018-08-11T11:14:06Z</time>
      </trkpt>
      <trkpt lat="42.79767" lon="0.4094">
        <ele>962.63</ele>
        <time>2018-08-11T11:14:08Z</time>
      </trkpt>
      <trkpt lat="42.79748" lon="0.40932">
        <ele>962.09</ele>
        <time>2018-08-11T11:14:10Z</time>
      </trkpt>
      <trkpt lat="42.7973" lon="0.40926">
        <ele>962.95</ele>
        <time>2018-08-11T11:14:12Z</time>
      </trkpt>
      <trkpt lat="42.79706" lon="0.40919">
        <ele>962.29</ele>
        <time>2018-08-11T11:14:15Z</time>
      </trkpt>
      <trkpt lat="42.79686" lon="0.40914">
        <ele>962.9</ele>
        <time>2018-08-11T11:14:18Z</time>
      </trkpt>
      <trkpt lat="42.79665" lon="0.40911">
        <ele>964.94</ele>
        <time>2018-08-11T11:14:22Z</time>
      </trkpt>
      <trkpt lat="42.79647" lon="0.40906">
        <ele>966.87</ele>
        <time>2018-08-11T11:14:25Z</time>
      </trkpt>
      <trkpt lat="42.79636" lon="0.40884">
        <ele>968.47</ele>
        <time>2018-08-11T11:14:29Z</time>
      </trkpt>
      <trkpt lat="42.7963" lon="0.40856">
        <ele>964.72</ele>
        <time>2018-08-11T11:14:32Z</time>
      </trkpt>
      <trkpt lat="42.79626" lon="0.40819">
        <ele>964.98</ele>
        <time>2018-08-11T11:14:35Z</time>
      </trkpt>
      <trkpt lat="42.79628" lon="0.4079">
        <ele>966.15</ele>
        <time>2018-08-11T11:14:37Z</time>
      </trkpt>
      <trkpt lat="42.79631" lon="0.40761">
        <ele>966.47</ele>
        <time>2018-08-11T11:14:39Z</time>
      </trkpt>
      <trkpt lat="42.79634" lon="0.40733">
        <ele>964.88</ele>
        <time>2018-08-11T11:14:41Z</time>
      </trkpt>
      <trkpt lat="42.79637" lon="0.40702">
        <ele>967.08</ele>
        <time>2018-08-11T11:14:44Z</time>
      </trkpt>
      <trkpt lat="42.79646" lon="0.40676">
        <ele>967.2</ele>
        <time>2018-08-11T11:14:47Z</time>
      </trkpt>
      <trkpt lat="42.79667" lon="0.40658">
        <ele>965.05</ele>
        <time>2018-08-11T11:14:50Z</time>
      </trkpt>
      <trkpt lat="42.79687" lon="0.40648">
        <ele>965.25</ele>
        <time>2018-08-11T11:14:52Z</time>
      </trkpt>
      <trkpt lat="42.79715" lon="0.40642">
        <ele>964.36</ele>
        <time>2018-08-11T11:14:54Z</time>
      </trkpt>
      <trkpt lat="42.79746" lon="0.40636">
        <ele>964.06</ele>
        <time>2018-08-11T11:14:56Z</time>
      </trkpt>
      <trkpt lat="42.79777" lon="0.40631">
        <ele>965.86</ele>
        <time>2018-08-11T11:14:58Z</time>
      </trkpt>
      <trkpt lat="42.79808" lon="0.40623">
        <ele>965.32</ele>
        <time>2018-08-11T11:15:00Z</time>
      </trkpt>
      <trkpt lat="42.79838" lon="0.40613">
        <ele>964.36</ele>
        <time>2018-08-11T11:15:02Z</time>
      </trkpt>
      <trkpt lat="42.79868" lon="0.40603">
        <ele>963.37</ele>
        <time>2018-08-11T11:15:04Z</time>
      </trkpt>
      <trkpt lat="42.79899" lon="0.40591">
        <ele>964.19</ele>
        <time>2018-08-11T11:15:06Z</time>
      </trkpt>
      <trkpt lat="42.79929" lon="0.40578">
        <ele>964.26</ele>
        <time>2018-08-11T11:15:08Z</time>
      </trkpt>
      <trkpt lat="42.79959" lon="0.4056">
        <ele>964.27</ele>
        <time>2018-08-11T11:15:10Z</time>
      </trkpt>
      <trkpt lat="42.79985" lon="0.40533">
        <ele>961.26</ele>
        <time>2018-08-11T11:15:12Z</time>
      </trkpt>
      <trkpt lat="42.80012" lon="0.40514">
        <ele>963.79</ele>
        <time>2018-08-11T11:15:14Z</time>
      </trkpt>
      <trkpt lat="42.80039" lon="0.40501">
        <ele>963.52</ele>
        <time>2018-08-11T11:15:16Z</time>
      </trkpt>
      <trkpt lat="42.8007" lon="0.40493">
        <ele>966.02</ele>
        <time>2018-08-11T11:15:18Z</time>
      </trkpt>
      <trkpt lat="42.80103" lon="0.40488">
        <ele>964.42</ele>
        <time>2018-08-11T11:15:20Z</time>
      </trkpt>
      <trkpt lat="42.80135" lon="0.4048">
        <ele>963.16</ele>
        <time>2018-08-11T11:15:22Z</time>
      </trkpt>
      <trkpt lat="42.80165" lon="0.40474">
        <ele>961.44</ele>
        <time>2018-08-11T11:15:24Z</time>
      </trkpt>
      <trkpt lat="42.8019" lon="0.4047">
        <ele>962.4</ele>
        <time>2018-08-11T11:15:26Z</time>
      </trkpt>
      <trkpt lat="42.80215" lon="0.40471">
        <ele>963.89</ele>
        <time>2018-08-11T11:15:28Z</time>
      </trkpt>
      <trkpt lat="42.8024" lon="0.40476">
        <ele>964.23</ele>
        <time>2018-08-11T11:15:30Z</time>
      </trkpt>
      <trkpt lat="42.80266" lon="0.40474">
        <ele>963.35</ele>
        <time>2018-08-11T11:15:32Z</time>
      </trkpt>
      <trkpt lat="42.80294" lon="0.40464">
        <ele>961.66</ele>
        <time>2018-08-11T11:15:34Z</time>
      </trkpt>
      <trkpt lat="42.80322" lon="0.40446">
        <ele>960.39</ele>
        <time>2018-08-11T11:15:36Z</time>
      </trkpt>
      <trkpt lat="42.8035" lon="0.40423">
        <ele>959.37</ele>
        <time>2018-08-11T11:15:38Z</time>
      </trkpt>
      <trkpt lat="42.80378" lon="0.40403">
        <ele>959.28</ele>
        <time>2018-08-11T11:15:40Z</time>
      </trkpt>
      <trkpt lat="42.80406" lon="0.40384">
        <ele>960.18</ele>
        <time>2018-08-11T11:15:42Z</time>
      </trkpt>
      <trkpt lat="42.80436" lon="0.40368">
        <ele>960.26</ele>
        <time>2018-08-11T11:15:44Z</time>
      </trkpt>
      <trkpt lat="42.80468" lon="0.4036">
        <ele>962.79</ele>
        <time>2018-08-11T11:15:46Z</time>
      </trkpt>
      <trkpt lat="42.80499" lon="0.40353">
        <ele>963.22</ele>
        <time>2018-08-11T11:15:48Z</time>
      </trkpt>
      <trkpt lat="42.80532" lon="0.4035">
        <ele>963.47</ele>
        <time>2018-08-11T11:15:50Z</time>
      </trkpt>
      <trkpt lat="42.80564" lon="0.40349">
        <ele>964.2</ele>
        <time>2018-08-11T11:15:52Z</time>
      </trkpt>
      <trkpt lat="42.80597" lon="0.40344">
        <ele>964.96</ele>
        <time>2018-08-11T11:15:54Z</time>
      </trkpt>
      <trkpt lat="42.80626" lon="0.40338">
        <ele>969.37</ele>
        <time>2018-08-11T11:15:56Z</time>
      </trkpt>
      <trkpt lat="42.80656" lon="0.40327">
        <ele>969.28</ele>
        <time>2018-08-11T11:15:58Z</time>
      </trkpt>
      <trkpt lat="42.80684" lon="0.40317">
        <ele>968.57</ele>
        <time>2018-08-11T11:16:00Z</time>
      </trkpt>
      <trkpt lat="42.80712" lon="0.40308">
        <ele>969.2</ele>
        <time>2018-08-11T11:16:02Z</time>
      </trkpt>
      <trkpt lat="42.80734" lon="0.403">
        <ele>969.05</ele>
        <time>2018-08-11T11:16:04Z</time>
      </trkpt>
      <trkpt lat="42.80753" lon="0.40293">
        <ele>969.95</ele>
        <time>2018-08-11T11:16:06Z</time>
      </trkpt>
      <trkpt lat="42.80771" lon="0.40287">
        <ele>969.75</ele>
        <time>2018-08-11T11:16:08Z</time>
      </trkpt>
      <trkpt lat="42.80794" lon="0.40284">
        <ele>969.52</ele>
        <time>2018-08-11T11:16:10Z</time>
      </trkpt>
      <trkpt lat="42.80817" lon="0.40276">
        <ele>970.2</ele>
        <time>2018-08-11T11:16:12Z</time>
      </trkpt>
      <trkpt lat="42.80841" lon="0.40264">
        <ele>970.96</ele>
        <time>2018-08-11T11:16:14Z</time>
      </trkpt>
      <trkpt lat="42.80863" lon="0.40246">
        <ele>970.54</ele>
        <time>2018-08-11T11:16:16Z</time>
      </trkpt>
      <trkpt lat="42.80885" lon="0.4023">
        <ele>970.29</ele>
        <time>2018-08-11T11:16:18Z</time>
      </trkpt>
      <trkpt lat="42.80904" lon="0.40214">
        <ele>971.18</ele>
        <time>2018-08-11T11:16:20Z</time>
      </trkpt>
      <trkpt lat="42.80919" lon="0.40199">
        <ele>971.96</ele>
        <time>2018-08-11T11:16:22Z</time>
      </trkpt>
      <trkpt lat="42.80919" lon="0.40169">
        <ele>971.77</ele>
        <time>2018-08-11T11:16:26Z</time>
      </trkpt>
      <trkpt lat="42.809" lon="0.40151">
        <ele>972.25</ele>
        <time>2018-08-11T11:16:29Z</time>
      </trkpt>
      <trkpt lat="42.8088" lon="0.40143">
        <ele>973.18</ele>
        <time>2018-08-11T11:16:31Z</time>
      </trkpt>
      <trkpt lat="42.80858" lon="0.40131">
        <ele>971.23</ele>
        <time>2018-08-11T11:16:33Z</time>
      </trkpt>
      <trkpt lat="42.80832" lon="0.40116">
        <ele>971.68</ele>
        <time>2018-08-11T11:16:35Z</time>
      </trkpt>
      <trkpt lat="42.80807" lon="0.401">
        <ele>970.18</ele>
        <time>2018-08-11T11:16:37Z</time>
      </trkpt>
      <trkpt lat="42.80785" lon="0.40082">
        <ele>970.26</ele>
        <time>2018-08-11T11:16:39Z</time>
      </trkpt>
      <trkpt lat="42.80762" lon="0.40058">
        <ele>971.88</ele>
        <time>2018-08-11T11:16:41Z</time>
      </trkpt>
      <trkpt lat="42.80743" lon="0.4003">
        <ele>972.23</ele>
        <time>2018-08-11T11:16:43Z</time>
      </trkpt>
      <trkpt lat="42.80727" lon="0.40011">
        <ele>971.56</ele>
        <time>2018-08-11T11:16:44Z</time>
      </trkpt>
      <trkpt lat="42.80698" lon="0.39986">
        <ele>973.6</ele>
        <time>2018-08-11T11:16:46Z</time>
      </trkpt>
      <trkpt lat="42.80669" lon="0.39973">
        <ele>975.61</ele>
        <time>2018-08-11T11:16:48Z</time>
      </trkpt>
      <trkpt lat="42.80637" lon="0.39971">
        <ele>976.21</ele>
        <time>2018-08-11T11:16:50Z</time>
      </trkpt>
      <trkpt lat="42.80605" lon="0.39971">
        <ele>979.69</ele>
        <time>2018-08-11T11:16:52Z</time>
      </trkpt>
      <trkpt lat="42.80577" lon="0.39975">
        <ele>982.04</ele>
        <time>2018-08-11T11:16:54Z</time>
      </trkpt>
      <trkpt lat="42.80562" lon="0.39998">
        <ele>984.3</ele>
        <time>2018-08-11T11:16:55Z</time>
      </trkpt>
      <trkpt lat="42.80531" lon="0.40025">
        <ele>988.4</ele>
        <time>2018-08-11T11:16:57Z</time>
      </trkpt>
      <trkpt lat="42.80515" lon="0.40038">
        <ele>989.71</ele>
        <time>2018-08-11T11:16:58Z</time>
      </trkpt>
      <trkpt lat="42.80498" lon="0.4005">
        <ele>991.5</ele>
        <time>2018-08-11T11:16:59Z</time>
      </trkpt>
      <trkpt lat="42.80482" lon="0.40065">
        <ele>993.44</ele>
        <time>2018-08-11T11:17:00Z</time>
      </trkpt>
      <trkpt lat="42.80449" lon="0.4008">
        <ele>995.59</ele>
        <time>2018-08-11T11:17:02Z</time>
      </trkpt>
      <trkpt lat="42.80416" lon="0.40087">
        <ele>997.61</ele>
        <time>2018-08-11T11:17:04Z</time>
      </trkpt>
      <trkpt lat="42.80383" lon="0.40085">
        <ele>1000.52</ele>
        <time>2018-08-11T11:17:06Z</time>
      </trkpt>
      <trkpt lat="42.80365" lon="0.40083">
        <ele>1001.74</ele>
        <time>2018-08-11T11:17:07Z</time>
      </trkpt>
      <trkpt lat="42.80345" lon="0.40083">
        <ele>1003.51</ele>
        <time>2018-08-11T11:17:08Z</time>
      </trkpt>
      <trkpt lat="42.80327" lon="0.40084">
        <ele>1004.74</ele>
        <time>2018-08-11T11:17:09Z</time>
      </trkpt>
      <trkpt lat="42.80307" lon="0.40087">
        <ele>1003.01</ele>
        <time>2018-08-11T11:17:10Z</time>
      </trkpt>
      <trkpt lat="42.80287" lon="0.4009">
        <ele>1002.49</ele>
        <time>2018-08-11T11:17:11Z</time>
      </trkpt>
      <trkpt lat="42.80267" lon="0.40091">
        <ele>1002.33</ele>
        <time>2018-08-11T11:17:12Z</time>
      </trkpt>
      <trkpt lat="42.80246" lon="0.40094">
        <ele>1002.29</ele>
        <time>2018-08-11T11:17:13Z</time>
      </trkpt>
      <trkpt lat="42.80228" lon="0.40098">
        <ele>1002.97</ele>
        <time>2018-08-11T11:17:14Z</time>
      </trkpt>
      <trkpt lat="42.80195" lon="0.40103">
        <ele>1005.76</ele>
        <time>2018-08-11T11:17:16Z</time>
      </trkpt>
      <trkpt lat="42.80173" lon="0.40104">
        <ele>1009.44</ele>
        <time>2018-08-11T11:17:18Z</time>
      </trkpt>
      <trkpt lat="42.8017" lon="0.40076">
        <ele>1015.78</ele>
        <time>2018-08-11T11:17:22Z</time>
      </trkpt>
      <trkpt lat="42.80194" lon="0.4006">
        <ele>1016.92</ele>
        <time>2018-08-11T11:17:24Z</time>
      </trkpt>
      <trkpt lat="42.80225" lon="0.40058">
        <ele>1017.86</ele>
        <time>2018-08-11T11:17:25Z</time>
      </trkpt>
      <trkpt lat="42.80246" lon="0.40053">
        <ele>1019.55</ele>
        <time>2018-08-11T11:17:26Z</time>
      </trkpt>
      <trkpt lat="42.80265" lon="0.40046">
        <ele>1021.45</ele>
        <time>2018-08-11T11:17:27Z</time>
      </trkpt>
      <trkpt lat="42.80283" lon="0.40036">
        <ele>1024.12</ele>
        <time>2018-08-11T11:17:28Z</time>
      </trkpt>
      <trkpt lat="42.80302" lon="0.40024">
        <ele>1026.32</ele>
        <time>2018-08-11T11:17:29Z</time>
      </trkpt>
      <trkpt lat="42.80321" lon="0.40013">
        <ele>1029.08</ele>
        <time>2018-08-11T11:17:30Z</time>
      </trkpt>
      <trkpt lat="42.80339" lon="0.40002">
        <ele>1030.61</ele>
        <time>2018-08-11T11:17:31Z</time>
      </trkpt>
      <trkpt lat="42.80358" lon="0.39992">
        <ele>1033.87</ele>
        <time>2018-08-11T11:17:32Z</time>
      </trkpt>
      <trkpt lat="42.80376" lon="0.39981">
        <ele>1036.25</ele>
        <time>2018-08-11T11:17:33Z</time>
      </trkpt>
      <trkpt lat="42.80394" lon="0.39966">
        <ele>1038.36</ele>
        <time>2018-08-11T11:17:34Z</time>
      </trkpt>
      <trkpt lat="42.8041" lon="0.39953">
        <ele>1041.1</ele>
        <time>2018-08-11T11:17:35Z</time>
      </trkpt>
      <trkpt lat="42.80436" lon="0.39932">
        <ele>1043.56</ele>
        <time>2018-08-11T11:17:37Z</time>
      </trkpt>
      <trkpt lat="42.80437" lon="0.39905">
        <ele>1052.68</ele>
        <time>2018-08-11T11:17:41Z</time>
      </trkpt>
      <trkpt lat="42.8041" lon="0.39923">
        <ele>1054.86</ele>
        <time>2018-08-11T11:17:44Z</time>
      </trkpt>
      <trkpt lat="42.80382" lon="0.39937">
        <ele>1059.15</ele>
        <time>2018-08-11T11:17:46Z</time>
      </trkpt>
      <trkpt lat="42.80348" lon="0.39946">
        <ele>1062.69</ele>
        <time>2018-08-11T11:17:48Z</time>
      </trkpt>
      <trkpt lat="42.80329" lon="0.39948">
        <ele>1065.19</ele>
        <time>2018-08-11T11:17:49Z</time>
      </trkpt>
      <trkpt lat="42.8031" lon="0.39951">
        <ele>1068.04</ele>
        <time>2018-08-11T11:17:50Z</time>
      </trkpt>
      <trkpt lat="42.8029" lon="0.39955">
        <ele>1070.3</ele>
        <time>2018-08-11T11:17:51Z</time>
      </trkpt>
      <trkpt lat="42.80269" lon="0.39961">
        <ele>1073.08</ele>
        <time>2018-08-11T11:17:52Z</time>
      </trkpt>
      <trkpt lat="42.80248" lon="0.39966">
        <ele>1074.61</ele>
        <time>2018-08-11T11:17:53Z</time>
      </trkpt>
      <trkpt lat="42.80229" lon="0.39972">
        <ele>1076.47</ele>
        <time>2018-08-11T11:17:54Z</time>
      </trkpt>
      <trkpt lat="42.80196" lon="0.39981">
        <ele>1079.72</ele>
        <time>2018-08-11T11:17:56Z</time>
      </trkpt>
      <trkpt lat="42.80174" lon="0.3999">
        <ele>1081.83</ele>
        <time>2018-08-11T11:17:58Z</time>
      </trkpt>
      <trkpt lat="42.80178" lon="0.39966">
        <ele>1084.84</ele>
        <time>2018-08-11T11:18:01Z</time>
      </trkpt>
      <trkpt lat="42.80208" lon="0.39957">
        <ele>1087.24</ele>
        <time>2018-08-11T11:18:02Z</time>
      </trkpt>
      <trkpt lat="42.80242" lon="0.39944">
        <ele>1092.3</ele>
        <time>2018-08-11T11:18:04Z</time>
      </trkpt>
      <trkpt lat="42.80262" lon="0.39933">
        <ele>1094.38</ele>
        <time>2018-08-11T11:18:05Z</time>
      </trkpt>
      <trkpt lat="42.80282" lon="0.39922">
        <ele>1097.1</ele>
        <time>2018-08-11T11:18:06Z</time>
      </trkpt>
      <trkpt lat="42.80302" lon="0.39909">
        <ele>1099.32</ele>
        <time>2018-08-11T11:18:07Z</time>
      </trkpt>
      <trkpt lat="42.80321" lon="0.39897">
        <ele>1101.38</ele>
        <time>2018-08-11T11:18:08Z</time>
      </trkpt>
      <trkpt lat="42.80338" lon="0.39885">
        <ele>1104.1</ele>
        <time>2018-08-11T11:18:09Z</time>
      </trkpt>
      <trkpt lat="42.80361" lon="0.39865">
        <ele>1108.17</ele>
        <time>2018-08-11T11:18:11Z</time>
      </trkpt>
      <trkpt lat="42.8038" lon="0.39847">
        <ele>1110.08</ele>
        <time>2018-08-11T11:18:13Z</time>
      </trkpt>
      <trkpt lat="42.804" lon="0.39829">
        <ele>1111.86</ele>
        <time>2018-08-11T11:18:15Z</time>
      </trkpt>
      <trkpt lat="42.80381" lon="0.39827">
        <ele>1110.83</ele>
        <time>2018-08-11T11:18:17Z</time>
      </trkpt>
      <trkpt lat="42.80358" lon="0.39837">
        <ele>1109.74</ele>
        <time>2018-08-11T11:18:18Z</time>
      </trkpt>
      <trkpt lat="42.80331" lon="0.39846">
        <ele>1110.11</ele>
        <time>2018-08-11T11:18:19Z</time>
      </trkpt>
      <trkpt lat="42.80296" lon="0.3985">
        <ele>1110.92</ele>
        <time>2018-08-11T11:18:20Z</time>
      </trkpt>
      <trkpt lat="42.80271" lon="0.3986">
        <ele>1111.86</ele>
        <time>2018-08-11T11:18:21Z</time>
      </trkpt>
      <trkpt lat="42.80248" lon="0.39867">
        <ele>1114.95</ele>
        <time>2018-08-11T11:18:22Z</time>
      </trkpt>
      <trkpt lat="42.80228" lon="0.39871">
        <ele>1117.97</ele>
        <time>2018-08-11T11:18:23Z</time>
      </trkpt>
      <trkpt lat="42.80197" lon="0.39882">
        <ele>1123.56</ele>
        <time>2018-08-11T11:18:25Z</time>
      </trkpt>
      <trkpt lat="42.80179" lon="0.39887">
        <ele>1127.84</ele>
        <time>2018-08-11T11:18:27Z</time>
      </trkpt>
      <trkpt lat="42.80192" lon="0.39856">
        <ele>1131.87</ele>
        <time>2018-08-11T11:18:32Z</time>
      </trkpt>
      <trkpt lat="42.80216" lon="0.39855">
        <ele>1132.85</ele>
        <time>2018-08-11T11:18:33Z</time>
      </trkpt>
      <trkpt lat="42.80248" lon="0.39835">
        <ele>1135.33</ele>
        <time>2018-08-11T11:18:35Z</time>
      </trkpt>
      <trkpt lat="42.80273" lon="0.39812">
        <ele>1139.89</ele>
        <time>2018-08-11T11:18:37Z</time>
      </trkpt>
      <trkpt lat="42.8029" lon="0.39775">
        <ele>1147.58</ele>
        <time>2018-08-11T11:18:39Z</time>
      </trkpt>
      <trkpt lat="42.80304" lon="0.39754">
        <ele>1150.86</ele>
        <time>2018-08-11T11:18:40Z</time>
      </trkpt>
      <trkpt lat="42.80317" lon="0.39734">
        <ele>1152.55</ele>
        <time>2018-08-11T11:18:41Z</time>
      </trkpt>
      <trkpt lat="42.80334" lon="0.39713">
        <ele>1153.75</ele>
        <time>2018-08-11T11:18:42Z</time>
      </trkpt>
      <trkpt lat="42.80349" lon="0.39691">
        <ele>1154.11</ele>
        <time>2018-08-11T11:18:43Z</time>
      </trkpt>
      <trkpt lat="42.80368" lon="0.39668">
        <ele>1155.62</ele>
        <time>2018-08-11T11:18:44Z</time>
      </trkpt>
      <trkpt lat="42.80383" lon="0.39644">
        <ele>1156.07</ele>
        <time>2018-08-11T11:18:45Z</time>
      </trkpt>
      <trkpt lat="42.80397" lon="0.39628">
        <ele>1156.21</ele>
        <time>2018-08-11T11:18:46Z</time>
      </trkpt>
      <trkpt lat="42.8042" lon="0.39605">
        <ele>1156.26</ele>
        <time>2018-08-11T11:18:48Z</time>
      </trkpt>
      <trkpt lat="42.80422" lon="0.39577">
        <ele>1157.65</ele>
        <time>2018-08-11T11:18:52Z</time>
      </trkpt>
      <trkpt lat="42.804" lon="0.39581">
        <ele>1158.25</ele>
        <time>2018-08-11T11:18:55Z</time>
      </trkpt>
      <trkpt lat="42.80373" lon="0.396">
        <ele>1159.66</ele>
        <time>2018-08-11T11:18:56Z</time>
      </trkpt>
      <trkpt lat="42.80356" lon="0.39609">
        <ele>1159.39</ele>
        <time>2018-08-11T11:18:57Z</time>
      </trkpt>
      <trkpt lat="42.80336" lon="0.39621">
        <ele>1160</ele>
        <time>2018-08-11T11:18:58Z</time>
      </trkpt>
      <trkpt lat="42.80318" lon="0.39627">
        <ele>1162.29</ele>
        <time>2018-08-11T11:18:59Z</time>
      </trkpt>
      <trkpt lat="42.80287" lon="0.3965">
        <ele>1166.68</ele>
        <time>2018-08-11T11:19:01Z</time>
      </trkpt>
      <trkpt lat="42.80269" lon="0.39662">
        <ele>1169.19</ele>
        <time>2018-08-11T11:19:02Z</time>
      </trkpt>
      <trkpt lat="42.80251" lon="0.39675">
        <ele>1172.04</ele>
        <time>2018-08-11T11:19:03Z</time>
      </trkpt>
      <trkpt lat="42.80232" lon="0.39685">
        <ele>1175.7</ele>
        <time>2018-08-11T11:19:04Z</time>
      </trkpt>
      <trkpt lat="42.80215" lon="0.39697">
        <ele>1180.3</ele>
        <time>2018-08-11T11:19:05Z</time>
      </trkpt>
      <trkpt lat="42.80197" lon="0.3971">
        <ele>1184.48</ele>
        <time>2018-08-11T11:19:06Z</time>
      </trkpt>
      <trkpt lat="42.80181" lon="0.39725">
        <ele>1188.53</ele>
        <time>2018-08-11T11:19:07Z</time>
      </trkpt>
      <trkpt lat="42.80165" lon="0.39739">
        <ele>1191.85</ele>
        <time>2018-08-11T11:19:08Z</time>
      </trkpt>
      <trkpt lat="42.80137" lon="0.39753">
        <ele>1198.88</ele>
        <time>2018-08-11T11:19:10Z</time>
      </trkpt>
      <trkpt lat="42.80116" lon="0.39757">
        <ele>1203.36</ele>
        <time>2018-08-11T11:19:12Z</time>
      </trkpt>
      <trkpt lat="42.80113" lon="0.39732">
        <ele>1207.74</ele>
        <time>2018-08-11T11:19:15Z</time>
      </trkpt>
      <trkpt lat="42.80132" lon="0.39712">
        <ele>1211.44</ele>
        <time>2018-08-11T11:19:17Z</time>
      </trkpt>
      <trkpt lat="42.8015" lon="0.39683">
        <ele>1215.9</ele>
        <time>2018-08-11T11:19:19Z</time>
      </trkpt>
      <trkpt lat="42.80174" lon="0.39655">
        <ele>1218.96</ele>
        <time>2018-08-11T11:19:21Z</time>
      </trkpt>
      <trkpt lat="42.80199" lon="0.3963">
        <ele>1219.45</ele>
        <time>2018-08-11T11:19:23Z</time>
      </trkpt>
      <trkpt lat="42.80216" lon="0.39599">
        <ele>1221.8</ele>
        <time>2018-08-11T11:19:25Z</time>
      </trkpt>
      <trkpt lat="42.80231" lon="0.3957">
        <ele>1223.84</ele>
        <time>2018-08-11T11:19:27Z</time>
      </trkpt>
      <trkpt lat="42.80241" lon="0.39545">
        <ele>1224.23</ele>
        <time>2018-08-11T11:19:29Z</time>
      </trkpt>
      <trkpt lat="42.80236" lon="0.3952">
        <ele>1224.26</ele>
        <time>2018-08-11T11:19:31Z</time>
      </trkpt>
      <trkpt lat="42.80216" lon="0.39524">
        <ele>1225.18</ele>
        <time>2018-08-11T11:19:33Z</time>
      </trkpt>
      <trkpt lat="42.80193" lon="0.39536">
        <ele>1225.24</ele>
        <time>2018-08-11T11:19:34Z</time>
      </trkpt>
      <trkpt lat="42.80173" lon="0.39564">
        <ele>1225.96</ele>
        <time>2018-08-11T11:19:35Z</time>
      </trkpt>
      <trkpt lat="42.80157" lon="0.39583">
        <ele>1228.27</ele>
        <time>2018-08-11T11:19:36Z</time>
      </trkpt>
      <trkpt lat="42.80139" lon="0.396">
        <ele>1231.77</ele>
        <time>2018-08-11T11:19:37Z</time>
      </trkpt>
      <trkpt lat="42.80122" lon="0.39612">
        <ele>1235.62</ele>
        <time>2018-08-11T11:19:38Z</time>
      </trkpt>
      <trkpt lat="42.80104" lon="0.39624">
        <ele>1239.57</ele>
        <time>2018-08-11T11:19:39Z</time>
      </trkpt>
      <trkpt lat="42.80077" lon="0.39644">
        <ele>1245.45</ele>
        <time>2018-08-11T11:19:41Z</time>
      </trkpt>
      <trkpt lat="42.80058" lon="0.39655">
        <ele>1249.41</ele>
        <time>2018-08-11T11:19:43Z</time>
      </trkpt>
      <trkpt lat="42.8004" lon="0.39643">
        <ele>1253.07</ele>
        <time>2018-08-11T11:19:47Z</time>
      </trkpt>
      <trkpt lat="42.80083" lon="0.3957">
        <ele>1254.66</ele>
        <time>2018-08-11T11:19:50Z</time>
      </trkpt>
      <trkpt lat="42.80102" lon="0.39551">
        <ele>1259.29</ele>
        <time>2018-08-11T11:19:51Z</time>
      </trkpt>
      <trkpt lat="42.80118" lon="0.39533">
        <ele>1261.37</ele>
        <time>2018-08-11T11:19:52Z</time>
      </trkpt>
      <trkpt lat="42.80135" lon="0.39516">
        <ele>1262.7</ele>
        <time>2018-08-11T11:19:53Z</time>
      </trkpt>
      <trkpt lat="42.80157" lon="0.39503">
        <ele>1263.1</ele>
        <time>2018-08-11T11:19:54Z</time>
      </trkpt>
      <trkpt lat="42.80173" lon="0.39482">
        <ele>1266.02</ele>
        <time>2018-08-11T11:19:55Z</time>
      </trkpt>
      <trkpt lat="42.80189" lon="0.39463">
        <ele>1267.59</ele>
        <time>2018-08-11T11:19:56Z</time>
      </trkpt>
      <trkpt lat="42.80204" lon="0.39445">
        <ele>1268.06</ele>
        <time>2018-08-11T11:19:57Z</time>
      </trkpt>
      <trkpt lat="42.80224" lon="0.3943">
        <ele>1268.21</ele>
        <time>2018-08-11T11:19:58Z</time>
      </trkpt>
      <trkpt lat="42.80222" lon="0.39404">
        <ele>1275.83</ele>
        <time>2018-08-11T11:20:02Z</time>
      </trkpt>
      <trkpt lat="42.80186" lon="0.39432">
        <ele>1279.06</ele>
        <time>2018-08-11T11:20:05Z</time>
      </trkpt>
      <trkpt lat="42.8017" lon="0.39441">
        <ele>1282</ele>
        <time>2018-08-11T11:20:06Z</time>
      </trkpt>
      <trkpt lat="42.80152" lon="0.3945">
        <ele>1286.39</ele>
        <time>2018-08-11T11:20:07Z</time>
      </trkpt>
      <trkpt lat="42.8012" lon="0.3947">
        <ele>1292.02</ele>
        <time>2018-08-11T11:20:09Z</time>
      </trkpt>
      <trkpt lat="42.80087" lon="0.39491">
        <ele>1292.03</ele>
        <time>2018-08-11T11:20:11Z</time>
      </trkpt>
      <trkpt lat="42.8007" lon="0.39501">
        <ele>1292.2</ele>
        <time>2018-08-11T11:20:12Z</time>
      </trkpt>
      <trkpt lat="42.80053" lon="0.39508">
        <ele>1293.65</ele>
        <time>2018-08-11T11:20:13Z</time>
      </trkpt>
      <trkpt lat="42.80035" lon="0.39514">
        <ele>1295.48</ele>
        <time>2018-08-11T11:20:14Z</time>
      </trkpt>
      <trkpt lat="42.80015" lon="0.39512">
        <ele>1297.43</ele>
        <time>2018-08-11T11:20:15Z</time>
      </trkpt>
      <trkpt lat="42.79997" lon="0.39512">
        <ele>1300.12</ele>
        <time>2018-08-11T11:20:16Z</time>
      </trkpt>
      <trkpt lat="42.79979" lon="0.39514">
        <ele>1302.32</ele>
        <time>2018-08-11T11:20:17Z</time>
      </trkpt>
      <trkpt lat="42.79944" lon="0.39525">
        <ele>1306.68</ele>
        <time>2018-08-11T11:20:19Z</time>
      </trkpt>
      <trkpt lat="42.7991" lon="0.39522">
        <ele>1307.21</ele>
        <time>2018-08-11T11:20:21Z</time>
      </trkpt>
      <trkpt lat="42.79879" lon="0.39509">
        <ele>1306.56</ele>
        <time>2018-08-11T11:20:23Z</time>
      </trkpt>
      <trkpt lat="42.79864" lon="0.39481">
        <ele>1308.6</ele>
        <time>2018-08-11T11:20:25Z</time>
      </trkpt>
      <trkpt lat="42.79846" lon="0.39453">
        <ele>1309.7</ele>
        <time>2018-08-11T11:20:27Z</time>
      </trkpt>
      <trkpt lat="42.79815" lon="0.39452">
        <ele>1315.05</ele>
        <time>2018-08-11T11:20:29Z</time>
      </trkpt>
      <trkpt lat="42.79782" lon="0.39439">
        <ele>1318.26</ele>
        <time>2018-08-11T11:20:31Z</time>
      </trkpt>
      <trkpt lat="42.7975" lon="0.39427">
        <ele>1324.22</ele>
        <time>2018-08-11T11:20:33Z</time>
      </trkpt>
      <trkpt lat="42.79736" lon="0.39412">
        <ele>1328.67</ele>
        <time>2018-08-11T11:20:35Z</time>
      </trkpt>
      <trkpt lat="42.79749" lon="0.39385">
        <ele>1333.81</ele>
        <time>2018-08-11T11:20:39Z</time>
      </trkpt>
      <trkpt lat="42.79775" lon="0.39388">
        <ele>1337.66</ele>
        <time>2018-08-11T11:20:41Z</time>
      </trkpt>
      <trkpt lat="42.79795" lon="0.39379">
        <ele>1339.61</ele>
        <time>2018-08-11T11:20:43Z</time>
      </trkpt>
      <trkpt lat="42.79814" lon="0.39363">
        <ele>1340</ele>
        <time>2018-08-11T11:20:45Z</time>
      </trkpt>
      <trkpt lat="42.7982" lon="0.39326">
        <ele>1343.75</ele>
        <time>2018-08-11T11:20:48Z</time>
      </trkpt>
      <trkpt lat="42.79821" lon="0.393">
        <ele>1341.49</ele>
        <time>2018-08-11T11:20:50Z</time>
      </trkpt>
      <trkpt lat="42.79842" lon="0.39288">
        <ele>1343.07</ele>
        <time>2018-08-11T11:20:53Z</time>
      </trkpt>
      <trkpt lat="42.79865" lon="0.39283">
        <ele>1343.25</ele>
        <time>2018-08-11T11:20:55Z</time>
      </trkpt>
      <trkpt lat="42.79886" lon="0.39275">
        <ele>1343.27</ele>
        <time>2018-08-11T11:20:57Z</time>
      </trkpt>
      <trkpt lat="42.79907" lon="0.39263">
        <ele>1344.88</ele>
        <time>2018-08-11T11:20:59Z</time>
      </trkpt>
      <trkpt lat="42.79928" lon="0.39253">
        <ele>1348.24</ele>
        <time>2018-08-11T11:21:01Z</time>
      </trkpt>
      <trkpt lat="42.79949" lon="0.39241">
        <ele>1350.78</ele>
        <time>2018-08-11T11:21:03Z</time>
      </trkpt>
      <trkpt lat="42.7997" lon="0.39232">
        <ele>1353.04</ele>
        <time>2018-08-11T11:21:05Z</time>
      </trkpt>
      <trkpt lat="42.79991" lon="0.39219">
        <ele>1351.64</ele>
        <time>2018-08-11T11:21:07Z</time>
      </trkpt>
      <trkpt lat="42.80013" lon="0.39203">
        <ele>1353.82</ele>
        <time>2018-08-11T11:21:09Z</time>
      </trkpt>
      <trkpt lat="42.80037" lon="0.39185">
        <ele>1355.14</ele>
        <time>2018-08-11T11:21:11Z</time>
      </trkpt>
      <trkpt lat="42.8006" lon="0.39166">
        <ele>1357.08</ele>
        <time>2018-08-11T11:21:13Z</time>
      </trkpt>
      <trkpt lat="42.80083" lon="0.39157">
        <ele>1358.16</ele>
        <time>2018-08-11T11:21:15Z</time>
      </trkpt>
      <trkpt lat="42.801" lon="0.39145">
        <ele>1360.57</ele>
        <time>2018-08-11T11:21:17Z</time>
      </trkpt>
      <trkpt lat="42.80116" lon="0.39127">
        <ele>1364.89</ele>
        <time>2018-08-11T11:21:20Z</time>
      </trkpt>
      <trkpt lat="42.8012" lon="0.39097">
        <ele>1369.36</ele>
        <time>2018-08-11T11:21:22Z</time>
      </trkpt>
      <trkpt lat="42.80132" lon="0.39074">
        <ele>1371.59</ele>
        <time>2018-08-11T11:21:24Z</time>
      </trkpt>
      <trkpt lat="42.8015" lon="0.39062">
        <ele>1374.86</ele>
        <time>2018-08-11T11:21:25Z</time>
      </trkpt>
      <trkpt lat="42.80175" lon="0.39035">
        <ele>1380.27</ele>
        <time>2018-08-11T11:21:27Z</time>
      </trkpt>
      <trkpt lat="42.80196" lon="0.38996">
        <ele>1383.49</ele>
        <time>2018-08-11T11:21:29Z</time>
      </trkpt>
      <trkpt lat="42.80206" lon="0.38973">
        <ele>1384.03</ele>
        <time>2018-08-11T11:21:30Z</time>
      </trkpt>
      <trkpt lat="42.80216" lon="0.3895">
        <ele>1384.2</ele>
        <time>2018-08-11T11:21:31Z</time>
      </trkpt>
      <trkpt lat="42.80227" lon="0.38925">
        <ele>1385.65</ele>
        <time>2018-08-11T11:21:32Z</time>
      </trkpt>
      <trkpt lat="42.80239" lon="0.38901">
        <ele>1386.78</ele>
        <time>2018-08-11T11:21:33Z</time>
      </trkpt>
      <trkpt lat="42.80251" lon="0.3888">
        <ele>1387.82</ele>
        <time>2018-08-11T11:21:34Z</time>
      </trkpt>
      <trkpt lat="42.80265" lon="0.3886">
        <ele>1388.83</ele>
        <time>2018-08-11T11:21:35Z</time>
      </trkpt>
      <trkpt lat="42.80277" lon="0.38841">
        <ele>1389.14</ele>
        <time>2018-08-11T11:21:36Z</time>
      </trkpt>
      <trkpt lat="42.80303" lon="0.38816">
        <ele>1390.87</ele>
        <time>2018-08-11T11:21:38Z</time>
      </trkpt>
      <trkpt lat="42.80321" lon="0.38822">
        <ele>1391.85</ele>
        <time>2018-08-11T11:21:39Z</time>
      </trkpt>
      <trkpt lat="42.80346" lon="0.38817">
        <ele>1393.14</ele>
        <time>2018-08-11T11:21:41Z</time>
      </trkpt>
      <trkpt lat="42.80365" lon="0.3882">
        <ele>1395.57</ele>
        <time>2018-08-11T11:21:43Z</time>
      </trkpt>
      <trkpt lat="42.80348" lon="0.38796">
        <ele>1400.81</ele>
        <time>2018-08-11T11:21:47Z</time>
      </trkpt>
      <trkpt lat="42.80322" lon="0.38809">
        <ele>1405.15</ele>
        <time>2018-08-11T11:21:49Z</time>
      </trkpt>
      <trkpt lat="42.80292" lon="0.38816">
        <ele>1406.87</ele>
        <time>2018-08-11T11:21:51Z</time>
      </trkpt>
      <trkpt lat="42.80258" lon="0.38832">
        <ele>1408.14</ele>
        <time>2018-08-11T11:21:53Z</time>
      </trkpt>
      <trkpt lat="42.80241" lon="0.38843">
        <ele>1408.23</ele>
        <time>2018-08-11T11:21:54Z</time>
      </trkpt>
      <trkpt lat="42.80223" lon="0.38856">
        <ele>1408.26</ele>
        <time>2018-08-11T11:21:55Z</time>
      </trkpt>
      <trkpt lat="42.80207" lon="0.38872">
        <ele>1408.96</ele>
        <time>2018-08-11T11:21:56Z</time>
      </trkpt>
      <trkpt lat="42.80191" lon="0.38888">
        <ele>1408.48</ele>
        <time>2018-08-11T11:21:57Z</time>
      </trkpt>
      <trkpt lat="42.80174" lon="0.38898">
        <ele>1410.43</ele>
        <time>2018-08-11T11:21:58Z</time>
      </trkpt>
      <trkpt lat="42.80157" lon="0.38911">
        <ele>1411.02</ele>
        <time>2018-08-11T11:21:59Z</time>
      </trkpt>
      <trkpt lat="42.80141" lon="0.38924">
        <ele>1411.89</ele>
        <time>2018-08-11T11:22:00Z</time>
      </trkpt>
      <trkpt lat="42.80123" lon="0.38935">
        <ele>1413.55</ele>
        <time>2018-08-11T11:22:01Z</time>
      </trkpt>
      <trkpt lat="42.80105" lon="0.38946">
        <ele>1416.15</ele>
        <time>2018-08-11T11:22:02Z</time>
      </trkpt>
      <trkpt lat="42.80088" lon="0.38956">
        <ele>1419.03</ele>
        <time>2018-08-11T11:22:03Z</time>
      </trkpt>
      <trkpt lat="42.80071" lon="0.38965">
        <ele>1420.6</ele>
        <time>2018-08-11T11:22:04Z</time>
      </trkpt>
      <trkpt lat="42.80037" lon="0.38979">
        <ele>1422.82</ele>
        <time>2018-08-11T11:22:06Z</time>
      </trkpt>
      <trkpt lat="42.80008" lon="0.38989">
        <ele>1424.84</ele>
        <time>2018-08-11T11:22:08Z</time>
      </trkpt>
      <trkpt lat="42.79981" lon="0.38997">
        <ele>1427.75</ele>
        <time>2018-08-11T11:22:10Z</time>
      </trkpt>
      <trkpt lat="42.79956" lon="0.39008">
        <ele>1429.62</ele>
        <time>2018-08-11T11:22:12Z</time>
      </trkpt>
      <trkpt lat="42.79932" lon="0.39009">
        <ele>1432.73</ele>
        <time>2018-08-11T11:22:14Z</time>
      </trkpt>
      <trkpt lat="42.7991" lon="0.39001">
        <ele>1435.53</ele>
        <time>2018-08-11T11:22:16Z</time>
      </trkpt>
      <trkpt lat="42.79892" lon="0.38992">
        <ele>1435.99</ele>
        <time>2018-08-11T11:22:18Z</time>
      </trkpt>
      <trkpt lat="42.79874" lon="0.38986">
        <ele>1436.94</ele>
        <time>2018-08-11T11:22:20Z</time>
      </trkpt>
      <trkpt lat="42.79856" lon="0.38975">
        <ele>1439.34</ele>
        <time>2018-08-11T11:22:22Z</time>
      </trkpt>
      <trkpt lat="42.79844" lon="0.38944">
        <ele>1440.24</ele>
        <time>2018-08-11T11:22:25Z</time>
      </trkpt>
      <trkpt lat="42.79839" lon="0.38917">
        <ele>1441.17</ele>
        <time>2018-08-11T11:22:27Z</time>
      </trkpt>
      <trkpt lat="42.79825" lon="0.3889">
        <ele>1443.78</ele>
        <time>2018-08-11T11:22:29Z</time>
      </trkpt>
      <trkpt lat="42.79811" lon="0.38863">
        <ele>1444.92</ele>
        <time>2018-08-11T11:22:31Z</time>
      </trkpt>
      <trkpt lat="42.79795" lon="0.38841">
        <ele>1444.33</ele>
        <time>2018-08-11T11:22:33Z</time>
      </trkpt>
      <trkpt lat="42.79819" lon="0.38837">
        <ele>1449.08</ele>
        <time>2018-08-11T11:22:43Z</time>
      </trkpt>
      <trkpt lat="42.79838" lon="0.3885">
        <ele>1450.86</ele>
        <time>2018-08-11T11:22:45Z</time>
      </trkpt>
      <trkpt lat="42.7986" lon="0.38868">
        <ele>1450.11</ele>
        <time>2018-08-11T11:22:47Z</time>
      </trkpt>
      <trkpt lat="42.79884" lon="0.38886">
        <ele>1450.95</ele>
        <time>2018-08-11T11:22:49Z</time>
      </trkpt>
      <trkpt lat="42.79906" lon="0.38902">
        <ele>1452.43</ele>
        <time>2018-08-11T11:22:51Z</time>
      </trkpt>
      <trkpt lat="42.79927" lon="0.389">
        <ele>1455.71</ele>
        <time>2018-08-11T11:22:53Z</time>
      </trkpt>
      <trkpt lat="42.79943" lon="0.38869">
        <ele>1457.13</ele>
        <time>2018-08-11T11:22:55Z</time>
      </trkpt>
      <trkpt lat="42.79963" lon="0.38844">
        <ele>1460.47</ele>
        <time>2018-08-11T11:22:57Z</time>
      </trkpt>
      <trkpt lat="42.79988" lon="0.38828">
        <ele>1464.91</ele>
        <time>2018-08-11T11:22:59Z</time>
      </trkpt>
      <trkpt lat="42.80016" lon="0.38825">
        <ele>1470.69</ele>
        <time>2018-08-11T11:23:01Z</time>
      </trkpt>
      <trkpt lat="42.80045" lon="0.38823">
        <ele>1471.92</ele>
        <time>2018-08-11T11:23:03Z</time>
      </trkpt>
      <trkpt lat="42.80071" lon="0.38815">
        <ele>1472.45</ele>
        <time>2018-08-11T11:23:05Z</time>
      </trkpt>
      <trkpt lat="42.80094" lon="0.38806">
        <ele>1475.99</ele>
        <time>2018-08-11T11:23:07Z</time>
      </trkpt>
      <trkpt lat="42.80116" lon="0.38799">
        <ele>1481.57</ele>
        <time>2018-08-11T11:23:10Z</time>
      </trkpt>
      <trkpt lat="42.80099" lon="0.38784">
        <ele>1483.27</ele>
        <time>2018-08-11T11:23:16Z</time>
      </trkpt>
      <trkpt lat="42.8008" lon="0.38793">
        <ele>1483.27</ele>
        <time>2018-08-11T11:23:18Z</time>
      </trkpt>
      <trkpt lat="42.80057" lon="0.388">
        <ele>1480.05</ele>
        <time>2018-08-11T11:23:20Z</time>
      </trkpt>
      <trkpt lat="42.80035" lon="0.38795">
        <ele>1481.16</ele>
        <time>2018-08-11T11:23:22Z</time>
      </trkpt>
      <trkpt lat="42.80011" lon="0.38769">
        <ele>1482.17</ele>
        <time>2018-08-11T11:23:24Z</time>
      </trkpt>
      <trkpt lat="42.79983" lon="0.38752">
        <ele>1484.78</ele>
        <time>2018-08-11T11:23:26Z</time>
      </trkpt>
      <trkpt lat="42.79953" lon="0.38744">
        <ele>1485.22</ele>
        <time>2018-08-11T11:23:28Z</time>
      </trkpt>
      <trkpt lat="42.79927" lon="0.38738">
        <ele>1487.57</ele>
        <time>2018-08-11T11:23:30Z</time>
      </trkpt>
      <trkpt lat="42.79902" lon="0.38725">
        <ele>1489.81</ele>
        <time>2018-08-11T11:23:32Z</time>
      </trkpt>
      <trkpt lat="42.79878" lon="0.38703">
        <ele>1488.83</ele>
        <time>2018-08-11T11:23:34Z</time>
      </trkpt>
      <trkpt lat="42.79853" lon="0.38679">
        <ele>1492.24</ele>
        <time>2018-08-11T11:23:36Z</time>
      </trkpt>
      <trkpt lat="42.79828" lon="0.38652">
        <ele>1496.6</ele>
        <time>2018-08-11T11:23:38Z</time>
      </trkpt>
      <trkpt lat="42.79804" lon="0.38627">
        <ele>1503.65</ele>
        <time>2018-08-11T11:23:40Z</time>
      </trkpt>
      <trkpt lat="42.79779" lon="0.386">
        <ele>1508.13</ele>
        <time>2018-08-11T11:23:42Z</time>
      </trkpt>
      <trkpt lat="42.79756" lon="0.38576">
        <ele>1510.14</ele>
        <time>2018-08-11T11:23:44Z</time>
      </trkpt>
      <trkpt lat="42.79739" lon="0.38563">
        <ele>1511.63</ele>
        <time>2018-08-11T11:23:45Z</time>
      </trkpt>
      <trkpt lat="42.79717" lon="0.38533">
        <ele>1515.92</ele>
        <time>2018-08-11T11:23:47Z</time>
      </trkpt>
      <trkpt lat="42.79695" lon="0.38497">
        <ele>1517.36</ele>
        <time>2018-08-11T11:23:49Z</time>
      </trkpt>
      <trkpt lat="42.79673" lon="0.38461">
        <ele>1519.58</ele>
        <time>2018-08-11T11:23:51Z</time>
      </trkpt>
      <trkpt lat="42.79647" lon="0.38433">
        <ele>1521.82</ele>
        <time>2018-08-11T11:23:53Z</time>
      </trkpt>
      <trkpt lat="42.79618" lon="0.38424">
        <ele>1520.62</ele>
        <time>2018-08-11T11:23:55Z</time>
      </trkpt>
      <trkpt lat="42.79596" lon="0.38447">
        <ele>1525.27</ele>
        <time>2018-08-11T11:23:56Z</time>
      </trkpt>
      <trkpt lat="42.79579" lon="0.38457">
        <ele>1528.07</ele>
        <time>2018-08-11T11:23:57Z</time>
      </trkpt>
      <trkpt lat="42.79545" lon="0.38467">
        <ele>1531.89</ele>
        <time>2018-08-11T11:23:59Z</time>
      </trkpt>
      <trkpt lat="42.79517" lon="0.38469">
        <ele>1531.53</ele>
        <time>2018-08-11T11:24:01Z</time>
      </trkpt>
      <trkpt lat="42.79504" lon="0.38431">
        <ele>1533.39</ele>
        <time>2018-08-11T11:24:03Z</time>
      </trkpt>
      <trkpt lat="42.79485" lon="0.38399">
        <ele>1535.8</ele>
        <time>2018-08-11T11:24:05Z</time>
      </trkpt>
      <trkpt lat="42.79468" lon="0.38367">
        <ele>1539.44</ele>
        <time>2018-08-11T11:24:07Z</time>
      </trkpt>
      <trkpt lat="42.79448" lon="0.38335">
        <ele>1542.5</ele>
        <time>2018-08-11T11:24:09Z</time>
      </trkpt>
      <trkpt lat="42.79414" lon="0.38341">
        <ele>1547.33</ele>
        <time>2018-08-11T11:24:11Z</time>
      </trkpt>
      <trkpt lat="42.79382" lon="0.38327">
        <ele>1549.58</ele>
        <time>2018-08-11T11:24:13Z</time>
      </trkpt>
      <trkpt lat="42.79366" lon="0.38316">
        <ele>1551.46</ele>
        <time>2018-08-11T11:24:14Z</time>
      </trkpt>
      <trkpt lat="42.79335" lon="0.38296">
        <ele>1554.01</ele>
        <time>2018-08-11T11:24:16Z</time>
      </trkpt>
      <trkpt lat="42.7931" lon="0.38264">
        <ele>1558.37</ele>
        <time>2018-08-11T11:24:18Z</time>
      </trkpt>
      <trkpt lat="42.79292" lon="0.38222">
        <ele>1562.41</ele>
        <time>2018-08-11T11:24:20Z</time>
      </trkpt>
      <trkpt lat="42.79275" lon="0.38184">
        <ele>1567.32</ele>
        <time>2018-08-11T11:24:22Z</time>
      </trkpt>
      <trkpt lat="42.79256" lon="0.38153">
        <ele>1569.79</ele>
        <time>2018-08-11T11:24:24Z</time>
      </trkpt>
      <trkpt lat="42.79231" lon="0.38141">
        <ele>1572.53</ele>
        <time>2018-08-11T11:24:26Z</time>
      </trkpt>
      <trkpt lat="42.79212" lon="0.38127">
        <ele>1574.81</ele>
        <time>2018-08-11T11:24:28Z</time>
      </trkpt>
      <trkpt lat="42.79194" lon="0.38112">
        <ele>1578.54</ele>
        <time>2018-08-11T11:24:31Z</time>
      </trkpt>
      <trkpt lat="42.79206" lon="0.38093">
        <ele>1582.66</ele>
        <time>2018-08-11T11:25:11Z</time>
      </trkpt>
      <trkpt lat="42.79227" lon="0.38098">
        <ele>1582.29</ele>
        <time>2018-08-11T11:25:35Z</time>
      </trkpt>
      <trkpt lat="42.79249" lon="0.38111">
        <ele>1580.66</ele>
        <time>2018-08-11T11:25:38Z</time>
      </trkpt>
      <trkpt lat="42.79268" lon="0.38113">
        <ele>1580.3</ele>
        <time>2018-08-11T11:25:40Z</time>
      </trkpt>
      <trkpt lat="42.79291" lon="0.38115">
        <ele>1579.36</ele>
        <time>2018-08-11T11:25:42Z</time>
      </trkpt>
      <trkpt lat="42.79316" lon="0.38117">
        <ele>1578.37</ele>
        <time>2018-08-11T11:25:44Z</time>
      </trkpt>
      <trkpt lat="42.79336" lon="0.38125">
        <ele>1576.67</ele>
        <time>2018-08-11T11:25:46Z</time>
      </trkpt>
      <trkpt lat="42.79355" lon="0.38145">
        <ele>1574.2</ele>
        <time>2018-08-11T11:25:48Z</time>
      </trkpt>
      <trkpt lat="42.79374" lon="0.38161">
        <ele>1573.35</ele>
        <time>2018-08-11T11:25:50Z</time>
      </trkpt>
      <trkpt lat="42.79399" lon="0.38167">
        <ele>1571.17</ele>
        <time>2018-08-11T11:25:52Z</time>
      </trkpt>
      <trkpt lat="42.79425" lon="0.38165">
        <ele>1570.14</ele>
        <time>2018-08-11T11:25:54Z</time>
      </trkpt>
      <trkpt lat="42.79453" lon="0.38154">
        <ele>1568.65</ele>
        <time>2018-08-11T11:25:56Z</time>
      </trkpt>
      <trkpt lat="42.7948" lon="0.38138">
        <ele>1565.99</ele>
        <time>2018-08-11T11:25:58Z</time>
      </trkpt>
      <trkpt lat="42.79505" lon="0.38117">
        <ele>1563.23</ele>
        <time>2018-08-11T11:26:00Z</time>
      </trkpt>
      <trkpt lat="42.79531" lon="0.381">
        <ele>1559.83</ele>
        <time>2018-08-11T11:26:02Z</time>
      </trkpt>
      <trkpt lat="42.7956" lon="0.38099">
        <ele>1554.98</ele>
        <time>2018-08-11T11:26:04Z</time>
      </trkpt>
      <trkpt lat="42.7959" lon="0.38101">
        <ele>1551.81</ele>
        <time>2018-08-11T11:26:06Z</time>
      </trkpt>
      <trkpt lat="42.79621" lon="0.38094">
        <ele>1549.92</ele>
        <time>2018-08-11T11:26:08Z</time>
      </trkpt>
      <trkpt lat="42.7965" lon="0.38085">
        <ele>1547.51</ele>
        <time>2018-08-11T11:26:10Z</time>
      </trkpt>
      <trkpt lat="42.79675" lon="0.38068">
        <ele>1546.38</ele>
        <time>2018-08-11T11:26:12Z</time>
      </trkpt>
      <trkpt lat="42.79695" lon="0.38039">
        <ele>1544.67</ele>
        <time>2018-08-11T11:26:14Z</time>
      </trkpt>
      <trkpt lat="42.79705" lon="0.37997">
        <ele>1545.21</ele>
        <time>2018-08-11T11:26:16Z</time>
      </trkpt>
      <trkpt lat="42.79709" lon="0.37959">
        <ele>1544.35</ele>
        <time>2018-08-11T11:26:18Z</time>
      </trkpt>
      <trkpt lat="42.79707" lon="0.37934">
        <ele>1543.59</ele>
        <time>2018-08-11T11:26:19Z</time>
      </trkpt>
      <trkpt lat="42.79699" lon="0.37888">
        <ele>1540.78</ele>
        <time>2018-08-11T11:26:21Z</time>
      </trkpt>
      <trkpt lat="42.79697" lon="0.37863">
        <ele>1539.72</ele>
        <time>2018-08-11T11:26:22Z</time>
      </trkpt>
      <trkpt lat="42.79698" lon="0.37837">
        <ele>1537.3</ele>
        <time>2018-08-11T11:26:23Z</time>
      </trkpt>
      <trkpt lat="42.79701" lon="0.37792">
        <ele>1531.32</ele>
        <time>2018-08-11T11:26:25Z</time>
      </trkpt>
      <trkpt lat="42.79707" lon="0.37745">
        <ele>1529.66</ele>
        <time>2018-08-11T11:26:27Z</time>
      </trkpt>
      <trkpt lat="42.79699" lon="0.37701">
        <ele>1525.87</ele>
        <time>2018-08-11T11:26:29Z</time>
      </trkpt>
      <trkpt lat="42.79699" lon="0.37662">
        <ele>1521.89</ele>
        <time>2018-08-11T11:26:31Z</time>
      </trkpt>
      <trkpt lat="42.7971" lon="0.37625">
        <ele>1518.59</ele>
        <time>2018-08-11T11:26:33Z</time>
      </trkpt>
      <trkpt lat="42.79727" lon="0.37596">
        <ele>1516.2</ele>
        <time>2018-08-11T11:26:35Z</time>
      </trkpt>
      <trkpt lat="42.79755" lon="0.37571">
        <ele>1513.74</ele>
        <time>2018-08-11T11:26:37Z</time>
      </trkpt>
      <trkpt lat="42.79768" lon="0.37554">
        <ele>1512.01</ele>
        <time>2018-08-11T11:26:38Z</time>
      </trkpt>
      <trkpt lat="42.7978" lon="0.37533">
        <ele>1508.69</ele>
        <time>2018-08-11T11:26:39Z</time>
      </trkpt>
      <trkpt lat="42.79791" lon="0.37511">
        <ele>1507.69</ele>
        <time>2018-08-11T11:26:40Z</time>
      </trkpt>
      <trkpt lat="42.798" lon="0.37488">
        <ele>1505.99</ele>
        <time>2018-08-11T11:26:41Z</time>
      </trkpt>
      <trkpt lat="42.79808" lon="0.37466">
        <ele>1505.49</ele>
        <time>2018-08-11T11:26:42Z</time>
      </trkpt>
      <trkpt lat="42.79823" lon="0.37429">
        <ele>1502.28</ele>
        <time>2018-08-11T11:26:44Z</time>
      </trkpt>
      <trkpt lat="42.79842" lon="0.37407">
        <ele>1499.96</ele>
        <time>2018-08-11T11:26:46Z</time>
      </trkpt>
      <trkpt lat="42.79868" lon="0.37402">
        <ele>1503.46</ele>
        <time>2018-08-11T11:26:48Z</time>
      </trkpt>
      <trkpt lat="42.79903" lon="0.37391">
        <ele>1503.98</ele>
        <time>2018-08-11T11:26:50Z</time>
      </trkpt>
      <trkpt lat="42.79923" lon="0.37384">
        <ele>1502.08</ele>
        <time>2018-08-11T11:26:51Z</time>
      </trkpt>
      <trkpt lat="42.79941" lon="0.37376">
        <ele>1500.81</ele>
        <time>2018-08-11T11:26:52Z</time>
      </trkpt>
      <trkpt lat="42.79972" lon="0.37359">
        <ele>1497.31</ele>
        <time>2018-08-11T11:26:54Z</time>
      </trkpt>
      <trkpt lat="42.8" lon="0.37348">
        <ele>1494.05</ele>
        <time>2018-08-11T11:26:56Z</time>
      </trkpt>
      <trkpt lat="42.80029" lon="0.37343">
        <ele>1491.52</ele>
        <time>2018-08-11T11:26:58Z</time>
      </trkpt>
      <trkpt lat="42.80045" lon="0.37319">
        <ele>1490.38</ele>
        <time>2018-08-11T11:27:00Z</time>
      </trkpt>
      <trkpt lat="42.80058" lon="0.37281">
        <ele>1487.97</ele>
        <time>2018-08-11T11:27:02Z</time>
      </trkpt>
      <trkpt lat="42.80067" lon="0.37236">
        <ele>1485.72</ele>
        <time>2018-08-11T11:27:04Z</time>
      </trkpt>
      <trkpt lat="42.80068" lon="0.37191">
        <ele>1484.4</ele>
        <time>2018-08-11T11:27:06Z</time>
      </trkpt>
      <trkpt lat="42.80068" lon="0.37154">
        <ele>1484.98</ele>
        <time>2018-08-11T11:27:08Z</time>
      </trkpt>
      <trkpt lat="42.80069" lon="0.3712">
        <ele>1484.33</ele>
        <time>2018-08-11T11:27:10Z</time>
      </trkpt>
      <trkpt lat="42.80074" lon="0.3709">
        <ele>1480.35</ele>
        <time>2018-08-11T11:27:12Z</time>
      </trkpt>
      <trkpt lat="42.80084" lon="0.37063">
        <ele>1476.84</ele>
        <time>2018-08-11T11:27:14Z</time>
      </trkpt>
      <trkpt lat="42.80102" lon="0.37047">
        <ele>1473.76</ele>
        <time>2018-08-11T11:27:17Z</time>
      </trkpt>
      <trkpt lat="42.80126" lon="0.3706">
        <ele>1471.19</ele>
        <time>2018-08-11T11:27:20Z</time>
      </trkpt>
      <trkpt lat="42.80142" lon="0.37081">
        <ele>1470.56</ele>
        <time>2018-08-11T11:27:22Z</time>
      </trkpt>
      <trkpt lat="42.80155" lon="0.37106">
        <ele>1470.29</ele>
        <time>2018-08-11T11:27:24Z</time>
      </trkpt>
      <trkpt lat="42.80167" lon="0.37129">
        <ele>1471.67</ele>
        <time>2018-08-11T11:27:26Z</time>
      </trkpt>
      <trkpt lat="42.80179" lon="0.3715">
        <ele>1472.21</ele>
        <time>2018-08-11T11:27:28Z</time>
      </trkpt>
      <trkpt lat="42.80202" lon="0.37163">
        <ele>1470.65</ele>
        <time>2018-08-11T11:27:30Z</time>
      </trkpt>
      <trkpt lat="42.80224" lon="0.37154">
        <ele>1469.39</ele>
        <time>2018-08-11T11:27:32Z</time>
      </trkpt>
      <trkpt lat="42.80237" lon="0.37126">
        <ele>1467.67</ele>
        <time>2018-08-11T11:27:34Z</time>
      </trkpt>
      <trkpt lat="42.80255" lon="0.37109">
        <ele>1465.69</ele>
        <time>2018-08-11T11:27:36Z</time>
      </trkpt>
      <trkpt lat="42.80268" lon="0.37084">
        <ele>1463.7</ele>
        <time>2018-08-11T11:27:38Z</time>
      </trkpt>
      <trkpt lat="42.80278" lon="0.3706">
        <ele>1461.91</ele>
        <time>2018-08-11T11:27:40Z</time>
      </trkpt>
      <trkpt lat="42.80291" lon="0.37029">
        <ele>1460.52</ele>
        <time>2018-08-11T11:27:43Z</time>
      </trkpt>
      <trkpt lat="42.80301" lon="0.37001">
        <ele>1458.39</ele>
        <time>2018-08-11T11:27:46Z</time>
      </trkpt>
      <trkpt lat="42.80321" lon="0.36982">
        <ele>1456.45</ele>
        <time>2018-08-11T11:27:49Z</time>
      </trkpt>
      <trkpt lat="42.80337" lon="0.36969">
        <ele>1455.79</ele>
        <time>2018-08-11T11:27:51Z</time>
      </trkpt>
      <trkpt lat="42.80351" lon="0.36948">
        <ele>1454.4</ele>
        <time>2018-08-11T11:27:53Z</time>
      </trkpt>
      <trkpt lat="42.80364" lon="0.36929">
        <ele>1452.67</ele>
        <time>2018-08-11T11:27:55Z</time>
      </trkpt>
      <trkpt lat="42.8038" lon="0.36916">
        <ele>1451.6</ele>
        <time>2018-08-11T11:27:57Z</time>
      </trkpt>
      <trkpt lat="42.804" lon="0.3691">
        <ele>1450.39</ele>
        <time>2018-08-11T11:27:59Z</time>
      </trkpt>
      <trkpt lat="42.8042" lon="0.36905">
        <ele>1449.58</ele>
        <time>2018-08-11T11:28:01Z</time>
      </trkpt>
      <trkpt lat="42.80437" lon="0.36894">
        <ele>1446.78</ele>
        <time>2018-08-11T11:28:03Z</time>
      </trkpt>
      <trkpt lat="42.80457" lon="0.36883">
        <ele>1445.19</ele>
        <time>2018-08-11T11:28:05Z</time>
      </trkpt>
      <trkpt lat="42.8048" lon="0.36868">
        <ele>1440.64</ele>
        <time>2018-08-11T11:28:07Z</time>
      </trkpt>
      <trkpt lat="42.80501" lon="0.36845">
        <ele>1438.69</ele>
        <time>2018-08-11T11:28:09Z</time>
      </trkpt>
      <trkpt lat="42.80526" lon="0.36827">
        <ele>1436</ele>
        <time>2018-08-11T11:28:11Z</time>
      </trkpt>
      <trkpt lat="42.80556" lon="0.36816">
        <ele>1434.63</ele>
        <time>2018-08-11T11:28:13Z</time>
      </trkpt>
      <trkpt lat="42.80579" lon="0.36796">
        <ele>1433.39</ele>
        <time>2018-08-11T11:28:15Z</time>
      </trkpt>
      <trkpt lat="42.80596" lon="0.3677">
        <ele>1431.67</ele>
        <time>2018-08-11T11:28:17Z</time>
      </trkpt>
      <trkpt lat="42.80601" lon="0.36733">
        <ele>1431.51</ele>
        <time>2018-08-11T11:28:19Z</time>
      </trkpt>
      <trkpt lat="42.80605" lon="0.36697">
        <ele>1428.98</ele>
        <time>2018-08-11T11:28:21Z</time>
      </trkpt>
      <trkpt lat="42.80607" lon="0.36654">
        <ele>1426.72</ele>
        <time>2018-08-11T11:28:23Z</time>
      </trkpt>
      <trkpt lat="42.80611" lon="0.36612">
        <ele>1425.61</ele>
        <time>2018-08-11T11:28:25Z</time>
      </trkpt>
      <trkpt lat="42.80616" lon="0.36567">
        <ele>1420.47</ele>
        <time>2018-08-11T11:28:27Z</time>
      </trkpt>
      <trkpt lat="42.80621" lon="0.36525">
        <ele>1414.55</ele>
        <time>2018-08-11T11:28:29Z</time>
      </trkpt>
      <trkpt lat="42.80624" lon="0.36485">
        <ele>1411.07</ele>
        <time>2018-08-11T11:28:31Z</time>
      </trkpt>
      <trkpt lat="42.80623" lon="0.3645">
        <ele>1408.73</ele>
        <time>2018-08-11T11:28:33Z</time>
      </trkpt>
      <trkpt lat="42.80625" lon="0.36419">
        <ele>1406.7</ele>
        <time>2018-08-11T11:28:35Z</time>
      </trkpt>
      <trkpt lat="42.80649" lon="0.36401">
        <ele>1403.09</ele>
        <time>2018-08-11T11:28:37Z</time>
      </trkpt>
      <trkpt lat="42.80678" lon="0.36381">
        <ele>1401.85</ele>
        <time>2018-08-11T11:28:39Z</time>
      </trkpt>
      <trkpt lat="42.80709" lon="0.36363">
        <ele>1399.92</ele>
        <time>2018-08-11T11:28:41Z</time>
      </trkpt>
      <trkpt lat="42.80741" lon="0.3635">
        <ele>1395.9</ele>
        <time>2018-08-11T11:28:43Z</time>
      </trkpt>
      <trkpt lat="42.80771" lon="0.36331">
        <ele>1392.1</ele>
        <time>2018-08-11T11:28:45Z</time>
      </trkpt>
      <trkpt lat="42.808" lon="0.36311">
        <ele>1388.82</ele>
        <time>2018-08-11T11:28:47Z</time>
      </trkpt>
      <trkpt lat="42.80832" lon="0.36293">
        <ele>1385.31</ele>
        <time>2018-08-11T11:28:49Z</time>
      </trkpt>
      <trkpt lat="42.80849" lon="0.36284">
        <ele>1383.18</ele>
        <time>2018-08-11T11:28:50Z</time>
      </trkpt>
      <trkpt lat="42.80866" lon="0.36277">
        <ele>1381.84</ele>
        <time>2018-08-11T11:28:51Z</time>
      </trkpt>
      <trkpt lat="42.80883" lon="0.36267">
        <ele>1380.04</ele>
        <time>2018-08-11T11:28:52Z</time>
      </trkpt>
      <trkpt lat="42.80899" lon="0.36256">
        <ele>1378.1</ele>
        <time>2018-08-11T11:28:53Z</time>
      </trkpt>
      <trkpt lat="42.80916" lon="0.36243">
        <ele>1377.52</ele>
        <time>2018-08-11T11:28:54Z</time>
      </trkpt>
      <trkpt lat="42.80927" lon="0.36223">
        <ele>1376.64</ele>
        <time>2018-08-11T11:28:55Z</time>
      </trkpt>
      <trkpt lat="42.8094" lon="0.36206">
        <ele>1375.68</ele>
        <time>2018-08-11T11:28:56Z</time>
      </trkpt>
      <trkpt lat="42.80954" lon="0.36189">
        <ele>1375.39</ele>
        <time>2018-08-11T11:28:57Z</time>
      </trkpt>
      <trkpt lat="42.80967" lon="0.36171">
        <ele>1374.6</ele>
        <time>2018-08-11T11:28:58Z</time>
      </trkpt>
      <trkpt lat="42.80995" lon="0.36144">
        <ele>1373.6</ele>
        <time>2018-08-11T11:29:00Z</time>
      </trkpt>
      <trkpt lat="42.8102" lon="0.36112">
        <ele>1373.09</ele>
        <time>2018-08-11T11:29:02Z</time>
      </trkpt>
      <trkpt lat="42.81048" lon="0.36078">
        <ele>1370.45</ele>
        <time>2018-08-11T11:29:04Z</time>
      </trkpt>
      <trkpt lat="42.81062" lon="0.36062">
        <ele>1368.92</ele>
        <time>2018-08-11T11:29:05Z</time>
      </trkpt>
      <trkpt lat="42.81076" lon="0.36047">
        <ele>1367.76</ele>
        <time>2018-08-11T11:29:06Z</time>
      </trkpt>
      <trkpt lat="42.81091" lon="0.36031">
        <ele>1365.32</ele>
        <time>2018-08-11T11:29:07Z</time>
      </trkpt>
      <trkpt lat="42.81105" lon="0.36014">
        <ele>1363.18</ele>
        <time>2018-08-11T11:29:08Z</time>
      </trkpt>
      <trkpt lat="42.81118" lon="0.35995">
        <ele>1361.84</ele>
        <time>2018-08-11T11:29:09Z</time>
      </trkpt>
      <trkpt lat="42.8113" lon="0.35976">
        <ele>1360.74</ele>
        <time>2018-08-11T11:29:10Z</time>
      </trkpt>
      <trkpt lat="42.81139" lon="0.35949">
        <ele>1357.61</ele>
        <time>2018-08-11T11:29:11Z</time>
      </trkpt>
      <trkpt lat="42.81151" lon="0.35926">
        <ele>1353.17</ele>
        <time>2018-08-11T11:29:12Z</time>
      </trkpt>
      <trkpt lat="42.81161" lon="0.35903">
        <ele>1351.14</ele>
        <time>2018-08-11T11:29:13Z</time>
      </trkpt>
      <trkpt lat="42.81174" lon="0.35883">
        <ele>1349.83</ele>
        <time>2018-08-11T11:29:14Z</time>
      </trkpt>
      <trkpt lat="42.81185" lon="0.35862">
        <ele>1347.34</ele>
        <time>2018-08-11T11:29:15Z</time>
      </trkpt>
      <trkpt lat="42.81199" lon="0.35821">
        <ele>1344.05</ele>
        <time>2018-08-11T11:29:17Z</time>
      </trkpt>
      <trkpt lat="42.81214" lon="0.35782">
        <ele>1339.91</ele>
        <time>2018-08-11T11:29:19Z</time>
      </trkpt>
      <trkpt lat="42.81227" lon="0.35748">
        <ele>1336.8</ele>
        <time>2018-08-11T11:29:21Z</time>
      </trkpt>
      <trkpt lat="42.81237" lon="0.35722">
        <ele>1333.8</ele>
        <time>2018-08-11T11:29:23Z</time>
      </trkpt>
      <trkpt lat="42.81248" lon="0.35693">
        <ele>1332.61</ele>
        <time>2018-08-11T11:29:25Z</time>
      </trkpt>
      <trkpt lat="42.81268" lon="0.35704">
        <ele>1324.44</ele>
        <time>2018-08-11T11:29:56Z</time>
      </trkpt>
      <trkpt lat="42.81292" lon="0.35711">
        <ele>1323.28</ele>
        <time>2018-08-11T11:30:00Z</time>
      </trkpt>
      <trkpt lat="42.81334" lon="0.3572">
        <ele>1320.47</ele>
        <time>2018-08-11T11:30:02Z</time>
      </trkpt>
      <trkpt lat="42.8136" lon="0.35724">
        <ele>1319.38</ele>
        <time>2018-08-11T11:30:04Z</time>
      </trkpt>
      <trkpt lat="42.81386" lon="0.35728">
        <ele>1318.37</ele>
        <time>2018-08-11T11:30:06Z</time>
      </trkpt>
      <trkpt lat="42.81411" lon="0.35733">
        <ele>1317.37</ele>
        <time>2018-08-11T11:30:08Z</time>
      </trkpt>
      <trkpt lat="42.81418" lon="0.35703">
        <ele>1308.76</ele>
        <time>2018-08-11T11:30:11Z</time>
      </trkpt>
      <trkpt lat="42.81425" lon="0.35675">
        <ele>1306.49</ele>
        <time>2018-08-11T11:30:13Z</time>
      </trkpt>
      <trkpt lat="42.81433" lon="0.35647">
        <ele>1305.38</ele>
        <time>2018-08-11T11:30:15Z</time>
      </trkpt>
      <trkpt lat="42.81441" lon="0.35619">
        <ele>1303.67</ele>
        <time>2018-08-11T11:30:17Z</time>
      </trkpt>
      <trkpt lat="42.81444" lon="0.35577">
        <ele>1297.09</ele>
        <time>2018-08-11T11:30:18Z</time>
      </trkpt>
      <trkpt lat="42.81456" lon="0.35541">
        <ele>1291.79</ele>
        <time>2018-08-11T11:30:20Z</time>
      </trkpt>
      <trkpt lat="42.81478" lon="0.35513">
        <ele>1287.88</ele>
        <time>2018-08-11T11:30:22Z</time>
      </trkpt>
      <trkpt lat="42.81503" lon="0.35489">
        <ele>1285.92</ele>
        <time>2018-08-11T11:30:24Z</time>
      </trkpt>
      <trkpt lat="42.8153" lon="0.35463">
        <ele>1285.33</ele>
        <time>2018-08-11T11:30:26Z</time>
      </trkpt>
      <trkpt lat="42.81541" lon="0.35443">
        <ele>1284.58</ele>
        <time>2018-08-11T11:30:27Z</time>
      </trkpt>
      <trkpt lat="42.81554" lon="0.35425">
        <ele>1283.66</ele>
        <time>2018-08-11T11:30:28Z</time>
      </trkpt>
      <trkpt lat="42.81564" lon="0.354">
        <ele>1279.89</ele>
        <time>2018-08-11T11:30:29Z</time>
      </trkpt>
      <trkpt lat="42.81575" lon="0.35379">
        <ele>1278.75</ele>
        <time>2018-08-11T11:30:30Z</time>
      </trkpt>
      <trkpt lat="42.81596" lon="0.3534">
        <ele>1275.58</ele>
        <time>2018-08-11T11:30:32Z</time>
      </trkpt>
      <trkpt lat="42.81618" lon="0.35304">
        <ele>1273.27</ele>
        <time>2018-08-11T11:30:34Z</time>
      </trkpt>
      <trkpt lat="42.81643" lon="0.35273">
        <ele>1270.26</ele>
        <time>2018-08-11T11:30:36Z</time>
      </trkpt>
      <trkpt lat="42.81668" lon="0.35268">
        <ele>1267.75</ele>
        <time>2018-08-11T11:30:38Z</time>
      </trkpt>
      <trkpt lat="42.81692" lon="0.35265">
        <ele>1264.79</ele>
        <time>2018-08-11T11:30:40Z</time>
      </trkpt>
      <trkpt lat="42.81723" lon="0.35279">
        <ele>1265.22</ele>
        <time>2018-08-11T11:30:42Z</time>
      </trkpt>
      <trkpt lat="42.8174" lon="0.35294">
        <ele>1266.17</ele>
        <time>2018-08-11T11:30:44Z</time>
      </trkpt>
      <trkpt lat="42.81724" lon="0.35265">
        <ele>1263.45</ele>
        <time>2018-08-11T11:30:49Z</time>
      </trkpt>
      <trkpt lat="42.81699" lon="0.35251">
        <ele>1263.98</ele>
        <time>2018-08-11T11:30:51Z</time>
      </trkpt>
      <trkpt lat="42.81669" lon="0.35238">
        <ele>1260.32</ele>
        <time>2018-08-11T11:30:53Z</time>
      </trkpt>
      <trkpt lat="42.81638" lon="0.35238">
        <ele>1256.14</ele>
        <time>2018-08-11T11:30:55Z</time>
      </trkpt>
      <trkpt lat="42.81606" lon="0.35254">
        <ele>1252.13</ele>
        <time>2018-08-11T11:30:57Z</time>
      </trkpt>
      <trkpt lat="42.81588" lon="0.35266">
        <ele>1249.42</ele>
        <time>2018-08-11T11:30:58Z</time>
      </trkpt>
      <trkpt lat="42.81572" lon="0.35279">
        <ele>1247.91</ele>
        <time>2018-08-11T11:30:59Z</time>
      </trkpt>
      <trkpt lat="42.81554" lon="0.35293">
        <ele>1246.76</ele>
        <time>2018-08-11T11:31:00Z</time>
      </trkpt>
      <trkpt lat="42.81536" lon="0.35309">
        <ele>1245.72</ele>
        <time>2018-08-11T11:31:01Z</time>
      </trkpt>
      <trkpt lat="42.81518" lon="0.35326">
        <ele>1244.7</ele>
        <time>2018-08-11T11:31:02Z</time>
      </trkpt>
      <trkpt lat="42.815" lon="0.35344">
        <ele>1241.6</ele>
        <time>2018-08-11T11:31:03Z</time>
      </trkpt>
      <trkpt lat="42.81483" lon="0.35361">
        <ele>1240.67</ele>
        <time>2018-08-11T11:31:04Z</time>
      </trkpt>
      <trkpt lat="42.81465" lon="0.35376">
        <ele>1238.29</ele>
        <time>2018-08-11T11:31:05Z</time>
      </trkpt>
      <trkpt lat="42.81447" lon="0.35392">
        <ele>1236.17</ele>
        <time>2018-08-11T11:31:06Z</time>
      </trkpt>
      <trkpt lat="42.81431" lon="0.35407">
        <ele>1233.44</ele>
        <time>2018-08-11T11:31:07Z</time>
      </trkpt>
      <trkpt lat="42.81414" lon="0.35421">
        <ele>1231.22</ele>
        <time>2018-08-11T11:31:08Z</time>
      </trkpt>
      <trkpt lat="42.81397" lon="0.35436">
        <ele>1229.15</ele>
        <time>2018-08-11T11:31:09Z</time>
      </trkpt>
      <trkpt lat="42.81381" lon="0.35453">
        <ele>1227.83</ele>
        <time>2018-08-11T11:31:10Z</time>
      </trkpt>
      <trkpt lat="42.81351" lon="0.35474">
        <ele>1225.01</ele>
        <time>2018-08-11T11:31:12Z</time>
      </trkpt>
      <trkpt lat="42.81324" lon="0.35488">
        <ele>1221.81</ele>
        <time>2018-08-11T11:31:14Z</time>
      </trkpt>
      <trkpt lat="42.81304" lon="0.35473">
        <ele>1219.71</ele>
        <time>2018-08-11T11:31:16Z</time>
      </trkpt>
      <trkpt lat="42.81281" lon="0.35451">
        <ele>1216.79</ele>
        <time>2018-08-11T11:31:18Z</time>
      </trkpt>
      <trkpt lat="42.81254" lon="0.35425">
        <ele>1216.31</ele>
        <time>2018-08-11T11:31:20Z</time>
      </trkpt>
      <trkpt lat="42.8123" lon="0.35398">
        <ele>1213.47</ele>
        <time>2018-08-11T11:31:22Z</time>
      </trkpt>
      <trkpt lat="42.81207" lon="0.3537">
        <ele>1208.46</ele>
        <time>2018-08-11T11:31:24Z</time>
      </trkpt>
      <trkpt lat="42.81184" lon="0.35347">
        <ele>1205.76</ele>
        <time>2018-08-11T11:31:26Z</time>
      </trkpt>
      <trkpt lat="42.81159" lon="0.35326">
        <ele>1203.91</ele>
        <time>2018-08-11T11:31:28Z</time>
      </trkpt>
      <trkpt lat="42.81137" lon="0.35303">
        <ele>1202.21</ele>
        <time>2018-08-11T11:31:30Z</time>
      </trkpt>
      <trkpt lat="42.81121" lon="0.35278">
        <ele>1199.04</ele>
        <time>2018-08-11T11:31:32Z</time>
      </trkpt>
      <trkpt lat="42.81106" lon="0.35259">
        <ele>1199.04</ele>
        <time>2018-08-11T11:31:34Z</time>
      </trkpt>
      <trkpt lat="42.81088" lon="0.35254">
        <ele>1196.94</ele>
        <time>2018-08-11T11:31:36Z</time>
      </trkpt>
      <trkpt lat="42.81067" lon="0.35251">
        <ele>1193.21</ele>
        <time>2018-08-11T11:31:39Z</time>
      </trkpt>
      <trkpt lat="42.81051" lon="0.35232">
        <ele>1187.06</ele>
        <time>2018-08-11T11:31:42Z</time>
      </trkpt>
      <trkpt lat="42.81042" lon="0.35209">
        <ele>1183.71</ele>
        <time>2018-08-11T11:31:45Z</time>
      </trkpt>
      <trkpt lat="42.81056" lon="0.35184">
        <ele>1182.81</ele>
        <time>2018-08-11T11:31:49Z</time>
      </trkpt>
      <trkpt lat="42.81077" lon="0.35176">
        <ele>1183.13</ele>
        <time>2018-08-11T11:31:52Z</time>
      </trkpt>
      <trkpt lat="42.81099" lon="0.35159">
        <ele>1181.86</ele>
        <time>2018-08-11T11:31:55Z</time>
      </trkpt>
      <trkpt lat="42.81121" lon="0.35147">
        <ele>1178</ele>
        <time>2018-08-11T11:31:58Z</time>
      </trkpt>
      <trkpt lat="42.81146" lon="0.35148">
        <ele>1175.68</ele>
        <time>2018-08-11T11:32:01Z</time>
      </trkpt>
      <trkpt lat="42.81167" lon="0.3516">
        <ele>1173.9</ele>
        <time>2018-08-11T11:32:03Z</time>
      </trkpt>
      <trkpt lat="42.81185" lon="0.35152">
        <ele>1169.34</ele>
        <time>2018-08-11T11:32:08Z</time>
      </trkpt>
      <trkpt lat="42.81188" lon="0.35125">
        <ele>1167.66</ele>
        <time>2018-08-11T11:32:11Z</time>
      </trkpt>
      <trkpt lat="42.81206" lon="0.35106">
        <ele>1166.63</ele>
        <time>2018-08-11T11:32:15Z</time>
      </trkpt>
      <trkpt lat="42.81213" lon="0.35083">
        <ele>1166.28</ele>
        <time>2018-08-11T11:32:18Z</time>
      </trkpt>
      <trkpt lat="42.81191" lon="0.35065">
        <ele>1167.24</ele>
        <time>2018-08-11T11:32:21Z</time>
      </trkpt>
      <trkpt lat="42.81175" lon="0.35051">
        <ele>1166.35</ele>
        <time>2018-08-11T11:32:23Z</time>
      </trkpt>
      <trkpt lat="42.81159" lon="0.35037">
        <ele>1164.45</ele>
        <time>2018-08-11T11:32:25Z</time>
      </trkpt>
      <trkpt lat="42.81141" lon="0.35017">
        <ele>1161.76</ele>
        <time>2018-08-11T11:32:27Z</time>
      </trkpt>
      <trkpt lat="42.81121" lon="0.34999">
        <ele>1160.4</ele>
        <time>2018-08-11T11:32:29Z</time>
      </trkpt>
      <trkpt lat="42.81108" lon="0.34978">
        <ele>1157.97</ele>
        <time>2018-08-11T11:32:31Z</time>
      </trkpt>
      <trkpt lat="42.81103" lon="0.34953">
        <ele>1154.11</ele>
        <time>2018-08-11T11:32:33Z</time>
      </trkpt>
      <trkpt lat="42.81121" lon="0.34944">
        <ele>1149.8</ele>
        <time>2018-08-11T11:32:36Z</time>
      </trkpt>
      <trkpt lat="42.8114" lon="0.34957">
        <ele>1146.79</ele>
        <time>2018-08-11T11:32:38Z</time>
      </trkpt>
      <trkpt lat="42.81168" lon="0.34966">
        <ele>1138.05</ele>
        <time>2018-08-11T11:32:40Z</time>
      </trkpt>
      <trkpt lat="42.81195" lon="0.34984">
        <ele>1137.83</ele>
        <time>2018-08-11T11:32:42Z</time>
      </trkpt>
      <trkpt lat="42.81221" lon="0.35005">
        <ele>1135.71</ele>
        <time>2018-08-11T11:32:44Z</time>
      </trkpt>
      <trkpt lat="42.81245" lon="0.35024">
        <ele>1132.09</ele>
        <time>2018-08-11T11:32:46Z</time>
      </trkpt>
      <trkpt lat="42.81266" lon="0.35041">
        <ele>1128.82</ele>
        <time>2018-08-11T11:32:48Z</time>
      </trkpt>
      <trkpt lat="42.81288" lon="0.35057">
        <ele>1127.41</ele>
        <time>2018-08-11T11:32:50Z</time>
      </trkpt>
      <trkpt lat="42.81306" lon="0.35066">
        <ele>1127.28</ele>
        <time>2018-08-11T11:32:52Z</time>
      </trkpt>
      <trkpt lat="42.81326" lon="0.35076">
        <ele>1127.27</ele>
        <time>2018-08-11T11:32:54Z</time>
      </trkpt>
      <trkpt lat="42.8129" lon="0.3503">
        <ele>1125.87</ele>
        <time>2018-08-11T11:32:55Z</time>
      </trkpt>
      <trkpt lat="42.81276" lon="0.35012">
        <ele>1125.32</ele>
        <time>2018-08-11T11:32:57Z</time>
      </trkpt>
      <trkpt lat="42.81257" lon="0.34988">
        <ele>1124.36</ele>
        <time>2018-08-11T11:33:00Z</time>
      </trkpt>
      <trkpt lat="42.81237" lon="0.34959">
        <ele>1121.49</ele>
        <time>2018-08-11T11:33:01Z</time>
      </trkpt>
      <trkpt lat="42.81214" lon="0.34927">
        <ele>1118.77</ele>
        <time>2018-08-11T11:33:03Z</time>
      </trkpt>
      <trkpt lat="42.81193" lon="0.34896">
        <ele>1117.4</ele>
        <time>2018-08-11T11:33:05Z</time>
      </trkpt>
      <trkpt lat="42.8117" lon="0.34859">
        <ele>1113.57</ele>
        <time>2018-08-11T11:33:07Z</time>
      </trkpt>
      <trkpt lat="42.81149" lon="0.34826">
        <ele>1112.38</ele>
        <time>2018-08-11T11:33:09Z</time>
      </trkpt>
      <trkpt lat="42.81128" lon="0.34794">
        <ele>1111.37</ele>
        <time>2018-08-11T11:33:11Z</time>
      </trkpt>
      <trkpt lat="42.81107" lon="0.34761">
        <ele>1109.88</ele>
        <time>2018-08-11T11:33:13Z</time>
      </trkpt>
      <trkpt lat="42.81087" lon="0.34728">
        <ele>1109.32</ele>
        <time>2018-08-11T11:33:15Z</time>
      </trkpt>
      <trkpt lat="42.81117" lon="0.34733">
        <ele>1100.88</ele>
        <time>2018-08-11T11:33:17Z</time>
      </trkpt>
      <trkpt lat="42.81137" lon="0.34725">
        <ele>1094.59</ele>
        <time>2018-08-11T11:33:20Z</time>
      </trkpt>
      <trkpt lat="42.81155" lon="0.34752">
        <ele>1089.96</ele>
        <time>2018-08-11T11:33:22Z</time>
      </trkpt>
      <trkpt lat="42.81177" lon="0.34776">
        <ele>1087.72</ele>
        <time>2018-08-11T11:33:24Z</time>
      </trkpt>
      <trkpt lat="42.81202" lon="0.34794">
        <ele>1088.92</ele>
        <time>2018-08-11T11:33:26Z</time>
      </trkpt>
      <trkpt lat="42.81235" lon="0.34806">
        <ele>1090.15</ele>
        <time>2018-08-11T11:33:28Z</time>
      </trkpt>
      <trkpt lat="42.81253" lon="0.34808">
        <ele>1088.13</ele>
        <time>2018-08-11T11:33:29Z</time>
      </trkpt>
      <trkpt lat="42.81271" lon="0.34803">
        <ele>1086.13</ele>
        <time>2018-08-11T11:33:30Z</time>
      </trkpt>
      <trkpt lat="42.81291" lon="0.34803">
        <ele>1084.12</ele>
        <time>2018-08-11T11:33:31Z</time>
      </trkpt>
      <trkpt lat="42.8131" lon="0.34803">
        <ele>1081.42</ele>
        <time>2018-08-11T11:33:32Z</time>
      </trkpt>
      <trkpt lat="42.81329" lon="0.34805">
        <ele>1081.31</ele>
        <time>2018-08-11T11:33:33Z</time>
      </trkpt>
      <trkpt lat="42.81348" lon="0.34806">
        <ele>1080.58</ele>
        <time>2018-08-11T11:33:34Z</time>
      </trkpt>
      <trkpt lat="42.81368" lon="0.34806">
        <ele>1079.66</ele>
        <time>2018-08-11T11:33:35Z</time>
      </trkpt>
      <trkpt lat="42.81402" lon="0.348">
        <ele>1077.9</ele>
        <time>2018-08-11T11:33:37Z</time>
      </trkpt>
      <trkpt lat="42.8142" lon="0.34794">
        <ele>1076.06</ele>
        <time>2018-08-11T11:33:38Z</time>
      </trkpt>
      <trkpt lat="42.81438" lon="0.34788">
        <ele>1075.5</ele>
        <time>2018-08-11T11:33:39Z</time>
      </trkpt>
      <trkpt lat="42.81455" lon="0.34781">
        <ele>1074.64</ele>
        <time>2018-08-11T11:33:40Z</time>
      </trkpt>
      <trkpt lat="42.81473" lon="0.34776">
        <ele>1072.28</ele>
        <time>2018-08-11T11:33:41Z</time>
      </trkpt>
      <trkpt lat="42.81507" lon="0.34762">
        <ele>1066.32</ele>
        <time>2018-08-11T11:33:43Z</time>
      </trkpt>
      <trkpt lat="42.81535" lon="0.34737">
        <ele>1061.23</ele>
        <time>2018-08-11T11:33:45Z</time>
      </trkpt>
      <trkpt lat="42.81557" lon="0.34708">
        <ele>1059.44</ele>
        <time>2018-08-11T11:33:47Z</time>
      </trkpt>
      <trkpt lat="42.81584" lon="0.3469">
        <ele>1056.76</ele>
        <time>2018-08-11T11:33:49Z</time>
      </trkpt>
      <trkpt lat="42.81616" lon="0.34677">
        <ele>1053.3</ele>
        <time>2018-08-11T11:33:51Z</time>
      </trkpt>
      <trkpt lat="42.81648" lon="0.34665">
        <ele>1049.14</ele>
        <time>2018-08-11T11:33:53Z</time>
      </trkpt>
      <trkpt lat="42.81679" lon="0.3465">
        <ele>1046.74</ele>
        <time>2018-08-11T11:33:55Z</time>
      </trkpt>
      <trkpt lat="42.81707" lon="0.34629">
        <ele>1042.39</ele>
        <time>2018-08-11T11:33:57Z</time>
      </trkpt>
      <trkpt lat="42.8173" lon="0.34612">
        <ele>1040.46</ele>
        <time>2018-08-11T11:33:59Z</time>
      </trkpt>
      <trkpt lat="42.81753" lon="0.346">
        <ele>1039.37</ele>
        <time>2018-08-11T11:34:01Z</time>
      </trkpt>
      <trkpt lat="42.81769" lon="0.34581">
        <ele>1034.24</ele>
        <time>2018-08-11T11:34:03Z</time>
      </trkpt>
      <trkpt lat="42.81784" lon="0.34554">
        <ele>1030.34</ele>
        <time>2018-08-11T11:34:05Z</time>
      </trkpt>
      <trkpt lat="42.81795" lon="0.34527">
        <ele>1027.75</ele>
        <time>2018-08-11T11:34:07Z</time>
      </trkpt>
      <trkpt lat="42.81802" lon="0.34497">
        <ele>1026.61</ele>
        <time>2018-08-11T11:34:09Z</time>
      </trkpt>
      <trkpt lat="42.8181" lon="0.34465">
        <ele>1024.69</ele>
        <time>2018-08-11T11:34:11Z</time>
      </trkpt>
      <trkpt lat="42.81821" lon="0.34433">
        <ele>1022.48</ele>
        <time>2018-08-11T11:34:13Z</time>
      </trkpt>
      <trkpt lat="42.8183" lon="0.34398">
        <ele>1019.98</ele>
        <time>2018-08-11T11:34:15Z</time>
      </trkpt>
      <trkpt lat="42.8184" lon="0.34364">
        <ele>1016.53</ele>
        <time>2018-08-11T11:34:17Z</time>
      </trkpt>
      <trkpt lat="42.81849" lon="0.34336">
        <ele>1013.77</ele>
        <time>2018-08-11T11:34:19Z</time>
      </trkpt>
      <trkpt lat="42.81869" lon="0.34325">
        <ele>1012.37</ele>
        <time>2018-08-11T11:34:22Z</time>
      </trkpt>
      <trkpt lat="42.81887" lon="0.34318">
        <ele>1011.21</ele>
        <time>2018-08-11T11:34:26Z</time>
      </trkpt>
      <trkpt lat="42.81863" lon="0.34312">
        <ele>1009.02</ele>
        <time>2018-08-11T11:34:29Z</time>
      </trkpt>
      <trkpt lat="42.81844" lon="0.34327">
        <ele>1007.63</ele>
        <time>2018-08-11T11:34:31Z</time>
      </trkpt>
      <trkpt lat="42.81827" lon="0.34353">
        <ele>1004.99</ele>
        <time>2018-08-11T11:34:33Z</time>
      </trkpt>
      <trkpt lat="42.8181" lon="0.34391">
        <ele>1000.2</ele>
        <time>2018-08-11T11:34:35Z</time>
      </trkpt>
      <trkpt lat="42.81789" lon="0.34424">
        <ele>996.13</ele>
        <time>2018-08-11T11:34:37Z</time>
      </trkpt>
      <trkpt lat="42.81763" lon="0.34447">
        <ele>992.82</ele>
        <time>2018-08-11T11:34:39Z</time>
      </trkpt>
      <trkpt lat="42.81734" lon="0.34459">
        <ele>992.11</ele>
        <time>2018-08-11T11:34:41Z</time>
      </trkpt>
      <trkpt lat="42.81707" lon="0.34456">
        <ele>989.94</ele>
        <time>2018-08-11T11:34:43Z</time>
      </trkpt>
      <trkpt lat="42.81681" lon="0.34441">
        <ele>985.2</ele>
        <time>2018-08-11T11:34:45Z</time>
      </trkpt>
      <trkpt lat="42.81657" lon="0.34422">
        <ele>982.04</ele>
        <time>2018-08-11T11:34:47Z</time>
      </trkpt>
      <trkpt lat="42.81641" lon="0.34401">
        <ele>980.64</ele>
        <time>2018-08-11T11:34:49Z</time>
      </trkpt>
      <trkpt lat="42.81633" lon="0.34379">
        <ele>977.42</ele>
        <time>2018-08-11T11:34:52Z</time>
      </trkpt>
      <trkpt lat="42.81655" lon="0.34383">
        <ele>975.39</ele>
        <time>2018-08-11T11:34:55Z</time>
      </trkpt>
      <trkpt lat="42.81676" lon="0.34391">
        <ele>974.58</ele>
        <time>2018-08-11T11:34:57Z</time>
      </trkpt>
      <trkpt lat="42.817" lon="0.34393">
        <ele>971.28</ele>
        <time>2018-08-11T11:34:59Z</time>
      </trkpt>
      <trkpt lat="42.81717" lon="0.34371">
        <ele>967.56</ele>
        <time>2018-08-11T11:35:02Z</time>
      </trkpt>
      <trkpt lat="42.81708" lon="0.34344">
        <ele>964.9</ele>
        <time>2018-08-11T11:35:05Z</time>
      </trkpt>
      <trkpt lat="42.81675" lon="0.34353">
        <ele>964.32</ele>
        <time>2018-08-11T11:35:07Z</time>
      </trkpt>
      <trkpt lat="42.81651" lon="0.34344">
        <ele>959.72</ele>
        <time>2018-08-11T11:35:09Z</time>
      </trkpt>
      <trkpt lat="42.81629" lon="0.34339">
        <ele>958.12</ele>
        <time>2018-08-11T11:35:11Z</time>
      </trkpt>
      <trkpt lat="42.81617" lon="0.3431">
        <ele>956.21</ele>
        <time>2018-08-11T11:35:15Z</time>
      </trkpt>
      <trkpt lat="42.81626" lon="0.3428">
        <ele>954.65</ele>
        <time>2018-08-11T11:35:17Z</time>
      </trkpt>
      <trkpt lat="42.81648" lon="0.34253">
        <ele>954.93</ele>
        <time>2018-08-11T11:35:19Z</time>
      </trkpt>
      <trkpt lat="42.81672" lon="0.34219">
        <ele>951.81</ele>
        <time>2018-08-11T11:35:21Z</time>
      </trkpt>
      <trkpt lat="42.81686" lon="0.34203">
        <ele>949.33</ele>
        <time>2018-08-11T11:35:22Z</time>
      </trkpt>
      <trkpt lat="42.81698" lon="0.34184">
        <ele>948.59</ele>
        <time>2018-08-11T11:35:23Z</time>
      </trkpt>
      <trkpt lat="42.81721" lon="0.34147">
        <ele>945.78</ele>
        <time>2018-08-11T11:35:25Z</time>
      </trkpt>
      <trkpt lat="42.81741" lon="0.3411">
        <ele>941.88</ele>
        <time>2018-08-11T11:35:27Z</time>
      </trkpt>
      <trkpt lat="42.81757" lon="0.34076">
        <ele>939.71</ele>
        <time>2018-08-11T11:35:29Z</time>
      </trkpt>
      <trkpt lat="42.81772" lon="0.34038">
        <ele>936.79</ele>
        <time>2018-08-11T11:35:31Z</time>
      </trkpt>
      <trkpt lat="42.81791" lon="0.34004">
        <ele>933.3</ele>
        <time>2018-08-11T11:35:33Z</time>
      </trkpt>
      <trkpt lat="42.81812" lon="0.33976">
        <ele>931.45</ele>
        <time>2018-08-11T11:35:35Z</time>
      </trkpt>
      <trkpt lat="42.81837" lon="0.33963">
        <ele>929.67</ele>
        <time>2018-08-11T11:35:37Z</time>
      </trkpt>
      <trkpt lat="42.81856" lon="0.33949">
        <ele>927.48</ele>
        <time>2018-08-11T11:35:39Z</time>
      </trkpt>
      <trkpt lat="42.81863" lon="0.33922">
        <ele>925.68</ele>
        <time>2018-08-11T11:35:41Z</time>
      </trkpt>
      <trkpt lat="42.81865" lon="0.33886">
        <ele>923.9</ele>
        <time>2018-08-11T11:35:43Z</time>
      </trkpt>
      <trkpt lat="42.81865" lon="0.33845">
        <ele>922.62</ele>
        <time>2018-08-11T11:35:45Z</time>
      </trkpt>
      <trkpt lat="42.81862" lon="0.33802">
        <ele>919.29</ele>
        <time>2018-08-11T11:35:47Z</time>
      </trkpt>
      <trkpt lat="42.81862" lon="0.3376">
        <ele>916.54</ele>
        <time>2018-08-11T11:35:49Z</time>
      </trkpt>
      <trkpt lat="42.81864" lon="0.33718">
        <ele>916.5</ele>
        <time>2018-08-11T11:35:51Z</time>
      </trkpt>
      <trkpt lat="42.81877" lon="0.33679">
        <ele>915.59</ele>
        <time>2018-08-11T11:35:53Z</time>
      </trkpt>
      <trkpt lat="42.81888" lon="0.33641">
        <ele>916.21</ele>
        <time>2018-08-11T11:35:55Z</time>
      </trkpt>
      <trkpt lat="42.81894" lon="0.33602">
        <ele>917.87</ele>
        <time>2018-08-11T11:35:57Z</time>
      </trkpt>
      <trkpt lat="42.81894" lon="0.33568">
        <ele>919.14</ele>
        <time>2018-08-11T11:35:59Z</time>
      </trkpt>
      <trkpt lat="42.81898" lon="0.33538">
        <ele>920.17</ele>
        <time>2018-08-11T11:36:01Z</time>
      </trkpt>
      <trkpt lat="42.81903" lon="0.33514">
        <ele>920.05</ele>
        <time>2018-08-11T11:36:03Z</time>
      </trkpt>
      <trkpt lat="42.81916" lon="0.33489">
        <ele>921.17</ele>
        <time>2018-08-11T11:36:06Z</time>
      </trkpt>
      <trkpt lat="42.81928" lon="0.33467">
        <ele>920.56</ele>
        <time>2018-08-11T11:36:09Z</time>
      </trkpt>
      <trkpt lat="42.81939" lon="0.33439">
        <ele>922.59</ele>
        <time>2018-08-11T11:36:12Z</time>
      </trkpt>
      <trkpt lat="42.81938" lon="0.33412">
        <ele>921.37</ele>
        <time>2018-08-11T11:36:15Z</time>
      </trkpt>
      <trkpt lat="42.81938" lon="0.33382">
        <ele>921.33</ele>
        <time>2018-08-11T11:36:18Z</time>
      </trkpt>
      <trkpt lat="42.8194" lon="0.33346">
        <ele>923.09</ele>
        <time>2018-08-11T11:36:21Z</time>
      </trkpt>
      <trkpt lat="42.81943" lon="0.33319">
        <ele>924.16</ele>
        <time>2018-08-11T11:36:23Z</time>
      </trkpt>
      <trkpt lat="42.81944" lon="0.33287">
        <ele>922.65</ele>
        <time>2018-08-11T11:36:25Z</time>
      </trkpt>
      <trkpt lat="42.81945" lon="0.33254">
        <ele>923.21</ele>
        <time>2018-08-11T11:36:27Z</time>
      </trkpt>
      <trkpt lat="42.81943" lon="0.33217">
        <ele>921.65</ele>
        <time>2018-08-11T11:36:29Z</time>
      </trkpt>
      <trkpt lat="42.81938" lon="0.33179">
        <ele>922</ele>
        <time>2018-08-11T11:36:31Z</time>
      </trkpt>
      <trkpt lat="42.81926" lon="0.33146">
        <ele>922.24</ele>
        <time>2018-08-11T11:36:33Z</time>
      </trkpt>
      <trkpt lat="42.81903" lon="0.33126">
        <ele>917.43</ele>
        <time>2018-08-11T11:36:35Z</time>
      </trkpt>
      <trkpt lat="42.81879" lon="0.33112">
        <ele>917.28</ele>
        <time>2018-08-11T11:36:37Z</time>
      </trkpt>
      <trkpt lat="42.81845" lon="0.33111">
        <ele>917.48</ele>
        <time>2018-08-11T11:36:39Z</time>
      </trkpt>
      <trkpt lat="42.81812" lon="0.33116">
        <ele>915.68</ele>
        <time>2018-08-11T11:36:41Z</time>
      </trkpt>
      <trkpt lat="42.81779" lon="0.3312">
        <ele>914.39</ele>
        <time>2018-08-11T11:36:43Z</time>
      </trkpt>
      <trkpt lat="42.81747" lon="0.33108">
        <ele>912.88</ele>
        <time>2018-08-11T11:36:45Z</time>
      </trkpt>
      <trkpt lat="42.81718" lon="0.33096">
        <ele>909.8</ele>
        <time>2018-08-11T11:36:47Z</time>
      </trkpt>
      <trkpt lat="42.81689" lon="0.33081">
        <ele>908.83</ele>
        <time>2018-08-11T11:36:49Z</time>
      </trkpt>
      <trkpt lat="42.81667" lon="0.33064">
        <ele>907.41</ele>
        <time>2018-08-11T11:36:51Z</time>
      </trkpt>
      <trkpt lat="42.81647" lon="0.33022">
        <ele>907.28</ele>
        <time>2018-08-11T11:36:53Z</time>
      </trkpt>
      <trkpt lat="42.81633" lon="0.32981">
        <ele>906.57</ele>
        <time>2018-08-11T11:36:55Z</time>
      </trkpt>
      <trkpt lat="42.81624" lon="0.32936">
        <ele>905.38</ele>
        <time>2018-08-11T11:36:57Z</time>
      </trkpt>
      <trkpt lat="42.81629" lon="0.329">
        <ele>904.58</ele>
        <time>2018-08-11T11:36:59Z</time>
      </trkpt>
      <trkpt lat="42.8163" lon="0.32866">
        <ele>903.59</ele>
        <time>2018-08-11T11:37:01Z</time>
      </trkpt>
      <trkpt lat="42.81619" lon="0.32832">
        <ele>903.09</ele>
        <time>2018-08-11T11:37:03Z</time>
      </trkpt>
      <trkpt lat="42.81604" lon="0.32792">
        <ele>900.24</ele>
        <time>2018-08-11T11:37:05Z</time>
      </trkpt>
      <trkpt lat="42.81594" lon="0.32758">
        <ele>898.44</ele>
        <time>2018-08-11T11:37:07Z</time>
      </trkpt>
      <trkpt lat="42.81567" lon="0.32736">
        <ele>896.46</ele>
        <time>2018-08-11T11:37:09Z</time>
      </trkpt>
      <trkpt lat="42.81536" lon="0.32712">
        <ele>895.37</ele>
        <time>2018-08-11T11:37:11Z</time>
      </trkpt>
      <trkpt lat="42.81512" lon="0.32689">
        <ele>892.76</ele>
        <time>2018-08-11T11:37:13Z</time>
      </trkpt>
      <trkpt lat="42.81487" lon="0.32671">
        <ele>892.31</ele>
        <time>2018-08-11T11:37:15Z</time>
      </trkpt>
      <trkpt lat="42.8146" lon="0.32665">
        <ele>891.57</ele>
        <time>2018-08-11T11:37:17Z</time>
      </trkpt>
      <trkpt lat="42.81432" lon="0.32655">
        <ele>890.59</ele>
        <time>2018-08-11T11:37:19Z</time>
      </trkpt>
      <trkpt lat="42.81408" lon="0.32645">
        <ele>889.6</ele>
        <time>2018-08-11T11:37:21Z</time>
      </trkpt>
      <trkpt lat="42.81395" lon="0.32603">
        <ele>886.5</ele>
        <time>2018-08-11T11:37:23Z</time>
      </trkpt>
      <trkpt lat="42.81376" lon="0.32572">
        <ele>883.77</ele>
        <time>2018-08-11T11:37:25Z</time>
      </trkpt>
      <trkpt lat="42.81358" lon="0.32538">
        <ele>881.91</ele>
        <time>2018-08-11T11:37:27Z</time>
      </trkpt>
      <trkpt lat="42.81345" lon="0.325">
        <ele>879.93</ele>
        <time>2018-08-11T11:37:29Z</time>
      </trkpt>
      <trkpt lat="42.81336" lon="0.32478">
        <ele>878.06</ele>
        <time>2018-08-11T11:37:30Z</time>
      </trkpt>
      <trkpt lat="42.81322" lon="0.32444">
        <ele>875.03</ele>
        <time>2018-08-11T11:37:32Z</time>
      </trkpt>
      <trkpt lat="42.81306" lon="0.3241">
        <ele>872.73</ele>
        <time>2018-08-11T11:37:34Z</time>
      </trkpt>
      <trkpt lat="42.81292" lon="0.32375">
        <ele>872.8</ele>
        <time>2018-08-11T11:37:36Z</time>
      </trkpt>
      <trkpt lat="42.81278" lon="0.32349">
        <ele>871.61</ele>
        <time>2018-08-11T11:37:38Z</time>
      </trkpt>
      <trkpt lat="42.81273" lon="0.3232">
        <ele>869.69</ele>
        <time>2018-08-11T11:37:40Z</time>
      </trkpt>
      <trkpt lat="42.81279" lon="0.32287">
        <ele>868.39</ele>
        <time>2018-08-11T11:37:42Z</time>
      </trkpt>
      <trkpt lat="42.81289" lon="0.32251">
        <ele>868.28</ele>
        <time>2018-08-11T11:37:44Z</time>
      </trkpt>
      <trkpt lat="42.8129" lon="0.32216">
        <ele>866.66</ele>
        <time>2018-08-11T11:37:46Z</time>
      </trkpt>
      <trkpt lat="42.81281" lon="0.32182">
        <ele>866.3</ele>
        <time>2018-08-11T11:37:48Z</time>
      </trkpt>
      <trkpt lat="42.81273" lon="0.32149">
        <ele>864.45</ele>
        <time>2018-08-11T11:37:50Z</time>
      </trkpt>
      <trkpt lat="42.81274" lon="0.32111">
        <ele>863.37</ele>
        <time>2018-08-11T11:37:52Z</time>
      </trkpt>
      <trkpt lat="42.81278" lon="0.32069">
        <ele>863.98</ele>
        <time>2018-08-11T11:37:54Z</time>
      </trkpt>
      <trkpt lat="42.81282" lon="0.32029">
        <ele>863.54</ele>
        <time>2018-08-11T11:37:56Z</time>
      </trkpt>
      <trkpt lat="42.81281" lon="0.31988">
        <ele>862.38</ele>
        <time>2018-08-11T11:37:58Z</time>
      </trkpt>
      <trkpt lat="42.81272" lon="0.31946">
        <ele>861.37</ele>
        <time>2018-08-11T11:38:00Z</time>
      </trkpt>
      <trkpt lat="42.81267" lon="0.31907">
        <ele>859.88</ele>
        <time>2018-08-11T11:38:02Z</time>
      </trkpt>
      <trkpt lat="42.81272" lon="0.31871">
        <ele>857.5</ele>
        <time>2018-08-11T11:38:04Z</time>
      </trkpt>
      <trkpt lat="42.81273" lon="0.31834">
        <ele>853.86</ele>
        <time>2018-08-11T11:38:06Z</time>
      </trkpt>
      <trkpt lat="42.81271" lon="0.31805">
        <ele>853.53</ele>
        <time>2018-08-11T11:38:08Z</time>
      </trkpt>
      <trkpt lat="42.81257" lon="0.31773">
        <ele>848.66</ele>
        <time>2018-08-11T11:38:11Z</time>
      </trkpt>
      <trkpt lat="42.81246" lon="0.31751">
        <ele>847.39</ele>
        <time>2018-08-11T11:38:13Z</time>
      </trkpt>
      <trkpt lat="42.81227" lon="0.31728">
        <ele>845.39</ele>
        <time>2018-08-11T11:38:16Z</time>
      </trkpt>
      <trkpt lat="42.81211" lon="0.31709">
        <ele>847.25</ele>
        <time>2018-08-11T11:38:20Z</time>
      </trkpt>
      <trkpt lat="42.8123" lon="0.31725">
        <ele>850.18</ele>
        <time>2018-08-11T11:39:00Z</time>
      </trkpt>
      <trkpt lat="42.81246" lon="0.31747">
        <ele>847.68</ele>
        <time>2018-08-11T11:39:03Z</time>
      </trkpt>
      <trkpt lat="42.81265" lon="0.31769">
        <ele>842.96</ele>
        <time>2018-08-11T11:39:06Z</time>
      </trkpt>
      <trkpt lat="42.81281" lon="0.31783">
        <ele>842.12</ele>
        <time>2018-08-11T11:39:08Z</time>
      </trkpt>
      <trkpt lat="42.81303" lon="0.31803">
        <ele>839.2</ele>
        <time>2018-08-11T11:39:11Z</time>
      </trkpt>
      <trkpt lat="42.8132" lon="0.31818">
        <ele>838.08</ele>
        <time>2018-08-11T11:39:14Z</time>
      </trkpt>
      <trkpt lat="42.81339" lon="0.31808">
        <ele>836.57</ele>
        <time>2018-08-11T11:39:18Z</time>
      </trkpt>
      <trkpt lat="42.81361" lon="0.31803">
        <ele>836.07</ele>
        <time>2018-08-11T11:39:21Z</time>
      </trkpt>
      <trkpt lat="42.81379" lon="0.31816">
        <ele>836.25</ele>
        <time>2018-08-11T11:39:23Z</time>
      </trkpt>
      <trkpt lat="42.81398" lon="0.3183">
        <ele>835.57</ele>
        <time>2018-08-11T11:39:25Z</time>
      </trkpt>
      <trkpt lat="42.81419" lon="0.31841">
        <ele>834.59</ele>
        <time>2018-08-11T11:39:27Z</time>
      </trkpt>
      <trkpt lat="42.81438" lon="0.31849">
        <ele>832.9</ele>
        <time>2018-08-11T11:39:29Z</time>
      </trkpt>
      <trkpt lat="42.81458" lon="0.31856">
        <ele>830.71</ele>
        <time>2018-08-11T11:39:31Z</time>
      </trkpt>
      <trkpt lat="42.81476" lon="0.31865">
        <ele>830.52</ele>
        <time>2018-08-11T11:39:33Z</time>
      </trkpt>
      <trkpt lat="42.81495" lon="0.31879">
        <ele>829.59</ele>
        <time>2018-08-11T11:39:35Z</time>
      </trkpt>
      <trkpt lat="42.81514" lon="0.31894">
        <ele>827.69</ele>
        <time>2018-08-11T11:39:37Z</time>
      </trkpt>
      <trkpt lat="42.81533" lon="0.3191">
        <ele>826.39</ele>
        <time>2018-08-11T11:39:39Z</time>
      </trkpt>
      <trkpt lat="42.81553" lon="0.31923">
        <ele>827.19</ele>
        <time>2018-08-11T11:39:41Z</time>
      </trkpt>
      <trkpt lat="42.81572" lon="0.31936">
        <ele>825.44</ele>
        <time>2018-08-11T11:39:43Z</time>
      </trkpt>
      <trkpt lat="42.8159" lon="0.31949">
        <ele>825.28</ele>
        <time>2018-08-11T11:39:45Z</time>
      </trkpt>
      <trkpt lat="42.81612" lon="0.31965">
        <ele>823.38</ele>
        <time>2018-08-11T11:39:48Z</time>
      </trkpt>
      <trkpt lat="42.81631" lon="0.31982">
        <ele>824.82</ele>
        <time>2018-08-11T11:39:51Z</time>
      </trkpt>
      <trkpt lat="42.81637" lon="0.32006">
        <ele>826.77</ele>
        <time>2018-08-11T11:39:54Z</time>
      </trkpt>
      <trkpt lat="42.81646" lon="0.32029">
        <ele>825.58</ele>
        <time>2018-08-11T11:39:57Z</time>
      </trkpt>
      <trkpt lat="42.81665" lon="0.32052">
        <ele>825.28</ele>
        <time>2018-08-11T11:40:00Z</time>
      </trkpt>
      <trkpt lat="42.8168" lon="0.32069">
        <ele>825.27</ele>
        <time>2018-08-11T11:40:02Z</time>
      </trkpt>
      <trkpt lat="42.81693" lon="0.32088">
        <ele>826.18</ele>
        <time>2018-08-11T11:40:04Z</time>
      </trkpt>
      <trkpt lat="42.81706" lon="0.32107">
        <ele>824.44</ele>
        <time>2018-08-11T11:40:06Z</time>
      </trkpt>
      <trkpt lat="42.8172" lon="0.32126">
        <ele>823.58</ele>
        <time>2018-08-11T11:40:08Z</time>
      </trkpt>
      <trkpt lat="42.81731" lon="0.32147">
        <ele>823.21</ele>
        <time>2018-08-11T11:40:11Z</time>
      </trkpt>
      <trkpt lat="42.81726" lon="0.3217">
        <ele>822.29</ele>
        <time>2018-08-11T11:40:14Z</time>
      </trkpt>
      <trkpt lat="42.81713" lon="0.32191">
        <ele>822.27</ele>
        <time>2018-08-11T11:40:17Z</time>
      </trkpt>
      <trkpt lat="42.81703" lon="0.32213">
        <ele>823.94</ele>
        <time>2018-08-11T11:40:21Z</time>
      </trkpt>
      <trkpt lat="42.81689" lon="0.3223">
        <ele>827.06</ele>
        <time>2018-08-11T11:40:34Z</time>
      </trkpt>
      <trkpt lat="42.81698" lon="0.32252">
        <ele>824.29</ele>
        <time>2018-08-11T11:40:42Z</time>
      </trkpt>
      <trkpt lat="42.81706" lon="0.32274">
        <ele>818.2</ele>
        <time>2018-08-11T11:40:48Z</time>
      </trkpt>
      <trkpt lat="42.81713" lon="0.32297">
        <ele>814.53</ele>
        <time>2018-08-11T11:40:54Z</time>
      </trkpt>
      <trkpt lat="42.81726" lon="0.32318">
        <ele>814.96</ele>
        <time>2018-08-11T11:41:34Z</time>
      </trkpt>
      <trkpt lat="42.81739" lon="0.32336">
        <ele>817.85</ele>
        <time>2018-08-11T11:41:39Z</time>
      </trkpt>
      <trkpt lat="42.81753" lon="0.32352">
        <ele>823.23</ele>
        <time>2018-08-11T11:43:28Z</time>
      </trkpt>
      <trkpt lat="42.81737" lon="0.3234">
        <ele>806.36</ele>
        <time>2018-08-11T12:15:40Z</time>
      </trkpt>
      <trkpt lat="42.81754" lon="0.32355">
        <ele>814.36</ele>
        <time>2018-08-11T12:21:11Z</time>
      </trkpt>
      <trkpt lat="42.81739" lon="0.3234">
        <ele>815.27</ele>
        <time>2018-08-11T12:21:26Z</time>
      </trkpt>
      <trkpt lat="42.81726" lon="0.32319">
        <ele>815.55</ele>
        <time>2018-08-11T12:21:32Z</time>
      </trkpt>
      <trkpt lat="42.81713" lon="0.32296">
        <ele>816.94</ele>
        <time>2018-08-11T12:21:37Z</time>
      </trkpt>
      <trkpt lat="42.81704" lon="0.32267">
        <ele>818.26</ele>
        <time>2018-08-11T12:21:42Z</time>
      </trkpt>
      <trkpt lat="42.81701" lon="0.32243">
        <ele>818.48</ele>
        <time>2018-08-11T12:21:47Z</time>
      </trkpt>
      <trkpt lat="42.81688" lon="0.32223">
        <ele>818.25</ele>
        <time>2018-08-11T12:21:56Z</time>
      </trkpt>
      <trkpt lat="42.8167" lon="0.32205">
        <ele>817.36</ele>
        <time>2018-08-11T12:22:03Z</time>
      </trkpt>
      <trkpt lat="42.81659" lon="0.32181">
        <ele>818.18</ele>
        <time>2018-08-11T12:22:07Z</time>
      </trkpt>
      <trkpt lat="42.81645" lon="0.32165">
        <ele>819.94</ele>
        <time>2018-08-11T12:22:11Z</time>
      </trkpt>
      <trkpt lat="42.8163" lon="0.3215">
        <ele>821.24</ele>
        <time>2018-08-11T12:22:15Z</time>
      </trkpt>
      <trkpt lat="42.81617" lon="0.32131">
        <ele>822.86</ele>
        <time>2018-08-11T12:22:19Z</time>
      </trkpt>
      <trkpt lat="42.81607" lon="0.32109">
        <ele>823.05</ele>
        <time>2018-08-11T12:22:23Z</time>
      </trkpt>
      <trkpt lat="42.81597" lon="0.32087">
        <ele>822.5</ele>
        <time>2018-08-11T12:22:27Z</time>
      </trkpt>
      <trkpt lat="42.81585" lon="0.3206">
        <ele>822.27</ele>
        <time>2018-08-11T12:22:32Z</time>
      </trkpt>
      <trkpt lat="42.81575" lon="0.32037">
        <ele>823.26</ele>
        <time>2018-08-11T12:22:36Z</time>
      </trkpt>
      <trkpt lat="42.81562" lon="0.32017">
        <ele>823.33</ele>
        <time>2018-08-11T12:22:39Z</time>
      </trkpt>
      <trkpt lat="42.81546" lon="0.32001">
        <ele>823.97</ele>
        <time>2018-08-11T12:22:42Z</time>
      </trkpt>
      <trkpt lat="42.8153" lon="0.31985">
        <ele>824.26</ele>
        <time>2018-08-11T12:22:45Z</time>
      </trkpt>
      <trkpt lat="42.81513" lon="0.31971">
        <ele>825.24</ele>
        <time>2018-08-11T12:22:48Z</time>
      </trkpt>
      <trkpt lat="42.81496" lon="0.31956">
        <ele>825.27</ele>
        <time>2018-08-11T12:22:51Z</time>
      </trkpt>
      <trkpt lat="42.81479" lon="0.31942">
        <ele>826.88</ele>
        <time>2018-08-11T12:22:54Z</time>
      </trkpt>
      <trkpt lat="42.81462" lon="0.31929">
        <ele>827.26</ele>
        <time>2018-08-11T12:22:57Z</time>
      </trkpt>
      <trkpt lat="42.81444" lon="0.31915">
        <ele>827.27</ele>
        <time>2018-08-11T12:23:00Z</time>
      </trkpt>
      <trkpt lat="42.81428" lon="0.31901">
        <ele>827.48</ele>
        <time>2018-08-11T12:23:03Z</time>
      </trkpt>
      <trkpt lat="42.8141" lon="0.31886">
        <ele>827.08</ele>
        <time>2018-08-11T12:23:07Z</time>
      </trkpt>
      <trkpt lat="42.81391" lon="0.31869">
        <ele>828.24</ele>
        <time>2018-08-11T12:23:11Z</time>
      </trkpt>
      <trkpt lat="42.81374" lon="0.31854">
        <ele>828.97</ele>
        <time>2018-08-11T12:23:14Z</time>
      </trkpt>
      <trkpt lat="42.81358" lon="0.31841">
        <ele>829.53</ele>
        <time>2018-08-11T12:23:17Z</time>
      </trkpt>
      <trkpt lat="42.8134" lon="0.31828">
        <ele>827.38</ele>
        <time>2018-08-11T12:23:25Z</time>
      </trkpt>
      <trkpt lat="42.81328" lon="0.31808">
        <ele>829.56</ele>
        <time>2018-08-11T12:23:36Z</time>
      </trkpt>
      <trkpt lat="42.81308" lon="0.31796">
        <ele>830.67</ele>
        <time>2018-08-11T12:23:40Z</time>
      </trkpt>
      <trkpt lat="42.81285" lon="0.31785">
        <ele>832.16</ele>
        <time>2018-08-11T12:23:43Z</time>
      </trkpt>
      <trkpt lat="42.81269" lon="0.3177">
        <ele>832.26</ele>
        <time>2018-08-11T12:23:45Z</time>
      </trkpt>
      <trkpt lat="42.81253" lon="0.31755">
        <ele>833.18</ele>
        <time>2018-08-11T12:23:47Z</time>
      </trkpt>
      <trkpt lat="42.81238" lon="0.31737">
        <ele>834.87</ele>
        <time>2018-08-11T12:23:49Z</time>
      </trkpt>
      <trkpt lat="42.81222" lon="0.31714">
        <ele>836.14</ele>
        <time>2018-08-11T12:23:51Z</time>
      </trkpt>
      <trkpt lat="42.81208" lon="0.31684">
        <ele>837.87</ele>
        <time>2018-08-11T12:23:53Z</time>
      </trkpt>
      <trkpt lat="42.81197" lon="0.31644">
        <ele>839.84</ele>
        <time>2018-08-11T12:23:55Z</time>
      </trkpt>
      <trkpt lat="42.81182" lon="0.31603">
        <ele>842.54</ele>
        <time>2018-08-11T12:23:57Z</time>
      </trkpt>
      <trkpt lat="42.8116" lon="0.31566">
        <ele>846.42</ele>
        <time>2018-08-11T12:23:59Z</time>
      </trkpt>
      <trkpt lat="42.81148" lon="0.31547">
        <ele>847.71</ele>
        <time>2018-08-11T12:24:00Z</time>
      </trkpt>
      <trkpt lat="42.81138" lon="0.31525">
        <ele>848.8</ele>
        <time>2018-08-11T12:24:01Z</time>
      </trkpt>
      <trkpt lat="42.8113" lon="0.31502">
        <ele>849.83</ele>
        <time>2018-08-11T12:24:02Z</time>
      </trkpt>
      <trkpt lat="42.81123" lon="0.31477">
        <ele>850.84</ele>
        <time>2018-08-11T12:24:03Z</time>
      </trkpt>
      <trkpt lat="42.81114" lon="0.31453">
        <ele>851.84</ele>
        <time>2018-08-11T12:24:04Z</time>
      </trkpt>
      <trkpt lat="42.81102" lon="0.3143">
        <ele>852.14</ele>
        <time>2018-08-11T12:24:05Z</time>
      </trkpt>
      <trkpt lat="42.81087" lon="0.31409">
        <ele>852.93</ele>
        <time>2018-08-11T12:24:06Z</time>
      </trkpt>
      <trkpt lat="42.81073" lon="0.31389">
        <ele>854.57</ele>
        <time>2018-08-11T12:24:07Z</time>
      </trkpt>
      <trkpt lat="42.81058" lon="0.31367">
        <ele>855.76</ele>
        <time>2018-08-11T12:24:08Z</time>
      </trkpt>
      <trkpt lat="42.81045" lon="0.31346">
        <ele>856.81</ele>
        <time>2018-08-11T12:24:09Z</time>
      </trkpt>
      <trkpt lat="42.81029" lon="0.31326">
        <ele>857.83</ele>
        <time>2018-08-11T12:24:10Z</time>
      </trkpt>
      <trkpt lat="42.81012" lon="0.31309">
        <ele>858.84</ele>
        <time>2018-08-11T12:24:11Z</time>
      </trkpt>
      <trkpt lat="42.80995" lon="0.31298">
        <ele>859.84</ele>
        <time>2018-08-11T12:24:12Z</time>
      </trkpt>
      <trkpt lat="42.80962" lon="0.31285">
        <ele>860.23</ele>
        <time>2018-08-11T12:24:14Z</time>
      </trkpt>
      <trkpt lat="42.80937" lon="0.31264">
        <ele>860.26</ele>
        <time>2018-08-11T12:24:16Z</time>
      </trkpt>
      <trkpt lat="42.80921" lon="0.31226">
        <ele>860.97</ele>
        <time>2018-08-11T12:24:18Z</time>
      </trkpt>
      <trkpt lat="42.80912" lon="0.31179">
        <ele>861.94</ele>
        <time>2018-08-11T12:24:20Z</time>
      </trkpt>
      <trkpt lat="42.80907" lon="0.31156">
        <ele>862.17</ele>
        <time>2018-08-11T12:24:21Z</time>
      </trkpt>
      <trkpt lat="42.80893" lon="0.31118">
        <ele>862.26</ele>
        <time>2018-08-11T12:24:23Z</time>
      </trkpt>
      <trkpt lat="42.80867" lon="0.31093">
        <ele>863.67</ele>
        <time>2018-08-11T12:24:25Z</time>
      </trkpt>
      <trkpt lat="42.80841" lon="0.31065">
        <ele>864.91</ele>
        <time>2018-08-11T12:24:27Z</time>
      </trkpt>
      <trkpt lat="42.80817" lon="0.31033">
        <ele>866.85</ele>
        <time>2018-08-11T12:24:29Z</time>
      </trkpt>
      <trkpt lat="42.80794" lon="0.31004">
        <ele>868.84</ele>
        <time>2018-08-11T12:24:31Z</time>
      </trkpt>
      <trkpt lat="42.80771" lon="0.30975">
        <ele>869.23</ele>
        <time>2018-08-11T12:24:33Z</time>
      </trkpt>
      <trkpt lat="42.80753" lon="0.30955">
        <ele>869.26</ele>
        <time>2018-08-11T12:24:35Z</time>
      </trkpt>
      <trkpt lat="42.8073" lon="0.30969">
        <ele>870.88</ele>
        <time>2018-08-11T12:24:37Z</time>
      </trkpt>
      <trkpt lat="42.80704" lon="0.30983">
        <ele>871.02</ele>
        <time>2018-08-11T12:24:39Z</time>
      </trkpt>
      <trkpt lat="42.80673" lon="0.30981">
        <ele>869.84</ele>
        <time>2018-08-11T12:24:41Z</time>
      </trkpt>
      <trkpt lat="42.80644" lon="0.30958">
        <ele>869.32</ele>
        <time>2018-08-11T12:24:43Z</time>
      </trkpt>
      <trkpt lat="42.80629" lon="0.30944">
        <ele>869.28</ele>
        <time>2018-08-11T12:24:44Z</time>
      </trkpt>
      <trkpt lat="42.80615" lon="0.30926">
        <ele>868.57</ele>
        <time>2018-08-11T12:24:45Z</time>
      </trkpt>
      <trkpt lat="42.80603" lon="0.30905">
        <ele>868.36</ele>
        <time>2018-08-11T12:24:46Z</time>
      </trkpt>
      <trkpt lat="42.80592" lon="0.30882">
        <ele>868.99</ele>
        <time>2018-08-11T12:24:47Z</time>
      </trkpt>
      <trkpt lat="42.80583" lon="0.30855">
        <ele>868.49</ele>
        <time>2018-08-11T12:24:48Z</time>
      </trkpt>
      <trkpt lat="42.80575" lon="0.30829">
        <ele>867.63</ele>
        <time>2018-08-11T12:24:49Z</time>
      </trkpt>
      <trkpt lat="42.80566" lon="0.30801">
        <ele>868.08</ele>
        <time>2018-08-11T12:24:50Z</time>
      </trkpt>
      <trkpt lat="42.80557" lon="0.30773">
        <ele>868.21</ele>
        <time>2018-08-11T12:24:51Z</time>
      </trkpt>
      <trkpt lat="42.80549" lon="0.30746">
        <ele>868.25</ele>
        <time>2018-08-11T12:24:52Z</time>
      </trkpt>
      <trkpt lat="42.8054" lon="0.30719">
        <ele>868.26</ele>
        <time>2018-08-11T12:24:53Z</time>
      </trkpt>
      <trkpt lat="42.80531" lon="0.30694">
        <ele>868.97</ele>
        <time>2018-08-11T12:24:54Z</time>
      </trkpt>
      <trkpt lat="42.80519" lon="0.30671">
        <ele>869.18</ele>
        <time>2018-08-11T12:24:55Z</time>
      </trkpt>
      <trkpt lat="42.80506" lon="0.3065">
        <ele>869.24</ele>
        <time>2018-08-11T12:24:56Z</time>
      </trkpt>
      <trkpt lat="42.80491" lon="0.30629">
        <ele>869.96</ele>
        <time>2018-08-11T12:24:57Z</time>
      </trkpt>
      <trkpt lat="42.80476" lon="0.30607">
        <ele>870.17</ele>
        <time>2018-08-11T12:24:58Z</time>
      </trkpt>
      <trkpt lat="42.80464" lon="0.30583">
        <ele>870.24</ele>
        <time>2018-08-11T12:24:59Z</time>
      </trkpt>
      <trkpt lat="42.80453" lon="0.30556">
        <ele>870.96</ele>
        <time>2018-08-11T12:25:00Z</time>
      </trkpt>
      <trkpt lat="42.80446" lon="0.30527">
        <ele>871.87</ele>
        <time>2018-08-11T12:25:01Z</time>
      </trkpt>
      <trkpt lat="42.80437" lon="0.30499">
        <ele>872.85</ele>
        <time>2018-08-11T12:25:02Z</time>
      </trkpt>
      <trkpt lat="42.80428" lon="0.3047">
        <ele>873.84</ele>
        <time>2018-08-11T12:25:03Z</time>
      </trkpt>
      <trkpt lat="42.80418" lon="0.30442">
        <ele>874.84</ele>
        <time>2018-08-11T12:25:04Z</time>
      </trkpt>
      <trkpt lat="42.80406" lon="0.30415">
        <ele>875.84</ele>
        <time>2018-08-11T12:25:05Z</time>
      </trkpt>
      <trkpt lat="42.80395" lon="0.30387">
        <ele>877.54</ele>
        <time>2018-08-11T12:25:06Z</time>
      </trkpt>
      <trkpt lat="42.80386" lon="0.30358">
        <ele>878.05</ele>
        <time>2018-08-11T12:25:07Z</time>
      </trkpt>
      <trkpt lat="42.80377" lon="0.30329">
        <ele>878.9</ele>
        <time>2018-08-11T12:25:08Z</time>
      </trkpt>
      <trkpt lat="42.80367" lon="0.30303">
        <ele>880.56</ele>
        <time>2018-08-11T12:25:09Z</time>
      </trkpt>
      <trkpt lat="42.80354" lon="0.30278">
        <ele>882.45</ele>
        <time>2018-08-11T12:25:10Z</time>
      </trkpt>
      <trkpt lat="42.8034" lon="0.30255">
        <ele>883.72</ele>
        <time>2018-08-11T12:25:11Z</time>
      </trkpt>
      <trkpt lat="42.80328" lon="0.3023">
        <ele>884.8</ele>
        <time>2018-08-11T12:25:12Z</time>
      </trkpt>
      <trkpt lat="42.80316" lon="0.30204">
        <ele>885.83</ele>
        <time>2018-08-11T12:25:13Z</time>
      </trkpt>
      <trkpt lat="42.80304" lon="0.3018">
        <ele>886.14</ele>
        <time>2018-08-11T12:25:14Z</time>
      </trkpt>
      <trkpt lat="42.8029" lon="0.30157">
        <ele>886.23</ele>
        <time>2018-08-11T12:25:15Z</time>
      </trkpt>
      <trkpt lat="42.80276" lon="0.30133">
        <ele>886.26</ele>
        <time>2018-08-11T12:25:16Z</time>
      </trkpt>
      <trkpt lat="42.80262" lon="0.30109">
        <ele>886.96</ele>
        <time>2018-08-11T12:25:17Z</time>
      </trkpt>
      <trkpt lat="42.80246" lon="0.30084">
        <ele>887.88</ele>
        <time>2018-08-11T12:25:18Z</time>
      </trkpt>
      <trkpt lat="42.8023" lon="0.3006">
        <ele>888.15</ele>
        <time>2018-08-11T12:25:19Z</time>
      </trkpt>
      <trkpt lat="42.80215" lon="0.30036">
        <ele>887.53</ele>
        <time>2018-08-11T12:25:20Z</time>
      </trkpt>
      <trkpt lat="42.80199" lon="0.30011">
        <ele>888.05</ele>
        <time>2018-08-11T12:25:21Z</time>
      </trkpt>
      <trkpt lat="42.80184" lon="0.29986">
        <ele>888.9</ele>
        <time>2018-08-11T12:25:22Z</time>
      </trkpt>
      <trkpt lat="42.80168" lon="0.29961">
        <ele>889.16</ele>
        <time>2018-08-11T12:25:23Z</time>
      </trkpt>
      <trkpt lat="42.80152" lon="0.29936">
        <ele>889.23</ele>
        <time>2018-08-11T12:25:24Z</time>
      </trkpt>
      <trkpt lat="42.80136" lon="0.29912">
        <ele>888.56</ele>
        <time>2018-08-11T12:25:25Z</time>
      </trkpt>
      <trkpt lat="42.8012" lon="0.29888">
        <ele>889.05</ele>
        <time>2018-08-11T12:25:26Z</time>
      </trkpt>
      <trkpt lat="42.80103" lon="0.29867">
        <ele>889.2</ele>
        <time>2018-08-11T12:25:27Z</time>
      </trkpt>
      <trkpt lat="42.80085" lon="0.29846">
        <ele>888.55</ele>
        <time>2018-08-11T12:25:28Z</time>
      </trkpt>
      <trkpt lat="42.80062" lon="0.29833">
        <ele>888.35</ele>
        <time>2018-08-11T12:25:29Z</time>
      </trkpt>
      <trkpt lat="42.80042" lon="0.29817">
        <ele>888.99</ele>
        <time>2018-08-11T12:25:30Z</time>
      </trkpt>
      <trkpt lat="42.80024" lon="0.29797">
        <ele>889.18</ele>
        <time>2018-08-11T12:25:31Z</time>
      </trkpt>
      <trkpt lat="42.80009" lon="0.29773">
        <ele>889.24</ele>
        <time>2018-08-11T12:25:32Z</time>
      </trkpt>
      <trkpt lat="42.79996" lon="0.29748">
        <ele>890.66</ele>
        <time>2018-08-11T12:25:33Z</time>
      </trkpt>
      <trkpt lat="42.79984" lon="0.29721">
        <ele>891.08</ele>
        <time>2018-08-11T12:25:34Z</time>
      </trkpt>
      <trkpt lat="42.79971" lon="0.29694">
        <ele>891.91</ele>
        <time>2018-08-11T12:25:35Z</time>
      </trkpt>
      <trkpt lat="42.79958" lon="0.29665">
        <ele>892.16</ele>
        <time>2018-08-11T12:25:36Z</time>
      </trkpt>
      <trkpt lat="42.79945" lon="0.29639">
        <ele>892.24</ele>
        <time>2018-08-11T12:25:37Z</time>
      </trkpt>
      <trkpt lat="42.79932" lon="0.29611">
        <ele>892.96</ele>
        <time>2018-08-11T12:25:38Z</time>
      </trkpt>
      <trkpt lat="42.79919" lon="0.29583">
        <ele>893.87</ele>
        <time>2018-08-11T12:25:39Z</time>
      </trkpt>
      <trkpt lat="42.79906" lon="0.29556">
        <ele>894.15</ele>
        <time>2018-08-11T12:25:40Z</time>
      </trkpt>
      <trkpt lat="42.79893" lon="0.29528">
        <ele>894.93</ele>
        <time>2018-08-11T12:25:41Z</time>
      </trkpt>
      <trkpt lat="42.79879" lon="0.29501">
        <ele>895.87</ele>
        <time>2018-08-11T12:25:42Z</time>
      </trkpt>
      <trkpt lat="42.79866" lon="0.29474">
        <ele>896.85</ele>
        <time>2018-08-11T12:25:43Z</time>
      </trkpt>
      <trkpt lat="42.79852" lon="0.29449">
        <ele>898.54</ele>
        <time>2018-08-11T12:25:44Z</time>
      </trkpt>
      <trkpt lat="42.79838" lon="0.29425">
        <ele>899.75</ele>
        <time>2018-08-11T12:25:45Z</time>
      </trkpt>
      <trkpt lat="42.79821" lon="0.29404">
        <ele>900.81</ele>
        <time>2018-08-11T12:25:46Z</time>
      </trkpt>
      <trkpt lat="42.79806" lon="0.29382">
        <ele>901.83</ele>
        <time>2018-08-11T12:25:47Z</time>
      </trkpt>
      <trkpt lat="42.79794" lon="0.2936">
        <ele>902.84</ele>
        <time>2018-08-11T12:25:48Z</time>
      </trkpt>
      <trkpt lat="42.79785" lon="0.29337">
        <ele>903.84</ele>
        <time>2018-08-11T12:25:49Z</time>
      </trkpt>
      <trkpt lat="42.79779" lon="0.29313">
        <ele>904.84</ele>
        <time>2018-08-11T12:25:50Z</time>
      </trkpt>
      <trkpt lat="42.79776" lon="0.29269">
        <ele>906.14</ele>
        <time>2018-08-11T12:25:52Z</time>
      </trkpt>
      <trkpt lat="42.79779" lon="0.29232">
        <ele>907.87</ele>
        <time>2018-08-11T12:25:54Z</time>
      </trkpt>
      <trkpt lat="42.79798" lon="0.29212">
        <ele>908.85</ele>
        <time>2018-08-11T12:25:55Z</time>
      </trkpt>
      <trkpt lat="42.79812" lon="0.29193">
        <ele>909.84</ele>
        <time>2018-08-11T12:25:56Z</time>
      </trkpt>
      <trkpt lat="42.7983" lon="0.29176">
        <ele>910.14</ele>
        <time>2018-08-11T12:25:57Z</time>
      </trkpt>
      <trkpt lat="42.79849" lon="0.29161">
        <ele>910.93</ele>
        <time>2018-08-11T12:25:58Z</time>
      </trkpt>
      <trkpt lat="42.79869" lon="0.2915">
        <ele>912.57</ele>
        <time>2018-08-11T12:25:59Z</time>
      </trkpt>
      <trkpt lat="42.79887" lon="0.29139">
        <ele>913.76</ele>
        <time>2018-08-11T12:26:00Z</time>
      </trkpt>
      <trkpt lat="42.79904" lon="0.29126">
        <ele>914.11</ele>
        <time>2018-08-11T12:26:01Z</time>
      </trkpt>
      <trkpt lat="42.79923" lon="0.2909">
        <ele>915.86</ele>
        <time>2018-08-11T12:26:03Z</time>
      </trkpt>
      <trkpt lat="42.79933" lon="0.29046">
        <ele>915.74</ele>
        <time>2018-08-11T12:26:05Z</time>
      </trkpt>
      <trkpt lat="42.79917" lon="0.28998">
        <ele>914.4</ele>
        <time>2018-08-11T12:26:07Z</time>
      </trkpt>
      <trkpt lat="42.79888" lon="0.28974">
        <ele>916.41</ele>
        <time>2018-08-11T12:26:08Z</time>
      </trkpt>
      <trkpt lat="42.79878" lon="0.2895">
        <ele>917.71</ele>
        <time>2018-08-11T12:26:09Z</time>
      </trkpt>
      <trkpt lat="42.7986" lon="0.28904">
        <ele>922.14</ele>
        <time>2018-08-11T12:26:11Z</time>
      </trkpt>
      <trkpt lat="42.79847" lon="0.28881">
        <ele>924.33</ele>
        <time>2018-08-11T12:26:12Z</time>
      </trkpt>
      <trkpt lat="42.79833" lon="0.28859">
        <ele>925.69</ele>
        <time>2018-08-11T12:26:13Z</time>
      </trkpt>
      <trkpt lat="42.79822" lon="0.28839">
        <ele>927.49</ele>
        <time>2018-08-11T12:26:14Z</time>
      </trkpt>
      <trkpt lat="42.79812" lon="0.28819">
        <ele>928.73</ele>
        <time>2018-08-11T12:26:15Z</time>
      </trkpt>
      <trkpt lat="42.79798" lon="0.28781">
        <ele>929.92</ele>
        <time>2018-08-11T12:26:17Z</time>
      </trkpt>
      <trkpt lat="42.79805" lon="0.28741">
        <ele>931.85</ele>
        <time>2018-08-11T12:26:19Z</time>
      </trkpt>
      <trkpt lat="42.7982" lon="0.28699">
        <ele>934.75</ele>
        <time>2018-08-11T12:26:21Z</time>
      </trkpt>
      <trkpt lat="42.79845" lon="0.28665">
        <ele>935.92</ele>
        <time>2018-08-11T12:26:23Z</time>
      </trkpt>
      <trkpt lat="42.79859" lon="0.28648">
        <ele>936.16</ele>
        <time>2018-08-11T12:26:24Z</time>
      </trkpt>
      <trkpt lat="42.79867" lon="0.28625">
        <ele>936.94</ele>
        <time>2018-08-11T12:26:25Z</time>
      </trkpt>
      <trkpt lat="42.79872" lon="0.28601">
        <ele>937.17</ele>
        <time>2018-08-11T12:26:26Z</time>
      </trkpt>
      <trkpt lat="42.79877" lon="0.28576">
        <ele>937.94</ele>
        <time>2018-08-11T12:26:27Z</time>
      </trkpt>
      <trkpt lat="42.79877" lon="0.2855">
        <ele>939.57</ele>
        <time>2018-08-11T12:26:28Z</time>
      </trkpt>
      <trkpt lat="42.79878" lon="0.28522">
        <ele>940.06</ele>
        <time>2018-08-11T12:26:29Z</time>
      </trkpt>
      <trkpt lat="42.79873" lon="0.28494">
        <ele>941.6</ele>
        <time>2018-08-11T12:26:30Z</time>
      </trkpt>
      <trkpt lat="42.7987" lon="0.28465">
        <ele>943.47</ele>
        <time>2018-08-11T12:26:31Z</time>
      </trkpt>
      <trkpt lat="42.79868" lon="0.28435">
        <ele>944.73</ele>
        <time>2018-08-11T12:26:32Z</time>
      </trkpt>
      <trkpt lat="42.79866" lon="0.28405">
        <ele>946.51</ele>
        <time>2018-08-11T12:26:33Z</time>
      </trkpt>
      <trkpt lat="42.79866" lon="0.28375">
        <ele>948.44</ele>
        <time>2018-08-11T12:26:34Z</time>
      </trkpt>
      <trkpt lat="42.79866" lon="0.28345">
        <ele>949.72</ele>
        <time>2018-08-11T12:26:35Z</time>
      </trkpt>
      <trkpt lat="42.79869" lon="0.28314">
        <ele>950.8</ele>
        <time>2018-08-11T12:26:36Z</time>
      </trkpt>
      <trkpt lat="42.79873" lon="0.28285">
        <ele>951.13</ele>
        <time>2018-08-11T12:26:37Z</time>
      </trkpt>
      <trkpt lat="42.79878" lon="0.28257">
        <ele>951.93</ele>
        <time>2018-08-11T12:26:38Z</time>
      </trkpt>
      <trkpt lat="42.79883" lon="0.2823">
        <ele>953.56</ele>
        <time>2018-08-11T12:26:39Z</time>
      </trkpt>
      <trkpt lat="42.79887" lon="0.28203">
        <ele>954.06</ele>
        <time>2018-08-11T12:26:40Z</time>
      </trkpt>
      <trkpt lat="42.79889" lon="0.28177">
        <ele>954.2</ele>
        <time>2018-08-11T12:26:41Z</time>
      </trkpt>
      <trkpt lat="42.79876" lon="0.28146">
        <ele>955.65</ele>
        <time>2018-08-11T12:26:42Z</time>
      </trkpt>
      <trkpt lat="42.79876" lon="0.28117">
        <ele>956.78</ele>
        <time>2018-08-11T12:26:43Z</time>
      </trkpt>
      <trkpt lat="42.79877" lon="0.28089">
        <ele>957.12</ele>
        <time>2018-08-11T12:26:44Z</time>
      </trkpt>
      <trkpt lat="42.79882" lon="0.28064">
        <ele>956.52</ele>
        <time>2018-08-11T12:26:45Z</time>
      </trkpt>
      <trkpt lat="42.7989" lon="0.28039">
        <ele>957.04</ele>
        <time>2018-08-11T12:26:46Z</time>
      </trkpt>
      <trkpt lat="42.79895" lon="0.28013">
        <ele>957.2</ele>
        <time>2018-08-11T12:26:47Z</time>
      </trkpt>
      <trkpt lat="42.79893" lon="0.27982">
        <ele>957.95</ele>
        <time>2018-08-11T12:26:48Z</time>
      </trkpt>
      <trkpt lat="42.79893" lon="0.27951">
        <ele>958.17</ele>
        <time>2018-08-11T12:26:49Z</time>
      </trkpt>
      <trkpt lat="42.79885" lon="0.27916">
        <ele>959.64</ele>
        <time>2018-08-11T12:26:50Z</time>
      </trkpt>
      <trkpt lat="42.79881" lon="0.27882">
        <ele>961.48</ele>
        <time>2018-08-11T12:26:51Z</time>
      </trkpt>
      <trkpt lat="42.79879" lon="0.27849">
        <ele>962.73</ele>
        <time>2018-08-11T12:26:52Z</time>
      </trkpt>
      <trkpt lat="42.79877" lon="0.27817">
        <ele>963.81</ele>
        <time>2018-08-11T12:26:53Z</time>
      </trkpt>
      <trkpt lat="42.79874" lon="0.27786">
        <ele>964.83</ele>
        <time>2018-08-11T12:26:54Z</time>
      </trkpt>
      <trkpt lat="42.7987" lon="0.27755">
        <ele>965.14</ele>
        <time>2018-08-11T12:26:55Z</time>
      </trkpt>
      <trkpt lat="42.79861" lon="0.27725">
        <ele>966.63</ele>
        <time>2018-08-11T12:26:56Z</time>
      </trkpt>
      <trkpt lat="42.79854" lon="0.27694">
        <ele>967.78</ele>
        <time>2018-08-11T12:26:57Z</time>
      </trkpt>
      <trkpt lat="42.79847" lon="0.27663">
        <ele>968.82</ele>
        <time>2018-08-11T12:26:58Z</time>
      </trkpt>
      <trkpt lat="42.79838" lon="0.27633">
        <ele>969.13</ele>
        <time>2018-08-11T12:26:59Z</time>
      </trkpt>
      <trkpt lat="42.7983" lon="0.27605">
        <ele>969.93</ele>
        <time>2018-08-11T12:27:00Z</time>
      </trkpt>
      <trkpt lat="42.7982" lon="0.27579">
        <ele>969.46</ele>
        <time>2018-08-11T12:27:01Z</time>
      </trkpt>
      <trkpt lat="42.79807" lon="0.27555">
        <ele>969.33</ele>
        <time>2018-08-11T12:27:02Z</time>
      </trkpt>
      <trkpt lat="42.79792" lon="0.2753">
        <ele>969.28</ele>
        <time>2018-08-11T12:27:03Z</time>
      </trkpt>
      <trkpt lat="42.79778" lon="0.27507">
        <ele>970.67</ele>
        <time>2018-08-11T12:27:04Z</time>
      </trkpt>
      <trkpt lat="42.79768" lon="0.27482">
        <ele>971.09</ele>
        <time>2018-08-11T12:27:05Z</time>
      </trkpt>
      <trkpt lat="42.7975" lon="0.27443">
        <ele>971.46</ele>
        <time>2018-08-11T12:27:07Z</time>
      </trkpt>
      <trkpt lat="42.7973" lon="0.27409">
        <ele>972.19</ele>
        <time>2018-08-11T12:27:09Z</time>
      </trkpt>
      <trkpt lat="42.79698" lon="0.27387">
        <ele>972.26</ele>
        <time>2018-08-11T12:27:11Z</time>
      </trkpt>
      <trkpt lat="42.79678" lon="0.27375">
        <ele>972.27</ele>
        <time>2018-08-11T12:27:12Z</time>
      </trkpt>
      <trkpt lat="42.79663" lon="0.27363">
        <ele>972.97</ele>
        <time>2018-08-11T12:27:13Z</time>
      </trkpt>
      <trkpt lat="42.79648" lon="0.2735">
        <ele>973.18</ele>
        <time>2018-08-11T12:27:14Z</time>
      </trkpt>
      <trkpt lat="42.79634" lon="0.27333">
        <ele>973.24</ele>
        <time>2018-08-11T12:27:15Z</time>
      </trkpt>
      <trkpt lat="42.79618" lon="0.27305">
        <ele>975.78</ele>
        <time>2018-08-11T12:27:17Z</time>
      </trkpt>
      <trkpt lat="42.79598" lon="0.27266">
        <ele>978.53</ele>
        <time>2018-08-11T12:27:19Z</time>
      </trkpt>
      <trkpt lat="42.79587" lon="0.27242">
        <ele>979.75</ele>
        <time>2018-08-11T12:27:20Z</time>
      </trkpt>
      <trkpt lat="42.79578" lon="0.27216">
        <ele>981.51</ele>
        <time>2018-08-11T12:27:21Z</time>
      </trkpt>
      <trkpt lat="42.79561" lon="0.27192">
        <ele>984.14</ele>
        <time>2018-08-11T12:27:22Z</time>
      </trkpt>
      <trkpt lat="42.79549" lon="0.2717">
        <ele>985.63</ele>
        <time>2018-08-11T12:27:23Z</time>
      </trkpt>
      <trkpt lat="42.79539" lon="0.27145">
        <ele>986.08</ele>
        <time>2018-08-11T12:27:24Z</time>
      </trkpt>
      <trkpt lat="42.7953" lon="0.27118">
        <ele>986.21</ele>
        <time>2018-08-11T12:27:25Z</time>
      </trkpt>
      <trkpt lat="42.79525" lon="0.27086">
        <ele>988.35</ele>
        <time>2018-08-11T12:27:26Z</time>
      </trkpt>
      <trkpt lat="42.7952" lon="0.27056">
        <ele>989.69</ele>
        <time>2018-08-11T12:27:27Z</time>
      </trkpt>
      <trkpt lat="42.79513" lon="0.2703">
        <ele>989.39</ele>
        <time>2018-08-11T12:27:28Z</time>
      </trkpt>
      <trkpt lat="42.79505" lon="0.27005">
        <ele>990.71</ele>
        <time>2018-08-11T12:27:29Z</time>
      </trkpt>
      <trkpt lat="42.79495" lon="0.26979">
        <ele>991.8</ele>
        <time>2018-08-11T12:27:30Z</time>
      </trkpt>
      <trkpt lat="42.79486" lon="0.26953">
        <ele>992.13</ele>
        <time>2018-08-11T12:27:31Z</time>
      </trkpt>
      <trkpt lat="42.79477" lon="0.26928">
        <ele>993.62</ele>
        <time>2018-08-11T12:27:32Z</time>
      </trkpt>
      <trkpt lat="42.79466" lon="0.26901">
        <ele>994.77</ele>
        <time>2018-08-11T12:27:33Z</time>
      </trkpt>
      <trkpt lat="42.79453" lon="0.26874">
        <ele>995.12</ele>
        <time>2018-08-11T12:27:34Z</time>
      </trkpt>
      <trkpt lat="42.7944" lon="0.26847">
        <ele>995.22</ele>
        <time>2018-08-11T12:27:35Z</time>
      </trkpt>
      <trkpt lat="42.79426" lon="0.26821">
        <ele>995.95</ele>
        <time>2018-08-11T12:27:36Z</time>
      </trkpt>
      <trkpt lat="42.79412" lon="0.26796">
        <ele>996.17</ele>
        <time>2018-08-11T12:27:37Z</time>
      </trkpt>
      <trkpt lat="42.79397" lon="0.26777">
        <ele>996.94</ele>
        <time>2018-08-11T12:27:38Z</time>
      </trkpt>
      <trkpt lat="42.79385" lon="0.26759">
        <ele>997.17</ele>
        <time>2018-08-11T12:27:39Z</time>
      </trkpt>
      <trkpt lat="42.79367" lon="0.26721">
        <ele>997.96</ele>
        <time>2018-08-11T12:27:41Z</time>
      </trkpt>
      <trkpt lat="42.79359" lon="0.26689">
        <ele>1000.55</ele>
        <time>2018-08-11T12:27:43Z</time>
      </trkpt>
      <trkpt lat="42.79377" lon="0.26642">
        <ele>1003.51</ele>
        <time>2018-08-11T12:27:45Z</time>
      </trkpt>
      <trkpt lat="42.79382" lon="0.26614">
        <ele>1004.74</ele>
        <time>2018-08-11T12:27:46Z</time>
      </trkpt>
      <trkpt lat="42.79382" lon="0.26584">
        <ele>1004.41</ele>
        <time>2018-08-11T12:27:47Z</time>
      </trkpt>
      <trkpt lat="42.79377" lon="0.26557">
        <ele>1004.31</ele>
        <time>2018-08-11T12:27:48Z</time>
      </trkpt>
      <trkpt lat="42.79367" lon="0.26527">
        <ele>1003.58</ele>
        <time>2018-08-11T12:27:49Z</time>
      </trkpt>
      <trkpt lat="42.79342" lon="0.26502">
        <ele>1004.76</ele>
        <time>2018-08-11T12:27:50Z</time>
      </trkpt>
      <trkpt lat="42.7933" lon="0.26476">
        <ele>1005.12</ele>
        <time>2018-08-11T12:27:51Z</time>
      </trkpt>
      <trkpt lat="42.79316" lon="0.26454">
        <ele>1005.22</ele>
        <time>2018-08-11T12:27:52Z</time>
      </trkpt>
      <trkpt lat="42.793" lon="0.26435">
        <ele>1006.65</ele>
        <time>2018-08-11T12:27:53Z</time>
      </trkpt>
      <trkpt lat="42.79286" lon="0.26418">
        <ele>1007.78</ele>
        <time>2018-08-11T12:27:54Z</time>
      </trkpt>
      <trkpt lat="42.79267" lon="0.26378">
        <ele>1008.43</ele>
        <time>2018-08-11T12:27:56Z</time>
      </trkpt>
      <trkpt lat="42.79255" lon="0.26336">
        <ele>1008.07</ele>
        <time>2018-08-11T12:27:58Z</time>
      </trkpt>
      <trkpt lat="42.79241" lon="0.26298">
        <ele>1008.04</ele>
        <time>2018-08-11T12:28:00Z</time>
      </trkpt>
      <trkpt lat="42.79224" lon="0.26262">
        <ele>1008.25</ele>
        <time>2018-08-11T12:28:02Z</time>
      </trkpt>
      <trkpt lat="42.79207" lon="0.26228">
        <ele>1009.88</ele>
        <time>2018-08-11T12:28:04Z</time>
      </trkpt>
      <trkpt lat="42.79187" lon="0.26199">
        <ele>1011.14</ele>
        <time>2018-08-11T12:28:06Z</time>
      </trkpt>
      <trkpt lat="42.79163" lon="0.26176">
        <ele>1012.17</ele>
        <time>2018-08-11T12:28:08Z</time>
      </trkpt>
      <trkpt lat="42.79138" lon="0.26153">
        <ele>1013.17</ele>
        <time>2018-08-11T12:28:10Z</time>
      </trkpt>
      <trkpt lat="42.79112" lon="0.26133">
        <ele>1014.87</ele>
        <time>2018-08-11T12:28:12Z</time>
      </trkpt>
      <trkpt lat="42.79088" lon="0.26112">
        <ele>1015.02</ele>
        <time>2018-08-11T12:28:14Z</time>
      </trkpt>
      <trkpt lat="42.79067" lon="0.26088">
        <ele>1016.85</ele>
        <time>2018-08-11T12:28:16Z</time>
      </trkpt>
      <trkpt lat="42.79044" lon="0.26061">
        <ele>1017.93</ele>
        <time>2018-08-11T12:28:18Z</time>
      </trkpt>
      <trkpt lat="42.79018" lon="0.26029">
        <ele>1019.15</ele>
        <time>2018-08-11T12:28:20Z</time>
      </trkpt>
      <trkpt lat="42.79004" lon="0.2601">
        <ele>1019.93</ele>
        <time>2018-08-11T12:28:21Z</time>
      </trkpt>
      <trkpt lat="42.78991" lon="0.25991">
        <ele>1020.17</ele>
        <time>2018-08-11T12:28:22Z</time>
      </trkpt>
      <trkpt lat="42.78978" lon="0.25971">
        <ele>1020.94</ele>
        <time>2018-08-11T12:28:23Z</time>
      </trkpt>
      <trkpt lat="42.78967" lon="0.25949">
        <ele>1021.87</ele>
        <time>2018-08-11T12:28:24Z</time>
      </trkpt>
      <trkpt lat="42.78958" lon="0.25922">
        <ele>1023.55</ele>
        <time>2018-08-11T12:28:25Z</time>
      </trkpt>
      <trkpt lat="42.78948" lon="0.25893">
        <ele>1024.05</ele>
        <time>2018-08-11T12:28:26Z</time>
      </trkpt>
      <trkpt lat="42.78935" lon="0.25864">
        <ele>1024.9</ele>
        <time>2018-08-11T12:28:27Z</time>
      </trkpt>
      <trkpt lat="42.78921" lon="0.25834">
        <ele>1025.86</ele>
        <time>2018-08-11T12:28:28Z</time>
      </trkpt>
      <trkpt lat="42.78906" lon="0.25803">
        <ele>1026.14</ele>
        <time>2018-08-11T12:28:29Z</time>
      </trkpt>
      <trkpt lat="42.78893" lon="0.25773">
        <ele>1026.93</ele>
        <time>2018-08-11T12:28:30Z</time>
      </trkpt>
      <trkpt lat="42.78878" lon="0.25746">
        <ele>1027.17</ele>
        <time>2018-08-11T12:28:31Z</time>
      </trkpt>
      <trkpt lat="42.78863" lon="0.25721">
        <ele>1027.24</ele>
        <time>2018-08-11T12:28:32Z</time>
      </trkpt>
      <trkpt lat="42.78848" lon="0.25698">
        <ele>1027.96</ele>
        <time>2018-08-11T12:28:33Z</time>
      </trkpt>
      <trkpt lat="42.78834" lon="0.25678">
        <ele>1028.87</ele>
        <time>2018-08-11T12:28:34Z</time>
      </trkpt>
      <trkpt lat="42.78821" lon="0.25659">
        <ele>1029.15</ele>
        <time>2018-08-11T12:28:35Z</time>
      </trkpt>
      <trkpt lat="42.78809" lon="0.25642">
        <ele>1029.93</ele>
        <time>2018-08-11T12:28:36Z</time>
      </trkpt>
      <trkpt lat="42.78794" lon="0.25622">
        <ele>1030.87</ele>
        <time>2018-08-11T12:28:37Z</time>
      </trkpt>
      <trkpt lat="42.78779" lon="0.256">
        <ele>1032.55</ele>
        <time>2018-08-11T12:28:38Z</time>
      </trkpt>
      <trkpt lat="42.78762" lon="0.25576">
        <ele>1034.45</ele>
        <time>2018-08-11T12:28:39Z</time>
      </trkpt>
      <trkpt lat="42.78745" lon="0.2555">
        <ele>1035.72</ele>
        <time>2018-08-11T12:28:40Z</time>
      </trkpt>
      <trkpt lat="42.78731" lon="0.25526">
        <ele>1038.2</ele>
        <time>2018-08-11T12:28:41Z</time>
      </trkpt>
      <trkpt lat="42.78717" lon="0.25502">
        <ele>1038.95</ele>
        <time>2018-08-11T12:28:42Z</time>
      </trkpt>
      <trkpt lat="42.78706" lon="0.25479">
        <ele>1040.57</ele>
        <time>2018-08-11T12:28:43Z</time>
      </trkpt>
      <trkpt lat="42.78696" lon="0.25454">
        <ele>1041.06</ele>
        <time>2018-08-11T12:28:44Z</time>
      </trkpt>
      <trkpt lat="42.78691" lon="0.2543">
        <ele>1042.6</ele>
        <time>2018-08-11T12:28:45Z</time>
      </trkpt>
      <trkpt lat="42.78688" lon="0.25405">
        <ele>1043.07</ele>
        <time>2018-08-11T12:28:46Z</time>
      </trkpt>
      <trkpt lat="42.78695" lon="0.25363">
        <ele>1045.77</ele>
        <time>2018-08-11T12:28:48Z</time>
      </trkpt>
      <trkpt lat="42.78699" lon="0.2532">
        <ele>1046.22</ele>
        <time>2018-08-11T12:28:50Z</time>
      </trkpt>
      <trkpt lat="42.78703" lon="0.25279">
        <ele>1046.26</ele>
        <time>2018-08-11T12:28:52Z</time>
      </trkpt>
      <trkpt lat="42.78713" lon="0.2524">
        <ele>1045.57</ele>
        <time>2018-08-11T12:28:54Z</time>
      </trkpt>
      <trkpt lat="42.78724" lon="0.25201">
        <ele>1045.29</ele>
        <time>2018-08-11T12:28:56Z</time>
      </trkpt>
      <trkpt lat="42.78725" lon="0.25155">
        <ele>1046.18</ele>
        <time>2018-08-11T12:28:58Z</time>
      </trkpt>
      <trkpt lat="42.78722" lon="0.25127">
        <ele>1046.24</ele>
        <time>2018-08-11T12:28:59Z</time>
      </trkpt>
      <trkpt lat="42.78722" lon="0.25098">
        <ele>1046.26</ele>
        <time>2018-08-11T12:29:00Z</time>
      </trkpt>
      <trkpt lat="42.78724" lon="0.2507">
        <ele>1046.96</ele>
        <time>2018-08-11T12:29:01Z</time>
      </trkpt>
      <trkpt lat="42.78726" lon="0.25044">
        <ele>1047.18</ele>
        <time>2018-08-11T12:29:02Z</time>
      </trkpt>
      <trkpt lat="42.78726" lon="0.25001">
        <ele>1047.26</ele>
        <time>2018-08-11T12:29:04Z</time>
      </trkpt>
      <trkpt lat="42.7872" lon="0.24963">
        <ele>1049.32</ele>
        <time>2018-08-11T12:29:06Z</time>
      </trkpt>
      <trkpt lat="42.78712" lon="0.24925">
        <ele>1050.2</ele>
        <time>2018-08-11T12:29:08Z</time>
      </trkpt>
      <trkpt lat="42.78708" lon="0.24888">
        <ele>1051.19</ele>
        <time>2018-08-11T12:29:10Z</time>
      </trkpt>
      <trkpt lat="42.78707" lon="0.24856">
        <ele>1051.28</ele>
        <time>2018-08-11T12:29:12Z</time>
      </trkpt>
      <trkpt lat="42.78706" lon="0.24827">
        <ele>1051.5</ele>
        <time>2018-08-11T12:29:14Z</time>
      </trkpt>
      <trkpt lat="42.78704" lon="0.248">
        <ele>1051.52</ele>
        <time>2018-08-11T12:29:16Z</time>
      </trkpt>
      <trkpt lat="42.78704" lon="0.24772">
        <ele>1051.52</ele>
        <time>2018-08-11T12:29:18Z</time>
      </trkpt>
      <trkpt lat="42.78704" lon="0.2474">
        <ele>1050.82</ele>
        <time>2018-08-11T12:29:20Z</time>
      </trkpt>
      <trkpt lat="42.78706" lon="0.2471">
        <ele>1050.55</ele>
        <time>2018-08-11T12:29:22Z</time>
      </trkpt>
      <trkpt lat="42.78707" lon="0.2468">
        <ele>1050.52</ele>
        <time>2018-08-11T12:29:24Z</time>
      </trkpt>
      <trkpt lat="42.78707" lon="0.24648">
        <ele>1051.43</ele>
        <time>2018-08-11T12:29:26Z</time>
      </trkpt>
      <trkpt lat="42.78708" lon="0.2461">
        <ele>1051.51</ele>
        <time>2018-08-11T12:29:28Z</time>
      </trkpt>
      <trkpt lat="42.78708" lon="0.24565">
        <ele>1054.04</ele>
        <time>2018-08-11T12:29:30Z</time>
      </trkpt>
      <trkpt lat="42.78705" lon="0.24526">
        <ele>1056.09</ele>
        <time>2018-08-11T12:29:32Z</time>
      </trkpt>
      <trkpt lat="42.78701" lon="0.24492">
        <ele>1059</ele>
        <time>2018-08-11T12:29:34Z</time>
      </trkpt>
      <trkpt lat="42.78702" lon="0.24459">
        <ele>1061.09</ele>
        <time>2018-08-11T12:29:36Z</time>
      </trkpt>
      <trkpt lat="42.78713" lon="0.24413">
        <ele>1064</ele>
        <time>2018-08-11T12:29:38Z</time>
      </trkpt>
      <trkpt lat="42.78722" lon="0.24388">
        <ele>1065.07</ele>
        <time>2018-08-11T12:29:39Z</time>
      </trkpt>
      <trkpt lat="42.78729" lon="0.24364">
        <ele>1065.39</ele>
        <time>2018-08-11T12:29:40Z</time>
      </trkpt>
      <trkpt lat="42.78736" lon="0.24341">
        <ele>1066.18</ele>
        <time>2018-08-11T12:29:41Z</time>
      </trkpt>
      <trkpt lat="42.78747" lon="0.24297">
        <ele>1067.4</ele>
        <time>2018-08-11T12:29:43Z</time>
      </trkpt>
      <trkpt lat="42.78756" lon="0.24252">
        <ele>1067.51</ele>
        <time>2018-08-11T12:29:45Z</time>
      </trkpt>
      <trkpt lat="42.78745" lon="0.24209">
        <ele>1069.62</ele>
        <time>2018-08-11T12:29:47Z</time>
      </trkpt>
      <trkpt lat="42.78744" lon="0.24164">
        <ele>1069.74</ele>
        <time>2018-08-11T12:29:49Z</time>
      </trkpt>
      <trkpt lat="42.78741" lon="0.24119">
        <ele>1072.06</ele>
        <time>2018-08-11T12:29:51Z</time>
      </trkpt>
      <trkpt lat="42.78745" lon="0.24079">
        <ele>1073.18</ele>
        <time>2018-08-11T12:29:53Z</time>
      </trkpt>
      <trkpt lat="42.78759" lon="0.2405">
        <ele>1074.19</ele>
        <time>2018-08-11T12:29:55Z</time>
      </trkpt>
      <trkpt lat="42.78775" lon="0.24033">
        <ele>1074.42</ele>
        <time>2018-08-11T12:29:56Z</time>
      </trkpt>
      <trkpt lat="42.78796" lon="0.24016">
        <ele>1074.49</ele>
        <time>2018-08-11T12:29:57Z</time>
      </trkpt>
      <trkpt lat="42.78809" lon="0.23987">
        <ele>1075.21</ele>
        <time>2018-08-11T12:29:58Z</time>
      </trkpt>
      <trkpt lat="42.7882" lon="0.23964">
        <ele>1075.43</ele>
        <time>2018-08-11T12:29:59Z</time>
      </trkpt>
      <trkpt lat="42.78826" lon="0.2394">
        <ele>1077.59</ele>
        <time>2018-08-11T12:30:00Z</time>
      </trkpt>
      <trkpt lat="42.78835" lon="0.23895">
        <ele>1079.84</ele>
        <time>2018-08-11T12:30:02Z</time>
      </trkpt>
      <trkpt lat="42.78845" lon="0.23855">
        <ele>1082.98</ele>
        <time>2018-08-11T12:30:04Z</time>
      </trkpt>
      <trkpt lat="42.78864" lon="0.23823">
        <ele>1084.87</ele>
        <time>2018-08-11T12:30:06Z</time>
      </trkpt>
      <trkpt lat="42.78881" lon="0.23793">
        <ele>1086.16</ele>
        <time>2018-08-11T12:30:08Z</time>
      </trkpt>
      <trkpt lat="42.78892" lon="0.2376">
        <ele>1087.4</ele>
        <time>2018-08-11T12:30:10Z</time>
      </trkpt>
      <trkpt lat="42.78901" lon="0.23731">
        <ele>1086.81</ele>
        <time>2018-08-11T12:30:12Z</time>
      </trkpt>
      <trkpt lat="42.78907" lon="0.23697">
        <ele>1088.16</ele>
        <time>2018-08-11T12:30:14Z</time>
      </trkpt>
      <trkpt lat="42.78911" lon="0.23661">
        <ele>1088.49</ele>
        <time>2018-08-11T12:30:16Z</time>
      </trkpt>
      <trkpt lat="42.78912" lon="0.23623">
        <ele>1091.74</ele>
        <time>2018-08-11T12:30:18Z</time>
      </trkpt>
      <trkpt lat="42.78913" lon="0.23585">
        <ele>1093.15</ele>
        <time>2018-08-11T12:30:20Z</time>
      </trkpt>
      <trkpt lat="42.78923" lon="0.23552">
        <ele>1095.8</ele>
        <time>2018-08-11T12:30:22Z</time>
      </trkpt>
      <trkpt lat="42.78934" lon="0.23519">
        <ele>1097.37</ele>
        <time>2018-08-11T12:30:24Z</time>
      </trkpt>
      <trkpt lat="42.78937" lon="0.23483">
        <ele>1099.33</ele>
        <time>2018-08-11T12:30:26Z</time>
      </trkpt>
      <trkpt lat="42.78941" lon="0.23447">
        <ele>1102.02</ele>
        <time>2018-08-11T12:30:28Z</time>
      </trkpt>
      <trkpt lat="42.7894" lon="0.23413">
        <ele>1104.09</ele>
        <time>2018-08-11T12:30:30Z</time>
      </trkpt>
      <trkpt lat="42.78933" lon="0.23379">
        <ele>1105.18</ele>
        <time>2018-08-11T12:30:32Z</time>
      </trkpt>
      <trkpt lat="42.78926" lon="0.23345">
        <ele>1107.31</ele>
        <time>2018-08-11T12:30:34Z</time>
      </trkpt>
      <trkpt lat="42.78916" lon="0.23304">
        <ele>1109.11</ele>
        <time>2018-08-11T12:30:36Z</time>
      </trkpt>
      <trkpt lat="42.78909" lon="0.23257">
        <ele>1110.19</ele>
        <time>2018-08-11T12:30:38Z</time>
      </trkpt>
      <trkpt lat="42.78904" lon="0.2321">
        <ele>1111.4</ele>
        <time>2018-08-11T12:30:40Z</time>
      </trkpt>
      <trkpt lat="42.78904" lon="0.23164">
        <ele>1111.51</ele>
        <time>2018-08-11T12:30:42Z</time>
      </trkpt>
      <trkpt lat="42.78907" lon="0.23118">
        <ele>1113.13</ele>
        <time>2018-08-11T12:30:44Z</time>
      </trkpt>
      <trkpt lat="42.78916" lon="0.23075">
        <ele>1114.4</ele>
        <time>2018-08-11T12:30:46Z</time>
      </trkpt>
      <trkpt lat="42.78932" lon="0.23039">
        <ele>1115.42</ele>
        <time>2018-08-11T12:30:48Z</time>
      </trkpt>
      <trkpt lat="42.78956" lon="0.23011">
        <ele>1115.3</ele>
        <time>2018-08-11T12:30:50Z</time>
      </trkpt>
      <trkpt lat="42.78982" lon="0.22979">
        <ele>1115.5</ele>
        <time>2018-08-11T12:30:52Z</time>
      </trkpt>
      <trkpt lat="42.79001" lon="0.22943">
        <ele>1116.43</ele>
        <time>2018-08-11T12:30:54Z</time>
      </trkpt>
      <trkpt lat="42.7902" lon="0.22905">
        <ele>1120.64</ele>
        <time>2018-08-11T12:30:56Z</time>
      </trkpt>
      <trkpt lat="42.7904" lon="0.22867">
        <ele>1123.26</ele>
        <time>2018-08-11T12:30:58Z</time>
      </trkpt>
      <trkpt lat="42.79064" lon="0.22836">
        <ele>1125.81</ele>
        <time>2018-08-11T12:31:00Z</time>
      </trkpt>
      <trkpt lat="42.79084" lon="0.22814">
        <ele>1128.07</ele>
        <time>2018-08-11T12:31:02Z</time>
      </trkpt>
      <trkpt lat="42.79094" lon="0.22792">
        <ele>1128.27</ele>
        <time>2018-08-11T12:31:04Z</time>
      </trkpt>
      <trkpt lat="42.79073" lon="0.22766">
        <ele>1129.43</ele>
        <time>2018-08-11T12:31:07Z</time>
      </trkpt>
      <trkpt lat="42.79053" lon="0.22751">
        <ele>1128.6</ele>
        <time>2018-08-11T12:31:09Z</time>
      </trkpt>
      <trkpt lat="42.79047" lon="0.22725">
        <ele>1130.63</ele>
        <time>2018-08-11T12:31:11Z</time>
      </trkpt>
      <trkpt lat="42.79045" lon="0.22689">
        <ele>1132.35</ele>
        <time>2018-08-11T12:31:13Z</time>
      </trkpt>
      <trkpt lat="42.79042" lon="0.22648">
        <ele>1135.24</ele>
        <time>2018-08-11T12:31:15Z</time>
      </trkpt>
      <trkpt lat="42.79031" lon="0.22603">
        <ele>1138.3</ele>
        <time>2018-08-11T12:31:17Z</time>
      </trkpt>
      <trkpt lat="42.79023" lon="0.2258">
        <ele>1140.55</ele>
        <time>2018-08-11T12:31:18Z</time>
      </trkpt>
      <trkpt lat="42.79014" lon="0.22556">
        <ele>1142.63</ele>
        <time>2018-08-11T12:31:19Z</time>
      </trkpt>
      <trkpt lat="42.79004" lon="0.22532">
        <ele>1146.05</ele>
        <time>2018-08-11T12:31:20Z</time>
      </trkpt>
      <trkpt lat="42.78993" lon="0.22511">
        <ele>1149.18</ele>
        <time>2018-08-11T12:31:21Z</time>
      </trkpt>
      <trkpt lat="42.78972" lon="0.2247">
        <ele>1152.92</ele>
        <time>2018-08-11T12:31:23Z</time>
      </trkpt>
      <trkpt lat="42.78966" lon="0.22446">
        <ele>1156.14</ele>
        <time>2018-08-11T12:31:24Z</time>
      </trkpt>
      <trkpt lat="42.7896" lon="0.22421">
        <ele>1159.21</ele>
        <time>2018-08-11T12:31:25Z</time>
      </trkpt>
      <trkpt lat="42.78953" lon="0.22396">
        <ele>1162.23</ele>
        <time>2018-08-11T12:31:26Z</time>
      </trkpt>
      <trkpt lat="42.78945" lon="0.2237">
        <ele>1164.53</ele>
        <time>2018-08-11T12:31:27Z</time>
      </trkpt>
      <trkpt lat="42.78937" lon="0.22344">
        <ele>1168.03</ele>
        <time>2018-08-11T12:31:28Z</time>
      </trkpt>
      <trkpt lat="42.78929" lon="0.22319">
        <ele>1170.47</ele>
        <time>2018-08-11T12:31:29Z</time>
      </trkpt>
      <trkpt lat="42.7892" lon="0.22295">
        <ele>1173.31</ele>
        <time>2018-08-11T12:31:30Z</time>
      </trkpt>
      <trkpt lat="42.78912" lon="0.22273">
        <ele>1175.56</ele>
        <time>2018-08-11T12:31:31Z</time>
      </trkpt>
      <trkpt lat="42.78903" lon="0.22233">
        <ele>1178.96</ele>
        <time>2018-08-11T12:31:33Z</time>
      </trkpt>
      <trkpt lat="42.7891" lon="0.22194">
        <ele>1182.48</ele>
        <time>2018-08-11T12:31:35Z</time>
      </trkpt>
      <trkpt lat="42.78914" lon="0.2215">
        <ele>1185.74</ele>
        <time>2018-08-11T12:31:37Z</time>
      </trkpt>
      <trkpt lat="42.78901" lon="0.2211">
        <ele>1188.06</ele>
        <time>2018-08-11T12:31:39Z</time>
      </trkpt>
      <trkpt lat="42.78879" lon="0.22078">
        <ele>1189.18</ele>
        <time>2018-08-11T12:31:41Z</time>
      </trkpt>
      <trkpt lat="42.78869" lon="0.22043">
        <ele>1191.1</ele>
        <time>2018-08-11T12:31:43Z</time>
      </trkpt>
      <trkpt lat="42.78862" lon="0.22012">
        <ele>1193.09</ele>
        <time>2018-08-11T12:31:45Z</time>
      </trkpt>
      <trkpt lat="42.78844" lon="0.21976">
        <ele>1194.39</ele>
        <time>2018-08-11T12:31:47Z</time>
      </trkpt>
      <trkpt lat="42.78834" lon="0.21954">
        <ele>1195.18</ele>
        <time>2018-08-11T12:31:48Z</time>
      </trkpt>
      <trkpt lat="42.78818" lon="0.21929">
        <ele>1196.82</ele>
        <time>2018-08-11T12:31:49Z</time>
      </trkpt>
      <trkpt lat="42.78806" lon="0.21905">
        <ele>1198.01</ele>
        <time>2018-08-11T12:31:50Z</time>
      </trkpt>
      <trkpt lat="42.78798" lon="0.21881">
        <ele>1198.37</ele>
        <time>2018-08-11T12:31:51Z</time>
      </trkpt>
      <trkpt lat="42.78793" lon="0.21854">
        <ele>1199.18</ele>
        <time>2018-08-11T12:31:52Z</time>
      </trkpt>
      <trkpt lat="42.78788" lon="0.21825">
        <ele>1200.12</ele>
        <time>2018-08-11T12:31:53Z</time>
      </trkpt>
      <trkpt lat="42.78785" lon="0.21796">
        <ele>1201.8</ele>
        <time>2018-08-11T12:31:54Z</time>
      </trkpt>
      <trkpt lat="42.78783" lon="0.21766">
        <ele>1202.31</ele>
        <time>2018-08-11T12:31:55Z</time>
      </trkpt>
      <trkpt lat="42.78779" lon="0.21737">
        <ele>1202.46</ele>
        <time>2018-08-11T12:31:56Z</time>
      </trkpt>
      <trkpt lat="42.78775" lon="0.21709">
        <ele>1202.5</ele>
        <time>2018-08-11T12:31:57Z</time>
      </trkpt>
      <trkpt lat="42.78771" lon="0.21684">
        <ele>1202.52</ele>
        <time>2018-08-11T12:31:58Z</time>
      </trkpt>
      <trkpt lat="42.78763" lon="0.21644">
        <ele>1202.52</ele>
        <time>2018-08-11T12:32:00Z</time>
      </trkpt>
      <trkpt lat="42.7874" lon="0.21587">
        <ele>1201.82</ele>
        <time>2018-08-11T12:32:03Z</time>
      </trkpt>
      <trkpt lat="42.78722" lon="0.21581">
        <ele>1201.61</ele>
        <time>2018-08-11T12:32:04Z</time>
      </trkpt>
      <trkpt lat="42.78703" lon="0.21577">
        <ele>1201.55</ele>
        <time>2018-08-11T12:32:05Z</time>
      </trkpt>
      <trkpt lat="42.7868" lon="0.21543">
        <ele>1201.52</ele>
        <time>2018-08-11T12:32:07Z</time>
      </trkpt>
      <trkpt lat="42.7867" lon="0.2152">
        <ele>1200.82</ele>
        <time>2018-08-11T12:32:08Z</time>
      </trkpt>
      <trkpt lat="42.78651" lon="0.21476">
        <ele>1202.37</ele>
        <time>2018-08-11T12:32:10Z</time>
      </trkpt>
      <trkpt lat="42.78651" lon="0.21447">
        <ele>1203.88</ele>
        <time>2018-08-11T12:32:11Z</time>
      </trkpt>
      <trkpt lat="42.78649" lon="0.21418">
        <ele>1205.73</ele>
        <time>2018-08-11T12:32:12Z</time>
      </trkpt>
      <trkpt lat="42.78646" lon="0.21393">
        <ele>1207.68</ele>
        <time>2018-08-11T12:32:13Z</time>
      </trkpt>
      <trkpt lat="42.78648" lon="0.21345">
        <ele>1210.76</ele>
        <time>2018-08-11T12:32:15Z</time>
      </trkpt>
      <trkpt lat="42.78651" lon="0.2132">
        <ele>1213.39</ele>
        <time>2018-08-11T12:32:16Z</time>
      </trkpt>
      <trkpt lat="42.7865" lon="0.21275">
        <ele>1217.64</ele>
        <time>2018-08-11T12:32:18Z</time>
      </trkpt>
      <trkpt lat="42.78639" lon="0.21236">
        <ele>1218.44</ele>
        <time>2018-08-11T12:32:20Z</time>
      </trkpt>
      <trkpt lat="42.78626" lon="0.21217">
        <ele>1218.5</ele>
        <time>2018-08-11T12:32:21Z</time>
      </trkpt>
      <trkpt lat="42.78605" lon="0.212">
        <ele>1219.21</ele>
        <time>2018-08-11T12:32:22Z</time>
      </trkpt>
      <trkpt lat="42.78591" lon="0.21181">
        <ele>1220.13</ele>
        <time>2018-08-11T12:32:23Z</time>
      </trkpt>
      <trkpt lat="42.78564" lon="0.21152">
        <ele>1224.9</ele>
        <time>2018-08-11T12:32:25Z</time>
      </trkpt>
      <trkpt lat="42.78528" lon="0.21143">
        <ele>1227.08</ele>
        <time>2018-08-11T12:32:27Z</time>
      </trkpt>
      <trkpt lat="42.78509" lon="0.21145">
        <ele>1230.19</ele>
        <time>2018-08-11T12:32:28Z</time>
      </trkpt>
      <trkpt lat="42.78491" lon="0.21147">
        <ele>1233.22</ele>
        <time>2018-08-11T12:32:29Z</time>
      </trkpt>
      <trkpt lat="42.78472" lon="0.21145">
        <ele>1234.13</ele>
        <time>2018-08-11T12:32:30Z</time>
      </trkpt>
      <trkpt lat="42.7845" lon="0.21124">
        <ele>1239.32</ele>
        <time>2018-08-11T12:32:32Z</time>
      </trkpt>
      <trkpt lat="42.78437" lon="0.21089">
        <ele>1243.42</ele>
        <time>2018-08-11T12:32:34Z</time>
      </trkpt>
      <trkpt lat="42.78433" lon="0.21043">
        <ele>1247.43</ele>
        <time>2018-08-11T12:32:36Z</time>
      </trkpt>
      <trkpt lat="42.78431" lon="0.21001">
        <ele>1250.03</ele>
        <time>2018-08-11T12:32:38Z</time>
      </trkpt>
      <trkpt lat="42.78431" lon="0.20963">
        <ele>1252.09</ele>
        <time>2018-08-11T12:32:40Z</time>
      </trkpt>
      <trkpt lat="42.78429" lon="0.2093">
        <ele>1254.79</ele>
        <time>2018-08-11T12:32:42Z</time>
      </trkpt>
      <trkpt lat="42.78421" lon="0.20897">
        <ele>1256.86</ele>
        <time>2018-08-11T12:32:44Z</time>
      </trkpt>
      <trkpt lat="42.78406" lon="0.20869">
        <ele>1258.37</ele>
        <time>2018-08-11T12:32:46Z</time>
      </trkpt>
      <trkpt lat="42.7839" lon="0.20844">
        <ele>1257.81</ele>
        <time>2018-08-11T12:32:48Z</time>
      </trkpt>
      <trkpt lat="42.78381" lon="0.20818">
        <ele>1258.46</ele>
        <time>2018-08-11T12:32:50Z</time>
      </trkpt>
      <trkpt lat="42.78376" lon="0.20786">
        <ele>1259.43</ele>
        <time>2018-08-11T12:32:52Z</time>
      </trkpt>
      <trkpt lat="42.78375" lon="0.2075">
        <ele>1259.51</ele>
        <time>2018-08-11T12:32:54Z</time>
      </trkpt>
      <trkpt lat="42.78381" lon="0.20711">
        <ele>1258.82</ele>
        <time>2018-08-11T12:32:56Z</time>
      </trkpt>
      <trkpt lat="42.78382" lon="0.20675">
        <ele>1257.85</ele>
        <time>2018-08-11T12:32:58Z</time>
      </trkpt>
      <trkpt lat="42.78368" lon="0.20647">
        <ele>1258.25</ele>
        <time>2018-08-11T12:33:00Z</time>
      </trkpt>
      <trkpt lat="42.78347" lon="0.20623">
        <ele>1259.41</ele>
        <time>2018-08-11T12:33:02Z</time>
      </trkpt>
      <trkpt lat="42.78328" lon="0.2059">
        <ele>1258.6</ele>
        <time>2018-08-11T12:33:04Z</time>
      </trkpt>
      <trkpt lat="42.78303" lon="0.2056">
        <ele>1257.62</ele>
        <time>2018-08-11T12:33:06Z</time>
      </trkpt>
      <trkpt lat="42.78278" lon="0.2053">
        <ele>1256.62</ele>
        <time>2018-08-11T12:33:08Z</time>
      </trkpt>
      <trkpt lat="42.78255" lon="0.205">
        <ele>1256.53</ele>
        <time>2018-08-11T12:33:10Z</time>
      </trkpt>
      <trkpt lat="42.78242" lon="0.20463">
        <ele>1257.43</ele>
        <time>2018-08-11T12:33:12Z</time>
      </trkpt>
      <trkpt lat="42.78248" lon="0.20416">
        <ele>1260.73</ele>
        <time>2018-08-11T12:33:14Z</time>
      </trkpt>
      <trkpt lat="42.78247" lon="0.2039">
        <ele>1262.69</ele>
        <time>2018-08-11T12:33:15Z</time>
      </trkpt>
      <trkpt lat="42.78243" lon="0.20349">
        <ele>1265.97</ele>
        <time>2018-08-11T12:33:17Z</time>
      </trkpt>
      <trkpt lat="42.78229" lon="0.2033">
        <ele>1267.17</ele>
        <time>2018-08-11T12:33:19Z</time>
      </trkpt>
      <trkpt lat="42.78205" lon="0.20334">
        <ele>1269.19</ele>
        <time>2018-08-11T12:33:22Z</time>
      </trkpt>
      <trkpt lat="42.78211" lon="0.20363">
        <ele>1270.82</ele>
        <time>2018-08-11T12:33:23Z</time>
      </trkpt>
      <trkpt lat="42.78204" lon="0.20402">
        <ele>1273.98</ele>
        <time>2018-08-11T12:33:25Z</time>
      </trkpt>
      <trkpt lat="42.78197" lon="0.20443">
        <ele>1277.69</ele>
        <time>2018-08-11T12:33:27Z</time>
      </trkpt>
      <trkpt lat="42.78192" lon="0.20477">
        <ele>1279.57</ele>
        <time>2018-08-11T12:33:29Z</time>
      </trkpt>
      <trkpt lat="42.78177" lon="0.20461">
        <ele>1283.82</ele>
        <time>2018-08-11T12:33:34Z</time>
      </trkpt>
      <trkpt lat="42.78177" lon="0.20422">
        <ele>1286.18</ele>
        <time>2018-08-11T12:33:37Z</time>
      </trkpt>
      <trkpt lat="42.78173" lon="0.20391">
        <ele>1288.1</ele>
        <time>2018-08-11T12:33:39Z</time>
      </trkpt>
      <trkpt lat="42.78172" lon="0.20357">
        <ele>1290.79</ele>
        <time>2018-08-11T12:33:41Z</time>
      </trkpt>
      <trkpt lat="42.78172" lon="0.20321">
        <ele>1293.07</ele>
        <time>2018-08-11T12:33:43Z</time>
      </trkpt>
      <trkpt lat="42.78173" lon="0.20282">
        <ele>1295.09</ele>
        <time>2018-08-11T12:33:45Z</time>
      </trkpt>
      <trkpt lat="42.78175" lon="0.20241">
        <ele>1297.09</ele>
        <time>2018-08-11T12:33:47Z</time>
      </trkpt>
      <trkpt lat="42.78173" lon="0.20202">
        <ele>1300</ele>
        <time>2018-08-11T12:33:49Z</time>
      </trkpt>
      <trkpt lat="42.78168" lon="0.20162">
        <ele>1303</ele>
        <time>2018-08-11T12:33:51Z</time>
      </trkpt>
      <trkpt lat="42.78166" lon="0.20121">
        <ele>1305.78</ele>
        <time>2018-08-11T12:33:53Z</time>
      </trkpt>
      <trkpt lat="42.78161" lon="0.20082">
        <ele>1308.77</ele>
        <time>2018-08-11T12:33:55Z</time>
      </trkpt>
      <trkpt lat="42.78153" lon="0.20045">
        <ele>1310.85</ele>
        <time>2018-08-11T12:33:57Z</time>
      </trkpt>
      <trkpt lat="42.78144" lon="0.20005">
        <ele>1313.98</ele>
        <time>2018-08-11T12:33:59Z</time>
      </trkpt>
      <trkpt lat="42.78134" lon="0.19966">
        <ele>1316.99</ele>
        <time>2018-08-11T12:34:01Z</time>
      </trkpt>
      <trkpt lat="42.78125" lon="0.19929">
        <ele>1319.99</ele>
        <time>2018-08-11T12:34:03Z</time>
      </trkpt>
      <trkpt lat="42.78107" lon="0.19899">
        <ele>1323.69</ele>
        <time>2018-08-11T12:34:05Z</time>
      </trkpt>
      <trkpt lat="42.78088" lon="0.19874">
        <ele>1325.36</ele>
        <time>2018-08-11T12:34:07Z</time>
      </trkpt>
      <trkpt lat="42.78071" lon="0.19852">
        <ele>1326.42</ele>
        <time>2018-08-11T12:34:09Z</time>
      </trkpt>
      <trkpt lat="42.78059" lon="0.19833">
        <ele>1328.12</ele>
        <time>2018-08-11T12:34:11Z</time>
      </trkpt>
      <trkpt lat="42.78043" lon="0.19804">
        <ele>1327.81</ele>
        <time>2018-08-11T12:34:14Z</time>
      </trkpt>
      <trkpt lat="42.78029" lon="0.19773">
        <ele>1326.62</ele>
        <time>2018-08-11T12:34:17Z</time>
      </trkpt>
      <trkpt lat="42.78025" lon="0.19746">
        <ele>1326.53</ele>
        <time>2018-08-11T12:34:19Z</time>
      </trkpt>
      <trkpt lat="42.78023" lon="0.19715">
        <ele>1327.22</ele>
        <time>2018-08-11T12:34:21Z</time>
      </trkpt>
      <trkpt lat="42.78021" lon="0.19689">
        <ele>1328.49</ele>
        <time>2018-08-11T12:34:24Z</time>
      </trkpt>
      <trkpt lat="42.78018" lon="0.19661">
        <ele>1331.49</ele>
        <time>2018-08-11T12:34:54Z</time>
      </trkpt>
      <trkpt lat="42.78018" lon="0.19636">
        <ele>1331.52</ele>
        <time>2018-08-11T12:34:56Z</time>
      </trkpt>
      <trkpt lat="42.78021" lon="0.19607">
        <ele>1331.52</ele>
        <time>2018-08-11T12:34:58Z</time>
      </trkpt>
      <trkpt lat="42.78023" lon="0.19576">
        <ele>1331.52</ele>
        <time>2018-08-11T12:35:00Z</time>
      </trkpt>
      <trkpt lat="42.78023" lon="0.1955">
        <ele>1332.22</ele>
        <time>2018-08-11T12:35:02Z</time>
      </trkpt>
      <trkpt lat="42.78022" lon="0.19525">
        <ele>1332.52</ele>
        <time>2018-08-11T12:35:06Z</time>
      </trkpt>
      <trkpt lat="42.78017" lon="0.19494">
        <ele>1334.52</ele>
        <time>2018-08-11T12:35:25Z</time>
      </trkpt>
      <trkpt lat="42.78009" lon="0.19464">
        <ele>1334.52</ele>
        <time>2018-08-11T12:35:27Z</time>
      </trkpt>
      <trkpt lat="42.77997" lon="0.19429">
        <ele>1336.13</ele>
        <time>2018-08-11T12:35:29Z</time>
      </trkpt>
      <trkpt lat="42.77982" lon="0.19394">
        <ele>1338.59</ele>
        <time>2018-08-11T12:35:31Z</time>
      </trkpt>
      <trkpt lat="42.77969" lon="0.19356">
        <ele>1341.05</ele>
        <time>2018-08-11T12:35:33Z</time>
      </trkpt>
      <trkpt lat="42.77957" lon="0.19315">
        <ele>1344</ele>
        <time>2018-08-11T12:35:35Z</time>
      </trkpt>
      <trkpt lat="42.77948" lon="0.1927">
        <ele>1346.78</ele>
        <time>2018-08-11T12:35:37Z</time>
      </trkpt>
      <trkpt lat="42.7794" lon="0.19222">
        <ele>1349.98</ele>
        <time>2018-08-11T12:35:39Z</time>
      </trkpt>
      <trkpt lat="42.77933" lon="0.19175">
        <ele>1354.6</ele>
        <time>2018-08-11T12:35:41Z</time>
      </trkpt>
      <trkpt lat="42.77931" lon="0.19132">
        <ele>1357.75</ele>
        <time>2018-08-11T12:35:43Z</time>
      </trkpt>
      <trkpt lat="42.77932" lon="0.19087">
        <ele>1360.27</ele>
        <time>2018-08-11T12:35:45Z</time>
      </trkpt>
      <trkpt lat="42.77929" lon="0.1906">
        <ele>1362.55</ele>
        <time>2018-08-11T12:35:46Z</time>
      </trkpt>
      <trkpt lat="42.77927" lon="0.19033">
        <ele>1364.63</ele>
        <time>2018-08-11T12:35:47Z</time>
      </trkpt>
      <trkpt lat="42.77926" lon="0.19007">
        <ele>1366.65</ele>
        <time>2018-08-11T12:35:48Z</time>
      </trkpt>
      <trkpt lat="42.77925" lon="0.18981">
        <ele>1368.66</ele>
        <time>2018-08-11T12:35:49Z</time>
      </trkpt>
      <trkpt lat="42.77927" lon="0.18957">
        <ele>1370.66</ele>
        <time>2018-08-11T12:35:50Z</time>
      </trkpt>
      <trkpt lat="42.7793" lon="0.18914">
        <ele>1373.96</ele>
        <time>2018-08-11T12:35:52Z</time>
      </trkpt>
      <trkpt lat="42.77936" lon="0.18882">
        <ele>1377.69</ele>
        <time>2018-08-11T12:35:54Z</time>
      </trkpt>
      <trkpt lat="42.77924" lon="0.18857">
        <ele>1380.11</ele>
        <time>2018-08-11T12:35:57Z</time>
      </trkpt>
      <trkpt lat="42.77905" lon="0.18876">
        <ele>1380.51</ele>
        <time>2018-08-11T12:36:00Z</time>
      </trkpt>
      <trkpt lat="42.77904" lon="0.18911">
        <ele>1383.04</ele>
        <time>2018-08-11T12:36:02Z</time>
      </trkpt>
      <trkpt lat="42.77893" lon="0.18949">
        <ele>1385.09</ele>
        <time>2018-08-11T12:36:04Z</time>
      </trkpt>
      <trkpt lat="42.77886" lon="0.18972">
        <ele>1386.09</ele>
        <time>2018-08-11T12:36:05Z</time>
      </trkpt>
      <trkpt lat="42.77881" lon="0.18998">
        <ele>1387.79</ele>
        <time>2018-08-11T12:36:06Z</time>
      </trkpt>
      <trkpt lat="42.77876" lon="0.19028">
        <ele>1390.4</ele>
        <time>2018-08-11T12:36:07Z</time>
      </trkpt>
      <trkpt lat="42.77871" lon="0.19058">
        <ele>1392.59</ele>
        <time>2018-08-11T12:36:08Z</time>
      </trkpt>
      <trkpt lat="42.77866" lon="0.19089">
        <ele>1395.34</ele>
        <time>2018-08-11T12:36:09Z</time>
      </trkpt>
      <trkpt lat="42.77859" lon="0.19118">
        <ele>1398.27</ele>
        <time>2018-08-11T12:36:10Z</time>
      </trkpt>
      <trkpt lat="42.77852" lon="0.19144">
        <ele>1400.55</ele>
        <time>2018-08-11T12:36:11Z</time>
      </trkpt>
      <trkpt lat="42.77848" lon="0.1917">
        <ele>1401.93</ele>
        <time>2018-08-11T12:36:12Z</time>
      </trkpt>
      <trkpt lat="42.77846" lon="0.19197">
        <ele>1403.04</ele>
        <time>2018-08-11T12:36:13Z</time>
      </trkpt>
      <trkpt lat="42.77848" lon="0.19226">
        <ele>1406.18</ele>
        <time>2018-08-11T12:36:14Z</time>
      </trkpt>
      <trkpt lat="42.7785" lon="0.19254">
        <ele>1408.52</ele>
        <time>2018-08-11T12:36:15Z</time>
      </trkpt>
      <trkpt lat="42.77851" lon="0.19281">
        <ele>1409.92</ele>
        <time>2018-08-11T12:36:16Z</time>
      </trkpt>
      <trkpt lat="42.77851" lon="0.19308">
        <ele>1413.14</ele>
        <time>2018-08-11T12:36:17Z</time>
      </trkpt>
      <trkpt lat="42.7785" lon="0.19332">
        <ele>1415.51</ele>
        <time>2018-08-11T12:36:18Z</time>
      </trkpt>
      <trkpt lat="42.77839" lon="0.19376">
        <ele>1419.65</ele>
        <time>2018-08-11T12:36:20Z</time>
      </trkpt>
      <trkpt lat="42.77831" lon="0.19399">
        <ele>1420.96</ele>
        <time>2018-08-11T12:36:21Z</time>
      </trkpt>
      <trkpt lat="42.7782" lon="0.19423">
        <ele>1423.45</ele>
        <time>2018-08-11T12:36:22Z</time>
      </trkpt>
      <trkpt lat="42.77811" lon="0.1945">
        <ele>1426.3</ele>
        <time>2018-08-11T12:36:23Z</time>
      </trkpt>
      <trkpt lat="42.77803" lon="0.19478">
        <ele>1428.56</ele>
        <time>2018-08-11T12:36:24Z</time>
      </trkpt>
      <trkpt lat="42.77798" lon="0.19506">
        <ele>1430.63</ele>
        <time>2018-08-11T12:36:25Z</time>
      </trkpt>
      <trkpt lat="42.77794" lon="0.19532">
        <ele>1432.66</ele>
        <time>2018-08-11T12:36:26Z</time>
      </trkpt>
      <trkpt lat="42.77794" lon="0.1956">
        <ele>1434.66</ele>
        <time>2018-08-11T12:36:27Z</time>
      </trkpt>
      <trkpt lat="42.77793" lon="0.1959">
        <ele>1437.36</ele>
        <time>2018-08-11T12:36:28Z</time>
      </trkpt>
      <trkpt lat="42.77793" lon="0.19619">
        <ele>1440.27</ele>
        <time>2018-08-11T12:36:29Z</time>
      </trkpt>
      <trkpt lat="42.77792" lon="0.19647">
        <ele>1442.55</ele>
        <time>2018-08-11T12:36:30Z</time>
      </trkpt>
      <trkpt lat="42.77794" lon="0.19688">
        <ele>1446.86</ele>
        <time>2018-08-11T12:36:32Z</time>
      </trkpt>
      <trkpt lat="42.77801" lon="0.19712">
        <ele>1449.07</ele>
        <time>2018-08-11T12:36:34Z</time>
      </trkpt>
      <trkpt lat="42.77805" lon="0.19739">
        <ele>1451.18</ele>
        <time>2018-08-11T12:36:37Z</time>
      </trkpt>
      <trkpt lat="42.77786" lon="0.19721">
        <ele>1453.19</ele>
        <time>2018-08-11T12:36:41Z</time>
      </trkpt>
      <trkpt lat="42.77785" lon="0.19687">
        <ele>1455.1</ele>
        <time>2018-08-11T12:36:43Z</time>
      </trkpt>
      <trkpt lat="42.77778" lon="0.1965">
        <ele>1458</ele>
        <time>2018-08-11T12:36:45Z</time>
      </trkpt>
      <trkpt lat="42.77761" lon="0.19613">
        <ele>1461</ele>
        <time>2018-08-11T12:36:47Z</time>
      </trkpt>
      <trkpt lat="42.77753" lon="0.1957">
        <ele>1463.78</ele>
        <time>2018-08-11T12:36:49Z</time>
      </trkpt>
      <trkpt lat="42.7775" lon="0.19525">
        <ele>1465.16</ele>
        <time>2018-08-11T12:36:51Z</time>
      </trkpt>
      <trkpt lat="42.77757" lon="0.19493">
        <ele>1468.01</ele>
        <time>2018-08-11T12:36:53Z</time>
      </trkpt>
      <trkpt lat="42.7776" lon="0.19468">
        <ele>1468.79</ele>
        <time>2018-08-11T12:36:57Z</time>
      </trkpt>
      <trkpt lat="42.77736" lon="0.19472">
        <ele>1471.49</ele>
        <time>2018-08-11T12:37:20Z</time>
      </trkpt>
      <trkpt lat="42.77732" lon="0.19498">
        <ele>1472.22</ele>
        <time>2018-08-11T12:37:22Z</time>
      </trkpt>
      <trkpt lat="42.77728" lon="0.1954">
        <ele>1474.8</ele>
        <time>2018-08-11T12:37:24Z</time>
      </trkpt>
      <trkpt lat="42.77721" lon="0.19564">
        <ele>1477.41</ele>
        <time>2018-08-11T12:37:25Z</time>
      </trkpt>
      <trkpt lat="42.77711" lon="0.19606">
        <ele>1481.64</ele>
        <time>2018-08-11T12:37:27Z</time>
      </trkpt>
      <trkpt lat="42.77714" lon="0.19658">
        <ele>1483.84</ele>
        <time>2018-08-11T12:37:29Z</time>
      </trkpt>
      <trkpt lat="42.77718" lon="0.19684">
        <ele>1485.72</ele>
        <time>2018-08-11T12:37:30Z</time>
      </trkpt>
      <trkpt lat="42.77719" lon="0.19729">
        <ele>1488.76</ele>
        <time>2018-08-11T12:37:32Z</time>
      </trkpt>
      <trkpt lat="42.77725" lon="0.19762">
        <ele>1491.97</ele>
        <time>2018-08-11T12:37:34Z</time>
      </trkpt>
      <trkpt lat="42.77708" lon="0.19775">
        <ele>1494.4</ele>
        <time>2018-08-11T12:37:38Z</time>
      </trkpt>
      <trkpt lat="42.77704" lon="0.19736">
        <ele>1497.31</ele>
        <time>2018-08-11T12:37:41Z</time>
      </trkpt>
      <trkpt lat="42.77689" lon="0.19714">
        <ele>1499.81</ele>
        <time>2018-08-11T12:37:43Z</time>
      </trkpt>
      <trkpt lat="42.77666" lon="0.19694">
        <ele>1502.98</ele>
        <time>2018-08-11T12:37:45Z</time>
      </trkpt>
      <trkpt lat="42.77658" lon="0.19666">
        <ele>1504.87</ele>
        <time>2018-08-11T12:37:47Z</time>
      </trkpt>
      <trkpt lat="42.77654" lon="0.19634">
        <ele>1508.68</ele>
        <time>2018-08-11T12:37:49Z</time>
      </trkpt>
      <trkpt lat="42.77657" lon="0.19606">
        <ele>1510.36</ele>
        <time>2018-08-11T12:37:51Z</time>
      </trkpt>
      <trkpt lat="42.77668" lon="0.19579">
        <ele>1512.46</ele>
        <time>2018-08-11T12:37:54Z</time>
      </trkpt>
      <trkpt lat="42.77656" lon="0.19559">
        <ele>1513.43</ele>
        <time>2018-08-11T12:37:57Z</time>
      </trkpt>
      <trkpt lat="42.77632" lon="0.1957">
        <ele>1513.52</ele>
        <time>2018-08-11T12:38:00Z</time>
      </trkpt>
      <trkpt lat="42.77632" lon="0.1961">
        <ele>1515.62</ele>
        <time>2018-08-11T12:38:02Z</time>
      </trkpt>
      <trkpt lat="42.77623" lon="0.19648">
        <ele>1517.35</ele>
        <time>2018-08-11T12:38:04Z</time>
      </trkpt>
      <trkpt lat="42.77609" lon="0.19685">
        <ele>1520.94</ele>
        <time>2018-08-11T12:38:06Z</time>
      </trkpt>
      <trkpt lat="42.77603" lon="0.19724">
        <ele>1523.99</ele>
        <time>2018-08-11T12:38:08Z</time>
      </trkpt>
      <trkpt lat="42.77606" lon="0.19761">
        <ele>1526.78</ele>
        <time>2018-08-11T12:38:10Z</time>
      </trkpt>
      <trkpt lat="42.77611" lon="0.19796">
        <ele>1530.68</ele>
        <time>2018-08-11T12:38:12Z</time>
      </trkpt>
      <trkpt lat="42.7761" lon="0.19824">
        <ele>1532.85</ele>
        <time>2018-08-11T12:38:14Z</time>
      </trkpt>
      <trkpt lat="42.77597" lon="0.19844">
        <ele>1535.98</ele>
        <time>2018-08-11T12:38:16Z</time>
      </trkpt>
      <trkpt lat="42.77573" lon="0.19864">
        <ele>1538.99</ele>
        <time>2018-08-11T12:38:18Z</time>
      </trkpt>
      <trkpt lat="42.77543" lon="0.19885">
        <ele>1541.78</ele>
        <time>2018-08-11T12:38:20Z</time>
      </trkpt>
      <trkpt lat="42.7752" lon="0.19897">
        <ele>1543.16</ele>
        <time>2018-08-11T12:38:22Z</time>
      </trkpt>
      <trkpt lat="42.77496" lon="0.19888">
        <ele>1545.1</ele>
        <time>2018-08-11T12:38:24Z</time>
      </trkpt>
      <trkpt lat="42.77469" lon="0.19877">
        <ele>1546.39</ele>
        <time>2018-08-11T12:38:26Z</time>
      </trkpt>
      <trkpt lat="42.77447" lon="0.19864">
        <ele>1547.42</ele>
        <time>2018-08-11T12:38:28Z</time>
      </trkpt>
      <trkpt lat="42.77434" lon="0.19844">
        <ele>1548.21</ele>
        <time>2018-08-11T12:38:30Z</time>
      </trkpt>
      <trkpt lat="42.77448" lon="0.19827">
        <ele>1547.9</ele>
        <time>2018-08-11T12:38:34Z</time>
      </trkpt>
      <trkpt lat="42.77495" lon="0.19838">
        <ele>1549.87</ele>
        <time>2018-08-11T12:38:36Z</time>
      </trkpt>
      <trkpt lat="42.77512" lon="0.1984">
        <ele>1551.73</ele>
        <time>2018-08-11T12:38:37Z</time>
      </trkpt>
      <trkpt lat="42.77544" lon="0.19832">
        <ele>1554.06</ele>
        <time>2018-08-11T12:38:39Z</time>
      </trkpt>
      <trkpt lat="42.77566" lon="0.19811">
        <ele>1554.48</ele>
        <time>2018-08-11T12:38:41Z</time>
      </trkpt>
      <trkpt lat="42.77582" lon="0.19785">
        <ele>1553.82</ele>
        <time>2018-08-11T12:38:43Z</time>
      </trkpt>
      <trkpt lat="42.77563" lon="0.19753">
        <ele>1555.14</ele>
        <time>2018-08-11T12:38:46Z</time>
      </trkpt>
      <trkpt lat="42.77519" lon="0.19752">
        <ele>1556.4</ele>
        <time>2018-08-11T12:38:48Z</time>
      </trkpt>
      <trkpt lat="42.77497" lon="0.1975">
        <ele>1557.18</ele>
        <time>2018-08-11T12:38:49Z</time>
      </trkpt>
      <trkpt lat="42.77465" lon="0.19762">
        <ele>1558.12</ele>
        <time>2018-08-11T12:38:50Z</time>
      </trkpt>
      <trkpt lat="42.77433" lon="0.19779">
        <ele>1559.8</ele>
        <time>2018-08-11T12:38:51Z</time>
      </trkpt>
      <trkpt lat="42.77402" lon="0.19791">
        <ele>1560.31</ele>
        <time>2018-08-11T12:38:52Z</time>
      </trkpt>
      <trkpt lat="42.77376" lon="0.19801">
        <ele>1560.46</ele>
        <time>2018-08-11T12:38:53Z</time>
      </trkpt>
      <trkpt lat="42.77352" lon="0.19812">
        <ele>1562.6</ele>
        <time>2018-08-11T12:38:54Z</time>
      </trkpt>
      <trkpt lat="42.77329" lon="0.1982">
        <ele>1565.35</ele>
        <time>2018-08-11T12:38:55Z</time>
      </trkpt>
      <trkpt lat="42.77311" lon="0.19828">
        <ele>1568.97</ele>
        <time>2018-08-11T12:38:56Z</time>
      </trkpt>
      <trkpt lat="42.77291" lon="0.19837">
        <ele>1571.46</ele>
        <time>2018-08-11T12:38:57Z</time>
      </trkpt>
      <trkpt lat="42.77273" lon="0.19848">
        <ele>1572.9</ele>
        <time>2018-08-11T12:38:58Z</time>
      </trkpt>
      <trkpt lat="42.77255" lon="0.19858">
        <ele>1573.34</ele>
        <time>2018-08-11T12:38:59Z</time>
      </trkpt>
      <trkpt lat="42.77244" lon="0.19889">
        <ele>1580.16</ele>
        <time>2018-08-11T12:39:01Z</time>
      </trkpt>
      <trkpt lat="42.77219" lon="0.19902">
        <ele>1583.01</ele>
        <time>2018-08-11T12:39:03Z</time>
      </trkpt>
      <trkpt lat="42.77191" lon="0.19909">
        <ele>1585.3</ele>
        <time>2018-08-11T12:39:05Z</time>
      </trkpt>
      <trkpt lat="42.77156" lon="0.1991">
        <ele>1589.42</ele>
        <time>2018-08-11T12:39:07Z</time>
      </trkpt>
      <trkpt lat="42.77138" lon="0.19907">
        <ele>1591.59</ele>
        <time>2018-08-11T12:39:08Z</time>
      </trkpt>
      <trkpt lat="42.77119" lon="0.19902">
        <ele>1593.64</ele>
        <time>2018-08-11T12:39:09Z</time>
      </trkpt>
      <trkpt lat="42.771" lon="0.19899">
        <ele>1594.96</ele>
        <time>2018-08-11T12:39:10Z</time>
      </trkpt>
      <trkpt lat="42.77081" lon="0.199">
        <ele>1596.05</ele>
        <time>2018-08-11T12:39:11Z</time>
      </trkpt>
      <trkpt lat="42.77063" lon="0.19906">
        <ele>1597.08</ele>
        <time>2018-08-11T12:39:12Z</time>
      </trkpt>
      <trkpt lat="42.77034" lon="0.19924">
        <ele>1601.61</ele>
        <time>2018-08-11T12:39:14Z</time>
      </trkpt>
      <trkpt lat="42.77006" lon="0.19927">
        <ele>1604.26</ele>
        <time>2018-08-11T12:39:16Z</time>
      </trkpt>
      <trkpt lat="42.76976" lon="0.19911">
        <ele>1610.24</ele>
        <time>2018-08-11T12:39:18Z</time>
      </trkpt>
      <trkpt lat="42.76947" lon="0.19885">
        <ele>1615.33</ele>
        <time>2018-08-11T12:39:20Z</time>
      </trkpt>
      <trkpt lat="42.7693" lon="0.19876">
        <ele>1618.26</ele>
        <time>2018-08-11T12:39:21Z</time>
      </trkpt>
      <trkpt lat="42.76911" lon="0.19866">
        <ele>1621.24</ele>
        <time>2018-08-11T12:39:22Z</time>
      </trkpt>
      <trkpt lat="42.76893" lon="0.19854">
        <ele>1624.24</ele>
        <time>2018-08-11T12:39:23Z</time>
      </trkpt>
      <trkpt lat="42.76875" lon="0.19842">
        <ele>1627.24</ele>
        <time>2018-08-11T12:39:24Z</time>
      </trkpt>
      <trkpt lat="42.76858" lon="0.19828">
        <ele>1630.24</ele>
        <time>2018-08-11T12:39:25Z</time>
      </trkpt>
      <trkpt lat="42.76842" lon="0.19814">
        <ele>1632.54</ele>
        <time>2018-08-11T12:39:26Z</time>
      </trkpt>
      <trkpt lat="42.76824" lon="0.19803">
        <ele>1634.63</ele>
        <time>2018-08-11T12:39:27Z</time>
      </trkpt>
      <trkpt lat="42.76805" lon="0.19796">
        <ele>1635.25</ele>
        <time>2018-08-11T12:39:28Z</time>
      </trkpt>
      <trkpt lat="42.76787" lon="0.1979">
        <ele>1636.14</ele>
        <time>2018-08-11T12:39:29Z</time>
      </trkpt>
      <trkpt lat="42.76769" lon="0.19786">
        <ele>1637.11</ele>
        <time>2018-08-11T12:39:30Z</time>
      </trkpt>
      <trkpt lat="42.76738" lon="0.19774">
        <ele>1640.7</ele>
        <time>2018-08-11T12:39:32Z</time>
      </trkpt>
      <trkpt lat="42.76706" lon="0.1976">
        <ele>1641.45</ele>
        <time>2018-08-11T12:39:34Z</time>
      </trkpt>
      <trkpt lat="42.76684" lon="0.19764">
        <ele>1645.7</ele>
        <time>2018-08-11T12:39:35Z</time>
      </trkpt>
      <trkpt lat="42.76664" lon="0.19764">
        <ele>1649.08</ele>
        <time>2018-08-11T12:39:36Z</time>
      </trkpt>
      <trkpt lat="42.76644" lon="0.19763">
        <ele>1651.49</ele>
        <time>2018-08-11T12:39:37Z</time>
      </trkpt>
      <trkpt lat="42.76607" lon="0.1976">
        <ele>1653.13</ele>
        <time>2018-08-11T12:39:39Z</time>
      </trkpt>
      <trkpt lat="42.76592" lon="0.19745">
        <ele>1656.9</ele>
        <time>2018-08-11T12:39:40Z</time>
      </trkpt>
      <trkpt lat="42.76559" lon="0.19726">
        <ele>1662.51</ele>
        <time>2018-08-11T12:39:42Z</time>
      </trkpt>
      <trkpt lat="42.76543" lon="0.19714">
        <ele>1664.62</ele>
        <time>2018-08-11T12:39:43Z</time>
      </trkpt>
      <trkpt lat="42.76526" lon="0.19706">
        <ele>1667.35</ele>
        <time>2018-08-11T12:39:44Z</time>
      </trkpt>
      <trkpt lat="42.76491" lon="0.19705">
        <ele>1674.16</ele>
        <time>2018-08-11T12:39:46Z</time>
      </trkpt>
      <trkpt lat="42.7646" lon="0.19721">
        <ele>1676.31</ele>
        <time>2018-08-11T12:39:48Z</time>
      </trkpt>
      <trkpt lat="42.76431" lon="0.19733">
        <ele>1678.11</ele>
        <time>2018-08-11T12:39:50Z</time>
      </trkpt>
      <trkpt lat="42.76397" lon="0.19732">
        <ele>1680.8</ele>
        <time>2018-08-11T12:39:52Z</time>
      </trkpt>
      <trkpt lat="42.76378" lon="0.1973">
        <ele>1682</ele>
        <time>2018-08-11T12:39:53Z</time>
      </trkpt>
      <trkpt lat="42.76359" lon="0.19725">
        <ele>1684.47</ele>
        <time>2018-08-11T12:39:54Z</time>
      </trkpt>
      <trkpt lat="42.7634" lon="0.19719">
        <ele>1686.61</ele>
        <time>2018-08-11T12:39:55Z</time>
      </trkpt>
      <trkpt lat="42.7632" lon="0.19713">
        <ele>1689.35</ele>
        <time>2018-08-11T12:39:56Z</time>
      </trkpt>
      <trkpt lat="42.763" lon="0.19708">
        <ele>1691.57</ele>
        <time>2018-08-11T12:39:57Z</time>
      </trkpt>
      <trkpt lat="42.76282" lon="0.19703">
        <ele>1692.94</ele>
        <time>2018-08-11T12:39:58Z</time>
      </trkpt>
      <trkpt lat="42.76247" lon="0.19703">
        <ele>1697.18</ele>
        <time>2018-08-11T12:40:00Z</time>
      </trkpt>
      <trkpt lat="42.76219" lon="0.19699">
        <ele>1700.92</ele>
        <time>2018-08-11T12:40:02Z</time>
      </trkpt>
      <trkpt lat="42.76189" lon="0.19691">
        <ele>1702.38</ele>
        <time>2018-08-11T12:40:04Z</time>
      </trkpt>
      <trkpt lat="42.76137" lon="0.19651">
        <ele>1703.18</ele>
        <time>2018-08-11T12:40:08Z</time>
      </trkpt>
      <trkpt lat="42.76119" lon="0.1964">
        <ele>1706.92</ele>
        <time>2018-08-11T12:40:09Z</time>
      </trkpt>
      <trkpt lat="42.76101" lon="0.19626">
        <ele>1710.84</ele>
        <time>2018-08-11T12:40:10Z</time>
      </trkpt>
      <trkpt lat="42.76082" lon="0.19618">
        <ele>1713.42</ele>
        <time>2018-08-11T12:40:11Z</time>
      </trkpt>
      <trkpt lat="42.76063" lon="0.19611">
        <ele>1715.59</ele>
        <time>2018-08-11T12:40:12Z</time>
      </trkpt>
      <trkpt lat="42.76042" lon="0.19607">
        <ele>1717.64</ele>
        <time>2018-08-11T12:40:13Z</time>
      </trkpt>
      <trkpt lat="42.76021" lon="0.19605">
        <ele>1719.66</ele>
        <time>2018-08-11T12:40:14Z</time>
      </trkpt>
      <trkpt lat="42.75999" lon="0.19602">
        <ele>1722.36</ele>
        <time>2018-08-11T12:40:15Z</time>
      </trkpt>
      <trkpt lat="42.75979" lon="0.196">
        <ele>1723.87</ele>
        <time>2018-08-11T12:40:16Z</time>
      </trkpt>
      <trkpt lat="42.75958" lon="0.19598">
        <ele>1725.73</ele>
        <time>2018-08-11T12:40:17Z</time>
      </trkpt>
      <trkpt lat="42.75939" lon="0.19594">
        <ele>1726.98</ele>
        <time>2018-08-11T12:40:18Z</time>
      </trkpt>
      <trkpt lat="42.75912" lon="0.19582">
        <ele>1729.29</ele>
        <time>2018-08-11T12:40:20Z</time>
      </trkpt>
      <trkpt lat="42.75894" lon="0.19556">
        <ele>1731.81</ele>
        <time>2018-08-11T12:40:22Z</time>
      </trkpt>
      <trkpt lat="42.75877" lon="0.19523">
        <ele>1734.07</ele>
        <time>2018-08-11T12:40:24Z</time>
      </trkpt>
      <trkpt lat="42.75851" lon="0.19501">
        <ele>1737.7</ele>
        <time>2018-08-11T12:40:26Z</time>
      </trkpt>
      <trkpt lat="42.75821" lon="0.19487">
        <ele>1740.06</ele>
        <time>2018-08-11T12:40:28Z</time>
      </trkpt>
      <trkpt lat="42.75788" lon="0.19475">
        <ele>1742.09</ele>
        <time>2018-08-11T12:40:30Z</time>
      </trkpt>
      <trkpt lat="42.75753" lon="0.19466">
        <ele>1744.09</ele>
        <time>2018-08-11T12:40:32Z</time>
      </trkpt>
      <trkpt lat="42.75725" lon="0.1945">
        <ele>1746.79</ele>
        <time>2018-08-11T12:40:34Z</time>
      </trkpt>
      <trkpt lat="42.75701" lon="0.1942">
        <ele>1750.68</ele>
        <time>2018-08-11T12:40:36Z</time>
      </trkpt>
      <trkpt lat="42.75677" lon="0.19388">
        <ele>1753.76</ele>
        <time>2018-08-11T12:40:38Z</time>
      </trkpt>
      <trkpt lat="42.75662" lon="0.19349">
        <ele>1756.97</ele>
        <time>2018-08-11T12:40:40Z</time>
      </trkpt>
      <trkpt lat="42.75642" lon="0.19315">
        <ele>1759.08</ele>
        <time>2018-08-11T12:40:42Z</time>
      </trkpt>
      <trkpt lat="42.7561" lon="0.19296">
        <ele>1762</ele>
        <time>2018-08-11T12:40:44Z</time>
      </trkpt>
      <trkpt lat="42.75574" lon="0.19284">
        <ele>1764.79</ele>
        <time>2018-08-11T12:40:46Z</time>
      </trkpt>
      <trkpt lat="42.75557" lon="0.19276">
        <ele>1766.7</ele>
        <time>2018-08-11T12:40:47Z</time>
      </trkpt>
      <trkpt lat="42.75526" lon="0.19254">
        <ele>1770.18</ele>
        <time>2018-08-11T12:40:49Z</time>
      </trkpt>
      <trkpt lat="42.75494" lon="0.1924">
        <ele>1773.01</ele>
        <time>2018-08-11T12:40:51Z</time>
      </trkpt>
      <trkpt lat="42.75463" lon="0.19235">
        <ele>1776.91</ele>
        <time>2018-08-11T12:40:53Z</time>
      </trkpt>
      <trkpt lat="42.75435" lon="0.19215">
        <ele>1779.99</ele>
        <time>2018-08-11T12:40:55Z</time>
      </trkpt>
      <trkpt lat="42.75403" lon="0.19197">
        <ele>1783.69</ele>
        <time>2018-08-11T12:40:57Z</time>
      </trkpt>
      <trkpt lat="42.7537" lon="0.19182">
        <ele>1785.15</ele>
        <time>2018-08-11T12:40:59Z</time>
      </trkpt>
      <trkpt lat="42.75339" lon="0.19167">
        <ele>1787.1</ele>
        <time>2018-08-11T12:41:01Z</time>
      </trkpt>
      <trkpt lat="42.75307" lon="0.19151">
        <ele>1788.18</ele>
        <time>2018-08-11T12:41:03Z</time>
      </trkpt>
      <trkpt lat="42.75276" lon="0.19135">
        <ele>1790.8</ele>
        <time>2018-08-11T12:41:05Z</time>
      </trkpt>
      <trkpt lat="42.75247" lon="0.19115">
        <ele>1793.98</ele>
        <time>2018-08-11T12:41:07Z</time>
      </trkpt>
      <trkpt lat="42.7522" lon="0.19093">
        <ele>1797.69</ele>
        <time>2018-08-11T12:41:09Z</time>
      </trkpt>
      <trkpt lat="42.75193" lon="0.19072">
        <ele>1800.97</ele>
        <time>2018-08-11T12:41:11Z</time>
      </trkpt>
      <trkpt lat="42.75165" lon="0.19056">
        <ele>1802.17</ele>
        <time>2018-08-11T12:41:13Z</time>
      </trkpt>
      <trkpt lat="42.75136" lon="0.19048">
        <ele>1803.4</ele>
        <time>2018-08-11T12:41:15Z</time>
      </trkpt>
      <trkpt lat="42.7511" lon="0.19044">
        <ele>1804.42</ele>
        <time>2018-08-11T12:41:17Z</time>
      </trkpt>
      <trkpt lat="42.7509" lon="0.19036">
        <ele>1805.42</ele>
        <time>2018-08-11T12:41:19Z</time>
      </trkpt>
      <trkpt lat="42.75073" lon="0.19025">
        <ele>1807.12</ele>
        <time>2018-08-11T12:41:21Z</time>
      </trkpt>
      <trkpt lat="42.7505" lon="0.19017">
        <ele>1807.51</ele>
        <time>2018-08-11T12:41:24Z</time>
      </trkpt>
      <trkpt lat="42.75026" lon="0.19013">
        <ele>1809.13</ele>
        <time>2018-08-11T12:41:26Z</time>
      </trkpt>
      <trkpt lat="42.75002" lon="0.19016">
        <ele>1810.4</ele>
        <time>2018-08-11T12:41:28Z</time>
      </trkpt>
      <trkpt lat="42.74982" lon="0.19023">
        <ele>1811.33</ele>
        <time>2018-08-11T12:41:30Z</time>
      </trkpt>
      <trkpt lat="42.74962" lon="0.19038">
        <ele>1812.35</ele>
        <time>2018-08-11T12:41:33Z</time>
      </trkpt>
      <trkpt lat="42.74944" lon="0.19054">
        <ele>1812.66</ele>
        <time>2018-08-11T12:41:37Z</time>
      </trkpt>
      <trkpt lat="42.74928" lon="0.19076">
        <ele>1810.93</ele>
        <time>2018-08-11T12:42:04Z</time>
      </trkpt>
      <trkpt lat="42.74907" lon="0.19092">
        <ele>1812.15</ele>
        <time>2018-08-11T12:42:08Z</time>
      </trkpt>
      <trkpt lat="42.74891" lon="0.19102">
        <ele>1814.25</ele>
        <time>2018-08-11T12:42:11Z</time>
      </trkpt>
      <trkpt lat="42.74872" lon="0.1911">
        <ele>1815.27</ele>
        <time>2018-08-11T12:42:15Z</time>
      </trkpt>
      <trkpt lat="42.74852" lon="0.19116">
        <ele>1816.38</ele>
        <time>2018-08-11T12:42:20Z</time>
      </trkpt>
      <trkpt lat="42.74834" lon="0.19117">
        <ele>1815.66</ele>
        <time>2018-08-11T12:42:26Z</time>
      </trkpt>
      <trkpt lat="42.74817" lon="0.19123">
        <ele>1821.66</ele>
        <time>2018-08-11T12:51:17Z</time>
      </trkpt>
      <trkpt lat="42.74796" lon="0.1913">
        <ele>1820.67</ele>
        <time>2018-08-11T12:51:22Z</time>
      </trkpt>
      <trkpt lat="42.74777" lon="0.19138">
        <ele>1821.65</ele>
        <time>2018-08-11T12:51:26Z</time>
      </trkpt>
      <trkpt lat="42.72005" lon="0.19799">
        <ele>1764.96</ele>
        <time>2018-08-11T12:54:42Z</time>
      </trkpt>
      <trkpt lat="42.72" lon="0.19829">
        <ele>1689.89</ele>
        <time>2018-08-11T12:54:45Z</time>
      </trkpt>
      <trkpt lat="42.71982" lon="0.19857">
        <ele>1677.36</ele>
        <time>2018-08-11T12:54:47Z</time>
      </trkpt>
      <trkpt lat="42.71958" lon="0.19883">
        <ele>1665.17</ele>
        <time>2018-08-11T12:54:49Z</time>
      </trkpt>
      <trkpt lat="42.71926" lon="0.19902">
        <ele>1655.32</ele>
        <time>2018-08-11T12:54:51Z</time>
      </trkpt>
      <trkpt lat="42.71896" lon="0.19915">
        <ele>1651.78</ele>
        <time>2018-08-11T12:54:53Z</time>
      </trkpt>
      <trkpt lat="42.71863" lon="0.19928">
        <ele>1650.97</ele>
        <time>2018-08-11T12:54:55Z</time>
      </trkpt>
      <trkpt lat="42.71847" lon="0.19942">
        <ele>1648.65</ele>
        <time>2018-08-11T12:54:56Z</time>
      </trkpt>
      <trkpt lat="42.71817" lon="0.19964">
        <ele>1644.74</ele>
        <time>2018-08-11T12:54:58Z</time>
      </trkpt>
      <trkpt lat="42.71794" lon="0.19991">
        <ele>1636.69</ele>
        <time>2018-08-11T12:55:00Z</time>
      </trkpt>
      <trkpt lat="42.71769" lon="0.20022">
        <ele>1631.62</ele>
        <time>2018-08-11T12:55:02Z</time>
      </trkpt>
      <trkpt lat="42.71743" lon="0.20055">
        <ele>1628.01</ele>
        <time>2018-08-11T12:55:04Z</time>
      </trkpt>
      <trkpt lat="42.71718" lon="0.20089">
        <ele>1625.17</ele>
        <time>2018-08-11T12:55:06Z</time>
      </trkpt>
      <trkpt lat="42.71694" lon="0.20121">
        <ele>1622.39</ele>
        <time>2018-08-11T12:55:08Z</time>
      </trkpt>
      <trkpt lat="42.71667" lon="0.20149">
        <ele>1617.38</ele>
        <time>2018-08-11T12:55:10Z</time>
      </trkpt>
      <trkpt lat="42.71649" lon="0.20159">
        <ele>1614.08</ele>
        <time>2018-08-11T12:55:11Z</time>
      </trkpt>
      <trkpt lat="42.71631" lon="0.20168">
        <ele>1610.98</ele>
        <time>2018-08-11T12:55:12Z</time>
      </trkpt>
      <trkpt lat="42.71613" lon="0.20178">
        <ele>1608.66</ele>
        <time>2018-08-11T12:55:13Z</time>
      </trkpt>
      <trkpt lat="42.71593" lon="0.2019">
        <ele>1605.86</ele>
        <time>2018-08-11T12:55:14Z</time>
      </trkpt>
      <trkpt lat="42.71574" lon="0.20199">
        <ele>1605.02</ele>
        <time>2018-08-11T12:55:15Z</time>
      </trkpt>
      <trkpt lat="42.71554" lon="0.2021">
        <ele>1604.07</ele>
        <time>2018-08-11T12:55:16Z</time>
      </trkpt>
      <trkpt lat="42.71534" lon="0.20221">
        <ele>1602.38</ele>
        <time>2018-08-11T12:55:17Z</time>
      </trkpt>
      <trkpt lat="42.71517" lon="0.2023">
        <ele>1599.77</ele>
        <time>2018-08-11T12:55:18Z</time>
      </trkpt>
      <trkpt lat="42.71498" lon="0.2024">
        <ele>1598.99</ele>
        <time>2018-08-11T12:55:19Z</time>
      </trkpt>
      <trkpt lat="42.7148" lon="0.20251">
        <ele>1598.06</ele>
        <time>2018-08-11T12:55:20Z</time>
      </trkpt>
      <trkpt lat="42.71464" lon="0.20263">
        <ele>1597.08</ele>
        <time>2018-08-11T12:55:21Z</time>
      </trkpt>
      <trkpt lat="42.71449" lon="0.20278">
        <ele>1596.78</ele>
        <time>2018-08-11T12:55:22Z</time>
      </trkpt>
      <trkpt lat="42.71429" lon="0.20316">
        <ele>1593.45</ele>
        <time>2018-08-11T12:55:24Z</time>
      </trkpt>
      <trkpt lat="42.71432" lon="0.20342">
        <ele>1590.8</ele>
        <time>2018-08-11T12:55:25Z</time>
      </trkpt>
      <trkpt lat="42.71421" lon="0.20385">
        <ele>1584.44</ele>
        <time>2018-08-11T12:55:27Z</time>
      </trkpt>
      <trkpt lat="42.71394" lon="0.20418">
        <ele>1577.99</ele>
        <time>2018-08-11T12:55:29Z</time>
      </trkpt>
      <trkpt lat="42.71373" lon="0.20432">
        <ele>1576.36</ele>
        <time>2018-08-11T12:55:30Z</time>
      </trkpt>
      <trkpt lat="42.71355" lon="0.20446">
        <ele>1573.77</ele>
        <time>2018-08-11T12:55:31Z</time>
      </trkpt>
      <trkpt lat="42.71338" lon="0.2046">
        <ele>1572.99</ele>
        <time>2018-08-11T12:55:32Z</time>
      </trkpt>
      <trkpt lat="42.71309" lon="0.2048">
        <ele>1569.47</ele>
        <time>2018-08-11T12:55:34Z</time>
      </trkpt>
      <trkpt lat="42.7129" lon="0.20481">
        <ele>1566.8</ele>
        <time>2018-08-11T12:55:35Z</time>
      </trkpt>
      <trkpt lat="42.71272" lon="0.20473">
        <ele>1562.5</ele>
        <time>2018-08-11T12:55:36Z</time>
      </trkpt>
      <trkpt lat="42.71253" lon="0.2047">
        <ele>1561.21</ele>
        <time>2018-08-11T12:55:37Z</time>
      </trkpt>
      <trkpt lat="42.71218" lon="0.20471">
        <ele>1560.71</ele>
        <time>2018-08-11T12:55:39Z</time>
      </trkpt>
      <trkpt lat="42.71177" lon="0.20436">
        <ele>1560.67</ele>
        <time>2018-08-11T12:55:41Z</time>
      </trkpt>
      <trkpt lat="42.71153" lon="0.20406">
        <ele>1560.66</ele>
        <time>2018-08-11T12:55:42Z</time>
      </trkpt>
      <trkpt lat="42.71138" lon="0.20381">
        <ele>1559.96</ele>
        <time>2018-08-11T12:55:43Z</time>
      </trkpt>
      <trkpt lat="42.71122" lon="0.20365">
        <ele>1559.05</ele>
        <time>2018-08-11T12:55:44Z</time>
      </trkpt>
      <trkpt lat="42.71105" lon="0.20351">
        <ele>1558.08</ele>
        <time>2018-08-11T12:55:45Z</time>
      </trkpt>
      <trkpt lat="42.71089" lon="0.2034">
        <ele>1550.78</ele>
        <time>2018-08-11T12:55:46Z</time>
      </trkpt>
      <trkpt lat="42.71071" lon="0.20328">
        <ele>1547.2</ele>
        <time>2018-08-11T12:55:47Z</time>
      </trkpt>
      <trkpt lat="42.71051" lon="0.20317">
        <ele>1544.72</ele>
        <time>2018-08-11T12:55:48Z</time>
      </trkpt>
      <trkpt lat="42.71032" lon="0.20306">
        <ele>1540.48</ele>
        <time>2018-08-11T12:55:49Z</time>
      </trkpt>
      <trkpt lat="42.71012" lon="0.20297">
        <ele>1537.1</ele>
        <time>2018-08-11T12:55:50Z</time>
      </trkpt>
      <trkpt lat="42.70991" lon="0.20288">
        <ele>1533.29</ele>
        <time>2018-08-11T12:55:51Z</time>
      </trkpt>
      <trkpt lat="42.7097" lon="0.20278">
        <ele>1530.05</ele>
        <time>2018-08-11T12:55:52Z</time>
      </trkpt>
      <trkpt lat="42.70949" lon="0.20267">
        <ele>1526.28</ele>
        <time>2018-08-11T12:55:53Z</time>
      </trkpt>
      <trkpt lat="42.70927" lon="0.20257">
        <ele>1523.04</ele>
        <time>2018-08-11T12:55:54Z</time>
      </trkpt>
      <trkpt lat="42.70904" lon="0.20247">
        <ele>1519.97</ele>
        <time>2018-08-11T12:55:55Z</time>
      </trkpt>
      <trkpt lat="42.70882" lon="0.20237">
        <ele>1516.25</ele>
        <time>2018-08-11T12:55:56Z</time>
      </trkpt>
      <trkpt lat="42.70859" lon="0.20226">
        <ele>1514.44</ele>
        <time>2018-08-11T12:55:57Z</time>
      </trkpt>
      <trkpt lat="42.70838" lon="0.20216">
        <ele>1512.49</ele>
        <time>2018-08-11T12:55:58Z</time>
      </trkpt>
      <trkpt lat="42.70816" lon="0.20206">
        <ele>1511.21</ele>
        <time>2018-08-11T12:55:59Z</time>
      </trkpt>
      <trkpt lat="42.70794" lon="0.20195">
        <ele>1510.12</ele>
        <time>2018-08-11T12:56:00Z</time>
      </trkpt>
      <trkpt lat="42.70772" lon="0.20185">
        <ele>1507.7</ele>
        <time>2018-08-11T12:56:01Z</time>
      </trkpt>
      <trkpt lat="42.7075" lon="0.20176">
        <ele>1505.57</ele>
        <time>2018-08-11T12:56:02Z</time>
      </trkpt>
      <trkpt lat="42.70727" lon="0.2017">
        <ele>1504.23</ele>
        <time>2018-08-11T12:56:03Z</time>
      </trkpt>
      <trkpt lat="42.70705" lon="0.20163">
        <ele>1503.13</ele>
        <time>2018-08-11T12:56:04Z</time>
      </trkpt>
      <trkpt lat="42.70684" lon="0.20158">
        <ele>1501.4</ele>
        <time>2018-08-11T12:56:05Z</time>
      </trkpt>
      <trkpt lat="42.70662" lon="0.20153">
        <ele>1500.88</ele>
        <time>2018-08-11T12:56:06Z</time>
      </trkpt>
      <trkpt lat="42.70639" lon="0.20149">
        <ele>1500.02</ele>
        <time>2018-08-11T12:56:07Z</time>
      </trkpt>
      <trkpt lat="42.70617" lon="0.20146">
        <ele>1499.77</ele>
        <time>2018-08-11T12:56:08Z</time>
      </trkpt>
      <trkpt lat="42.70595" lon="0.20146">
        <ele>1497.59</ele>
        <time>2018-08-11T12:56:09Z</time>
      </trkpt>
      <trkpt lat="42.70575" lon="0.20145">
        <ele>1494.84</ele>
        <time>2018-08-11T12:56:10Z</time>
      </trkpt>
      <trkpt lat="42.70554" lon="0.20148">
        <ele>1491.91</ele>
        <time>2018-08-11T12:56:11Z</time>
      </trkpt>
      <trkpt lat="42.70533" lon="0.20152">
        <ele>1489.63</ele>
        <time>2018-08-11T12:56:12Z</time>
      </trkpt>
      <trkpt lat="42.70511" lon="0.20156">
        <ele>1486.85</ele>
        <time>2018-08-11T12:56:13Z</time>
      </trkpt>
      <trkpt lat="42.70489" lon="0.20157">
        <ele>1485.32</ele>
        <time>2018-08-11T12:56:14Z</time>
      </trkpt>
      <trkpt lat="42.70469" lon="0.2016">
        <ele>1482.76</ele>
        <time>2018-08-11T12:56:15Z</time>
      </trkpt>
      <trkpt lat="42.7045" lon="0.2016">
        <ele>1479.19</ele>
        <time>2018-08-11T12:56:16Z</time>
      </trkpt>
      <trkpt lat="42.7043" lon="0.20163">
        <ele>1476.72</ele>
        <time>2018-08-11T12:56:17Z</time>
      </trkpt>
      <trkpt lat="42.70412" lon="0.20169">
        <ele>1473.88</ele>
        <time>2018-08-11T12:56:18Z</time>
      </trkpt>
      <trkpt lat="42.70393" lon="0.20175">
        <ele>1471.62</ele>
        <time>2018-08-11T12:56:19Z</time>
      </trkpt>
      <trkpt lat="42.7036" lon="0.20185">
        <ele>1465.21</ele>
        <time>2018-08-11T12:56:21Z</time>
      </trkpt>
      <trkpt lat="42.70328" lon="0.20189">
        <ele>1462.19</ele>
        <time>2018-08-11T12:56:23Z</time>
      </trkpt>
      <trkpt lat="42.70302" lon="0.2018">
        <ele>1460.8</ele>
        <time>2018-08-11T12:56:25Z</time>
      </trkpt>
      <trkpt lat="42.70285" lon="0.20149">
        <ele>1456.05</ele>
        <time>2018-08-11T12:56:27Z</time>
      </trkpt>
      <trkpt lat="42.70286" lon="0.20117">
        <ele>1452.96</ele>
        <time>2018-08-11T12:56:29Z</time>
      </trkpt>
      <trkpt lat="42.70313" lon="0.20089">
        <ele>1451.97</ele>
        <time>2018-08-11T12:56:32Z</time>
      </trkpt>
      <trkpt lat="42.70367" lon="0.20061">
        <ele>1450.99</ele>
        <time>2018-08-11T12:56:34Z</time>
      </trkpt>
      <trkpt lat="42.70384" lon="0.20039">
        <ele>1450.06</ele>
        <time>2018-08-11T12:56:35Z</time>
      </trkpt>
      <trkpt lat="42.70386" lon="0.19998">
        <ele>1447.38</ele>
        <time>2018-08-11T12:56:37Z</time>
      </trkpt>
      <trkpt lat="42.70378" lon="0.19965">
        <ele>1443.5</ele>
        <time>2018-08-11T12:56:39Z</time>
      </trkpt>
      <trkpt lat="42.70359" lon="0.19945">
        <ele>1441.82</ele>
        <time>2018-08-11T12:56:41Z</time>
      </trkpt>
      <trkpt lat="42.7034" lon="0.19943">
        <ele>1441.01</ele>
        <time>2018-08-11T12:56:42Z</time>
      </trkpt>
      <trkpt lat="42.70318" lon="0.19944">
        <ele>1440.06</ele>
        <time>2018-08-11T12:56:43Z</time>
      </trkpt>
      <trkpt lat="42.70301" lon="0.19964">
        <ele>1438.38</ele>
        <time>2018-08-11T12:56:44Z</time>
      </trkpt>
      <trkpt lat="42.70288" lon="0.19984">
        <ele>1437.17</ele>
        <time>2018-08-11T12:56:45Z</time>
      </trkpt>
      <trkpt lat="42.70274" lon="0.20009">
        <ele>1436.11</ele>
        <time>2018-08-11T12:56:46Z</time>
      </trkpt>
      <trkpt lat="42.70259" lon="0.2003">
        <ele>1434.39</ele>
        <time>2018-08-11T12:56:47Z</time>
      </trkpt>
      <trkpt lat="42.70241" lon="0.20044">
        <ele>1433.18</ele>
        <time>2018-08-11T12:56:48Z</time>
      </trkpt>
      <trkpt lat="42.70225" lon="0.20059">
        <ele>1431.41</ele>
        <time>2018-08-11T12:56:49Z</time>
      </trkpt>
      <trkpt lat="42.70191" lon="0.2008">
        <ele>1429.12</ele>
        <time>2018-08-11T12:56:51Z</time>
      </trkpt>
      <trkpt lat="42.70173" lon="0.20087">
        <ele>1427.4</ele>
        <time>2018-08-11T12:56:52Z</time>
      </trkpt>
      <trkpt lat="42.70155" lon="0.20096">
        <ele>1424.08</ele>
        <time>2018-08-11T12:56:53Z</time>
      </trkpt>
      <trkpt lat="42.70119" lon="0.20109">
        <ele>1418.17</ele>
        <time>2018-08-11T12:56:55Z</time>
      </trkpt>
      <trkpt lat="42.70087" lon="0.20125">
        <ele>1410.84</ele>
        <time>2018-08-11T12:56:57Z</time>
      </trkpt>
      <trkpt lat="42.70069" lon="0.20133">
        <ele>1407.21</ele>
        <time>2018-08-11T12:56:58Z</time>
      </trkpt>
      <trkpt lat="42.7005" lon="0.20143">
        <ele>1404.72</ele>
        <time>2018-08-11T12:56:59Z</time>
      </trkpt>
      <trkpt lat="42.70032" lon="0.20154">
        <ele>1402.58</ele>
        <time>2018-08-11T12:57:00Z</time>
      </trkpt>
      <trkpt lat="42.70015" lon="0.20167">
        <ele>1401.23</ele>
        <time>2018-08-11T12:57:01Z</time>
      </trkpt>
      <trkpt lat="42.69997" lon="0.20179">
        <ele>1400.13</ele>
        <time>2018-08-11T12:57:02Z</time>
      </trkpt>
      <trkpt lat="42.69979" lon="0.20191">
        <ele>1397.7</ele>
        <time>2018-08-11T12:57:03Z</time>
      </trkpt>
      <trkpt lat="42.69961" lon="0.20204">
        <ele>1394.87</ele>
        <time>2018-08-11T12:57:04Z</time>
      </trkpt>
      <trkpt lat="42.69944" lon="0.20217">
        <ele>1392.62</ele>
        <time>2018-08-11T12:57:05Z</time>
      </trkpt>
      <trkpt lat="42.69927" lon="0.20229">
        <ele>1390.55</ele>
        <time>2018-08-11T12:57:06Z</time>
      </trkpt>
      <trkpt lat="42.69893" lon="0.20248">
        <ele>1382.39</ele>
        <time>2018-08-11T12:57:08Z</time>
      </trkpt>
      <trkpt lat="42.69873" lon="0.20252">
        <ele>1378.38</ele>
        <time>2018-08-11T12:57:09Z</time>
      </trkpt>
      <trkpt lat="42.69854" lon="0.20255">
        <ele>1375.07</ele>
        <time>2018-08-11T12:57:10Z</time>
      </trkpt>
      <trkpt lat="42.69834" lon="0.20254">
        <ele>1371.28</ele>
        <time>2018-08-11T12:57:11Z</time>
      </trkpt>
      <trkpt lat="42.69814" lon="0.20252">
        <ele>1369.45</ele>
        <time>2018-08-11T12:57:12Z</time>
      </trkpt>
      <trkpt lat="42.69794" lon="0.20252">
        <ele>1368.19</ele>
        <time>2018-08-11T12:57:13Z</time>
      </trkpt>
      <trkpt lat="42.69774" lon="0.2025">
        <ele>1367.12</ele>
        <time>2018-08-11T12:57:14Z</time>
      </trkpt>
      <trkpt lat="42.69755" lon="0.20248">
        <ele>1366.1</ele>
        <time>2018-08-11T12:57:15Z</time>
      </trkpt>
      <trkpt lat="42.69734" lon="0.20247">
        <ele>1365.09</ele>
        <time>2018-08-11T12:57:16Z</time>
      </trkpt>
      <trkpt lat="42.69713" lon="0.20245">
        <ele>1364.79</ele>
        <time>2018-08-11T12:57:17Z</time>
      </trkpt>
      <trkpt lat="42.69691" lon="0.20242">
        <ele>1361.9</ele>
        <time>2018-08-11T12:57:18Z</time>
      </trkpt>
      <trkpt lat="42.69671" lon="0.20241">
        <ele>1360.33</ele>
        <time>2018-08-11T12:57:19Z</time>
      </trkpt>
      <trkpt lat="42.69651" lon="0.20241">
        <ele>1358.46</ele>
        <time>2018-08-11T12:57:20Z</time>
      </trkpt>
      <trkpt lat="42.6963" lon="0.20242">
        <ele>1357.2</ele>
        <time>2018-08-11T12:57:21Z</time>
      </trkpt>
      <trkpt lat="42.6961" lon="0.20246">
        <ele>1356.12</ele>
        <time>2018-08-11T12:57:22Z</time>
      </trkpt>
      <trkpt lat="42.69589" lon="0.20249">
        <ele>1353.7</ele>
        <time>2018-08-11T12:57:23Z</time>
      </trkpt>
      <trkpt lat="42.69569" lon="0.20261">
        <ele>1352.97</ele>
        <time>2018-08-11T12:57:24Z</time>
      </trkpt>
      <trkpt lat="42.69548" lon="0.20271">
        <ele>1352.05</ele>
        <time>2018-08-11T12:57:25Z</time>
      </trkpt>
      <trkpt lat="42.69528" lon="0.20281">
        <ele>1351.08</ele>
        <time>2018-08-11T12:57:26Z</time>
      </trkpt>
      <trkpt lat="42.69508" lon="0.20292">
        <ele>1350.08</ele>
        <time>2018-08-11T12:57:27Z</time>
      </trkpt>
      <trkpt lat="42.69488" lon="0.20303">
        <ele>1349.79</ele>
        <time>2018-08-11T12:57:28Z</time>
      </trkpt>
      <trkpt lat="42.69469" lon="0.20314">
        <ele>1349.7</ele>
        <time>2018-08-11T12:57:29Z</time>
      </trkpt>
      <trkpt lat="42.69448" lon="0.20324">
        <ele>1348.97</ele>
        <time>2018-08-11T12:57:30Z</time>
      </trkpt>
      <trkpt lat="42.69428" lon="0.20334">
        <ele>1348.05</ele>
        <time>2018-08-11T12:57:31Z</time>
      </trkpt>
      <trkpt lat="42.69408" lon="0.20344">
        <ele>1347.08</ele>
        <time>2018-08-11T12:57:32Z</time>
      </trkpt>
      <trkpt lat="42.69389" lon="0.20354">
        <ele>1346.78</ele>
        <time>2018-08-11T12:57:33Z</time>
      </trkpt>
      <trkpt lat="42.69368" lon="0.20365">
        <ele>1345.3</ele>
        <time>2018-08-11T12:57:34Z</time>
      </trkpt>
      <trkpt lat="42.69347" lon="0.20373">
        <ele>1344.15</ele>
        <time>2018-08-11T12:57:35Z</time>
      </trkpt>
      <trkpt lat="42.69326" lon="0.20383">
        <ele>1343.81</ele>
        <time>2018-08-11T12:57:36Z</time>
      </trkpt>
      <trkpt lat="42.69307" lon="0.20394">
        <ele>1343.7</ele>
        <time>2018-08-11T12:57:37Z</time>
      </trkpt>
      <trkpt lat="42.69286" lon="0.20405">
        <ele>1342.97</ele>
        <time>2018-08-11T12:57:38Z</time>
      </trkpt>
      <trkpt lat="42.69266" lon="0.20415">
        <ele>1342.75</ele>
        <time>2018-08-11T12:57:39Z</time>
      </trkpt>
      <trkpt lat="42.69246" lon="0.20428">
        <ele>1342.69</ele>
        <time>2018-08-11T12:57:40Z</time>
      </trkpt>
      <trkpt lat="42.69226" lon="0.20441">
        <ele>1341.97</ele>
        <time>2018-08-11T12:57:41Z</time>
      </trkpt>
      <trkpt lat="42.69208" lon="0.20456">
        <ele>1340.35</ele>
        <time>2018-08-11T12:57:42Z</time>
      </trkpt>
      <trkpt lat="42.69192" lon="0.20473">
        <ele>1337.77</ele>
        <time>2018-08-11T12:57:43Z</time>
      </trkpt>
      <trkpt lat="42.69177" lon="0.20492">
        <ele>1335.59</ele>
        <time>2018-08-11T12:57:44Z</time>
      </trkpt>
      <trkpt lat="42.6917" lon="0.20517">
        <ele>1333.54</ele>
        <time>2018-08-11T12:57:45Z</time>
      </trkpt>
      <trkpt lat="42.69158" lon="0.20539">
        <ele>1332.92</ele>
        <time>2018-08-11T12:57:46Z</time>
      </trkpt>
      <trkpt lat="42.69146" lon="0.20562">
        <ele>1331.34</ele>
        <time>2018-08-11T12:57:47Z</time>
      </trkpt>
      <trkpt lat="42.69133" lon="0.20583">
        <ele>1330.86</ele>
        <time>2018-08-11T12:57:48Z</time>
      </trkpt>
      <trkpt lat="42.69118" lon="0.20601">
        <ele>1328.62</ele>
        <time>2018-08-11T12:57:49Z</time>
      </trkpt>
      <trkpt lat="42.69101" lon="0.20618">
        <ele>1326.55</ele>
        <time>2018-08-11T12:57:50Z</time>
      </trkpt>
      <trkpt lat="42.69084" lon="0.20632">
        <ele>1325.22</ele>
        <time>2018-08-11T12:57:51Z</time>
      </trkpt>
      <trkpt lat="42.69066" lon="0.20647">
        <ele>1324.13</ele>
        <time>2018-08-11T12:57:52Z</time>
      </trkpt>
      <trkpt lat="42.69049" lon="0.20663">
        <ele>1323.1</ele>
        <time>2018-08-11T12:57:53Z</time>
      </trkpt>
      <trkpt lat="42.69031" lon="0.20678">
        <ele>1322.09</ele>
        <time>2018-08-11T12:57:54Z</time>
      </trkpt>
      <trkpt lat="42.69013" lon="0.20693">
        <ele>1320.39</ele>
        <time>2018-08-11T12:57:55Z</time>
      </trkpt>
      <trkpt lat="42.68995" lon="0.20706">
        <ele>1319.18</ele>
        <time>2018-08-11T12:57:56Z</time>
      </trkpt>
      <trkpt lat="42.68978" lon="0.2072">
        <ele>1316.71</ele>
        <time>2018-08-11T12:57:57Z</time>
      </trkpt>
      <trkpt lat="42.68961" lon="0.20734">
        <ele>1314.57</ele>
        <time>2018-08-11T12:57:58Z</time>
      </trkpt>
      <trkpt lat="42.68944" lon="0.20747">
        <ele>1312.53</ele>
        <time>2018-08-11T12:57:59Z</time>
      </trkpt>
      <trkpt lat="42.68925" lon="0.20762">
        <ele>1311.92</ele>
        <time>2018-08-11T12:58:00Z</time>
      </trkpt>
      <trkpt lat="42.68906" lon="0.20781">
        <ele>1311.04</ele>
        <time>2018-08-11T12:58:01Z</time>
      </trkpt>
      <trkpt lat="42.68886" lon="0.20798">
        <ele>1308.67</ele>
        <time>2018-08-11T12:58:02Z</time>
      </trkpt>
      <trkpt lat="42.68865" lon="0.20817">
        <ele>1307.26</ele>
        <time>2018-08-11T12:58:03Z</time>
      </trkpt>
      <trkpt lat="42.68847" lon="0.20836">
        <ele>1304.04</ele>
        <time>2018-08-11T12:58:04Z</time>
      </trkpt>
      <trkpt lat="42.68831" lon="0.20858">
        <ele>1300.27</ele>
        <time>2018-08-11T12:58:05Z</time>
      </trkpt>
      <trkpt lat="42.68814" lon="0.2088">
        <ele>1297.74</ele>
        <time>2018-08-11T12:58:06Z</time>
      </trkpt>
      <trkpt lat="42.68797" lon="0.20902">
        <ele>1294.88</ele>
        <time>2018-08-11T12:58:07Z</time>
      </trkpt>
      <trkpt lat="42.68781" lon="0.20923">
        <ele>1292.63</ele>
        <time>2018-08-11T12:58:08Z</time>
      </trkpt>
      <trkpt lat="42.68766" lon="0.20944">
        <ele>1291.95</ele>
        <time>2018-08-11T12:58:09Z</time>
      </trkpt>
      <trkpt lat="42.6875" lon="0.20966">
        <ele>1290.35</ele>
        <time>2018-08-11T12:58:10Z</time>
      </trkpt>
      <trkpt lat="42.68735" lon="0.20987">
        <ele>1289.86</ele>
        <time>2018-08-11T12:58:11Z</time>
      </trkpt>
      <trkpt lat="42.6872" lon="0.21008">
        <ele>1287.62</ele>
        <time>2018-08-11T12:58:12Z</time>
      </trkpt>
      <trkpt lat="42.68705" lon="0.21029">
        <ele>1286.25</ele>
        <time>2018-08-11T12:58:13Z</time>
      </trkpt>
      <trkpt lat="42.68689" lon="0.21049">
        <ele>1285.13</ele>
        <time>2018-08-11T12:58:14Z</time>
      </trkpt>
      <trkpt lat="42.68674" lon="0.21069">
        <ele>1283.4</ele>
        <time>2018-08-11T12:58:15Z</time>
      </trkpt>
      <trkpt lat="42.68658" lon="0.2109">
        <ele>1281.48</ele>
        <time>2018-08-11T12:58:16Z</time>
      </trkpt>
      <trkpt lat="42.68642" lon="0.21111">
        <ele>1280.2</ele>
        <time>2018-08-11T12:58:17Z</time>
      </trkpt>
      <trkpt lat="42.68626" lon="0.21132">
        <ele>1278.42</ele>
        <time>2018-08-11T12:58:18Z</time>
      </trkpt>
      <trkpt lat="42.6861" lon="0.21152">
        <ele>1277.89</ele>
        <time>2018-08-11T12:58:19Z</time>
      </trkpt>
      <trkpt lat="42.68593" lon="0.21171">
        <ele>1276.33</ele>
        <time>2018-08-11T12:58:20Z</time>
      </trkpt>
      <trkpt lat="42.68576" lon="0.21186">
        <ele>1275.86</ele>
        <time>2018-08-11T12:58:21Z</time>
      </trkpt>
      <trkpt lat="42.68557" lon="0.21198">
        <ele>1275.72</ele>
        <time>2018-08-11T12:58:22Z</time>
      </trkpt>
      <trkpt lat="42.68537" lon="0.2121">
        <ele>1274.28</ele>
        <time>2018-08-11T12:58:23Z</time>
      </trkpt>
      <trkpt lat="42.68513" lon="0.21209">
        <ele>1273.14</ele>
        <time>2018-08-11T12:58:24Z</time>
      </trkpt>
      <trkpt lat="42.68492" lon="0.21213">
        <ele>1272.1</ele>
        <time>2018-08-11T12:58:25Z</time>
      </trkpt>
      <trkpt lat="42.68468" lon="0.21216">
        <ele>1271.09</ele>
        <time>2018-08-11T12:58:26Z</time>
      </trkpt>
      <trkpt lat="42.68445" lon="0.2122">
        <ele>1270.09</ele>
        <time>2018-08-11T12:58:27Z</time>
      </trkpt>
      <trkpt lat="42.68422" lon="0.21224">
        <ele>1269.79</ele>
        <time>2018-08-11T12:58:28Z</time>
      </trkpt>
      <trkpt lat="42.68398" lon="0.21227">
        <ele>1266.9</ele>
        <time>2018-08-11T12:58:29Z</time>
      </trkpt>
      <trkpt lat="42.68376" lon="0.21233">
        <ele>1265.33</ele>
        <time>2018-08-11T12:58:30Z</time>
      </trkpt>
      <trkpt lat="42.68353" lon="0.21239">
        <ele>1264.16</ele>
        <time>2018-08-11T12:58:31Z</time>
      </trkpt>
      <trkpt lat="42.68331" lon="0.21246">
        <ele>1263.11</ele>
        <time>2018-08-11T12:58:32Z</time>
      </trkpt>
      <trkpt lat="42.68308" lon="0.21254">
        <ele>1262.79</ele>
        <time>2018-08-11T12:58:33Z</time>
      </trkpt>
      <trkpt lat="42.68285" lon="0.21262">
        <ele>1261.3</ele>
        <time>2018-08-11T12:58:34Z</time>
      </trkpt>
      <trkpt lat="42.68263" lon="0.21269">
        <ele>1259.45</ele>
        <time>2018-08-11T12:58:35Z</time>
      </trkpt>
      <trkpt lat="42.68241" lon="0.21275">
        <ele>1257.5</ele>
        <time>2018-08-11T12:58:36Z</time>
      </trkpt>
      <trkpt lat="42.68218" lon="0.21282">
        <ele>1256.21</ele>
        <time>2018-08-11T12:58:37Z</time>
      </trkpt>
      <trkpt lat="42.68197" lon="0.21289">
        <ele>1255.12</ele>
        <time>2018-08-11T12:58:38Z</time>
      </trkpt>
      <trkpt lat="42.68174" lon="0.21297">
        <ele>1254.1</ele>
        <time>2018-08-11T12:58:39Z</time>
      </trkpt>
      <trkpt lat="42.68152" lon="0.21304">
        <ele>1252.39</ele>
        <time>2018-08-11T12:58:40Z</time>
      </trkpt>
      <trkpt lat="42.68129" lon="0.21309">
        <ele>1250.48</ele>
        <time>2018-08-11T12:58:41Z</time>
      </trkpt>
      <trkpt lat="42.68106" lon="0.21314">
        <ele>1249.2</ele>
        <time>2018-08-11T12:58:42Z</time>
      </trkpt>
      <trkpt lat="42.68083" lon="0.21317">
        <ele>1248.82</ele>
        <time>2018-08-11T12:58:43Z</time>
      </trkpt>
      <trkpt lat="42.6806" lon="0.21318">
        <ele>1248.01</ele>
        <time>2018-08-11T12:58:44Z</time>
      </trkpt>
      <trkpt lat="42.68036" lon="0.21319">
        <ele>1246.36</ele>
        <time>2018-08-11T12:58:45Z</time>
      </trkpt>
      <trkpt lat="42.68013" lon="0.21321">
        <ele>1244.47</ele>
        <time>2018-08-11T12:58:46Z</time>
      </trkpt>
      <trkpt lat="42.6799" lon="0.21322">
        <ele>1243.2</ele>
        <time>2018-08-11T12:58:47Z</time>
      </trkpt>
      <trkpt lat="42.67967" lon="0.21323">
        <ele>1242.12</ele>
        <time>2018-08-11T12:58:48Z</time>
      </trkpt>
      <trkpt lat="42.67944" lon="0.21326">
        <ele>1240.4</ele>
        <time>2018-08-11T12:58:49Z</time>
      </trkpt>
      <trkpt lat="42.6792" lon="0.21328">
        <ele>1239.88</ele>
        <time>2018-08-11T12:58:50Z</time>
      </trkpt>
      <trkpt lat="42.67897" lon="0.21331">
        <ele>1239.02</ele>
        <time>2018-08-11T12:58:51Z</time>
      </trkpt>
      <trkpt lat="42.67874" lon="0.21334">
        <ele>1237.37</ele>
        <time>2018-08-11T12:58:52Z</time>
      </trkpt>
      <trkpt lat="42.67851" lon="0.2134">
        <ele>1236.17</ele>
        <time>2018-08-11T12:58:53Z</time>
      </trkpt>
      <trkpt lat="42.67829" lon="0.21348">
        <ele>1234.41</ele>
        <time>2018-08-11T12:58:54Z</time>
      </trkpt>
      <trkpt lat="42.67809" lon="0.21358">
        <ele>1231.08</ele>
        <time>2018-08-11T12:58:55Z</time>
      </trkpt>
      <trkpt lat="42.67788" lon="0.2137">
        <ele>1229.39</ele>
        <time>2018-08-11T12:58:56Z</time>
      </trkpt>
      <trkpt lat="42.67768" lon="0.21384">
        <ele>1227.48</ele>
        <time>2018-08-11T12:58:57Z</time>
      </trkpt>
      <trkpt lat="42.67748" lon="0.21397">
        <ele>1226.9</ele>
        <time>2018-08-11T12:58:58Z</time>
      </trkpt>
      <trkpt lat="42.67728" lon="0.2141">
        <ele>1226.03</ele>
        <time>2018-08-11T12:58:59Z</time>
      </trkpt>
      <trkpt lat="42.67708" lon="0.21419">
        <ele>1223.67</ele>
        <time>2018-08-11T12:59:00Z</time>
      </trkpt>
      <trkpt lat="42.67688" lon="0.21426">
        <ele>1221.56</ele>
        <time>2018-08-11T12:59:01Z</time>
      </trkpt>
      <trkpt lat="42.67667" lon="0.2143">
        <ele>1219.53</ele>
        <time>2018-08-11T12:59:02Z</time>
      </trkpt>
      <trkpt lat="42.67646" lon="0.21434">
        <ele>1218.22</ele>
        <time>2018-08-11T12:59:03Z</time>
      </trkpt>
      <trkpt lat="42.67626" lon="0.21437">
        <ele>1217.13</ele>
        <time>2018-08-11T12:59:04Z</time>
      </trkpt>
      <trkpt lat="42.67606" lon="0.21439">
        <ele>1216.1</ele>
        <time>2018-08-11T12:59:05Z</time>
      </trkpt>
      <trkpt lat="42.67586" lon="0.21438">
        <ele>1212.29</ele>
        <time>2018-08-11T12:59:06Z</time>
      </trkpt>
      <trkpt lat="42.67565" lon="0.21436">
        <ele>1210.45</ele>
        <time>2018-08-11T12:59:07Z</time>
      </trkpt>
      <trkpt lat="42.67545" lon="0.21433">
        <ele>1209.19</ele>
        <time>2018-08-11T12:59:08Z</time>
      </trkpt>
      <trkpt lat="42.67526" lon="0.21429">
        <ele>1208.12</ele>
        <time>2018-08-11T12:59:09Z</time>
      </trkpt>
      <trkpt lat="42.67506" lon="0.21421">
        <ele>1207.1</ele>
        <time>2018-08-11T12:59:10Z</time>
      </trkpt>
      <trkpt lat="42.67485" lon="0.21415">
        <ele>1206.79</ele>
        <time>2018-08-11T12:59:11Z</time>
      </trkpt>
      <trkpt lat="42.67465" lon="0.2141">
        <ele>1206</ele>
        <time>2018-08-11T12:59:12Z</time>
      </trkpt>
      <trkpt lat="42.67444" lon="0.21409">
        <ele>1205.06</ele>
        <time>2018-08-11T12:59:13Z</time>
      </trkpt>
      <trkpt lat="42.67424" lon="0.21412">
        <ele>1204.78</ele>
        <time>2018-08-11T12:59:14Z</time>
      </trkpt>
      <trkpt lat="42.67402" lon="0.21418">
        <ele>1203.99</ele>
        <time>2018-08-11T12:59:15Z</time>
      </trkpt>
      <trkpt lat="42.67379" lon="0.21426">
        <ele>1203.06</ele>
        <time>2018-08-11T12:59:16Z</time>
      </trkpt>
      <trkpt lat="42.67361" lon="0.21438">
        <ele>1200.68</ele>
        <time>2018-08-11T12:59:17Z</time>
      </trkpt>
      <trkpt lat="42.6734" lon="0.21444">
        <ele>1197.16</ele>
        <time>2018-08-11T12:59:18Z</time>
      </trkpt>
      <trkpt lat="42.6732" lon="0.2145">
        <ele>1194.71</ele>
        <time>2018-08-11T12:59:19Z</time>
      </trkpt>
      <trkpt lat="42.67299" lon="0.21452">
        <ele>1192.57</ele>
        <time>2018-08-11T12:59:20Z</time>
      </trkpt>
      <trkpt lat="42.67276" lon="0.21453">
        <ele>1190.53</ele>
        <time>2018-08-11T12:59:21Z</time>
      </trkpt>
      <trkpt lat="42.67255" lon="0.21451">
        <ele>1188.52</ele>
        <time>2018-08-11T12:59:22Z</time>
      </trkpt>
      <trkpt lat="42.67232" lon="0.21449">
        <ele>1187.22</ele>
        <time>2018-08-11T12:59:23Z</time>
      </trkpt>
      <trkpt lat="42.6721" lon="0.21446">
        <ele>1186.13</ele>
        <time>2018-08-11T12:59:24Z</time>
      </trkpt>
      <trkpt lat="42.67188" lon="0.21442">
        <ele>1185.1</ele>
        <time>2018-08-11T12:59:25Z</time>
      </trkpt>
      <trkpt lat="42.67166" lon="0.21438">
        <ele>1184.09</ele>
        <time>2018-08-11T12:59:26Z</time>
      </trkpt>
      <trkpt lat="42.67144" lon="0.21434">
        <ele>1184.49</ele>
        <time>2018-08-11T12:59:27Z</time>
      </trkpt>
      <trkpt lat="42.67123" lon="0.21431">
        <ele>1183.21</ele>
        <time>2018-08-11T12:59:28Z</time>
      </trkpt>
      <trkpt lat="42.67102" lon="0.21427">
        <ele>1182.82</ele>
        <time>2018-08-11T12:59:29Z</time>
      </trkpt>
      <trkpt lat="42.67081" lon="0.21424">
        <ele>1182.01</ele>
        <time>2018-08-11T12:59:30Z</time>
      </trkpt>
      <trkpt lat="42.6706" lon="0.21421">
        <ele>1181.06</ele>
        <time>2018-08-11T12:59:31Z</time>
      </trkpt>
      <trkpt lat="42.67038" lon="0.21416">
        <ele>1180.08</ele>
        <time>2018-08-11T12:59:32Z</time>
      </trkpt>
      <trkpt lat="42.67017" lon="0.21411">
        <ele>1179.08</ele>
        <time>2018-08-11T12:59:33Z</time>
      </trkpt>
      <trkpt lat="42.66996" lon="0.21404">
        <ele>1178.09</ele>
        <time>2018-08-11T12:59:34Z</time>
      </trkpt>
      <trkpt lat="42.66975" lon="0.21397">
        <ele>1174.99</ele>
        <time>2018-08-11T12:59:35Z</time>
      </trkpt>
      <trkpt lat="42.66953" lon="0.21389">
        <ele>1173.36</ele>
        <time>2018-08-11T12:59:36Z</time>
      </trkpt>
      <trkpt lat="42.66931" lon="0.21381">
        <ele>1172.17</ele>
        <time>2018-08-11T12:59:37Z</time>
      </trkpt>
      <trkpt lat="42.66908" lon="0.21372">
        <ele>1171.11</ele>
        <time>2018-08-11T12:59:38Z</time>
      </trkpt>
      <trkpt lat="42.66886" lon="0.21364">
        <ele>1170.09</ele>
        <time>2018-08-11T12:59:39Z</time>
      </trkpt>
      <trkpt lat="42.66865" lon="0.21356">
        <ele>1166.99</ele>
        <time>2018-08-11T12:59:40Z</time>
      </trkpt>
      <trkpt lat="42.66843" lon="0.21348">
        <ele>1164.66</ele>
        <time>2018-08-11T12:59:41Z</time>
      </trkpt>
      <trkpt lat="42.6682" lon="0.2134">
        <ele>1163.96</ele>
        <time>2018-08-11T12:59:42Z</time>
      </trkpt>
      <trkpt lat="42.66798" lon="0.2133">
        <ele>1162.35</ele>
        <time>2018-08-11T12:59:43Z</time>
      </trkpt>
      <trkpt lat="42.66775" lon="0.21321">
        <ele>1160.46</ele>
        <time>2018-08-11T12:59:44Z</time>
      </trkpt>
      <trkpt lat="42.66753" lon="0.21312">
        <ele>1159.2</ele>
        <time>2018-08-11T12:59:45Z</time>
      </trkpt>
      <trkpt lat="42.66731" lon="0.21302">
        <ele>1157.42</ele>
        <time>2018-08-11T12:59:46Z</time>
      </trkpt>
      <trkpt lat="42.66708" lon="0.21293">
        <ele>1155.49</ele>
        <time>2018-08-11T12:59:47Z</time>
      </trkpt>
      <trkpt lat="42.66686" lon="0.21284">
        <ele>1154.21</ele>
        <time>2018-08-11T12:59:48Z</time>
      </trkpt>
      <trkpt lat="42.66665" lon="0.21275">
        <ele>1152.42</ele>
        <time>2018-08-11T12:59:49Z</time>
      </trkpt>
      <trkpt lat="42.66644" lon="0.21266">
        <ele>1151.19</ele>
        <time>2018-08-11T12:59:50Z</time>
      </trkpt>
      <trkpt lat="42.66622" lon="0.21257">
        <ele>1150.82</ele>
        <time>2018-08-11T12:59:51Z</time>
      </trkpt>
      <trkpt lat="42.66602" lon="0.21249">
        <ele>1150.01</ele>
        <time>2018-08-11T12:59:52Z</time>
      </trkpt>
      <trkpt lat="42.66581" lon="0.2124">
        <ele>1149.06</ele>
        <time>2018-08-11T12:59:53Z</time>
      </trkpt>
      <trkpt lat="42.66563" lon="0.21229">
        <ele>1148.08</ele>
        <time>2018-08-11T12:59:54Z</time>
      </trkpt>
      <trkpt lat="42.66544" lon="0.21217">
        <ele>1147.78</ele>
        <time>2018-08-11T12:59:55Z</time>
      </trkpt>
      <trkpt lat="42.66527" lon="0.21203">
        <ele>1147</ele>
        <time>2018-08-11T12:59:56Z</time>
      </trkpt>
      <trkpt lat="42.6651" lon="0.21188">
        <ele>1146.76</ele>
        <time>2018-08-11T12:59:57Z</time>
      </trkpt>
      <trkpt lat="42.66493" lon="0.21172">
        <ele>1145.99</ele>
        <time>2018-08-11T12:59:58Z</time>
      </trkpt>
      <trkpt lat="42.66478" lon="0.21155">
        <ele>1145.06</ele>
        <time>2018-08-11T12:59:59Z</time>
      </trkpt>
      <trkpt lat="42.66463" lon="0.21138">
        <ele>1144.78</ele>
        <time>2018-08-11T13:00:00Z</time>
      </trkpt>
      <trkpt lat="42.66448" lon="0.21119">
        <ele>1143.99</ele>
        <time>2018-08-11T13:00:01Z</time>
      </trkpt>
      <trkpt lat="42.66433" lon="0.211">
        <ele>1143.06</ele>
        <time>2018-08-11T13:00:02Z</time>
      </trkpt>
      <trkpt lat="42.66419" lon="0.21082">
        <ele>1142.08</ele>
        <time>2018-08-11T13:00:03Z</time>
      </trkpt>
      <trkpt lat="42.66403" lon="0.21064">
        <ele>1138.28</ele>
        <time>2018-08-11T13:00:04Z</time>
      </trkpt>
      <trkpt lat="42.66388" lon="0.21046">
        <ele>1137.15</ele>
        <time>2018-08-11T13:00:05Z</time>
      </trkpt>
      <trkpt lat="42.66372" lon="0.21029">
        <ele>1136.1</ele>
        <time>2018-08-11T13:00:06Z</time>
      </trkpt>
      <trkpt lat="42.66356" lon="0.21012">
        <ele>1135.09</ele>
        <time>2018-08-11T13:00:07Z</time>
      </trkpt>
      <trkpt lat="42.66339" lon="0.20998">
        <ele>1134.09</ele>
        <time>2018-08-11T13:00:08Z</time>
      </trkpt>
      <trkpt lat="42.66322" lon="0.20984">
        <ele>1133.09</ele>
        <time>2018-08-11T13:00:09Z</time>
      </trkpt>
      <trkpt lat="42.66306" lon="0.20972">
        <ele>1132.09</ele>
        <time>2018-08-11T13:00:10Z</time>
      </trkpt>
      <trkpt lat="42.66289" lon="0.20961">
        <ele>1131.79</ele>
        <time>2018-08-11T13:00:11Z</time>
      </trkpt>
      <trkpt lat="42.66272" lon="0.20952">
        <ele>1131</ele>
        <time>2018-08-11T13:00:12Z</time>
      </trkpt>
      <trkpt lat="42.66255" lon="0.20945">
        <ele>1130.06</ele>
        <time>2018-08-11T13:00:13Z</time>
      </trkpt>
      <trkpt lat="42.66237" lon="0.20939">
        <ele>1129.78</ele>
        <time>2018-08-11T13:00:14Z</time>
      </trkpt>
      <trkpt lat="42.66219" lon="0.20933">
        <ele>1129.69</ele>
        <time>2018-08-11T13:00:15Z</time>
      </trkpt>
      <trkpt lat="42.66184" lon="0.20926">
        <ele>1126.93</ele>
        <time>2018-08-11T13:00:17Z</time>
      </trkpt>
      <trkpt lat="42.66166" lon="0.20924">
        <ele>1125.34</ele>
        <time>2018-08-11T13:00:18Z</time>
      </trkpt>
      <trkpt lat="42.66147" lon="0.20923">
        <ele>1124.16</ele>
        <time>2018-08-11T13:00:19Z</time>
      </trkpt>
      <trkpt lat="42.66127" lon="0.20923">
        <ele>1123.11</ele>
        <time>2018-08-11T13:00:20Z</time>
      </trkpt>
      <trkpt lat="42.66108" lon="0.20923">
        <ele>1122.09</ele>
        <time>2018-08-11T13:00:21Z</time>
      </trkpt>
      <trkpt lat="42.66089" lon="0.20924">
        <ele>1120.39</ele>
        <time>2018-08-11T13:00:22Z</time>
      </trkpt>
      <trkpt lat="42.66069" lon="0.20924">
        <ele>1119.88</ele>
        <time>2018-08-11T13:00:23Z</time>
      </trkpt>
      <trkpt lat="42.66049" lon="0.20924">
        <ele>1119.72</ele>
        <time>2018-08-11T13:00:24Z</time>
      </trkpt>
      <trkpt lat="42.6603" lon="0.20924">
        <ele>1119.68</ele>
        <time>2018-08-11T13:00:25Z</time>
      </trkpt>
      <trkpt lat="42.6601" lon="0.20924">
        <ele>1118.96</ele>
        <time>2018-08-11T13:00:26Z</time>
      </trkpt>
      <trkpt lat="42.65991" lon="0.20923">
        <ele>1118.75</ele>
        <time>2018-08-11T13:00:27Z</time>
      </trkpt>
      <trkpt lat="42.65972" lon="0.20924">
        <ele>1118.69</ele>
        <time>2018-08-11T13:00:28Z</time>
      </trkpt>
      <trkpt lat="42.65953" lon="0.20924">
        <ele>1118.67</ele>
        <time>2018-08-11T13:00:29Z</time>
      </trkpt>
      <trkpt lat="42.65934" lon="0.20924">
        <ele>1118.66</ele>
        <time>2018-08-11T13:00:30Z</time>
      </trkpt>
      <trkpt lat="42.65915" lon="0.20924">
        <ele>1118.66</ele>
        <time>2018-08-11T13:00:31Z</time>
      </trkpt>
      <trkpt lat="42.65895" lon="0.20924">
        <ele>1118.66</ele>
        <time>2018-08-11T13:00:32Z</time>
      </trkpt>
      <trkpt lat="42.65876" lon="0.20924">
        <ele>1118.66</ele>
        <time>2018-08-11T13:00:33Z</time>
      </trkpt>
      <trkpt lat="42.65856" lon="0.20924">
        <ele>1118.66</ele>
        <time>2018-08-11T13:00:34Z</time>
      </trkpt>
      <trkpt lat="42.65837" lon="0.20924">
        <ele>1118.66</ele>
        <time>2018-08-11T13:00:35Z</time>
      </trkpt>
      <trkpt lat="42.65818" lon="0.20924">
        <ele>1117.96</ele>
        <time>2018-08-11T13:00:36Z</time>
      </trkpt>
      <trkpt lat="42.65799" lon="0.20924">
        <ele>1117.75</ele>
        <time>2018-08-11T13:00:37Z</time>
      </trkpt>
      <trkpt lat="42.65779" lon="0.20924">
        <ele>1116.98</ele>
        <time>2018-08-11T13:00:38Z</time>
      </trkpt>
      <trkpt lat="42.6576" lon="0.20923">
        <ele>1116.76</ele>
        <time>2018-08-11T13:00:39Z</time>
      </trkpt>
      <trkpt lat="42.6574" lon="0.20923">
        <ele>1116.69</ele>
        <time>2018-08-11T13:00:40Z</time>
      </trkpt>
      <trkpt lat="42.65719" lon="0.20919">
        <ele>1115.27</ele>
        <time>2018-08-11T13:00:41Z</time>
      </trkpt>
      <trkpt lat="42.65699" lon="0.20914">
        <ele>1114.14</ele>
        <time>2018-08-11T13:00:42Z</time>
      </trkpt>
      <trkpt lat="42.6568" lon="0.20908">
        <ele>1113.1</ele>
        <time>2018-08-11T13:00:43Z</time>
      </trkpt>
      <trkpt lat="42.6566" lon="0.20901">
        <ele>1112.09</ele>
        <time>2018-08-11T13:00:44Z</time>
      </trkpt>
      <trkpt lat="42.65639" lon="0.20892">
        <ele>1110.39</ele>
        <time>2018-08-11T13:00:45Z</time>
      </trkpt>
      <trkpt lat="42.65618" lon="0.20881">
        <ele>1109.88</ele>
        <time>2018-08-11T13:00:46Z</time>
      </trkpt>
      <trkpt lat="42.656" lon="0.20871">
        <ele>1109.02</ele>
        <time>2018-08-11T13:00:47Z</time>
      </trkpt>
      <trkpt lat="42.65581" lon="0.20854">
        <ele>1108.07</ele>
        <time>2018-08-11T13:00:48Z</time>
      </trkpt>
      <trkpt lat="42.65562" lon="0.2084">
        <ele>1107.08</ele>
        <time>2018-08-11T13:00:49Z</time>
      </trkpt>
      <trkpt lat="42.65542" lon="0.20828">
        <ele>1106.78</ele>
        <time>2018-08-11T13:00:50Z</time>
      </trkpt>
      <trkpt lat="42.65524" lon="0.20813">
        <ele>1105.3</ele>
        <time>2018-08-11T13:00:51Z</time>
      </trkpt>
      <trkpt lat="42.65503" lon="0.20803">
        <ele>1104.15</ele>
        <time>2018-08-11T13:00:52Z</time>
      </trkpt>
      <trkpt lat="42.65483" lon="0.20793">
        <ele>1101.71</ele>
        <time>2018-08-11T13:00:53Z</time>
      </trkpt>
      <trkpt lat="42.65463" lon="0.20788">
        <ele>1099.57</ele>
        <time>2018-08-11T13:00:54Z</time>
      </trkpt>
      <trkpt lat="42.65442" lon="0.20787">
        <ele>1098.23</ele>
        <time>2018-08-11T13:00:55Z</time>
      </trkpt>
      <trkpt lat="42.65421" lon="0.20786">
        <ele>1097.13</ele>
        <time>2018-08-11T13:00:56Z</time>
      </trkpt>
      <trkpt lat="42.654" lon="0.20787">
        <ele>1096.1</ele>
        <time>2018-08-11T13:00:57Z</time>
      </trkpt>
      <trkpt lat="42.65379" lon="0.20789">
        <ele>1095.79</ele>
        <time>2018-08-11T13:00:58Z</time>
      </trkpt>
      <trkpt lat="42.65359" lon="0.20791">
        <ele>1095</ele>
        <time>2018-08-11T13:00:59Z</time>
      </trkpt>
      <trkpt lat="42.65337" lon="0.20792">
        <ele>1093.36</ele>
        <time>2018-08-11T13:01:00Z</time>
      </trkpt>
      <trkpt lat="42.65316" lon="0.20795">
        <ele>1092.87</ele>
        <time>2018-08-11T13:01:01Z</time>
      </trkpt>
      <trkpt lat="42.65295" lon="0.20796">
        <ele>1092.02</ele>
        <time>2018-08-11T13:01:02Z</time>
      </trkpt>
      <trkpt lat="42.65274" lon="0.208">
        <ele>1091.77</ele>
        <time>2018-08-11T13:01:03Z</time>
      </trkpt>
      <trkpt lat="42.65254" lon="0.20806">
        <ele>1091.69</ele>
        <time>2018-08-11T13:01:04Z</time>
      </trkpt>
      <trkpt lat="42.65234" lon="0.20814">
        <ele>1091.67</ele>
        <time>2018-08-11T13:01:05Z</time>
      </trkpt>
      <trkpt lat="42.65212" lon="0.20825">
        <ele>1090.26</ele>
        <time>2018-08-11T13:01:06Z</time>
      </trkpt>
      <trkpt lat="42.65191" lon="0.20836">
        <ele>1089.84</ele>
        <time>2018-08-11T13:01:07Z</time>
      </trkpt>
      <trkpt lat="42.65171" lon="0.20849">
        <ele>1089.01</ele>
        <time>2018-08-11T13:01:08Z</time>
      </trkpt>
      <trkpt lat="42.65151" lon="0.20862">
        <ele>1088.76</ele>
        <time>2018-08-11T13:01:09Z</time>
      </trkpt>
      <trkpt lat="42.65131" lon="0.20875">
        <ele>1088.69</ele>
        <time>2018-08-11T13:01:10Z</time>
      </trkpt>
      <trkpt lat="42.65111" lon="0.20889">
        <ele>1088.67</ele>
        <time>2018-08-11T13:01:11Z</time>
      </trkpt>
      <trkpt lat="42.65092" lon="0.20901">
        <ele>1087.96</ele>
        <time>2018-08-11T13:01:12Z</time>
      </trkpt>
      <trkpt lat="42.65071" lon="0.20913">
        <ele>1086.35</ele>
        <time>2018-08-11T13:01:13Z</time>
      </trkpt>
      <trkpt lat="42.65052" lon="0.20924">
        <ele>1085.87</ele>
        <time>2018-08-11T13:01:14Z</time>
      </trkpt>
      <trkpt lat="42.65031" lon="0.20931">
        <ele>1085.02</ele>
        <time>2018-08-11T13:01:15Z</time>
      </trkpt>
      <trkpt lat="42.65011" lon="0.20938">
        <ele>1083.37</ele>
        <time>2018-08-11T13:01:16Z</time>
      </trkpt>
      <trkpt lat="42.6499" lon="0.20941">
        <ele>1081.47</ele>
        <time>2018-08-11T13:01:17Z</time>
      </trkpt>
      <trkpt lat="42.64969" lon="0.20942">
        <ele>1080.9</ele>
        <time>2018-08-11T13:01:18Z</time>
      </trkpt>
      <trkpt lat="42.64947" lon="0.20941">
        <ele>1080.73</ele>
        <time>2018-08-11T13:01:19Z</time>
      </trkpt>
      <trkpt lat="42.64926" lon="0.2094">
        <ele>1080.68</ele>
        <time>2018-08-11T13:01:20Z</time>
      </trkpt>
      <trkpt lat="42.64904" lon="0.20938">
        <ele>1079.96</ele>
        <time>2018-08-11T13:01:21Z</time>
      </trkpt>
      <trkpt lat="42.64882" lon="0.20935">
        <ele>1078.35</ele>
        <time>2018-08-11T13:01:22Z</time>
      </trkpt>
      <trkpt lat="42.64861" lon="0.20933">
        <ele>1077.17</ele>
        <time>2018-08-11T13:01:23Z</time>
      </trkpt>
      <trkpt lat="42.6484" lon="0.20935">
        <ele>1076.81</ele>
        <time>2018-08-11T13:01:24Z</time>
      </trkpt>
      <trkpt lat="42.64819" lon="0.20939">
        <ele>1076</ele>
        <time>2018-08-11T13:01:25Z</time>
      </trkpt>
      <trkpt lat="42.64798" lon="0.20944">
        <ele>1075.76</ele>
        <time>2018-08-11T13:01:26Z</time>
      </trkpt>
      <trkpt lat="42.64778" lon="0.20954">
        <ele>1075.69</ele>
        <time>2018-08-11T13:01:27Z</time>
      </trkpt>
      <trkpt lat="42.64759" lon="0.20971">
        <ele>1075.67</ele>
        <time>2018-08-11T13:01:28Z</time>
      </trkpt>
      <trkpt lat="42.64748" lon="0.20995">
        <ele>1074.96</ele>
        <time>2018-08-11T13:01:29Z</time>
      </trkpt>
      <trkpt lat="42.64734" lon="0.21021">
        <ele>1074.75</ele>
        <time>2018-08-11T13:01:30Z</time>
      </trkpt>
      <trkpt lat="42.64719" lon="0.21043">
        <ele>1074.69</ele>
        <time>2018-08-11T13:01:31Z</time>
      </trkpt>
      <trkpt lat="42.64703" lon="0.21064">
        <ele>1073.97</ele>
        <time>2018-08-11T13:01:32Z</time>
      </trkpt>
      <trkpt lat="42.64688" lon="0.21084">
        <ele>1073.75</ele>
        <time>2018-08-11T13:01:33Z</time>
      </trkpt>
      <trkpt lat="42.64671" lon="0.21104">
        <ele>1072.29</ele>
        <time>2018-08-11T13:01:34Z</time>
      </trkpt>
      <trkpt lat="42.64655" lon="0.21123">
        <ele>1070.45</ele>
        <time>2018-08-11T13:01:35Z</time>
      </trkpt>
      <trkpt lat="42.64639" lon="0.2114">
        <ele>1069.89</ele>
        <time>2018-08-11T13:01:36Z</time>
      </trkpt>
      <trkpt lat="42.64622" lon="0.21156">
        <ele>1069.03</ele>
        <time>2018-08-11T13:01:37Z</time>
      </trkpt>
      <trkpt lat="42.64603" lon="0.21169">
        <ele>1068.07</ele>
        <time>2018-08-11T13:01:38Z</time>
      </trkpt>
      <trkpt lat="42.64584" lon="0.21182">
        <ele>1067.08</ele>
        <time>2018-08-11T13:01:39Z</time>
      </trkpt>
      <trkpt lat="42.64563" lon="0.21192">
        <ele>1065.39</ele>
        <time>2018-08-11T13:01:40Z</time>
      </trkpt>
      <trkpt lat="42.64542" lon="0.21202">
        <ele>1064.18</ele>
        <time>2018-08-11T13:01:41Z</time>
      </trkpt>
      <trkpt lat="42.64521" lon="0.21209">
        <ele>1063.11</ele>
        <time>2018-08-11T13:01:42Z</time>
      </trkpt>
      <trkpt lat="42.64499" lon="0.21214">
        <ele>1061.39</ele>
        <time>2018-08-11T13:01:43Z</time>
      </trkpt>
      <trkpt lat="42.64477" lon="0.21216">
        <ele>1060.18</ele>
        <time>2018-08-11T13:01:44Z</time>
      </trkpt>
      <trkpt lat="42.64454" lon="0.21217">
        <ele>1059.11</ele>
        <time>2018-08-11T13:01:45Z</time>
      </trkpt>
      <trkpt lat="42.64432" lon="0.21217">
        <ele>1057.39</ele>
        <time>2018-08-11T13:01:46Z</time>
      </trkpt>
      <trkpt lat="42.6441" lon="0.21217">
        <ele>1056.18</ele>
        <time>2018-08-11T13:01:47Z</time>
      </trkpt>
      <trkpt lat="42.64387" lon="0.21217">
        <ele>1055.11</ele>
        <time>2018-08-11T13:01:48Z</time>
      </trkpt>
      <trkpt lat="42.64365" lon="0.2122">
        <ele>1054.79</ele>
        <time>2018-08-11T13:01:49Z</time>
      </trkpt>
      <trkpt lat="42.64343" lon="0.21226">
        <ele>1054.7</ele>
        <time>2018-08-11T13:01:50Z</time>
      </trkpt>
      <trkpt lat="42.64322" lon="0.21234">
        <ele>1053.97</ele>
        <time>2018-08-11T13:01:51Z</time>
      </trkpt>
      <trkpt lat="42.643" lon="0.21243">
        <ele>1053.75</ele>
        <time>2018-08-11T13:01:52Z</time>
      </trkpt>
      <trkpt lat="42.64279" lon="0.21256">
        <ele>1053.69</ele>
        <time>2018-08-11T13:01:53Z</time>
      </trkpt>
      <trkpt lat="42.64259" lon="0.21274">
        <ele>1052.97</ele>
        <time>2018-08-11T13:01:54Z</time>
      </trkpt>
      <trkpt lat="42.64246" lon="0.21303">
        <ele>1052.75</ele>
        <time>2018-08-11T13:01:55Z</time>
      </trkpt>
      <trkpt lat="42.64237" lon="0.21332">
        <ele>1052.69</ele>
        <time>2018-08-11T13:01:56Z</time>
      </trkpt>
      <trkpt lat="42.64248" lon="0.21374">
        <ele>1053.37</ele>
        <time>2018-08-11T13:01:57Z</time>
      </trkpt>
      <trkpt lat="42.64242" lon="0.21403">
        <ele>1054.27</ele>
        <time>2018-08-11T13:01:58Z</time>
      </trkpt>
      <trkpt lat="42.64231" lon="0.21424">
        <ele>1054.54</ele>
        <time>2018-08-11T13:01:59Z</time>
      </trkpt>
      <trkpt lat="42.64206" lon="0.2146">
        <ele>1053.95</ele>
        <time>2018-08-11T13:02:01Z</time>
      </trkpt>
      <trkpt lat="42.64189" lon="0.21467">
        <ele>1053.04</ele>
        <time>2018-08-11T13:02:02Z</time>
      </trkpt>
      <trkpt lat="42.64146" lon="0.21466">
        <ele>1052.69</ele>
        <time>2018-08-11T13:02:04Z</time>
      </trkpt>
      <trkpt lat="42.64127" lon="0.21459">
        <ele>1052.67</ele>
        <time>2018-08-11T13:02:05Z</time>
      </trkpt>
      <trkpt lat="42.64092" lon="0.2146">
        <ele>1052.66</ele>
        <time>2018-08-11T13:02:07Z</time>
      </trkpt>
      <trkpt lat="42.63919" lon="0.21508">
        <ele>1050.56</ele>
        <time>2018-08-11T13:02:16Z</time>
      </trkpt>
      <trkpt lat="42.63898" lon="0.21521">
        <ele>1048.53</ele>
        <time>2018-08-11T13:02:17Z</time>
      </trkpt>
      <trkpt lat="42.63878" lon="0.21536">
        <ele>1048.62</ele>
        <time>2018-08-11T13:02:18Z</time>
      </trkpt>
      <trkpt lat="42.63859" lon="0.21543">
        <ele>1047.95</ele>
        <time>2018-08-11T13:02:19Z</time>
      </trkpt>
      <trkpt lat="42.6384" lon="0.2155">
        <ele>1047.04</ele>
        <time>2018-08-11T13:02:20Z</time>
      </trkpt>
      <trkpt lat="42.63821" lon="0.21558">
        <ele>1047.47</ele>
        <time>2018-08-11T13:02:21Z</time>
      </trkpt>
      <trkpt lat="42.63802" lon="0.21566">
        <ele>1046.9</ele>
        <time>2018-08-11T13:02:22Z</time>
      </trkpt>
      <trkpt lat="42.63784" lon="0.21575">
        <ele>1044.63</ele>
        <time>2018-08-11T13:02:23Z</time>
      </trkpt>
      <trkpt lat="42.63765" lon="0.21582">
        <ele>1042.55</ele>
        <time>2018-08-11T13:02:24Z</time>
      </trkpt>
      <trkpt lat="42.63747" lon="0.21591">
        <ele>1041.23</ele>
        <time>2018-08-11T13:02:25Z</time>
      </trkpt>
      <trkpt lat="42.63728" lon="0.21602">
        <ele>1040.83</ele>
        <time>2018-08-11T13:02:26Z</time>
      </trkpt>
      <trkpt lat="42.63712" lon="0.21614">
        <ele>1038.61</ele>
        <time>2018-08-11T13:02:27Z</time>
      </trkpt>
      <trkpt lat="42.63695" lon="0.21628">
        <ele>1037.94</ele>
        <time>2018-08-11T13:02:28Z</time>
      </trkpt>
      <trkpt lat="42.63684" lon="0.21651">
        <ele>1037.04</ele>
        <time>2018-08-11T13:02:29Z</time>
      </trkpt>
      <trkpt lat="42.63673" lon="0.21674">
        <ele>1036.07</ele>
        <time>2018-08-11T13:02:30Z</time>
      </trkpt>
      <trkpt lat="42.63664" lon="0.21698">
        <ele>1034.38</ele>
        <time>2018-08-11T13:02:31Z</time>
      </trkpt>
      <trkpt lat="42.63654" lon="0.21724">
        <ele>1032.48</ele>
        <time>2018-08-11T13:02:32Z</time>
      </trkpt>
      <trkpt lat="42.63645" lon="0.2175">
        <ele>1031.2</ele>
        <time>2018-08-11T13:02:33Z</time>
      </trkpt>
      <trkpt lat="42.63635" lon="0.21776">
        <ele>1030.82</ele>
        <time>2018-08-11T13:02:34Z</time>
      </trkpt>
      <trkpt lat="42.63624" lon="0.21802">
        <ele>1030.01</ele>
        <time>2018-08-11T13:02:35Z</time>
      </trkpt>
      <trkpt lat="42.63612" lon="0.21827">
        <ele>1029.76</ele>
        <time>2018-08-11T13:02:36Z</time>
      </trkpt>
      <trkpt lat="42.636" lon="0.21851">
        <ele>1028.29</ele>
        <time>2018-08-11T13:02:37Z</time>
      </trkpt>
      <trkpt lat="42.63586" lon="0.21876">
        <ele>1027.15</ele>
        <time>2018-08-11T13:02:38Z</time>
      </trkpt>
      <trkpt lat="42.63572" lon="0.21899">
        <ele>1026.8</ele>
        <time>2018-08-11T13:02:39Z</time>
      </trkpt>
      <trkpt lat="42.63559" lon="0.21923">
        <ele>1026</ele>
        <time>2018-08-11T13:02:40Z</time>
      </trkpt>
      <trkpt lat="42.63545" lon="0.21946">
        <ele>1025.76</ele>
        <time>2018-08-11T13:02:41Z</time>
      </trkpt>
      <trkpt lat="42.6353" lon="0.21968">
        <ele>1024.99</ele>
        <time>2018-08-11T13:02:42Z</time>
      </trkpt>
      <trkpt lat="42.63515" lon="0.21989">
        <ele>1024.06</ele>
        <time>2018-08-11T13:02:43Z</time>
      </trkpt>
      <trkpt lat="42.63497" lon="0.22008">
        <ele>1023.08</ele>
        <time>2018-08-11T13:02:44Z</time>
      </trkpt>
      <trkpt lat="42.63479" lon="0.22025">
        <ele>1022.08</ele>
        <time>2018-08-11T13:02:45Z</time>
      </trkpt>
      <trkpt lat="42.6346" lon="0.2204">
        <ele>1021.79</ele>
        <time>2018-08-11T13:02:46Z</time>
      </trkpt>
      <trkpt lat="42.6344" lon="0.22054">
        <ele>1021</ele>
        <time>2018-08-11T13:02:47Z</time>
      </trkpt>
      <trkpt lat="42.63421" lon="0.22067">
        <ele>1020.76</ele>
        <time>2018-08-11T13:02:48Z</time>
      </trkpt>
      <trkpt lat="42.63402" lon="0.2208">
        <ele>1019.99</ele>
        <time>2018-08-11T13:02:49Z</time>
      </trkpt>
      <trkpt lat="42.63382" lon="0.22092">
        <ele>1019.06</ele>
        <time>2018-08-11T13:02:50Z</time>
      </trkpt>
      <trkpt lat="42.63363" lon="0.22104">
        <ele>1018.08</ele>
        <time>2018-08-11T13:02:51Z</time>
      </trkpt>
      <trkpt lat="42.63343" lon="0.22114">
        <ele>1017.08</ele>
        <time>2018-08-11T13:02:52Z</time>
      </trkpt>
      <trkpt lat="42.63322" lon="0.22122">
        <ele>1016.09</ele>
        <time>2018-08-11T13:02:53Z</time>
      </trkpt>
      <trkpt lat="42.63301" lon="0.22128">
        <ele>1015.09</ele>
        <time>2018-08-11T13:02:54Z</time>
      </trkpt>
      <trkpt lat="42.6328" lon="0.22133">
        <ele>1014.09</ele>
        <time>2018-08-11T13:02:55Z</time>
      </trkpt>
      <trkpt lat="42.63259" lon="0.22137">
        <ele>1013.09</ele>
        <time>2018-08-11T13:02:56Z</time>
      </trkpt>
      <trkpt lat="42.63238" lon="0.2214">
        <ele>1012.09</ele>
        <time>2018-08-11T13:02:57Z</time>
      </trkpt>
      <trkpt lat="42.63218" lon="0.22143">
        <ele>1011.79</ele>
        <time>2018-08-11T13:02:58Z</time>
      </trkpt>
      <trkpt lat="42.63199" lon="0.22147">
        <ele>1011</ele>
        <time>2018-08-11T13:02:59Z</time>
      </trkpt>
      <trkpt lat="42.63179" lon="0.2215">
        <ele>1010.76</ele>
        <time>2018-08-11T13:03:00Z</time>
      </trkpt>
      <trkpt lat="42.63159" lon="0.22155">
        <ele>1010.69</ele>
        <time>2018-08-11T13:03:01Z</time>
      </trkpt>
      <trkpt lat="42.6314" lon="0.22162">
        <ele>1009.97</ele>
        <time>2018-08-11T13:03:02Z</time>
      </trkpt>
      <trkpt lat="42.63121" lon="0.22171">
        <ele>1009.05</ele>
        <time>2018-08-11T13:03:03Z</time>
      </trkpt>
      <trkpt lat="42.63102" lon="0.22182">
        <ele>1008.08</ele>
        <time>2018-08-11T13:03:04Z</time>
      </trkpt>
      <trkpt lat="42.63084" lon="0.22196">
        <ele>1007.08</ele>
        <time>2018-08-11T13:03:05Z</time>
      </trkpt>
      <trkpt lat="42.63067" lon="0.22212">
        <ele>1006.09</ele>
        <time>2018-08-11T13:03:06Z</time>
      </trkpt>
      <trkpt lat="42.63049" lon="0.22229">
        <ele>1005.09</ele>
        <time>2018-08-11T13:03:07Z</time>
      </trkpt>
      <trkpt lat="42.63032" lon="0.22246">
        <ele>1004.09</ele>
        <time>2018-08-11T13:03:08Z</time>
      </trkpt>
      <trkpt lat="42.63014" lon="0.22264">
        <ele>1003.09</ele>
        <time>2018-08-11T13:03:09Z</time>
      </trkpt>
      <trkpt lat="42.62996" lon="0.22283">
        <ele>1002.09</ele>
        <time>2018-08-11T13:03:10Z</time>
      </trkpt>
      <trkpt lat="42.62977" lon="0.22305">
        <ele>1001.09</ele>
        <time>2018-08-11T13:03:11Z</time>
      </trkpt>
      <trkpt lat="42.62958" lon="0.22327">
        <ele>999.39</ele>
        <time>2018-08-11T13:03:12Z</time>
      </trkpt>
      <trkpt lat="42.62938" lon="0.22348">
        <ele>998.18</ele>
        <time>2018-08-11T13:03:13Z</time>
      </trkpt>
      <trkpt lat="42.62919" lon="0.22369">
        <ele>997.11</ele>
        <time>2018-08-11T13:03:14Z</time>
      </trkpt>
      <trkpt lat="42.62902" lon="0.22389">
        <ele>996.09</ele>
        <time>2018-08-11T13:03:15Z</time>
      </trkpt>
      <trkpt lat="42.62885" lon="0.22411">
        <ele>995.79</ele>
        <time>2018-08-11T13:03:16Z</time>
      </trkpt>
      <trkpt lat="42.62869" lon="0.22431">
        <ele>996.4</ele>
        <time>2018-08-11T13:03:17Z</time>
      </trkpt>
      <trkpt lat="42.62854" lon="0.22452">
        <ele>995.88</ele>
        <time>2018-08-11T13:03:18Z</time>
      </trkpt>
      <trkpt lat="42.62839" lon="0.22473">
        <ele>995.72</ele>
        <time>2018-08-11T13:03:19Z</time>
      </trkpt>
      <trkpt lat="42.62824" lon="0.22494">
        <ele>995.68</ele>
        <time>2018-08-11T13:03:20Z</time>
      </trkpt>
      <trkpt lat="42.62809" lon="0.22515">
        <ele>995.66</ele>
        <time>2018-08-11T13:03:21Z</time>
      </trkpt>
      <trkpt lat="42.62794" lon="0.22537">
        <ele>995.66</ele>
        <time>2018-08-11T13:03:22Z</time>
      </trkpt>
      <trkpt lat="42.6278" lon="0.2256">
        <ele>995.66</ele>
        <time>2018-08-11T13:03:23Z</time>
      </trkpt>
      <trkpt lat="42.62766" lon="0.22582">
        <ele>995.66</ele>
        <time>2018-08-11T13:03:24Z</time>
      </trkpt>
      <trkpt lat="42.62754" lon="0.22608">
        <ele>995.66</ele>
        <time>2018-08-11T13:03:25Z</time>
      </trkpt>
      <trkpt lat="42.62754" lon="0.22639">
        <ele>995.66</ele>
        <time>2018-08-11T13:03:26Z</time>
      </trkpt>
      <trkpt lat="42.62751" lon="0.22666">
        <ele>995.66</ele>
        <time>2018-08-11T13:03:27Z</time>
      </trkpt>
      <trkpt lat="42.62745" lon="0.22695">
        <ele>995.66</ele>
        <time>2018-08-11T13:03:28Z</time>
      </trkpt>
      <trkpt lat="42.62738" lon="0.22721">
        <ele>994.96</ele>
        <time>2018-08-11T13:03:29Z</time>
      </trkpt>
      <trkpt lat="42.62726" lon="0.22744">
        <ele>994.75</ele>
        <time>2018-08-11T13:03:30Z</time>
      </trkpt>
      <trkpt lat="42.62712" lon="0.22763">
        <ele>993.98</ele>
        <time>2018-08-11T13:03:31Z</time>
      </trkpt>
      <trkpt lat="42.62693" lon="0.22776">
        <ele>993.06</ele>
        <time>2018-08-11T13:03:32Z</time>
      </trkpt>
      <trkpt lat="42.62673" lon="0.22784">
        <ele>992.08</ele>
        <time>2018-08-11T13:03:33Z</time>
      </trkpt>
      <trkpt lat="42.62652" lon="0.22788">
        <ele>991.78</ele>
        <time>2018-08-11T13:03:34Z</time>
      </trkpt>
      <trkpt lat="42.62629" lon="0.22788">
        <ele>991.7</ele>
        <time>2018-08-11T13:03:35Z</time>
      </trkpt>
      <trkpt lat="42.62605" lon="0.22787">
        <ele>991.67</ele>
        <time>2018-08-11T13:03:36Z</time>
      </trkpt>
      <trkpt lat="42.62583" lon="0.22789">
        <ele>990.96</ele>
        <time>2018-08-11T13:03:37Z</time>
      </trkpt>
      <trkpt lat="42.6256" lon="0.22792">
        <ele>990.75</ele>
        <time>2018-08-11T13:03:38Z</time>
      </trkpt>
      <trkpt lat="42.62537" lon="0.22795">
        <ele>990.69</ele>
        <time>2018-08-11T13:03:39Z</time>
      </trkpt>
      <trkpt lat="42.62514" lon="0.22804">
        <ele>989.97</ele>
        <time>2018-08-11T13:03:40Z</time>
      </trkpt>
      <trkpt lat="42.62491" lon="0.22812">
        <ele>989.05</ele>
        <time>2018-08-11T13:03:41Z</time>
      </trkpt>
      <trkpt lat="42.62468" lon="0.22821">
        <ele>988.78</ele>
        <time>2018-08-11T13:03:42Z</time>
      </trkpt>
      <trkpt lat="42.62447" lon="0.22831">
        <ele>988.69</ele>
        <time>2018-08-11T13:03:43Z</time>
      </trkpt>
      <trkpt lat="42.62426" lon="0.22843">
        <ele>988.67</ele>
        <time>2018-08-11T13:03:44Z</time>
      </trkpt>
      <trkpt lat="42.62407" lon="0.22859">
        <ele>988.66</ele>
        <time>2018-08-11T13:03:45Z</time>
      </trkpt>
      <trkpt lat="42.62388" lon="0.22876">
        <ele>988.66</ele>
        <time>2018-08-11T13:03:46Z</time>
      </trkpt>
      <trkpt lat="42.6237" lon="0.22894">
        <ele>987.96</ele>
        <time>2018-08-11T13:03:47Z</time>
      </trkpt>
      <trkpt lat="42.62352" lon="0.2291">
        <ele>987.05</ele>
        <time>2018-08-11T13:03:48Z</time>
      </trkpt>
      <trkpt lat="42.62333" lon="0.22927">
        <ele>986.78</ele>
        <time>2018-08-11T13:03:49Z</time>
      </trkpt>
      <trkpt lat="42.62314" lon="0.22944">
        <ele>986.69</ele>
        <time>2018-08-11T13:03:50Z</time>
      </trkpt>
      <trkpt lat="42.62295" lon="0.2296">
        <ele>986.67</ele>
        <time>2018-08-11T13:03:51Z</time>
      </trkpt>
      <trkpt lat="42.62272" lon="0.22974">
        <ele>985.26</ele>
        <time>2018-08-11T13:03:52Z</time>
      </trkpt>
      <trkpt lat="42.62254" lon="0.22992">
        <ele>984.14</ele>
        <time>2018-08-11T13:03:53Z</time>
      </trkpt>
      <trkpt lat="42.62234" lon="0.23007">
        <ele>981.7</ele>
        <time>2018-08-11T13:03:54Z</time>
      </trkpt>
      <trkpt lat="42.62214" lon="0.23022">
        <ele>980.27</ele>
        <time>2018-08-11T13:03:55Z</time>
      </trkpt>
      <trkpt lat="42.62193" lon="0.23036">
        <ele>980.54</ele>
        <time>2018-08-11T13:03:56Z</time>
      </trkpt>
      <trkpt lat="42.62173" lon="0.2305">
        <ele>979.92</ele>
        <time>2018-08-11T13:03:57Z</time>
      </trkpt>
      <trkpt lat="42.62152" lon="0.23065">
        <ele>979.74</ele>
        <time>2018-08-11T13:03:58Z</time>
      </trkpt>
      <trkpt lat="42.6213" lon="0.23077">
        <ele>977.58</ele>
        <time>2018-08-11T13:03:59Z</time>
      </trkpt>
      <trkpt lat="42.62111" lon="0.23092">
        <ele>974.84</ele>
        <time>2018-08-11T13:04:00Z</time>
      </trkpt>
      <trkpt lat="42.62089" lon="0.23103">
        <ele>974.01</ele>
        <time>2018-08-11T13:04:01Z</time>
      </trkpt>
      <trkpt lat="42.62066" lon="0.2311">
        <ele>973.76</ele>
        <time>2018-08-11T13:04:02Z</time>
      </trkpt>
      <trkpt lat="42.62043" lon="0.23114">
        <ele>972.99</ele>
        <time>2018-08-11T13:04:03Z</time>
      </trkpt>
      <trkpt lat="42.6202" lon="0.23114">
        <ele>972.06</ele>
        <time>2018-08-11T13:04:04Z</time>
      </trkpt>
      <trkpt lat="42.61997" lon="0.23111">
        <ele>971.08</ele>
        <time>2018-08-11T13:04:05Z</time>
      </trkpt>
      <trkpt lat="42.61973" lon="0.23108">
        <ele>970.08</ele>
        <time>2018-08-11T13:04:06Z</time>
      </trkpt>
      <trkpt lat="42.6195" lon="0.23103">
        <ele>970.49</ele>
        <time>2018-08-11T13:04:07Z</time>
      </trkpt>
      <trkpt lat="42.61927" lon="0.23093">
        <ele>969.91</ele>
        <time>2018-08-11T13:04:08Z</time>
      </trkpt>
      <trkpt lat="42.61905" lon="0.23087">
        <ele>969.03</ele>
        <time>2018-08-11T13:04:09Z</time>
      </trkpt>
      <trkpt lat="42.61882" lon="0.23083">
        <ele>966.67</ele>
        <time>2018-08-11T13:04:10Z</time>
      </trkpt>
      <trkpt lat="42.61859" lon="0.23079">
        <ele>965.96</ele>
        <time>2018-08-11T13:04:11Z</time>
      </trkpt>
      <trkpt lat="42.61835" lon="0.23078">
        <ele>965.05</ele>
        <time>2018-08-11T13:04:12Z</time>
      </trkpt>
      <trkpt lat="42.61811" lon="0.23077">
        <ele>961.98</ele>
        <time>2018-08-11T13:04:13Z</time>
      </trkpt>
      <trkpt lat="42.61787" lon="0.23076">
        <ele>961.05</ele>
        <time>2018-08-11T13:04:14Z</time>
      </trkpt>
      <trkpt lat="42.61764" lon="0.23076">
        <ele>959.38</ele>
        <time>2018-08-11T13:04:15Z</time>
      </trkpt>
      <trkpt lat="42.6174" lon="0.23076">
        <ele>958.87</ele>
        <time>2018-08-11T13:04:16Z</time>
      </trkpt>
      <trkpt lat="42.61717" lon="0.23076">
        <ele>958.72</ele>
        <time>2018-08-11T13:04:17Z</time>
      </trkpt>
      <trkpt lat="42.61695" lon="0.23078">
        <ele>958.68</ele>
        <time>2018-08-11T13:04:18Z</time>
      </trkpt>
      <trkpt lat="42.61673" lon="0.23085">
        <ele>960.06</ele>
        <time>2018-08-11T13:04:19Z</time>
      </trkpt>
      <trkpt lat="42.61651" lon="0.23092">
        <ele>960.48</ele>
        <time>2018-08-11T13:04:20Z</time>
      </trkpt>
      <trkpt lat="42.6163" lon="0.23105">
        <ele>960.6</ele>
        <time>2018-08-11T13:04:21Z</time>
      </trkpt>
      <trkpt lat="42.61609" lon="0.23118">
        <ele>959.94</ele>
        <time>2018-08-11T13:04:22Z</time>
      </trkpt>
      <trkpt lat="42.61589" lon="0.23134">
        <ele>960.44</ele>
        <time>2018-08-11T13:04:23Z</time>
      </trkpt>
      <trkpt lat="42.61568" lon="0.23149">
        <ele>961.29</ele>
        <time>2018-08-11T13:04:24Z</time>
      </trkpt>
      <trkpt lat="42.61546" lon="0.23163">
        <ele>960.85</ele>
        <time>2018-08-11T13:04:25Z</time>
      </trkpt>
      <trkpt lat="42.61526" lon="0.23177">
        <ele>961.42</ele>
        <time>2018-08-11T13:04:26Z</time>
      </trkpt>
      <trkpt lat="42.61505" lon="0.23191">
        <ele>961.59</ele>
        <time>2018-08-11T13:04:27Z</time>
      </trkpt>
      <trkpt lat="42.61484" lon="0.23204">
        <ele>961.64</ele>
        <time>2018-08-11T13:04:28Z</time>
      </trkpt>
      <trkpt lat="42.61463" lon="0.23216">
        <ele>961.65</ele>
        <time>2018-08-11T13:04:29Z</time>
      </trkpt>
      <trkpt lat="42.61442" lon="0.23228">
        <ele>961.66</ele>
        <time>2018-08-11T13:04:30Z</time>
      </trkpt>
      <trkpt lat="42.61421" lon="0.23241">
        <ele>961.66</ele>
        <time>2018-08-11T13:04:31Z</time>
      </trkpt>
      <trkpt lat="42.61399" lon="0.23252">
        <ele>961.66</ele>
        <time>2018-08-11T13:04:32Z</time>
      </trkpt>
      <trkpt lat="42.61378" lon="0.23263">
        <ele>961.66</ele>
        <time>2018-08-11T13:04:33Z</time>
      </trkpt>
      <trkpt lat="42.61356" lon="0.23275">
        <ele>960.96</ele>
        <time>2018-08-11T13:04:34Z</time>
      </trkpt>
      <trkpt lat="42.61336" lon="0.23287">
        <ele>960.75</ele>
        <time>2018-08-11T13:04:35Z</time>
      </trkpt>
      <trkpt lat="42.61315" lon="0.23299">
        <ele>959.28</ele>
        <time>2018-08-11T13:04:36Z</time>
      </trkpt>
      <trkpt lat="42.61295" lon="0.2331">
        <ele>959.55</ele>
        <time>2018-08-11T13:04:37Z</time>
      </trkpt>
      <trkpt lat="42.61275" lon="0.2332">
        <ele>957.52</ele>
        <time>2018-08-11T13:04:38Z</time>
      </trkpt>
      <trkpt lat="42.61254" lon="0.23332">
        <ele>956.22</ele>
        <time>2018-08-11T13:04:39Z</time>
      </trkpt>
      <trkpt lat="42.61234" lon="0.23344">
        <ele>955.13</ele>
        <time>2018-08-11T13:04:40Z</time>
      </trkpt>
      <trkpt lat="42.61214" lon="0.23357">
        <ele>954.8</ele>
        <time>2018-08-11T13:04:41Z</time>
      </trkpt>
      <trkpt lat="42.61194" lon="0.2337">
        <ele>954</ele>
        <time>2018-08-11T13:04:42Z</time>
      </trkpt>
      <trkpt lat="42.61171" lon="0.23382">
        <ele>951.66</ele>
        <time>2018-08-11T13:04:43Z</time>
      </trkpt>
      <trkpt lat="42.61151" lon="0.23396">
        <ele>950.26</ele>
        <time>2018-08-11T13:04:44Z</time>
      </trkpt>
      <trkpt lat="42.61131" lon="0.2341">
        <ele>949.84</ele>
        <time>2018-08-11T13:04:45Z</time>
      </trkpt>
      <trkpt lat="42.61112" lon="0.23424">
        <ele>949.01</ele>
        <time>2018-08-11T13:04:46Z</time>
      </trkpt>
      <trkpt lat="42.61092" lon="0.23438">
        <ele>948.06</ele>
        <time>2018-08-11T13:04:47Z</time>
      </trkpt>
      <trkpt lat="42.61072" lon="0.23453">
        <ele>947.78</ele>
        <time>2018-08-11T13:04:48Z</time>
      </trkpt>
      <trkpt lat="42.61054" lon="0.23468">
        <ele>948.39</ele>
        <time>2018-08-11T13:04:49Z</time>
      </trkpt>
      <trkpt lat="42.61037" lon="0.23485">
        <ele>948.58</ele>
        <time>2018-08-11T13:04:50Z</time>
      </trkpt>
      <trkpt lat="42.61024" lon="0.23506">
        <ele>948.63</ele>
        <time>2018-08-11T13:04:51Z</time>
      </trkpt>
      <trkpt lat="42.61015" lon="0.23531">
        <ele>947.25</ele>
        <time>2018-08-11T13:04:52Z</time>
      </trkpt>
      <trkpt lat="42.61008" lon="0.23557">
        <ele>946.84</ele>
        <time>2018-08-11T13:04:53Z</time>
      </trkpt>
      <trkpt lat="42.61003" lon="0.23582">
        <ele>946.01</ele>
        <time>2018-08-11T13:04:54Z</time>
      </trkpt>
      <trkpt lat="42.61009" lon="0.23612">
        <ele>947.16</ele>
        <time>2018-08-11T13:04:55Z</time>
      </trkpt>
      <trkpt lat="42.61012" lon="0.23641">
        <ele>946.81</ele>
        <time>2018-08-11T13:04:56Z</time>
      </trkpt>
      <trkpt lat="42.6102" lon="0.23671">
        <ele>946</ele>
        <time>2018-08-11T13:04:57Z</time>
      </trkpt>
      <trkpt lat="42.61017" lon="0.23698">
        <ele>945.06</ele>
        <time>2018-08-11T13:04:58Z</time>
      </trkpt>
      <trkpt lat="42.61014" lon="0.23726">
        <ele>944.78</ele>
        <time>2018-08-11T13:04:59Z</time>
      </trkpt>
      <trkpt lat="42.61011" lon="0.23754">
        <ele>943.29</ele>
        <time>2018-08-11T13:05:00Z</time>
      </trkpt>
      <trkpt lat="42.61004" lon="0.23779">
        <ele>942.15</ele>
        <time>2018-08-11T13:05:01Z</time>
      </trkpt>
      <trkpt lat="42.60985" lon="0.23793">
        <ele>940.41</ele>
        <time>2018-08-11T13:05:02Z</time>
      </trkpt>
      <trkpt lat="42.60966" lon="0.23806">
        <ele>939.88</ele>
        <time>2018-08-11T13:05:03Z</time>
      </trkpt>
      <trkpt lat="42.60939" lon="0.23816">
        <ele>939.03</ele>
        <time>2018-08-11T13:05:04Z</time>
      </trkpt>
      <trkpt lat="42.60913" lon="0.23822">
        <ele>938.07</ele>
        <time>2018-08-11T13:05:05Z</time>
      </trkpt>
      <trkpt lat="42.60892" lon="0.23831">
        <ele>937.78</ele>
        <time>2018-08-11T13:05:06Z</time>
      </trkpt>
      <trkpt lat="42.60869" lon="0.2384">
        <ele>937.69</ele>
        <time>2018-08-11T13:05:07Z</time>
      </trkpt>
      <trkpt lat="42.60849" lon="0.2385">
        <ele>936.97</ele>
        <time>2018-08-11T13:05:08Z</time>
      </trkpt>
      <trkpt lat="42.60826" lon="0.23857">
        <ele>936.05</ele>
        <time>2018-08-11T13:05:09Z</time>
      </trkpt>
      <trkpt lat="42.60804" lon="0.23863">
        <ele>935.08</ele>
        <time>2018-08-11T13:05:10Z</time>
      </trkpt>
      <trkpt lat="42.60782" lon="0.23869">
        <ele>933.38</ele>
        <time>2018-08-11T13:05:11Z</time>
      </trkpt>
      <trkpt lat="42.6076" lon="0.23874">
        <ele>932.18</ele>
        <time>2018-08-11T13:05:12Z</time>
      </trkpt>
      <trkpt lat="42.60737" lon="0.23878">
        <ele>931.81</ele>
        <time>2018-08-11T13:05:13Z</time>
      </trkpt>
      <trkpt lat="42.60715" lon="0.23881">
        <ele>931.7</ele>
        <time>2018-08-11T13:05:14Z</time>
      </trkpt>
      <trkpt lat="42.60692" lon="0.23884">
        <ele>931.67</ele>
        <time>2018-08-11T13:05:15Z</time>
      </trkpt>
      <trkpt lat="42.6067" lon="0.23887">
        <ele>930.96</ele>
        <time>2018-08-11T13:05:16Z</time>
      </trkpt>
      <trkpt lat="42.60648" lon="0.2389">
        <ele>930.75</ele>
        <time>2018-08-11T13:05:17Z</time>
      </trkpt>
      <trkpt lat="42.60625" lon="0.23893">
        <ele>929.99</ele>
        <time>2018-08-11T13:05:18Z</time>
      </trkpt>
      <trkpt lat="42.60604" lon="0.23898">
        <ele>929.06</ele>
        <time>2018-08-11T13:05:19Z</time>
      </trkpt>
      <trkpt lat="42.60581" lon="0.23903">
        <ele>928.08</ele>
        <time>2018-08-11T13:05:20Z</time>
      </trkpt>
      <trkpt lat="42.60559" lon="0.2391">
        <ele>927.08</ele>
        <time>2018-08-11T13:05:21Z</time>
      </trkpt>
      <trkpt lat="42.60537" lon="0.23917">
        <ele>926.09</ele>
        <time>2018-08-11T13:05:22Z</time>
      </trkpt>
      <trkpt lat="42.60516" lon="0.23925">
        <ele>925.09</ele>
        <time>2018-08-11T13:05:23Z</time>
      </trkpt>
      <trkpt lat="42.60494" lon="0.23934">
        <ele>924.09</ele>
        <time>2018-08-11T13:05:24Z</time>
      </trkpt>
      <trkpt lat="42.60472" lon="0.23943">
        <ele>923.09</ele>
        <time>2018-08-11T13:05:25Z</time>
      </trkpt>
      <trkpt lat="42.6045" lon="0.23952">
        <ele>922.09</ele>
        <time>2018-08-11T13:05:26Z</time>
      </trkpt>
      <trkpt lat="42.60429" lon="0.2396">
        <ele>921.09</ele>
        <time>2018-08-11T13:05:27Z</time>
      </trkpt>
      <trkpt lat="42.60407" lon="0.23969">
        <ele>920.09</ele>
        <time>2018-08-11T13:05:28Z</time>
      </trkpt>
      <trkpt lat="42.60386" lon="0.23978">
        <ele>919.79</ele>
        <time>2018-08-11T13:05:29Z</time>
      </trkpt>
      <trkpt lat="42.60364" lon="0.23987">
        <ele>919</ele>
        <time>2018-08-11T13:05:30Z</time>
      </trkpt>
      <trkpt lat="42.60343" lon="0.23995">
        <ele>918.06</ele>
        <time>2018-08-11T13:05:31Z</time>
      </trkpt>
      <trkpt lat="42.60322" lon="0.24003">
        <ele>917.08</ele>
        <time>2018-08-11T13:05:32Z</time>
      </trkpt>
      <trkpt lat="42.603" lon="0.24009">
        <ele>916.08</ele>
        <time>2018-08-11T13:05:33Z</time>
      </trkpt>
      <trkpt lat="42.60278" lon="0.24013">
        <ele>915.79</ele>
        <time>2018-08-11T13:05:34Z</time>
      </trkpt>
      <trkpt lat="42.60256" lon="0.24015">
        <ele>915.7</ele>
        <time>2018-08-11T13:05:35Z</time>
      </trkpt>
      <trkpt lat="42.60234" lon="0.24018">
        <ele>914.97</ele>
        <time>2018-08-11T13:05:36Z</time>
      </trkpt>
      <trkpt lat="42.60211" lon="0.2402">
        <ele>914.75</ele>
        <time>2018-08-11T13:05:37Z</time>
      </trkpt>
      <trkpt lat="42.6019" lon="0.24022">
        <ele>914.69</ele>
        <time>2018-08-11T13:05:38Z</time>
      </trkpt>
      <trkpt lat="42.60169" lon="0.24025">
        <ele>913.97</ele>
        <time>2018-08-11T13:05:39Z</time>
      </trkpt>
      <trkpt lat="42.60146" lon="0.24026">
        <ele>913.05</ele>
        <time>2018-08-11T13:05:40Z</time>
      </trkpt>
      <trkpt lat="42.60127" lon="0.24027">
        <ele>912.78</ele>
        <time>2018-08-11T13:05:41Z</time>
      </trkpt>
      <trkpt lat="42.60106" lon="0.24025">
        <ele>913.39</ele>
        <time>2018-08-11T13:05:42Z</time>
      </trkpt>
      <trkpt lat="42.60083" lon="0.24022">
        <ele>914.98</ele>
        <time>2018-08-11T13:05:43Z</time>
      </trkpt>
      <trkpt lat="42.60064" lon="0.24013">
        <ele>914.05</ele>
        <time>2018-08-11T13:05:44Z</time>
      </trkpt>
      <trkpt lat="42.60044" lon="0.24004">
        <ele>913.08</ele>
        <time>2018-08-11T13:05:45Z</time>
      </trkpt>
      <trkpt lat="42.60022" lon="0.23994">
        <ele>911.38</ele>
        <time>2018-08-11T13:05:46Z</time>
      </trkpt>
      <trkpt lat="42.60001" lon="0.23984">
        <ele>910.88</ele>
        <time>2018-08-11T13:05:47Z</time>
      </trkpt>
      <trkpt lat="42.59981" lon="0.23972">
        <ele>910.02</ele>
        <time>2018-08-11T13:05:48Z</time>
      </trkpt>
      <trkpt lat="42.5996" lon="0.23958">
        <ele>909.77</ele>
        <time>2018-08-11T13:05:49Z</time>
      </trkpt>
      <trkpt lat="42.59939" lon="0.23941">
        <ele>909.69</ele>
        <time>2018-08-11T13:05:50Z</time>
      </trkpt>
      <trkpt lat="42.5992" lon="0.23926">
        <ele>908.97</ele>
        <time>2018-08-11T13:05:51Z</time>
      </trkpt>
      <trkpt lat="42.599" lon="0.23911">
        <ele>908.05</ele>
        <time>2018-08-11T13:05:52Z</time>
      </trkpt>
      <trkpt lat="42.5988" lon="0.23896">
        <ele>907.08</ele>
        <time>2018-08-11T13:05:53Z</time>
      </trkpt>
      <trkpt lat="42.59862" lon="0.23881">
        <ele>906.78</ele>
        <time>2018-08-11T13:05:54Z</time>
      </trkpt>
      <trkpt lat="42.59844" lon="0.23865">
        <ele>906</ele>
        <time>2018-08-11T13:05:55Z</time>
      </trkpt>
      <trkpt lat="42.59825" lon="0.2385">
        <ele>905.06</ele>
        <time>2018-08-11T13:05:56Z</time>
      </trkpt>
      <trkpt lat="42.59805" lon="0.23833">
        <ele>904.78</ele>
        <time>2018-08-11T13:05:57Z</time>
      </trkpt>
      <trkpt lat="42.59785" lon="0.23817">
        <ele>904.69</ele>
        <time>2018-08-11T13:05:58Z</time>
      </trkpt>
      <trkpt lat="42.59766" lon="0.23802">
        <ele>903.97</ele>
        <time>2018-08-11T13:05:59Z</time>
      </trkpt>
      <trkpt lat="42.59745" lon="0.23788">
        <ele>904.45</ele>
        <time>2018-08-11T13:06:00Z</time>
      </trkpt>
      <trkpt lat="42.59724" lon="0.23777">
        <ele>904.6</ele>
        <time>2018-08-11T13:06:01Z</time>
      </trkpt>
      <trkpt lat="42.59703" lon="0.23769">
        <ele>904.64</ele>
        <time>2018-08-11T13:06:02Z</time>
      </trkpt>
      <trkpt lat="42.59681" lon="0.23763">
        <ele>904.65</ele>
        <time>2018-08-11T13:06:03Z</time>
      </trkpt>
      <trkpt lat="42.59659" lon="0.23756">
        <ele>904.66</ele>
        <time>2018-08-11T13:06:04Z</time>
      </trkpt>
      <trkpt lat="42.59636" lon="0.23749">
        <ele>904.66</ele>
        <time>2018-08-11T13:06:05Z</time>
      </trkpt>
      <trkpt lat="42.59615" lon="0.23742">
        <ele>904.66</ele>
        <time>2018-08-11T13:06:06Z</time>
      </trkpt>
      <trkpt lat="42.59593" lon="0.23732">
        <ele>903.96</ele>
        <time>2018-08-11T13:06:07Z</time>
      </trkpt>
      <trkpt lat="42.59571" lon="0.23722">
        <ele>903.05</ele>
        <time>2018-08-11T13:06:08Z</time>
      </trkpt>
      <trkpt lat="42.59551" lon="0.2371">
        <ele>902.08</ele>
        <time>2018-08-11T13:06:09Z</time>
      </trkpt>
      <trkpt lat="42.59531" lon="0.23695">
        <ele>900.38</ele>
        <time>2018-08-11T13:06:10Z</time>
      </trkpt>
      <trkpt lat="42.5951" lon="0.2368">
        <ele>899.18</ele>
        <time>2018-08-11T13:06:11Z</time>
      </trkpt>
      <trkpt lat="42.59491" lon="0.23664">
        <ele>899.51</ele>
        <time>2018-08-11T13:06:12Z</time>
      </trkpt>
      <trkpt lat="42.59473" lon="0.23645">
        <ele>897.51</ele>
        <time>2018-08-11T13:06:13Z</time>
      </trkpt>
      <trkpt lat="42.59456" lon="0.23626">
        <ele>895.51</ele>
        <time>2018-08-11T13:06:14Z</time>
      </trkpt>
      <trkpt lat="42.59437" lon="0.23607">
        <ele>894.22</ele>
        <time>2018-08-11T13:06:15Z</time>
      </trkpt>
      <trkpt lat="42.59418" lon="0.23588">
        <ele>893.83</ele>
        <time>2018-08-11T13:06:16Z</time>
      </trkpt>
      <trkpt lat="42.594" lon="0.23569">
        <ele>893.01</ele>
        <time>2018-08-11T13:06:17Z</time>
      </trkpt>
      <trkpt lat="42.59381" lon="0.23551">
        <ele>892.76</ele>
        <time>2018-08-11T13:06:18Z</time>
      </trkpt>
      <trkpt lat="42.59363" lon="0.23532">
        <ele>892.69</ele>
        <time>2018-08-11T13:06:19Z</time>
      </trkpt>
      <trkpt lat="42.59344" lon="0.23515">
        <ele>892.67</ele>
        <time>2018-08-11T13:06:20Z</time>
      </trkpt>
      <trkpt lat="42.59325" lon="0.23497">
        <ele>892.66</ele>
        <time>2018-08-11T13:06:21Z</time>
      </trkpt>
      <trkpt lat="42.59306" lon="0.2348">
        <ele>893.36</ele>
        <time>2018-08-11T13:06:22Z</time>
      </trkpt>
      <trkpt lat="42.59288" lon="0.23462">
        <ele>892.87</ele>
        <time>2018-08-11T13:06:23Z</time>
      </trkpt>
      <trkpt lat="42.59269" lon="0.23446">
        <ele>892.72</ele>
        <time>2018-08-11T13:06:24Z</time>
      </trkpt>
      <trkpt lat="42.5925" lon="0.23429">
        <ele>892.68</ele>
        <time>2018-08-11T13:06:25Z</time>
      </trkpt>
      <trkpt lat="42.59232" lon="0.23412">
        <ele>893.36</ele>
        <time>2018-08-11T13:06:26Z</time>
      </trkpt>
      <trkpt lat="42.59214" lon="0.23396">
        <ele>892.17</ele>
        <time>2018-08-11T13:06:27Z</time>
      </trkpt>
      <trkpt lat="42.59196" lon="0.23381">
        <ele>891.11</ele>
        <time>2018-08-11T13:06:28Z</time>
      </trkpt>
      <trkpt lat="42.59177" lon="0.23366">
        <ele>889.39</ele>
        <time>2018-08-11T13:06:29Z</time>
      </trkpt>
      <trkpt lat="42.59158" lon="0.2335">
        <ele>888.88</ele>
        <time>2018-08-11T13:06:30Z</time>
      </trkpt>
      <trkpt lat="42.59139" lon="0.23338">
        <ele>889.42</ele>
        <time>2018-08-11T13:06:31Z</time>
      </trkpt>
      <trkpt lat="42.59119" lon="0.23323">
        <ele>890.29</ele>
        <time>2018-08-11T13:06:32Z</time>
      </trkpt>
      <trkpt lat="42.59101" lon="0.23308">
        <ele>890.55</ele>
        <time>2018-08-11T13:06:33Z</time>
      </trkpt>
      <trkpt lat="42.59083" lon="0.23295">
        <ele>889.92</ele>
        <time>2018-08-11T13:06:34Z</time>
      </trkpt>
      <trkpt lat="42.59065" lon="0.23283">
        <ele>889.74</ele>
        <time>2018-08-11T13:06:35Z</time>
      </trkpt>
      <trkpt lat="42.59049" lon="0.23271">
        <ele>888.98</ele>
        <time>2018-08-11T13:06:36Z</time>
      </trkpt>
      <trkpt lat="42.5902" lon="0.23246">
        <ele>888.69</ele>
        <time>2018-08-11T13:06:38Z</time>
      </trkpt>
      <trkpt lat="42.58994" lon="0.23225">
        <ele>888.66</ele>
        <time>2018-08-11T13:06:40Z</time>
      </trkpt>
      <trkpt lat="42.58969" lon="0.23196">
        <ele>890.27</ele>
        <time>2018-08-11T13:06:42Z</time>
      </trkpt>
      <trkpt lat="42.58948" lon="0.23162">
        <ele>890.41</ele>
        <time>2018-08-11T13:06:44Z</time>
      </trkpt>
      <trkpt lat="42.58928" lon="0.23126">
        <ele>890.64</ele>
        <time>2018-08-11T13:06:46Z</time>
      </trkpt>
      <trkpt lat="42.58917" lon="0.23106">
        <ele>889.95</ele>
        <time>2018-08-11T13:06:47Z</time>
      </trkpt>
      <trkpt lat="42.58901" lon="0.23066">
        <ele>889.68</ele>
        <time>2018-08-11T13:06:49Z</time>
      </trkpt>
      <trkpt lat="42.58886" lon="0.23025">
        <ele>888.96</ele>
        <time>2018-08-11T13:06:51Z</time>
      </trkpt>
      <trkpt lat="42.58878" lon="0.23001">
        <ele>888.05</ele>
        <time>2018-08-11T13:06:52Z</time>
      </trkpt>
      <trkpt lat="42.5887" lon="0.22977">
        <ele>887.78</ele>
        <time>2018-08-11T13:06:53Z</time>
      </trkpt>
      <trkpt lat="42.5886" lon="0.22947">
        <ele>887.69</ele>
        <time>2018-08-11T13:06:54Z</time>
      </trkpt>
      <trkpt lat="42.58851" lon="0.22918">
        <ele>886.97</ele>
        <time>2018-08-11T13:06:55Z</time>
      </trkpt>
      <trkpt lat="42.58843" lon="0.22888">
        <ele>885.35</ele>
        <time>2018-08-11T13:06:56Z</time>
      </trkpt>
      <trkpt lat="42.58833" lon="0.22861">
        <ele>884.17</ele>
        <time>2018-08-11T13:06:57Z</time>
      </trkpt>
      <trkpt lat="42.58824" lon="0.22832">
        <ele>882.41</ele>
        <time>2018-08-11T13:06:58Z</time>
      </trkpt>
      <trkpt lat="42.58818" lon="0.22804">
        <ele>881.88</ele>
        <time>2018-08-11T13:06:59Z</time>
      </trkpt>
      <trkpt lat="42.58812" lon="0.22775">
        <ele>879.63</ele>
        <time>2018-08-11T13:07:00Z</time>
      </trkpt>
      <trkpt lat="42.58812" lon="0.22746">
        <ele>876.85</ele>
        <time>2018-08-11T13:07:01Z</time>
      </trkpt>
      <trkpt lat="42.58812" lon="0.22717">
        <ele>874.62</ele>
        <time>2018-08-11T13:07:02Z</time>
      </trkpt>
      <trkpt lat="42.58812" lon="0.22688">
        <ele>872.55</ele>
        <time>2018-08-11T13:07:03Z</time>
      </trkpt>
      <trkpt lat="42.58813" lon="0.22659">
        <ele>872.62</ele>
        <time>2018-08-11T13:07:04Z</time>
      </trkpt>
      <trkpt lat="42.58815" lon="0.22627">
        <ele>872.65</ele>
        <time>2018-08-11T13:07:05Z</time>
      </trkpt>
      <trkpt lat="42.58816" lon="0.22596">
        <ele>871.25</ele>
        <time>2018-08-11T13:07:06Z</time>
      </trkpt>
      <trkpt lat="42.58813" lon="0.22566">
        <ele>868.04</ele>
        <time>2018-08-11T13:07:07Z</time>
      </trkpt>
      <trkpt lat="42.5881" lon="0.22538">
        <ele>866.37</ele>
        <time>2018-08-11T13:07:08Z</time>
      </trkpt>
      <trkpt lat="42.58804" lon="0.22509">
        <ele>864.47</ele>
        <time>2018-08-11T13:07:09Z</time>
      </trkpt>
      <trkpt lat="42.58799" lon="0.22481">
        <ele>864.6</ele>
        <time>2018-08-11T13:07:10Z</time>
      </trkpt>
      <trkpt lat="42.58788" lon="0.22453">
        <ele>863.94</ele>
        <time>2018-08-11T13:07:11Z</time>
      </trkpt>
      <trkpt lat="42.58769" lon="0.22428">
        <ele>863.04</ele>
        <time>2018-08-11T13:07:12Z</time>
      </trkpt>
      <trkpt lat="42.58752" lon="0.22408">
        <ele>862.07</ele>
        <time>2018-08-11T13:07:13Z</time>
      </trkpt>
      <trkpt lat="42.58729" lon="0.22393">
        <ele>861.08</ele>
        <time>2018-08-11T13:07:14Z</time>
      </trkpt>
      <trkpt lat="42.58705" lon="0.22384">
        <ele>858.69</ele>
        <time>2018-08-11T13:07:15Z</time>
      </trkpt>
      <trkpt lat="42.58684" lon="0.2237">
        <ele>855.17</ele>
        <time>2018-08-11T13:07:16Z</time>
      </trkpt>
      <trkpt lat="42.58664" lon="0.22356">
        <ele>852.01</ele>
        <time>2018-08-11T13:07:17Z</time>
      </trkpt>
      <trkpt lat="42.58641" lon="0.22347">
        <ele>849.66</ele>
        <time>2018-08-11T13:07:18Z</time>
      </trkpt>
      <trkpt lat="42.58619" lon="0.22337">
        <ele>847.56</ele>
        <time>2018-08-11T13:07:19Z</time>
      </trkpt>
      <trkpt lat="42.58597" lon="0.2233">
        <ele>844.83</ele>
        <time>2018-08-11T13:07:20Z</time>
      </trkpt>
      <trkpt lat="42.58576" lon="0.22323">
        <ele>842.61</ele>
        <time>2018-08-11T13:07:21Z</time>
      </trkpt>
      <trkpt lat="42.58555" lon="0.22316">
        <ele>841.24</ele>
        <time>2018-08-11T13:07:22Z</time>
      </trkpt>
      <trkpt lat="42.58535" lon="0.22306">
        <ele>838.73</ele>
        <time>2018-08-11T13:07:23Z</time>
      </trkpt>
      <trkpt lat="42.58515" lon="0.22295">
        <ele>837.28</ele>
        <time>2018-08-11T13:07:24Z</time>
      </trkpt>
      <trkpt lat="42.58497" lon="0.22283">
        <ele>836.14</ele>
        <time>2018-08-11T13:07:25Z</time>
      </trkpt>
      <trkpt lat="42.58479" lon="0.22266">
        <ele>833.7</ele>
        <time>2018-08-11T13:07:26Z</time>
      </trkpt>
      <trkpt lat="42.58465" lon="0.22248">
        <ele>832.27</ele>
        <time>2018-08-11T13:07:27Z</time>
      </trkpt>
      <trkpt lat="42.58453" lon="0.22221">
        <ele>831.14</ele>
        <time>2018-08-11T13:07:28Z</time>
      </trkpt>
      <trkpt lat="42.58442" lon="0.22185">
        <ele>828.7</ele>
        <time>2018-08-11T13:07:29Z</time>
      </trkpt>
      <trkpt lat="42.58438" lon="0.22152">
        <ele>826.57</ele>
        <time>2018-08-11T13:07:30Z</time>
      </trkpt>
      <trkpt lat="42.58456" lon="0.22112">
        <ele>823.13</ele>
        <time>2018-08-11T13:07:31Z</time>
      </trkpt>
      <trkpt lat="42.58458" lon="0.22078">
        <ele>819.3</ele>
        <time>2018-08-11T13:07:32Z</time>
      </trkpt>
      <trkpt lat="42.5846" lon="0.22046">
        <ele>815.35</ele>
        <time>2018-08-11T13:07:33Z</time>
      </trkpt>
      <trkpt lat="42.58462" lon="0.22016">
        <ele>812.07</ele>
        <time>2018-08-11T13:07:34Z</time>
      </trkpt>
      <trkpt lat="42.58466" lon="0.21985">
        <ele>809.68</ele>
        <time>2018-08-11T13:07:35Z</time>
      </trkpt>
      <trkpt lat="42.58472" lon="0.21957">
        <ele>806.86</ele>
        <time>2018-08-11T13:07:36Z</time>
      </trkpt>
      <trkpt lat="42.58477" lon="0.21929">
        <ele>803.92</ele>
        <time>2018-08-11T13:07:37Z</time>
      </trkpt>
      <trkpt lat="42.58483" lon="0.21901">
        <ele>801.64</ele>
        <time>2018-08-11T13:07:38Z</time>
      </trkpt>
      <trkpt lat="42.58487" lon="0.21873">
        <ele>798.85</ele>
        <time>2018-08-11T13:07:39Z</time>
      </trkpt>
      <trkpt lat="42.58491" lon="0.21845">
        <ele>796.62</ele>
        <time>2018-08-11T13:07:40Z</time>
      </trkpt>
      <trkpt lat="42.58495" lon="0.21817">
        <ele>793.85</ele>
        <time>2018-08-11T13:07:41Z</time>
      </trkpt>
      <trkpt lat="42.58499" lon="0.21788">
        <ele>791.61</ele>
        <time>2018-08-11T13:07:42Z</time>
      </trkpt>
      <trkpt lat="42.58503" lon="0.21759">
        <ele>790.24</ele>
        <time>2018-08-11T13:07:43Z</time>
      </trkpt>
      <trkpt lat="42.58502" lon="0.21731">
        <ele>789.83</ele>
        <time>2018-08-11T13:07:44Z</time>
      </trkpt>
      <trkpt lat="42.58501" lon="0.21703">
        <ele>788.31</ele>
        <time>2018-08-11T13:07:45Z</time>
      </trkpt>
      <trkpt lat="42.58498" lon="0.21675">
        <ele>787.85</ele>
        <time>2018-08-11T13:07:46Z</time>
      </trkpt>
      <trkpt lat="42.58494" lon="0.21647">
        <ele>787.72</ele>
        <time>2018-08-11T13:07:47Z</time>
      </trkpt>
      <trkpt lat="42.5849" lon="0.21619">
        <ele>786.98</ele>
        <time>2018-08-11T13:07:48Z</time>
      </trkpt>
      <trkpt lat="42.58485" lon="0.21592">
        <ele>787.45</ele>
        <time>2018-08-11T13:07:49Z</time>
      </trkpt>
      <trkpt lat="42.58475" lon="0.21568">
        <ele>787.6</ele>
        <time>2018-08-11T13:07:50Z</time>
      </trkpt>
      <trkpt lat="42.58467" lon="0.21543">
        <ele>786.94</ele>
        <time>2018-08-11T13:07:51Z</time>
      </trkpt>
      <trkpt lat="42.5846" lon="0.21519">
        <ele>786.74</ele>
        <time>2018-08-11T13:07:52Z</time>
      </trkpt>
      <trkpt lat="42.58442" lon="0.21501">
        <ele>783.18</ele>
        <time>2018-08-11T13:07:53Z</time>
      </trkpt>
      <trkpt lat="42.5843" lon="0.21481">
        <ele>780.72</ele>
        <time>2018-08-11T13:07:54Z</time>
      </trkpt>
      <trkpt lat="42.58422" lon="0.21458">
        <ele>779.98</ele>
        <time>2018-08-11T13:07:55Z</time>
      </trkpt>
      <trkpt lat="42.58413" lon="0.21436">
        <ele>778.35</ele>
        <time>2018-08-11T13:07:56Z</time>
      </trkpt>
      <trkpt lat="42.58407" lon="0.21412">
        <ele>777.87</ele>
        <time>2018-08-11T13:07:57Z</time>
      </trkpt>
      <trkpt lat="42.58402" lon="0.21385">
        <ele>777.72</ele>
        <time>2018-08-11T13:07:58Z</time>
      </trkpt>
      <trkpt lat="42.584" lon="0.21357">
        <ele>777.68</ele>
        <time>2018-08-11T13:07:59Z</time>
      </trkpt>
      <trkpt lat="42.58403" lon="0.2133">
        <ele>777.66</ele>
        <time>2018-08-11T13:08:00Z</time>
      </trkpt>
      <trkpt lat="42.58417" lon="0.21303">
        <ele>778.36</ele>
        <time>2018-08-11T13:08:01Z</time>
      </trkpt>
      <trkpt lat="42.58421" lon="0.21275">
        <ele>777.17</ele>
        <time>2018-08-11T13:08:02Z</time>
      </trkpt>
      <trkpt lat="42.58421" lon="0.21248">
        <ele>776.81</ele>
        <time>2018-08-11T13:08:03Z</time>
      </trkpt>
      <trkpt lat="42.58425" lon="0.21219">
        <ele>776</ele>
        <time>2018-08-11T13:08:04Z</time>
      </trkpt>
      <trkpt lat="42.58427" lon="0.2119">
        <ele>774.36</ele>
        <time>2018-08-11T13:08:05Z</time>
      </trkpt>
      <trkpt lat="42.5843" lon="0.2116">
        <ele>773.87</ele>
        <time>2018-08-11T13:08:06Z</time>
      </trkpt>
      <trkpt lat="42.58433" lon="0.2113">
        <ele>772.32</ele>
        <time>2018-08-11T13:08:07Z</time>
      </trkpt>
      <trkpt lat="42.58435" lon="0.211">
        <ele>769.76</ele>
        <time>2018-08-11T13:08:08Z</time>
      </trkpt>
      <trkpt lat="42.58438" lon="0.21069">
        <ele>768.29</ele>
        <time>2018-08-11T13:08:09Z</time>
      </trkpt>
      <trkpt lat="42.5844" lon="0.21038">
        <ele>767.15</ele>
        <time>2018-08-11T13:08:10Z</time>
      </trkpt>
      <trkpt lat="42.58443" lon="0.21007">
        <ele>766.8</ele>
        <time>2018-08-11T13:08:11Z</time>
      </trkpt>
      <trkpt lat="42.58445" lon="0.20977">
        <ele>766</ele>
        <time>2018-08-11T13:08:12Z</time>
      </trkpt>
      <trkpt lat="42.58447" lon="0.20947">
        <ele>766.46</ele>
        <time>2018-08-11T13:08:13Z</time>
      </trkpt>
      <trkpt lat="42.5844" lon="0.20919">
        <ele>765.9</ele>
        <time>2018-08-11T13:08:14Z</time>
      </trkpt>
      <trkpt lat="42.58435" lon="0.2089">
        <ele>765.73</ele>
        <time>2018-08-11T13:08:15Z</time>
      </trkpt>
      <trkpt lat="42.58421" lon="0.20865">
        <ele>765.68</ele>
        <time>2018-08-11T13:08:16Z</time>
      </trkpt>
      <trkpt lat="42.58412" lon="0.20838">
        <ele>765.66</ele>
        <time>2018-08-11T13:08:17Z</time>
      </trkpt>
      <trkpt lat="42.58401" lon="0.20812">
        <ele>766.36</ele>
        <time>2018-08-11T13:08:18Z</time>
      </trkpt>
      <trkpt lat="42.58387" lon="0.20789">
        <ele>766.57</ele>
        <time>2018-08-11T13:08:19Z</time>
      </trkpt>
      <trkpt lat="42.58368" lon="0.20773">
        <ele>766.63</ele>
        <time>2018-08-11T13:08:20Z</time>
      </trkpt>
      <trkpt lat="42.58348" lon="0.20758">
        <ele>767.35</ele>
        <time>2018-08-11T13:08:21Z</time>
      </trkpt>
      <trkpt lat="42.58328" lon="0.20751">
        <ele>766.87</ele>
        <time>2018-08-11T13:08:22Z</time>
      </trkpt>
      <trkpt lat="42.58305" lon="0.20743">
        <ele>766.72</ele>
        <time>2018-08-11T13:08:23Z</time>
      </trkpt>
      <trkpt lat="42.5829" lon="0.20727">
        <ele>767.38</ele>
        <time>2018-08-11T13:08:24Z</time>
      </trkpt>
      <trkpt lat="42.5827" lon="0.20715">
        <ele>768.27</ele>
        <time>2018-08-11T13:08:25Z</time>
      </trkpt>
      <trkpt lat="42.58253" lon="0.20671">
        <ele>769.53</ele>
        <time>2018-08-11T13:08:27Z</time>
      </trkpt>
      <trkpt lat="42.58251" lon="0.20645">
        <ele>768.22</ele>
        <time>2018-08-11T13:08:28Z</time>
      </trkpt>
      <trkpt lat="42.58256" lon="0.20594">
        <ele>766.1</ele>
        <time>2018-08-11T13:08:30Z</time>
      </trkpt>
      <trkpt lat="42.58271" lon="0.20548">
        <ele>762.48</ele>
        <time>2018-08-11T13:08:32Z</time>
      </trkpt>
      <trkpt lat="42.58279" lon="0.20519">
        <ele>762.6</ele>
        <time>2018-08-11T13:08:33Z</time>
      </trkpt>
      <trkpt lat="42.58286" lon="0.20491">
        <ele>763.34</ele>
        <time>2018-08-11T13:08:34Z</time>
      </trkpt>
      <trkpt lat="42.58285" lon="0.2046">
        <ele>764.26</ele>
        <time>2018-08-11T13:08:35Z</time>
      </trkpt>
      <trkpt lat="42.58283" lon="0.20431">
        <ele>764.54</ele>
        <time>2018-08-11T13:08:36Z</time>
      </trkpt>
      <trkpt lat="42.5828" lon="0.20407">
        <ele>761.82</ele>
        <time>2018-08-11T13:08:37Z</time>
      </trkpt>
      <trkpt lat="42.58274" lon="0.20381">
        <ele>761.01</ele>
        <time>2018-08-11T13:08:38Z</time>
      </trkpt>
      <trkpt lat="42.58245" lon="0.20345">
        <ele>757.26</ele>
        <time>2018-08-11T13:08:40Z</time>
      </trkpt>
      <trkpt lat="42.58228" lon="0.20328">
        <ele>756.14</ele>
        <time>2018-08-11T13:08:41Z</time>
      </trkpt>
      <trkpt lat="42.58209" lon="0.20314">
        <ele>755.1</ele>
        <time>2018-08-11T13:08:42Z</time>
      </trkpt>
      <trkpt lat="42.58186" lon="0.20303">
        <ele>755.49</ele>
        <time>2018-08-11T13:08:43Z</time>
      </trkpt>
      <trkpt lat="42.58163" lon="0.20296">
        <ele>754.91</ele>
        <time>2018-08-11T13:08:44Z</time>
      </trkpt>
      <trkpt lat="42.5814" lon="0.20292">
        <ele>754.03</ele>
        <time>2018-08-11T13:08:45Z</time>
      </trkpt>
      <trkpt lat="42.58116" lon="0.20283">
        <ele>753.07</ele>
        <time>2018-08-11T13:08:46Z</time>
      </trkpt>
      <trkpt lat="42.58094" lon="0.20271">
        <ele>752.78</ele>
        <time>2018-08-11T13:08:47Z</time>
      </trkpt>
      <trkpt lat="42.58072" lon="0.20258">
        <ele>752</ele>
        <time>2018-08-11T13:08:48Z</time>
      </trkpt>
      <trkpt lat="42.58051" lon="0.20246">
        <ele>751.06</ele>
        <time>2018-08-11T13:08:49Z</time>
      </trkpt>
      <trkpt lat="42.58031" lon="0.20234">
        <ele>750.78</ele>
        <time>2018-08-11T13:08:50Z</time>
      </trkpt>
      <trkpt lat="42.58012" lon="0.20222">
        <ele>750.69</ele>
        <time>2018-08-11T13:08:51Z</time>
      </trkpt>
      <trkpt lat="42.57992" lon="0.20211">
        <ele>750.67</ele>
        <time>2018-08-11T13:08:52Z</time>
      </trkpt>
      <trkpt lat="42.57972" lon="0.20202">
        <ele>749.96</ele>
        <time>2018-08-11T13:08:53Z</time>
      </trkpt>
      <trkpt lat="42.57953" lon="0.20195">
        <ele>750.45</ele>
        <time>2018-08-11T13:08:54Z</time>
      </trkpt>
      <trkpt lat="42.57933" lon="0.20193">
        <ele>750.6</ele>
        <time>2018-08-11T13:08:55Z</time>
      </trkpt>
      <trkpt lat="42.57912" lon="0.20195">
        <ele>749.94</ele>
        <time>2018-08-11T13:08:56Z</time>
      </trkpt>
      <trkpt lat="42.5789" lon="0.20204">
        <ele>750.44</ele>
        <time>2018-08-11T13:08:57Z</time>
      </trkpt>
      <trkpt lat="42.57869" lon="0.20209">
        <ele>750.59</ele>
        <time>2018-08-11T13:08:58Z</time>
      </trkpt>
      <trkpt lat="42.57848" lon="0.20215">
        <ele>750.64</ele>
        <time>2018-08-11T13:08:59Z</time>
      </trkpt>
      <trkpt lat="42.57828" lon="0.20222">
        <ele>751.35</ele>
        <time>2018-08-11T13:09:00Z</time>
      </trkpt>
      <trkpt lat="42.57808" lon="0.2023">
        <ele>751.57</ele>
        <time>2018-08-11T13:09:01Z</time>
      </trkpt>
      <trkpt lat="42.57786" lon="0.20239">
        <ele>751.63</ele>
        <time>2018-08-11T13:09:02Z</time>
      </trkpt>
      <trkpt lat="42.57765" lon="0.20242">
        <ele>751.65</ele>
        <time>2018-08-11T13:09:03Z</time>
      </trkpt>
      <trkpt lat="42.57744" lon="0.20243">
        <ele>750.96</ele>
        <time>2018-08-11T13:09:04Z</time>
      </trkpt>
      <trkpt lat="42.57722" lon="0.20242">
        <ele>751.45</ele>
        <time>2018-08-11T13:09:05Z</time>
      </trkpt>
      <trkpt lat="42.577" lon="0.20239">
        <ele>751.59</ele>
        <time>2018-08-11T13:09:06Z</time>
      </trkpt>
      <trkpt lat="42.57678" lon="0.20239">
        <ele>752.34</ele>
        <time>2018-08-11T13:09:07Z</time>
      </trkpt>
      <trkpt lat="42.57657" lon="0.20242">
        <ele>752.56</ele>
        <time>2018-08-11T13:09:08Z</time>
      </trkpt>
      <trkpt lat="42.57635" lon="0.20249">
        <ele>753.33</ele>
        <time>2018-08-11T13:09:09Z</time>
      </trkpt>
      <trkpt lat="42.57615" lon="0.20259">
        <ele>752.86</ele>
        <time>2018-08-11T13:09:10Z</time>
      </trkpt>
      <trkpt lat="42.57596" lon="0.2027">
        <ele>752.72</ele>
        <time>2018-08-11T13:09:11Z</time>
      </trkpt>
      <trkpt lat="42.57576" lon="0.20286">
        <ele>753.38</ele>
        <time>2018-08-11T13:09:12Z</time>
      </trkpt>
      <trkpt lat="42.57557" lon="0.20301">
        <ele>753.57</ele>
        <time>2018-08-11T13:09:13Z</time>
      </trkpt>
      <trkpt lat="42.57539" lon="0.20316">
        <ele>752.93</ele>
        <time>2018-08-11T13:09:14Z</time>
      </trkpt>
      <trkpt lat="42.57519" lon="0.2033">
        <ele>752.74</ele>
        <time>2018-08-11T13:09:15Z</time>
      </trkpt>
      <trkpt lat="42.57499" lon="0.20345">
        <ele>752.68</ele>
        <time>2018-08-11T13:09:16Z</time>
      </trkpt>
      <trkpt lat="42.57479" lon="0.20359">
        <ele>752.67</ele>
        <time>2018-08-11T13:09:17Z</time>
      </trkpt>
      <trkpt lat="42.57457" lon="0.2037">
        <ele>751.96</ele>
        <time>2018-08-11T13:09:18Z</time>
      </trkpt>
      <trkpt lat="42.57436" lon="0.20382">
        <ele>751.75</ele>
        <time>2018-08-11T13:09:19Z</time>
      </trkpt>
      <trkpt lat="42.57415" lon="0.20392">
        <ele>750.99</ele>
        <time>2018-08-11T13:09:20Z</time>
      </trkpt>
      <trkpt lat="42.57393" lon="0.204">
        <ele>750.06</ele>
        <time>2018-08-11T13:09:21Z</time>
      </trkpt>
      <trkpt lat="42.57371" lon="0.20406">
        <ele>749.08</ele>
        <time>2018-08-11T13:09:22Z</time>
      </trkpt>
      <trkpt lat="42.57349" lon="0.2041">
        <ele>747.38</ele>
        <time>2018-08-11T13:09:23Z</time>
      </trkpt>
      <trkpt lat="42.57327" lon="0.20414">
        <ele>746.18</ele>
        <time>2018-08-11T13:09:24Z</time>
      </trkpt>
      <trkpt lat="42.57304" lon="0.20416">
        <ele>745.11</ele>
        <time>2018-08-11T13:09:25Z</time>
      </trkpt>
      <trkpt lat="42.57281" lon="0.20417">
        <ele>744.79</ele>
        <time>2018-08-11T13:09:26Z</time>
      </trkpt>
      <trkpt lat="42.57259" lon="0.20417">
        <ele>743.3</ele>
        <time>2018-08-11T13:09:27Z</time>
      </trkpt>
      <trkpt lat="42.57237" lon="0.20415">
        <ele>742.85</ele>
        <time>2018-08-11T13:09:28Z</time>
      </trkpt>
      <trkpt lat="42.57215" lon="0.20414">
        <ele>742.02</ele>
        <time>2018-08-11T13:09:29Z</time>
      </trkpt>
      <trkpt lat="42.57194" lon="0.20413">
        <ele>740.37</ele>
        <time>2018-08-11T13:09:30Z</time>
      </trkpt>
      <trkpt lat="42.57172" lon="0.20412">
        <ele>739.17</ele>
        <time>2018-08-11T13:09:31Z</time>
      </trkpt>
      <trkpt lat="42.5715" lon="0.20411">
        <ele>738.81</ele>
        <time>2018-08-11T13:09:32Z</time>
      </trkpt>
      <trkpt lat="42.57129" lon="0.20411">
        <ele>738</ele>
        <time>2018-08-11T13:09:33Z</time>
      </trkpt>
      <trkpt lat="42.57108" lon="0.20412">
        <ele>737.76</ele>
        <time>2018-08-11T13:09:34Z</time>
      </trkpt>
      <trkpt lat="42.57087" lon="0.20416">
        <ele>737.69</ele>
        <time>2018-08-11T13:09:35Z</time>
      </trkpt>
      <trkpt lat="42.57066" lon="0.20423">
        <ele>736.97</ele>
        <time>2018-08-11T13:09:36Z</time>
      </trkpt>
      <trkpt lat="42.57028" lon="0.20442">
        <ele>736.69</ele>
        <time>2018-08-11T13:09:38Z</time>
      </trkpt>
      <trkpt lat="42.57007" lon="0.20454">
        <ele>735.97</ele>
        <time>2018-08-11T13:09:39Z</time>
      </trkpt>
      <trkpt lat="42.56985" lon="0.20471">
        <ele>735.75</ele>
        <time>2018-08-11T13:09:40Z</time>
      </trkpt>
      <trkpt lat="42.56966" lon="0.20485">
        <ele>735.69</ele>
        <time>2018-08-11T13:09:41Z</time>
      </trkpt>
      <trkpt lat="42.56949" lon="0.20503">
        <ele>735.67</ele>
        <time>2018-08-11T13:09:42Z</time>
      </trkpt>
      <trkpt lat="42.56931" lon="0.20524">
        <ele>736.36</ele>
        <time>2018-08-11T13:09:43Z</time>
      </trkpt>
      <trkpt lat="42.56914" lon="0.20542">
        <ele>735.17</ele>
        <time>2018-08-11T13:09:44Z</time>
      </trkpt>
      <trkpt lat="42.56896" lon="0.20557">
        <ele>736.21</ele>
        <time>2018-08-11T13:09:45Z</time>
      </trkpt>
      <trkpt lat="42.56878" lon="0.20565">
        <ele>735.82</ele>
        <time>2018-08-11T13:09:46Z</time>
      </trkpt>
      <trkpt lat="42.56857" lon="0.2057">
        <ele>735.71</ele>
        <time>2018-08-11T13:09:47Z</time>
      </trkpt>
      <trkpt lat="42.56837" lon="0.20576">
        <ele>735.67</ele>
        <time>2018-08-11T13:09:48Z</time>
      </trkpt>
      <trkpt lat="42.56818" lon="0.2058">
        <ele>736.36</ele>
        <time>2018-08-11T13:09:49Z</time>
      </trkpt>
      <trkpt lat="42.56779" lon="0.20562">
        <ele>736.63</ele>
        <time>2018-08-11T13:09:51Z</time>
      </trkpt>
      <trkpt lat="42.56762" lon="0.20542">
        <ele>736.65</ele>
        <time>2018-08-11T13:09:52Z</time>
      </trkpt>
      <trkpt lat="42.56742" lon="0.20534">
        <ele>737.36</ele>
        <time>2018-08-11T13:09:53Z</time>
      </trkpt>
      <trkpt lat="42.56722" lon="0.20525">
        <ele>737.57</ele>
        <time>2018-08-11T13:09:54Z</time>
      </trkpt>
      <trkpt lat="42.56702" lon="0.20521">
        <ele>736.23</ele>
        <time>2018-08-11T13:09:55Z</time>
      </trkpt>
      <trkpt lat="42.56678" lon="0.20527">
        <ele>735.83</ele>
        <time>2018-08-11T13:09:56Z</time>
      </trkpt>
      <trkpt lat="42.56656" lon="0.20524">
        <ele>735.01</ele>
        <time>2018-08-11T13:09:57Z</time>
      </trkpt>
      <trkpt lat="42.56634" lon="0.20522">
        <ele>734.06</ele>
        <time>2018-08-11T13:09:58Z</time>
      </trkpt>
      <trkpt lat="42.56612" lon="0.20519">
        <ele>732.38</ele>
        <time>2018-08-11T13:09:59Z</time>
      </trkpt>
      <trkpt lat="42.5659" lon="0.20496">
        <ele>730.47</ele>
        <time>2018-08-11T13:10:00Z</time>
      </trkpt>
      <trkpt lat="42.56568" lon="0.20481">
        <ele>727.8</ele>
        <time>2018-08-11T13:10:01Z</time>
      </trkpt>
      <trkpt lat="42.56544" lon="0.20468">
        <ele>727.7</ele>
        <time>2018-08-11T13:10:02Z</time>
      </trkpt>
      <trkpt lat="42.56522" lon="0.20456">
        <ele>726.27</ele>
        <time>2018-08-11T13:10:03Z</time>
      </trkpt>
      <trkpt lat="42.56499" lon="0.20445">
        <ele>725.84</ele>
        <time>2018-08-11T13:10:04Z</time>
      </trkpt>
      <trkpt lat="42.56477" lon="0.20437">
        <ele>725.01</ele>
        <time>2018-08-11T13:10:05Z</time>
      </trkpt>
      <trkpt lat="42.56454" lon="0.20429">
        <ele>724.76</ele>
        <time>2018-08-11T13:10:06Z</time>
      </trkpt>
      <trkpt lat="42.56432" lon="0.20422">
        <ele>724.69</ele>
        <time>2018-08-11T13:10:07Z</time>
      </trkpt>
      <trkpt lat="42.56408" lon="0.20417">
        <ele>723.97</ele>
        <time>2018-08-11T13:10:08Z</time>
      </trkpt>
      <trkpt lat="42.56385" lon="0.20414">
        <ele>723.75</ele>
        <time>2018-08-11T13:10:09Z</time>
      </trkpt>
      <trkpt lat="42.56363" lon="0.20415">
        <ele>722.99</ele>
        <time>2018-08-11T13:10:10Z</time>
      </trkpt>
      <trkpt lat="42.5634" lon="0.2042">
        <ele>722.06</ele>
        <time>2018-08-11T13:10:11Z</time>
      </trkpt>
      <trkpt lat="42.56318" lon="0.20424">
        <ele>721.78</ele>
        <time>2018-08-11T13:10:12Z</time>
      </trkpt>
      <trkpt lat="42.56298" lon="0.20429">
        <ele>721.69</ele>
        <time>2018-08-11T13:10:13Z</time>
      </trkpt>
      <trkpt lat="42.56279" lon="0.20436">
        <ele>721.67</ele>
        <time>2018-08-11T13:10:14Z</time>
      </trkpt>
      <trkpt lat="42.56257" lon="0.20442">
        <ele>720.96</ele>
        <time>2018-08-11T13:10:15Z</time>
      </trkpt>
      <trkpt lat="42.56237" lon="0.20455">
        <ele>720.75</ele>
        <time>2018-08-11T13:10:16Z</time>
      </trkpt>
      <trkpt lat="42.56218" lon="0.20467">
        <ele>720.69</ele>
        <time>2018-08-11T13:10:17Z</time>
      </trkpt>
      <trkpt lat="42.56198" lon="0.20473">
        <ele>720.67</ele>
        <time>2018-08-11T13:10:18Z</time>
      </trkpt>
      <trkpt lat="42.56178" lon="0.20476">
        <ele>720.66</ele>
        <time>2018-08-11T13:10:19Z</time>
      </trkpt>
      <trkpt lat="42.5616" lon="0.2047">
        <ele>719.96</ele>
        <time>2018-08-11T13:10:20Z</time>
      </trkpt>
      <trkpt lat="42.56142" lon="0.20463">
        <ele>719.75</ele>
        <time>2018-08-11T13:10:21Z</time>
      </trkpt>
      <trkpt lat="42.56123" lon="0.20453">
        <ele>719.69</ele>
        <time>2018-08-11T13:10:22Z</time>
      </trkpt>
      <trkpt lat="42.56103" lon="0.20447">
        <ele>719.67</ele>
        <time>2018-08-11T13:10:23Z</time>
      </trkpt>
      <trkpt lat="42.56083" lon="0.20439">
        <ele>720.36</ele>
        <time>2018-08-11T13:10:24Z</time>
      </trkpt>
      <trkpt lat="42.56061" lon="0.20437">
        <ele>720.57</ele>
        <time>2018-08-11T13:10:25Z</time>
      </trkpt>
      <trkpt lat="42.56038" lon="0.20439">
        <ele>720.63</ele>
        <time>2018-08-11T13:10:26Z</time>
      </trkpt>
      <trkpt lat="42.56007" lon="0.20451">
        <ele>719.95</ele>
        <time>2018-08-11T13:10:27Z</time>
      </trkpt>
      <trkpt lat="42.55981" lon="0.20455">
        <ele>719.75</ele>
        <time>2018-08-11T13:10:28Z</time>
      </trkpt>
      <trkpt lat="42.55955" lon="0.20456">
        <ele>720.38</ele>
        <time>2018-08-11T13:10:29Z</time>
      </trkpt>
      <trkpt lat="42.55931" lon="0.20458">
        <ele>721.28</ele>
        <time>2018-08-11T13:10:30Z</time>
      </trkpt>
      <trkpt lat="42.55909" lon="0.20454">
        <ele>721.54</ele>
        <time>2018-08-11T13:10:31Z</time>
      </trkpt>
      <trkpt lat="42.55889" lon="0.20446">
        <ele>721.62</ele>
        <time>2018-08-11T13:10:32Z</time>
      </trkpt>
      <trkpt lat="42.5587" lon="0.20441">
        <ele>721.65</ele>
        <time>2018-08-11T13:10:33Z</time>
      </trkpt>
      <trkpt lat="42.55852" lon="0.20435">
        <ele>720.95</ele>
        <time>2018-08-11T13:10:34Z</time>
      </trkpt>
      <trkpt lat="42.55834" lon="0.20431">
        <ele>720.05</ele>
        <time>2018-08-11T13:10:35Z</time>
      </trkpt>
      <trkpt lat="42.55798" lon="0.20426">
        <ele>719.69</ele>
        <time>2018-08-11T13:10:37Z</time>
      </trkpt>
      <trkpt lat="42.55556" lon="0.20433">
        <ele>718.26</ele>
        <time>2018-08-11T13:10:51Z</time>
      </trkpt>
      <trkpt lat="42.55543" lon="0.20414">
        <ele>717.84</ele>
        <time>2018-08-11T13:10:52Z</time>
      </trkpt>
      <trkpt lat="42.55535" lon="0.20371">
        <ele>717.71</ele>
        <time>2018-08-11T13:10:53Z</time>
      </trkpt>
      <trkpt lat="42.5552" lon="0.20347">
        <ele>717.67</ele>
        <time>2018-08-11T13:10:54Z</time>
      </trkpt>
      <trkpt lat="42.55504" lon="0.20327">
        <ele>715.56</ele>
        <time>2018-08-11T13:10:55Z</time>
      </trkpt>
      <trkpt lat="42.55487" lon="0.20309">
        <ele>713.53</ele>
        <time>2018-08-11T13:10:56Z</time>
      </trkpt>
      <trkpt lat="42.55468" lon="0.20293">
        <ele>711.52</ele>
        <time>2018-08-11T13:10:57Z</time>
      </trkpt>
      <trkpt lat="42.55448" lon="0.20279">
        <ele>710.22</ele>
        <time>2018-08-11T13:10:58Z</time>
      </trkpt>
      <trkpt lat="42.55427" lon="0.20262">
        <ele>709.83</ele>
        <time>2018-08-11T13:10:59Z</time>
      </trkpt>
      <trkpt lat="42.55409" lon="0.2025">
        <ele>709.01</ele>
        <time>2018-08-11T13:11:00Z</time>
      </trkpt>
      <trkpt lat="42.55389" lon="0.2024">
        <ele>708.76</ele>
        <time>2018-08-11T13:11:01Z</time>
      </trkpt>
      <trkpt lat="42.55371" lon="0.20229">
        <ele>708.69</ele>
        <time>2018-08-11T13:11:02Z</time>
      </trkpt>
      <trkpt lat="42.55349" lon="0.20222">
        <ele>708.67</ele>
        <time>2018-08-11T13:11:03Z</time>
      </trkpt>
      <trkpt lat="42.55328" lon="0.2022">
        <ele>708.66</ele>
        <time>2018-08-11T13:11:04Z</time>
      </trkpt>
      <trkpt lat="42.55304" lon="0.20222">
        <ele>709.36</ele>
        <time>2018-08-11T13:11:05Z</time>
      </trkpt>
      <trkpt lat="42.55281" lon="0.20224">
        <ele>710.27</ele>
        <time>2018-08-11T13:11:06Z</time>
      </trkpt>
      <trkpt lat="42.55259" lon="0.20225">
        <ele>711.24</ele>
        <time>2018-08-11T13:11:07Z</time>
      </trkpt>
      <trkpt lat="42.55238" lon="0.2023">
        <ele>711.53</ele>
        <time>2018-08-11T13:11:08Z</time>
      </trkpt>
      <trkpt lat="42.55217" lon="0.2024">
        <ele>712.32</ele>
        <time>2018-08-11T13:11:09Z</time>
      </trkpt>
      <trkpt lat="42.55196" lon="0.20242">
        <ele>712.56</ele>
        <time>2018-08-11T13:11:10Z</time>
      </trkpt>
      <trkpt lat="42.55174" lon="0.20242">
        <ele>713.33</ele>
        <time>2018-08-11T13:11:11Z</time>
      </trkpt>
      <trkpt lat="42.55153" lon="0.20239">
        <ele>713.56</ele>
        <time>2018-08-11T13:11:12Z</time>
      </trkpt>
      <trkpt lat="42.55132" lon="0.20239">
        <ele>712.93</ele>
        <time>2018-08-11T13:11:13Z</time>
      </trkpt>
      <trkpt lat="42.55111" lon="0.20238">
        <ele>712.74</ele>
        <time>2018-08-11T13:11:14Z</time>
      </trkpt>
      <trkpt lat="42.5509" lon="0.20236">
        <ele>713.38</ele>
        <time>2018-08-11T13:11:15Z</time>
      </trkpt>
      <trkpt lat="42.5507" lon="0.20233">
        <ele>713.58</ele>
        <time>2018-08-11T13:11:16Z</time>
      </trkpt>
      <trkpt lat="42.5505" lon="0.2023">
        <ele>713.63</ele>
        <time>2018-08-11T13:11:17Z</time>
      </trkpt>
      <trkpt lat="42.55031" lon="0.20225">
        <ele>712.95</ele>
        <time>2018-08-11T13:11:18Z</time>
      </trkpt>
      <trkpt lat="42.55013" lon="0.2022">
        <ele>713.45</ele>
        <time>2018-08-11T13:11:19Z</time>
      </trkpt>
      <trkpt lat="42.54994" lon="0.20209">
        <ele>712.89</ele>
        <time>2018-08-11T13:11:20Z</time>
      </trkpt>
      <trkpt lat="42.5498" lon="0.20186">
        <ele>712.73</ele>
        <time>2018-08-11T13:11:21Z</time>
      </trkpt>
      <trkpt lat="42.54961" lon="0.20168">
        <ele>711.98</ele>
        <time>2018-08-11T13:11:22Z</time>
      </trkpt>
      <trkpt lat="42.54942" lon="0.20152">
        <ele>711.75</ele>
        <time>2018-08-11T13:11:23Z</time>
      </trkpt>
      <trkpt lat="42.54921" lon="0.20139">
        <ele>712.39</ele>
        <time>2018-08-11T13:11:24Z</time>
      </trkpt>
      <trkpt lat="42.54904" lon="0.20127">
        <ele>710.48</ele>
        <time>2018-08-11T13:11:25Z</time>
      </trkpt>
      <trkpt lat="42.54886" lon="0.20115">
        <ele>709.9</ele>
        <time>2018-08-11T13:11:26Z</time>
      </trkpt>
      <trkpt lat="42.54869" lon="0.20102">
        <ele>709.03</ele>
        <time>2018-08-11T13:11:27Z</time>
      </trkpt>
      <trkpt lat="42.54838" lon="0.20082">
        <ele>706.17</ele>
        <time>2018-08-11T13:11:29Z</time>
      </trkpt>
      <trkpt lat="42.54808" lon="0.20064">
        <ele>705.7</ele>
        <time>2018-08-11T13:11:31Z</time>
      </trkpt>
      <trkpt lat="42.54782" lon="0.20046">
        <ele>704.75</ele>
        <time>2018-08-11T13:11:33Z</time>
      </trkpt>
      <trkpt lat="42.54757" lon="0.2003">
        <ele>703.06</ele>
        <time>2018-08-11T13:11:35Z</time>
      </trkpt>
      <trkpt lat="42.54734" lon="0.20015">
        <ele>702.69</ele>
        <time>2018-08-11T13:11:37Z</time>
      </trkpt>
      <trkpt lat="42.54711" lon="0.20002">
        <ele>702.66</ele>
        <time>2018-08-11T13:11:39Z</time>
      </trkpt>
      <trkpt lat="42.54688" lon="0.19988">
        <ele>703.57</ele>
        <time>2018-08-11T13:11:41Z</time>
      </trkpt>
      <trkpt lat="42.54666" lon="0.19973">
        <ele>703.65</ele>
        <time>2018-08-11T13:11:43Z</time>
      </trkpt>
      <trkpt lat="42.54644" lon="0.19959">
        <ele>703.66</ele>
        <time>2018-08-11T13:11:45Z</time>
      </trkpt>
      <trkpt lat="42.54621" lon="0.19945">
        <ele>702.96</ele>
        <time>2018-08-11T13:11:47Z</time>
      </trkpt>
      <trkpt lat="42.54597" lon="0.19931">
        <ele>702.68</ele>
        <time>2018-08-11T13:11:49Z</time>
      </trkpt>
      <trkpt lat="42.54573" lon="0.19915">
        <ele>703.36</ele>
        <time>2018-08-11T13:11:51Z</time>
      </trkpt>
      <trkpt lat="42.54551" lon="0.19895">
        <ele>703.63</ele>
        <time>2018-08-11T13:11:53Z</time>
      </trkpt>
      <trkpt lat="42.54528" lon="0.19871">
        <ele>702.05</ele>
        <time>2018-08-11T13:11:55Z</time>
      </trkpt>
      <trkpt lat="42.54507" lon="0.19851">
        <ele>700.78</ele>
        <time>2018-08-11T13:11:57Z</time>
      </trkpt>
      <trkpt lat="42.54486" lon="0.19833">
        <ele>701.58</ele>
        <time>2018-08-11T13:11:59Z</time>
      </trkpt>
      <trkpt lat="42.54466" lon="0.19812">
        <ele>700.04</ele>
        <time>2018-08-11T13:12:01Z</time>
      </trkpt>
      <trkpt lat="42.54447" lon="0.19788">
        <ele>698.99</ele>
        <time>2018-08-11T13:12:03Z</time>
      </trkpt>
      <trkpt lat="42.5443" lon="0.19766">
        <ele>698.69</ele>
        <time>2018-08-11T13:12:05Z</time>
      </trkpt>
      <trkpt lat="42.54414" lon="0.19746">
        <ele>697.75</ele>
        <time>2018-08-11T13:12:07Z</time>
      </trkpt>
      <trkpt lat="42.54399" lon="0.19727">
        <ele>696.76</ele>
        <time>2018-08-11T13:12:09Z</time>
      </trkpt>
      <trkpt lat="42.54386" lon="0.19708">
        <ele>695.97</ele>
        <time>2018-08-11T13:12:11Z</time>
      </trkpt>
      <trkpt lat="42.54377" lon="0.19683">
        <ele>694.78</ele>
        <time>2018-08-11T13:12:13Z</time>
      </trkpt>
      <trkpt lat="42.54376" lon="0.19653">
        <ele>693.97</ele>
        <time>2018-08-11T13:12:15Z</time>
      </trkpt>
      <trkpt lat="42.54377" lon="0.19625">
        <ele>692.78</ele>
        <time>2018-08-11T13:12:17Z</time>
      </trkpt>
      <trkpt lat="42.54379" lon="0.19598">
        <ele>691.97</ele>
        <time>2018-08-11T13:12:19Z</time>
      </trkpt>
      <trkpt lat="42.54377" lon="0.1957">
        <ele>690.99</ele>
        <time>2018-08-11T13:12:21Z</time>
      </trkpt>
      <trkpt lat="42.54369" lon="0.19535">
        <ele>689.08</ele>
        <time>2018-08-11T13:12:23Z</time>
      </trkpt>
      <trkpt lat="42.54349" lon="0.19494">
        <ele>688</ele>
        <time>2018-08-11T13:12:25Z</time>
      </trkpt>
      <trkpt lat="42.54338" lon="0.19475">
        <ele>687.76</ele>
        <time>2018-08-11T13:12:26Z</time>
      </trkpt>
      <trkpt lat="42.54321" lon="0.19436">
        <ele>688.37</ele>
        <time>2018-08-11T13:12:28Z</time>
      </trkpt>
      <trkpt lat="42.54309" lon="0.19396">
        <ele>689.33</ele>
        <time>2018-08-11T13:12:30Z</time>
      </trkpt>
      <trkpt lat="42.54306" lon="0.19355">
        <ele>689.63</ele>
        <time>2018-08-11T13:12:32Z</time>
      </trkpt>
      <trkpt lat="42.54313" lon="0.19317">
        <ele>690.36</ele>
        <time>2018-08-11T13:12:34Z</time>
      </trkpt>
      <trkpt lat="42.54322" lon="0.19277">
        <ele>690.63</ele>
        <time>2018-08-11T13:12:36Z</time>
      </trkpt>
      <trkpt lat="42.54326" lon="0.19231">
        <ele>689.75</ele>
        <time>2018-08-11T13:12:38Z</time>
      </trkpt>
      <trkpt lat="42.54323" lon="0.19205">
        <ele>688.28</ele>
        <time>2018-08-11T13:12:39Z</time>
      </trkpt>
      <trkpt lat="42.5432" lon="0.19177">
        <ele>687.85</ele>
        <time>2018-08-11T13:12:40Z</time>
      </trkpt>
      <trkpt lat="42.54317" lon="0.19151">
        <ele>687.71</ele>
        <time>2018-08-11T13:12:41Z</time>
      </trkpt>
      <trkpt lat="42.54312" lon="0.19121">
        <ele>687.67</ele>
        <time>2018-08-11T13:12:42Z</time>
      </trkpt>
      <trkpt lat="42.54306" lon="0.19092">
        <ele>687.66</ele>
        <time>2018-08-11T13:12:43Z</time>
      </trkpt>
      <trkpt lat="42.54299" lon="0.19064">
        <ele>687.66</ele>
        <time>2018-08-11T13:12:44Z</time>
      </trkpt>
      <trkpt lat="42.54293" lon="0.19035">
        <ele>686.96</ele>
        <time>2018-08-11T13:12:45Z</time>
      </trkpt>
      <trkpt lat="42.54289" lon="0.19007">
        <ele>686.05</ele>
        <time>2018-08-11T13:12:46Z</time>
      </trkpt>
      <trkpt lat="42.54287" lon="0.18979">
        <ele>685.08</ele>
        <time>2018-08-11T13:12:47Z</time>
      </trkpt>
      <trkpt lat="42.54285" lon="0.1895">
        <ele>684.08</ele>
        <time>2018-08-11T13:12:48Z</time>
      </trkpt>
      <trkpt lat="42.54281" lon="0.18921">
        <ele>683.79</ele>
        <time>2018-08-11T13:12:49Z</time>
      </trkpt>
      <trkpt lat="42.54279" lon="0.18891">
        <ele>683.7</ele>
        <time>2018-08-11T13:12:50Z</time>
      </trkpt>
      <trkpt lat="42.54278" lon="0.18862">
        <ele>683.67</ele>
        <time>2018-08-11T13:12:51Z</time>
      </trkpt>
      <trkpt lat="42.54278" lon="0.18832">
        <ele>682.96</ele>
        <time>2018-08-11T13:12:52Z</time>
      </trkpt>
      <trkpt lat="42.54282" lon="0.18803">
        <ele>682.75</ele>
        <time>2018-08-11T13:12:53Z</time>
      </trkpt>
      <trkpt lat="42.54285" lon="0.18773">
        <ele>681.99</ele>
        <time>2018-08-11T13:12:54Z</time>
      </trkpt>
      <trkpt lat="42.54288" lon="0.18743">
        <ele>682.46</ele>
        <time>2018-08-11T13:12:55Z</time>
      </trkpt>
      <trkpt lat="42.54291" lon="0.18714">
        <ele>682.6</ele>
        <time>2018-08-11T13:12:56Z</time>
      </trkpt>
      <trkpt lat="42.54295" lon="0.18683">
        <ele>681.94</ele>
        <time>2018-08-11T13:12:57Z</time>
      </trkpt>
      <trkpt lat="42.54295" lon="0.18653">
        <ele>681.74</ele>
        <time>2018-08-11T13:12:58Z</time>
      </trkpt>
      <trkpt lat="42.54294" lon="0.18623">
        <ele>681.68</ele>
        <time>2018-08-11T13:12:59Z</time>
      </trkpt>
      <trkpt lat="42.54293" lon="0.18594">
        <ele>681.67</ele>
        <time>2018-08-11T13:13:00Z</time>
      </trkpt>
      <trkpt lat="42.54295" lon="0.18565">
        <ele>681.66</ele>
        <time>2018-08-11T13:13:01Z</time>
      </trkpt>
      <trkpt lat="42.54298" lon="0.18536">
        <ele>681.66</ele>
        <time>2018-08-11T13:13:02Z</time>
      </trkpt>
      <trkpt lat="42.54301" lon="0.18506">
        <ele>681.66</ele>
        <time>2018-08-11T13:13:03Z</time>
      </trkpt>
      <trkpt lat="42.54307" lon="0.18476">
        <ele>681.66</ele>
        <time>2018-08-11T13:13:04Z</time>
      </trkpt>
      <trkpt lat="42.54329" lon="0.18455">
        <ele>682.36</ele>
        <time>2018-08-11T13:13:05Z</time>
      </trkpt>
      <trkpt lat="42.54343" lon="0.18429">
        <ele>682.57</ele>
        <time>2018-08-11T13:13:06Z</time>
      </trkpt>
      <trkpt lat="42.54354" lon="0.18403">
        <ele>682.63</ele>
        <time>2018-08-11T13:13:07Z</time>
      </trkpt>
      <trkpt lat="42.54368" lon="0.18378">
        <ele>682.65</ele>
        <time>2018-08-11T13:13:08Z</time>
      </trkpt>
      <trkpt lat="42.54382" lon="0.18357">
        <ele>682.66</ele>
        <time>2018-08-11T13:13:09Z</time>
      </trkpt>
      <trkpt lat="42.54399" lon="0.18339">
        <ele>682.66</ele>
        <time>2018-08-11T13:13:10Z</time>
      </trkpt>
      <trkpt lat="42.54419" lon="0.18326">
        <ele>681.96</ele>
        <time>2018-08-11T13:13:11Z</time>
      </trkpt>
      <trkpt lat="42.54437" lon="0.18312">
        <ele>681.75</ele>
        <time>2018-08-11T13:13:12Z</time>
      </trkpt>
      <trkpt lat="42.54453" lon="0.18296">
        <ele>681.68</ele>
        <time>2018-08-11T13:13:13Z</time>
      </trkpt>
      <trkpt lat="42.54468" lon="0.18279">
        <ele>680.97</ele>
        <time>2018-08-11T13:13:14Z</time>
      </trkpt>
      <trkpt lat="42.54482" lon="0.18258">
        <ele>680.75</ele>
        <time>2018-08-11T13:13:15Z</time>
      </trkpt>
      <trkpt lat="42.54494" lon="0.18234">
        <ele>679.99</ele>
        <time>2018-08-11T13:13:16Z</time>
      </trkpt>
      <trkpt lat="42.545" lon="0.18205">
        <ele>679.76</ele>
        <time>2018-08-11T13:13:17Z</time>
      </trkpt>
      <trkpt lat="42.54506" lon="0.18177">
        <ele>678.99</ele>
        <time>2018-08-11T13:13:18Z</time>
      </trkpt>
      <trkpt lat="42.54509" lon="0.18146">
        <ele>678.06</ele>
        <time>2018-08-11T13:13:19Z</time>
      </trkpt>
      <trkpt lat="42.54511" lon="0.18116">
        <ele>677.08</ele>
        <time>2018-08-11T13:13:20Z</time>
      </trkpt>
      <trkpt lat="42.54516" lon="0.18086">
        <ele>676.78</ele>
        <time>2018-08-11T13:13:21Z</time>
      </trkpt>
      <trkpt lat="42.54523" lon="0.18057">
        <ele>676.7</ele>
        <time>2018-08-11T13:13:22Z</time>
      </trkpt>
      <trkpt lat="42.54531" lon="0.18029">
        <ele>676.67</ele>
        <time>2018-08-11T13:13:23Z</time>
      </trkpt>
      <trkpt lat="42.54542" lon="0.18002">
        <ele>677.36</ele>
        <time>2018-08-11T13:13:24Z</time>
      </trkpt>
      <trkpt lat="42.54553" lon="0.17973">
        <ele>676.87</ele>
        <time>2018-08-11T13:13:25Z</time>
      </trkpt>
      <trkpt lat="42.54564" lon="0.17946">
        <ele>676.72</ele>
        <time>2018-08-11T13:13:26Z</time>
      </trkpt>
      <trkpt lat="42.54575" lon="0.17918">
        <ele>675.98</ele>
        <time>2018-08-11T13:13:27Z</time>
      </trkpt>
      <trkpt lat="42.54584" lon="0.17889">
        <ele>675.05</ele>
        <time>2018-08-11T13:13:28Z</time>
      </trkpt>
      <trkpt lat="42.54593" lon="0.1786">
        <ele>674.78</ele>
        <time>2018-08-11T13:13:29Z</time>
      </trkpt>
      <trkpt lat="42.54599" lon="0.17829">
        <ele>673.99</ele>
        <time>2018-08-11T13:13:30Z</time>
      </trkpt>
      <trkpt lat="42.54603" lon="0.17798">
        <ele>673.76</ele>
        <time>2018-08-11T13:13:31Z</time>
      </trkpt>
      <trkpt lat="42.54606" lon="0.17766">
        <ele>673.69</ele>
        <time>2018-08-11T13:13:32Z</time>
      </trkpt>
      <trkpt lat="42.54608" lon="0.17733">
        <ele>673.67</ele>
        <time>2018-08-11T13:13:33Z</time>
      </trkpt>
      <trkpt lat="42.54611" lon="0.17701">
        <ele>673.66</ele>
        <time>2018-08-11T13:13:34Z</time>
      </trkpt>
      <trkpt lat="42.54613" lon="0.17669">
        <ele>673.66</ele>
        <time>2018-08-11T13:13:35Z</time>
      </trkpt>
      <trkpt lat="42.54615" lon="0.17636">
        <ele>672.96</ele>
        <time>2018-08-11T13:13:36Z</time>
      </trkpt>
      <trkpt lat="42.54617" lon="0.17604">
        <ele>672.05</ele>
        <time>2018-08-11T13:13:37Z</time>
      </trkpt>
      <trkpt lat="42.54618" lon="0.1757">
        <ele>671.08</ele>
        <time>2018-08-11T13:13:38Z</time>
      </trkpt>
      <trkpt lat="42.54618" lon="0.17538">
        <ele>670.78</ele>
        <time>2018-08-11T13:13:39Z</time>
      </trkpt>
      <trkpt lat="42.54617" lon="0.17505">
        <ele>670.7</ele>
        <time>2018-08-11T13:13:40Z</time>
      </trkpt>
      <trkpt lat="42.54615" lon="0.17473">
        <ele>669.97</ele>
        <time>2018-08-11T13:13:41Z</time>
      </trkpt>
      <trkpt lat="42.54615" lon="0.17444">
        <ele>669.05</ele>
        <time>2018-08-11T13:13:42Z</time>
      </trkpt>
      <trkpt lat="42.54618" lon="0.17419">
        <ele>668.08</ele>
        <time>2018-08-11T13:13:43Z</time>
      </trkpt>
      <trkpt lat="42.54626" lon="0.17396">
        <ele>667.78</ele>
        <time>2018-08-11T13:13:44Z</time>
      </trkpt>
      <trkpt lat="42.54637" lon="0.17378">
        <ele>667.7</ele>
        <time>2018-08-11T13:13:45Z</time>
      </trkpt>
      <trkpt lat="42.54669" lon="0.17353">
        <ele>667.66</ele>
        <time>2018-08-11T13:13:47Z</time>
      </trkpt>
      <trkpt lat="42.5469" lon="0.17344">
        <ele>667.66</ele>
        <time>2018-08-11T13:13:48Z</time>
      </trkpt>
      <trkpt lat="42.54711" lon="0.17337">
        <ele>667.66</ele>
        <time>2018-08-11T13:13:49Z</time>
      </trkpt>
      <trkpt lat="42.54735" lon="0.17329">
        <ele>667.66</ele>
        <time>2018-08-11T13:13:50Z</time>
      </trkpt>
      <trkpt lat="42.54757" lon="0.17321">
        <ele>668.36</ele>
        <time>2018-08-11T13:13:51Z</time>
      </trkpt>
      <trkpt lat="42.54778" lon="0.17308">
        <ele>667.87</ele>
        <time>2018-08-11T13:13:52Z</time>
      </trkpt>
      <trkpt lat="42.54797" lon="0.1729">
        <ele>667.02</ele>
        <time>2018-08-11T13:13:53Z</time>
      </trkpt>
      <trkpt lat="42.54813" lon="0.1727">
        <ele>666.07</ele>
        <time>2018-08-11T13:13:54Z</time>
      </trkpt>
      <trkpt lat="42.5483" lon="0.17249">
        <ele>665.78</ele>
        <time>2018-08-11T13:13:55Z</time>
      </trkpt>
      <trkpt lat="42.54846" lon="0.17228">
        <ele>665.69</ele>
        <time>2018-08-11T13:13:56Z</time>
      </trkpt>
      <trkpt lat="42.54862" lon="0.17206">
        <ele>665.67</ele>
        <time>2018-08-11T13:13:57Z</time>
      </trkpt>
      <trkpt lat="42.54873" lon="0.17182">
        <ele>666.36</ele>
        <time>2018-08-11T13:13:58Z</time>
      </trkpt>
      <trkpt lat="42.54883" lon="0.17157">
        <ele>665.87</ele>
        <time>2018-08-11T13:13:59Z</time>
      </trkpt>
      <trkpt lat="42.54889" lon="0.1713">
        <ele>666.42</ele>
        <time>2018-08-11T13:14:00Z</time>
      </trkpt>
      <trkpt lat="42.54892" lon="0.17103">
        <ele>665.89</ele>
        <time>2018-08-11T13:14:01Z</time>
      </trkpt>
      <trkpt lat="42.54892" lon="0.17075">
        <ele>666.43</ele>
        <time>2018-08-11T13:14:02Z</time>
      </trkpt>
      <trkpt lat="42.54888" lon="0.17046">
        <ele>666.59</ele>
        <time>2018-08-11T13:14:03Z</time>
      </trkpt>
      <trkpt lat="42.54883" lon="0.17018">
        <ele>666.64</ele>
        <time>2018-08-11T13:14:04Z</time>
      </trkpt>
      <trkpt lat="42.54876" lon="0.1699">
        <ele>667.35</ele>
        <time>2018-08-11T13:14:05Z</time>
      </trkpt>
      <trkpt lat="42.54868" lon="0.16963">
        <ele>667.57</ele>
        <time>2018-08-11T13:14:06Z</time>
      </trkpt>
      <trkpt lat="42.5486" lon="0.16936">
        <ele>667.63</ele>
        <time>2018-08-11T13:14:07Z</time>
      </trkpt>
      <trkpt lat="42.54853" lon="0.16909">
        <ele>668.35</ele>
        <time>2018-08-11T13:14:08Z</time>
      </trkpt>
      <trkpt lat="42.54846" lon="0.16882">
        <ele>668.57</ele>
        <time>2018-08-11T13:14:09Z</time>
      </trkpt>
      <trkpt lat="42.54838" lon="0.16854">
        <ele>667.93</ele>
        <time>2018-08-11T13:14:10Z</time>
      </trkpt>
      <trkpt lat="42.5483" lon="0.16827">
        <ele>667.04</ele>
        <time>2018-08-11T13:14:11Z</time>
      </trkpt>
      <trkpt lat="42.54822" lon="0.16799">
        <ele>666.77</ele>
        <time>2018-08-11T13:14:12Z</time>
      </trkpt>
      <trkpt lat="42.54815" lon="0.16771">
        <ele>666.69</ele>
        <time>2018-08-11T13:14:13Z</time>
      </trkpt>
      <trkpt lat="42.54808" lon="0.16743">
        <ele>665.97</ele>
        <time>2018-08-11T13:14:14Z</time>
      </trkpt>
      <trkpt lat="42.54801" lon="0.16717">
        <ele>665.75</ele>
        <time>2018-08-11T13:14:15Z</time>
      </trkpt>
      <trkpt lat="42.54795" lon="0.16691">
        <ele>664.99</ele>
        <time>2018-08-11T13:14:16Z</time>
      </trkpt>
      <trkpt lat="42.5479" lon="0.16666">
        <ele>664.76</ele>
        <time>2018-08-11T13:14:17Z</time>
      </trkpt>
      <trkpt lat="42.54786" lon="0.1664">
        <ele>663.99</ele>
        <time>2018-08-11T13:14:18Z</time>
      </trkpt>
      <trkpt lat="42.54783" lon="0.16613">
        <ele>663.76</ele>
        <time>2018-08-11T13:14:19Z</time>
      </trkpt>
      <trkpt lat="42.54782" lon="0.16588">
        <ele>662.99</ele>
        <time>2018-08-11T13:14:20Z</time>
      </trkpt>
      <trkpt lat="42.54779" lon="0.16563">
        <ele>662.06</ele>
        <time>2018-08-11T13:14:21Z</time>
      </trkpt>
      <trkpt lat="42.54778" lon="0.16538">
        <ele>661.78</ele>
        <time>2018-08-11T13:14:22Z</time>
      </trkpt>
      <trkpt lat="42.54775" lon="0.16494">
        <ele>661.67</ele>
        <time>2018-08-11T13:14:24Z</time>
      </trkpt>
      <trkpt lat="42.54773" lon="0.16454">
        <ele>660.75</ele>
        <time>2018-08-11T13:14:26Z</time>
      </trkpt>
      <trkpt lat="42.54772" lon="0.16415">
        <ele>659.97</ele>
        <time>2018-08-11T13:14:28Z</time>
      </trkpt>
      <trkpt lat="42.54774" lon="0.16372">
        <ele>659.69</ele>
        <time>2018-08-11T13:14:30Z</time>
      </trkpt>
      <trkpt lat="42.5478" lon="0.1633">
        <ele>659.66</ele>
        <time>2018-08-11T13:14:32Z</time>
      </trkpt>
      <trkpt lat="42.54783" lon="0.16287">
        <ele>659.45</ele>
        <time>2018-08-11T13:14:34Z</time>
      </trkpt>
      <trkpt lat="42.54782" lon="0.16243">
        <ele>660.34</ele>
        <time>2018-08-11T13:14:36Z</time>
      </trkpt>
      <trkpt lat="42.54773" lon="0.16198">
        <ele>660.63</ele>
        <time>2018-08-11T13:14:38Z</time>
      </trkpt>
      <trkpt lat="42.54767" lon="0.16175">
        <ele>659.95</ele>
        <time>2018-08-11T13:14:39Z</time>
      </trkpt>
      <trkpt lat="42.5476" lon="0.16151">
        <ele>659.05</ele>
        <time>2018-08-11T13:14:40Z</time>
      </trkpt>
      <trkpt lat="42.54751" lon="0.16128">
        <ele>658.07</ele>
        <time>2018-08-11T13:14:41Z</time>
      </trkpt>
      <trkpt lat="42.5474" lon="0.16107">
        <ele>657.78</ele>
        <time>2018-08-11T13:14:42Z</time>
      </trkpt>
      <trkpt lat="42.54727" lon="0.16086">
        <ele>658.4</ele>
        <time>2018-08-11T13:14:43Z</time>
      </trkpt>
      <trkpt lat="42.54714" lon="0.16067">
        <ele>658.58</ele>
        <time>2018-08-11T13:14:44Z</time>
      </trkpt>
      <trkpt lat="42.54699" lon="0.16047">
        <ele>658.63</ele>
        <time>2018-08-11T13:14:45Z</time>
      </trkpt>
      <trkpt lat="42.54684" lon="0.16027">
        <ele>658.65</ele>
        <time>2018-08-11T13:14:46Z</time>
      </trkpt>
      <trkpt lat="42.54669" lon="0.16008">
        <ele>658.66</ele>
        <time>2018-08-11T13:14:47Z</time>
      </trkpt>
      <trkpt lat="42.54653" lon="0.15989">
        <ele>658.66</ele>
        <time>2018-08-11T13:14:48Z</time>
      </trkpt>
      <trkpt lat="42.54635" lon="0.15974">
        <ele>658.66</ele>
        <time>2018-08-11T13:14:49Z</time>
      </trkpt>
      <trkpt lat="42.54616" lon="0.15963">
        <ele>658.66</ele>
        <time>2018-08-11T13:14:50Z</time>
      </trkpt>
      <trkpt lat="42.54596" lon="0.15955">
        <ele>658.66</ele>
        <time>2018-08-11T13:14:51Z</time>
      </trkpt>
      <trkpt lat="42.54574" lon="0.1595">
        <ele>658.66</ele>
        <time>2018-08-11T13:14:52Z</time>
      </trkpt>
      <trkpt lat="42.54553" lon="0.15944">
        <ele>658.66</ele>
        <time>2018-08-11T13:14:53Z</time>
      </trkpt>
      <trkpt lat="42.54532" lon="0.15938">
        <ele>658.66</ele>
        <time>2018-08-11T13:14:54Z</time>
      </trkpt>
      <trkpt lat="42.54512" lon="0.15932">
        <ele>658.66</ele>
        <time>2018-08-11T13:14:55Z</time>
      </trkpt>
      <trkpt lat="42.54491" lon="0.15932">
        <ele>658.66</ele>
        <time>2018-08-11T13:14:56Z</time>
      </trkpt>
      <trkpt lat="42.54469" lon="0.15939">
        <ele>660.06</ele>
        <time>2018-08-11T13:14:57Z</time>
      </trkpt>
      <trkpt lat="42.54449" lon="0.15947">
        <ele>659.78</ele>
        <time>2018-08-11T13:14:58Z</time>
      </trkpt>
      <trkpt lat="42.54428" lon="0.15953">
        <ele>659.69</ele>
        <time>2018-08-11T13:14:59Z</time>
      </trkpt>
      <trkpt lat="42.54408" lon="0.15955">
        <ele>659.67</ele>
        <time>2018-08-11T13:15:00Z</time>
      </trkpt>
      <trkpt lat="42.54387" lon="0.15953">
        <ele>659.66</ele>
        <time>2018-08-11T13:15:01Z</time>
      </trkpt>
      <trkpt lat="42.54368" lon="0.15949">
        <ele>659.66</ele>
        <time>2018-08-11T13:15:02Z</time>
      </trkpt>
      <trkpt lat="42.54348" lon="0.15943">
        <ele>659.66</ele>
        <time>2018-08-11T13:15:03Z</time>
      </trkpt>
      <trkpt lat="42.54329" lon="0.15937">
        <ele>659.66</ele>
        <time>2018-08-11T13:15:04Z</time>
      </trkpt>
      <trkpt lat="42.5431" lon="0.15931">
        <ele>659.66</ele>
        <time>2018-08-11T13:15:05Z</time>
      </trkpt>
      <trkpt lat="42.54292" lon="0.15924">
        <ele>658.96</ele>
        <time>2018-08-11T13:15:06Z</time>
      </trkpt>
      <trkpt lat="42.54274" lon="0.15919">
        <ele>659.45</ele>
        <time>2018-08-11T13:15:07Z</time>
      </trkpt>
      <trkpt lat="42.54255" lon="0.15912">
        <ele>659.59</ele>
        <time>2018-08-11T13:15:08Z</time>
      </trkpt>
      <trkpt lat="42.54238" lon="0.15906">
        <ele>659.64</ele>
        <time>2018-08-11T13:15:09Z</time>
      </trkpt>
      <trkpt lat="42.54219" lon="0.159">
        <ele>659.65</ele>
        <time>2018-08-11T13:15:10Z</time>
      </trkpt>
      <trkpt lat="42.54201" lon="0.15893">
        <ele>659.66</ele>
        <time>2018-08-11T13:15:11Z</time>
      </trkpt>
      <trkpt lat="42.54182" lon="0.15885">
        <ele>659.66</ele>
        <time>2018-08-11T13:15:12Z</time>
      </trkpt>
      <trkpt lat="42.54163" lon="0.15877">
        <ele>659.66</ele>
        <time>2018-08-11T13:15:13Z</time>
      </trkpt>
      <trkpt lat="42.54144" lon="0.15869">
        <ele>658.96</ele>
        <time>2018-08-11T13:15:14Z</time>
      </trkpt>
      <trkpt lat="42.54124" lon="0.15861">
        <ele>658.75</ele>
        <time>2018-08-11T13:15:15Z</time>
      </trkpt>
      <trkpt lat="42.54104" lon="0.15852">
        <ele>657.98</ele>
        <time>2018-08-11T13:15:16Z</time>
      </trkpt>
      <trkpt lat="42.54083" lon="0.15843">
        <ele>657.76</ele>
        <time>2018-08-11T13:15:17Z</time>
      </trkpt>
      <trkpt lat="42.54062" lon="0.15834">
        <ele>656.99</ele>
        <time>2018-08-11T13:15:18Z</time>
      </trkpt>
      <trkpt lat="42.54041" lon="0.15825">
        <ele>656.76</ele>
        <time>2018-08-11T13:15:19Z</time>
      </trkpt>
      <trkpt lat="42.5402" lon="0.15816">
        <ele>656.69</ele>
        <time>2018-08-11T13:15:20Z</time>
      </trkpt>
      <trkpt lat="42.53999" lon="0.15806">
        <ele>656.67</ele>
        <time>2018-08-11T13:15:21Z</time>
      </trkpt>
      <trkpt lat="42.53977" lon="0.15797">
        <ele>656.66</ele>
        <time>2018-08-11T13:15:22Z</time>
      </trkpt>
      <trkpt lat="42.53955" lon="0.15787">
        <ele>656.66</ele>
        <time>2018-08-11T13:15:23Z</time>
      </trkpt>
      <trkpt lat="42.53933" lon="0.15777">
        <ele>656.66</ele>
        <time>2018-08-11T13:15:24Z</time>
      </trkpt>
      <trkpt lat="42.53912" lon="0.15767">
        <ele>656.66</ele>
        <time>2018-08-11T13:15:25Z</time>
      </trkpt>
      <trkpt lat="42.5389" lon="0.15757">
        <ele>656.66</ele>
        <time>2018-08-11T13:15:26Z</time>
      </trkpt>
      <trkpt lat="42.53868" lon="0.15749">
        <ele>656.66</ele>
        <time>2018-08-11T13:15:27Z</time>
      </trkpt>
      <trkpt lat="42.53846" lon="0.15743">
        <ele>656.66</ele>
        <time>2018-08-11T13:15:28Z</time>
      </trkpt>
      <trkpt lat="42.53823" lon="0.15739">
        <ele>656.66</ele>
        <time>2018-08-11T13:15:29Z</time>
      </trkpt>
      <trkpt lat="42.53802" lon="0.15736">
        <ele>654.56</ele>
        <time>2018-08-11T13:15:30Z</time>
      </trkpt>
      <trkpt lat="42.53775" lon="0.15746">
        <ele>653.23</ele>
        <time>2018-08-11T13:15:31Z</time>
      </trkpt>
      <trkpt lat="42.53751" lon="0.1575">
        <ele>652.13</ele>
        <time>2018-08-11T13:15:32Z</time>
      </trkpt>
      <trkpt lat="42.53726" lon="0.15754">
        <ele>651.8</ele>
        <time>2018-08-11T13:15:33Z</time>
      </trkpt>
      <trkpt lat="42.53703" lon="0.15756">
        <ele>651</ele>
        <time>2018-08-11T13:15:34Z</time>
      </trkpt>
      <trkpt lat="42.53679" lon="0.1576">
        <ele>650.06</ele>
        <time>2018-08-11T13:15:35Z</time>
      </trkpt>
      <trkpt lat="42.53656" lon="0.15763">
        <ele>649.78</ele>
        <time>2018-08-11T13:15:36Z</time>
      </trkpt>
      <trkpt lat="42.53633" lon="0.15765">
        <ele>649.69</ele>
        <time>2018-08-11T13:15:37Z</time>
      </trkpt>
      <trkpt lat="42.5361" lon="0.15765">
        <ele>650.37</ele>
        <time>2018-08-11T13:15:38Z</time>
      </trkpt>
      <trkpt lat="42.53587" lon="0.15761">
        <ele>649.87</ele>
        <time>2018-08-11T13:15:39Z</time>
      </trkpt>
      <trkpt lat="42.53565" lon="0.15754">
        <ele>650.42</ele>
        <time>2018-08-11T13:15:40Z</time>
      </trkpt>
      <trkpt lat="42.53543" lon="0.15745">
        <ele>651.29</ele>
        <time>2018-08-11T13:15:41Z</time>
      </trkpt>
      <trkpt lat="42.53521" lon="0.15734">
        <ele>651.55</ele>
        <time>2018-08-11T13:15:42Z</time>
      </trkpt>
      <trkpt lat="42.53499" lon="0.15722">
        <ele>652.32</ele>
        <time>2018-08-11T13:15:43Z</time>
      </trkpt>
      <trkpt lat="42.53477" lon="0.1571">
        <ele>653.96</ele>
        <time>2018-08-11T13:15:44Z</time>
      </trkpt>
      <trkpt lat="42.53456" lon="0.15698">
        <ele>654.45</ele>
        <time>2018-08-11T13:15:45Z</time>
      </trkpt>
      <trkpt lat="42.53437" lon="0.15683">
        <ele>654.59</ele>
        <time>2018-08-11T13:15:46Z</time>
      </trkpt>
      <trkpt lat="42.53413" lon="0.15644">
        <ele>653.95</ele>
        <time>2018-08-11T13:15:48Z</time>
      </trkpt>
      <trkpt lat="42.53405" lon="0.15619">
        <ele>653.75</ele>
        <time>2018-08-11T13:15:49Z</time>
      </trkpt>
      <trkpt lat="42.534" lon="0.15591">
        <ele>653.68</ele>
        <time>2018-08-11T13:15:50Z</time>
      </trkpt>
      <trkpt lat="42.53397" lon="0.15562">
        <ele>652.97</ele>
        <time>2018-08-11T13:15:51Z</time>
      </trkpt>
      <trkpt lat="42.53393" lon="0.15532">
        <ele>652.05</ele>
        <time>2018-08-11T13:15:52Z</time>
      </trkpt>
      <trkpt lat="42.53388" lon="0.15504">
        <ele>651.08</ele>
        <time>2018-08-11T13:15:53Z</time>
      </trkpt>
      <trkpt lat="42.5338" lon="0.15478">
        <ele>649.38</ele>
        <time>2018-08-11T13:15:54Z</time>
      </trkpt>
      <trkpt lat="42.53371" lon="0.15451">
        <ele>648.18</ele>
        <time>2018-08-11T13:15:55Z</time>
      </trkpt>
      <trkpt lat="42.53358" lon="0.15428">
        <ele>647.11</ele>
        <time>2018-08-11T13:15:56Z</time>
      </trkpt>
      <trkpt lat="42.53341" lon="0.15408">
        <ele>645.39</ele>
        <time>2018-08-11T13:15:57Z</time>
      </trkpt>
      <trkpt lat="42.53323" lon="0.15387">
        <ele>644.88</ele>
        <time>2018-08-11T13:15:58Z</time>
      </trkpt>
      <trkpt lat="42.53293" lon="0.15393">
        <ele>645.42</ele>
        <time>2018-08-11T13:15:59Z</time>
      </trkpt>
      <trkpt lat="42.53271" lon="0.15382">
        <ele>645.59</ele>
        <time>2018-08-11T13:16:00Z</time>
      </trkpt>
      <trkpt lat="42.53254" lon="0.15365">
        <ele>644.94</ele>
        <time>2018-08-11T13:16:01Z</time>
      </trkpt>
      <trkpt lat="42.53236" lon="0.15346">
        <ele>644.74</ele>
        <time>2018-08-11T13:16:02Z</time>
      </trkpt>
      <trkpt lat="42.53224" lon="0.15318">
        <ele>643.98</ele>
        <time>2018-08-11T13:16:03Z</time>
      </trkpt>
      <trkpt lat="42.53209" lon="0.15294">
        <ele>643.06</ele>
        <time>2018-08-11T13:16:04Z</time>
      </trkpt>
      <trkpt lat="42.53193" lon="0.15271">
        <ele>642.78</ele>
        <time>2018-08-11T13:16:05Z</time>
      </trkpt>
      <trkpt lat="42.53175" lon="0.15251">
        <ele>642.69</ele>
        <time>2018-08-11T13:16:06Z</time>
      </trkpt>
      <trkpt lat="42.53157" lon="0.15233">
        <ele>641.97</ele>
        <time>2018-08-11T13:16:07Z</time>
      </trkpt>
      <trkpt lat="42.53138" lon="0.15216">
        <ele>641.75</ele>
        <time>2018-08-11T13:16:08Z</time>
      </trkpt>
      <trkpt lat="42.53119" lon="0.15197">
        <ele>641.69</ele>
        <time>2018-08-11T13:16:09Z</time>
      </trkpt>
      <trkpt lat="42.53101" lon="0.15178">
        <ele>641.67</ele>
        <time>2018-08-11T13:16:10Z</time>
      </trkpt>
      <trkpt lat="42.53085" lon="0.15158">
        <ele>641.66</ele>
        <time>2018-08-11T13:16:11Z</time>
      </trkpt>
      <trkpt lat="42.53068" lon="0.15136">
        <ele>641.66</ele>
        <time>2018-08-11T13:16:12Z</time>
      </trkpt>
      <trkpt lat="42.53061" lon="0.1511">
        <ele>642.36</ele>
        <time>2018-08-11T13:16:13Z</time>
      </trkpt>
      <trkpt lat="42.53055" lon="0.15083">
        <ele>643.27</ele>
        <time>2018-08-11T13:16:14Z</time>
      </trkpt>
      <trkpt lat="42.53049" lon="0.15055">
        <ele>644.24</ele>
        <time>2018-08-11T13:16:15Z</time>
      </trkpt>
      <trkpt lat="42.53044" lon="0.15027">
        <ele>645.23</ele>
        <time>2018-08-11T13:16:16Z</time>
      </trkpt>
      <trkpt lat="42.53039" lon="0.15">
        <ele>645.53</ele>
        <time>2018-08-11T13:16:17Z</time>
      </trkpt>
      <trkpt lat="42.53027" lon="0.14978">
        <ele>645.62</ele>
        <time>2018-08-11T13:16:18Z</time>
      </trkpt>
      <trkpt lat="42.53015" lon="0.14957">
        <ele>645.65</ele>
        <time>2018-08-11T13:16:19Z</time>
      </trkpt>
      <trkpt lat="42.52999" lon="0.1494">
        <ele>644.25</ele>
        <time>2018-08-11T13:16:20Z</time>
      </trkpt>
      <trkpt lat="42.52981" lon="0.14926">
        <ele>643.84</ele>
        <time>2018-08-11T13:16:21Z</time>
      </trkpt>
      <trkpt lat="42.52961" lon="0.14915">
        <ele>643.71</ele>
        <time>2018-08-11T13:16:22Z</time>
      </trkpt>
      <trkpt lat="42.52941" lon="0.14904">
        <ele>643.67</ele>
        <time>2018-08-11T13:16:23Z</time>
      </trkpt>
      <trkpt lat="42.52921" lon="0.14893">
        <ele>643.66</ele>
        <time>2018-08-11T13:16:24Z</time>
      </trkpt>
      <trkpt lat="42.52904" lon="0.14875">
        <ele>642.26</ele>
        <time>2018-08-11T13:16:25Z</time>
      </trkpt>
      <trkpt lat="42.52889" lon="0.14853">
        <ele>641.14</ele>
        <time>2018-08-11T13:16:26Z</time>
      </trkpt>
      <trkpt lat="42.52877" lon="0.1483">
        <ele>640.8</ele>
        <time>2018-08-11T13:16:27Z</time>
      </trkpt>
      <trkpt lat="42.52868" lon="0.14802">
        <ele>640</ele>
        <time>2018-08-11T13:16:28Z</time>
      </trkpt>
      <trkpt lat="42.52861" lon="0.14774">
        <ele>639.76</ele>
        <time>2018-08-11T13:16:29Z</time>
      </trkpt>
      <trkpt lat="42.52855" lon="0.14744">
        <ele>639.69</ele>
        <time>2018-08-11T13:16:30Z</time>
      </trkpt>
      <trkpt lat="42.52848" lon="0.14716">
        <ele>639.67</ele>
        <time>2018-08-11T13:16:31Z</time>
      </trkpt>
      <trkpt lat="42.52839" lon="0.14688">
        <ele>639.66</ele>
        <time>2018-08-11T13:16:32Z</time>
      </trkpt>
      <trkpt lat="42.52828" lon="0.14663">
        <ele>638.96</ele>
        <time>2018-08-11T13:16:33Z</time>
      </trkpt>
      <trkpt lat="42.52816" lon="0.14639">
        <ele>638.75</ele>
        <time>2018-08-11T13:16:34Z</time>
      </trkpt>
      <trkpt lat="42.528" lon="0.1462">
        <ele>638.69</ele>
        <time>2018-08-11T13:16:35Z</time>
      </trkpt>
      <trkpt lat="42.52784" lon="0.14605">
        <ele>637.97</ele>
        <time>2018-08-11T13:16:36Z</time>
      </trkpt>
      <trkpt lat="42.52767" lon="0.14592">
        <ele>637.75</ele>
        <time>2018-08-11T13:16:37Z</time>
      </trkpt>
      <trkpt lat="42.5275" lon="0.14581">
        <ele>636.99</ele>
        <time>2018-08-11T13:16:38Z</time>
      </trkpt>
      <trkpt lat="42.52731" lon="0.14569">
        <ele>636.06</ele>
        <time>2018-08-11T13:16:39Z</time>
      </trkpt>
      <trkpt lat="42.52712" lon="0.14559">
        <ele>635.78</ele>
        <time>2018-08-11T13:16:40Z</time>
      </trkpt>
      <trkpt lat="42.52692" lon="0.14549">
        <ele>634.99</ele>
        <time>2018-08-11T13:16:41Z</time>
      </trkpt>
      <trkpt lat="42.52671" lon="0.14538">
        <ele>634.76</ele>
        <time>2018-08-11T13:16:42Z</time>
      </trkpt>
      <trkpt lat="42.52651" lon="0.14529">
        <ele>633.99</ele>
        <time>2018-08-11T13:16:43Z</time>
      </trkpt>
      <trkpt lat="42.5263" lon="0.14521">
        <ele>634.46</ele>
        <time>2018-08-11T13:16:44Z</time>
      </trkpt>
      <trkpt lat="42.5261" lon="0.14512">
        <ele>633.9</ele>
        <time>2018-08-11T13:16:45Z</time>
      </trkpt>
      <trkpt lat="42.52589" lon="0.14505">
        <ele>633.73</ele>
        <time>2018-08-11T13:16:46Z</time>
      </trkpt>
      <trkpt lat="42.52568" lon="0.14499">
        <ele>633.68</ele>
        <time>2018-08-11T13:16:47Z</time>
      </trkpt>
      <trkpt lat="42.52547" lon="0.14493">
        <ele>633.66</ele>
        <time>2018-08-11T13:16:48Z</time>
      </trkpt>
      <trkpt lat="42.52525" lon="0.14486">
        <ele>632.96</ele>
        <time>2018-08-11T13:16:49Z</time>
      </trkpt>
      <trkpt lat="42.52503" lon="0.1448">
        <ele>633.45</ele>
        <time>2018-08-11T13:16:50Z</time>
      </trkpt>
      <trkpt lat="42.52482" lon="0.14473">
        <ele>632.9</ele>
        <time>2018-08-11T13:16:51Z</time>
      </trkpt>
      <trkpt lat="42.5246" lon="0.14467">
        <ele>632.03</ele>
        <time>2018-08-11T13:16:52Z</time>
      </trkpt>
      <trkpt lat="42.52438" lon="0.14461">
        <ele>631.77</ele>
        <time>2018-08-11T13:16:53Z</time>
      </trkpt>
      <trkpt lat="42.52415" lon="0.14454">
        <ele>630.99</ele>
        <time>2018-08-11T13:16:54Z</time>
      </trkpt>
      <trkpt lat="42.52393" lon="0.14448">
        <ele>630.76</ele>
        <time>2018-08-11T13:16:55Z</time>
      </trkpt>
      <trkpt lat="42.5237" lon="0.14441">
        <ele>630.69</ele>
        <time>2018-08-11T13:16:56Z</time>
      </trkpt>
      <trkpt lat="42.52347" lon="0.14435">
        <ele>629.97</ele>
        <time>2018-08-11T13:16:57Z</time>
      </trkpt>
      <trkpt lat="42.52325" lon="0.14429">
        <ele>629.75</ele>
        <time>2018-08-11T13:16:58Z</time>
      </trkpt>
      <trkpt lat="42.52302" lon="0.14422">
        <ele>628.99</ele>
        <time>2018-08-11T13:16:59Z</time>
      </trkpt>
      <trkpt lat="42.52281" lon="0.14413">
        <ele>628.76</ele>
        <time>2018-08-11T13:17:00Z</time>
      </trkpt>
      <trkpt lat="42.52261" lon="0.14398">
        <ele>627.99</ele>
        <time>2018-08-11T13:17:01Z</time>
      </trkpt>
      <trkpt lat="42.52243" lon="0.14381">
        <ele>627.76</ele>
        <time>2018-08-11T13:17:02Z</time>
      </trkpt>
      <trkpt lat="42.52228" lon="0.14359">
        <ele>627.69</ele>
        <time>2018-08-11T13:17:03Z</time>
      </trkpt>
      <trkpt lat="42.52213" lon="0.14337">
        <ele>627.67</ele>
        <time>2018-08-11T13:17:04Z</time>
      </trkpt>
      <trkpt lat="42.52206" lon="0.14307">
        <ele>627.66</ele>
        <time>2018-08-11T13:17:05Z</time>
      </trkpt>
      <trkpt lat="42.52199" lon="0.14279">
        <ele>628.36</ele>
        <time>2018-08-11T13:17:06Z</time>
      </trkpt>
      <trkpt lat="42.52193" lon="0.1425">
        <ele>628.57</ele>
        <time>2018-08-11T13:17:07Z</time>
      </trkpt>
      <trkpt lat="42.52186" lon="0.14221">
        <ele>628.63</ele>
        <time>2018-08-11T13:17:08Z</time>
      </trkpt>
      <trkpt lat="42.52179" lon="0.14193">
        <ele>628.65</ele>
        <time>2018-08-11T13:17:09Z</time>
      </trkpt>
      <trkpt lat="42.52171" lon="0.14166">
        <ele>628.66</ele>
        <time>2018-08-11T13:17:10Z</time>
      </trkpt>
      <trkpt lat="42.52162" lon="0.1414">
        <ele>629.36</ele>
        <time>2018-08-11T13:17:11Z</time>
      </trkpt>
      <trkpt lat="42.52152" lon="0.14115">
        <ele>629.57</ele>
        <time>2018-08-11T13:17:12Z</time>
      </trkpt>
      <trkpt lat="42.5214" lon="0.14093">
        <ele>629.63</ele>
        <time>2018-08-11T13:17:13Z</time>
      </trkpt>
      <trkpt lat="42.52125" lon="0.14072">
        <ele>630.35</ele>
        <time>2018-08-11T13:17:14Z</time>
      </trkpt>
      <trkpt lat="42.5211" lon="0.14053">
        <ele>630.57</ele>
        <time>2018-08-11T13:17:15Z</time>
      </trkpt>
      <trkpt lat="42.52091" lon="0.14036">
        <ele>631.33</ele>
        <time>2018-08-11T13:17:16Z</time>
      </trkpt>
      <trkpt lat="42.52072" lon="0.14022">
        <ele>631.56</ele>
        <time>2018-08-11T13:17:17Z</time>
      </trkpt>
      <trkpt lat="42.52052" lon="0.14011">
        <ele>631.63</ele>
        <time>2018-08-11T13:17:18Z</time>
      </trkpt>
      <trkpt lat="42.5203" lon="0.14002">
        <ele>630.95</ele>
        <time>2018-08-11T13:17:19Z</time>
      </trkpt>
      <trkpt lat="42.52008" lon="0.13997">
        <ele>630.05</ele>
        <time>2018-08-11T13:17:20Z</time>
      </trkpt>
      <trkpt lat="42.51984" lon="0.13994">
        <ele>629.07</ele>
        <time>2018-08-11T13:17:21Z</time>
      </trkpt>
      <trkpt lat="42.51961" lon="0.13993">
        <ele>628.78</ele>
        <time>2018-08-11T13:17:22Z</time>
      </trkpt>
      <trkpt lat="42.51938" lon="0.13993">
        <ele>628</ele>
        <time>2018-08-11T13:17:23Z</time>
      </trkpt>
      <trkpt lat="42.51914" lon="0.13995">
        <ele>627.06</ele>
        <time>2018-08-11T13:17:24Z</time>
      </trkpt>
      <trkpt lat="42.51891" lon="0.14001">
        <ele>626.78</ele>
        <time>2018-08-11T13:17:25Z</time>
      </trkpt>
      <trkpt lat="42.51868" lon="0.1401">
        <ele>626.69</ele>
        <time>2018-08-11T13:17:26Z</time>
      </trkpt>
      <trkpt lat="42.51847" lon="0.14024">
        <ele>625.97</ele>
        <time>2018-08-11T13:17:27Z</time>
      </trkpt>
      <trkpt lat="42.51827" lon="0.1404">
        <ele>625.75</ele>
        <time>2018-08-11T13:17:28Z</time>
      </trkpt>
      <trkpt lat="42.51808" lon="0.14059">
        <ele>625.69</ele>
        <time>2018-08-11T13:17:29Z</time>
      </trkpt>
      <trkpt lat="42.51792" lon="0.14081">
        <ele>624.97</ele>
        <time>2018-08-11T13:17:30Z</time>
      </trkpt>
      <trkpt lat="42.51777" lon="0.14105">
        <ele>624.75</ele>
        <time>2018-08-11T13:17:31Z</time>
      </trkpt>
      <trkpt lat="42.51764" lon="0.14131">
        <ele>623.99</ele>
        <time>2018-08-11T13:17:32Z</time>
      </trkpt>
      <trkpt lat="42.51752" lon="0.14158">
        <ele>623.76</ele>
        <time>2018-08-11T13:17:33Z</time>
      </trkpt>
      <trkpt lat="42.5174" lon="0.14184">
        <ele>622.99</ele>
        <time>2018-08-11T13:17:34Z</time>
      </trkpt>
      <trkpt lat="42.51727" lon="0.14209">
        <ele>623.46</ele>
        <time>2018-08-11T13:17:35Z</time>
      </trkpt>
      <trkpt lat="42.51712" lon="0.14231">
        <ele>623.6</ele>
        <time>2018-08-11T13:17:36Z</time>
      </trkpt>
      <trkpt lat="42.51696" lon="0.14251">
        <ele>624.34</ele>
        <time>2018-08-11T13:17:37Z</time>
      </trkpt>
      <trkpt lat="42.51676" lon="0.14268">
        <ele>624.56</ele>
        <time>2018-08-11T13:17:38Z</time>
      </trkpt>
      <trkpt lat="42.51657" lon="0.14282">
        <ele>624.63</ele>
        <time>2018-08-11T13:17:39Z</time>
      </trkpt>
      <trkpt lat="42.51636" lon="0.14293">
        <ele>624.65</ele>
        <time>2018-08-11T13:17:40Z</time>
      </trkpt>
      <trkpt lat="42.51615" lon="0.14302">
        <ele>624.66</ele>
        <time>2018-08-11T13:17:41Z</time>
      </trkpt>
      <trkpt lat="42.51593" lon="0.1431">
        <ele>624.66</ele>
        <time>2018-08-11T13:17:42Z</time>
      </trkpt>
      <trkpt lat="42.51571" lon="0.14318">
        <ele>624.66</ele>
        <time>2018-08-11T13:17:43Z</time>
      </trkpt>
      <trkpt lat="42.51549" lon="0.14326">
        <ele>624.66</ele>
        <time>2018-08-11T13:17:44Z</time>
      </trkpt>
      <trkpt lat="42.51528" lon="0.14334">
        <ele>624.66</ele>
        <time>2018-08-11T13:17:45Z</time>
      </trkpt>
      <trkpt lat="42.51506" lon="0.14343">
        <ele>623.96</ele>
        <time>2018-08-11T13:17:46Z</time>
      </trkpt>
      <trkpt lat="42.51484" lon="0.1435">
        <ele>623.75</ele>
        <time>2018-08-11T13:17:47Z</time>
      </trkpt>
      <trkpt lat="42.51461" lon="0.14356">
        <ele>623.68</ele>
        <time>2018-08-11T13:17:48Z</time>
      </trkpt>
      <trkpt lat="42.51438" lon="0.1436">
        <ele>623.67</ele>
        <time>2018-08-11T13:17:49Z</time>
      </trkpt>
      <trkpt lat="42.51414" lon="0.14363">
        <ele>623.66</ele>
        <time>2018-08-11T13:17:50Z</time>
      </trkpt>
      <trkpt lat="42.51391" lon="0.14368">
        <ele>622.96</ele>
        <time>2018-08-11T13:17:51Z</time>
      </trkpt>
      <trkpt lat="42.51368" lon="0.14371">
        <ele>622.75</ele>
        <time>2018-08-11T13:17:52Z</time>
      </trkpt>
      <trkpt lat="42.51344" lon="0.14375">
        <ele>621.99</ele>
        <time>2018-08-11T13:17:53Z</time>
      </trkpt>
      <trkpt lat="42.5132" lon="0.14377">
        <ele>621.76</ele>
        <time>2018-08-11T13:17:54Z</time>
      </trkpt>
      <trkpt lat="42.51295" lon="0.14378">
        <ele>620.99</ele>
        <time>2018-08-11T13:17:55Z</time>
      </trkpt>
      <trkpt lat="42.51271" lon="0.14375">
        <ele>620.06</ele>
        <time>2018-08-11T13:17:56Z</time>
      </trkpt>
      <trkpt lat="42.51246" lon="0.1437">
        <ele>619.08</ele>
        <time>2018-08-11T13:17:57Z</time>
      </trkpt>
      <trkpt lat="42.51222" lon="0.14364">
        <ele>618.08</ele>
        <time>2018-08-11T13:17:58Z</time>
      </trkpt>
      <trkpt lat="42.51197" lon="0.14359">
        <ele>618.49</ele>
        <time>2018-08-11T13:17:59Z</time>
      </trkpt>
      <trkpt lat="42.51174" lon="0.14353">
        <ele>617.91</ele>
        <time>2018-08-11T13:18:00Z</time>
      </trkpt>
      <trkpt lat="42.5115" lon="0.14348">
        <ele>618.43</ele>
        <time>2018-08-11T13:18:01Z</time>
      </trkpt>
      <trkpt lat="42.51127" lon="0.14343">
        <ele>617.89</ele>
        <time>2018-08-11T13:18:02Z</time>
      </trkpt>
      <trkpt lat="42.51104" lon="0.14338">
        <ele>617.73</ele>
        <time>2018-08-11T13:18:03Z</time>
      </trkpt>
      <trkpt lat="42.51082" lon="0.14335">
        <ele>617.68</ele>
        <time>2018-08-11T13:18:04Z</time>
      </trkpt>
      <trkpt lat="42.51061" lon="0.14336">
        <ele>617.66</ele>
        <time>2018-08-11T13:18:05Z</time>
      </trkpt>
      <trkpt lat="42.51041" lon="0.14338">
        <ele>617.66</ele>
        <time>2018-08-11T13:18:06Z</time>
      </trkpt>
      <trkpt lat="42.51022" lon="0.14344">
        <ele>617.66</ele>
        <time>2018-08-11T13:18:07Z</time>
      </trkpt>
      <trkpt lat="42.51004" lon="0.14355">
        <ele>617.66</ele>
        <time>2018-08-11T13:18:08Z</time>
      </trkpt>
      <trkpt lat="42.50987" lon="0.14369">
        <ele>616.96</ele>
        <time>2018-08-11T13:18:09Z</time>
      </trkpt>
      <trkpt lat="42.50971" lon="0.14385">
        <ele>616.75</ele>
        <time>2018-08-11T13:18:10Z</time>
      </trkpt>
      <trkpt lat="42.50956" lon="0.14404">
        <ele>615.98</ele>
        <time>2018-08-11T13:18:11Z</time>
      </trkpt>
      <trkpt lat="42.50942" lon="0.14425">
        <ele>615.76</ele>
        <time>2018-08-11T13:18:12Z</time>
      </trkpt>
      <trkpt lat="42.50928" lon="0.14445">
        <ele>615.69</ele>
        <time>2018-08-11T13:18:13Z</time>
      </trkpt>
      <trkpt lat="42.50914" lon="0.14462">
        <ele>615.67</ele>
        <time>2018-08-11T13:18:14Z</time>
      </trkpt>
      <trkpt lat="42.50899" lon="0.14478">
        <ele>615.66</ele>
        <time>2018-08-11T13:18:15Z</time>
      </trkpt>
      <trkpt lat="42.50882" lon="0.14488">
        <ele>614.96</ele>
        <time>2018-08-11T13:18:16Z</time>
      </trkpt>
      <trkpt lat="42.50847" lon="0.14498">
        <ele>614.69</ele>
        <time>2018-08-11T13:18:18Z</time>
      </trkpt>
      <trkpt lat="42.50827" lon="0.14497">
        <ele>614.67</ele>
        <time>2018-08-11T13:18:19Z</time>
      </trkpt>
      <trkpt lat="42.50807" lon="0.14474">
        <ele>613.96</ele>
        <time>2018-08-11T13:18:20Z</time>
      </trkpt>
      <trkpt lat="42.50788" lon="0.14462">
        <ele>614.45</ele>
        <time>2018-08-11T13:18:21Z</time>
      </trkpt>
      <trkpt lat="42.50768" lon="0.1445">
        <ele>615.3</ele>
        <time>2018-08-11T13:18:22Z</time>
      </trkpt>
      <trkpt lat="42.50749" lon="0.14438">
        <ele>615.55</ele>
        <time>2018-08-11T13:18:23Z</time>
      </trkpt>
      <trkpt lat="42.50732" lon="0.14426">
        <ele>615.63</ele>
        <time>2018-08-11T13:18:24Z</time>
      </trkpt>
      <trkpt lat="42.507" lon="0.14403">
        <ele>615.66</ele>
        <time>2018-08-11T13:18:26Z</time>
      </trkpt>
      <trkpt lat="42.50684" lon="0.14392">
        <ele>615.66</ele>
        <time>2018-08-11T13:18:27Z</time>
      </trkpt>
      <trkpt lat="42.50666" lon="0.14382">
        <ele>614.96</ele>
        <time>2018-08-11T13:18:28Z</time>
      </trkpt>
      <trkpt lat="42.50631" lon="0.14373">
        <ele>616.51</ele>
        <time>2018-08-11T13:18:30Z</time>
      </trkpt>
      <trkpt lat="42.50613" lon="0.14371">
        <ele>616.61</ele>
        <time>2018-08-11T13:18:31Z</time>
      </trkpt>
      <trkpt lat="42.50577" lon="0.1437">
        <ele>617.56</ele>
        <time>2018-08-11T13:18:33Z</time>
      </trkpt>
      <trkpt lat="42.50557" lon="0.14373">
        <ele>617.63</ele>
        <time>2018-08-11T13:18:34Z</time>
      </trkpt>
      <trkpt lat="42.50538" lon="0.14377">
        <ele>618.35</ele>
        <time>2018-08-11T13:18:35Z</time>
      </trkpt>
      <trkpt lat="42.50519" lon="0.14382">
        <ele>618.57</ele>
        <time>2018-08-11T13:18:36Z</time>
      </trkpt>
      <trkpt lat="42.50501" lon="0.1439">
        <ele>618.63</ele>
        <time>2018-08-11T13:18:37Z</time>
      </trkpt>
      <trkpt lat="42.50482" lon="0.144">
        <ele>619.35</ele>
        <time>2018-08-11T13:18:38Z</time>
      </trkpt>
      <trkpt lat="42.50465" lon="0.14411">
        <ele>619.57</ele>
        <time>2018-08-11T13:18:39Z</time>
      </trkpt>
      <trkpt lat="42.50447" lon="0.14429">
        <ele>618.93</ele>
        <time>2018-08-11T13:18:40Z</time>
      </trkpt>
      <trkpt lat="42.50429" lon="0.14448">
        <ele>618.04</ele>
        <time>2018-08-11T13:18:41Z</time>
      </trkpt>
      <trkpt lat="42.50413" lon="0.14468">
        <ele>617.77</ele>
        <time>2018-08-11T13:18:42Z</time>
      </trkpt>
      <trkpt lat="42.50397" lon="0.14488">
        <ele>617.69</ele>
        <time>2018-08-11T13:18:43Z</time>
      </trkpt>
      <trkpt lat="42.50382" lon="0.14508">
        <ele>617.67</ele>
        <time>2018-08-11T13:18:44Z</time>
      </trkpt>
      <trkpt lat="42.50367" lon="0.14528">
        <ele>617.66</ele>
        <time>2018-08-11T13:18:45Z</time>
      </trkpt>
      <trkpt lat="42.50353" lon="0.14546">
        <ele>616.96</ele>
        <time>2018-08-11T13:18:46Z</time>
      </trkpt>
      <trkpt lat="42.50338" lon="0.14559">
        <ele>617.45</ele>
        <time>2018-08-11T13:18:47Z</time>
      </trkpt>
      <trkpt lat="42.50305" lon="0.14578">
        <ele>618.34</ele>
        <time>2018-08-11T13:18:49Z</time>
      </trkpt>
      <trkpt lat="42.50269" lon="0.14575">
        <ele>618.84</ele>
        <time>2018-08-11T13:18:51Z</time>
      </trkpt>
      <trkpt lat="42.50252" lon="0.1457">
        <ele>618.71</ele>
        <time>2018-08-11T13:18:52Z</time>
      </trkpt>
      <trkpt lat="42.50234" lon="0.14563">
        <ele>618.67</ele>
        <time>2018-08-11T13:18:53Z</time>
      </trkpt>
      <trkpt lat="42.50217" lon="0.14555">
        <ele>618.66</ele>
        <time>2018-08-11T13:18:54Z</time>
      </trkpt>
      <trkpt lat="42.50199" lon="0.14548">
        <ele>618.66</ele>
        <time>2018-08-11T13:18:55Z</time>
      </trkpt>
      <trkpt lat="42.50182" lon="0.1454">
        <ele>618.66</ele>
        <time>2018-08-11T13:18:56Z</time>
      </trkpt>
      <trkpt lat="42.50164" lon="0.14531">
        <ele>617.96</ele>
        <time>2018-08-11T13:18:57Z</time>
      </trkpt>
      <trkpt lat="42.50147" lon="0.14521">
        <ele>617.75</ele>
        <time>2018-08-11T13:18:58Z</time>
      </trkpt>
      <trkpt lat="42.5013" lon="0.14512">
        <ele>617.68</ele>
        <time>2018-08-11T13:18:59Z</time>
      </trkpt>
      <trkpt lat="42.50114" lon="0.14501">
        <ele>616.97</ele>
        <time>2018-08-11T13:19:00Z</time>
      </trkpt>
      <trkpt lat="42.50082" lon="0.14482">
        <ele>615.99</ele>
        <time>2018-08-11T13:19:02Z</time>
      </trkpt>
      <trkpt lat="42.50053" lon="0.14464">
        <ele>614.78</ele>
        <time>2018-08-11T13:19:04Z</time>
      </trkpt>
      <trkpt lat="42.50027" lon="0.14448">
        <ele>613.97</ele>
        <time>2018-08-11T13:19:06Z</time>
      </trkpt>
      <trkpt lat="42.50005" lon="0.14434">
        <ele>613.69</ele>
        <time>2018-08-11T13:19:08Z</time>
      </trkpt>
      <trkpt lat="42.49986" lon="0.14413">
        <ele>612.96</ele>
        <time>2018-08-11T13:19:11Z</time>
      </trkpt>
      <trkpt lat="42.49997" lon="0.14391">
        <ele>613.96</ele>
        <time>2018-08-11T13:19:31Z</time>
      </trkpt>
      <trkpt lat="42.50007" lon="0.14368">
        <ele>615.13</ele>
        <time>2018-08-11T13:19:34Z</time>
      </trkpt>
      <trkpt lat="42.50017" lon="0.14345">
        <ele>616.31</ele>
        <time>2018-08-11T13:19:36Z</time>
      </trkpt>
      <trkpt lat="42.50029" lon="0.14316">
        <ele>616.63</ele>
        <time>2018-08-11T13:19:38Z</time>
      </trkpt>
      <trkpt lat="42.50043" lon="0.14283">
        <ele>618.27</ele>
        <time>2018-08-11T13:19:40Z</time>
      </trkpt>
      <trkpt lat="42.50057" lon="0.14248">
        <ele>619.32</ele>
        <time>2018-08-11T13:19:42Z</time>
      </trkpt>
      <trkpt lat="42.50073" lon="0.14212">
        <ele>619.63</ele>
        <time>2018-08-11T13:19:44Z</time>
      </trkpt>
      <trkpt lat="42.50088" lon="0.14176">
        <ele>620.57</ele>
        <time>2018-08-11T13:19:46Z</time>
      </trkpt>
      <trkpt lat="42.50104" lon="0.1414">
        <ele>619.74</ele>
        <time>2018-08-11T13:19:48Z</time>
      </trkpt>
      <trkpt lat="42.50122" lon="0.14103">
        <ele>619.67</ele>
        <time>2018-08-11T13:19:50Z</time>
      </trkpt>
      <trkpt lat="42.50147" lon="0.14066">
        <ele>621.27</ele>
        <time>2018-08-11T13:19:52Z</time>
      </trkpt>
      <trkpt lat="42.50161" lon="0.14048">
        <ele>621.54</ele>
        <time>2018-08-11T13:19:53Z</time>
      </trkpt>
      <trkpt lat="42.50176" lon="0.14029">
        <ele>622.32</ele>
        <time>2018-08-11T13:19:54Z</time>
      </trkpt>
      <trkpt lat="42.5019" lon="0.14009">
        <ele>623.96</ele>
        <time>2018-08-11T13:19:55Z</time>
      </trkpt>
      <trkpt lat="42.50205" lon="0.1399">
        <ele>625.15</ele>
        <time>2018-08-11T13:19:56Z</time>
      </trkpt>
      <trkpt lat="42.5022" lon="0.1397">
        <ele>626.2</ele>
        <time>2018-08-11T13:19:57Z</time>
      </trkpt>
      <trkpt lat="42.50233" lon="0.13952">
        <ele>627.22</ele>
        <time>2018-08-11T13:19:58Z</time>
      </trkpt>
      <trkpt lat="42.50258" lon="0.13918">
        <ele>628.32</ele>
        <time>2018-08-11T13:20:00Z</time>
      </trkpt>
      <trkpt lat="42.50253" lon="0.13868">
        <ele>629.12</ele>
        <time>2018-08-11T13:20:02Z</time>
      </trkpt>
      <trkpt lat="42.50255" lon="0.13822">
        <ele>630.52</ele>
        <time>2018-08-11T13:20:04Z</time>
      </trkpt>
      <trkpt lat="42.50266" lon="0.13785">
        <ele>632.26</ele>
        <time>2018-08-11T13:20:06Z</time>
      </trkpt>
      <trkpt lat="42.50285" lon="0.13749">
        <ele>633.53</ele>
        <time>2018-08-11T13:20:08Z</time>
      </trkpt>
      <trkpt lat="42.50305" lon="0.13716">
        <ele>634.56</ele>
        <time>2018-08-11T13:20:10Z</time>
      </trkpt>
      <trkpt lat="42.50329" lon="0.13691">
        <ele>636.26</ele>
        <time>2018-08-11T13:20:12Z</time>
      </trkpt>
      <trkpt lat="42.50349" lon="0.1366">
        <ele>638.23</ele>
        <time>2018-08-11T13:20:14Z</time>
      </trkpt>
      <trkpt lat="42.50364" lon="0.13622">
        <ele>639.32</ele>
        <time>2018-08-11T13:20:16Z</time>
      </trkpt>
      <trkpt lat="42.50378" lon="0.1358">
        <ele>641.24</ele>
        <time>2018-08-11T13:20:18Z</time>
      </trkpt>
      <trkpt lat="42.50391" lon="0.13537">
        <ele>642.32</ele>
        <time>2018-08-11T13:20:20Z</time>
      </trkpt>
      <trkpt lat="42.50402" lon="0.13494">
        <ele>643.54</ele>
        <time>2018-08-11T13:20:22Z</time>
      </trkpt>
      <trkpt lat="42.50404" lon="0.13448">
        <ele>644.35</ele>
        <time>2018-08-11T13:20:24Z</time>
      </trkpt>
      <trkpt lat="42.50404" lon="0.13403">
        <ele>643.93</ele>
        <time>2018-08-11T13:20:26Z</time>
      </trkpt>
      <trkpt lat="42.50409" lon="0.13356">
        <ele>645.29</ele>
        <time>2018-08-11T13:20:28Z</time>
      </trkpt>
      <trkpt lat="42.50418" lon="0.13313">
        <ele>645.63</ele>
        <time>2018-08-11T13:20:30Z</time>
      </trkpt>
      <trkpt lat="42.50432" lon="0.13277">
        <ele>644.75</ele>
        <time>2018-08-11T13:20:32Z</time>
      </trkpt>
      <trkpt lat="42.50446" lon="0.13247">
        <ele>645.37</ele>
        <time>2018-08-11T13:20:34Z</time>
      </trkpt>
      <trkpt lat="42.50477" lon="0.13229">
        <ele>644.93</ele>
        <time>2018-08-11T13:20:36Z</time>
      </trkpt>
      <trkpt lat="42.50504" lon="0.13208">
        <ele>644.68</ele>
        <time>2018-08-11T13:20:38Z</time>
      </trkpt>
      <trkpt lat="42.5053" lon="0.13187">
        <ele>644.87</ele>
        <time>2018-08-11T13:20:40Z</time>
      </trkpt>
      <trkpt lat="42.50552" lon="0.13165">
        <ele>644.89</ele>
        <time>2018-08-11T13:20:42Z</time>
      </trkpt>
      <trkpt lat="42.50574" lon="0.13144">
        <ele>644.68</ele>
        <time>2018-08-11T13:20:44Z</time>
      </trkpt>
      <trkpt lat="42.50597" lon="0.13125">
        <ele>644.87</ele>
        <time>2018-08-11T13:20:46Z</time>
      </trkpt>
      <trkpt lat="42.50623" lon="0.13112">
        <ele>643.98</ele>
        <time>2018-08-11T13:20:48Z</time>
      </trkpt>
      <trkpt lat="42.50649" lon="0.131">
        <ele>643.69</ele>
        <time>2018-08-11T13:20:50Z</time>
      </trkpt>
      <trkpt lat="42.50672" lon="0.13092">
        <ele>643.66</ele>
        <time>2018-08-11T13:20:52Z</time>
      </trkpt>
      <trkpt lat="42.50697" lon="0.13083">
        <ele>644.63</ele>
        <time>2018-08-11T13:20:55Z</time>
      </trkpt>
      <trkpt lat="42.50725" lon="0.13077">
        <ele>644.93</ele>
        <time>2018-08-11T13:20:58Z</time>
      </trkpt>
      <trkpt lat="42.50756" lon="0.1307">
        <ele>644.68</ele>
        <time>2018-08-11T13:21:00Z</time>
      </trkpt>
      <trkpt lat="42.50789" lon="0.13056">
        <ele>645.57</ele>
        <time>2018-08-11T13:21:02Z</time>
      </trkpt>
      <trkpt lat="42.50819" lon="0.13038">
        <ele>645.65</ele>
        <time>2018-08-11T13:21:04Z</time>
      </trkpt>
      <trkpt lat="42.50844" lon="0.13024">
        <ele>645.87</ele>
        <time>2018-08-11T13:21:06Z</time>
      </trkpt>
      <trkpt lat="42.50865" lon="0.12996">
        <ele>646.59</ele>
        <time>2018-08-11T13:21:08Z</time>
      </trkpt>
      <trkpt lat="42.50884" lon="0.12962">
        <ele>645.04</ele>
        <time>2018-08-11T13:21:10Z</time>
      </trkpt>
      <trkpt lat="42.50901" lon="0.12931">
        <ele>643.99</ele>
        <time>2018-08-11T13:21:12Z</time>
      </trkpt>
      <trkpt lat="42.5092" lon="0.12913">
        <ele>642.08</ele>
        <time>2018-08-11T13:21:14Z</time>
      </trkpt>
      <trkpt lat="42.50936" lon="0.12891">
        <ele>641</ele>
        <time>2018-08-11T13:21:16Z</time>
      </trkpt>
      <trkpt lat="42.50944" lon="0.12861">
        <ele>638.87</ele>
        <time>2018-08-11T13:21:18Z</time>
      </trkpt>
      <trkpt lat="42.50934" lon="0.12827">
        <ele>638.68</ele>
        <time>2018-08-11T13:21:20Z</time>
      </trkpt>
      <trkpt lat="42.50928" lon="0.12797">
        <ele>637.75</ele>
        <time>2018-08-11T13:21:22Z</time>
      </trkpt>
      <trkpt lat="42.50925" lon="0.12768">
        <ele>638.37</ele>
        <time>2018-08-11T13:21:24Z</time>
      </trkpt>
      <trkpt lat="42.50929" lon="0.12742">
        <ele>637.93</ele>
        <time>2018-08-11T13:21:26Z</time>
      </trkpt>
      <trkpt lat="42.50943" lon="0.12722">
        <ele>637.68</ele>
        <time>2018-08-11T13:21:28Z</time>
      </trkpt>
      <trkpt lat="42.50964" lon="0.12704">
        <ele>636.75</ele>
        <time>2018-08-11T13:21:30Z</time>
      </trkpt>
      <trkpt lat="42.50987" lon="0.12681">
        <ele>636.67</ele>
        <time>2018-08-11T13:21:32Z</time>
      </trkpt>
      <trkpt lat="42.51008" lon="0.1266">
        <ele>636.66</ele>
        <time>2018-08-11T13:21:34Z</time>
      </trkpt>
      <trkpt lat="42.51027" lon="0.1264">
        <ele>635.96</ele>
        <time>2018-08-11T13:21:36Z</time>
      </trkpt>
      <trkpt lat="42.51046" lon="0.12621">
        <ele>635.68</ele>
        <time>2018-08-11T13:21:38Z</time>
      </trkpt>
      <trkpt lat="42.51066" lon="0.12602">
        <ele>636.36</ele>
        <time>2018-08-11T13:21:40Z</time>
      </trkpt>
      <trkpt lat="42.51084" lon="0.12582">
        <ele>636.63</ele>
        <time>2018-08-11T13:21:42Z</time>
      </trkpt>
      <trkpt lat="42.51097" lon="0.12561">
        <ele>636.87</ele>
        <time>2018-08-11T13:21:44Z</time>
      </trkpt>
      <trkpt lat="42.51118" lon="0.12547">
        <ele>636.66</ele>
        <time>2018-08-11T13:21:47Z</time>
      </trkpt>
      <trkpt lat="42.51142" lon="0.12552">
        <ele>636.72</ele>
        <time>2018-08-11T13:21:50Z</time>
      </trkpt>
      <trkpt lat="42.51163" lon="0.12536">
        <ele>636.66</ele>
        <time>2018-08-11T13:21:53Z</time>
      </trkpt>
      <trkpt lat="42.51181" lon="0.12512">
        <ele>635.96</ele>
        <time>2018-08-11T13:21:56Z</time>
      </trkpt>
      <trkpt lat="42.51184" lon="0.1248">
        <ele>635.46</ele>
        <time>2018-08-11T13:21:59Z</time>
      </trkpt>
      <trkpt lat="42.51173" lon="0.12459">
        <ele>636.55</ele>
        <time>2018-08-11T13:22:01Z</time>
      </trkpt>
      <trkpt lat="42.51156" lon="0.12438">
        <ele>636.65</ele>
        <time>2018-08-11T13:22:03Z</time>
      </trkpt>
      <trkpt lat="42.51138" lon="0.12422">
        <ele>636.66</ele>
        <time>2018-08-11T13:22:05Z</time>
      </trkpt>
      <trkpt lat="42.51123" lon="0.12406">
        <ele>637.57</ele>
        <time>2018-08-11T13:22:07Z</time>
      </trkpt>
      <trkpt lat="42.51118" lon="0.1237">
        <ele>638.57</ele>
        <time>2018-08-11T13:22:10Z</time>
      </trkpt>
      <trkpt lat="42.51119" lon="0.12345">
        <ele>639.35</ele>
        <time>2018-08-11T13:22:12Z</time>
      </trkpt>
      <trkpt lat="42.5112" lon="0.12321">
        <ele>641.24</ele>
        <time>2018-08-11T13:22:14Z</time>
      </trkpt>
      <trkpt lat="42.51121" lon="0.12295">
        <ele>641.62</ele>
        <time>2018-08-11T13:22:16Z</time>
      </trkpt>
      <trkpt lat="42.51122" lon="0.12269">
        <ele>642.35</ele>
        <time>2018-08-11T13:22:18Z</time>
      </trkpt>
      <trkpt lat="42.51122" lon="0.12243">
        <ele>644.24</ele>
        <time>2018-08-11T13:22:20Z</time>
      </trkpt>
      <trkpt lat="42.51117" lon="0.12215">
        <ele>645.32</ele>
        <time>2018-08-11T13:22:22Z</time>
      </trkpt>
      <trkpt lat="42.51109" lon="0.12187">
        <ele>644.72</ele>
        <time>2018-08-11T13:22:24Z</time>
      </trkpt>
      <trkpt lat="42.51098" lon="0.12161">
        <ele>644.87</ele>
        <time>2018-08-11T13:22:26Z</time>
      </trkpt>
      <trkpt lat="42.51092" lon="0.1213">
        <ele>644.68</ele>
        <time>2018-08-11T13:22:28Z</time>
      </trkpt>
      <trkpt lat="42.51096" lon="0.121">
        <ele>644.66</ele>
        <time>2018-08-11T13:22:30Z</time>
      </trkpt>
      <trkpt lat="42.51106" lon="0.12072">
        <ele>645.36</ele>
        <time>2018-08-11T13:22:32Z</time>
      </trkpt>
      <trkpt lat="42.51119" lon="0.12044">
        <ele>646.33</ele>
        <time>2018-08-11T13:22:34Z</time>
      </trkpt>
      <trkpt lat="42.51132" lon="0.12015">
        <ele>647.33</ele>
        <time>2018-08-11T13:22:36Z</time>
      </trkpt>
      <trkpt lat="42.51146" lon="0.11986">
        <ele>647.63</ele>
        <time>2018-08-11T13:22:38Z</time>
      </trkpt>
      <trkpt lat="42.51163" lon="0.11957">
        <ele>647.66</ele>
        <time>2018-08-11T13:22:40Z</time>
      </trkpt>
      <trkpt lat="42.5118" lon="0.11928">
        <ele>648.57</ele>
        <time>2018-08-11T13:22:42Z</time>
      </trkpt>
      <trkpt lat="42.51198" lon="0.11898">
        <ele>648.65</ele>
        <time>2018-08-11T13:22:44Z</time>
      </trkpt>
      <trkpt lat="42.51216" lon="0.11867">
        <ele>647.75</ele>
        <time>2018-08-11T13:22:46Z</time>
      </trkpt>
      <trkpt lat="42.51233" lon="0.11834">
        <ele>649.28</ele>
        <time>2018-08-11T13:22:48Z</time>
      </trkpt>
      <trkpt lat="42.51253" lon="0.11806">
        <ele>650.32</ele>
        <time>2018-08-11T13:22:50Z</time>
      </trkpt>
      <trkpt lat="42.51278" lon="0.11785">
        <ele>651.33</ele>
        <time>2018-08-11T13:22:52Z</time>
      </trkpt>
      <trkpt lat="42.51301" lon="0.11767">
        <ele>651.63</ele>
        <time>2018-08-11T13:22:54Z</time>
      </trkpt>
      <trkpt lat="42.51322" lon="0.11749">
        <ele>652.57</ele>
        <time>2018-08-11T13:22:56Z</time>
      </trkpt>
      <trkpt lat="42.51342" lon="0.11732">
        <ele>653.35</ele>
        <time>2018-08-11T13:22:58Z</time>
      </trkpt>
      <trkpt lat="42.51363" lon="0.11717">
        <ele>653.63</ele>
        <time>2018-08-11T13:23:00Z</time>
      </trkpt>
      <trkpt lat="42.51386" lon="0.11706">
        <ele>653.66</ele>
        <time>2018-08-11T13:23:02Z</time>
      </trkpt>
      <trkpt lat="42.51408" lon="0.11695">
        <ele>655.27</ele>
        <time>2018-08-11T13:23:04Z</time>
      </trkpt>
      <trkpt lat="42.51429" lon="0.11675">
        <ele>655.41</ele>
        <time>2018-08-11T13:23:06Z</time>
      </trkpt>
      <trkpt lat="42.51448" lon="0.11649">
        <ele>654.73</ele>
        <time>2018-08-11T13:23:08Z</time>
      </trkpt>
      <trkpt lat="42.51467" lon="0.11623">
        <ele>653.75</ele>
        <time>2018-08-11T13:23:10Z</time>
      </trkpt>
      <trkpt lat="42.51481" lon="0.11593">
        <ele>653.46</ele>
        <time>2018-08-11T13:23:12Z</time>
      </trkpt>
      <trkpt lat="42.51486" lon="0.11556">
        <ele>654.13</ele>
        <time>2018-08-11T13:23:14Z</time>
      </trkpt>
      <trkpt lat="42.51485" lon="0.1152">
        <ele>654.61</ele>
        <time>2018-08-11T13:23:16Z</time>
      </trkpt>
      <trkpt lat="42.51479" lon="0.11482">
        <ele>655.56</ele>
        <time>2018-08-11T13:23:18Z</time>
      </trkpt>
      <trkpt lat="42.51469" lon="0.11447">
        <ele>656.56</ele>
        <time>2018-08-11T13:23:20Z</time>
      </trkpt>
      <trkpt lat="42.51459" lon="0.11412">
        <ele>656.44</ele>
        <time>2018-08-11T13:23:22Z</time>
      </trkpt>
      <trkpt lat="42.51448" lon="0.11378">
        <ele>655.73</ele>
        <time>2018-08-11T13:23:24Z</time>
      </trkpt>
      <trkpt lat="42.51436" lon="0.11345">
        <ele>655.45</ele>
        <time>2018-08-11T13:23:26Z</time>
      </trkpt>
      <trkpt lat="42.51433" lon="0.11311">
        <ele>656.34</ele>
        <time>2018-08-11T13:23:28Z</time>
      </trkpt>
      <trkpt lat="42.51436" lon="0.11283">
        <ele>658.24</ele>
        <time>2018-08-11T13:23:30Z</time>
      </trkpt>
      <trkpt lat="42.51443" lon="0.11258">
        <ele>657.71</ele>
        <time>2018-08-11T13:23:32Z</time>
      </trkpt>
      <trkpt lat="42.51443" lon="0.11232">
        <ele>657.87</ele>
        <time>2018-08-11T13:23:34Z</time>
      </trkpt>
      <trkpt lat="42.51438" lon="0.11203">
        <ele>657.68</ele>
        <time>2018-08-11T13:23:36Z</time>
      </trkpt>
      <trkpt lat="42.51437" lon="0.11172">
        <ele>657.66</ele>
        <time>2018-08-11T13:23:38Z</time>
      </trkpt>
      <trkpt lat="42.51437" lon="0.11137">
        <ele>658.57</ele>
        <time>2018-08-11T13:23:40Z</time>
      </trkpt>
      <trkpt lat="42.51446" lon="0.11103">
        <ele>659.56</ele>
        <time>2018-08-11T13:23:42Z</time>
      </trkpt>
      <trkpt lat="42.51461" lon="0.11072">
        <ele>660.35</ele>
        <time>2018-08-11T13:23:44Z</time>
      </trkpt>
      <trkpt lat="42.51481" lon="0.11044">
        <ele>660.63</ele>
        <time>2018-08-11T13:23:46Z</time>
      </trkpt>
      <trkpt lat="42.51507" lon="0.11023">
        <ele>661.36</ele>
        <time>2018-08-11T13:23:48Z</time>
      </trkpt>
      <trkpt lat="42.51534" lon="0.11007">
        <ele>661.63</ele>
        <time>2018-08-11T13:23:50Z</time>
      </trkpt>
      <trkpt lat="42.5156" lon="0.10995">
        <ele>664.18</ele>
        <time>2018-08-11T13:23:52Z</time>
      </trkpt>
      <trkpt lat="42.51589" lon="0.10982">
        <ele>665.31</ele>
        <time>2018-08-11T13:23:54Z</time>
      </trkpt>
      <trkpt lat="42.51619" lon="0.1097">
        <ele>665.63</ele>
        <time>2018-08-11T13:23:56Z</time>
      </trkpt>
      <trkpt lat="42.51645" lon="0.10961">
        <ele>666.36</ele>
        <time>2018-08-11T13:23:58Z</time>
      </trkpt>
      <trkpt lat="42.51671" lon="0.10959">
        <ele>665.93</ele>
        <time>2018-08-11T13:24:00Z</time>
      </trkpt>
      <trkpt lat="42.51699" lon="0.10963">
        <ele>667.08</ele>
        <time>2018-08-11T13:24:02Z</time>
      </trkpt>
      <trkpt lat="42.51725" lon="0.10968">
        <ele>667.61</ele>
        <time>2018-08-11T13:24:04Z</time>
      </trkpt>
      <trkpt lat="42.51746" lon="0.10971">
        <ele>667.44</ele>
        <time>2018-08-11T13:24:06Z</time>
      </trkpt>
      <trkpt lat="42.51763" lon="0.10962">
        <ele>666.94</ele>
        <time>2018-08-11T13:24:08Z</time>
      </trkpt>
      <trkpt lat="42.51774" lon="0.10938">
        <ele>666.67</ele>
        <time>2018-08-11T13:24:11Z</time>
      </trkpt>
      <trkpt lat="42.51772" lon="0.10908">
        <ele>666.66</ele>
        <time>2018-08-11T13:24:14Z</time>
      </trkpt>
      <trkpt lat="42.51773" lon="0.10873">
        <ele>666.45</ele>
        <time>2018-08-11T13:24:17Z</time>
      </trkpt>
      <trkpt lat="42.5178" lon="0.10849">
        <ele>667.55</ele>
        <time>2018-08-11T13:24:19Z</time>
      </trkpt>
      <trkpt lat="42.51787" lon="0.10816">
        <ele>669.33</ele>
        <time>2018-08-11T13:24:22Z</time>
      </trkpt>
      <trkpt lat="42.51766" lon="0.10795">
        <ele>671.32</ele>
        <time>2018-08-11T13:24:25Z</time>
      </trkpt>
      <trkpt lat="42.51748" lon="0.1079">
        <ele>672.54</ele>
        <time>2018-08-11T13:24:27Z</time>
      </trkpt>
      <trkpt lat="42.51729" lon="0.10784">
        <ele>672.65</ele>
        <time>2018-08-11T13:24:29Z</time>
      </trkpt>
      <trkpt lat="42.51705" lon="0.10778">
        <ele>673.63</ele>
        <time>2018-08-11T13:24:32Z</time>
      </trkpt>
      <trkpt lat="42.51682" lon="0.10771">
        <ele>675.33</ele>
        <time>2018-08-11T13:24:35Z</time>
      </trkpt>
      <trkpt lat="42.51658" lon="0.10761">
        <ele>676.62</ele>
        <time>2018-08-11T13:24:38Z</time>
      </trkpt>
      <trkpt lat="42.51637" lon="0.10743">
        <ele>677.29</ele>
        <time>2018-08-11T13:24:41Z</time>
      </trkpt>
      <trkpt lat="42.51625" lon="0.10713">
        <ele>680.23</ele>
        <time>2018-08-11T13:24:44Z</time>
      </trkpt>
      <trkpt lat="42.51616" lon="0.10678">
        <ele>681.62</ele>
        <time>2018-08-11T13:24:47Z</time>
      </trkpt>
      <trkpt lat="42.51609" lon="0.10653">
        <ele>684.87</ele>
        <time>2018-08-11T13:24:49Z</time>
      </trkpt>
      <trkpt lat="42.516" lon="0.10628">
        <ele>686.29</ele>
        <time>2018-08-11T13:24:51Z</time>
      </trkpt>
      <trkpt lat="42.51594" lon="0.10603">
        <ele>687.32</ele>
        <time>2018-08-11T13:24:53Z</time>
      </trkpt>
      <trkpt lat="42.51583" lon="0.10583">
        <ele>689.24</ele>
        <time>2018-08-11T13:24:55Z</time>
      </trkpt>
      <trkpt lat="42.51574" lon="0.1056">
        <ele>691.93</ele>
        <time>2018-08-11T13:24:57Z</time>
      </trkpt>
      <trkpt lat="42.51571" lon="0.10535">
        <ele>694.9</ele>
        <time>2018-08-11T13:24:59Z</time>
      </trkpt>
      <trkpt lat="42.51561" lon="0.10505">
        <ele>700.17</ele>
        <time>2018-08-11T13:25:02Z</time>
      </trkpt>
      <trkpt lat="42.51541" lon="0.10489">
        <ele>701.71</ele>
        <time>2018-08-11T13:25:06Z</time>
      </trkpt>
      <trkpt lat="42.51539" lon="0.10461">
        <ele>702.65</ele>
        <time>2018-08-11T13:25:10Z</time>
      </trkpt>
      <trkpt lat="42.51554" lon="0.10444">
        <ele>704.54</ele>
        <time>2018-08-11T13:25:13Z</time>
      </trkpt>
      <trkpt lat="42.5156" lon="0.10421">
        <ele>704.87</ele>
        <time>2018-08-11T13:25:17Z</time>
      </trkpt>
      <trkpt lat="42.51554" lon="0.10446">
        <ele>706.66</ele>
        <time>2018-08-11T13:25:36Z</time>
      </trkpt>
      <trkpt lat="42.51537" lon="0.1046">
        <ele>704.76</ele>
        <time>2018-08-11T13:25:40Z</time>
      </trkpt>
      <trkpt lat="42.51537" lon="0.10487">
        <ele>703.69</ele>
        <time>2018-08-11T13:25:45Z</time>
      </trkpt>
      <trkpt lat="42.51558" lon="0.10503">
        <ele>702.69</ele>
        <time>2018-08-11T13:25:49Z</time>
      </trkpt>
      <trkpt lat="42.51571" lon="0.10528">
        <ele>699.97</ele>
        <time>2018-08-11T13:25:53Z</time>
      </trkpt>
      <trkpt lat="42.51576" lon="0.10554">
        <ele>697.78</ele>
        <time>2018-08-11T13:25:56Z</time>
      </trkpt>
      <trkpt lat="42.51586" lon="0.10581">
        <ele>694.87</ele>
        <time>2018-08-11T13:25:59Z</time>
      </trkpt>
      <trkpt lat="42.51599" lon="0.10605">
        <ele>692.78</ele>
        <time>2018-08-11T13:26:02Z</time>
      </trkpt>
      <trkpt lat="42.51606" lon="0.10637">
        <ele>690.99</ele>
        <time>2018-08-11T13:26:05Z</time>
      </trkpt>
      <trkpt lat="42.51613" lon="0.10662">
        <ele>689.29</ele>
        <time>2018-08-11T13:26:07Z</time>
      </trkpt>
      <trkpt lat="42.5162" lon="0.10688">
        <ele>686.89</ele>
        <time>2018-08-11T13:26:09Z</time>
      </trkpt>
      <trkpt lat="42.51629" lon="0.10713">
        <ele>686.68</ele>
        <time>2018-08-11T13:26:11Z</time>
      </trkpt>
      <trkpt lat="42.51638" lon="0.10736">
        <ele>686.45</ele>
        <time>2018-08-11T13:26:13Z</time>
      </trkpt>
      <trkpt lat="42.51658" lon="0.10757">
        <ele>684.98</ele>
        <time>2018-08-11T13:26:16Z</time>
      </trkpt>
      <trkpt lat="42.51678" lon="0.10768">
        <ele>684.69</ele>
        <time>2018-08-11T13:26:18Z</time>
      </trkpt>
      <trkpt lat="42.51698" lon="0.10776">
        <ele>684.66</ele>
        <time>2018-08-11T13:26:20Z</time>
      </trkpt>
      <trkpt lat="42.5172" lon="0.10781">
        <ele>684.66</ele>
        <time>2018-08-11T13:26:22Z</time>
      </trkpt>
      <trkpt lat="42.5174" lon="0.10786">
        <ele>683.05</ele>
        <time>2018-08-11T13:26:24Z</time>
      </trkpt>
      <trkpt lat="42.5176" lon="0.10792">
        <ele>680.8</ele>
        <time>2018-08-11T13:26:26Z</time>
      </trkpt>
      <trkpt lat="42.5178" lon="0.10803">
        <ele>678.15</ele>
        <time>2018-08-11T13:26:28Z</time>
      </trkpt>
      <trkpt lat="42.51788" lon="0.1083">
        <ele>674.39</ele>
        <time>2018-08-11T13:26:31Z</time>
      </trkpt>
      <trkpt lat="42.51776" lon="0.10863">
        <ele>671.09</ele>
        <time>2018-08-11T13:26:34Z</time>
      </trkpt>
      <trkpt lat="42.51771" lon="0.10887">
        <ele>669.3</ele>
        <time>2018-08-11T13:26:36Z</time>
      </trkpt>
      <trkpt lat="42.51773" lon="0.10921">
        <ele>667.77</ele>
        <time>2018-08-11T13:26:39Z</time>
      </trkpt>
      <trkpt lat="42.51775" lon="0.10946">
        <ele>668.57</ele>
        <time>2018-08-11T13:26:42Z</time>
      </trkpt>
      <trkpt lat="42.51759" lon="0.10972">
        <ele>669.15</ele>
        <time>2018-08-11T13:26:46Z</time>
      </trkpt>
      <trkpt lat="42.51732" lon="0.10972">
        <ele>670.34</ele>
        <time>2018-08-11T13:26:49Z</time>
      </trkpt>
      <trkpt lat="42.5171" lon="0.10966">
        <ele>670.63</ele>
        <time>2018-08-11T13:26:51Z</time>
      </trkpt>
      <trkpt lat="42.51687" lon="0.1096">
        <ele>669.75</ele>
        <time>2018-08-11T13:26:53Z</time>
      </trkpt>
      <trkpt lat="42.51662" lon="0.10959">
        <ele>668.76</ele>
        <time>2018-08-11T13:26:55Z</time>
      </trkpt>
      <trkpt lat="42.51637" lon="0.10963">
        <ele>669.37</ele>
        <time>2018-08-11T13:26:57Z</time>
      </trkpt>
      <trkpt lat="42.51611" lon="0.10974">
        <ele>669.63</ele>
        <time>2018-08-11T13:26:59Z</time>
      </trkpt>
      <trkpt lat="42.51586" lon="0.10986">
        <ele>668.75</ele>
        <time>2018-08-11T13:27:01Z</time>
      </trkpt>
      <trkpt lat="42.5156" lon="0.10999">
        <ele>668.67</ele>
        <time>2018-08-11T13:27:03Z</time>
      </trkpt>
      <trkpt lat="42.51534" lon="0.11012">
        <ele>668.66</ele>
        <time>2018-08-11T13:27:05Z</time>
      </trkpt>
      <trkpt lat="42.5151" lon="0.11026">
        <ele>667.75</ele>
        <time>2018-08-11T13:27:07Z</time>
      </trkpt>
      <trkpt lat="42.51485" lon="0.11047">
        <ele>666.97</ele>
        <time>2018-08-11T13:27:09Z</time>
      </trkpt>
      <trkpt lat="42.51465" lon="0.11074">
        <ele>665.99</ele>
        <time>2018-08-11T13:27:11Z</time>
      </trkpt>
      <trkpt lat="42.51449" lon="0.11104">
        <ele>662.96</ele>
        <time>2018-08-11T13:27:13Z</time>
      </trkpt>
      <trkpt lat="42.5144" lon="0.11138">
        <ele>662.68</ele>
        <time>2018-08-11T13:27:15Z</time>
      </trkpt>
      <trkpt lat="42.51436" lon="0.11174">
        <ele>662.66</ele>
        <time>2018-08-11T13:27:17Z</time>
      </trkpt>
      <trkpt lat="42.51438" lon="0.11209">
        <ele>662.66</ele>
        <time>2018-08-11T13:27:19Z</time>
      </trkpt>
      <trkpt lat="42.51443" lon="0.11241">
        <ele>661.26</ele>
        <time>2018-08-11T13:27:21Z</time>
      </trkpt>
      <trkpt lat="42.51442" lon="0.11268">
        <ele>659.8</ele>
        <time>2018-08-11T13:27:23Z</time>
      </trkpt>
      <trkpt lat="42.51435" lon="0.11295">
        <ele>659.67</ele>
        <time>2018-08-11T13:27:25Z</time>
      </trkpt>
      <trkpt lat="42.51433" lon="0.11327">
        <ele>658.05</ele>
        <time>2018-08-11T13:27:27Z</time>
      </trkpt>
      <trkpt lat="42.5144" lon="0.11363">
        <ele>656.78</ele>
        <time>2018-08-11T13:27:29Z</time>
      </trkpt>
      <trkpt lat="42.51452" lon="0.11398">
        <ele>655.76</ele>
        <time>2018-08-11T13:27:31Z</time>
      </trkpt>
      <trkpt lat="42.51464" lon="0.11434">
        <ele>654.76</ele>
        <time>2018-08-11T13:27:33Z</time>
      </trkpt>
      <trkpt lat="42.51475" lon="0.11469">
        <ele>654.67</ele>
        <time>2018-08-11T13:27:35Z</time>
      </trkpt>
      <trkpt lat="42.51483" lon="0.11505">
        <ele>653.96</ele>
        <time>2018-08-11T13:27:37Z</time>
      </trkpt>
      <trkpt lat="42.51485" lon="0.11542">
        <ele>653.48</ele>
        <time>2018-08-11T13:27:39Z</time>
      </trkpt>
      <trkpt lat="42.51483" lon="0.11579">
        <ele>653.64</ele>
        <time>2018-08-11T13:27:41Z</time>
      </trkpt>
      <trkpt lat="42.51474" lon="0.11613">
        <ele>652.96</ele>
        <time>2018-08-11T13:27:43Z</time>
      </trkpt>
      <trkpt lat="42.51458" lon="0.11638">
        <ele>651.77</ele>
        <time>2018-08-11T13:27:45Z</time>
      </trkpt>
      <trkpt lat="42.5144" lon="0.11662">
        <ele>652.37</ele>
        <time>2018-08-11T13:27:47Z</time>
      </trkpt>
      <trkpt lat="42.51421" lon="0.11688">
        <ele>653.54</ele>
        <time>2018-08-11T13:27:49Z</time>
      </trkpt>
      <trkpt lat="42.51396" lon="0.11705">
        <ele>653.65</ele>
        <time>2018-08-11T13:27:51Z</time>
      </trkpt>
      <trkpt lat="42.51371" lon="0.11717">
        <ele>651.35</ele>
        <time>2018-08-11T13:27:53Z</time>
      </trkpt>
      <trkpt lat="42.51345" lon="0.11735">
        <ele>649.81</ele>
        <time>2018-08-11T13:27:55Z</time>
      </trkpt>
      <trkpt lat="42.51318" lon="0.11756">
        <ele>648.97</ele>
        <time>2018-08-11T13:27:57Z</time>
      </trkpt>
      <trkpt lat="42.51292" lon="0.11778">
        <ele>647.99</ele>
        <time>2018-08-11T13:27:59Z</time>
      </trkpt>
      <trkpt lat="42.51266" lon="0.11798">
        <ele>647.69</ele>
        <time>2018-08-11T13:28:01Z</time>
      </trkpt>
      <trkpt lat="42.51244" lon="0.1182">
        <ele>647.66</ele>
        <time>2018-08-11T13:28:03Z</time>
      </trkpt>
      <trkpt lat="42.51226" lon="0.1185">
        <ele>648.57</ele>
        <time>2018-08-11T13:28:05Z</time>
      </trkpt>
      <trkpt lat="42.51207" lon="0.11884">
        <ele>649.35</ele>
        <time>2018-08-11T13:28:07Z</time>
      </trkpt>
      <trkpt lat="42.51185" lon="0.1192">
        <ele>648.93</ele>
        <time>2018-08-11T13:28:09Z</time>
      </trkpt>
      <trkpt lat="42.51164" lon="0.11955">
        <ele>648.68</ele>
        <time>2018-08-11T13:28:11Z</time>
      </trkpt>
      <trkpt lat="42.51144" lon="0.1199">
        <ele>648.66</ele>
        <time>2018-08-11T13:28:13Z</time>
      </trkpt>
      <trkpt lat="42.51126" lon="0.12025">
        <ele>647.96</ele>
        <time>2018-08-11T13:28:15Z</time>
      </trkpt>
      <trkpt lat="42.5111" lon="0.12062">
        <ele>646.99</ele>
        <time>2018-08-11T13:28:17Z</time>
      </trkpt>
      <trkpt lat="42.51097" lon="0.12096">
        <ele>646.69</ele>
        <time>2018-08-11T13:28:19Z</time>
      </trkpt>
      <trkpt lat="42.5109" lon="0.12129">
        <ele>645.75</ele>
        <time>2018-08-11T13:28:21Z</time>
      </trkpt>
      <trkpt lat="42.51094" lon="0.12162">
        <ele>645.67</ele>
        <time>2018-08-11T13:28:23Z</time>
      </trkpt>
      <trkpt lat="42.51108" lon="0.12195">
        <ele>645.66</ele>
        <time>2018-08-11T13:28:25Z</time>
      </trkpt>
      <trkpt lat="42.51119" lon="0.12235">
        <ele>644.75</ele>
        <time>2018-08-11T13:28:27Z</time>
      </trkpt>
      <trkpt lat="42.51121" lon="0.12277">
        <ele>643.06</ele>
        <time>2018-08-11T13:28:29Z</time>
      </trkpt>
      <trkpt lat="42.51119" lon="0.1232">
        <ele>641.78</ele>
        <time>2018-08-11T13:28:31Z</time>
      </trkpt>
      <trkpt lat="42.51118" lon="0.12359">
        <ele>640.76</ele>
        <time>2018-08-11T13:28:33Z</time>
      </trkpt>
      <trkpt lat="42.51118" lon="0.1239">
        <ele>639.97</ele>
        <time>2018-08-11T13:28:35Z</time>
      </trkpt>
      <trkpt lat="42.51131" lon="0.12418">
        <ele>638.69</ele>
        <time>2018-08-11T13:28:38Z</time>
      </trkpt>
      <trkpt lat="42.51149" lon="0.12432">
        <ele>637.05</ele>
        <time>2018-08-11T13:28:40Z</time>
      </trkpt>
      <trkpt lat="42.51167" lon="0.12451">
        <ele>635.78</ele>
        <time>2018-08-11T13:28:42Z</time>
      </trkpt>
      <trkpt lat="42.51181" lon="0.12473">
        <ele>634.97</ele>
        <time>2018-08-11T13:28:44Z</time>
      </trkpt>
      <trkpt lat="42.51184" lon="0.12502">
        <ele>633.69</ele>
        <time>2018-08-11T13:28:47Z</time>
      </trkpt>
      <trkpt lat="42.51173" lon="0.12525">
        <ele>633.66</ele>
        <time>2018-08-11T13:28:50Z</time>
      </trkpt>
      <trkpt lat="42.51154" lon="0.12547">
        <ele>633.66</ele>
        <time>2018-08-11T13:28:53Z</time>
      </trkpt>
      <trkpt lat="42.5113" lon="0.12548">
        <ele>633.66</ele>
        <time>2018-08-11T13:28:56Z</time>
      </trkpt>
      <trkpt lat="42.51108" lon="0.1255">
        <ele>634.36</ele>
        <time>2018-08-11T13:28:59Z</time>
      </trkpt>
      <trkpt lat="42.51089" lon="0.12576">
        <ele>633.95</ele>
        <time>2018-08-11T13:29:02Z</time>
      </trkpt>
      <trkpt lat="42.51074" lon="0.12596">
        <ele>634.59</ele>
        <time>2018-08-11T13:29:04Z</time>
      </trkpt>
      <trkpt lat="42.51055" lon="0.12615">
        <ele>634.65</ele>
        <time>2018-08-11T13:29:06Z</time>
      </trkpt>
      <trkpt lat="42.51034" lon="0.12634">
        <ele>634.66</ele>
        <time>2018-08-11T13:29:08Z</time>
      </trkpt>
      <trkpt lat="42.51012" lon="0.12655">
        <ele>635.57</ele>
        <time>2018-08-11T13:29:10Z</time>
      </trkpt>
      <trkpt lat="42.50989" lon="0.12677">
        <ele>637.26</ele>
        <time>2018-08-11T13:29:12Z</time>
      </trkpt>
      <trkpt lat="42.50968" lon="0.12697">
        <ele>637.62</ele>
        <time>2018-08-11T13:29:14Z</time>
      </trkpt>
      <trkpt lat="42.50948" lon="0.12715">
        <ele>638.56</ele>
        <time>2018-08-11T13:29:16Z</time>
      </trkpt>
      <trkpt lat="42.50931" lon="0.12733">
        <ele>639.56</ele>
        <time>2018-08-11T13:29:18Z</time>
      </trkpt>
      <trkpt lat="42.50921" lon="0.12754">
        <ele>639.65</ele>
        <time>2018-08-11T13:29:20Z</time>
      </trkpt>
      <trkpt lat="42.50923" lon="0.12784">
        <ele>640.63</ele>
        <time>2018-08-11T13:29:23Z</time>
      </trkpt>
      <trkpt lat="42.50908" lon="0.12767">
        <ele>637.05</ele>
        <time>2018-08-11T13:29:32Z</time>
      </trkpt>
      <trkpt lat="42.50908" lon="0.12735">
        <ele>634.15</ele>
        <time>2018-08-11T13:29:35Z</time>
      </trkpt>
      <trkpt lat="42.50921" lon="0.12709">
        <ele>631.79</ele>
        <time>2018-08-11T13:29:38Z</time>
      </trkpt>
      <trkpt lat="42.50918" lon="0.1268">
        <ele>629.99</ele>
        <time>2018-08-11T13:29:41Z</time>
      </trkpt>
      <trkpt lat="42.50907" lon="0.12653">
        <ele>629.67</ele>
        <time>2018-08-11T13:29:44Z</time>
      </trkpt>
      <trkpt lat="42.50896" lon="0.12629">
        <ele>629.66</ele>
        <time>2018-08-11T13:29:47Z</time>
      </trkpt>
      <trkpt lat="42.509" lon="0.12605">
        <ele>630.57</ele>
        <time>2018-08-11T13:29:50Z</time>
      </trkpt>
      <trkpt lat="42.5092" lon="0.12594">
        <ele>631.36</ele>
        <time>2018-08-11T13:29:53Z</time>
      </trkpt>
      <trkpt lat="42.50944" lon="0.12577">
        <ele>630.68</ele>
        <time>2018-08-11T13:29:56Z</time>
      </trkpt>
      <trkpt lat="42.50958" lon="0.1256">
        <ele>631.57</ele>
        <time>2018-08-11T13:29:58Z</time>
      </trkpt>
      <trkpt lat="42.50972" lon="0.1254">
        <ele>633.26</ele>
        <time>2018-08-11T13:30:00Z</time>
      </trkpt>
      <trkpt lat="42.50986" lon="0.12518">
        <ele>633.83</ele>
        <time>2018-08-11T13:30:02Z</time>
      </trkpt>
      <trkpt lat="42.50986" lon="0.12482">
        <ele>635.34</ele>
        <time>2018-08-11T13:30:05Z</time>
      </trkpt>
      <trkpt lat="42.50976" lon="0.12457">
        <ele>637.24</ele>
        <time>2018-08-11T13:30:07Z</time>
      </trkpt>
      <trkpt lat="42.50966" lon="0.1243">
        <ele>636.92</ele>
        <time>2018-08-11T13:30:09Z</time>
      </trkpt>
      <trkpt lat="42.50966" lon="0.12398">
        <ele>637.37</ele>
        <time>2018-08-11T13:30:12Z</time>
      </trkpt>
      <trkpt lat="42.5098" lon="0.12373">
        <ele>637.65</ele>
        <time>2018-08-11T13:30:15Z</time>
      </trkpt>
      <trkpt lat="42.50994" lon="0.12351">
        <ele>638.36</ele>
        <time>2018-08-11T13:30:17Z</time>
      </trkpt>
      <trkpt lat="42.51005" lon="0.12327">
        <ele>640.24</ele>
        <time>2018-08-11T13:30:19Z</time>
      </trkpt>
      <trkpt lat="42.51012" lon="0.12301">
        <ele>641.32</ele>
        <time>2018-08-11T13:30:21Z</time>
      </trkpt>
      <trkpt lat="42.51012" lon="0.12273">
        <ele>641.63</ele>
        <time>2018-08-11T13:30:23Z</time>
      </trkpt>
      <trkpt lat="42.50998" lon="0.12253">
        <ele>644.18</ele>
        <time>2018-08-11T13:30:25Z</time>
      </trkpt>
      <trkpt lat="42.50974" lon="0.12244">
        <ele>646.53</ele>
        <time>2018-08-11T13:30:28Z</time>
      </trkpt>
      <trkpt lat="42.50955" lon="0.12254">
        <ele>649.17</ele>
        <time>2018-08-11T13:30:30Z</time>
      </trkpt>
      <trkpt lat="42.50934" lon="0.12257">
        <ele>651.22</ele>
        <time>2018-08-11T13:30:32Z</time>
      </trkpt>
      <trkpt lat="42.50912" lon="0.12248">
        <ele>653.93</ele>
        <time>2018-08-11T13:30:34Z</time>
      </trkpt>
      <trkpt lat="42.5089" lon="0.12235">
        <ele>655.5</ele>
        <time>2018-08-11T13:30:36Z</time>
      </trkpt>
      <trkpt lat="42.50866" lon="0.12219">
        <ele>658.16</ele>
        <time>2018-08-11T13:30:38Z</time>
      </trkpt>
      <trkpt lat="42.50839" lon="0.12196">
        <ele>661.13</ele>
        <time>2018-08-11T13:30:40Z</time>
      </trkpt>
      <trkpt lat="42.50813" lon="0.12176">
        <ele>664.83</ele>
        <time>2018-08-11T13:30:42Z</time>
      </trkpt>
      <trkpt lat="42.50783" lon="0.12167">
        <ele>668.8</ele>
        <time>2018-08-11T13:30:44Z</time>
      </trkpt>
      <trkpt lat="42.50759" lon="0.1217">
        <ele>672.8</ele>
        <time>2018-08-11T13:30:46Z</time>
      </trkpt>
      <trkpt lat="42.5074" lon="0.12172">
        <ele>674.28</ele>
        <time>2018-08-11T13:30:48Z</time>
      </trkpt>
      <trkpt lat="42.50741" lon="0.12144">
        <ele>676.56</ele>
        <time>2018-08-11T13:30:53Z</time>
      </trkpt>
      <trkpt lat="42.50754" lon="0.12126">
        <ele>677.56</ele>
        <time>2018-08-11T13:30:55Z</time>
      </trkpt>
      <trkpt lat="42.50758" lon="0.12097">
        <ele>679.96</ele>
        <time>2018-08-11T13:30:57Z</time>
      </trkpt>
      <trkpt lat="42.50759" lon="0.12061">
        <ele>682.21</ele>
        <time>2018-08-11T13:30:59Z</time>
      </trkpt>
      <trkpt lat="42.50767" lon="0.12033">
        <ele>684.23</ele>
        <time>2018-08-11T13:31:01Z</time>
      </trkpt>
      <trkpt lat="42.50788" lon="0.1201">
        <ele>687.84</ele>
        <time>2018-08-11T13:31:03Z</time>
      </trkpt>
      <trkpt lat="42.50805" lon="0.11986">
        <ele>690.19</ele>
        <time>2018-08-11T13:31:05Z</time>
      </trkpt>
      <trkpt lat="42.50813" lon="0.11959">
        <ele>692.23</ele>
        <time>2018-08-11T13:31:07Z</time>
      </trkpt>
      <trkpt lat="42.50808" lon="0.11922">
        <ele>694.93</ele>
        <time>2018-08-11T13:31:09Z</time>
      </trkpt>
      <trkpt lat="42.50808" lon="0.11883">
        <ele>697.2</ele>
        <time>2018-08-11T13:31:11Z</time>
      </trkpt>
      <trkpt lat="42.50808" lon="0.11841">
        <ele>699.23</ele>
        <time>2018-08-11T13:31:13Z</time>
      </trkpt>
      <trkpt lat="42.50807" lon="0.11798">
        <ele>700.32</ele>
        <time>2018-08-11T13:31:15Z</time>
      </trkpt>
      <trkpt lat="42.50802" lon="0.11755">
        <ele>701.33</ele>
        <time>2018-08-11T13:31:17Z</time>
      </trkpt>
      <trkpt lat="42.50789" lon="0.11719">
        <ele>703.24</ele>
        <time>2018-08-11T13:31:19Z</time>
      </trkpt>
      <trkpt lat="42.50772" lon="0.11687">
        <ele>704.32</ele>
        <time>2018-08-11T13:31:21Z</time>
      </trkpt>
      <trkpt lat="42.5076" lon="0.11651">
        <ele>706.94</ele>
        <time>2018-08-11T13:31:23Z</time>
      </trkpt>
      <trkpt lat="42.50753" lon="0.11613">
        <ele>708.29</ele>
        <time>2018-08-11T13:31:25Z</time>
      </trkpt>
      <trkpt lat="42.50743" lon="0.11578">
        <ele>710.24</ele>
        <time>2018-08-11T13:31:27Z</time>
      </trkpt>
      <trkpt lat="42.50721" lon="0.11553">
        <ele>711.32</ele>
        <time>2018-08-11T13:31:29Z</time>
      </trkpt>
      <trkpt lat="42.50705" lon="0.11527">
        <ele>713.94</ele>
        <time>2018-08-11T13:31:31Z</time>
      </trkpt>
      <trkpt lat="42.50703" lon="0.11499">
        <ele>717.11</ele>
        <time>2018-08-11T13:31:33Z</time>
      </trkpt>
      <trkpt lat="42.50708" lon="0.11466">
        <ele>718.34</ele>
        <time>2018-08-11T13:31:36Z</time>
      </trkpt>
      <trkpt lat="42.50731" lon="0.11465">
        <ele>717.72</ele>
        <time>2018-08-11T13:31:38Z</time>
      </trkpt>
      <trkpt lat="42.50755" lon="0.11472">
        <ele>719.08</ele>
        <time>2018-08-11T13:31:39Z</time>
      </trkpt>
      <trkpt lat="42.50783" lon="0.1147">
        <ele>722.62</ele>
        <time>2018-08-11T13:31:41Z</time>
      </trkpt>
      <trkpt lat="42.508" lon="0.11461">
        <ele>725.17</ele>
        <time>2018-08-11T13:31:43Z</time>
      </trkpt>
      <trkpt lat="42.5077" lon="0.11425">
        <ele>725.37</ele>
        <time>2018-08-11T13:31:46Z</time>
      </trkpt>
      <trkpt lat="42.50742" lon="0.11409">
        <ele>728.85</ele>
        <time>2018-08-11T13:31:48Z</time>
      </trkpt>
      <trkpt lat="42.50725" lon="0.11384">
        <ele>731.69</ele>
        <time>2018-08-11T13:31:50Z</time>
      </trkpt>
      <trkpt lat="42.50708" lon="0.11376">
        <ele>733.48</ele>
        <time>2018-08-11T13:31:52Z</time>
      </trkpt>
      <trkpt lat="42.50689" lon="0.11383">
        <ele>737.07</ele>
        <time>2018-08-11T13:31:54Z</time>
      </trkpt>
      <trkpt lat="42.50672" lon="0.1137">
        <ele>739.92</ele>
        <time>2018-08-11T13:31:56Z</time>
      </trkpt>
      <trkpt lat="42.50662" lon="0.11344">
        <ele>741.5</ele>
        <time>2018-08-11T13:31:58Z</time>
      </trkpt>
      <trkpt lat="42.50647" lon="0.11315">
        <ele>743.25</ele>
        <time>2018-08-11T13:32:00Z</time>
      </trkpt>
      <trkpt lat="42.50633" lon="0.11287">
        <ele>745.93</ele>
        <time>2018-08-11T13:32:02Z</time>
      </trkpt>
      <trkpt lat="42.5062" lon="0.11265">
        <ele>748.2</ele>
        <time>2018-08-11T13:32:04Z</time>
      </trkpt>
      <trkpt lat="42.50627" lon="0.11237">
        <ele>750.53</ele>
        <time>2018-08-11T13:32:07Z</time>
      </trkpt>
      <trkpt lat="42.50646" lon="0.11237">
        <ele>751.35</ele>
        <time>2018-08-11T13:32:09Z</time>
      </trkpt>
      <trkpt lat="42.50673" lon="0.11245">
        <ele>752.54</ele>
        <time>2018-08-11T13:32:11Z</time>
      </trkpt>
      <trkpt lat="42.50702" lon="0.11253">
        <ele>753.56</ele>
        <time>2018-08-11T13:32:13Z</time>
      </trkpt>
      <trkpt lat="42.50725" lon="0.11264">
        <ele>754.35</ele>
        <time>2018-08-11T13:32:15Z</time>
      </trkpt>
      <trkpt lat="42.50743" lon="0.11266">
        <ele>756.24</ele>
        <time>2018-08-11T13:32:17Z</time>
      </trkpt>
      <trkpt lat="42.5074" lon="0.11239">
        <ele>761.22</ele>
        <time>2018-08-11T13:32:21Z</time>
      </trkpt>
      <trkpt lat="42.5072" lon="0.11228">
        <ele>763.23</ele>
        <time>2018-08-11T13:32:23Z</time>
      </trkpt>
      <trkpt lat="42.50695" lon="0.11211">
        <ele>766.14</ele>
        <time>2018-08-11T13:32:25Z</time>
      </trkpt>
      <trkpt lat="42.50671" lon="0.11194">
        <ele>769.13</ele>
        <time>2018-08-11T13:32:27Z</time>
      </trkpt>
      <trkpt lat="42.50649" lon="0.11174">
        <ele>771.22</ele>
        <time>2018-08-11T13:32:29Z</time>
      </trkpt>
      <trkpt lat="42.50633" lon="0.11153">
        <ele>774.14</ele>
        <time>2018-08-11T13:32:31Z</time>
      </trkpt>
      <trkpt lat="42.50638" lon="0.1112">
        <ele>777.29</ele>
        <time>2018-08-11T13:32:34Z</time>
      </trkpt>
      <trkpt lat="42.5065" lon="0.11099">
        <ele>779.23</ele>
        <time>2018-08-11T13:32:36Z</time>
      </trkpt>
      <trkpt lat="42.50658" lon="0.11075">
        <ele>780.53</ele>
        <time>2018-08-11T13:32:38Z</time>
      </trkpt>
      <trkpt lat="42.50659" lon="0.11046">
        <ele>782.26</ele>
        <time>2018-08-11T13:32:40Z</time>
      </trkpt>
      <trkpt lat="42.50662" lon="0.11018">
        <ele>783.53</ele>
        <time>2018-08-11T13:32:42Z</time>
      </trkpt>
      <trkpt lat="42.5066" lon="0.10991">
        <ele>784.56</ele>
        <time>2018-08-11T13:32:44Z</time>
      </trkpt>
      <trkpt lat="42.50645" lon="0.1097">
        <ele>786.26</ele>
        <time>2018-08-11T13:32:46Z</time>
      </trkpt>
      <trkpt lat="42.50627" lon="0.10959">
        <ele>788.23</ele>
        <time>2018-08-11T13:32:48Z</time>
      </trkpt>
      <trkpt lat="42.50636" lon="0.10932">
        <ele>792.53</ele>
        <time>2018-08-11T13:32:53Z</time>
      </trkpt>
      <trkpt lat="42.50659" lon="0.10951">
        <ele>793.35</ele>
        <time>2018-08-11T13:32:56Z</time>
      </trkpt>
      <trkpt lat="42.50669" lon="0.10976">
        <ele>794.54</ele>
        <time>2018-08-11T13:32:58Z</time>
      </trkpt>
      <trkpt lat="42.50682" lon="0.11003">
        <ele>795.35</ele>
        <time>2018-08-11T13:33:00Z</time>
      </trkpt>
      <trkpt lat="42.50694" lon="0.1103">
        <ele>797.24</ele>
        <time>2018-08-11T13:33:02Z</time>
      </trkpt>
      <trkpt lat="42.50698" lon="0.11055">
        <ele>798.32</ele>
        <time>2018-08-11T13:33:04Z</time>
      </trkpt>
      <trkpt lat="42.50717" lon="0.1105">
        <ele>801.33</ele>
        <time>2018-08-11T13:33:09Z</time>
      </trkpt>
      <trkpt lat="42.5071" lon="0.11024">
        <ele>802.33</ele>
        <time>2018-08-11T13:33:11Z</time>
      </trkpt>
      <trkpt lat="42.50699" lon="0.10995">
        <ele>803.54</ele>
        <time>2018-08-11T13:33:13Z</time>
      </trkpt>
      <trkpt lat="42.50687" lon="0.10964">
        <ele>804.56</ele>
        <time>2018-08-11T13:33:15Z</time>
      </trkpt>
      <trkpt lat="42.50676" lon="0.10932">
        <ele>806.96</ele>
        <time>2018-08-11T13:33:17Z</time>
      </trkpt>
      <trkpt lat="42.50664" lon="0.10902">
        <ele>808.3</ele>
        <time>2018-08-11T13:33:19Z</time>
      </trkpt>
      <trkpt lat="42.50652" lon="0.10881">
        <ele>811.15</ele>
        <time>2018-08-11T13:33:21Z</time>
      </trkpt>
      <trkpt lat="42.50641" lon="0.10861">
        <ele>812.65</ele>
        <time>2018-08-11T13:33:25Z</time>
      </trkpt>
      <trkpt lat="42.50617" lon="0.10863">
        <ele>813.36</ele>
        <time>2018-08-11T13:33:32Z</time>
      </trkpt>
      <trkpt lat="42.50595" lon="0.10853">
        <ele>816.24</ele>
        <time>2018-08-11T13:33:36Z</time>
      </trkpt>
      <trkpt lat="42.50582" lon="0.10835">
        <ele>818.23</ele>
        <time>2018-08-11T13:33:38Z</time>
      </trkpt>
      <trkpt lat="42.50558" lon="0.10831">
        <ele>818.65</ele>
        <time>2018-08-11T13:33:41Z</time>
      </trkpt>
      <trkpt lat="42.50543" lon="0.10864">
        <ele>820.97</ele>
        <time>2018-08-11T13:33:43Z</time>
      </trkpt>
      <trkpt lat="42.50527" lon="0.10879">
        <ele>821.6</ele>
        <time>2018-08-11T13:33:45Z</time>
      </trkpt>
      <trkpt lat="42.50501" lon="0.10872">
        <ele>823.54</ele>
        <time>2018-08-11T13:33:48Z</time>
      </trkpt>
      <trkpt lat="42.50478" lon="0.10859">
        <ele>825.96</ele>
        <time>2018-08-11T13:33:50Z</time>
      </trkpt>
      <trkpt lat="42.50457" lon="0.10837">
        <ele>828.9</ele>
        <time>2018-08-11T13:33:52Z</time>
      </trkpt>
      <trkpt lat="42.5044" lon="0.10809">
        <ele>832.11</ele>
        <time>2018-08-11T13:33:54Z</time>
      </trkpt>
      <trkpt lat="42.50426" lon="0.10776">
        <ele>834.22</ele>
        <time>2018-08-11T13:33:56Z</time>
      </trkpt>
      <trkpt lat="42.50427" lon="0.10742">
        <ele>837.84</ele>
        <time>2018-08-11T13:33:58Z</time>
      </trkpt>
      <trkpt lat="42.50442" lon="0.10717">
        <ele>841.92</ele>
        <time>2018-08-11T13:34:01Z</time>
      </trkpt>
      <trkpt lat="42.50461" lon="0.10702">
        <ele>844.2</ele>
        <time>2018-08-11T13:34:03Z</time>
      </trkpt>
      <trkpt lat="42.50478" lon="0.10678">
        <ele>847.14</ele>
        <time>2018-08-11T13:34:05Z</time>
      </trkpt>
      <trkpt lat="42.50492" lon="0.10654">
        <ele>849.22</ele>
        <time>2018-08-11T13:34:07Z</time>
      </trkpt>
      <trkpt lat="42.50492" lon="0.10625">
        <ele>850.53</ele>
        <time>2018-08-11T13:34:09Z</time>
      </trkpt>
      <trkpt lat="42.50484" lon="0.10594">
        <ele>852.47</ele>
        <time>2018-08-11T13:34:11Z</time>
      </trkpt>
      <trkpt lat="42.50466" lon="0.10567">
        <ele>854.25</ele>
        <time>2018-08-11T13:34:13Z</time>
      </trkpt>
      <trkpt lat="42.50448" lon="0.10539">
        <ele>857.14</ele>
        <time>2018-08-11T13:34:15Z</time>
      </trkpt>
      <trkpt lat="42.50437" lon="0.10505">
        <ele>859.22</ele>
        <time>2018-08-11T13:34:17Z</time>
      </trkpt>
      <trkpt lat="42.50428" lon="0.10469">
        <ele>860.53</ele>
        <time>2018-08-11T13:34:19Z</time>
      </trkpt>
      <trkpt lat="42.50421" lon="0.10435">
        <ele>862.26</ele>
        <time>2018-08-11T13:34:21Z</time>
      </trkpt>
      <trkpt lat="42.50419" lon="0.10409">
        <ele>864.23</ele>
        <time>2018-08-11T13:34:23Z</time>
      </trkpt>
      <trkpt lat="42.50427" lon="0.1038">
        <ele>866.26</ele>
        <time>2018-08-11T13:34:26Z</time>
      </trkpt>
      <trkpt lat="42.50444" lon="0.10351">
        <ele>867.56</ele>
        <time>2018-08-11T13:34:29Z</time>
      </trkpt>
      <trkpt lat="42.50451" lon="0.10326">
        <ele>869.26</ele>
        <time>2018-08-11T13:34:31Z</time>
      </trkpt>
      <trkpt lat="42.50457" lon="0.10299">
        <ele>870.53</ele>
        <time>2018-08-11T13:34:33Z</time>
      </trkpt>
      <trkpt lat="42.50466" lon="0.10276">
        <ele>872.26</ele>
        <time>2018-08-11T13:34:35Z</time>
      </trkpt>
      <trkpt lat="42.50478" lon="0.10253">
        <ele>873.32</ele>
        <time>2018-08-11T13:34:37Z</time>
      </trkpt>
      <trkpt lat="42.50482" lon="0.10219">
        <ele>876.23</ele>
        <time>2018-08-11T13:34:40Z</time>
      </trkpt>
      <trkpt lat="42.50486" lon="0.10184">
        <ele>879.23</ele>
        <time>2018-08-11T13:34:43Z</time>
      </trkpt>
      <trkpt lat="42.50492" lon="0.1016">
        <ele>881.02</ele>
        <time>2018-08-11T13:34:45Z</time>
      </trkpt>
      <trkpt lat="42.50492" lon="0.10124">
        <ele>882.55</ele>
        <time>2018-08-11T13:34:48Z</time>
      </trkpt>
      <trkpt lat="42.50484" lon="0.10099">
        <ele>883.56</ele>
        <time>2018-08-11T13:34:50Z</time>
      </trkpt>
      <trkpt lat="42.50474" lon="0.10073">
        <ele>884.56</ele>
        <time>2018-08-11T13:34:52Z</time>
      </trkpt>
      <trkpt lat="42.50461" lon="0.10032">
        <ele>886.96</ele>
        <time>2018-08-11T13:34:54Z</time>
      </trkpt>
      <trkpt lat="42.50451" lon="0.09999">
        <ele>889.21</ele>
        <time>2018-08-11T13:34:56Z</time>
      </trkpt>
      <trkpt lat="42.50439" lon="0.09972">
        <ele>891.23</ele>
        <time>2018-08-11T13:34:58Z</time>
      </trkpt>
      <trkpt lat="42.50421" lon="0.09952">
        <ele>891.62</ele>
        <time>2018-08-11T13:35:00Z</time>
      </trkpt>
      <trkpt lat="42.504" lon="0.09944">
        <ele>890.95</ele>
        <time>2018-08-11T13:35:02Z</time>
      </trkpt>
      <trkpt lat="42.50378" lon="0.0994">
        <ele>889.28</ele>
        <time>2018-08-11T13:35:04Z</time>
      </trkpt>
      <trkpt lat="42.50357" lon="0.09938">
        <ele>888.71</ele>
        <time>2018-08-11T13:35:06Z</time>
      </trkpt>
      <trkpt lat="42.50336" lon="0.09955">
        <ele>889.36</ele>
        <time>2018-08-11T13:35:08Z</time>
      </trkpt>
      <trkpt lat="42.50316" lon="0.09953">
        <ele>890.33</ele>
        <time>2018-08-11T13:35:10Z</time>
      </trkpt>
      <trkpt lat="42.50298" lon="0.0994">
        <ele>892.24</ele>
        <time>2018-08-11T13:35:12Z</time>
      </trkpt>
      <trkpt lat="42.50274" lon="0.09937">
        <ele>892.65</ele>
        <time>2018-08-11T13:35:15Z</time>
      </trkpt>
      <trkpt lat="42.50254" lon="0.09951">
        <ele>892.66</ele>
        <time>2018-08-11T13:35:17Z</time>
      </trkpt>
      <trkpt lat="42.50233" lon="0.09957">
        <ele>892.45</ele>
        <time>2018-08-11T13:35:19Z</time>
      </trkpt>
      <trkpt lat="42.50216" lon="0.09947">
        <ele>892.64</ele>
        <time>2018-08-11T13:35:21Z</time>
      </trkpt>
      <trkpt lat="42.50216" lon="0.09916">
        <ele>894.33</ele>
        <time>2018-08-11T13:35:24Z</time>
      </trkpt>
      <trkpt lat="42.5022" lon="0.09887">
        <ele>896.24</ele>
        <time>2018-08-11T13:35:26Z</time>
      </trkpt>
      <trkpt lat="42.50217" lon="0.09852">
        <ele>898.23</ele>
        <time>2018-08-11T13:35:28Z</time>
      </trkpt>
      <trkpt lat="42.50206" lon="0.09821">
        <ele>900.23</ele>
        <time>2018-08-11T13:35:30Z</time>
      </trkpt>
      <trkpt lat="42.50197" lon="0.09789">
        <ele>902.93</ele>
        <time>2018-08-11T13:35:32Z</time>
      </trkpt>
      <trkpt lat="42.50185" lon="0.09757">
        <ele>904.5</ele>
        <time>2018-08-11T13:35:34Z</time>
      </trkpt>
      <trkpt lat="42.50166" lon="0.09727">
        <ele>906.25</ele>
        <time>2018-08-11T13:35:36Z</time>
      </trkpt>
      <trkpt lat="42.50145" lon="0.09698">
        <ele>908.23</ele>
        <time>2018-08-11T13:35:38Z</time>
      </trkpt>
      <trkpt lat="42.50134" lon="0.09675">
        <ele>910.23</ele>
        <time>2018-08-11T13:35:40Z</time>
      </trkpt>
      <trkpt lat="42.50147" lon="0.09656">
        <ele>914.23</ele>
        <time>2018-08-11T13:35:44Z</time>
      </trkpt>
      <trkpt lat="42.50175" lon="0.09654">
        <ele>917.87</ele>
        <time>2018-08-11T13:35:47Z</time>
      </trkpt>
      <trkpt lat="42.50196" lon="0.0966">
        <ele>919.99</ele>
        <time>2018-08-11T13:35:49Z</time>
      </trkpt>
      <trkpt lat="42.5022" lon="0.09661">
        <ele>921.51</ele>
        <time>2018-08-11T13:35:51Z</time>
      </trkpt>
      <trkpt lat="42.50245" lon="0.09653">
        <ele>923.25</ele>
        <time>2018-08-11T13:35:53Z</time>
      </trkpt>
      <trkpt lat="42.50271" lon="0.0964">
        <ele>924.32</ele>
        <time>2018-08-11T13:35:55Z</time>
      </trkpt>
      <trkpt lat="42.50296" lon="0.09631">
        <ele>926.45</ele>
        <time>2018-08-11T13:35:57Z</time>
      </trkpt>
      <trkpt lat="42.50321" lon="0.0962">
        <ele>928.25</ele>
        <time>2018-08-11T13:35:59Z</time>
      </trkpt>
      <trkpt lat="42.50347" lon="0.09616">
        <ele>931.14</ele>
        <time>2018-08-11T13:36:01Z</time>
      </trkpt>
      <trkpt lat="42.50372" lon="0.09607">
        <ele>933.22</ele>
        <time>2018-08-11T13:36:03Z</time>
      </trkpt>
      <trkpt lat="42.50398" lon="0.09597">
        <ele>935.02</ele>
        <time>2018-08-11T13:36:05Z</time>
      </trkpt>
      <trkpt lat="42.50422" lon="0.09581">
        <ele>936.51</ele>
        <time>2018-08-11T13:36:07Z</time>
      </trkpt>
      <trkpt lat="42.50443" lon="0.09559">
        <ele>937.55</ele>
        <time>2018-08-11T13:36:09Z</time>
      </trkpt>
      <trkpt lat="42.50466" lon="0.09539">
        <ele>938.56</ele>
        <time>2018-08-11T13:36:11Z</time>
      </trkpt>
      <trkpt lat="42.50486" lon="0.09515">
        <ele>939.56</ele>
        <time>2018-08-11T13:36:13Z</time>
      </trkpt>
      <trkpt lat="42.50499" lon="0.09482">
        <ele>940.56</ele>
        <time>2018-08-11T13:36:15Z</time>
      </trkpt>
      <trkpt lat="42.50509" lon="0.09447">
        <ele>940.65</ele>
        <time>2018-08-11T13:36:17Z</time>
      </trkpt>
      <trkpt lat="42.50514" lon="0.09408">
        <ele>942.27</ele>
        <time>2018-08-11T13:36:19Z</time>
      </trkpt>
      <trkpt lat="42.50516" lon="0.09369">
        <ele>944.93</ele>
        <time>2018-08-11T13:36:21Z</time>
      </trkpt>
      <trkpt lat="42.50516" lon="0.09332">
        <ele>947.2</ele>
        <time>2018-08-11T13:36:23Z</time>
      </trkpt>
      <trkpt lat="42.50523" lon="0.09306">
        <ele>949.02</ele>
        <time>2018-08-11T13:36:25Z</time>
      </trkpt>
      <trkpt lat="42.5054" lon="0.09291">
        <ele>952.12</ele>
        <time>2018-08-11T13:36:27Z</time>
      </trkpt>
      <trkpt lat="42.50562" lon="0.09276">
        <ele>954.22</ele>
        <time>2018-08-11T13:36:29Z</time>
      </trkpt>
      <trkpt lat="42.50583" lon="0.09254">
        <ele>956.23</ele>
        <time>2018-08-11T13:36:31Z</time>
      </trkpt>
      <trkpt lat="42.506" lon="0.09227">
        <ele>959.14</ele>
        <time>2018-08-11T13:36:33Z</time>
      </trkpt>
      <trkpt lat="42.50614" lon="0.09199">
        <ele>960.52</ele>
        <time>2018-08-11T13:36:35Z</time>
      </trkpt>
      <trkpt lat="42.50633" lon="0.09174">
        <ele>963.17</ele>
        <time>2018-08-11T13:36:37Z</time>
      </trkpt>
      <trkpt lat="42.50652" lon="0.09148">
        <ele>964.52</ele>
        <time>2018-08-11T13:36:39Z</time>
      </trkpt>
      <trkpt lat="42.5067" lon="0.09121">
        <ele>965.56</ele>
        <time>2018-08-11T13:36:41Z</time>
      </trkpt>
      <trkpt lat="42.5069" lon="0.09096">
        <ele>966.56</ele>
        <time>2018-08-11T13:36:43Z</time>
      </trkpt>
      <trkpt lat="42.50712" lon="0.09072">
        <ele>967.35</ele>
        <time>2018-08-11T13:36:45Z</time>
      </trkpt>
      <trkpt lat="42.5073" lon="0.09043">
        <ele>967.63</ele>
        <time>2018-08-11T13:36:47Z</time>
      </trkpt>
      <trkpt lat="42.50737" lon="0.09007">
        <ele>968.36</ele>
        <time>2018-08-11T13:36:49Z</time>
      </trkpt>
      <trkpt lat="42.50742" lon="0.0897">
        <ele>969.54</ele>
        <time>2018-08-11T13:36:51Z</time>
      </trkpt>
      <trkpt lat="42.50745" lon="0.0893">
        <ele>971.26</ele>
        <time>2018-08-11T13:36:53Z</time>
      </trkpt>
      <trkpt lat="42.50746" lon="0.08891">
        <ele>974.14</ele>
        <time>2018-08-11T13:36:55Z</time>
      </trkpt>
      <trkpt lat="42.50745" lon="0.08855">
        <ele>977.13</ele>
        <time>2018-08-11T13:36:57Z</time>
      </trkpt>
      <trkpt lat="42.50742" lon="0.08818">
        <ele>979.92</ele>
        <time>2018-08-11T13:36:59Z</time>
      </trkpt>
      <trkpt lat="42.50745" lon="0.08786">
        <ele>982.2</ele>
        <time>2018-08-11T13:37:01Z</time>
      </trkpt>
      <trkpt lat="42.5076" lon="0.08767">
        <ele>985.23</ele>
        <time>2018-08-11T13:37:04Z</time>
      </trkpt>
      <trkpt lat="42.50778" lon="0.08771">
        <ele>987.23</ele>
        <time>2018-08-11T13:37:06Z</time>
      </trkpt>
      <trkpt lat="42.50801" lon="0.08775">
        <ele>988.32</ele>
        <time>2018-08-11T13:37:08Z</time>
      </trkpt>
      <trkpt lat="42.50831" lon="0.08781">
        <ele>990.94</ele>
        <time>2018-08-11T13:37:10Z</time>
      </trkpt>
      <trkpt lat="42.5086" lon="0.08782">
        <ele>993.9</ele>
        <time>2018-08-11T13:37:12Z</time>
      </trkpt>
      <trkpt lat="42.50888" lon="0.08773">
        <ele>996.2</ele>
        <time>2018-08-11T13:37:14Z</time>
      </trkpt>
      <trkpt lat="42.50915" lon="0.08758">
        <ele>998.23</ele>
        <time>2018-08-11T13:37:16Z</time>
      </trkpt>
      <trkpt lat="42.50938" lon="0.08733">
        <ele>1000.23</ele>
        <time>2018-08-11T13:37:18Z</time>
      </trkpt>
      <trkpt lat="42.50954" lon="0.08704">
        <ele>1002.23</ele>
        <time>2018-08-11T13:37:20Z</time>
      </trkpt>
      <trkpt lat="42.50962" lon="0.08681">
        <ele>1004.23</ele>
        <time>2018-08-11T13:37:22Z</time>
      </trkpt>
      <trkpt lat="42.50955" lon="0.08653">
        <ele>1005.56</ele>
        <time>2018-08-11T13:37:25Z</time>
      </trkpt>
      <trkpt lat="42.50954" lon="0.08624">
        <ele>1005.66</ele>
        <time>2018-08-11T13:37:28Z</time>
      </trkpt>
      <trkpt lat="42.5096" lon="0.08599">
        <ele>1006.63</ele>
        <time>2018-08-11T13:37:31Z</time>
      </trkpt>
      <trkpt lat="42.50962" lon="0.08567">
        <ele>1006.66</ele>
        <time>2018-08-11T13:37:34Z</time>
      </trkpt>
      <trkpt lat="42.50968" lon="0.08532">
        <ele>1005.96</ele>
        <time>2018-08-11T13:37:36Z</time>
      </trkpt>
      <trkpt lat="42.50972" lon="0.08495">
        <ele>1004.98</ele>
        <time>2018-08-11T13:37:38Z</time>
      </trkpt>
      <trkpt lat="42.50972" lon="0.08463">
        <ele>1004.69</ele>
        <time>2018-08-11T13:37:40Z</time>
      </trkpt>
      <trkpt lat="42.50976" lon="0.08429">
        <ele>1003.96</ele>
        <time>2018-08-11T13:37:43Z</time>
      </trkpt>
      <trkpt lat="42.51" lon="0.08431">
        <ele>1005.51</ele>
        <time>2018-08-11T13:37:45Z</time>
      </trkpt>
      <trkpt lat="42.51024" lon="0.08434">
        <ele>1006.55</ele>
        <time>2018-08-11T13:37:47Z</time>
      </trkpt>
      <trkpt lat="42.51052" lon="0.08436">
        <ele>1007.35</ele>
        <time>2018-08-11T13:37:49Z</time>
      </trkpt>
      <trkpt lat="42.5108" lon="0.08443">
        <ele>1007.63</ele>
        <time>2018-08-11T13:37:51Z</time>
      </trkpt>
      <trkpt lat="42.51106" lon="0.08452">
        <ele>1007.66</ele>
        <time>2018-08-11T13:37:53Z</time>
      </trkpt>
      <trkpt lat="42.51134" lon="0.08449">
        <ele>1007.87</ele>
        <time>2018-08-11T13:37:55Z</time>
      </trkpt>
      <trkpt lat="42.51163" lon="0.08441">
        <ele>1007.89</ele>
        <time>2018-08-11T13:37:57Z</time>
      </trkpt>
      <trkpt lat="42.51192" lon="0.08442">
        <ele>1010.2</ele>
        <time>2018-08-11T13:37:59Z</time>
      </trkpt>
      <trkpt lat="42.51221" lon="0.0844">
        <ele>1012.23</ele>
        <time>2018-08-11T13:38:01Z</time>
      </trkpt>
      <trkpt lat="42.51248" lon="0.08425">
        <ele>1014.23</ele>
        <time>2018-08-11T13:38:03Z</time>
      </trkpt>
      <trkpt lat="42.51273" lon="0.08409">
        <ele>1014.83</ele>
        <time>2018-08-11T13:38:05Z</time>
      </trkpt>
      <trkpt lat="42.51294" lon="0.08398">
        <ele>1014.67</ele>
        <time>2018-08-11T13:38:07Z</time>
      </trkpt>
      <trkpt lat="42.51314" lon="0.08396">
        <ele>1015.36</ele>
        <time>2018-08-11T13:38:09Z</time>
      </trkpt>
      <trkpt lat="42.51333" lon="0.08383">
        <ele>1016.33</ele>
        <time>2018-08-11T13:38:11Z</time>
      </trkpt>
      <trkpt lat="42.51346" lon="0.08359">
        <ele>1015.93</ele>
        <time>2018-08-11T13:38:13Z</time>
      </trkpt>
      <trkpt lat="42.51354" lon="0.0833">
        <ele>1015.68</ele>
        <time>2018-08-11T13:38:15Z</time>
      </trkpt>
      <trkpt lat="42.51354" lon="0.083">
        <ele>1014.75</ele>
        <time>2018-08-11T13:38:17Z</time>
      </trkpt>
      <trkpt lat="42.51349" lon="0.08268">
        <ele>1014.67</ele>
        <time>2018-08-11T13:38:19Z</time>
      </trkpt>
      <trkpt lat="42.51343" lon="0.08234">
        <ele>1015.36</ele>
        <time>2018-08-11T13:38:21Z</time>
      </trkpt>
      <trkpt lat="42.51339" lon="0.08199">
        <ele>1015.63</ele>
        <time>2018-08-11T13:38:23Z</time>
      </trkpt>
      <trkpt lat="42.51342" lon="0.08167">
        <ele>1015.66</ele>
        <time>2018-08-11T13:38:25Z</time>
      </trkpt>
      <trkpt lat="42.51341" lon="0.08135">
        <ele>1014.75</ele>
        <time>2018-08-11T13:38:27Z</time>
      </trkpt>
      <trkpt lat="42.51333" lon="0.08106">
        <ele>1014.67</ele>
        <time>2018-08-11T13:38:29Z</time>
      </trkpt>
      <trkpt lat="42.51319" lon="0.08081">
        <ele>1015.36</ele>
        <time>2018-08-11T13:38:31Z</time>
      </trkpt>
      <trkpt lat="42.513" lon="0.08061">
        <ele>1016.54</ele>
        <time>2018-08-11T13:38:33Z</time>
      </trkpt>
      <trkpt lat="42.51279" lon="0.08044">
        <ele>1017.56</ele>
        <time>2018-08-11T13:38:35Z</time>
      </trkpt>
      <trkpt lat="42.51255" lon="0.08029">
        <ele>1018.56</ele>
        <time>2018-08-11T13:38:37Z</time>
      </trkpt>
      <trkpt lat="42.51231" lon="0.08009">
        <ele>1019.35</ele>
        <time>2018-08-11T13:38:39Z</time>
      </trkpt>
      <trkpt lat="42.5121" lon="0.07981">
        <ele>1020.33</ele>
        <time>2018-08-11T13:38:41Z</time>
      </trkpt>
      <trkpt lat="42.51188" lon="0.07955">
        <ele>1020.63</ele>
        <time>2018-08-11T13:38:43Z</time>
      </trkpt>
      <trkpt lat="42.51166" lon="0.07934">
        <ele>1020.87</ele>
        <time>2018-08-11T13:38:45Z</time>
      </trkpt>
      <trkpt lat="42.51149" lon="0.07903">
        <ele>1021.38</ele>
        <time>2018-08-11T13:38:47Z</time>
      </trkpt>
      <trkpt lat="42.51134" lon="0.07868">
        <ele>1023.03</ele>
        <time>2018-08-11T13:38:49Z</time>
      </trkpt>
      <trkpt lat="42.51117" lon="0.07835">
        <ele>1025</ele>
        <time>2018-08-11T13:38:51Z</time>
      </trkpt>
      <trkpt lat="42.51098" lon="0.07807">
        <ele>1028.12</ele>
        <time>2018-08-11T13:38:53Z</time>
      </trkpt>
      <trkpt lat="42.51086" lon="0.07776">
        <ele>1031.13</ele>
        <time>2018-08-11T13:38:55Z</time>
      </trkpt>
      <trkpt lat="42.51079" lon="0.07743">
        <ele>1032.52</ele>
        <time>2018-08-11T13:38:57Z</time>
      </trkpt>
      <trkpt lat="42.51081" lon="0.07715">
        <ele>1034.96</ele>
        <time>2018-08-11T13:38:59Z</time>
      </trkpt>
      <trkpt lat="42.51095" lon="0.07693">
        <ele>1038.11</ele>
        <time>2018-08-11T13:39:01Z</time>
      </trkpt>
      <trkpt lat="42.51114" lon="0.07669">
        <ele>1040.22</ele>
        <time>2018-08-11T13:39:03Z</time>
      </trkpt>
      <trkpt lat="42.51129" lon="0.07638">
        <ele>1042.23</ele>
        <time>2018-08-11T13:39:05Z</time>
      </trkpt>
      <trkpt lat="42.51139" lon="0.07603">
        <ele>1045.14</ele>
        <time>2018-08-11T13:39:07Z</time>
      </trkpt>
      <trkpt lat="42.51148" lon="0.07567">
        <ele>1046.52</ele>
        <time>2018-08-11T13:39:09Z</time>
      </trkpt>
      <trkpt lat="42.51161" lon="0.07534">
        <ele>1048.26</ele>
        <time>2018-08-11T13:39:11Z</time>
      </trkpt>
      <trkpt lat="42.51178" lon="0.07503">
        <ele>1051.14</ele>
        <time>2018-08-11T13:39:13Z</time>
      </trkpt>
      <trkpt lat="42.51191" lon="0.07472">
        <ele>1052.31</ele>
        <time>2018-08-11T13:39:15Z</time>
      </trkpt>
      <trkpt lat="42.51206" lon="0.07453">
        <ele>1053.54</ele>
        <time>2018-08-11T13:39:17Z</time>
      </trkpt>
      <trkpt lat="42.51226" lon="0.07449">
        <ele>1054.56</ele>
        <time>2018-08-11T13:39:19Z</time>
      </trkpt>
      <trkpt lat="42.51245" lon="0.07455">
        <ele>1055.35</ele>
        <time>2018-08-11T13:39:21Z</time>
      </trkpt>
      <trkpt lat="42.51265" lon="0.07466">
        <ele>1055.63</ele>
        <time>2018-08-11T13:39:23Z</time>
      </trkpt>
      <trkpt lat="42.51285" lon="0.0748">
        <ele>1056.36</ele>
        <time>2018-08-11T13:39:25Z</time>
      </trkpt>
      <trkpt lat="42.51304" lon="0.07485">
        <ele>1056.63</ele>
        <time>2018-08-11T13:39:27Z</time>
      </trkpt>
      <trkpt lat="42.51326" lon="0.0747">
        <ele>1054.98</ele>
        <time>2018-08-11T13:39:30Z</time>
      </trkpt>
      <trkpt lat="42.5135" lon="0.07464">
        <ele>1053.97</ele>
        <time>2018-08-11T13:39:33Z</time>
      </trkpt>
      <trkpt lat="42.51368" lon="0.07469">
        <ele>1052.08</ele>
        <time>2018-08-11T13:39:35Z</time>
      </trkpt>
      <trkpt lat="42.5139" lon="0.07477">
        <ele>1050.09</ele>
        <time>2018-08-11T13:39:37Z</time>
      </trkpt>
      <trkpt lat="42.51413" lon="0.07481">
        <ele>1049</ele>
        <time>2018-08-11T13:39:39Z</time>
      </trkpt>
      <trkpt lat="42.51436" lon="0.07481">
        <ele>1047.08</ele>
        <time>2018-08-11T13:39:41Z</time>
      </trkpt>
      <trkpt lat="42.51458" lon="0.0747">
        <ele>1046</ele>
        <time>2018-08-11T13:39:43Z</time>
      </trkpt>
      <trkpt lat="42.51479" lon="0.07457">
        <ele>1044.08</ele>
        <time>2018-08-11T13:39:45Z</time>
      </trkpt>
      <trkpt lat="42.51502" lon="0.07445">
        <ele>1041.18</ele>
        <time>2018-08-11T13:39:47Z</time>
      </trkpt>
      <trkpt lat="42.51523" lon="0.07427">
        <ele>1038.18</ele>
        <time>2018-08-11T13:39:49Z</time>
      </trkpt>
      <trkpt lat="42.51542" lon="0.07403">
        <ele>1036.1</ele>
        <time>2018-08-11T13:39:51Z</time>
      </trkpt>
      <trkpt lat="42.5156" lon="0.07381">
        <ele>1034.09</ele>
        <time>2018-08-11T13:39:53Z</time>
      </trkpt>
      <trkpt lat="42.51576" lon="0.07356">
        <ele>1032.09</ele>
        <time>2018-08-11T13:39:55Z</time>
      </trkpt>
      <trkpt lat="42.51589" lon="0.07334">
        <ele>1030.79</ele>
        <time>2018-08-11T13:39:57Z</time>
      </trkpt>
      <trkpt lat="42.51616" lon="0.07325">
        <ele>1029.69</ele>
        <time>2018-08-11T13:40:00Z</time>
      </trkpt>
      <trkpt lat="42.51634" lon="0.07316">
        <ele>1028.96</ele>
        <time>2018-08-11T13:40:02Z</time>
      </trkpt>
      <trkpt lat="42.51647" lon="0.07297">
        <ele>1027.99</ele>
        <time>2018-08-11T13:40:04Z</time>
      </trkpt>
      <trkpt lat="42.51658" lon="0.07271">
        <ele>1026.99</ele>
        <time>2018-08-11T13:40:06Z</time>
      </trkpt>
      <trkpt lat="42.51678" lon="0.07255">
        <ele>1026.67</ele>
        <time>2018-08-11T13:40:09Z</time>
      </trkpt>
      <trkpt lat="42.51704" lon="0.07273">
        <ele>1025.69</ele>
        <time>2018-08-11T13:40:12Z</time>
      </trkpt>
      <trkpt lat="42.51726" lon="0.0729">
        <ele>1023.84</ele>
        <time>2018-08-11T13:40:14Z</time>
      </trkpt>
      <trkpt lat="42.51752" lon="0.07298">
        <ele>1023.67</ele>
        <time>2018-08-11T13:40:16Z</time>
      </trkpt>
      <trkpt lat="42.51777" lon="0.07293">
        <ele>1023.45</ele>
        <time>2018-08-11T13:40:18Z</time>
      </trkpt>
      <trkpt lat="42.51799" lon="0.07275">
        <ele>1026.16</ele>
        <time>2018-08-11T13:40:20Z</time>
      </trkpt>
      <trkpt lat="42.51818" lon="0.07253">
        <ele>1028.43</ele>
        <time>2018-08-11T13:40:22Z</time>
      </trkpt>
      <trkpt lat="42.51833" lon="0.07229">
        <ele>1029.55</ele>
        <time>2018-08-11T13:40:24Z</time>
      </trkpt>
      <trkpt lat="42.51837" lon="0.07205">
        <ele>1030.35</ele>
        <time>2018-08-11T13:40:26Z</time>
      </trkpt>
      <trkpt lat="42.51834" lon="0.07179">
        <ele>1029.93</ele>
        <time>2018-08-11T13:40:28Z</time>
      </trkpt>
      <trkpt lat="42.51842" lon="0.07155">
        <ele>1029.89</ele>
        <time>2018-08-11T13:40:30Z</time>
      </trkpt>
      <trkpt lat="42.51854" lon="0.07133">
        <ele>1030.59</ele>
        <time>2018-08-11T13:40:32Z</time>
      </trkpt>
      <trkpt lat="42.51879" lon="0.07131">
        <ele>1033.24</ele>
        <time>2018-08-11T13:40:35Z</time>
      </trkpt>
      <trkpt lat="42.519" lon="0.07141">
        <ele>1034.32</ele>
        <time>2018-08-11T13:40:37Z</time>
      </trkpt>
      <trkpt lat="42.51921" lon="0.07154">
        <ele>1035.33</ele>
        <time>2018-08-11T13:40:39Z</time>
      </trkpt>
      <trkpt lat="42.51942" lon="0.07171">
        <ele>1036.54</ele>
        <time>2018-08-11T13:40:41Z</time>
      </trkpt>
      <trkpt lat="42.51959" lon="0.07194">
        <ele>1038.26</ele>
        <time>2018-08-11T13:40:43Z</time>
      </trkpt>
      <trkpt lat="42.51976" lon="0.07212">
        <ele>1040.23</ele>
        <time>2018-08-11T13:40:45Z</time>
      </trkpt>
      <trkpt lat="42.51996" lon="0.07224">
        <ele>1041.32</ele>
        <time>2018-08-11T13:40:47Z</time>
      </trkpt>
      <trkpt lat="42.52018" lon="0.0723">
        <ele>1042.33</ele>
        <time>2018-08-11T13:40:49Z</time>
      </trkpt>
      <trkpt lat="42.52042" lon="0.07227">
        <ele>1044.94</ele>
        <time>2018-08-11T13:40:51Z</time>
      </trkpt>
      <trkpt lat="42.52068" lon="0.07218">
        <ele>1046.29</ele>
        <time>2018-08-11T13:40:53Z</time>
      </trkpt>
      <trkpt lat="42.52093" lon="0.07207">
        <ele>1048.24</ele>
        <time>2018-08-11T13:40:55Z</time>
      </trkpt>
      <trkpt lat="42.52117" lon="0.07193">
        <ele>1049.53</ele>
        <time>2018-08-11T13:40:57Z</time>
      </trkpt>
      <trkpt lat="42.52138" lon="0.07173">
        <ele>1052.17</ele>
        <time>2018-08-11T13:40:59Z</time>
      </trkpt>
      <trkpt lat="42.52156" lon="0.07151">
        <ele>1054.01</ele>
        <time>2018-08-11T13:41:01Z</time>
      </trkpt>
      <trkpt lat="42.52166" lon="0.0713">
        <ele>1055.3</ele>
        <time>2018-08-11T13:41:03Z</time>
      </trkpt>
      <trkpt lat="42.52161" lon="0.07101">
        <ele>1057.26</ele>
        <time>2018-08-11T13:41:06Z</time>
      </trkpt>
      <trkpt lat="42.52174" lon="0.07081">
        <ele>1061.23</ele>
        <time>2018-08-11T13:41:11Z</time>
      </trkpt>
      <trkpt lat="42.52201" lon="0.07083">
        <ele>1061.71</ele>
        <time>2018-08-11T13:41:14Z</time>
      </trkpt>
      <trkpt lat="42.52223" lon="0.07078">
        <ele>1060.75</ele>
        <time>2018-08-11T13:41:16Z</time>
      </trkpt>
      <trkpt lat="42.52244" lon="0.0706">
        <ele>1060.46</ele>
        <time>2018-08-11T13:41:18Z</time>
      </trkpt>
      <trkpt lat="42.52262" lon="0.07037">
        <ele>1060.43</ele>
        <time>2018-08-11T13:41:20Z</time>
      </trkpt>
      <trkpt lat="42.52279" lon="0.0701">
        <ele>1062.25</ele>
        <time>2018-08-11T13:41:22Z</time>
      </trkpt>
      <trkpt lat="42.52301" lon="0.07002">
        <ele>1064.26</ele>
        <time>2018-08-11T13:41:25Z</time>
      </trkpt>
      <trkpt lat="42.5232" lon="0.07023">
        <ele>1068.2</ele>
        <time>2018-08-11T13:41:28Z</time>
      </trkpt>
      <trkpt lat="42.52337" lon="0.07038">
        <ele>1070.23</ele>
        <time>2018-08-11T13:41:30Z</time>
      </trkpt>
      <trkpt lat="42.52356" lon="0.07041">
        <ele>1072.44</ele>
        <time>2018-08-11T13:41:32Z</time>
      </trkpt>
      <trkpt lat="42.52373" lon="0.0703">
        <ele>1073.76</ele>
        <time>2018-08-11T13:41:34Z</time>
      </trkpt>
      <trkpt lat="42.52384" lon="0.07007">
        <ele>1075.98</ele>
        <time>2018-08-11T13:41:36Z</time>
      </trkpt>
      <trkpt lat="42.52396" lon="0.06981">
        <ele>1078.21</ele>
        <time>2018-08-11T13:41:38Z</time>
      </trkpt>
      <trkpt lat="42.52409" lon="0.06955">
        <ele>1081.14</ele>
        <time>2018-08-11T13:41:40Z</time>
      </trkpt>
      <trkpt lat="42.52424" lon="0.06937">
        <ele>1083.92</ele>
        <time>2018-08-11T13:41:42Z</time>
      </trkpt>
      <trkpt lat="42.52445" lon="0.06931">
        <ele>1086.9</ele>
        <time>2018-08-11T13:41:44Z</time>
      </trkpt>
      <trkpt lat="42.5247" lon="0.06922">
        <ele>1089.9</ele>
        <time>2018-08-11T13:41:46Z</time>
      </trkpt>
      <trkpt lat="42.52495" lon="0.0691">
        <ele>1091.29</ele>
        <time>2018-08-11T13:41:48Z</time>
      </trkpt>
      <trkpt lat="42.52517" lon="0.06897">
        <ele>1093.44</ele>
        <time>2018-08-11T13:41:50Z</time>
      </trkpt>
      <trkpt lat="42.52534" lon="0.06874">
        <ele>1094.34</ele>
        <time>2018-08-11T13:41:52Z</time>
      </trkpt>
      <trkpt lat="42.52545" lon="0.06845">
        <ele>1096.94</ele>
        <time>2018-08-11T13:41:54Z</time>
      </trkpt>
      <trkpt lat="42.52561" lon="0.06824">
        <ele>1099.31</ele>
        <time>2018-08-11T13:41:57Z</time>
      </trkpt>
      <trkpt lat="42.5259" lon="0.06828">
        <ele>1100.62</ele>
        <time>2018-08-11T13:42:00Z</time>
      </trkpt>
      <trkpt lat="42.52619" lon="0.06841">
        <ele>1101.35</ele>
        <time>2018-08-11T13:42:02Z</time>
      </trkpt>
      <trkpt lat="42.52645" lon="0.06847">
        <ele>1103.03</ele>
        <time>2018-08-11T13:42:04Z</time>
      </trkpt>
      <trkpt lat="42.52669" lon="0.06855">
        <ele>1105.21</ele>
        <time>2018-08-11T13:42:06Z</time>
      </trkpt>
      <trkpt lat="42.52688" lon="0.06868">
        <ele>1104.71</ele>
        <time>2018-08-11T13:42:08Z</time>
      </trkpt>
      <trkpt lat="42.52712" lon="0.06864">
        <ele>1106.54</ele>
        <time>2018-08-11T13:42:11Z</time>
      </trkpt>
      <trkpt lat="42.5273" lon="0.06859">
        <ele>1105.95</ele>
        <time>2018-08-11T13:42:13Z</time>
      </trkpt>
      <trkpt lat="42.52749" lon="0.06863">
        <ele>1106.59</ele>
        <time>2018-08-11T13:42:15Z</time>
      </trkpt>
      <trkpt lat="42.5277" lon="0.06863">
        <ele>1106.66</ele>
        <time>2018-08-11T13:42:18Z</time>
      </trkpt>
      <trkpt lat="42.52775" lon="0.06831">
        <ele>1107.57</ele>
        <time>2018-08-11T13:42:21Z</time>
      </trkpt>
      <trkpt lat="42.52772" lon="0.06804">
        <ele>1108.35</ele>
        <time>2018-08-11T13:42:23Z</time>
      </trkpt>
      <trkpt lat="42.52762" lon="0.06775">
        <ele>1109.62</ele>
        <time>2018-08-11T13:42:26Z</time>
      </trkpt>
      <trkpt lat="42.5276" lon="0.06744">
        <ele>1109.66</ele>
        <time>2018-08-11T13:42:29Z</time>
      </trkpt>
      <trkpt lat="42.52777" lon="0.06723">
        <ele>1111.33</ele>
        <time>2018-08-11T13:42:32Z</time>
      </trkpt>
      <trkpt lat="42.52796" lon="0.06715">
        <ele>1111.84</ele>
        <time>2018-08-11T13:42:34Z</time>
      </trkpt>
      <trkpt lat="42.5282" lon="0.06713">
        <ele>1112.37</ele>
        <time>2018-08-11T13:42:36Z</time>
      </trkpt>
      <trkpt lat="42.52849" lon="0.06715">
        <ele>1114.03</ele>
        <time>2018-08-11T13:42:38Z</time>
      </trkpt>
      <trkpt lat="42.52876" lon="0.06716">
        <ele>1115.51</ele>
        <time>2018-08-11T13:42:40Z</time>
      </trkpt>
      <trkpt lat="42.52897" lon="0.06705">
        <ele>1116.34</ele>
        <time>2018-08-11T13:42:42Z</time>
      </trkpt>
      <trkpt lat="42.52917" lon="0.06689">
        <ele>1117.54</ele>
        <time>2018-08-11T13:42:44Z</time>
      </trkpt>
      <trkpt lat="42.52939" lon="0.06678">
        <ele>1118.56</ele>
        <time>2018-08-11T13:42:46Z</time>
      </trkpt>
      <trkpt lat="42.52967" lon="0.06683">
        <ele>1118.17</ele>
        <time>2018-08-11T13:42:49Z</time>
      </trkpt>
      <trkpt lat="42.52992" lon="0.06691">
        <ele>1118.64</ele>
        <time>2018-08-11T13:42:52Z</time>
      </trkpt>
      <trkpt lat="42.53013" lon="0.0667">
        <ele>1116.77</ele>
        <time>2018-08-11T13:42:55Z</time>
      </trkpt>
      <trkpt lat="42.53029" lon="0.06654">
        <ele>1117.58</ele>
        <time>2018-08-11T13:42:57Z</time>
      </trkpt>
      <trkpt lat="42.53039" lon="0.06623">
        <ele>1117.66</ele>
        <time>2018-08-11T13:43:00Z</time>
      </trkpt>
      <trkpt lat="42.53035" lon="0.06597">
        <ele>1118.57</ele>
        <time>2018-08-11T13:43:02Z</time>
      </trkpt>
      <trkpt lat="42.53034" lon="0.06567">
        <ele>1119.56</ele>
        <time>2018-08-11T13:43:04Z</time>
      </trkpt>
      <trkpt lat="42.53041" lon="0.0654">
        <ele>1120.56</ele>
        <time>2018-08-11T13:43:06Z</time>
      </trkpt>
      <trkpt lat="42.53038" lon="0.06511">
        <ele>1120.65</ele>
        <time>2018-08-11T13:43:08Z</time>
      </trkpt>
      <trkpt lat="42.53035" lon="0.06482">
        <ele>1121.36</ele>
        <time>2018-08-11T13:43:10Z</time>
      </trkpt>
      <trkpt lat="42.53042" lon="0.06457">
        <ele>1123.94</ele>
        <time>2018-08-11T13:43:12Z</time>
      </trkpt>
      <trkpt lat="42.53059" lon="0.06434">
        <ele>1126.2</ele>
        <time>2018-08-11T13:43:14Z</time>
      </trkpt>
      <trkpt lat="42.53081" lon="0.06407">
        <ele>1127.32</ele>
        <time>2018-08-11T13:43:16Z</time>
      </trkpt>
      <trkpt lat="42.53104" lon="0.0638">
        <ele>1128.33</ele>
        <time>2018-08-11T13:43:18Z</time>
      </trkpt>
      <trkpt lat="42.53124" lon="0.06359">
        <ele>1129.54</ele>
        <time>2018-08-11T13:43:20Z</time>
      </trkpt>
      <trkpt lat="42.53146" lon="0.0635">
        <ele>1130.56</ele>
        <time>2018-08-11T13:43:22Z</time>
      </trkpt>
      <trkpt lat="42.53163" lon="0.06328">
        <ele>1131.35</ele>
        <time>2018-08-11T13:43:24Z</time>
      </trkpt>
      <trkpt lat="42.53182" lon="0.06305">
        <ele>1133.24</ele>
        <time>2018-08-11T13:43:26Z</time>
      </trkpt>
      <trkpt lat="42.53203" lon="0.06284">
        <ele>1135.23</ele>
        <time>2018-08-11T13:43:28Z</time>
      </trkpt>
      <trkpt lat="42.53221" lon="0.06259">
        <ele>1136.53</ele>
        <time>2018-08-11T13:43:30Z</time>
      </trkpt>
      <trkpt lat="42.53241" lon="0.06238">
        <ele>1138.26</ele>
        <time>2018-08-11T13:43:32Z</time>
      </trkpt>
      <trkpt lat="42.53264" lon="0.06225">
        <ele>1140.23</ele>
        <time>2018-08-11T13:43:34Z</time>
      </trkpt>
      <trkpt lat="42.53291" lon="0.06214">
        <ele>1141.32</ele>
        <time>2018-08-11T13:43:36Z</time>
      </trkpt>
      <trkpt lat="42.5332" lon="0.06206">
        <ele>1142.33</ele>
        <time>2018-08-11T13:43:38Z</time>
      </trkpt>
      <trkpt lat="42.53348" lon="0.06204">
        <ele>1143.54</ele>
        <time>2018-08-11T13:43:40Z</time>
      </trkpt>
      <trkpt lat="42.53371" lon="0.06201">
        <ele>1146.17</ele>
        <time>2018-08-11T13:43:42Z</time>
      </trkpt>
      <trkpt lat="42.5339" lon="0.06186">
        <ele>1147.52</ele>
        <time>2018-08-11T13:43:44Z</time>
      </trkpt>
      <trkpt lat="42.5341" lon="0.06163">
        <ele>1147.65</ele>
        <time>2018-08-11T13:43:46Z</time>
      </trkpt>
      <trkpt lat="42.5343" lon="0.06139">
        <ele>1148.57</ele>
        <time>2018-08-11T13:43:48Z</time>
      </trkpt>
      <trkpt lat="42.53441" lon="0.06117">
        <ele>1148.65</ele>
        <time>2018-08-11T13:43:50Z</time>
      </trkpt>
      <trkpt lat="42.53445" lon="0.0609">
        <ele>1147.96</ele>
        <time>2018-08-11T13:43:52Z</time>
      </trkpt>
      <trkpt lat="42.53451" lon="0.06066">
        <ele>1146.77</ele>
        <time>2018-08-11T13:43:54Z</time>
      </trkpt>
      <trkpt lat="42.53463" lon="0.06045">
        <ele>1146.88</ele>
        <time>2018-08-11T13:43:56Z</time>
      </trkpt>
      <trkpt lat="42.53472" lon="0.06019">
        <ele>1145.77</ele>
        <time>2018-08-11T13:43:58Z</time>
      </trkpt>
      <trkpt lat="42.53473" lon="0.05991">
        <ele>1144.97</ele>
        <time>2018-08-11T13:44:00Z</time>
      </trkpt>
      <trkpt lat="42.53469" lon="0.05964">
        <ele>1143.99</ele>
        <time>2018-08-11T13:44:02Z</time>
      </trkpt>
      <trkpt lat="42.53459" lon="0.0594">
        <ele>1143.69</ele>
        <time>2018-08-11T13:44:04Z</time>
      </trkpt>
      <trkpt lat="42.53445" lon="0.05916">
        <ele>1143.66</ele>
        <time>2018-08-11T13:44:06Z</time>
      </trkpt>
      <trkpt lat="42.53434" lon="0.05891">
        <ele>1143.66</ele>
        <time>2018-08-11T13:44:08Z</time>
      </trkpt>
      <trkpt lat="42.53428" lon="0.05862">
        <ele>1143.66</ele>
        <time>2018-08-11T13:44:10Z</time>
      </trkpt>
      <trkpt lat="42.53423" lon="0.05829">
        <ele>1143.66</ele>
        <time>2018-08-11T13:44:12Z</time>
      </trkpt>
      <trkpt lat="42.53422" lon="0.05801">
        <ele>1142.96</ele>
        <time>2018-08-11T13:44:14Z</time>
      </trkpt>
      <trkpt lat="42.53434" lon="0.05775">
        <ele>1142.67</ele>
        <time>2018-08-11T13:44:17Z</time>
      </trkpt>
      <trkpt lat="42.53448" lon="0.05746">
        <ele>1143.57</ele>
        <time>2018-08-11T13:44:20Z</time>
      </trkpt>
      <trkpt lat="42.53447" lon="0.05722">
        <ele>1142.95</ele>
        <time>2018-08-11T13:44:22Z</time>
      </trkpt>
      <trkpt lat="42.5344" lon="0.05689">
        <ele>1141.76</ele>
        <time>2018-08-11T13:44:25Z</time>
      </trkpt>
      <trkpt lat="42.53451" lon="0.05665">
        <ele>1141.66</ele>
        <time>2018-08-11T13:44:28Z</time>
      </trkpt>
      <trkpt lat="42.53467" lon="0.05652">
        <ele>1142.36</ele>
        <time>2018-08-11T13:44:30Z</time>
      </trkpt>
      <trkpt lat="42.53486" lon="0.05637">
        <ele>1144.24</ele>
        <time>2018-08-11T13:44:32Z</time>
      </trkpt>
      <trkpt lat="42.53504" lon="0.05622">
        <ele>1145.32</ele>
        <time>2018-08-11T13:44:34Z</time>
      </trkpt>
      <trkpt lat="42.53518" lon="0.05603">
        <ele>1147.24</ele>
        <time>2018-08-11T13:44:36Z</time>
      </trkpt>
      <trkpt lat="42.53523" lon="0.05579">
        <ele>1147.62</ele>
        <time>2018-08-11T13:44:38Z</time>
      </trkpt>
      <trkpt lat="42.53523" lon="0.05554">
        <ele>1148.56</ele>
        <time>2018-08-11T13:44:40Z</time>
      </trkpt>
      <trkpt lat="42.53535" lon="0.05529">
        <ele>1151.24</ele>
        <time>2018-08-11T13:44:43Z</time>
      </trkpt>
      <trkpt lat="42.53561" lon="0.05522">
        <ele>1153.32</ele>
        <time>2018-08-11T13:44:46Z</time>
      </trkpt>
      <trkpt lat="42.53576" lon="0.05506">
        <ele>1155.24</ele>
        <time>2018-08-11T13:44:48Z</time>
      </trkpt>
      <trkpt lat="42.5359" lon="0.05488">
        <ele>1157.23</ele>
        <time>2018-08-11T13:44:50Z</time>
      </trkpt>
      <trkpt lat="42.53609" lon="0.0548">
        <ele>1158.53</ele>
        <time>2018-08-11T13:44:52Z</time>
      </trkpt>
      <trkpt lat="42.53631" lon="0.05479">
        <ele>1159.35</ele>
        <time>2018-08-11T13:44:54Z</time>
      </trkpt>
      <trkpt lat="42.53653" lon="0.05479">
        <ele>1160.54</ele>
        <time>2018-08-11T13:44:56Z</time>
      </trkpt>
      <trkpt lat="42.53675" lon="0.05472">
        <ele>1162.26</ele>
        <time>2018-08-11T13:44:58Z</time>
      </trkpt>
      <trkpt lat="42.53696" lon="0.05458">
        <ele>1161.71</ele>
        <time>2018-08-11T13:45:00Z</time>
      </trkpt>
      <trkpt lat="42.53708" lon="0.05437">
        <ele>1160.96</ele>
        <time>2018-08-11T13:45:02Z</time>
      </trkpt>
      <trkpt lat="42.53721" lon="0.05414">
        <ele>1160.69</ele>
        <time>2018-08-11T13:45:04Z</time>
      </trkpt>
      <trkpt lat="42.53737" lon="0.05395">
        <ele>1160.66</ele>
        <time>2018-08-11T13:45:06Z</time>
      </trkpt>
      <trkpt lat="42.53749" lon="0.05372">
        <ele>1160.66</ele>
        <time>2018-08-11T13:45:08Z</time>
      </trkpt>
      <trkpt lat="42.53756" lon="0.05344">
        <ele>1159.96</ele>
        <time>2018-08-11T13:45:10Z</time>
      </trkpt>
      <trkpt lat="42.53752" lon="0.05314">
        <ele>1160.59</ele>
        <time>2018-08-11T13:45:12Z</time>
      </trkpt>
      <trkpt lat="42.53753" lon="0.05286">
        <ele>1160.65</ele>
        <time>2018-08-11T13:45:14Z</time>
      </trkpt>
      <trkpt lat="42.53767" lon="0.05258">
        <ele>1159.75</ele>
        <time>2018-08-11T13:45:17Z</time>
      </trkpt>
      <trkpt lat="42.53784" lon="0.05248">
        <ele>1158.76</ele>
        <time>2018-08-11T13:45:19Z</time>
      </trkpt>
      <trkpt lat="42.53801" lon="0.05235">
        <ele>1158.46</ele>
        <time>2018-08-11T13:45:21Z</time>
      </trkpt>
      <trkpt lat="42.53813" lon="0.05217">
        <ele>1157.73</ele>
        <time>2018-08-11T13:45:23Z</time>
      </trkpt>
      <trkpt lat="42.53826" lon="0.05199">
        <ele>1157.66</ele>
        <time>2018-08-11T13:45:25Z</time>
      </trkpt>
      <trkpt lat="42.53839" lon="0.05181">
        <ele>1156.96</ele>
        <time>2018-08-11T13:45:27Z</time>
      </trkpt>
      <trkpt lat="42.53849" lon="0.05161">
        <ele>1156.69</ele>
        <time>2018-08-11T13:45:29Z</time>
      </trkpt>
      <trkpt lat="42.53857" lon="0.05137">
        <ele>1156.66</ele>
        <time>2018-08-11T13:45:31Z</time>
      </trkpt>
      <trkpt lat="42.53863" lon="0.05112">
        <ele>1155.69</ele>
        <time>2018-08-11T13:45:34Z</time>
      </trkpt>
      <trkpt lat="42.53863" lon="0.05087">
        <ele>1155.66</ele>
        <time>2018-08-11T13:45:38Z</time>
      </trkpt>
      <trkpt lat="42.53879" lon="0.05068">
        <ele>1157.63</ele>
        <time>2018-08-11T13:45:46Z</time>
      </trkpt>
      <trkpt lat="42.539" lon="0.05071">
        <ele>1158.57</ele>
        <time>2018-08-11T13:45:49Z</time>
      </trkpt>
      <trkpt lat="42.53924" lon="0.05088">
        <ele>1160.27</ele>
        <time>2018-08-11T13:45:52Z</time>
      </trkpt>
      <trkpt lat="42.53949" lon="0.05087">
        <ele>1161.56</ele>
        <time>2018-08-11T13:45:55Z</time>
      </trkpt>
      <trkpt lat="42.53964" lon="0.05068">
        <ele>1163.26</ele>
        <time>2018-08-11T13:45:57Z</time>
      </trkpt>
      <trkpt lat="42.53978" lon="0.05042">
        <ele>1165.23</ele>
        <time>2018-08-11T13:45:59Z</time>
      </trkpt>
      <trkpt lat="42.53993" lon="0.05015">
        <ele>1167.93</ele>
        <time>2018-08-11T13:46:01Z</time>
      </trkpt>
      <trkpt lat="42.54007" lon="0.04987">
        <ele>1171.11</ele>
        <time>2018-08-11T13:46:03Z</time>
      </trkpt>
      <trkpt lat="42.54018" lon="0.04959">
        <ele>1173.22</ele>
        <time>2018-08-11T13:46:05Z</time>
      </trkpt>
      <trkpt lat="42.54031" lon="0.04936">
        <ele>1176.14</ele>
        <time>2018-08-11T13:46:07Z</time>
      </trkpt>
      <trkpt lat="42.5405" lon="0.04916">
        <ele>1178.22</ele>
        <time>2018-08-11T13:46:09Z</time>
      </trkpt>
      <trkpt lat="42.5407" lon="0.04893">
        <ele>1180.93</ele>
        <time>2018-08-11T13:46:11Z</time>
      </trkpt>
      <trkpt lat="42.54088" lon="0.04869">
        <ele>1182.29</ele>
        <time>2018-08-11T13:46:13Z</time>
      </trkpt>
      <trkpt lat="42.54102" lon="0.04841">
        <ele>1183.54</ele>
        <time>2018-08-11T13:46:15Z</time>
      </trkpt>
      <trkpt lat="42.54118" lon="0.04815">
        <ele>1185.26</ele>
        <time>2018-08-11T13:46:17Z</time>
      </trkpt>
      <trkpt lat="42.54138" lon="0.04791">
        <ele>1187.23</ele>
        <time>2018-08-11T13:46:19Z</time>
      </trkpt>
      <trkpt lat="42.54162" lon="0.04767">
        <ele>1190.14</ele>
        <time>2018-08-11T13:46:21Z</time>
      </trkpt>
      <trkpt lat="42.54184" lon="0.04742">
        <ele>1192.22</ele>
        <time>2018-08-11T13:46:23Z</time>
      </trkpt>
      <trkpt lat="42.54204" lon="0.04723">
        <ele>1193.32</ele>
        <time>2018-08-11T13:46:25Z</time>
      </trkpt>
      <trkpt lat="42.54227" lon="0.0471">
        <ele>1194.54</ele>
        <time>2018-08-11T13:46:27Z</time>
      </trkpt>
      <trkpt lat="42.54249" lon="0.04703">
        <ele>1195.56</ele>
        <time>2018-08-11T13:46:29Z</time>
      </trkpt>
      <trkpt lat="42.54272" lon="0.04706">
        <ele>1195.65</ele>
        <time>2018-08-11T13:46:31Z</time>
      </trkpt>
      <trkpt lat="42.54298" lon="0.04717">
        <ele>1195.66</ele>
        <time>2018-08-11T13:46:33Z</time>
      </trkpt>
      <trkpt lat="42.54323" lon="0.04733">
        <ele>1195.66</ele>
        <time>2018-08-11T13:46:35Z</time>
      </trkpt>
      <trkpt lat="42.54349" lon="0.04747">
        <ele>1196.57</ele>
        <time>2018-08-11T13:46:37Z</time>
      </trkpt>
      <trkpt lat="42.5437" lon="0.0476">
        <ele>1197.56</ele>
        <time>2018-08-11T13:46:39Z</time>
      </trkpt>
      <trkpt lat="42.54386" lon="0.04777">
        <ele>1199.26</ele>
        <time>2018-08-11T13:46:41Z</time>
      </trkpt>
      <trkpt lat="42.54406" lon="0.04786">
        <ele>1201.23</ele>
        <time>2018-08-11T13:46:43Z</time>
      </trkpt>
      <trkpt lat="42.5443" lon="0.04789">
        <ele>1201.62</ele>
        <time>2018-08-11T13:46:45Z</time>
      </trkpt>
      <trkpt lat="42.54453" lon="0.04791">
        <ele>1202.56</ele>
        <time>2018-08-11T13:46:47Z</time>
      </trkpt>
      <trkpt lat="42.54476" lon="0.04794">
        <ele>1202.65</ele>
        <time>2018-08-11T13:46:49Z</time>
      </trkpt>
      <trkpt lat="42.54498" lon="0.04798">
        <ele>1204.27</ele>
        <time>2018-08-11T13:46:51Z</time>
      </trkpt>
      <trkpt lat="42.54516" lon="0.0481">
        <ele>1206.02</ele>
        <time>2018-08-11T13:46:53Z</time>
      </trkpt>
      <trkpt lat="42.54527" lon="0.0483">
        <ele>1207.51</ele>
        <time>2018-08-11T13:46:55Z</time>
      </trkpt>
      <trkpt lat="42.54525" lon="0.04863">
        <ele>1209.33</ele>
        <time>2018-08-11T13:46:58Z</time>
      </trkpt>
      <trkpt lat="42.54527" lon="0.04895">
        <ele>1210.56</ele>
        <time>2018-08-11T13:47:01Z</time>
      </trkpt>
      <trkpt lat="42.54546" lon="0.04904">
        <ele>1213.24</ele>
        <time>2018-08-11T13:47:04Z</time>
      </trkpt>
      <trkpt lat="42.54567" lon="0.04897">
        <ele>1214.53</ele>
        <time>2018-08-11T13:47:06Z</time>
      </trkpt>
      <trkpt lat="42.54591" lon="0.04892">
        <ele>1216.26</ele>
        <time>2018-08-11T13:47:08Z</time>
      </trkpt>
      <trkpt lat="42.54614" lon="0.04893">
        <ele>1219.14</ele>
        <time>2018-08-11T13:47:10Z</time>
      </trkpt>
      <trkpt lat="42.54633" lon="0.04901">
        <ele>1220.31</ele>
        <time>2018-08-11T13:47:12Z</time>
      </trkpt>
      <trkpt lat="42.54647" lon="0.04925">
        <ele>1221.62</ele>
        <time>2018-08-11T13:47:15Z</time>
      </trkpt>
      <trkpt lat="42.5467" lon="0.04934">
        <ele>1223.27</ele>
        <time>2018-08-11T13:47:18Z</time>
      </trkpt>
      <trkpt lat="42.54693" lon="0.04933">
        <ele>1224.32</ele>
        <time>2018-08-11T13:47:20Z</time>
      </trkpt>
      <trkpt lat="42.54718" lon="0.04932">
        <ele>1226.24</ele>
        <time>2018-08-11T13:47:22Z</time>
      </trkpt>
      <trkpt lat="42.54742" lon="0.04934">
        <ele>1227.53</ele>
        <time>2018-08-11T13:47:24Z</time>
      </trkpt>
      <trkpt lat="42.54764" lon="0.04943">
        <ele>1228.56</ele>
        <time>2018-08-11T13:47:26Z</time>
      </trkpt>
      <trkpt lat="42.54785" lon="0.04958">
        <ele>1229.56</ele>
        <time>2018-08-11T13:47:28Z</time>
      </trkpt>
      <trkpt lat="42.54802" lon="0.04971">
        <ele>1230.56</ele>
        <time>2018-08-11T13:47:30Z</time>
      </trkpt>
      <trkpt lat="42.54811" lon="0.04997">
        <ele>1231.63</ele>
        <time>2018-08-11T13:47:33Z</time>
      </trkpt>
      <trkpt lat="42.548" lon="0.05029">
        <ele>1234.24</ele>
        <time>2018-08-11T13:47:36Z</time>
      </trkpt>
      <trkpt lat="42.5478" lon="0.05039">
        <ele>1235.32</ele>
        <time>2018-08-11T13:47:38Z</time>
      </trkpt>
      <trkpt lat="42.54762" lon="0.05051">
        <ele>1237.03</ele>
        <time>2018-08-11T13:47:40Z</time>
      </trkpt>
      <trkpt lat="42.54747" lon="0.05072">
        <ele>1239.21</ele>
        <time>2018-08-11T13:47:42Z</time>
      </trkpt>
      <trkpt lat="42.54734" lon="0.05093">
        <ele>1241.23</ele>
        <time>2018-08-11T13:47:44Z</time>
      </trkpt>
      <trkpt lat="42.54725" lon="0.05122">
        <ele>1243.53</ele>
        <time>2018-08-11T13:47:47Z</time>
      </trkpt>
      <trkpt lat="42.5474" lon="0.05142">
        <ele>1245.54</ele>
        <time>2018-08-11T13:47:50Z</time>
      </trkpt>
      <trkpt lat="42.54759" lon="0.05145">
        <ele>1246.56</ele>
        <time>2018-08-11T13:47:52Z</time>
      </trkpt>
      <trkpt lat="42.5478" lon="0.0514">
        <ele>1248.26</ele>
        <time>2018-08-11T13:47:54Z</time>
      </trkpt>
      <trkpt lat="42.548" lon="0.05126">
        <ele>1250.44</ele>
        <time>2018-08-11T13:47:56Z</time>
      </trkpt>
      <trkpt lat="42.54819" lon="0.05107">
        <ele>1252.25</ele>
        <time>2018-08-11T13:47:58Z</time>
      </trkpt>
      <trkpt lat="42.54837" lon="0.05094">
        <ele>1253.53</ele>
        <time>2018-08-11T13:48:00Z</time>
      </trkpt>
      <trkpt lat="42.54857" lon="0.05096">
        <ele>1254.56</ele>
        <time>2018-08-11T13:48:02Z</time>
      </trkpt>
      <trkpt lat="42.54877" lon="0.05105">
        <ele>1256.26</ele>
        <time>2018-08-11T13:48:04Z</time>
      </trkpt>
      <trkpt lat="42.54897" lon="0.05109">
        <ele>1258.93</ele>
        <time>2018-08-11T13:48:06Z</time>
      </trkpt>
      <trkpt lat="42.54916" lon="0.05102">
        <ele>1260.99</ele>
        <time>2018-08-11T13:48:08Z</time>
      </trkpt>
      <trkpt lat="42.54936" lon="0.05086">
        <ele>1263.52</ele>
        <time>2018-08-11T13:48:11Z</time>
      </trkpt>
      <trkpt lat="42.54951" lon="0.05098">
        <ele>1265.54</ele>
        <time>2018-08-11T13:48:14Z</time>
      </trkpt>
      <trkpt lat="42.54955" lon="0.05127">
        <ele>1267.33</ele>
        <time>2018-08-11T13:48:17Z</time>
      </trkpt>
      <trkpt lat="42.54963" lon="0.0515">
        <ele>1268.56</ele>
        <time>2018-08-11T13:48:20Z</time>
      </trkpt>
      <trkpt lat="42.5498" lon="0.05163">
        <ele>1269.57</ele>
        <time>2018-08-11T13:48:23Z</time>
      </trkpt>
      <trkpt lat="42.55002" lon="0.05177">
        <ele>1268.96</ele>
        <time>2018-08-11T13:48:26Z</time>
      </trkpt>
      <trkpt lat="42.55022" lon="0.05193">
        <ele>1268.67</ele>
        <time>2018-08-11T13:48:29Z</time>
      </trkpt>
      <trkpt lat="42.55021" lon="0.05218">
        <ele>1269.64</ele>
        <time>2018-08-11T13:49:08Z</time>
      </trkpt>
      <trkpt lat="42.55008" lon="0.05248">
        <ele>1270.63</ele>
        <time>2018-08-11T13:49:11Z</time>
      </trkpt>
      <trkpt lat="42.54999" lon="0.05271">
        <ele>1271.36</ele>
        <time>2018-08-11T13:49:13Z</time>
      </trkpt>
      <trkpt lat="42.5499" lon="0.05294">
        <ele>1271.42</ele>
        <time>2018-08-11T13:49:15Z</time>
      </trkpt>
      <trkpt lat="42.54981" lon="0.05318">
        <ele>1271.64</ele>
        <time>2018-08-11T13:49:17Z</time>
      </trkpt>
      <trkpt lat="42.5497" lon="0.0534">
        <ele>1272.36</ele>
        <time>2018-08-11T13:49:19Z</time>
      </trkpt>
      <trkpt lat="42.54949" lon="0.05362">
        <ele>1270.98</ele>
        <time>2018-08-11T13:49:22Z</time>
      </trkpt>
      <trkpt lat="42.5493" lon="0.05373">
        <ele>1269.08</ele>
        <time>2018-08-11T13:49:24Z</time>
      </trkpt>
      <trkpt lat="42.54909" lon="0.05383">
        <ele>1267.09</ele>
        <time>2018-08-11T13:49:26Z</time>
      </trkpt>
      <trkpt lat="42.5489" lon="0.05392">
        <ele>1266</ele>
        <time>2018-08-11T13:49:28Z</time>
      </trkpt>
      <trkpt lat="42.54872" lon="0.05406">
        <ele>1263.87</ele>
        <time>2018-08-11T13:49:30Z</time>
      </trkpt>
      <trkpt lat="42.54853" lon="0.05423">
        <ele>1262.07</ele>
        <time>2018-08-11T13:49:32Z</time>
      </trkpt>
      <trkpt lat="42.54831" lon="0.05436">
        <ele>1260.08</ele>
        <time>2018-08-11T13:49:34Z</time>
      </trkpt>
      <trkpt lat="42.5481" lon="0.05446">
        <ele>1257.39</ele>
        <time>2018-08-11T13:49:36Z</time>
      </trkpt>
      <trkpt lat="42.54792" lon="0.05448">
        <ele>1255.81</ele>
        <time>2018-08-11T13:49:38Z</time>
      </trkpt>
      <trkpt lat="42.54779" lon="0.05465">
        <ele>1253.76</ele>
        <time>2018-08-11T13:49:42Z</time>
      </trkpt>
      <trkpt lat="42.54784" lon="0.05496">
        <ele>1251.68</ele>
        <time>2018-08-11T13:50:06Z</time>
      </trkpt>
      <trkpt lat="42.54793" lon="0.05526">
        <ele>1250.75</ele>
        <time>2018-08-11T13:50:09Z</time>
      </trkpt>
      <trkpt lat="42.54784" lon="0.05548">
        <ele>1248.78</ele>
        <time>2018-08-11T13:50:12Z</time>
      </trkpt>
      <trkpt lat="42.54757" lon="0.05553">
        <ele>1246.29</ele>
        <time>2018-08-11T13:50:15Z</time>
      </trkpt>
      <trkpt lat="42.5474" lon="0.05558">
        <ele>1245.01</ele>
        <time>2018-08-11T13:50:17Z</time>
      </trkpt>
      <trkpt lat="42.54726" lon="0.05575">
        <ele>1243.08</ele>
        <time>2018-08-11T13:50:19Z</time>
      </trkpt>
      <trkpt lat="42.5471" lon="0.05589">
        <ele>1241.09</ele>
        <time>2018-08-11T13:50:21Z</time>
      </trkpt>
      <trkpt lat="42.54689" lon="0.05588">
        <ele>1239.79</ele>
        <time>2018-08-11T13:50:23Z</time>
      </trkpt>
      <trkpt lat="42.54668" lon="0.05582">
        <ele>1238.06</ele>
        <time>2018-08-11T13:50:25Z</time>
      </trkpt>
      <trkpt lat="42.54647" lon="0.05582">
        <ele>1236.99</ele>
        <time>2018-08-11T13:50:27Z</time>
      </trkpt>
      <trkpt lat="42.54628" lon="0.05588">
        <ele>1235.08</ele>
        <time>2018-08-11T13:50:29Z</time>
      </trkpt>
      <trkpt lat="42.54605" lon="0.05593">
        <ele>1233.27</ele>
        <time>2018-08-11T13:50:32Z</time>
      </trkpt>
      <trkpt lat="42.54586" lon="0.05578">
        <ele>1231.76</ele>
        <time>2018-08-11T13:50:35Z</time>
      </trkpt>
      <trkpt lat="42.54562" lon="0.05567">
        <ele>1230.69</ele>
        <time>2018-08-11T13:50:38Z</time>
      </trkpt>
      <trkpt lat="42.54537" lon="0.05567">
        <ele>1229.75</ele>
        <time>2018-08-11T13:50:41Z</time>
      </trkpt>
      <trkpt lat="42.54516" lon="0.05565">
        <ele>1228.69</ele>
        <time>2018-08-11T13:50:44Z</time>
      </trkpt>
      <trkpt lat="42.54497" lon="0.05566">
        <ele>1226.67</ele>
        <time>2018-08-11T13:50:49Z</time>
      </trkpt>
      <trkpt lat="42.54478" lon="0.05571">
        <ele>1224.66</ele>
        <time>2018-08-11T13:50:58Z</time>
      </trkpt>
      <trkpt lat="42.5446" lon="0.05554">
        <ele>1220.87</ele>
        <time>2018-08-11T13:51:03Z</time>
      </trkpt>
      <trkpt lat="42.54442" lon="0.05536">
        <ele>1218.97</ele>
        <time>2018-08-11T13:51:07Z</time>
      </trkpt>
      <trkpt lat="42.54425" lon="0.05523">
        <ele>1217.96</ele>
        <time>2018-08-11T13:51:11Z</time>
      </trkpt>
      <trkpt lat="42.54413" lon="0.05503">
        <ele>1215.69</ele>
        <time>2018-08-11T13:51:19Z</time>
      </trkpt>
      <trkpt lat="42.54394" lon="0.05492">
        <ele>1218.35</ele>
        <time>2018-08-11T13:51:24Z</time>
      </trkpt>
      <trkpt lat="42.54373" lon="0.0549">
        <ele>1217.96</ele>
        <time>2018-08-11T13:51:28Z</time>
      </trkpt>
      <trkpt lat="42.54356" lon="0.05482">
        <ele>1217.66</ele>
        <time>2018-08-11T13:51:32Z</time>
      </trkpt>
      <trkpt lat="42.54344" lon="0.05461">
        <ele>1217.75</ele>
        <time>2018-08-11T13:51:38Z</time>
      </trkpt>
      <trkpt lat="42.54325" lon="0.05448">
        <ele>1217.75</ele>
        <time>2018-08-11T13:51:57Z</time>
      </trkpt>
      <trkpt lat="42.54304" lon="0.05449">
        <ele>1216.66</ele>
        <time>2018-08-11T13:52:03Z</time>
      </trkpt>
      <trkpt lat="42.54285" lon="0.05454">
        <ele>1215.95</ele>
        <time>2018-08-11T13:52:10Z</time>
      </trkpt>
      <trkpt lat="42.54307" lon="0.05449">
        <ele>1218.83</ele>
        <time>2018-08-11T14:02:05Z</time>
      </trkpt>
      <trkpt lat="42.54327" lon="0.05447">
        <ele>1219.36</ele>
        <time>2018-08-11T14:02:09Z</time>
      </trkpt>
      <trkpt lat="42.54345" lon="0.05457">
        <ele>1221.37</ele>
        <time>2018-08-11T14:02:14Z</time>
      </trkpt>
      <trkpt lat="42.54355" lon="0.05478">
        <ele>1220.73</ele>
        <time>2018-08-11T14:02:20Z</time>
      </trkpt>
      <trkpt lat="42.54372" lon="0.05492">
        <ele>1219.69</ele>
        <time>2018-08-11T14:02:25Z</time>
      </trkpt>
      <trkpt lat="42.54391" lon="0.05493">
        <ele>1218.73</ele>
        <time>2018-08-11T14:02:29Z</time>
      </trkpt>
      <trkpt lat="42.54411" lon="0.05499">
        <ele>1217.46</ele>
        <time>2018-08-11T14:02:34Z</time>
      </trkpt>
      <trkpt lat="42.54422" lon="0.05525">
        <ele>1215.43</ele>
        <time>2018-08-11T14:02:40Z</time>
      </trkpt>
      <trkpt lat="42.54441" lon="0.05539">
        <ele>1215.64</ele>
        <time>2018-08-11T14:02:44Z</time>
      </trkpt>
      <trkpt lat="42.54457" lon="0.05553">
        <ele>1217.33</ele>
        <time>2018-08-11T14:02:47Z</time>
      </trkpt>
      <trkpt lat="42.54475" lon="0.05569">
        <ele>1218.57</ele>
        <time>2018-08-11T14:02:51Z</time>
      </trkpt>
      <trkpt lat="42.54493" lon="0.05571">
        <ele>1221.27</ele>
        <time>2018-08-11T14:02:57Z</time>
      </trkpt>
      <trkpt lat="42.54512" lon="0.05566">
        <ele>1221.65</ele>
        <time>2018-08-11T14:03:01Z</time>
      </trkpt>
      <trkpt lat="42.54531" lon="0.05567">
        <ele>1224.24</ele>
        <time>2018-08-11T14:03:04Z</time>
      </trkpt>
      <trkpt lat="42.54556" lon="0.05567">
        <ele>1223.67</ele>
        <time>2018-08-11T14:03:07Z</time>
      </trkpt>
      <trkpt lat="42.5458" lon="0.05573">
        <ele>1225.54</ele>
        <time>2018-08-11T14:03:10Z</time>
      </trkpt>
      <trkpt lat="42.54601" lon="0.05591">
        <ele>1227.54</ele>
        <time>2018-08-11T14:03:13Z</time>
      </trkpt>
      <trkpt lat="42.54624" lon="0.05594">
        <ele>1229.96</ele>
        <time>2018-08-11T14:03:16Z</time>
      </trkpt>
      <trkpt lat="42.54642" lon="0.05587">
        <ele>1232.21</ele>
        <time>2018-08-11T14:03:18Z</time>
      </trkpt>
      <trkpt lat="42.54661" lon="0.05584">
        <ele>1233.32</ele>
        <time>2018-08-11T14:03:20Z</time>
      </trkpt>
      <trkpt lat="42.54683" lon="0.05588">
        <ele>1234.54</ele>
        <time>2018-08-11T14:03:22Z</time>
      </trkpt>
      <trkpt lat="42.54705" lon="0.05591">
        <ele>1235.56</ele>
        <time>2018-08-11T14:03:24Z</time>
      </trkpt>
      <trkpt lat="42.54723" lon="0.05581">
        <ele>1238.17</ele>
        <time>2018-08-11T14:03:26Z</time>
      </trkpt>
      <trkpt lat="42.54736" lon="0.05562">
        <ele>1240.22</ele>
        <time>2018-08-11T14:03:28Z</time>
      </trkpt>
      <trkpt lat="42.54753" lon="0.05553">
        <ele>1242.23</ele>
        <time>2018-08-11T14:03:30Z</time>
      </trkpt>
      <trkpt lat="42.54773" lon="0.05548">
        <ele>1243.74</ele>
        <time>2018-08-11T14:03:32Z</time>
      </trkpt>
      <trkpt lat="42.54792" lon="0.05531">
        <ele>1246.18</ele>
        <time>2018-08-11T14:03:35Z</time>
      </trkpt>
      <trkpt lat="42.54787" lon="0.05501">
        <ele>1248.32</ele>
        <time>2018-08-11T14:03:38Z</time>
      </trkpt>
      <trkpt lat="42.54781" lon="0.05468">
        <ele>1250.26</ele>
        <time>2018-08-11T14:03:41Z</time>
      </trkpt>
      <trkpt lat="42.54792" lon="0.05449">
        <ele>1252.32</ele>
        <time>2018-08-11T14:03:44Z</time>
      </trkpt>
      <trkpt lat="42.54811" lon="0.05446">
        <ele>1252.92</ele>
        <time>2018-08-11T14:03:47Z</time>
      </trkpt>
      <trkpt lat="42.54834" lon="0.05434">
        <ele>1255.04</ele>
        <time>2018-08-11T14:03:50Z</time>
      </trkpt>
      <trkpt lat="42.54852" lon="0.05423">
        <ele>1256.3</ele>
        <time>2018-08-11T14:03:52Z</time>
      </trkpt>
      <trkpt lat="42.54869" lon="0.05408">
        <ele>1258.24</ele>
        <time>2018-08-11T14:03:54Z</time>
      </trkpt>
      <trkpt lat="42.54888" lon="0.05393">
        <ele>1259.53</ele>
        <time>2018-08-11T14:03:56Z</time>
      </trkpt>
      <trkpt lat="42.54908" lon="0.05382">
        <ele>1262.17</ele>
        <time>2018-08-11T14:03:58Z</time>
      </trkpt>
      <trkpt lat="42.5493" lon="0.05373">
        <ele>1264.22</ele>
        <time>2018-08-11T14:04:00Z</time>
      </trkpt>
      <trkpt lat="42.54948" lon="0.05362">
        <ele>1265.32</ele>
        <time>2018-08-11T14:04:02Z</time>
      </trkpt>
      <trkpt lat="42.54967" lon="0.05345">
        <ele>1267.53</ele>
        <time>2018-08-11T14:04:05Z</time>
      </trkpt>
      <trkpt lat="42.54979" lon="0.05323">
        <ele>1269.33</ele>
        <time>2018-08-11T14:04:08Z</time>
      </trkpt>
      <trkpt lat="42.54989" lon="0.05298">
        <ele>1268.95</ele>
        <time>2018-08-11T14:04:11Z</time>
      </trkpt>
      <trkpt lat="42.55001" lon="0.05268">
        <ele>1268.67</ele>
        <time>2018-08-11T14:04:14Z</time>
      </trkpt>
      <trkpt lat="42.55013" lon="0.05239">
        <ele>1267.75</ele>
        <time>2018-08-11T14:04:17Z</time>
      </trkpt>
      <trkpt lat="42.55023" lon="0.05211">
        <ele>1267.66</ele>
        <time>2018-08-11T14:04:21Z</time>
      </trkpt>
      <trkpt lat="42.55042" lon="0.05203">
        <ele>1267.66</ele>
        <time>2018-08-11T14:04:28Z</time>
      </trkpt>
      <trkpt lat="42.55063" lon="0.05212">
        <ele>1266.67</ele>
        <time>2018-08-11T14:04:32Z</time>
      </trkpt>
      <trkpt lat="42.55077" lon="0.05235">
        <ele>1265.05</ele>
        <time>2018-08-11T14:04:36Z</time>
      </trkpt>
      <trkpt lat="42.55095" lon="0.05235">
        <ele>1263.69</ele>
        <time>2018-08-11T14:04:41Z</time>
      </trkpt>
      <trkpt lat="42.55095" lon="0.05205">
        <ele>1261.08</ele>
        <time>2018-08-11T14:04:44Z</time>
      </trkpt>
      <trkpt lat="42.55105" lon="0.05176">
        <ele>1259</ele>
        <time>2018-08-11T14:04:47Z</time>
      </trkpt>
      <trkpt lat="42.55123" lon="0.05174">
        <ele>1255.87</ele>
        <time>2018-08-11T14:04:50Z</time>
      </trkpt>
      <trkpt lat="42.55142" lon="0.05198">
        <ele>1253.08</ele>
        <time>2018-08-11T14:04:53Z</time>
      </trkpt>
      <trkpt lat="42.55157" lon="0.05215">
        <ele>1251.09</ele>
        <time>2018-08-11T14:04:55Z</time>
      </trkpt>
      <trkpt lat="42.55177" lon="0.05225">
        <ele>1249.09</ele>
        <time>2018-08-11T14:04:57Z</time>
      </trkpt>
      <trkpt lat="42.55202" lon="0.05227">
        <ele>1246.79</ele>
        <time>2018-08-11T14:05:00Z</time>
      </trkpt>
      <trkpt lat="42.55221" lon="0.05209">
        <ele>1244.99</ele>
        <time>2018-08-11T14:05:03Z</time>
      </trkpt>
      <trkpt lat="42.55244" lon="0.05197">
        <ele>1242.08</ele>
        <time>2018-08-11T14:05:06Z</time>
      </trkpt>
      <trkpt lat="42.55264" lon="0.05177">
        <ele>1239.79</ele>
        <time>2018-08-11T14:05:09Z</time>
      </trkpt>
      <trkpt lat="42.55275" lon="0.05156">
        <ele>1238.97</ele>
        <time>2018-08-11T14:05:11Z</time>
      </trkpt>
      <trkpt lat="42.55296" lon="0.05135">
        <ele>1235.81</ele>
        <time>2018-08-11T14:05:14Z</time>
      </trkpt>
      <trkpt lat="42.55314" lon="0.05125">
        <ele>1234.06</ele>
        <time>2018-08-11T14:05:16Z</time>
      </trkpt>
      <trkpt lat="42.55332" lon="0.0511">
        <ele>1232.08</ele>
        <time>2018-08-11T14:05:18Z</time>
      </trkpt>
      <trkpt lat="42.5535" lon="0.051">
        <ele>1230.09</ele>
        <time>2018-08-11T14:05:20Z</time>
      </trkpt>
      <trkpt lat="42.55368" lon="0.05098">
        <ele>1229</ele>
        <time>2018-08-11T14:05:22Z</time>
      </trkpt>
      <trkpt lat="42.55394" lon="0.05098">
        <ele>1226.78</ele>
        <time>2018-08-11T14:05:25Z</time>
      </trkpt>
      <trkpt lat="42.55418" lon="0.05085">
        <ele>1223.81</ele>
        <time>2018-08-11T14:05:28Z</time>
      </trkpt>
      <trkpt lat="42.55438" lon="0.05082">
        <ele>1222.76</ele>
        <time>2018-08-11T14:05:30Z</time>
      </trkpt>
      <trkpt lat="42.55458" lon="0.05081">
        <ele>1221.76</ele>
        <time>2018-08-11T14:05:32Z</time>
      </trkpt>
      <trkpt lat="42.55482" lon="0.05091">
        <ele>1220.75</ele>
        <time>2018-08-11T14:05:35Z</time>
      </trkpt>
      <trkpt lat="42.55497" lon="0.05105">
        <ele>1218.78</ele>
        <time>2018-08-11T14:05:38Z</time>
      </trkpt>
      <trkpt lat="42.55506" lon="0.05079">
        <ele>1214.05</ele>
        <time>2018-08-11T14:08:36Z</time>
      </trkpt>
      <trkpt lat="42.55504" lon="0.05046">
        <ele>1211.79</ele>
        <time>2018-08-11T14:08:39Z</time>
      </trkpt>
      <trkpt lat="42.55502" lon="0.05013">
        <ele>1209.85</ele>
        <time>2018-08-11T14:08:41Z</time>
      </trkpt>
      <trkpt lat="42.55499" lon="0.04979">
        <ele>1208.07</ele>
        <time>2018-08-11T14:08:43Z</time>
      </trkpt>
      <trkpt lat="42.555" lon="0.04944">
        <ele>1206.08</ele>
        <time>2018-08-11T14:08:45Z</time>
      </trkpt>
      <trkpt lat="42.55502" lon="0.04909">
        <ele>1204.09</ele>
        <time>2018-08-11T14:08:47Z</time>
      </trkpt>
      <trkpt lat="42.55504" lon="0.04871">
        <ele>1203</ele>
        <time>2018-08-11T14:08:49Z</time>
      </trkpt>
      <trkpt lat="42.55505" lon="0.04834">
        <ele>1202.69</ele>
        <time>2018-08-11T14:08:51Z</time>
      </trkpt>
      <trkpt lat="42.55512" lon="0.04802">
        <ele>1200.84</ele>
        <time>2018-08-11T14:08:53Z</time>
      </trkpt>
      <trkpt lat="42.55525" lon="0.04776">
        <ele>1199.69</ele>
        <time>2018-08-11T14:08:56Z</time>
      </trkpt>
      <trkpt lat="42.55541" lon="0.04797">
        <ele>1196.78</ele>
        <time>2018-08-11T14:09:01Z</time>
      </trkpt>
      <trkpt lat="42.55557" lon="0.04809">
        <ele>1196.02</ele>
        <time>2018-08-11T14:09:04Z</time>
      </trkpt>
      <trkpt lat="42.55582" lon="0.04792">
        <ele>1192.51</ele>
        <time>2018-08-11T14:09:07Z</time>
      </trkpt>
      <trkpt lat="42.55602" lon="0.04773">
        <ele>1190.12</ele>
        <time>2018-08-11T14:09:09Z</time>
      </trkpt>
      <trkpt lat="42.55626" lon="0.04751">
        <ele>1188.09</ele>
        <time>2018-08-11T14:09:11Z</time>
      </trkpt>
      <trkpt lat="42.55648" lon="0.04725">
        <ele>1185.39</ele>
        <time>2018-08-11T14:09:13Z</time>
      </trkpt>
      <trkpt lat="42.5567" lon="0.04701">
        <ele>1182.2</ele>
        <time>2018-08-11T14:09:15Z</time>
      </trkpt>
      <trkpt lat="42.55692" lon="0.04679">
        <ele>1177.79</ele>
        <time>2018-08-11T14:09:17Z</time>
      </trkpt>
      <trkpt lat="42.55714" lon="0.04658">
        <ele>1174.24</ele>
        <time>2018-08-11T14:09:19Z</time>
      </trkpt>
      <trkpt lat="42.55733" lon="0.04641">
        <ele>1172.1</ele>
        <time>2018-08-11T14:09:21Z</time>
      </trkpt>
      <trkpt lat="42.55753" lon="0.04634">
        <ele>1170.09</ele>
        <time>2018-08-11T14:09:23Z</time>
      </trkpt>
      <trkpt lat="42.55774" lon="0.04628">
        <ele>1167.18</ele>
        <time>2018-08-11T14:09:25Z</time>
      </trkpt>
      <trkpt lat="42.55793" lon="0.04615">
        <ele>1165.09</ele>
        <time>2018-08-11T14:09:27Z</time>
      </trkpt>
      <trkpt lat="42.55812" lon="0.04592">
        <ele>1161.69</ele>
        <time>2018-08-11T14:09:29Z</time>
      </trkpt>
      <trkpt lat="42.55829" lon="0.04562">
        <ele>1158.44</ele>
        <time>2018-08-11T14:09:31Z</time>
      </trkpt>
      <trkpt lat="42.55847" lon="0.04531">
        <ele>1154.3</ele>
        <time>2018-08-11T14:09:33Z</time>
      </trkpt>
      <trkpt lat="42.55865" lon="0.04505">
        <ele>1152.11</ele>
        <time>2018-08-11T14:09:35Z</time>
      </trkpt>
      <trkpt lat="42.5588" lon="0.0449">
        <ele>1150.09</ele>
        <time>2018-08-11T14:09:37Z</time>
      </trkpt>
      <trkpt lat="42.55905" lon="0.04489">
        <ele>1147.3</ele>
        <time>2018-08-11T14:09:40Z</time>
      </trkpt>
      <trkpt lat="42.55925" lon="0.04494">
        <ele>1145.11</ele>
        <time>2018-08-11T14:09:42Z</time>
      </trkpt>
      <trkpt lat="42.55946" lon="0.04491">
        <ele>1143.79</ele>
        <time>2018-08-11T14:09:44Z</time>
      </trkpt>
      <trkpt lat="42.5597" lon="0.04481">
        <ele>1142.06</ele>
        <time>2018-08-11T14:09:46Z</time>
      </trkpt>
      <trkpt lat="42.5599" lon="0.04467">
        <ele>1140.08</ele>
        <time>2018-08-11T14:09:48Z</time>
      </trkpt>
      <trkpt lat="42.56005" lon="0.04442">
        <ele>1138.09</ele>
        <time>2018-08-11T14:09:50Z</time>
      </trkpt>
      <trkpt lat="42.56015" lon="0.0441">
        <ele>1136.79</ele>
        <time>2018-08-11T14:09:52Z</time>
      </trkpt>
      <trkpt lat="42.56021" lon="0.04374">
        <ele>1134.36</ele>
        <time>2018-08-11T14:09:54Z</time>
      </trkpt>
      <trkpt lat="42.56024" lon="0.04339">
        <ele>1131.41</ele>
        <time>2018-08-11T14:09:56Z</time>
      </trkpt>
      <trkpt lat="42.56025" lon="0.04313">
        <ele>1128.42</ele>
        <time>2018-08-11T14:09:58Z</time>
      </trkpt>
      <trkpt lat="42.5604" lon="0.04285">
        <ele>1126.07</ele>
        <time>2018-08-11T14:10:01Z</time>
      </trkpt>
      <trkpt lat="42.56058" lon="0.04271">
        <ele>1124.08</ele>
        <time>2018-08-11T14:10:03Z</time>
      </trkpt>
      <trkpt lat="42.5608" lon="0.04255">
        <ele>1121.18</ele>
        <time>2018-08-11T14:10:05Z</time>
      </trkpt>
      <trkpt lat="42.56096" lon="0.04232">
        <ele>1119.09</ele>
        <time>2018-08-11T14:10:07Z</time>
      </trkpt>
      <trkpt lat="42.56108" lon="0.04204">
        <ele>1117.09</ele>
        <time>2018-08-11T14:10:09Z</time>
      </trkpt>
      <trkpt lat="42.56112" lon="0.04177">
        <ele>1114.88</ele>
        <time>2018-08-11T14:10:11Z</time>
      </trkpt>
      <trkpt lat="42.56113" lon="0.04151">
        <ele>1112.08</ele>
        <time>2018-08-11T14:10:14Z</time>
      </trkpt>
      <trkpt lat="42.56125" lon="0.04172">
        <ele>1107.07</ele>
        <time>2018-08-11T14:10:20Z</time>
      </trkpt>
      <trkpt lat="42.56126" lon="0.04199">
        <ele>1104.17</ele>
        <time>2018-08-11T14:10:22Z</time>
      </trkpt>
      <trkpt lat="42.56124" lon="0.04229">
        <ele>1100.69</ele>
        <time>2018-08-11T14:10:24Z</time>
      </trkpt>
      <trkpt lat="42.56118" lon="0.04257">
        <ele>1098.35</ele>
        <time>2018-08-11T14:10:26Z</time>
      </trkpt>
      <trkpt lat="42.56105" lon="0.0428">
        <ele>1096.11</ele>
        <time>2018-08-11T14:10:28Z</time>
      </trkpt>
      <trkpt lat="42.56091" lon="0.04299">
        <ele>1095</ele>
        <time>2018-08-11T14:10:30Z</time>
      </trkpt>
      <trkpt lat="42.56082" lon="0.04321">
        <ele>1092.38</ele>
        <time>2018-08-11T14:10:32Z</time>
      </trkpt>
      <trkpt lat="42.5608" lon="0.04347">
        <ele>1090.81</ele>
        <time>2018-08-11T14:10:34Z</time>
      </trkpt>
      <trkpt lat="42.56084" lon="0.04379">
        <ele>1089.76</ele>
        <time>2018-08-11T14:10:36Z</time>
      </trkpt>
      <trkpt lat="42.56084" lon="0.0441">
        <ele>1088.06</ele>
        <time>2018-08-11T14:10:38Z</time>
      </trkpt>
      <trkpt lat="42.56082" lon="0.04441">
        <ele>1085.17</ele>
        <time>2018-08-11T14:10:40Z</time>
      </trkpt>
      <trkpt lat="42.5608" lon="0.04471">
        <ele>1083.79</ele>
        <time>2018-08-11T14:10:42Z</time>
      </trkpt>
      <trkpt lat="42.56072" lon="0.04498">
        <ele>1083.18</ele>
        <time>2018-08-11T14:10:44Z</time>
      </trkpt>
      <trkpt lat="42.56067" lon="0.04525">
        <ele>1081</ele>
        <time>2018-08-11T14:10:47Z</time>
      </trkpt>
      <trkpt lat="42.56086" lon="0.04514">
        <ele>1077.99</ele>
        <time>2018-08-11T14:10:52Z</time>
      </trkpt>
      <trkpt lat="42.56093" lon="0.0449">
        <ele>1077.9</ele>
        <time>2018-08-11T14:10:54Z</time>
      </trkpt>
      <trkpt lat="42.56103" lon="0.0446">
        <ele>1076.77</ele>
        <time>2018-08-11T14:10:56Z</time>
      </trkpt>
      <trkpt lat="42.56112" lon="0.04426">
        <ele>1075.06</ele>
        <time>2018-08-11T14:10:58Z</time>
      </trkpt>
      <trkpt lat="42.56125" lon="0.04395">
        <ele>1072.87</ele>
        <time>2018-08-11T14:11:00Z</time>
      </trkpt>
      <trkpt lat="42.56134" lon="0.04365">
        <ele>1070.37</ele>
        <time>2018-08-11T14:11:02Z</time>
      </trkpt>
      <trkpt lat="42.56147" lon="0.04337">
        <ele>1067.09</ele>
        <time>2018-08-11T14:11:05Z</time>
      </trkpt>
      <trkpt lat="42.56171" lon="0.04322">
        <ele>1064.57</ele>
        <time>2018-08-11T14:11:08Z</time>
      </trkpt>
      <trkpt lat="42.56189" lon="0.04308">
        <ele>1062.34</ele>
        <time>2018-08-11T14:11:10Z</time>
      </trkpt>
      <trkpt lat="42.56207" lon="0.04294">
        <ele>1058.29</ele>
        <time>2018-08-11T14:11:12Z</time>
      </trkpt>
      <trkpt lat="42.56222" lon="0.04279">
        <ele>1055.89</ele>
        <time>2018-08-11T14:11:14Z</time>
      </trkpt>
      <trkpt lat="42.56236" lon="0.04258">
        <ele>1053.78</ele>
        <time>2018-08-11T14:11:17Z</time>
      </trkpt>
      <trkpt lat="42.56235" lon="0.04226">
        <ele>1051.69</ele>
        <time>2018-08-11T14:11:21Z</time>
      </trkpt>
      <trkpt lat="42.56227" lon="0.04195">
        <ele>1049.84</ele>
        <time>2018-08-11T14:11:24Z</time>
      </trkpt>
      <trkpt lat="42.56223" lon="0.04164">
        <ele>1049.67</ele>
        <time>2018-08-11T14:11:26Z</time>
      </trkpt>
      <trkpt lat="42.56223" lon="0.04128">
        <ele>1048.05</ele>
        <time>2018-08-11T14:11:28Z</time>
      </trkpt>
      <trkpt lat="42.56219" lon="0.0409">
        <ele>1047.69</ele>
        <time>2018-08-11T14:11:30Z</time>
      </trkpt>
      <trkpt lat="42.56212" lon="0.04055">
        <ele>1046.05</ele>
        <time>2018-08-11T14:11:32Z</time>
      </trkpt>
      <trkpt lat="42.56204" lon="0.04031">
        <ele>1045.69</ele>
        <time>2018-08-11T14:11:34Z</time>
      </trkpt>
      <trkpt lat="42.56215" lon="0.04002">
        <ele>1047.48</ele>
        <time>2018-08-11T14:11:37Z</time>
      </trkpt>
      <trkpt lat="42.56223" lon="0.03979">
        <ele>1048.55</ele>
        <time>2018-08-11T14:11:39Z</time>
      </trkpt>
      <trkpt lat="42.56223" lon="0.0395">
        <ele>1048.65</ele>
        <time>2018-08-11T14:11:41Z</time>
      </trkpt>
      <trkpt lat="42.56228" lon="0.03922">
        <ele>1050.27</ele>
        <time>2018-08-11T14:11:43Z</time>
      </trkpt>
      <trkpt lat="42.56235" lon="0.03891">
        <ele>1051.32</ele>
        <time>2018-08-11T14:11:45Z</time>
      </trkpt>
      <trkpt lat="42.56245" lon="0.03857">
        <ele>1053.24</ele>
        <time>2018-08-11T14:11:47Z</time>
      </trkpt>
      <trkpt lat="42.5626" lon="0.03825">
        <ele>1054.53</ele>
        <time>2018-08-11T14:11:49Z</time>
      </trkpt>
      <trkpt lat="42.56276" lon="0.03795">
        <ele>1056.47</ele>
        <time>2018-08-11T14:11:51Z</time>
      </trkpt>
      <trkpt lat="42.56284" lon="0.03759">
        <ele>1056.64</ele>
        <time>2018-08-11T14:11:53Z</time>
      </trkpt>
      <trkpt lat="42.56288" lon="0.03721">
        <ele>1056.66</ele>
        <time>2018-08-11T14:11:55Z</time>
      </trkpt>
      <trkpt lat="42.56293" lon="0.03681">
        <ele>1055.96</ele>
        <time>2018-08-11T14:11:57Z</time>
      </trkpt>
      <trkpt lat="42.56303" lon="0.0364">
        <ele>1055.68</ele>
        <time>2018-08-11T14:11:59Z</time>
      </trkpt>
      <trkpt lat="42.56319" lon="0.03604">
        <ele>1055.66</ele>
        <time>2018-08-11T14:12:01Z</time>
      </trkpt>
      <trkpt lat="42.56338" lon="0.03571">
        <ele>1055.45</ele>
        <time>2018-08-11T14:12:03Z</time>
      </trkpt>
      <trkpt lat="42.56352" lon="0.03536">
        <ele>1056.34</ele>
        <time>2018-08-11T14:12:05Z</time>
      </trkpt>
      <trkpt lat="42.5636" lon="0.03499">
        <ele>1056.63</ele>
        <time>2018-08-11T14:12:07Z</time>
      </trkpt>
      <trkpt lat="42.56364" lon="0.03467">
        <ele>1057.36</ele>
        <time>2018-08-11T14:12:09Z</time>
      </trkpt>
      <trkpt lat="42.56359" lon="0.03441">
        <ele>1058.33</ele>
        <time>2018-08-11T14:12:11Z</time>
      </trkpt>
      <trkpt lat="42.56347" lon="0.03419">
        <ele>1057.72</ele>
        <time>2018-08-11T14:12:13Z</time>
      </trkpt>
      <trkpt lat="42.56325" lon="0.03408">
        <ele>1057.66</ele>
        <time>2018-08-11T14:12:15Z</time>
      </trkpt>
      <trkpt lat="42.56307" lon="0.03397">
        <ele>1057.66</ele>
        <time>2018-08-11T14:12:17Z</time>
      </trkpt>
      <trkpt lat="42.56298" lon="0.03373">
        <ele>1057.45</ele>
        <time>2018-08-11T14:12:20Z</time>
      </trkpt>
      <trkpt lat="42.56314" lon="0.03349">
        <ele>1058.36</ele>
        <time>2018-08-11T14:12:24Z</time>
      </trkpt>
      <trkpt lat="42.5634" lon="0.03332">
        <ele>1059.83</ele>
        <time>2018-08-11T14:12:27Z</time>
      </trkpt>
      <trkpt lat="42.5636" lon="0.03317">
        <ele>1060.58</ele>
        <time>2018-08-11T14:12:29Z</time>
      </trkpt>
      <trkpt lat="42.56377" lon="0.03306">
        <ele>1061.35</ele>
        <time>2018-08-11T14:12:31Z</time>
      </trkpt>
      <trkpt lat="42.564" lon="0.03316">
        <ele>1062.29</ele>
        <time>2018-08-11T14:12:34Z</time>
      </trkpt>
      <trkpt lat="42.5642" lon="0.03323">
        <ele>1063.32</ele>
        <time>2018-08-11T14:12:36Z</time>
      </trkpt>
      <trkpt lat="42.56438" lon="0.03319">
        <ele>1064.12</ele>
        <time>2018-08-11T14:12:38Z</time>
      </trkpt>
      <trkpt lat="42.56457" lon="0.03303">
        <ele>1065.52</ele>
        <time>2018-08-11T14:12:40Z</time>
      </trkpt>
      <trkpt lat="42.56476" lon="0.03277">
        <ele>1067.26</ele>
        <time>2018-08-11T14:12:42Z</time>
      </trkpt>
      <trkpt lat="42.56492" lon="0.03246">
        <ele>1067.62</ele>
        <time>2018-08-11T14:12:44Z</time>
      </trkpt>
      <trkpt lat="42.56507" lon="0.03214">
        <ele>1069.26</ele>
        <time>2018-08-11T14:12:46Z</time>
      </trkpt>
      <trkpt lat="42.56524" lon="0.03183">
        <ele>1070.32</ele>
        <time>2018-08-11T14:12:48Z</time>
      </trkpt>
      <trkpt lat="42.56539" lon="0.03154">
        <ele>1071.33</ele>
        <time>2018-08-11T14:12:50Z</time>
      </trkpt>
      <trkpt lat="42.56549" lon="0.0313">
        <ele>1071.63</ele>
        <time>2018-08-11T14:12:52Z</time>
      </trkpt>
      <trkpt lat="42.56557" lon="0.03101">
        <ele>1072.42</ele>
        <time>2018-08-11T14:12:55Z</time>
      </trkpt>
      <trkpt lat="42.56577" lon="0.03087">
        <ele>1073.56</ele>
        <time>2018-08-11T14:12:58Z</time>
      </trkpt>
      <trkpt lat="42.56601" lon="0.03089">
        <ele>1075.33</ele>
        <time>2018-08-11T14:13:01Z</time>
      </trkpt>
      <trkpt lat="42.56622" lon="0.03087">
        <ele>1077.53</ele>
        <time>2018-08-11T14:13:04Z</time>
      </trkpt>
      <trkpt lat="42.56637" lon="0.03071">
        <ele>1078.35</ele>
        <time>2018-08-11T14:13:06Z</time>
      </trkpt>
      <trkpt lat="42.56652" lon="0.03048">
        <ele>1079.75</ele>
        <time>2018-08-11T14:13:08Z</time>
      </trkpt>
      <trkpt lat="42.56663" lon="0.03018">
        <ele>1079.67</ele>
        <time>2018-08-11T14:13:10Z</time>
      </trkpt>
      <trkpt lat="42.56674" lon="0.02988">
        <ele>1079.66</ele>
        <time>2018-08-11T14:13:12Z</time>
      </trkpt>
      <trkpt lat="42.56689" lon="0.02959">
        <ele>1078.96</ele>
        <time>2018-08-11T14:13:14Z</time>
      </trkpt>
      <trkpt lat="42.56708" lon="0.02934">
        <ele>1077.78</ele>
        <time>2018-08-11T14:13:16Z</time>
      </trkpt>
      <trkpt lat="42.56728" lon="0.02917">
        <ele>1078.37</ele>
        <time>2018-08-11T14:13:18Z</time>
      </trkpt>
      <trkpt lat="42.56743" lon="0.029">
        <ele>1079.33</ele>
        <time>2018-08-11T14:13:20Z</time>
      </trkpt>
      <trkpt lat="42.56752" lon="0.02875">
        <ele>1079.63</ele>
        <time>2018-08-11T14:13:22Z</time>
      </trkpt>
      <trkpt lat="42.56757" lon="0.02843">
        <ele>1078.75</ele>
        <time>2018-08-11T14:13:24Z</time>
      </trkpt>
      <trkpt lat="42.56764" lon="0.02813">
        <ele>1078.46</ele>
        <time>2018-08-11T14:13:26Z</time>
      </trkpt>
      <trkpt lat="42.56779" lon="0.02789">
        <ele>1077.94</ele>
        <time>2018-08-11T14:13:28Z</time>
      </trkpt>
      <trkpt lat="42.56798" lon="0.02767">
        <ele>1076.98</ele>
        <time>2018-08-11T14:13:30Z</time>
      </trkpt>
      <trkpt lat="42.56817" lon="0.02736">
        <ele>1074.87</ele>
        <time>2018-08-11T14:13:32Z</time>
      </trkpt>
      <trkpt lat="42.56835" lon="0.027">
        <ele>1073.28</ele>
        <time>2018-08-11T14:13:34Z</time>
      </trkpt>
      <trkpt lat="42.56851" lon="0.02665">
        <ele>1072.71</ele>
        <time>2018-08-11T14:13:36Z</time>
      </trkpt>
      <trkpt lat="42.56864" lon="0.02629">
        <ele>1071.05</ele>
        <time>2018-08-11T14:13:38Z</time>
      </trkpt>
      <trkpt lat="42.56875" lon="0.02595">
        <ele>1069.78</ele>
        <time>2018-08-11T14:13:40Z</time>
      </trkpt>
      <trkpt lat="42.56891" lon="0.02567">
        <ele>1068.97</ele>
        <time>2018-08-11T14:13:42Z</time>
      </trkpt>
      <trkpt lat="42.56912" lon="0.02543">
        <ele>1068.69</ele>
        <time>2018-08-11T14:13:44Z</time>
      </trkpt>
      <trkpt lat="42.56934" lon="0.02517">
        <ele>1069.36</ele>
        <time>2018-08-11T14:13:46Z</time>
      </trkpt>
      <trkpt lat="42.56954" lon="0.02491">
        <ele>1070.33</ele>
        <time>2018-08-11T14:13:48Z</time>
      </trkpt>
      <trkpt lat="42.56968" lon="0.02467">
        <ele>1071.54</ele>
        <time>2018-08-11T14:13:50Z</time>
      </trkpt>
      <trkpt lat="42.56975" lon="0.02442">
        <ele>1070.74</ele>
        <time>2018-08-11T14:13:52Z</time>
      </trkpt>
      <trkpt lat="42.56982" lon="0.0241">
        <ele>1068.78</ele>
        <time>2018-08-11T14:13:55Z</time>
      </trkpt>
      <trkpt lat="42.57003" lon="0.024">
        <ele>1069.36</ele>
        <time>2018-08-11T14:13:59Z</time>
      </trkpt>
      <trkpt lat="42.57016" lon="0.02421">
        <ele>1070.35</ele>
        <time>2018-08-11T14:14:02Z</time>
      </trkpt>
      <trkpt lat="42.57027" lon="0.02444">
        <ele>1071.56</ele>
        <time>2018-08-11T14:14:05Z</time>
      </trkpt>
      <trkpt lat="42.57026" lon="0.02416">
        <ele>1072.57</ele>
        <time>2018-08-11T14:14:13Z</time>
      </trkpt>
      <trkpt lat="42.57016" lon="0.02395">
        <ele>1073.57</ele>
        <time>2018-08-11T14:14:16Z</time>
      </trkpt>
      <trkpt lat="42.57004" lon="0.02369">
        <ele>1074.57</ele>
        <time>2018-08-11T14:14:19Z</time>
      </trkpt>
      <trkpt lat="42.56997" lon="0.02344">
        <ele>1076.26</ele>
        <time>2018-08-11T14:14:21Z</time>
      </trkpt>
      <trkpt lat="42.56991" lon="0.02317">
        <ele>1078.23</ele>
        <time>2018-08-11T14:14:23Z</time>
      </trkpt>
      <trkpt lat="42.56992" lon="0.02287">
        <ele>1078.41</ele>
        <time>2018-08-11T14:14:25Z</time>
      </trkpt>
      <trkpt lat="42.57001" lon="0.02248">
        <ele>1081.16</ele>
        <time>2018-08-11T14:14:27Z</time>
      </trkpt>
      <trkpt lat="42.57007" lon="0.02208">
        <ele>1084.83</ele>
        <time>2018-08-11T14:14:29Z</time>
      </trkpt>
      <trkpt lat="42.57007" lon="0.02169">
        <ele>1087.89</ele>
        <time>2018-08-11T14:14:31Z</time>
      </trkpt>
      <trkpt lat="42.57002" lon="0.02127">
        <ele>1091.11</ele>
        <time>2018-08-11T14:14:33Z</time>
      </trkpt>
      <trkpt lat="42.56997" lon="0.02086">
        <ele>1093.92</ele>
        <time>2018-08-11T14:14:35Z</time>
      </trkpt>
      <trkpt lat="42.56999" lon="0.02051">
        <ele>1097.11</ele>
        <time>2018-08-11T14:14:37Z</time>
      </trkpt>
      <trkpt lat="42.5701" lon="0.02019">
        <ele>1100.13</ele>
        <time>2018-08-11T14:14:39Z</time>
      </trkpt>
      <trkpt lat="42.57028" lon="0.01984">
        <ele>1103.13</ele>
        <time>2018-08-11T14:14:41Z</time>
      </trkpt>
      <trkpt lat="42.57047" lon="0.01946">
        <ele>1106.83</ele>
        <time>2018-08-11T14:14:43Z</time>
      </trkpt>
      <trkpt lat="42.57067" lon="0.0191">
        <ele>1111.71</ele>
        <time>2018-08-11T14:14:45Z</time>
      </trkpt>
      <trkpt lat="42.5708" lon="0.01874">
        <ele>1114.88</ele>
        <time>2018-08-11T14:14:47Z</time>
      </trkpt>
      <trkpt lat="42.57087" lon="0.01841">
        <ele>1117.2</ele>
        <time>2018-08-11T14:14:49Z</time>
      </trkpt>
      <trkpt lat="42.57082" lon="0.01813">
        <ele>1119.93</ele>
        <time>2018-08-11T14:14:51Z</time>
      </trkpt>
      <trkpt lat="42.57069" lon="0.01784">
        <ele>1122.9</ele>
        <time>2018-08-11T14:14:53Z</time>
      </trkpt>
      <trkpt lat="42.57055" lon="0.01754">
        <ele>1125.2</ele>
        <time>2018-08-11T14:14:55Z</time>
      </trkpt>
      <trkpt lat="42.57045" lon="0.0173">
        <ele>1126.32</ele>
        <time>2018-08-11T14:14:57Z</time>
      </trkpt>
      <trkpt lat="42.57046" lon="0.01704">
        <ele>1130.27</ele>
        <time>2018-08-11T14:15:38Z</time>
      </trkpt>
      <trkpt lat="42.57055" lon="0.01678">
        <ele>1127.47</ele>
        <time>2018-08-11T14:21:05Z</time>
      </trkpt>
      <trkpt lat="42.57064" lon="0.01648">
        <ele>1127.1</ele>
        <time>2018-08-11T14:21:08Z</time>
      </trkpt>
      <trkpt lat="42.57069" lon="0.0162">
        <ele>1127.61</ele>
        <time>2018-08-11T14:21:10Z</time>
      </trkpt>
      <trkpt lat="42.57071" lon="0.01591">
        <ele>1126.25</ele>
        <time>2018-08-11T14:21:12Z</time>
      </trkpt>
      <trkpt lat="42.57075" lon="0.01561">
        <ele>1125.01</ele>
        <time>2018-08-11T14:21:14Z</time>
      </trkpt>
      <trkpt lat="42.57085" lon="0.01535">
        <ele>1125.6</ele>
        <time>2018-08-11T14:21:16Z</time>
      </trkpt>
      <trkpt lat="42.57098" lon="0.01509">
        <ele>1127.05</ele>
        <time>2018-08-11T14:21:18Z</time>
      </trkpt>
      <trkpt lat="42.57114" lon="0.01486">
        <ele>1126.9</ele>
        <time>2018-08-11T14:21:20Z</time>
      </trkpt>
      <trkpt lat="42.57129" lon="0.01459">
        <ele>1125.98</ele>
        <time>2018-08-11T14:21:22Z</time>
      </trkpt>
      <trkpt lat="42.57138" lon="0.01427">
        <ele>1127.72</ele>
        <time>2018-08-11T14:21:24Z</time>
      </trkpt>
      <trkpt lat="42.57142" lon="0.01393">
        <ele>1128.57</ele>
        <time>2018-08-11T14:21:26Z</time>
      </trkpt>
      <trkpt lat="42.57145" lon="0.01358">
        <ele>1127.74</ele>
        <time>2018-08-11T14:21:28Z</time>
      </trkpt>
      <trkpt lat="42.57148" lon="0.01321">
        <ele>1124.94</ele>
        <time>2018-08-11T14:21:30Z</time>
      </trkpt>
      <trkpt lat="42.57154" lon="0.01286">
        <ele>1123.56</ele>
        <time>2018-08-11T14:21:32Z</time>
      </trkpt>
      <trkpt lat="42.57163" lon="0.01252">
        <ele>1124.35</ele>
        <time>2018-08-11T14:21:34Z</time>
      </trkpt>
      <trkpt lat="42.5717" lon="0.01219">
        <ele>1125.54</ele>
        <time>2018-08-11T14:21:36Z</time>
      </trkpt>
      <trkpt lat="42.57179" lon="0.01194">
        <ele>1124.95</ele>
        <time>2018-08-11T14:21:38Z</time>
      </trkpt>
      <trkpt lat="42.57196" lon="0.01182">
        <ele>1124.89</ele>
        <time>2018-08-11T14:21:40Z</time>
      </trkpt>
      <trkpt lat="42.57218" lon="0.01171">
        <ele>1122.86</ele>
        <time>2018-08-11T14:21:42Z</time>
      </trkpt>
      <trkpt lat="42.57241" lon="0.01161">
        <ele>1121.77</ele>
        <time>2018-08-11T14:21:44Z</time>
      </trkpt>
      <trkpt lat="42.57264" lon="0.01155">
        <ele>1120.97</ele>
        <time>2018-08-11T14:21:46Z</time>
      </trkpt>
      <trkpt lat="42.57281" lon="0.01136">
        <ele>1120.67</ele>
        <time>2018-08-11T14:21:49Z</time>
      </trkpt>
      <trkpt lat="42.5729" lon="0.01105">
        <ele>1120.39</ele>
        <time>2018-08-11T14:21:52Z</time>
      </trkpt>
      <trkpt lat="42.57299" lon="0.01081">
        <ele>1122.24</ele>
        <time>2018-08-11T14:21:54Z</time>
      </trkpt>
      <trkpt lat="42.57301" lon="0.01049">
        <ele>1125.14</ele>
        <time>2018-08-11T14:21:56Z</time>
      </trkpt>
      <trkpt lat="42.57298" lon="0.01024">
        <ele>1127.01</ele>
        <time>2018-08-11T14:21:58Z</time>
      </trkpt>
      <trkpt lat="42.57319" lon="0.01008">
        <ele>1130.22</ele>
        <time>2018-08-11T14:22:01Z</time>
      </trkpt>
      <trkpt lat="42.57339" lon="0.01001">
        <ele>1132.23</ele>
        <time>2018-08-11T14:22:03Z</time>
      </trkpt>
      <trkpt lat="42.57359" lon="0.00989">
        <ele>1133.32</ele>
        <time>2018-08-11T14:22:05Z</time>
      </trkpt>
      <trkpt lat="42.57378" lon="0.00987">
        <ele>1133.63</ele>
        <time>2018-08-11T14:22:07Z</time>
      </trkpt>
      <trkpt lat="42.574" lon="0.01008">
        <ele>1131.35</ele>
        <time>2018-08-11T14:22:10Z</time>
      </trkpt>
      <trkpt lat="42.57416" lon="0.01026">
        <ele>1130.51</ele>
        <time>2018-08-11T14:22:12Z</time>
      </trkpt>
      <trkpt lat="42.57433" lon="0.01038">
        <ele>1130.64</ele>
        <time>2018-08-11T14:22:14Z</time>
      </trkpt>
      <trkpt lat="42.57453" lon="0.01048">
        <ele>1130.66</ele>
        <time>2018-08-11T14:22:16Z</time>
      </trkpt>
      <trkpt lat="42.57472" lon="0.01037">
        <ele>1131.57</ele>
        <time>2018-08-11T14:22:18Z</time>
      </trkpt>
      <trkpt lat="42.57473" lon="0.01012">
        <ele>1132.77</ele>
        <time>2018-08-11T14:22:20Z</time>
      </trkpt>
      <trkpt lat="42.57456" lon="0.00979">
        <ele>1134</ele>
        <time>2018-08-11T14:22:23Z</time>
      </trkpt>
      <trkpt lat="42.57443" lon="0.0096">
        <ele>1135.3</ele>
        <time>2018-08-11T14:22:25Z</time>
      </trkpt>
      <trkpt lat="42.57437" lon="0.00932">
        <ele>1137.24</ele>
        <time>2018-08-11T14:22:27Z</time>
      </trkpt>
      <trkpt lat="42.5743" lon="0.00903">
        <ele>1137.62</ele>
        <time>2018-08-11T14:22:29Z</time>
      </trkpt>
      <trkpt lat="42.57421" lon="0.00875">
        <ele>1136.53</ele>
        <time>2018-08-11T14:22:31Z</time>
      </trkpt>
      <trkpt lat="42.57413" lon="0.00849">
        <ele>1139.87</ele>
        <time>2018-08-11T14:22:33Z</time>
      </trkpt>
      <trkpt lat="42.57405" lon="0.00817">
        <ele>1142.2</ele>
        <time>2018-08-11T14:22:35Z</time>
      </trkpt>
      <trkpt lat="42.57403" lon="0.00788">
        <ele>1142.41</ele>
        <time>2018-08-11T14:22:37Z</time>
      </trkpt>
      <trkpt lat="42.57411" lon="0.00765">
        <ele>1146.56</ele>
        <time>2018-08-11T14:22:39Z</time>
      </trkpt>
      <trkpt lat="42.57422" lon="0.00735">
        <ele>1147.14</ele>
        <time>2018-08-11T14:22:41Z</time>
      </trkpt>
      <trkpt lat="42.5744" lon="0.00706">
        <ele>1149.22</ele>
        <time>2018-08-11T14:22:43Z</time>
      </trkpt>
      <trkpt lat="42.57453" lon="0.00674">
        <ele>1149.83</ele>
        <time>2018-08-11T14:22:45Z</time>
      </trkpt>
      <trkpt lat="42.57464" lon="0.00638">
        <ele>1151.98</ele>
        <time>2018-08-11T14:22:47Z</time>
      </trkpt>
      <trkpt lat="42.57473" lon="0.00604">
        <ele>1154</ele>
        <time>2018-08-11T14:22:49Z</time>
      </trkpt>
      <trkpt lat="42.57488" lon="0.00585">
        <ele>1156.21</ele>
        <time>2018-08-11T14:22:51Z</time>
      </trkpt>
      <trkpt lat="42.57509" lon="0.00583">
        <ele>1156.16</ele>
        <time>2018-08-11T14:22:54Z</time>
      </trkpt>
      <trkpt lat="42.57528" lon="0.00605">
        <ele>1158.19</ele>
        <time>2018-08-11T14:22:57Z</time>
      </trkpt>
      <trkpt lat="42.57538" lon="0.00634">
        <ele>1161.08</ele>
        <time>2018-08-11T14:23:00Z</time>
      </trkpt>
      <trkpt lat="42.57554" lon="0.00647">
        <ele>1163.92</ele>
        <time>2018-08-11T14:23:02Z</time>
      </trkpt>
      <trkpt lat="42.57574" lon="0.00658">
        <ele>1165.55</ele>
        <time>2018-08-11T14:23:05Z</time>
      </trkpt>
      <trkpt lat="42.57596" lon="0.00656">
        <ele>1165.38</ele>
        <time>2018-08-11T14:23:08Z</time>
      </trkpt>
      <trkpt lat="42.57599" lon="0.00619">
        <ele>1167.27</ele>
        <time>2018-08-11T14:23:12Z</time>
      </trkpt>
      <trkpt lat="42.57614" lon="0.00587">
        <ele>1169.19</ele>
        <time>2018-08-11T14:23:15Z</time>
      </trkpt>
      <trkpt lat="42.57615" lon="0.00557">
        <ele>1168.71</ele>
        <time>2018-08-11T14:23:17Z</time>
      </trkpt>
      <trkpt lat="42.576" lon="0.00533">
        <ele>1170.97</ele>
        <time>2018-08-11T14:23:19Z</time>
      </trkpt>
      <trkpt lat="42.57593" lon="0.00509">
        <ele>1171.6</ele>
        <time>2018-08-11T14:23:21Z</time>
      </trkpt>
      <trkpt lat="42.57593" lon="0.0048">
        <ele>1174.88</ele>
        <time>2018-08-11T14:23:24Z</time>
      </trkpt>
      <trkpt lat="42.57608" lon="0.00467">
        <ele>1174.68</ele>
        <time>2018-08-11T14:23:26Z</time>
      </trkpt>
      <trkpt lat="42.57627" lon="0.00441">
        <ele>1177.03</ele>
        <time>2018-08-11T14:23:29Z</time>
      </trkpt>
      <trkpt lat="42.57642" lon="0.0042">
        <ele>1175.78</ele>
        <time>2018-08-11T14:23:31Z</time>
      </trkpt>
      <trkpt lat="42.57651" lon="0.00395">
        <ele>1176.58</ele>
        <time>2018-08-11T14:23:33Z</time>
      </trkpt>
      <trkpt lat="42.57662" lon="0.0037">
        <ele>1175.95</ele>
        <time>2018-08-11T14:23:35Z</time>
      </trkpt>
      <trkpt lat="42.57675" lon="0.00345">
        <ele>1174.28</ele>
        <time>2018-08-11T14:23:37Z</time>
      </trkpt>
      <trkpt lat="42.5769" lon="0.00325">
        <ele>1174.83</ele>
        <time>2018-08-11T14:23:39Z</time>
      </trkpt>
      <trkpt lat="42.5771" lon="0.00309">
        <ele>1173.06</ele>
        <time>2018-08-11T14:23:41Z</time>
      </trkpt>
      <trkpt lat="42.57731" lon="0.0029">
        <ele>1169.11</ele>
        <time>2018-08-11T14:23:44Z</time>
      </trkpt>
      <trkpt lat="42.57736" lon="0.00264">
        <ele>1168.31</ele>
        <time>2018-08-11T14:23:47Z</time>
      </trkpt>
      <trkpt lat="42.5776" lon="0.00255">
        <ele>1170.32</ele>
        <time>2018-08-11T14:23:50Z</time>
      </trkpt>
      <trkpt lat="42.57788" lon="0.00254">
        <ele>1171.5</ele>
        <time>2018-08-11T14:23:53Z</time>
      </trkpt>
      <trkpt lat="42.57782" lon="0.00223">
        <ele>1173.66</ele>
        <time>2018-08-11T14:23:56Z</time>
      </trkpt>
      <trkpt lat="42.57786" lon="0.00198">
        <ele>1171.71</ele>
        <time>2018-08-11T14:23:59Z</time>
      </trkpt>
      <trkpt lat="42.57802" lon="0.00177">
        <ele>1170.48</ele>
        <time>2018-08-11T14:24:02Z</time>
      </trkpt>
      <trkpt lat="42.5782" lon="0.00163">
        <ele>1169.24</ele>
        <time>2018-08-11T14:24:04Z</time>
      </trkpt>
      <trkpt lat="42.57837" lon="0.00146">
        <ele>1167.8</ele>
        <time>2018-08-11T14:24:06Z</time>
      </trkpt>
      <trkpt lat="42.57852" lon="0.00128">
        <ele>1166.76</ele>
        <time>2018-08-11T14:24:08Z</time>
      </trkpt>
      <trkpt lat="42.57865" lon="0.00111">
        <ele>1165.76</ele>
        <time>2018-08-11T14:24:10Z</time>
      </trkpt>
      <trkpt lat="42.57884" lon="0.00105">
        <ele>1168.19</ele>
        <time>2018-08-11T14:24:12Z</time>
      </trkpt>
      <trkpt lat="42.57907" lon="0.00098">
        <ele>1166.76</ele>
        <time>2018-08-11T14:24:15Z</time>
      </trkpt>
      <trkpt lat="42.57919" lon="0.00074">
        <ele>1168.06</ele>
        <time>2018-08-11T14:24:18Z</time>
      </trkpt>
      <trkpt lat="42.57915" lon="0.00041">
        <ele>1169.07</ele>
        <time>2018-08-11T14:24:21Z</time>
      </trkpt>
      <trkpt lat="42.57919" lon="0.0001">
        <ele>1167.82</ele>
        <time>2018-08-11T14:24:24Z</time>
      </trkpt>
      <trkpt lat="42.57927" lon="-0.00013">
        <ele>1167.46</ele>
        <time>2018-08-11T14:24:26Z</time>
      </trkpt>
      <trkpt lat="42.57941" lon="-0.00036">
        <ele>1167.15</ele>
        <time>2018-08-11T14:24:28Z</time>
      </trkpt>
      <trkpt lat="42.57959" lon="-0.0005">
        <ele>1167.4</ele>
        <time>2018-08-11T14:24:30Z</time>
      </trkpt>
      <trkpt lat="42.57977" lon="-0.00061">
        <ele>1168.55</ele>
        <time>2018-08-11T14:24:32Z</time>
      </trkpt>
      <trkpt lat="42.57992" lon="-0.0008">
        <ele>1168.65</ele>
        <time>2018-08-11T14:24:34Z</time>
      </trkpt>
      <trkpt lat="42.58007" lon="-0.00097">
        <ele>1171.18</ele>
        <time>2018-08-11T14:24:36Z</time>
      </trkpt>
      <trkpt lat="42.58019" lon="-0.00124">
        <ele>1173.46</ele>
        <time>2018-08-11T14:24:39Z</time>
      </trkpt>
      <trkpt lat="42.58021" lon="-0.00149">
        <ele>1173.64</ele>
        <time>2018-08-11T14:24:41Z</time>
      </trkpt>
      <trkpt lat="42.58026" lon="-0.00183">
        <ele>1173.87</ele>
        <time>2018-08-11T14:24:44Z</time>
      </trkpt>
      <trkpt lat="42.58034" lon="-0.00208">
        <ele>1175.29</ele>
        <time>2018-08-11T14:24:46Z</time>
      </trkpt>
      <trkpt lat="42.58047" lon="-0.00238">
        <ele>1175.41</ele>
        <time>2018-08-11T14:24:48Z</time>
      </trkpt>
      <trkpt lat="42.58055" lon="-0.00267">
        <ele>1174.94</ele>
        <time>2018-08-11T14:24:50Z</time>
      </trkpt>
      <trkpt lat="42.5807" lon="-0.00295">
        <ele>1177.19</ele>
        <time>2018-08-11T14:24:53Z</time>
      </trkpt>
      <trkpt lat="42.58081" lon="-0.00319">
        <ele>1176.74</ele>
        <time>2018-08-11T14:24:56Z</time>
      </trkpt>
      <trkpt lat="42.58099" lon="-0.00327">
        <ele>1177.36</ele>
        <time>2018-08-11T14:24:58Z</time>
      </trkpt>
      <trkpt lat="42.58121" lon="-0.00333">
        <ele>1178.33</ele>
        <time>2018-08-11T14:25:00Z</time>
      </trkpt>
      <trkpt lat="42.58148" lon="-0.00332">
        <ele>1179.54</ele>
        <time>2018-08-11T14:25:02Z</time>
      </trkpt>
      <trkpt lat="42.58175" lon="-0.00336">
        <ele>1180.35</ele>
        <time>2018-08-11T14:25:04Z</time>
      </trkpt>
      <trkpt lat="42.58185" lon="-0.00364">
        <ele>1181.12</ele>
        <time>2018-08-11T14:25:06Z</time>
      </trkpt>
      <trkpt lat="42.582" lon="-0.00389">
        <ele>1185.74</ele>
        <time>2018-08-11T14:25:08Z</time>
      </trkpt>
      <trkpt lat="42.58215" lon="-0.00412">
        <ele>1190.71</ele>
        <time>2018-08-11T14:25:10Z</time>
      </trkpt>
      <trkpt lat="42.58228" lon="-0.00433">
        <ele>1190.87</ele>
        <time>2018-08-11T14:25:12Z</time>
      </trkpt>
      <trkpt lat="42.58237" lon="-0.00464">
        <ele>1192.29</ele>
        <time>2018-08-11T14:25:14Z</time>
      </trkpt>
      <trkpt lat="42.58241" lon="-0.00492">
        <ele>1193.53</ele>
        <time>2018-08-11T14:25:16Z</time>
      </trkpt>
      <trkpt lat="42.58239" lon="-0.00526">
        <ele>1195.47</ele>
        <time>2018-08-11T14:25:18Z</time>
      </trkpt>
      <trkpt lat="42.58248" lon="-0.00554">
        <ele>1197.47</ele>
        <time>2018-08-11T14:25:21Z</time>
      </trkpt>
      <trkpt lat="42.5827" lon="-0.00554">
        <ele>1203.12</ele>
        <time>2018-08-11T14:25:26Z</time>
      </trkpt>
      <trkpt lat="42.58292" lon="-0.00546">
        <ele>1203.85</ele>
        <time>2018-08-11T14:25:29Z</time>
      </trkpt>
      <trkpt lat="42.58313" lon="-0.00538">
        <ele>1204.38</ele>
        <time>2018-08-11T14:25:31Z</time>
      </trkpt>
      <trkpt lat="42.58336" lon="-0.00558">
        <ele>1204.21</ele>
        <time>2018-08-11T14:25:33Z</time>
      </trkpt>
      <trkpt lat="42.58362" lon="-0.0058">
        <ele>1200.21</ele>
        <time>2018-08-11T14:25:35Z</time>
      </trkpt>
      <trkpt lat="42.58366" lon="-0.00624">
        <ele>1202.02</ele>
        <time>2018-08-11T14:25:37Z</time>
      </trkpt>
      <trkpt lat="42.58378" lon="-0.00657">
        <ele>1204.21</ele>
        <time>2018-08-11T14:25:39Z</time>
      </trkpt>
      <trkpt lat="42.58389" lon="-0.00689">
        <ele>1206.44</ele>
        <time>2018-08-11T14:25:41Z</time>
      </trkpt>
      <trkpt lat="42.58385" lon="-0.00728">
        <ele>1210.77</ele>
        <time>2018-08-11T14:25:43Z</time>
      </trkpt>
      <trkpt lat="42.58393" lon="-0.00764">
        <ele>1215.46</ele>
        <time>2018-08-11T14:25:46Z</time>
      </trkpt>
      <trkpt lat="42.58412" lon="-0.0079">
        <ele>1213.07</ele>
        <time>2018-08-11T14:25:49Z</time>
      </trkpt>
      <trkpt lat="42.58433" lon="-0.00812">
        <ele>1213.4</ele>
        <time>2018-08-11T14:25:51Z</time>
      </trkpt>
      <trkpt lat="42.58454" lon="-0.00834">
        <ele>1212.23</ele>
        <time>2018-08-11T14:25:53Z</time>
      </trkpt>
      <trkpt lat="42.58473" lon="-0.00856">
        <ele>1214.93</ele>
        <time>2018-08-11T14:25:55Z</time>
      </trkpt>
      <trkpt lat="42.58495" lon="-0.00873">
        <ele>1215.8</ele>
        <time>2018-08-11T14:25:57Z</time>
      </trkpt>
      <trkpt lat="42.58514" lon="-0.00894">
        <ele>1215.67</ele>
        <time>2018-08-11T14:25:59Z</time>
      </trkpt>
      <trkpt lat="42.58539" lon="-0.00914">
        <ele>1216.36</ele>
        <time>2018-08-11T14:26:01Z</time>
      </trkpt>
      <trkpt lat="42.58556" lon="-0.00937">
        <ele>1216.63</ele>
        <time>2018-08-11T14:26:03Z</time>
      </trkpt>
      <trkpt lat="42.58573" lon="-0.00958">
        <ele>1218.27</ele>
        <time>2018-08-11T14:26:05Z</time>
      </trkpt>
      <trkpt lat="42.58592" lon="-0.00979">
        <ele>1219.32</ele>
        <time>2018-08-11T14:26:07Z</time>
      </trkpt>
      <trkpt lat="42.58603" lon="-0.01006">
        <ele>1220.54</ele>
        <time>2018-08-11T14:26:09Z</time>
      </trkpt>
      <trkpt lat="42.58616" lon="-0.01032">
        <ele>1221.35</ele>
        <time>2018-08-11T14:26:11Z</time>
      </trkpt>
      <trkpt lat="42.58635" lon="-0.01055">
        <ele>1223.45</ele>
        <time>2018-08-11T14:26:13Z</time>
      </trkpt>
      <trkpt lat="42.58654" lon="-0.0108">
        <ele>1224.55</ele>
        <time>2018-08-11T14:26:15Z</time>
      </trkpt>
      <trkpt lat="42.58671" lon="-0.01103">
        <ele>1226.05</ele>
        <time>2018-08-11T14:26:17Z</time>
      </trkpt>
      <trkpt lat="42.58688" lon="-0.01124">
        <ele>1227.51</ele>
        <time>2018-08-11T14:26:19Z</time>
      </trkpt>
      <trkpt lat="42.58712" lon="-0.01142">
        <ele>1226.24</ele>
        <time>2018-08-11T14:26:21Z</time>
      </trkpt>
      <trkpt lat="42.58733" lon="-0.01164">
        <ele>1225.92</ele>
        <time>2018-08-11T14:26:23Z</time>
      </trkpt>
      <trkpt lat="42.58742" lon="-0.01187">
        <ele>1226.38</ele>
        <time>2018-08-11T14:26:25Z</time>
      </trkpt>
      <trkpt lat="42.58746" lon="-0.01213">
        <ele>1227.54</ele>
        <time>2018-08-11T14:26:27Z</time>
      </trkpt>
      <trkpt lat="42.58746" lon="-0.01241">
        <ele>1227.65</ele>
        <time>2018-08-11T14:26:29Z</time>
      </trkpt>
      <trkpt lat="42.58747" lon="-0.01271">
        <ele>1226.75</ele>
        <time>2018-08-11T14:26:31Z</time>
      </trkpt>
      <trkpt lat="42.58751" lon="-0.01296">
        <ele>1227.58</ele>
        <time>2018-08-11T14:26:33Z</time>
      </trkpt>
      <trkpt lat="42.58744" lon="-0.01324">
        <ele>1227.59</ele>
        <time>2018-08-11T14:26:36Z</time>
      </trkpt>
      <trkpt lat="42.58723" lon="-0.01331">
        <ele>1226.75</ele>
        <time>2018-08-11T14:26:39Z</time>
      </trkpt>
      <trkpt lat="42.58701" lon="-0.01335">
        <ele>1225.96</ele>
        <time>2018-08-11T14:26:42Z</time>
      </trkpt>
      <trkpt lat="42.58687" lon="-0.01355">
        <ele>1225.6</ele>
        <time>2018-08-11T14:26:45Z</time>
      </trkpt>
      <trkpt lat="42.58679" lon="-0.01381">
        <ele>1228.38</ele>
        <time>2018-08-11T14:26:47Z</time>
      </trkpt>
      <trkpt lat="42.58682" lon="-0.01409">
        <ele>1230.27</ele>
        <time>2018-08-11T14:26:51Z</time>
      </trkpt>
      <trkpt lat="42.58699" lon="-0.01389">
        <ele>1233.64</ele>
        <time>2018-08-11T14:26:56Z</time>
      </trkpt>
      <trkpt lat="42.58712" lon="-0.01368">
        <ele>1235.06</ele>
        <time>2018-08-11T14:26:59Z</time>
      </trkpt>
      <trkpt lat="42.58714" lon="-0.01395">
        <ele>1238.3</ele>
        <time>2018-08-11T14:27:05Z</time>
      </trkpt>
      <trkpt lat="42.58707" lon="-0.01427">
        <ele>1237.25</ele>
        <time>2018-08-11T14:27:08Z</time>
      </trkpt>
      <trkpt lat="42.58713" lon="-0.01463">
        <ele>1239.26</ele>
        <time>2018-08-11T14:27:11Z</time>
      </trkpt>
      <trkpt lat="42.58722" lon="-0.0149">
        <ele>1238.92</ele>
        <time>2018-08-11T14:27:13Z</time>
      </trkpt>
      <trkpt lat="42.58729" lon="-0.01518">
        <ele>1238.68</ele>
        <time>2018-08-11T14:27:15Z</time>
      </trkpt>
      <trkpt lat="42.58735" lon="-0.01546">
        <ele>1240.97</ele>
        <time>2018-08-11T14:27:17Z</time>
      </trkpt>
      <trkpt lat="42.58733" lon="-0.0157">
        <ele>1245.03</ele>
        <time>2018-08-11T14:27:19Z</time>
      </trkpt>
      <trkpt lat="42.58734" lon="-0.01602">
        <ele>1248.29</ele>
        <time>2018-08-11T14:27:22Z</time>
      </trkpt>
      <trkpt lat="42.58751" lon="-0.01581">
        <ele>1250.15</ele>
        <time>2018-08-11T14:27:28Z</time>
      </trkpt>
      <trkpt lat="42.58754" lon="-0.01555">
        <ele>1252.01</ele>
        <time>2018-08-11T14:27:30Z</time>
      </trkpt>
      <trkpt lat="42.58758" lon="-0.01526">
        <ele>1256.73</ele>
        <time>2018-08-11T14:27:32Z</time>
      </trkpt>
      <trkpt lat="42.58757" lon="-0.01496">
        <ele>1257.57</ele>
        <time>2018-08-11T14:27:34Z</time>
      </trkpt>
      <trkpt lat="42.58761" lon="-0.01469">
        <ele>1259.27</ele>
        <time>2018-08-11T14:27:37Z</time>
      </trkpt>
      <trkpt lat="42.58776" lon="-0.01483">
        <ele>1264.5</ele>
        <time>2018-08-11T14:27:42Z</time>
      </trkpt>
      <trkpt lat="42.58773" lon="-0.01507">
        <ele>1266.26</ele>
        <time>2018-08-11T14:27:45Z</time>
      </trkpt>
      <trkpt lat="42.58776" lon="-0.01537">
        <ele>1265.92</ele>
        <time>2018-08-11T14:27:47Z</time>
      </trkpt>
      <trkpt lat="42.58778" lon="-0.01566">
        <ele>1267.99</ele>
        <time>2018-08-11T14:27:49Z</time>
      </trkpt>
      <trkpt lat="42.58776" lon="-0.01595">
        <ele>1270.91</ele>
        <time>2018-08-11T14:27:51Z</time>
      </trkpt>
      <trkpt lat="42.58776" lon="-0.01627">
        <ele>1274.81</ele>
        <time>2018-08-11T14:27:53Z</time>
      </trkpt>
      <trkpt lat="42.58781" lon="-0.01656">
        <ele>1277.4</ele>
        <time>2018-08-11T14:27:55Z</time>
      </trkpt>
      <trkpt lat="42.58788" lon="-0.01687">
        <ele>1277.84</ele>
        <time>2018-08-11T14:27:57Z</time>
      </trkpt>
      <trkpt lat="42.58793" lon="-0.01715">
        <ele>1280.19</ele>
        <time>2018-08-11T14:27:59Z</time>
      </trkpt>
      <trkpt lat="42.58809" lon="-0.01737">
        <ele>1284.05</ele>
        <time>2018-08-11T14:28:01Z</time>
      </trkpt>
      <trkpt lat="42.58825" lon="-0.01759">
        <ele>1284.6</ele>
        <time>2018-08-11T14:28:03Z</time>
      </trkpt>
      <trkpt lat="42.58842" lon="-0.01776">
        <ele>1287.17</ele>
        <time>2018-08-11T14:28:05Z</time>
      </trkpt>
      <trkpt lat="42.58858" lon="-0.0179">
        <ele>1288.55</ele>
        <time>2018-08-11T14:28:08Z</time>
      </trkpt>
      <trkpt lat="42.58847" lon="-0.01759">
        <ele>1290.33</ele>
        <time>2018-08-11T14:28:14Z</time>
      </trkpt>
      <trkpt lat="42.58829" lon="-0.0173">
        <ele>1291.33</ele>
        <time>2018-08-11T14:28:16Z</time>
      </trkpt>
      <trkpt lat="42.5882" lon="-0.01702">
        <ele>1291.63</ele>
        <time>2018-08-11T14:28:18Z</time>
      </trkpt>
      <trkpt lat="42.58816" lon="-0.01674">
        <ele>1292.57</ele>
        <time>2018-08-11T14:28:20Z</time>
      </trkpt>
      <trkpt lat="42.58818" lon="-0.01648">
        <ele>1293.14</ele>
        <time>2018-08-11T14:28:22Z</time>
      </trkpt>
      <trkpt lat="42.58825" lon="-0.01626">
        <ele>1296.34</ele>
        <time>2018-08-11T14:28:24Z</time>
      </trkpt>
      <trkpt lat="42.58843" lon="-0.01609">
        <ele>1299.72</ele>
        <time>2018-08-11T14:28:27Z</time>
      </trkpt>
      <trkpt lat="42.58868" lon="-0.01626">
        <ele>1300.91</ele>
        <time>2018-08-11T14:28:30Z</time>
      </trkpt>
      <trkpt lat="42.58889" lon="-0.01644">
        <ele>1302.5</ele>
        <time>2018-08-11T14:28:32Z</time>
      </trkpt>
      <trkpt lat="42.58909" lon="-0.01661">
        <ele>1304.95</ele>
        <time>2018-08-11T14:28:34Z</time>
      </trkpt>
      <trkpt lat="42.58925" lon="-0.01677">
        <ele>1308.11</ele>
        <time>2018-08-11T14:28:36Z</time>
      </trkpt>
      <trkpt lat="42.58909" lon="-0.01687">
        <ele>1309.36</ele>
        <time>2018-08-11T14:28:43Z</time>
      </trkpt>
      <trkpt lat="42.5889" lon="-0.01686">
        <ele>1308.68</ele>
        <time>2018-08-11T14:28:46Z</time>
      </trkpt>
      <trkpt lat="42.58884" lon="-0.01713">
        <ele>1311.47</ele>
        <time>2018-08-11T14:28:50Z</time>
      </trkpt>
      <trkpt lat="42.58893" lon="-0.0174">
        <ele>1314.16</ele>
        <time>2018-08-11T14:28:52Z</time>
      </trkpt>
      <trkpt lat="42.58905" lon="-0.0177">
        <ele>1316.01</ele>
        <time>2018-08-11T14:28:54Z</time>
      </trkpt>
      <trkpt lat="42.58925" lon="-0.01803">
        <ele>1320.03</ele>
        <time>2018-08-11T14:28:56Z</time>
      </trkpt>
      <trkpt lat="42.58944" lon="-0.01837">
        <ele>1321.51</ele>
        <time>2018-08-11T14:28:58Z</time>
      </trkpt>
      <trkpt lat="42.58966" lon="-0.01872">
        <ele>1324.16</ele>
        <time>2018-08-11T14:29:00Z</time>
      </trkpt>
      <trkpt lat="42.58984" lon="-0.01903">
        <ele>1326.22</ele>
        <time>2018-08-11T14:29:02Z</time>
      </trkpt>
      <trkpt lat="42.58999" lon="-0.01928">
        <ele>1328.44</ele>
        <time>2018-08-11T14:29:04Z</time>
      </trkpt>
      <trkpt lat="42.59011" lon="-0.01954">
        <ele>1330.46</ele>
        <time>2018-08-11T14:29:06Z</time>
      </trkpt>
      <trkpt lat="42.59021" lon="-0.01979">
        <ele>1332.25</ele>
        <time>2018-08-11T14:29:08Z</time>
      </trkpt>
      <trkpt lat="42.59023" lon="-0.02003">
        <ele>1335.84</ele>
        <time>2018-08-11T14:29:10Z</time>
      </trkpt>
      <trkpt lat="42.59011" lon="-0.02028">
        <ele>1337.98</ele>
        <time>2018-08-11T14:29:12Z</time>
      </trkpt>
      <trkpt lat="42.59" lon="-0.02054">
        <ele>1341.92</ele>
        <time>2018-08-11T14:29:15Z</time>
      </trkpt>
      <trkpt lat="42.59018" lon="-0.02065">
        <ele>1344.62</ele>
        <time>2018-08-11T14:29:21Z</time>
      </trkpt>
      <trkpt lat="42.59028" lon="-0.02038">
        <ele>1345.35</ele>
        <time>2018-08-11T14:29:23Z</time>
      </trkpt>
      <trkpt lat="42.5904" lon="-0.0202">
        <ele>1346.33</ele>
        <time>2018-08-11T14:29:25Z</time>
      </trkpt>
      <trkpt lat="42.59067" lon="-0.02019">
        <ele>1349.3</ele>
        <time>2018-08-11T14:29:28Z</time>
      </trkpt>
      <trkpt lat="42.59087" lon="-0.0203">
        <ele>1350.29</ele>
        <time>2018-08-11T14:29:31Z</time>
      </trkpt>
      <trkpt lat="42.59064" lon="-0.02036">
        <ele>1354.35</ele>
        <time>2018-08-11T14:29:38Z</time>
      </trkpt>
      <trkpt lat="42.59047" lon="-0.02045">
        <ele>1354.16</ele>
        <time>2018-08-11T14:29:41Z</time>
      </trkpt>
      <trkpt lat="42.59033" lon="-0.02067">
        <ele>1354.1</ele>
        <time>2018-08-11T14:29:44Z</time>
      </trkpt>
      <trkpt lat="42.59036" lon="-0.02103">
        <ele>1356.43</ele>
        <time>2018-08-11T14:29:46Z</time>
      </trkpt>
      <trkpt lat="42.5904" lon="-0.02134">
        <ele>1358.25</ele>
        <time>2018-08-11T14:29:48Z</time>
      </trkpt>
      <trkpt lat="42.59049" lon="-0.02162">
        <ele>1360.93</ele>
        <time>2018-08-11T14:29:50Z</time>
      </trkpt>
      <trkpt lat="42.59057" lon="-0.02186">
        <ele>1363.41</ele>
        <time>2018-08-11T14:29:52Z</time>
      </trkpt>
      <trkpt lat="42.59063" lon="-0.02213">
        <ele>1365.04</ele>
        <time>2018-08-11T14:29:54Z</time>
      </trkpt>
      <trkpt lat="42.59069" lon="-0.02241">
        <ele>1367</ele>
        <time>2018-08-11T14:29:56Z</time>
      </trkpt>
      <trkpt lat="42.59073" lon="-0.02274">
        <ele>1367.91</ele>
        <time>2018-08-11T14:29:59Z</time>
      </trkpt>
      <trkpt lat="42.59075" lon="-0.02299">
        <ele>1370.92</ele>
        <time>2018-08-11T14:30:05Z</time>
      </trkpt>
      <trkpt lat="42.59078" lon="-0.02328">
        <ele>1369.77</ele>
        <time>2018-08-11T14:30:41Z</time>
      </trkpt>
      <trkpt lat="42.59072" lon="-0.02353">
        <ele>1368.69</ele>
        <time>2018-08-11T14:30:44Z</time>
      </trkpt>
      <trkpt lat="42.59065" lon="-0.02377">
        <ele>1367.69</ele>
        <time>2018-08-11T14:30:47Z</time>
      </trkpt>
      <trkpt lat="42.59028" lon="-0.024">
        <ele>1365.07</ele>
        <time>2018-08-11T14:30:50Z</time>
      </trkpt>
      <trkpt lat="42.59007" lon="-0.02409">
        <ele>1364.08</ele>
        <time>2018-08-11T14:30:51Z</time>
      </trkpt>
      <trkpt lat="42.58974" lon="-0.02418">
        <ele>1367.62</ele>
        <time>2018-08-11T14:30:53Z</time>
      </trkpt>
      <trkpt lat="42.58947" lon="-0.02425">
        <ele>1369.26</ele>
        <time>2018-08-11T14:30:55Z</time>
      </trkpt>
      <trkpt lat="42.58922" lon="-0.02439">
        <ele>1365.98</ele>
        <time>2018-08-11T14:30:57Z</time>
      </trkpt>
      <trkpt lat="42.58905" lon="-0.02455">
        <ele>1364.08</ele>
        <time>2018-08-11T14:30:59Z</time>
      </trkpt>
      <trkpt lat="42.58891" lon="-0.02484">
        <ele>1363.49</ele>
        <time>2018-08-11T14:31:01Z</time>
      </trkpt>
      <trkpt lat="42.58876" lon="-0.02515">
        <ele>1361.12</ele>
        <time>2018-08-11T14:31:03Z</time>
      </trkpt>
      <trkpt lat="42.58857" lon="-0.02539">
        <ele>1360</ele>
        <time>2018-08-11T14:31:05Z</time>
      </trkpt>
      <trkpt lat="42.58838" lon="-0.02567">
        <ele>1359.69</ele>
        <time>2018-08-11T14:31:07Z</time>
      </trkpt>
      <trkpt lat="42.58818" lon="-0.02584">
        <ele>1359.66</ele>
        <time>2018-08-11T14:31:09Z</time>
      </trkpt>
      <trkpt lat="42.58794" lon="-0.0259">
        <ele>1358.75</ele>
        <time>2018-08-11T14:31:11Z</time>
      </trkpt>
      <trkpt lat="42.58769" lon="-0.02597">
        <ele>1355.66</ele>
        <time>2018-08-11T14:31:13Z</time>
      </trkpt>
      <trkpt lat="42.58747" lon="-0.02601">
        <ele>1351.32</ele>
        <time>2018-08-11T14:31:15Z</time>
      </trkpt>
      <trkpt lat="42.58728" lon="-0.02615">
        <ele>1349.11</ele>
        <time>2018-08-11T14:31:17Z</time>
      </trkpt>
      <trkpt lat="42.58716" lon="-0.02637">
        <ele>1345.69</ele>
        <time>2018-08-11T14:31:19Z</time>
      </trkpt>
      <trkpt lat="42.58715" lon="-0.02667">
        <ele>1345.66</ele>
        <time>2018-08-11T14:31:21Z</time>
      </trkpt>
      <trkpt lat="42.58709" lon="-0.02693">
        <ele>1346.57</ele>
        <time>2018-08-11T14:31:23Z</time>
      </trkpt>
      <trkpt lat="42.58696" lon="-0.02719">
        <ele>1346.65</ele>
        <time>2018-08-11T14:31:25Z</time>
      </trkpt>
      <trkpt lat="42.58676" lon="-0.02735">
        <ele>1347.36</ele>
        <time>2018-08-11T14:31:27Z</time>
      </trkpt>
      <trkpt lat="42.58655" lon="-0.02746">
        <ele>1346.72</ele>
        <time>2018-08-11T14:31:29Z</time>
      </trkpt>
      <trkpt lat="42.58628" lon="-0.02741">
        <ele>1345.05</ele>
        <time>2018-08-11T14:31:31Z</time>
      </trkpt>
      <trkpt lat="42.58604" lon="-0.02748">
        <ele>1344.69</ele>
        <time>2018-08-11T14:31:33Z</time>
      </trkpt>
      <trkpt lat="42.5859" lon="-0.02765">
        <ele>1343.05</ele>
        <time>2018-08-11T14:31:35Z</time>
      </trkpt>
      <trkpt lat="42.58573" lon="-0.02774">
        <ele>1341.08</ele>
        <time>2018-08-11T14:31:37Z</time>
      </trkpt>
      <trkpt lat="42.5855" lon="-0.02761">
        <ele>1337.48</ele>
        <time>2018-08-11T14:31:39Z</time>
      </trkpt>
      <trkpt lat="42.58529" lon="-0.02755">
        <ele>1330.99</ele>
        <time>2018-08-11T14:31:41Z</time>
      </trkpt>
      <trkpt lat="42.58509" lon="-0.02764">
        <ele>1328.17</ele>
        <time>2018-08-11T14:31:43Z</time>
      </trkpt>
      <trkpt lat="42.58491" lon="-0.02786">
        <ele>1326.79</ele>
        <time>2018-08-11T14:31:45Z</time>
      </trkpt>
      <trkpt lat="42.5848" lon="-0.02811">
        <ele>1325.97</ele>
        <time>2018-08-11T14:31:47Z</time>
      </trkpt>
      <trkpt lat="42.58475" lon="-0.02841">
        <ele>1325.69</ele>
        <time>2018-08-11T14:31:49Z</time>
      </trkpt>
      <trkpt lat="42.5847" lon="-0.02869">
        <ele>1324.75</ele>
        <time>2018-08-11T14:31:51Z</time>
      </trkpt>
      <trkpt lat="42.58456" lon="-0.02895">
        <ele>1322.35</ele>
        <time>2018-08-11T14:31:54Z</time>
      </trkpt>
      <trkpt lat="42.58434" lon="-0.02915">
        <ele>1319.41</ele>
        <time>2018-08-11T14:31:56Z</time>
      </trkpt>
      <trkpt lat="42.58415" lon="-0.02943">
        <ele>1317.82</ele>
        <time>2018-08-11T14:31:58Z</time>
      </trkpt>
      <trkpt lat="42.58398" lon="-0.02961">
        <ele>1314.94</ele>
        <time>2018-08-11T14:32:00Z</time>
      </trkpt>
      <trkpt lat="42.58381" lon="-0.0297">
        <ele>1312.58</ele>
        <time>2018-08-11T14:32:02Z</time>
      </trkpt>
      <trkpt lat="42.58357" lon="-0.02967">
        <ele>1309.22</ele>
        <time>2018-08-11T14:32:04Z</time>
      </trkpt>
      <trkpt lat="42.58327" lon="-0.02965">
        <ele>1306.4</ele>
        <time>2018-08-11T14:32:06Z</time>
      </trkpt>
      <trkpt lat="42.58298" lon="-0.02959">
        <ele>1304.11</ele>
        <time>2018-08-11T14:32:08Z</time>
      </trkpt>
      <trkpt lat="42.58266" lon="-0.02957">
        <ele>1302.79</ele>
        <time>2018-08-11T14:32:10Z</time>
      </trkpt>
      <trkpt lat="42.58241" lon="-0.02952">
        <ele>1300.15</ele>
        <time>2018-08-11T14:32:12Z</time>
      </trkpt>
      <trkpt lat="42.5822" lon="-0.02957">
        <ele>1297.09</ele>
        <time>2018-08-11T14:32:15Z</time>
      </trkpt>
      <trkpt lat="42.58221" lon="-0.0299">
        <ele>1292.14</ele>
        <time>2018-08-11T14:32:18Z</time>
      </trkpt>
      <trkpt lat="42.58228" lon="-0.03027">
        <ele>1287.78</ele>
        <time>2018-08-11T14:32:21Z</time>
      </trkpt>
      <trkpt lat="42.58233" lon="-0.03052">
        <ele>1286.97</ele>
        <time>2018-08-11T14:32:23Z</time>
      </trkpt>
      <trkpt lat="42.58229" lon="-0.03078">
        <ele>1283.11</ele>
        <time>2018-08-11T14:32:26Z</time>
      </trkpt>
      <trkpt lat="42.58205" lon="-0.03069">
        <ele>1278.84</ele>
        <time>2018-08-11T14:32:29Z</time>
      </trkpt>
      <trkpt lat="42.58187" lon="-0.03059">
        <ele>1277.06</ele>
        <time>2018-08-11T14:32:31Z</time>
      </trkpt>
      <trkpt lat="42.5817" lon="-0.03047">
        <ele>1275.08</ele>
        <time>2018-08-11T14:32:33Z</time>
      </trkpt>
      <trkpt lat="42.58153" lon="-0.03033">
        <ele>1275.61</ele>
        <time>2018-08-11T14:32:35Z</time>
      </trkpt>
      <trkpt lat="42.58131" lon="-0.03016">
        <ele>1273.77</ele>
        <time>2018-08-11T14:32:38Z</time>
      </trkpt>
      <trkpt lat="42.5811" lon="-0.03019">
        <ele>1273.81</ele>
        <time>2018-08-11T14:32:41Z</time>
      </trkpt>
      <trkpt lat="42.58097" lon="-0.03049">
        <ele>1269.9</ele>
        <time>2018-08-11T14:32:44Z</time>
      </trkpt>
      <trkpt lat="42.58094" lon="-0.03086">
        <ele>1268.98</ele>
        <time>2018-08-11T14:32:46Z</time>
      </trkpt>
      <trkpt lat="42.58095" lon="-0.03121">
        <ele>1267.78</ele>
        <time>2018-08-11T14:32:48Z</time>
      </trkpt>
      <trkpt lat="42.58098" lon="-0.03158">
        <ele>1266.97</ele>
        <time>2018-08-11T14:32:50Z</time>
      </trkpt>
      <trkpt lat="42.58109" lon="-0.03194">
        <ele>1266.9</ele>
        <time>2018-08-11T14:32:52Z</time>
      </trkpt>
      <trkpt lat="42.58131" lon="-0.03225">
        <ele>1265.77</ele>
        <time>2018-08-11T14:32:54Z</time>
      </trkpt>
      <trkpt lat="42.58139" lon="-0.03258">
        <ele>1261.54</ele>
        <time>2018-08-11T14:32:56Z</time>
      </trkpt>
      <trkpt lat="42.58137" lon="-0.03293">
        <ele>1260.04</ele>
        <time>2018-08-11T14:32:58Z</time>
      </trkpt>
      <trkpt lat="42.58131" lon="-0.03325">
        <ele>1253.46</ele>
        <time>2018-08-11T14:33:00Z</time>
      </trkpt>
      <trkpt lat="42.58121" lon="-0.03354">
        <ele>1248.6</ele>
        <time>2018-08-11T14:33:02Z</time>
      </trkpt>
      <trkpt lat="42.58107" lon="-0.03372">
        <ele>1246.83</ele>
        <time>2018-08-11T14:33:04Z</time>
      </trkpt>
      <trkpt lat="42.58086" lon="-0.03386">
        <ele>1245.76</ele>
        <time>2018-08-11T14:33:06Z</time>
      </trkpt>
      <trkpt lat="42.58057" lon="-0.03389">
        <ele>1244.27</ele>
        <time>2018-08-11T14:33:08Z</time>
      </trkpt>
      <trkpt lat="42.58029" lon="-0.03394">
        <ele>1241.4</ele>
        <time>2018-08-11T14:33:10Z</time>
      </trkpt>
      <trkpt lat="42.58005" lon="-0.03389">
        <ele>1238.91</ele>
        <time>2018-08-11T14:33:12Z</time>
      </trkpt>
      <trkpt lat="42.5798" lon="-0.03379">
        <ele>1238.68</ele>
        <time>2018-08-11T14:33:14Z</time>
      </trkpt>
      <trkpt lat="42.57956" lon="-0.03371">
        <ele>1237.05</ele>
        <time>2018-08-11T14:33:16Z</time>
      </trkpt>
      <trkpt lat="42.57934" lon="-0.03373">
        <ele>1236.69</ele>
        <time>2018-08-11T14:33:18Z</time>
      </trkpt>
      <trkpt lat="42.57915" lon="-0.03389">
        <ele>1235.47</ele>
        <time>2018-08-11T14:33:21Z</time>
      </trkpt>
      <trkpt lat="42.57918" lon="-0.03426">
        <ele>1232.16</ele>
        <time>2018-08-11T14:33:24Z</time>
      </trkpt>
      <trkpt lat="42.57928" lon="-0.03451">
        <ele>1226.8</ele>
        <time>2018-08-11T14:33:26Z</time>
      </trkpt>
      <trkpt lat="42.57937" lon="-0.03482">
        <ele>1220.93</ele>
        <time>2018-08-11T14:33:28Z</time>
      </trkpt>
      <trkpt lat="42.57948" lon="-0.03513">
        <ele>1218.65</ele>
        <time>2018-08-11T14:33:30Z</time>
      </trkpt>
      <trkpt lat="42.5796" lon="-0.03536">
        <ele>1214.74</ele>
        <time>2018-08-11T14:33:32Z</time>
      </trkpt>
      <trkpt lat="42.5796" lon="-0.03566">
        <ele>1209.28</ele>
        <time>2018-08-11T14:33:35Z</time>
      </trkpt>
      <trkpt lat="42.57943" lon="-0.03579">
        <ele>1207</ele>
        <time>2018-08-11T14:33:38Z</time>
      </trkpt>
      <trkpt lat="42.57913" lon="-0.03582">
        <ele>1204.38</ele>
        <time>2018-08-11T14:33:40Z</time>
      </trkpt>
      <trkpt lat="42.57887" lon="-0.03593">
        <ele>1200.71</ele>
        <time>2018-08-11T14:33:42Z</time>
      </trkpt>
      <trkpt lat="42.57862" lon="-0.03603">
        <ele>1198.84</ele>
        <time>2018-08-11T14:33:44Z</time>
      </trkpt>
      <trkpt lat="42.57837" lon="-0.03606">
        <ele>1197.06</ele>
        <time>2018-08-11T14:33:46Z</time>
      </trkpt>
      <trkpt lat="42.57816" lon="-0.03618">
        <ele>1195.99</ele>
        <time>2018-08-11T14:33:48Z</time>
      </trkpt>
      <trkpt lat="42.57796" lon="-0.03634">
        <ele>1195.69</ele>
        <time>2018-08-11T14:33:50Z</time>
      </trkpt>
      <trkpt lat="42.57779" lon="-0.03649">
        <ele>1194.75</ele>
        <time>2018-08-11T14:33:52Z</time>
      </trkpt>
      <trkpt lat="42.5776" lon="-0.0366">
        <ele>1193.97</ele>
        <time>2018-08-11T14:33:54Z</time>
      </trkpt>
      <trkpt lat="42.57741" lon="-0.03669">
        <ele>1193.69</ele>
        <time>2018-08-11T14:33:56Z</time>
      </trkpt>
      <trkpt lat="42.57719" lon="-0.03673">
        <ele>1192.75</ele>
        <time>2018-08-11T14:33:58Z</time>
      </trkpt>
      <trkpt lat="42.57695" lon="-0.03679">
        <ele>1191.69</ele>
        <time>2018-08-11T14:34:01Z</time>
      </trkpt>
      <trkpt lat="42.57677" lon="-0.03706">
        <ele>1189.01</ele>
        <time>2018-08-11T14:34:04Z</time>
      </trkpt>
      <trkpt lat="42.57653" lon="-0.03724">
        <ele>1187.99</ele>
        <time>2018-08-11T14:34:06Z</time>
      </trkpt>
      <trkpt lat="42.57624" lon="-0.03728">
        <ele>1185.38</ele>
        <time>2018-08-11T14:34:08Z</time>
      </trkpt>
      <trkpt lat="42.57594" lon="-0.03723">
        <ele>1182.9</ele>
        <time>2018-08-11T14:34:10Z</time>
      </trkpt>
      <trkpt lat="42.57571" lon="-0.03723">
        <ele>1180.37</ele>
        <time>2018-08-11T14:34:12Z</time>
      </trkpt>
      <trkpt lat="42.57551" lon="-0.03717">
        <ele>1177.41</ele>
        <time>2018-08-11T14:34:14Z</time>
      </trkpt>
      <trkpt lat="42.57529" lon="-0.03702">
        <ele>1169.76</ele>
        <time>2018-08-11T14:34:17Z</time>
      </trkpt>
      <trkpt lat="42.5751" lon="-0.03701">
        <ele>1163.69</ele>
        <time>2018-08-11T14:34:21Z</time>
      </trkpt>
      <trkpt lat="42.57526" lon="-0.03729">
        <ele>1157.13</ele>
        <time>2018-08-11T14:34:25Z</time>
      </trkpt>
      <trkpt lat="42.57552" lon="-0.03741">
        <ele>1152.57</ele>
        <time>2018-08-11T14:34:27Z</time>
      </trkpt>
      <trkpt lat="42.57578" lon="-0.03752">
        <ele>1147.61</ele>
        <time>2018-08-11T14:34:29Z</time>
      </trkpt>
      <trkpt lat="42.57603" lon="-0.03758">
        <ele>1143.73</ele>
        <time>2018-08-11T14:34:31Z</time>
      </trkpt>
      <trkpt lat="42.57623" lon="-0.03769">
        <ele>1140.31</ele>
        <time>2018-08-11T14:34:34Z</time>
      </trkpt>
      <trkpt lat="42.57618" lon="-0.03799">
        <ele>1137.08</ele>
        <time>2018-08-11T14:34:38Z</time>
      </trkpt>
      <trkpt lat="42.57595" lon="-0.03785">
        <ele>1135.09</ele>
        <time>2018-08-11T14:34:40Z</time>
      </trkpt>
      <trkpt lat="42.57562" lon="-0.03778">
        <ele>1134.7</ele>
        <time>2018-08-11T14:34:42Z</time>
      </trkpt>
      <trkpt lat="42.57536" lon="-0.03769">
        <ele>1133.75</ele>
        <time>2018-08-11T14:34:44Z</time>
      </trkpt>
      <trkpt lat="42.57513" lon="-0.03769">
        <ele>1131.99</ele>
        <time>2018-08-11T14:34:47Z</time>
      </trkpt>
      <trkpt lat="42.57533" lon="-0.03789">
        <ele>1125.69</ele>
        <time>2018-08-11T14:34:52Z</time>
      </trkpt>
      <trkpt lat="42.57561" lon="-0.03802">
        <ele>1122.23</ele>
        <time>2018-08-11T14:34:54Z</time>
      </trkpt>
      <trkpt lat="42.57588" lon="-0.03823">
        <ele>1119.89</ele>
        <time>2018-08-11T14:34:56Z</time>
      </trkpt>
      <trkpt lat="42.57604" lon="-0.03839">
        <ele>1117.37</ele>
        <time>2018-08-11T14:34:58Z</time>
      </trkpt>
      <trkpt lat="42.57616" lon="-0.03862">
        <ele>1114.09</ele>
        <time>2018-08-11T14:35:01Z</time>
      </trkpt>
      <trkpt lat="42.57587" lon="-0.0386">
        <ele>1108.36</ele>
        <time>2018-08-11T14:35:05Z</time>
      </trkpt>
      <trkpt lat="42.57559" lon="-0.03853">
        <ele>1106.47</ele>
        <time>2018-08-11T14:35:06Z</time>
      </trkpt>
      <trkpt lat="42.57532" lon="-0.0385">
        <ele>1102.72</ele>
        <time>2018-08-11T14:35:08Z</time>
      </trkpt>
      <trkpt lat="42.5751" lon="-0.03857">
        <ele>1100.84</ele>
        <time>2018-08-11T14:35:10Z</time>
      </trkpt>
      <trkpt lat="42.5749" lon="-0.0387">
        <ele>1100.46</ele>
        <time>2018-08-11T14:35:12Z</time>
      </trkpt>
      <trkpt lat="42.57479" lon="-0.03892">
        <ele>1098.82</ele>
        <time>2018-08-11T14:35:14Z</time>
      </trkpt>
      <trkpt lat="42.57456" lon="-0.03909">
        <ele>1097.75</ele>
        <time>2018-08-11T14:35:17Z</time>
      </trkpt>
      <trkpt lat="42.5743" lon="-0.03912">
        <ele>1096.75</ele>
        <time>2018-08-11T14:35:20Z</time>
      </trkpt>
      <trkpt lat="42.57416" lon="-0.03937">
        <ele>1095.06</ele>
        <time>2018-08-11T14:35:22Z</time>
      </trkpt>
      <trkpt lat="42.57399" lon="-0.03966">
        <ele>1094.69</ele>
        <time>2018-08-11T14:35:24Z</time>
      </trkpt>
      <trkpt lat="42.57375" lon="-0.03991">
        <ele>1094.87</ele>
        <time>2018-08-11T14:35:26Z</time>
      </trkpt>
      <trkpt lat="42.57347" lon="-0.04009">
        <ele>1095.38</ele>
        <time>2018-08-11T14:35:28Z</time>
      </trkpt>
      <trkpt lat="42.57316" lon="-0.04003">
        <ele>1095.84</ele>
        <time>2018-08-11T14:35:30Z</time>
      </trkpt>
      <trkpt lat="42.57287" lon="-0.04005">
        <ele>1095.67</ele>
        <time>2018-08-11T14:35:32Z</time>
      </trkpt>
      <trkpt lat="42.57262" lon="-0.04012">
        <ele>1095.87</ele>
        <time>2018-08-11T14:35:34Z</time>
      </trkpt>
      <trkpt lat="42.57248" lon="-0.04028">
        <ele>1095.72</ele>
        <time>2018-08-11T14:35:35Z</time>
      </trkpt>
      <trkpt lat="42.57221" lon="-0.04046">
        <ele>1095.45</ele>
        <time>2018-08-11T14:35:37Z</time>
      </trkpt>
      <trkpt lat="42.57194" lon="-0.04059">
        <ele>1095.64</ele>
        <time>2018-08-11T14:35:39Z</time>
      </trkpt>
      <trkpt lat="42.57167" lon="-0.04059">
        <ele>1094.96</ele>
        <time>2018-08-11T14:35:41Z</time>
      </trkpt>
      <trkpt lat="42.57147" lon="-0.0406">
        <ele>1093.07</ele>
        <time>2018-08-11T14:35:43Z</time>
      </trkpt>
      <trkpt lat="42.57134" lon="-0.04086">
        <ele>1092.73</ele>
        <time>2018-08-11T14:35:46Z</time>
      </trkpt>
      <trkpt lat="42.57127" lon="-0.04119">
        <ele>1090.84</ele>
        <time>2018-08-11T14:35:48Z</time>
      </trkpt>
      <trkpt lat="42.57125" lon="-0.04144">
        <ele>1090.71</ele>
        <time>2018-08-11T14:35:49Z</time>
      </trkpt>
      <trkpt lat="42.57112" lon="-0.04184">
        <ele>1090.87</ele>
        <time>2018-08-11T14:35:51Z</time>
      </trkpt>
      <trkpt lat="42.57091" lon="-0.04215">
        <ele>1089.98</ele>
        <time>2018-08-11T14:35:53Z</time>
      </trkpt>
      <trkpt lat="42.57078" lon="-0.04233">
        <ele>1089.75</ele>
        <time>2018-08-11T14:35:54Z</time>
      </trkpt>
      <trkpt lat="42.57064" lon="-0.0426">
        <ele>1089.67</ele>
        <time>2018-08-11T14:35:56Z</time>
      </trkpt>
      <trkpt lat="42.5706" lon="-0.04294">
        <ele>1088.05</ele>
        <time>2018-08-11T14:35:58Z</time>
      </trkpt>
      <trkpt lat="42.57055" lon="-0.04333">
        <ele>1088.39</ele>
        <time>2018-08-11T14:36:00Z</time>
      </trkpt>
      <trkpt lat="42.57045" lon="-0.04364">
        <ele>1087.02</ele>
        <time>2018-08-11T14:36:02Z</time>
      </trkpt>
      <trkpt lat="42.57032" lon="-0.04396">
        <ele>1085.99</ele>
        <time>2018-08-11T14:36:04Z</time>
      </trkpt>
      <trkpt lat="42.57007" lon="-0.04416">
        <ele>1084.99</ele>
        <time>2018-08-11T14:36:06Z</time>
      </trkpt>
      <trkpt lat="42.56988" lon="-0.04414">
        <ele>1084.76</ele>
        <time>2018-08-11T14:36:07Z</time>
      </trkpt>
      <trkpt lat="42.56959" lon="-0.04419">
        <ele>1082.85</ele>
        <time>2018-08-11T14:36:09Z</time>
      </trkpt>
      <trkpt lat="42.56941" lon="-0.04433">
        <ele>1081.06</ele>
        <time>2018-08-11T14:36:11Z</time>
      </trkpt>
      <trkpt lat="42.56925" lon="-0.04455">
        <ele>1080.69</ele>
        <time>2018-08-11T14:36:13Z</time>
      </trkpt>
      <trkpt lat="42.56913" lon="-0.04501">
        <ele>1079.05</ele>
        <time>2018-08-11T14:36:15Z</time>
      </trkpt>
      <trkpt lat="42.569" lon="-0.04539">
        <ele>1075.47</ele>
        <time>2018-08-11T14:36:17Z</time>
      </trkpt>
      <trkpt lat="42.56888" lon="-0.04576">
        <ele>1072.91</ele>
        <time>2018-08-11T14:36:19Z</time>
      </trkpt>
      <trkpt lat="42.56876" lon="-0.04595">
        <ele>1071.28</ele>
        <time>2018-08-11T14:36:21Z</time>
      </trkpt>
      <trkpt lat="42.56858" lon="-0.04611">
        <ele>1070.01</ele>
        <time>2018-08-11T14:36:23Z</time>
      </trkpt>
      <trkpt lat="42.56836" lon="-0.04634">
        <ele>1068.78</ele>
        <time>2018-08-11T14:36:25Z</time>
      </trkpt>
      <trkpt lat="42.56819" lon="-0.04659">
        <ele>1066.15</ele>
        <time>2018-08-11T14:36:27Z</time>
      </trkpt>
      <trkpt lat="42.56811" lon="-0.04682">
        <ele>1065.28</ele>
        <time>2018-08-11T14:36:29Z</time>
      </trkpt>
      <trkpt lat="42.56811" lon="-0.04719">
        <ele>1064.71</ele>
        <time>2018-08-11T14:36:31Z</time>
      </trkpt>
      <trkpt lat="42.56818" lon="-0.04762">
        <ele>1063.05</ele>
        <time>2018-08-11T14:36:33Z</time>
      </trkpt>
      <trkpt lat="42.5682" lon="-0.04802">
        <ele>1060.17</ele>
        <time>2018-08-11T14:36:35Z</time>
      </trkpt>
      <trkpt lat="42.56818" lon="-0.04841">
        <ele>1057.88</ele>
        <time>2018-08-11T14:36:37Z</time>
      </trkpt>
      <trkpt lat="42.56808" lon="-0.0487">
        <ele>1056.28</ele>
        <time>2018-08-11T14:36:39Z</time>
      </trkpt>
      <trkpt lat="42.56796" lon="-0.04899">
        <ele>1057.11</ele>
        <time>2018-08-11T14:36:41Z</time>
      </trkpt>
      <trkpt lat="42.56776" lon="-0.04916">
        <ele>1054.57</ele>
        <time>2018-08-11T14:36:44Z</time>
      </trkpt>
      <trkpt lat="42.56768" lon="-0.04941">
        <ele>1054.44</ele>
        <time>2018-08-11T14:36:46Z</time>
      </trkpt>
      <trkpt lat="42.56765" lon="-0.04968">
        <ele>1054.43</ele>
        <time>2018-08-11T14:36:48Z</time>
      </trkpt>
      <trkpt lat="42.56761" lon="-0.05005">
        <ele>1053.73</ele>
        <time>2018-08-11T14:36:50Z</time>
      </trkpt>
      <trkpt lat="42.56754" lon="-0.0504">
        <ele>1054.57</ele>
        <time>2018-08-11T14:36:52Z</time>
      </trkpt>
      <trkpt lat="42.56741" lon="-0.05073">
        <ele>1053.95</ele>
        <time>2018-08-11T14:36:54Z</time>
      </trkpt>
      <trkpt lat="42.56729" lon="-0.05105">
        <ele>1052.07</ele>
        <time>2018-08-11T14:36:56Z</time>
      </trkpt>
      <trkpt lat="42.56711" lon="-0.05129">
        <ele>1050.79</ele>
        <time>2018-08-11T14:36:58Z</time>
      </trkpt>
      <trkpt lat="42.56687" lon="-0.05152">
        <ele>1049.76</ele>
        <time>2018-08-11T14:37:00Z</time>
      </trkpt>
      <trkpt lat="42.5666" lon="-0.05179">
        <ele>1049.18</ele>
        <time>2018-08-11T14:37:02Z</time>
      </trkpt>
      <trkpt lat="42.56635" lon="-0.05204">
        <ele>1046.18</ele>
        <time>2018-08-11T14:37:04Z</time>
      </trkpt>
      <trkpt lat="42.56613" lon="-0.05232">
        <ele>1045.01</ele>
        <time>2018-08-11T14:37:06Z</time>
      </trkpt>
      <trkpt lat="42.56607" lon="-0.05256">
        <ele>1044.06</ele>
        <time>2018-08-11T14:37:07Z</time>
      </trkpt>
      <trkpt lat="42.56588" lon="-0.05293">
        <ele>1039.77</ele>
        <time>2018-08-11T14:37:09Z</time>
      </trkpt>
      <trkpt lat="42.56573" lon="-0.05327">
        <ele>1034.63</ele>
        <time>2018-08-11T14:37:11Z</time>
      </trkpt>
      <trkpt lat="42.5656" lon="-0.0535">
        <ele>1032.84</ele>
        <time>2018-08-11T14:37:13Z</time>
      </trkpt>
      <trkpt lat="42.56541" lon="-0.05363">
        <ele>1032.67</ele>
        <time>2018-08-11T14:37:15Z</time>
      </trkpt>
      <trkpt lat="42.56522" lon="-0.05388">
        <ele>1030.78</ele>
        <time>2018-08-11T14:37:18Z</time>
      </trkpt>
      <trkpt lat="42.56513" lon="-0.05414">
        <ele>1029.06</ele>
        <time>2018-08-11T14:37:20Z</time>
      </trkpt>
      <trkpt lat="42.56502" lon="-0.05447">
        <ele>1027.99</ele>
        <time>2018-08-11T14:37:22Z</time>
      </trkpt>
      <trkpt lat="42.56486" lon="-0.05479">
        <ele>1026.78</ele>
        <time>2018-08-11T14:37:24Z</time>
      </trkpt>
      <trkpt lat="42.56476" lon="-0.05511">
        <ele>1028.28</ele>
        <time>2018-08-11T14:37:26Z</time>
      </trkpt>
      <trkpt lat="42.56484" lon="-0.05545">
        <ele>1027.53</ele>
        <time>2018-08-11T14:37:29Z</time>
      </trkpt>
      <trkpt lat="42.56504" lon="-0.05567">
        <ele>1027.44</ele>
        <time>2018-08-11T14:37:32Z</time>
      </trkpt>
      <trkpt lat="42.56506" lon="-0.05596">
        <ele>1027.44</ele>
        <time>2018-08-11T14:37:35Z</time>
      </trkpt>
      <trkpt lat="42.56488" lon="-0.05612">
        <ele>1028.55</ele>
        <time>2018-08-11T14:37:37Z</time>
      </trkpt>
      <trkpt lat="42.56478" lon="-0.05636">
        <ele>1030.05</ele>
        <time>2018-08-11T14:37:39Z</time>
      </trkpt>
      <trkpt lat="42.56479" lon="-0.05667">
        <ele>1029.2</ele>
        <time>2018-08-11T14:37:41Z</time>
      </trkpt>
      <trkpt lat="42.56489" lon="-0.05704">
        <ele>1029.2</ele>
        <time>2018-08-11T14:37:43Z</time>
      </trkpt>
      <trkpt lat="42.56498" lon="-0.05731">
        <ele>1028.82</ele>
        <time>2018-08-11T14:37:44Z</time>
      </trkpt>
      <trkpt lat="42.56511" lon="-0.05772">
        <ele>1027.97</ele>
        <time>2018-08-11T14:37:46Z</time>
      </trkpt>
      <trkpt lat="42.56517" lon="-0.05795">
        <ele>1027.75</ele>
        <time>2018-08-11T14:37:47Z</time>
      </trkpt>
      <trkpt lat="42.56526" lon="-0.05835">
        <ele>1026.97</ele>
        <time>2018-08-11T14:37:49Z</time>
      </trkpt>
      <trkpt lat="42.56534" lon="-0.05876">
        <ele>1025.99</ele>
        <time>2018-08-11T14:37:51Z</time>
      </trkpt>
      <trkpt lat="42.56538" lon="-0.059">
        <ele>1024.36</ele>
        <time>2018-08-11T14:37:52Z</time>
      </trkpt>
      <trkpt lat="42.56544" lon="-0.0594">
        <ele>1023.72</ele>
        <time>2018-08-11T14:37:54Z</time>
      </trkpt>
      <trkpt lat="42.56546" lon="-0.05982">
        <ele>1021.35</ele>
        <time>2018-08-11T14:37:56Z</time>
      </trkpt>
      <trkpt lat="42.56549" lon="-0.06025">
        <ele>1020.23</ele>
        <time>2018-08-11T14:37:58Z</time>
      </trkpt>
      <trkpt lat="42.56549" lon="-0.06067">
        <ele>1020.62</ele>
        <time>2018-08-11T14:38:00Z</time>
      </trkpt>
      <trkpt lat="42.56556" lon="-0.06113">
        <ele>1019.53</ele>
        <time>2018-08-11T14:38:02Z</time>
      </trkpt>
      <trkpt lat="42.56563" lon="-0.06151">
        <ele>1017.34</ele>
        <time>2018-08-11T14:38:04Z</time>
      </trkpt>
      <trkpt lat="42.56555" lon="-0.06189">
        <ele>1012.17</ele>
        <time>2018-08-11T14:38:06Z</time>
      </trkpt>
      <trkpt lat="42.5655" lon="-0.06234">
        <ele>1010.3</ele>
        <time>2018-08-11T14:38:08Z</time>
      </trkpt>
      <trkpt lat="42.56549" lon="-0.06273">
        <ele>1008.6</ele>
        <time>2018-08-11T14:38:10Z</time>
      </trkpt>
      <trkpt lat="42.56556" lon="-0.06315">
        <ele>1007.04</ele>
        <time>2018-08-11T14:38:12Z</time>
      </trkpt>
      <trkpt lat="42.56562" lon="-0.06362">
        <ele>1005.57</ele>
        <time>2018-08-11T14:38:14Z</time>
      </trkpt>
      <trkpt lat="42.56569" lon="-0.06405">
        <ele>1003.55</ele>
        <time>2018-08-11T14:38:16Z</time>
      </trkpt>
      <trkpt lat="42.56567" lon="-0.06441">
        <ele>1002.74</ele>
        <time>2018-08-11T14:38:18Z</time>
      </trkpt>
      <trkpt lat="42.56561" lon="-0.06479">
        <ele>1000.85</ele>
        <time>2018-08-11T14:38:20Z</time>
      </trkpt>
      <trkpt lat="42.56562" lon="-0.06522">
        <ele>1000.67</ele>
        <time>2018-08-11T14:38:22Z</time>
      </trkpt>
      <trkpt lat="42.56566" lon="-0.06569">
        <ele>999.26</ele>
        <time>2018-08-11T14:38:24Z</time>
      </trkpt>
      <trkpt lat="42.56574" lon="-0.06614">
        <ele>999.62</ele>
        <time>2018-08-11T14:38:26Z</time>
      </trkpt>
      <trkpt lat="42.56584" lon="-0.06661">
        <ele>998.74</ele>
        <time>2018-08-11T14:38:28Z</time>
      </trkpt>
      <trkpt lat="42.5659" lon="-0.06685">
        <ele>997.98</ele>
        <time>2018-08-11T14:38:29Z</time>
      </trkpt>
      <trkpt lat="42.56601" lon="-0.0673">
        <ele>998.18</ele>
        <time>2018-08-11T14:38:31Z</time>
      </trkpt>
      <trkpt lat="42.56611" lon="-0.06775">
        <ele>997.91</ele>
        <time>2018-08-11T14:38:33Z</time>
      </trkpt>
      <trkpt lat="42.56622" lon="-0.06818">
        <ele>998.38</ele>
        <time>2018-08-11T14:38:35Z</time>
      </trkpt>
      <trkpt lat="42.56635" lon="-0.06861">
        <ele>993.87</ele>
        <time>2018-08-11T14:38:37Z</time>
      </trkpt>
      <trkpt lat="42.56642" lon="-0.06885">
        <ele>994.42</ele>
        <time>2018-08-11T14:38:38Z</time>
      </trkpt>
      <trkpt lat="42.56651" lon="-0.06906">
        <ele>993.89</ele>
        <time>2018-08-11T14:38:39Z</time>
      </trkpt>
      <trkpt lat="42.56665" lon="-0.06951">
        <ele>995.29</ele>
        <time>2018-08-11T14:38:41Z</time>
      </trkpt>
      <trkpt lat="42.5667" lon="-0.06974">
        <ele>995.55</ele>
        <time>2018-08-11T14:38:42Z</time>
      </trkpt>
      <trkpt lat="42.56676" lon="-0.06998">
        <ele>996.32</ele>
        <time>2018-08-11T14:38:43Z</time>
      </trkpt>
      <trkpt lat="42.56683" lon="-0.07044">
        <ele>996.84</ele>
        <time>2018-08-11T14:38:45Z</time>
      </trkpt>
      <trkpt lat="42.56682" lon="-0.07088">
        <ele>993.94</ele>
        <time>2018-08-11T14:38:47Z</time>
      </trkpt>
      <trkpt lat="42.56677" lon="-0.0713">
        <ele>994.59</ele>
        <time>2018-08-11T14:38:49Z</time>
      </trkpt>
      <trkpt lat="42.56678" lon="-0.07167">
        <ele>995.35</ele>
        <time>2018-08-11T14:38:51Z</time>
      </trkpt>
      <trkpt lat="42.56684" lon="-0.07206">
        <ele>998.85</ele>
        <time>2018-08-11T14:38:53Z</time>
      </trkpt>
      <trkpt lat="42.56696" lon="-0.07243">
        <ele>999.8</ele>
        <time>2018-08-11T14:38:55Z</time>
      </trkpt>
      <trkpt lat="42.56709" lon="-0.07282">
        <ele>1001.28</ele>
        <time>2018-08-11T14:38:57Z</time>
      </trkpt>
      <trkpt lat="42.56719" lon="-0.07321">
        <ele>1002.53</ele>
        <time>2018-08-11T14:38:59Z</time>
      </trkpt>
      <trkpt lat="42.56724" lon="-0.07351">
        <ele>1003.77</ele>
        <time>2018-08-11T14:39:01Z</time>
      </trkpt>
      <trkpt lat="42.56727" lon="-0.0739">
        <ele>1003.67</ele>
        <time>2018-08-11T14:39:03Z</time>
      </trkpt>
      <trkpt lat="42.56732" lon="-0.07432">
        <ele>1003.45</ele>
        <time>2018-08-11T14:39:05Z</time>
      </trkpt>
      <trkpt lat="42.5674" lon="-0.07474">
        <ele>1004.55</ele>
        <time>2018-08-11T14:39:07Z</time>
      </trkpt>
      <trkpt lat="42.56745" lon="-0.07519">
        <ele>1002.62</ele>
        <time>2018-08-11T14:39:09Z</time>
      </trkpt>
      <trkpt lat="42.56748" lon="-0.07562">
        <ele>1003.14</ele>
        <time>2018-08-11T14:39:11Z</time>
      </trkpt>
      <trkpt lat="42.56751" lon="-0.07595">
        <ele>1000.88</ele>
        <time>2018-08-11T14:39:13Z</time>
      </trkpt>
      <trkpt lat="42.56757" lon="-0.07623">
        <ele>999.77</ele>
        <time>2018-08-11T14:39:15Z</time>
      </trkpt>
      <trkpt lat="42.56779" lon="-0.07634">
        <ele>998.27</ele>
        <time>2018-08-11T14:39:17Z</time>
      </trkpt>
      <trkpt lat="42.56804" lon="-0.07639">
        <ele>995.4</ele>
        <time>2018-08-11T14:39:19Z</time>
      </trkpt>
      <trkpt lat="42.56835" lon="-0.07638">
        <ele>994.94</ele>
        <time>2018-08-11T14:39:21Z</time>
      </trkpt>
      <trkpt lat="42.56867" lon="-0.07636">
        <ele>994.68</ele>
        <time>2018-08-11T14:39:23Z</time>
      </trkpt>
      <trkpt lat="42.56898" lon="-0.07633">
        <ele>992.35</ele>
        <time>2018-08-11T14:39:25Z</time>
      </trkpt>
      <trkpt lat="42.56923" lon="-0.0763">
        <ele>988.29</ele>
        <time>2018-08-11T14:39:27Z</time>
      </trkpt>
      <trkpt lat="42.56946" lon="-0.07636">
        <ele>987.01</ele>
        <time>2018-08-11T14:39:29Z</time>
      </trkpt>
      <trkpt lat="42.56945" lon="-0.07671">
        <ele>984.59</ele>
        <time>2018-08-11T14:39:33Z</time>
      </trkpt>
      <trkpt lat="42.56939" lon="-0.07699">
        <ele>985.14</ele>
        <time>2018-08-11T14:39:35Z</time>
      </trkpt>
      <trkpt lat="42.56923" lon="-0.07717">
        <ele>987.92</ele>
        <time>2018-08-11T14:39:37Z</time>
      </trkpt>
      <trkpt lat="42.56901" lon="-0.07729">
        <ele>986.98</ele>
        <time>2018-08-11T14:39:39Z</time>
      </trkpt>
      <trkpt lat="42.56873" lon="-0.07742">
        <ele>986.69</ele>
        <time>2018-08-11T14:39:41Z</time>
      </trkpt>
      <trkpt lat="42.56848" lon="-0.07753">
        <ele>986.66</ele>
        <time>2018-08-11T14:39:43Z</time>
      </trkpt>
      <trkpt lat="42.56817" lon="-0.07765">
        <ele>985.75</ele>
        <time>2018-08-11T14:39:45Z</time>
      </trkpt>
      <trkpt lat="42.56791" lon="-0.07775">
        <ele>984.27</ele>
        <time>2018-08-11T14:39:47Z</time>
      </trkpt>
      <trkpt lat="42.56767" lon="-0.07786">
        <ele>982.31</ele>
        <time>2018-08-11T14:39:49Z</time>
      </trkpt>
      <trkpt lat="42.56743" lon="-0.07799">
        <ele>980.81</ele>
        <time>2018-08-11T14:39:51Z</time>
      </trkpt>
      <trkpt lat="42.56725" lon="-0.07818">
        <ele>980.88</ele>
        <time>2018-08-11T14:39:53Z</time>
      </trkpt>
      <trkpt lat="42.56708" lon="-0.07843">
        <ele>980.89</ele>
        <time>2018-08-11T14:39:55Z</time>
      </trkpt>
      <trkpt lat="42.56704" lon="-0.0788">
        <ele>980.89</ele>
        <time>2018-08-11T14:39:57Z</time>
      </trkpt>
      <trkpt lat="42.56703" lon="-0.07916">
        <ele>981.8</ele>
        <time>2018-08-11T14:39:59Z</time>
      </trkpt>
      <trkpt lat="42.56708" lon="-0.07949">
        <ele>983.07</ele>
        <time>2018-08-11T14:40:01Z</time>
      </trkpt>
      <trkpt lat="42.56722" lon="-0.07984">
        <ele>984.52</ele>
        <time>2018-08-11T14:40:03Z</time>
      </trkpt>
      <trkpt lat="42.5674" lon="-0.08016">
        <ele>983.32</ele>
        <time>2018-08-11T14:40:05Z</time>
      </trkpt>
      <trkpt lat="42.56756" lon="-0.08056">
        <ele>984.33</ele>
        <time>2018-08-11T14:40:07Z</time>
      </trkpt>
      <trkpt lat="42.56771" lon="-0.08097">
        <ele>984.63</ele>
        <time>2018-08-11T14:40:09Z</time>
      </trkpt>
      <trkpt lat="42.56785" lon="-0.0814">
        <ele>984.66</ele>
        <time>2018-08-11T14:40:11Z</time>
      </trkpt>
      <trkpt lat="42.56798" lon="-0.08185">
        <ele>985.36</ele>
        <time>2018-08-11T14:40:13Z</time>
      </trkpt>
      <trkpt lat="42.56805" lon="-0.08208">
        <ele>986.27</ele>
        <time>2018-08-11T14:40:14Z</time>
      </trkpt>
      <trkpt lat="42.5682" lon="-0.08252">
        <ele>987.32</ele>
        <time>2018-08-11T14:40:16Z</time>
      </trkpt>
      <trkpt lat="42.56837" lon="-0.08292">
        <ele>988.33</ele>
        <time>2018-08-11T14:40:18Z</time>
      </trkpt>
      <trkpt lat="42.56855" lon="-0.08329">
        <ele>989.33</ele>
        <time>2018-08-11T14:40:20Z</time>
      </trkpt>
      <trkpt lat="42.56869" lon="-0.08371">
        <ele>988.72</ele>
        <time>2018-08-11T14:40:22Z</time>
      </trkpt>
      <trkpt lat="42.56881" lon="-0.08414">
        <ele>988.17</ele>
        <time>2018-08-11T14:40:24Z</time>
      </trkpt>
      <trkpt lat="42.56894" lon="-0.08455">
        <ele>989.31</ele>
        <time>2018-08-11T14:40:26Z</time>
      </trkpt>
      <trkpt lat="42.56907" lon="-0.08498">
        <ele>988.93</ele>
        <time>2018-08-11T14:40:28Z</time>
      </trkpt>
      <trkpt lat="42.5692" lon="-0.08539">
        <ele>988.47</ele>
        <time>2018-08-11T14:40:30Z</time>
      </trkpt>
      <trkpt lat="42.56926" lon="-0.08563">
        <ele>989.3</ele>
        <time>2018-08-11T14:40:31Z</time>
      </trkpt>
      <trkpt lat="42.56932" lon="-0.08587">
        <ele>990.25</ele>
        <time>2018-08-11T14:40:32Z</time>
      </trkpt>
      <trkpt lat="42.5694" lon="-0.0862">
        <ele>987.68</ele>
        <time>2018-08-11T14:40:34Z</time>
      </trkpt>
      <trkpt lat="42.56947" lon="-0.08664">
        <ele>988.15</ele>
        <time>2018-08-11T14:40:36Z</time>
      </trkpt>
      <trkpt lat="42.56945" lon="-0.08689">
        <ele>987.81</ele>
        <time>2018-08-11T14:40:37Z</time>
      </trkpt>
      <trkpt lat="42.56946" lon="-0.08714">
        <ele>986.3</ele>
        <time>2018-08-11T14:40:38Z</time>
      </trkpt>
      <trkpt lat="42.56948" lon="-0.08741">
        <ele>985.85</ele>
        <time>2018-08-11T14:40:39Z</time>
      </trkpt>
      <trkpt lat="42.56947" lon="-0.08768">
        <ele>985.72</ele>
        <time>2018-08-11T14:40:40Z</time>
      </trkpt>
      <trkpt lat="42.56945" lon="-0.08795">
        <ele>984.98</ele>
        <time>2018-08-11T14:40:41Z</time>
      </trkpt>
      <trkpt lat="42.56945" lon="-0.08822">
        <ele>984.75</ele>
        <time>2018-08-11T14:40:42Z</time>
      </trkpt>
      <trkpt lat="42.56947" lon="-0.08866">
        <ele>985.79</ele>
        <time>2018-08-11T14:40:44Z</time>
      </trkpt>
      <trkpt lat="42.56942" lon="-0.08907">
        <ele>984.76</ele>
        <time>2018-08-11T14:40:46Z</time>
      </trkpt>
      <trkpt lat="42.56954" lon="-0.08943">
        <ele>979.84</ele>
        <time>2018-08-11T14:40:48Z</time>
      </trkpt>
      <trkpt lat="42.5697" lon="-0.08973">
        <ele>977.36</ele>
        <time>2018-08-11T14:40:50Z</time>
      </trkpt>
      <trkpt lat="42.5698" lon="-0.09002">
        <ele>974.9</ele>
        <time>2018-08-11T14:40:52Z</time>
      </trkpt>
      <trkpt lat="42.56967" lon="-0.09033">
        <ele>974.89</ele>
        <time>2018-08-11T14:40:54Z</time>
      </trkpt>
      <trkpt lat="42.56956" lon="-0.09064">
        <ele>971.46</ele>
        <time>2018-08-11T14:40:56Z</time>
      </trkpt>
      <trkpt lat="42.56944" lon="-0.09092">
        <ele>969.82</ele>
        <time>2018-08-11T14:40:58Z</time>
      </trkpt>
      <trkpt lat="42.56939" lon="-0.09125">
        <ele>967.85</ele>
        <time>2018-08-11T14:41:00Z</time>
      </trkpt>
      <trkpt lat="42.56956" lon="-0.09146">
        <ele>963.55</ele>
        <time>2018-08-11T14:41:02Z</time>
      </trkpt>
      <trkpt lat="42.5697" lon="-0.09162">
        <ele>961.83</ele>
        <time>2018-08-11T14:41:04Z</time>
      </trkpt>
      <trkpt lat="42.56988" lon="-0.09184">
        <ele>959.36</ele>
        <time>2018-08-11T14:41:06Z</time>
      </trkpt>
      <trkpt lat="42.57007" lon="-0.09208">
        <ele>956.9</ele>
        <time>2018-08-11T14:41:08Z</time>
      </trkpt>
      <trkpt lat="42.57021" lon="-0.09237">
        <ele>955.49</ele>
        <time>2018-08-11T14:41:10Z</time>
      </trkpt>
      <trkpt lat="42.57013" lon="-0.09275">
        <ele>953.82</ele>
        <time>2018-08-11T14:41:12Z</time>
      </trkpt>
      <trkpt lat="42.57011" lon="-0.09317">
        <ele>954.37</ele>
        <time>2018-08-11T14:41:14Z</time>
      </trkpt>
      <trkpt lat="42.57009" lon="-0.09357">
        <ele>954.63</ele>
        <time>2018-08-11T14:41:16Z</time>
      </trkpt>
      <trkpt lat="42.57005" lon="-0.09401">
        <ele>955.78</ele>
        <time>2018-08-11T14:41:18Z</time>
      </trkpt>
      <trkpt lat="42.56997" lon="-0.09435">
        <ele>956.58</ele>
        <time>2018-08-11T14:41:20Z</time>
      </trkpt>
      <trkpt lat="42.5699" lon="-0.09469">
        <ele>957.56</ele>
        <time>2018-08-11T14:41:22Z</time>
      </trkpt>
      <trkpt lat="42.5699" lon="-0.09504">
        <ele>958.56</ele>
        <time>2018-08-11T14:41:24Z</time>
      </trkpt>
      <trkpt lat="42.56989" lon="-0.09542">
        <ele>958.65</ele>
        <time>2018-08-11T14:41:26Z</time>
      </trkpt>
      <trkpt lat="42.5699" lon="-0.09581">
        <ele>958.66</ele>
        <time>2018-08-11T14:41:28Z</time>
      </trkpt>
      <trkpt lat="42.56987" lon="-0.09623">
        <ele>961.67</ele>
        <time>2018-08-11T14:41:30Z</time>
      </trkpt>
      <trkpt lat="42.56982" lon="-0.09658">
        <ele>960.96</ele>
        <time>2018-08-11T14:41:32Z</time>
      </trkpt>
      <trkpt lat="42.56972" lon="-0.09698">
        <ele>959.08</ele>
        <time>2018-08-11T14:41:34Z</time>
      </trkpt>
      <trkpt lat="42.56957" lon="-0.09736">
        <ele>958.49</ele>
        <time>2018-08-11T14:41:36Z</time>
      </trkpt>
      <trkpt lat="42.56942" lon="-0.09773">
        <ele>959.34</ele>
        <time>2018-08-11T14:41:38Z</time>
      </trkpt>
      <trkpt lat="42.56934" lon="-0.09809">
        <ele>955.71</ele>
        <time>2018-08-11T14:41:40Z</time>
      </trkpt>
      <trkpt lat="42.56927" lon="-0.09843">
        <ele>954.75</ele>
        <time>2018-08-11T14:41:42Z</time>
      </trkpt>
      <trkpt lat="42.56919" lon="-0.09874">
        <ele>953.97</ele>
        <time>2018-08-11T14:41:44Z</time>
      </trkpt>
      <trkpt lat="42.5692" lon="-0.09906">
        <ele>952.57</ele>
        <time>2018-08-11T14:41:46Z</time>
      </trkpt>
      <trkpt lat="42.56926" lon="-0.09939">
        <ele>948.73</ele>
        <time>2018-08-11T14:41:48Z</time>
      </trkpt>
      <trkpt lat="42.56939" lon="-0.09961">
        <ele>949.36</ele>
        <time>2018-08-11T14:41:50Z</time>
      </trkpt>
      <trkpt lat="42.56944" lon="-0.09988">
        <ele>951.45</ele>
        <time>2018-08-11T14:41:52Z</time>
      </trkpt>
      <trkpt lat="42.56944" lon="-0.10022">
        <ele>949.07</ele>
        <time>2018-08-11T14:41:55Z</time>
      </trkpt>
      <trkpt lat="42.56941" lon="-0.10052">
        <ele>947.97</ele>
        <time>2018-08-11T14:41:58Z</time>
      </trkpt>
      <trkpt lat="42.56943" lon="-0.1008">
        <ele>945.57</ele>
        <time>2018-08-11T14:42:01Z</time>
      </trkpt>
      <trkpt lat="42.56951" lon="-0.10109">
        <ele>944.89</ele>
        <time>2018-08-11T14:42:04Z</time>
      </trkpt>
      <trkpt lat="42.56969" lon="-0.1012">
        <ele>943.07</ele>
        <time>2018-08-11T14:42:06Z</time>
      </trkpt>
      <trkpt lat="42.56994" lon="-0.10127">
        <ele>941.78</ele>
        <time>2018-08-11T14:42:08Z</time>
      </trkpt>
      <trkpt lat="42.57028" lon="-0.1013">
        <ele>939.15</ele>
        <time>2018-08-11T14:42:10Z</time>
      </trkpt>
      <trkpt lat="42.57058" lon="-0.10136">
        <ele>937.09</ele>
        <time>2018-08-11T14:42:12Z</time>
      </trkpt>
      <trkpt lat="42.57087" lon="-0.1015">
        <ele>935.3</ele>
        <time>2018-08-11T14:42:14Z</time>
      </trkpt>
      <trkpt lat="42.57117" lon="-0.10167">
        <ele>932.9</ele>
        <time>2018-08-11T14:42:16Z</time>
      </trkpt>
      <trkpt lat="42.57146" lon="-0.10195">
        <ele>932.68</ele>
        <time>2018-08-11T14:42:18Z</time>
      </trkpt>
      <trkpt lat="42.57161" lon="-0.10212">
        <ele>931.96</ele>
        <time>2018-08-11T14:42:19Z</time>
      </trkpt>
      <trkpt lat="42.57174" lon="-0.1023">
        <ele>931.05</ele>
        <time>2018-08-11T14:42:20Z</time>
      </trkpt>
      <trkpt lat="42.57188" lon="-0.1025">
        <ele>929.38</ele>
        <time>2018-08-11T14:42:21Z</time>
      </trkpt>
      <trkpt lat="42.57202" lon="-0.10268">
        <ele>926.77</ele>
        <time>2018-08-11T14:42:22Z</time>
      </trkpt>
      <trkpt lat="42.57217" lon="-0.10289">
        <ele>925.99</ele>
        <time>2018-08-11T14:42:23Z</time>
      </trkpt>
      <trkpt lat="42.57233" lon="-0.10307">
        <ele>924.36</ele>
        <time>2018-08-11T14:42:24Z</time>
      </trkpt>
      <trkpt lat="42.5725" lon="-0.10328">
        <ele>923.17</ele>
        <time>2018-08-11T14:42:25Z</time>
      </trkpt>
      <trkpt lat="42.57263" lon="-0.10351">
        <ele>920.71</ele>
        <time>2018-08-11T14:42:26Z</time>
      </trkpt>
      <trkpt lat="42.57281" lon="-0.1037">
        <ele>919.27</ele>
        <time>2018-08-11T14:42:27Z</time>
      </trkpt>
      <trkpt lat="42.57297" lon="-0.10391">
        <ele>918.84</ele>
        <time>2018-08-11T14:42:28Z</time>
      </trkpt>
      <trkpt lat="42.57312" lon="-0.10409">
        <ele>915.91</ele>
        <time>2018-08-11T14:42:29Z</time>
      </trkpt>
      <trkpt lat="42.57329" lon="-0.10429">
        <ele>913.63</ele>
        <time>2018-08-11T14:42:30Z</time>
      </trkpt>
      <trkpt lat="42.57344" lon="-0.10449">
        <ele>911.55</ele>
        <time>2018-08-11T14:42:31Z</time>
      </trkpt>
      <trkpt lat="42.57358" lon="-0.10469">
        <ele>910.93</ele>
        <time>2018-08-11T14:42:32Z</time>
      </trkpt>
      <trkpt lat="42.57372" lon="-0.1049">
        <ele>911.44</ele>
        <time>2018-08-11T14:42:33Z</time>
      </trkpt>
      <trkpt lat="42.57386" lon="-0.10512">
        <ele>911.59</ele>
        <time>2018-08-11T14:42:34Z</time>
      </trkpt>
      <trkpt lat="42.57401" lon="-0.10532">
        <ele>910.94</ele>
        <time>2018-08-11T14:42:35Z</time>
      </trkpt>
      <trkpt lat="42.57415" lon="-0.10553">
        <ele>909.34</ele>
        <time>2018-08-11T14:42:36Z</time>
      </trkpt>
      <trkpt lat="42.57431" lon="-0.10574">
        <ele>908.16</ele>
        <time>2018-08-11T14:42:37Z</time>
      </trkpt>
      <trkpt lat="42.57445" lon="-0.10594">
        <ele>905.71</ele>
        <time>2018-08-11T14:42:38Z</time>
      </trkpt>
      <trkpt lat="42.57461" lon="-0.10614">
        <ele>903.57</ele>
        <time>2018-08-11T14:42:39Z</time>
      </trkpt>
      <trkpt lat="42.57476" lon="-0.10634">
        <ele>902.23</ele>
        <time>2018-08-11T14:42:40Z</time>
      </trkpt>
      <trkpt lat="42.57492" lon="-0.10651">
        <ele>898.33</ele>
        <time>2018-08-11T14:42:41Z</time>
      </trkpt>
      <trkpt lat="42.57506" lon="-0.10671">
        <ele>896.46</ele>
        <time>2018-08-11T14:42:42Z</time>
      </trkpt>
      <trkpt lat="42.57521" lon="-0.10691">
        <ele>895.9</ele>
        <time>2018-08-11T14:42:43Z</time>
      </trkpt>
      <trkpt lat="42.57535" lon="-0.10711">
        <ele>894.33</ele>
        <time>2018-08-11T14:42:44Z</time>
      </trkpt>
      <trkpt lat="42.57548" lon="-0.1073">
        <ele>893.86</ele>
        <time>2018-08-11T14:42:45Z</time>
      </trkpt>
      <trkpt lat="42.5757" lon="-0.10767">
        <ele>890.67</ele>
        <time>2018-08-11T14:42:47Z</time>
      </trkpt>
      <trkpt lat="42.57588" lon="-0.10807">
        <ele>887.93</ele>
        <time>2018-08-11T14:42:49Z</time>
      </trkpt>
      <trkpt lat="42.57603" lon="-0.10842">
        <ele>886.28</ele>
        <time>2018-08-11T14:42:51Z</time>
      </trkpt>
      <trkpt lat="42.57614" lon="-0.10878">
        <ele>882.28</ele>
        <time>2018-08-11T14:42:53Z</time>
      </trkpt>
      <trkpt lat="42.5763" lon="-0.10914">
        <ele>879.19</ele>
        <time>2018-08-11T14:42:55Z</time>
      </trkpt>
      <trkpt lat="42.57649" lon="-0.10946">
        <ele>878.01</ele>
        <time>2018-08-11T14:42:57Z</time>
      </trkpt>
      <trkpt lat="42.57671" lon="-0.10977">
        <ele>877.9</ele>
        <time>2018-08-11T14:42:59Z</time>
      </trkpt>
      <trkpt lat="42.57694" lon="-0.11009">
        <ele>874.67</ele>
        <time>2018-08-11T14:43:01Z</time>
      </trkpt>
      <trkpt lat="42.57714" lon="-0.11038">
        <ele>873.96</ele>
        <time>2018-08-11T14:43:03Z</time>
      </trkpt>
      <trkpt lat="42.57731" lon="-0.1106">
        <ele>871.17</ele>
        <time>2018-08-11T14:43:05Z</time>
      </trkpt>
      <trkpt lat="42.57743" lon="-0.11088">
        <ele>867.88</ele>
        <time>2018-08-11T14:43:08Z</time>
      </trkpt>
      <trkpt lat="42.57725" lon="-0.11071">
        <ele>863.99</ele>
        <time>2018-08-11T14:43:37Z</time>
      </trkpt>
      <trkpt lat="42.57708" lon="-0.1106">
        <ele>860.66</ele>
        <time>2018-08-11T14:44:13Z</time>
      </trkpt>
      <trkpt lat="42.57731" lon="-0.1105">
        <ele>859.26</ele>
        <time>2018-08-11T14:44:22Z</time>
      </trkpt>
      <trkpt lat="42.57734" lon="-0.11078">
        <ele>861.93</ele>
        <time>2018-08-11T14:45:00Z</time>
      </trkpt>
      <trkpt lat="42.57752" lon="-0.11092">
        <ele>859.78</ele>
        <time>2018-08-11T14:45:06Z</time>
      </trkpt>
      <trkpt lat="42.57768" lon="-0.11105">
        <ele>857.75</ele>
        <time>2018-08-11T14:45:11Z</time>
      </trkpt>
      <trkpt lat="42.57774" lon="-0.11128">
        <ele>863.7</ele>
        <time>2018-08-11T14:46:50Z</time>
      </trkpt>
      <trkpt lat="42.57785" lon="-0.11154">
        <ele>863.36</ele>
        <time>2018-08-11T14:46:55Z</time>
      </trkpt>
      <trkpt lat="42.57794" lon="-0.11178">
        <ele>864.57</ele>
        <time>2018-08-11T14:47:00Z</time>
      </trkpt>
      <trkpt lat="42.57788" lon="-0.11154">
        <ele>860.68</ele>
        <time>2018-08-11T14:47:18Z</time>
      </trkpt>
      <trkpt lat="42.57781" lon="-0.11128">
        <ele>858.5</ele>
        <time>2018-08-11T14:47:21Z</time>
      </trkpt>
      <trkpt lat="42.5777" lon="-0.11109">
        <ele>859.29</ele>
        <time>2018-08-11T14:47:24Z</time>
      </trkpt>
      <trkpt lat="42.57751" lon="-0.111">
        <ele>861.04</ele>
        <time>2018-08-11T14:47:28Z</time>
      </trkpt>
      <trkpt lat="42.57755" lon="-0.11128">
        <ele>857.98</ele>
        <time>2018-08-11T14:47:36Z</time>
      </trkpt>
      <trkpt lat="42.57758" lon="-0.11154">
        <ele>856.97</ele>
        <time>2018-08-11T14:47:39Z</time>
      </trkpt>
      <trkpt lat="42.57761" lon="-0.1118">
        <ele>855.97</ele>
        <time>2018-08-11T14:47:42Z</time>
      </trkpt>
      <trkpt lat="42.57767" lon="-0.11207">
        <ele>855.67</ele>
        <time>2018-08-11T14:47:45Z</time>
      </trkpt>
      <trkpt lat="42.57772" lon="-0.11241">
        <ele>852.44</ele>
        <time>2018-08-11T14:47:48Z</time>
      </trkpt>
      <trkpt lat="42.57777" lon="-0.1127">
        <ele>850.61</ele>
        <time>2018-08-11T14:47:50Z</time>
      </trkpt>
      <trkpt lat="42.57776" lon="-0.11296">
        <ele>849.74</ele>
        <time>2018-08-11T14:47:52Z</time>
      </trkpt>
      <trkpt lat="42.57782" lon="-0.1133">
        <ele>850.27</ele>
        <time>2018-08-11T14:47:55Z</time>
      </trkpt>
      <trkpt lat="42.57789" lon="-0.11356">
        <ele>849.61</ele>
        <time>2018-08-11T14:47:58Z</time>
      </trkpt>
      <trkpt lat="42.57789" lon="-0.11385">
        <ele>848.96</ele>
        <time>2018-08-11T14:48:02Z</time>
      </trkpt>
      <trkpt lat="42.57801" lon="-0.11411">
        <ele>853.22</ele>
        <time>2018-08-11T14:48:12Z</time>
      </trkpt>
      <trkpt lat="42.57816" lon="-0.11429">
        <ele>855.62</ele>
        <time>2018-08-11T14:48:17Z</time>
      </trkpt>
      <trkpt lat="42.57827" lon="-0.11449">
        <ele>859.95</ele>
        <time>2018-08-11T14:49:47Z</time>
      </trkpt>
      <trkpt lat="42.57846" lon="-0.11453">
        <ele>862.75</ele>
        <time>2018-08-11T14:50:50Z</time>
      </trkpt>
      <trkpt lat="42.57865" lon="-0.1146">
        <ele>863.7</ele>
        <time>2018-08-11T14:50:53Z</time>
      </trkpt>
      <trkpt lat="42.57889" lon="-0.11473">
        <ele>863.17</ele>
        <time>2018-08-11T14:50:55Z</time>
      </trkpt>
      <trkpt lat="42.57912" lon="-0.11485">
        <ele>865.01</ele>
        <time>2018-08-11T14:50:57Z</time>
      </trkpt>
      <trkpt lat="42.57933" lon="-0.11496">
        <ele>864.69</ele>
        <time>2018-08-11T14:50:59Z</time>
      </trkpt>
      <trkpt lat="42.57954" lon="-0.11508">
        <ele>866.97</ele>
        <time>2018-08-11T14:51:01Z</time>
      </trkpt>
      <trkpt lat="42.57972" lon="-0.11515">
        <ele>870.12</ele>
        <time>2018-08-11T14:51:03Z</time>
      </trkpt>
      <trkpt lat="42.57993" lon="-0.1152">
        <ele>873.34</ele>
        <time>2018-08-11T14:51:05Z</time>
      </trkpt>
      <trkpt lat="42.58015" lon="-0.11516">
        <ele>873.84</ele>
        <time>2018-08-11T14:51:07Z</time>
      </trkpt>
      <trkpt lat="42.58034" lon="-0.11504">
        <ele>874.37</ele>
        <time>2018-08-11T14:51:09Z</time>
      </trkpt>
      <trkpt lat="42.58054" lon="-0.11496">
        <ele>875.33</ele>
        <time>2018-08-11T14:51:11Z</time>
      </trkpt>
      <trkpt lat="42.58077" lon="-0.11487">
        <ele>877.24</ele>
        <time>2018-08-11T14:51:13Z</time>
      </trkpt>
      <trkpt lat="42.58098" lon="-0.1148">
        <ele>878.53</ele>
        <time>2018-08-11T14:51:15Z</time>
      </trkpt>
      <trkpt lat="42.58124" lon="-0.11485">
        <ele>877.74</ele>
        <time>2018-08-11T14:51:17Z</time>
      </trkpt>
      <trkpt lat="42.58143" lon="-0.11495">
        <ele>876.98</ele>
        <time>2018-08-11T14:51:18Z</time>
      </trkpt>
      <trkpt lat="42.58179" lon="-0.11507">
        <ele>877.39</ele>
        <time>2018-08-11T14:51:20Z</time>
      </trkpt>
      <trkpt lat="42.58212" lon="-0.11521">
        <ele>877.84</ele>
        <time>2018-08-11T14:51:22Z</time>
      </trkpt>
      <trkpt lat="42.5823" lon="-0.11528">
        <ele>877.01</ele>
        <time>2018-08-11T14:51:23Z</time>
      </trkpt>
      <trkpt lat="42.58251" lon="-0.11529">
        <ele>876.06</ele>
        <time>2018-08-11T14:51:24Z</time>
      </trkpt>
      <trkpt lat="42.58272" lon="-0.11533">
        <ele>876.48</ele>
        <time>2018-08-11T14:51:25Z</time>
      </trkpt>
      <trkpt lat="42.58306" lon="-0.11548">
        <ele>880.98</ele>
        <time>2018-08-11T14:51:27Z</time>
      </trkpt>
      <trkpt lat="42.58339" lon="-0.11553">
        <ele>883.21</ele>
        <time>2018-08-11T14:51:29Z</time>
      </trkpt>
      <trkpt lat="42.58373" lon="-0.11563">
        <ele>885.23</ele>
        <time>2018-08-11T14:51:31Z</time>
      </trkpt>
      <trkpt lat="42.58391" lon="-0.11567">
        <ele>886.23</ele>
        <time>2018-08-11T14:51:32Z</time>
      </trkpt>
      <trkpt lat="42.5841" lon="-0.1157">
        <ele>887.23</ele>
        <time>2018-08-11T14:51:33Z</time>
      </trkpt>
      <trkpt lat="42.58429" lon="-0.11572">
        <ele>887.53</ele>
        <time>2018-08-11T14:51:34Z</time>
      </trkpt>
      <trkpt lat="42.58464" lon="-0.11574">
        <ele>887.65</ele>
        <time>2018-08-11T14:51:36Z</time>
      </trkpt>
      <trkpt lat="42.58502" lon="-0.11591">
        <ele>886.26</ele>
        <time>2018-08-11T14:51:38Z</time>
      </trkpt>
      <trkpt lat="42.58523" lon="-0.116">
        <ele>885.84</ele>
        <time>2018-08-11T14:51:39Z</time>
      </trkpt>
      <trkpt lat="42.58543" lon="-0.1161">
        <ele>885.71</ele>
        <time>2018-08-11T14:51:40Z</time>
      </trkpt>
      <trkpt lat="42.58564" lon="-0.11621">
        <ele>885.67</ele>
        <time>2018-08-11T14:51:41Z</time>
      </trkpt>
      <trkpt lat="42.58585" lon="-0.11629">
        <ele>886.36</ele>
        <time>2018-08-11T14:51:42Z</time>
      </trkpt>
      <trkpt lat="42.58609" lon="-0.11638">
        <ele>886.57</ele>
        <time>2018-08-11T14:51:43Z</time>
      </trkpt>
      <trkpt lat="42.58632" lon="-0.11649">
        <ele>887.33</ele>
        <time>2018-08-11T14:51:44Z</time>
      </trkpt>
      <trkpt lat="42.58656" lon="-0.11659">
        <ele>888.96</ele>
        <time>2018-08-11T14:51:45Z</time>
      </trkpt>
      <trkpt lat="42.58679" lon="-0.11669">
        <ele>888.75</ele>
        <time>2018-08-11T14:51:46Z</time>
      </trkpt>
      <trkpt lat="42.58704" lon="-0.11679">
        <ele>888.69</ele>
        <time>2018-08-11T14:51:47Z</time>
      </trkpt>
      <trkpt lat="42.5873" lon="-0.11688">
        <ele>889.37</ele>
        <time>2018-08-11T14:51:48Z</time>
      </trkpt>
      <trkpt lat="42.58755" lon="-0.117">
        <ele>888.87</ele>
        <time>2018-08-11T14:51:49Z</time>
      </trkpt>
      <trkpt lat="42.58779" lon="-0.11712">
        <ele>888.02</ele>
        <time>2018-08-11T14:51:50Z</time>
      </trkpt>
      <trkpt lat="42.58802" lon="-0.11723">
        <ele>888.47</ele>
        <time>2018-08-11T14:51:51Z</time>
      </trkpt>
      <trkpt lat="42.58827" lon="-0.11733">
        <ele>888.6</ele>
        <time>2018-08-11T14:51:52Z</time>
      </trkpt>
      <trkpt lat="42.58848" lon="-0.11743">
        <ele>889.34</ele>
        <time>2018-08-11T14:51:53Z</time>
      </trkpt>
      <trkpt lat="42.58869" lon="-0.11755">
        <ele>890.26</ele>
        <time>2018-08-11T14:51:54Z</time>
      </trkpt>
      <trkpt lat="42.58892" lon="-0.11765">
        <ele>890.54</ele>
        <time>2018-08-11T14:51:55Z</time>
      </trkpt>
      <trkpt lat="42.58914" lon="-0.11775">
        <ele>891.32</ele>
        <time>2018-08-11T14:51:56Z</time>
      </trkpt>
      <trkpt lat="42.58935" lon="-0.11784">
        <ele>892.26</ele>
        <time>2018-08-11T14:51:57Z</time>
      </trkpt>
      <trkpt lat="42.58956" lon="-0.11794">
        <ele>892.54</ele>
        <time>2018-08-11T14:51:58Z</time>
      </trkpt>
      <trkpt lat="42.58975" lon="-0.11804">
        <ele>893.32</ele>
        <time>2018-08-11T14:51:59Z</time>
      </trkpt>
      <trkpt lat="42.58997" lon="-0.11808">
        <ele>894.26</ele>
        <time>2018-08-11T14:52:00Z</time>
      </trkpt>
      <trkpt lat="42.59017" lon="-0.11815">
        <ele>894.54</ele>
        <time>2018-08-11T14:52:01Z</time>
      </trkpt>
      <trkpt lat="42.59039" lon="-0.1182">
        <ele>893.22</ele>
        <time>2018-08-11T14:52:02Z</time>
      </trkpt>
      <trkpt lat="42.59061" lon="-0.11825">
        <ele>893.53</ele>
        <time>2018-08-11T14:52:03Z</time>
      </trkpt>
      <trkpt lat="42.59081" lon="-0.11834">
        <ele>893.62</ele>
        <time>2018-08-11T14:52:04Z</time>
      </trkpt>
      <trkpt lat="42.5911" lon="-0.11854">
        <ele>895.26</ele>
        <time>2018-08-11T14:52:06Z</time>
      </trkpt>
      <trkpt lat="42.59141" lon="-0.11857">
        <ele>895.62</ele>
        <time>2018-08-11T14:52:08Z</time>
      </trkpt>
      <trkpt lat="42.59159" lon="-0.11849">
        <ele>895.65</ele>
        <time>2018-08-11T14:52:09Z</time>
      </trkpt>
      <trkpt lat="42.59178" lon="-0.11847">
        <ele>895.65</ele>
        <time>2018-08-11T14:52:10Z</time>
      </trkpt>
      <trkpt lat="42.59198" lon="-0.11846">
        <ele>895.66</ele>
        <time>2018-08-11T14:52:11Z</time>
      </trkpt>
      <trkpt lat="42.5922" lon="-0.11843">
        <ele>894.96</ele>
        <time>2018-08-11T14:52:12Z</time>
      </trkpt>
      <trkpt lat="42.59241" lon="-0.1184">
        <ele>894.75</ele>
        <time>2018-08-11T14:52:13Z</time>
      </trkpt>
      <trkpt lat="42.59259" lon="-0.11838">
        <ele>896.08</ele>
        <time>2018-08-11T14:52:14Z</time>
      </trkpt>
      <trkpt lat="42.59284" lon="-0.11828">
        <ele>896.49</ele>
        <time>2018-08-11T14:52:15Z</time>
      </trkpt>
      <trkpt lat="42.59304" lon="-0.11824">
        <ele>898.01</ele>
        <time>2018-08-11T14:52:16Z</time>
      </trkpt>
      <trkpt lat="42.59327" lon="-0.11823">
        <ele>899.86</ele>
        <time>2018-08-11T14:52:17Z</time>
      </trkpt>
      <trkpt lat="42.59364" lon="-0.11825">
        <ele>901.71</ele>
        <time>2018-08-11T14:52:19Z</time>
      </trkpt>
      <trkpt lat="42.59379" lon="-0.11809">
        <ele>901.66</ele>
        <time>2018-08-11T14:52:22Z</time>
      </trkpt>
      <trkpt lat="42.59396" lon="-0.11789">
        <ele>900.96</ele>
        <time>2018-08-11T14:52:24Z</time>
      </trkpt>
      <trkpt lat="42.59427" lon="-0.11785">
        <ele>901.39</ele>
        <time>2018-08-11T14:52:26Z</time>
      </trkpt>
      <trkpt lat="42.59446" lon="-0.11784">
        <ele>902.28</ele>
        <time>2018-08-11T14:52:27Z</time>
      </trkpt>
      <trkpt lat="42.59464" lon="-0.11782">
        <ele>903.24</ele>
        <time>2018-08-11T14:52:28Z</time>
      </trkpt>
      <trkpt lat="42.59497" lon="-0.11777">
        <ele>903.83</ele>
        <time>2018-08-11T14:52:30Z</time>
      </trkpt>
      <trkpt lat="42.5953" lon="-0.11773">
        <ele>903.88</ele>
        <time>2018-08-11T14:52:32Z</time>
      </trkpt>
      <trkpt lat="42.59557" lon="-0.11786">
        <ele>905.08</ele>
        <time>2018-08-11T14:52:34Z</time>
      </trkpt>
      <trkpt lat="42.59568" lon="-0.11821">
        <ele>905.61</ele>
        <time>2018-08-11T14:52:36Z</time>
      </trkpt>
      <trkpt lat="42.59584" lon="-0.11849">
        <ele>907.26</ele>
        <time>2018-08-11T14:52:38Z</time>
      </trkpt>
      <trkpt lat="42.59604" lon="-0.11866">
        <ele>907.41</ele>
        <time>2018-08-11T14:52:40Z</time>
      </trkpt>
      <trkpt lat="42.59624" lon="-0.11885">
        <ele>911.35</ele>
        <time>2018-08-11T14:52:42Z</time>
      </trkpt>
      <trkpt lat="42.59643" lon="-0.11871">
        <ele>920.07</ele>
        <time>2018-08-11T14:52:45Z</time>
      </trkpt>
      <trkpt lat="42.59661" lon="-0.11849">
        <ele>920.82</ele>
        <time>2018-08-11T14:52:47Z</time>
      </trkpt>
      <trkpt lat="42.59678" lon="-0.11827">
        <ele>920.67</ele>
        <time>2018-08-11T14:52:49Z</time>
      </trkpt>
      <trkpt lat="42.59697" lon="-0.11806">
        <ele>922.27</ele>
        <time>2018-08-11T14:52:51Z</time>
      </trkpt>
      <trkpt lat="42.59716" lon="-0.11784">
        <ele>922.62</ele>
        <time>2018-08-11T14:52:53Z</time>
      </trkpt>
      <trkpt lat="42.59735" lon="-0.11768">
        <ele>923.35</ele>
        <time>2018-08-11T14:52:55Z</time>
      </trkpt>
      <trkpt lat="42.59754" lon="-0.11762">
        <ele>925.24</ele>
        <time>2018-08-11T14:52:57Z</time>
      </trkpt>
      <trkpt lat="42.59774" lon="-0.11758">
        <ele>926.53</ele>
        <time>2018-08-11T14:52:59Z</time>
      </trkpt>
      <trkpt lat="42.59795" lon="-0.11751">
        <ele>928.05</ele>
        <time>2018-08-11T14:53:01Z</time>
      </trkpt>
      <trkpt lat="42.59815" lon="-0.11749">
        <ele>928.81</ele>
        <time>2018-08-11T14:53:03Z</time>
      </trkpt>
      <trkpt lat="42.59836" lon="-0.11751">
        <ele>928.67</ele>
        <time>2018-08-11T14:53:05Z</time>
      </trkpt>
      <trkpt lat="42.59851" lon="-0.11769">
        <ele>925.44</ele>
        <time>2018-08-11T14:53:07Z</time>
      </trkpt>
      <trkpt lat="42.59863" lon="-0.11791">
        <ele>923.82</ele>
        <time>2018-08-11T14:53:09Z</time>
      </trkpt>
      <trkpt lat="42.59888" lon="-0.11819">
        <ele>922.76</ele>
        <time>2018-08-11T14:53:11Z</time>
      </trkpt>
      <trkpt lat="42.59909" lon="-0.11839">
        <ele>921.06</ele>
        <time>2018-08-11T14:53:13Z</time>
      </trkpt>
      <trkpt lat="42.59932" lon="-0.11863">
        <ele>919.78</ele>
        <time>2018-08-11T14:53:15Z</time>
      </trkpt>
      <trkpt lat="42.59954" lon="-0.11884">
        <ele>919.67</ele>
        <time>2018-08-11T14:53:17Z</time>
      </trkpt>
      <trkpt lat="42.59975" lon="-0.11901">
        <ele>917.14</ele>
        <time>2018-08-11T14:53:19Z</time>
      </trkpt>
      <trkpt lat="42.59998" lon="-0.11914">
        <ele>915.09</ele>
        <time>2018-08-11T14:53:21Z</time>
      </trkpt>
      <trkpt lat="42.60016" lon="-0.1193">
        <ele>913.79</ele>
        <time>2018-08-11T14:53:23Z</time>
      </trkpt>
      <trkpt lat="42.60035" lon="-0.11941">
        <ele>911.78</ele>
        <time>2018-08-11T14:53:25Z</time>
      </trkpt>
      <trkpt lat="42.60053" lon="-0.11959">
        <ele>909.36</ele>
        <time>2018-08-11T14:53:27Z</time>
      </trkpt>
      <trkpt lat="42.6007" lon="-0.11983">
        <ele>906.9</ele>
        <time>2018-08-11T14:53:29Z</time>
      </trkpt>
      <trkpt lat="42.60084" lon="-0.12013">
        <ele>906.47</ele>
        <time>2018-08-11T14:53:31Z</time>
      </trkpt>
      <trkpt lat="42.60096" lon="-0.12037">
        <ele>905.73</ele>
        <time>2018-08-11T14:53:33Z</time>
      </trkpt>
      <trkpt lat="42.60118" lon="-0.12053">
        <ele>904.9</ele>
        <time>2018-08-11T14:53:36Z</time>
      </trkpt>
      <trkpt lat="42.60137" lon="-0.12055">
        <ele>903.28</ele>
        <time>2018-08-11T14:53:38Z</time>
      </trkpt>
      <trkpt lat="42.60155" lon="-0.12052">
        <ele>900.19</ele>
        <time>2018-08-11T14:53:40Z</time>
      </trkpt>
      <trkpt lat="42.60178" lon="-0.12047">
        <ele>897.09</ele>
        <time>2018-08-11T14:53:43Z</time>
      </trkpt>
      <trkpt lat="42.60205" lon="-0.12042">
        <ele>896.67</ele>
        <time>2018-08-11T14:53:46Z</time>
      </trkpt>
      <trkpt lat="42.60229" lon="-0.1204">
        <ele>894.78</ele>
        <time>2018-08-11T14:53:49Z</time>
      </trkpt>
      <trkpt lat="42.60249" lon="-0.12044">
        <ele>895.36</ele>
        <time>2018-08-11T14:53:52Z</time>
      </trkpt>
      <trkpt lat="42.60267" lon="-0.12051">
        <ele>896.35</ele>
        <time>2018-08-11T14:53:55Z</time>
      </trkpt>
      <trkpt lat="42.60288" lon="-0.12059">
        <ele>898.53</ele>
        <time>2018-08-11T14:53:58Z</time>
      </trkpt>
      <trkpt lat="42.60309" lon="-0.12072">
        <ele>896.28</ele>
        <time>2018-08-11T14:54:01Z</time>
      </trkpt>
      <trkpt lat="42.60329" lon="-0.12088">
        <ele>895.67</ele>
        <time>2018-08-11T14:54:04Z</time>
      </trkpt>
      <trkpt lat="42.60344" lon="-0.12105">
        <ele>895.6</ele>
        <time>2018-08-11T14:54:07Z</time>
      </trkpt>
      <trkpt lat="42.60361" lon="-0.12127">
        <ele>895.58</ele>
        <time>2018-08-11T14:54:11Z</time>
      </trkpt>
      <trkpt lat="42.60376" lon="-0.12148">
        <ele>894.68</ele>
        <time>2018-08-11T14:54:15Z</time>
      </trkpt>
      <trkpt lat="42.60387" lon="-0.1217">
        <ele>896.27</ele>
        <time>2018-08-11T14:54:19Z</time>
      </trkpt>
      <trkpt lat="42.60402" lon="-0.12188">
        <ele>899.62</ele>
        <time>2018-08-11T14:54:24Z</time>
      </trkpt>
      <trkpt lat="42.60411" lon="-0.12212">
        <ele>900.36</ele>
        <time>2018-08-11T14:54:28Z</time>
      </trkpt>
      <trkpt lat="42.60424" lon="-0.1223">
        <ele>904.54</ele>
        <time>2018-08-11T14:54:33Z</time>
      </trkpt>
      <trkpt lat="42.6043" lon="-0.12256">
        <ele>901.2</ele>
        <time>2018-08-11T14:54:43Z</time>
      </trkpt>
      <trkpt lat="42.60413" lon="-0.12228">
        <ele>908.57</ele>
        <time>2018-08-11T14:55:13Z</time>
      </trkpt>
      <trkpt lat="42.60399" lon="-0.122">
        <ele>908.37</ele>
        <time>2018-08-11T14:55:17Z</time>
      </trkpt>
      <trkpt lat="42.60398" lon="-0.12175">
        <ele>901.79</ele>
        <time>2018-08-11T14:57:42Z</time>
      </trkpt>
      <trkpt lat="42.60404" lon="-0.12199">
        <ele>900.33</ele>
        <time>2018-08-11T14:59:59Z</time>
      </trkpt>
      <trkpt lat="42.60389" lon="-0.12183">
        <ele>898.37</ele>
        <time>2018-08-11T15:01:25Z</time>
      </trkpt>
      <trkpt lat="42.60402" lon="-0.12165">
        <ele>899.11</ele>
        <time>2018-08-11T15:02:35Z</time>
      </trkpt>
      <trkpt lat="42.60392" lon="-0.12144">
        <ele>910.92</ele>
        <time>2018-08-11T15:07:15Z</time>
      </trkpt>
    </trkseg>
  </trk>
</gpx>